<?xml version='1.0' encoding='UTF-8'?><gpx version="1.1" creator="JPX - https://github.com/jenetics/jpx" xmlns="http://www.topografix.com/GPX/1/1"><trk><trkseg><trkpt lat="42.4585881" lon="14.2103638"><ele>6.0</ele><time>2026-04-19T08:39:52.663Z</time></trkpt><trkpt lat="42.458538" lon="14.2104327"><ele>6.0</ele><time>2026-04-19T08:41:37.663Z</time></trkpt><trkpt lat="42.4584456" lon="14.2103973"><ele>6.0</ele><time>2026-04-19T08:41:40.663Z</time></trkpt><trkpt lat="42.4583697" lon="14.2103693"><ele>6.0</ele><time>2026-04-19T08:41:42.664Z</time></trkpt><trkpt lat="42.4583002" lon="14.2104136"><ele>6.0</ele><time>2026-04-19T08:41:44.663Z</time></trkpt><trkpt lat="42.4583021" lon="14.2105213"><ele>6.0</ele><time>2026-04-19T08:41:46.663Z</time></trkpt><trkpt lat="42.4583595" lon="14.2106206"><ele>6.25</ele><time>2026-04-19T08:41:48.663Z</time></trkpt><trkpt lat="42.4584429" lon="14.2107293"><ele>6.5</ele><time>2026-04-19T08:41:50.663Z</time></trkpt><trkpt lat="42.4585207" lon="14.210846"><ele>6.75</ele><time>2026-04-19T08:41:52.663Z</time></trkpt><trkpt lat="42.4586026" lon="14.2109373"><ele>7.0</ele><time>2026-04-19T08:41:54.663Z</time></trkpt><trkpt lat="42.4587145" lon="14.2109725"><ele>7.000000000000001</ele><time>2026-04-19T08:41:56.663Z</time></trkpt><trkpt lat="42.4587733" lon="14.2109406"><ele>7.0</ele><time>2026-04-19T08:41:57.663Z</time></trkpt><trkpt lat="42.4588334" lon="14.2108931"><ele>7.0</ele><time>2026-04-19T08:41:58.664Z</time></trkpt><trkpt lat="42.4589056" lon="14.2108292"><ele>7.0</ele><time>2026-04-19T08:41:59.664Z</time></trkpt><trkpt lat="42.4589895" lon="14.2107686"><ele>7.000000000000001</ele><time>2026-04-19T08:42:00.663Z</time></trkpt><trkpt lat="42.4590838" lon="14.2106993"><ele>7.0</ele><time>2026-04-19T08:42:01.663Z</time></trkpt><trkpt lat="42.4591873" lon="14.2106319"><ele>6.5</ele><time>2026-04-19T08:42:02.663Z</time></trkpt><trkpt lat="42.4592895" lon="14.2105517"><ele>6.0</ele><time>2026-04-19T08:42:03.663Z</time></trkpt><trkpt lat="42.4593941" lon="14.210476"><ele>5.5</ele><time>2026-04-19T08:42:04.664Z</time></trkpt><trkpt lat="42.459489" lon="14.2104004"><ele>5.0</ele><time>2026-04-19T08:42:05.663Z</time></trkpt><trkpt lat="42.4595785" lon="14.210322"><ele>4.833333333333334</ele><time>2026-04-19T08:42:06.664Z</time></trkpt><trkpt lat="42.4596564" lon="14.2102547"><ele>4.666666666666667</ele><time>2026-04-19T08:42:07.663Z</time></trkpt><trkpt lat="42.4597343" lon="14.2102095"><ele>4.5</ele><time>2026-04-19T08:42:08.663Z</time></trkpt><trkpt lat="42.4598015" lon="14.2101719"><ele>4.333333333333333</ele><time>2026-04-19T08:42:09.663Z</time></trkpt><trkpt lat="42.4598713" lon="14.2101523"><ele>4.166666666666666</ele><time>2026-04-19T08:42:10.663Z</time></trkpt><trkpt lat="42.4599893" lon="14.2101017"><ele>4.0</ele><time>2026-04-19T08:42:12.663Z</time></trkpt><trkpt lat="42.4600409" lon="14.210049"><ele>4.0</ele><time>2026-04-19T08:42:13.664Z</time></trkpt><trkpt lat="42.460089" lon="14.2099816"><ele>3.9999999999999996</ele><time>2026-04-19T08:42:14.663Z</time></trkpt><trkpt lat="42.4601393" lon="14.2099253"><ele>4.0</ele><time>2026-04-19T08:42:15.663Z</time></trkpt><trkpt lat="42.4601917" lon="14.2098694"><ele>4.0</ele><time>2026-04-19T08:42:16.664Z</time></trkpt><trkpt lat="42.4602471" lon="14.209825"><ele>3.9999999999999996</ele><time>2026-04-19T08:42:17.664Z</time></trkpt><trkpt lat="42.4603045" lon="14.209787"><ele>4.0</ele><time>2026-04-19T08:42:18.663Z</time></trkpt><trkpt lat="42.4603665" lon="14.2097523"><ele>4.0</ele><time>2026-04-19T08:42:19.663Z</time></trkpt><trkpt lat="42.4604635" lon="14.2096966"><ele>4.0</ele><time>2026-04-19T08:42:21.663Z</time></trkpt><trkpt lat="42.4605276" lon="14.2096569"><ele>4.0</ele><time>2026-04-19T08:42:23.663Z</time></trkpt><trkpt lat="42.4606171" lon="14.2095748"><ele>4.0</ele><time>2026-04-19T08:42:51.664Z</time></trkpt><trkpt lat="42.4606893" lon="14.2094326"><ele>4.0</ele><time>2026-04-19T08:42:53.663Z</time></trkpt><trkpt lat="42.4607288" lon="14.2093433"><ele>4.0</ele><time>2026-04-19T08:42:54.664Z</time></trkpt><trkpt lat="42.4607792" lon="14.2092573"><ele>4.0</ele><time>2026-04-19T08:42:55.663Z</time></trkpt><trkpt lat="42.4608378" lon="14.2091661"><ele>4.0</ele><time>2026-04-19T08:42:56.664Z</time></trkpt><trkpt lat="42.4608985" lon="14.2090562"><ele>4.0</ele><time>2026-04-19T08:42:57.664Z</time></trkpt><trkpt lat="42.4609502" lon="14.2089467"><ele>4.0</ele><time>2026-04-19T08:42:58.663Z</time></trkpt><trkpt lat="42.4609773" lon="14.2088241"><ele>4.0</ele><time>2026-04-19T08:42:59.664Z</time></trkpt><trkpt lat="42.4609866" lon="14.2087148"><ele>4.333333333333333</ele><time>2026-04-19T08:43:00.664Z</time></trkpt><trkpt lat="42.4609869" lon="14.2086026"><ele>4.666666666666666</ele><time>2026-04-19T08:43:01.664Z</time></trkpt><trkpt lat="42.4609775" lon="14.2085022"><ele>5.0</ele><time>2026-04-19T08:43:02.663Z</time></trkpt><trkpt lat="42.4609693" lon="14.2084093"><ele>5.333333333333333</ele><time>2026-04-19T08:43:03.663Z</time></trkpt><trkpt lat="42.4609883" lon="14.2082749"><ele>5.666666666666667</ele><time>2026-04-19T08:43:05.664Z</time></trkpt><trkpt lat="42.4610129" lon="14.20819"><ele>6.0</ele><time>2026-04-19T08:43:07.664Z</time></trkpt><trkpt lat="42.4610569" lon="14.2080603"><ele>6.0</ele><time>2026-04-19T08:43:09.664Z</time></trkpt><trkpt lat="42.4610589" lon="14.2078683"><ele>6.0</ele><time>2026-04-19T08:43:11.663Z</time></trkpt><trkpt lat="42.4610546" lon="14.2077381"><ele>6.0</ele><time>2026-04-19T08:43:12.663Z</time></trkpt><trkpt lat="42.4610671" lon="14.2075912"><ele>6.0</ele><time>2026-04-19T08:43:13.664Z</time></trkpt><trkpt lat="42.4610979" lon="14.207438"><ele>5.5</ele><time>2026-04-19T08:43:14.663Z</time></trkpt><trkpt lat="42.4611277" lon="14.2072752"><ele>5.0</ele><time>2026-04-19T08:43:15.663Z</time></trkpt><trkpt lat="42.4611424" lon="14.2070966"><ele>4.5</ele><time>2026-04-19T08:43:16.664Z</time></trkpt><trkpt lat="42.4611374" lon="14.2069008"><ele>4.0</ele><time>2026-04-19T08:43:17.664Z</time></trkpt><trkpt lat="42.4611128" lon="14.2067095"><ele>4.0</ele><time>2026-04-19T08:43:18.663Z</time></trkpt><trkpt lat="42.4610823" lon="14.2065168"><ele>4.0</ele><time>2026-04-19T08:43:19.663Z</time></trkpt><trkpt lat="42.4610494" lon="14.2063296"><ele>4.0</ele><time>2026-04-19T08:43:20.663Z</time></trkpt><trkpt lat="42.4610098" lon="14.2061361"><ele>4.0</ele><time>2026-04-19T08:43:21.663Z</time></trkpt><trkpt lat="42.460953" lon="14.2059353"><ele>4.0</ele><time>2026-04-19T08:43:22.663Z</time></trkpt><trkpt lat="42.460888" lon="14.2057361"><ele>4.0</ele><time>2026-04-19T08:43:23.663Z</time></trkpt><trkpt lat="42.4608123" lon="14.2055374"><ele>4.0</ele><time>2026-04-19T08:43:24.663Z</time></trkpt><trkpt lat="42.4607277" lon="14.2053316"><ele>3.6666666666666665</ele><time>2026-04-19T08:43:25.664Z</time></trkpt><trkpt lat="42.4606417" lon="14.2051155"><ele>3.333333333333333</ele><time>2026-04-19T08:43:26.663Z</time></trkpt><trkpt lat="42.4605593" lon="14.2048991"><ele>3.0</ele><time>2026-04-19T08:43:27.663Z</time></trkpt><trkpt lat="42.4604763" lon="14.2046867"><ele>3.333333333333333</ele><time>2026-04-19T08:43:28.663Z</time></trkpt><trkpt lat="42.4604002" lon="14.2044887"><ele>3.6666666666666665</ele><time>2026-04-19T08:43:29.663Z</time></trkpt><trkpt lat="42.4603316" lon="14.2042985"><ele>4.0</ele><time>2026-04-19T08:43:30.664Z</time></trkpt><trkpt lat="42.4602643" lon="14.2041206"><ele>4.0</ele><time>2026-04-19T08:43:31.663Z</time></trkpt><trkpt lat="42.4602008" lon="14.2039476"><ele>4.0</ele><time>2026-04-19T08:43:32.663Z</time></trkpt><trkpt lat="42.4601409" lon="14.2037832"><ele>4.0</ele><time>2026-04-19T08:43:33.664Z</time></trkpt><trkpt lat="42.4600779" lon="14.2036193"><ele>4.0</ele><time>2026-04-19T08:43:34.663Z</time></trkpt><trkpt lat="42.4600179" lon="14.2034554"><ele>4.0</ele><time>2026-04-19T08:43:35.663Z</time></trkpt><trkpt lat="42.4599579" lon="14.2032938"><ele>4.0</ele><time>2026-04-19T08:43:36.664Z</time></trkpt><trkpt lat="42.4599012" lon="14.2031327"><ele>4.0</ele><time>2026-04-19T08:43:37.664Z</time></trkpt><trkpt lat="42.4598456" lon="14.2029791"><ele>4.0</ele><time>2026-04-19T08:43:38.663Z</time></trkpt><trkpt lat="42.4597878" lon="14.2028265"><ele>4.0</ele><time>2026-04-19T08:43:39.663Z</time></trkpt><trkpt lat="42.4597311" lon="14.2026743"><ele>4.0</ele><time>2026-04-19T08:43:40.663Z</time></trkpt><trkpt lat="42.4596702" lon="14.2025196"><ele>4.0</ele><time>2026-04-19T08:43:41.664Z</time></trkpt><trkpt lat="42.4596112" lon="14.2023577"><ele>4.0</ele><time>2026-04-19T08:43:42.663Z</time></trkpt><trkpt lat="42.4595523" lon="14.2021968"><ele>4.75</ele><time>2026-04-19T08:43:43.664Z</time></trkpt><trkpt lat="42.4594913" lon="14.2020381"><ele>5.5</ele><time>2026-04-19T08:43:44.664Z</time></trkpt><trkpt lat="42.459428" lon="14.201879"><ele>6.25</ele><time>2026-04-19T08:43:45.663Z</time></trkpt><trkpt lat="42.4593624" lon="14.2017128"><ele>7.0</ele><time>2026-04-19T08:43:46.664Z</time></trkpt><trkpt lat="42.459296" lon="14.2015429"><ele>6.0</ele><time>2026-04-19T08:43:47.663Z</time></trkpt><trkpt lat="42.4592286" lon="14.2013684"><ele>5.0</ele><time>2026-04-19T08:43:48.664Z</time></trkpt><trkpt lat="42.4591583" lon="14.2011909"><ele>4.0</ele><time>2026-04-19T08:43:49.663Z</time></trkpt><trkpt lat="42.4590844" lon="14.201005"><ele>4.0</ele><time>2026-04-19T08:43:50.664Z</time></trkpt><trkpt lat="42.4590064" lon="14.2008239"><ele>4.0</ele><time>2026-04-19T08:43:51.663Z</time></trkpt><trkpt lat="42.4589258" lon="14.2006328"><ele>4.0</ele><time>2026-04-19T08:43:52.664Z</time></trkpt><trkpt lat="42.4588407" lon="14.2004385"><ele>5.333333333333333</ele><time>2026-04-19T08:43:53.663Z</time></trkpt><trkpt lat="42.4587601" lon="14.2002475"><ele>6.666666666666666</ele><time>2026-04-19T08:43:54.663Z</time></trkpt><trkpt lat="42.4586812" lon="14.2000568"><ele>8.0</ele><time>2026-04-19T08:43:55.663Z</time></trkpt><trkpt lat="42.458596" lon="14.1998667"><ele>9.0</ele><time>2026-04-19T08:43:56.663Z</time></trkpt><trkpt lat="42.4585179" lon="14.1996737"><ele>10.0</ele><time>2026-04-19T08:43:57.663Z</time></trkpt><trkpt lat="42.4584427" lon="14.1994885"><ele>11.0</ele><time>2026-04-19T08:43:58.663Z</time></trkpt><trkpt lat="42.4583676" lon="14.1993077"><ele>11.0</ele><time>2026-04-19T08:43:59.663Z</time></trkpt><trkpt lat="42.4582956" lon="14.1991212"><ele>11.0</ele><time>2026-04-19T08:44:00.664Z</time></trkpt><trkpt lat="42.4582327" lon="14.1989531"><ele>11.0</ele><time>2026-04-19T08:44:01.663Z</time></trkpt><trkpt lat="42.4581757" lon="14.1988083"><ele>11.0</ele><time>2026-04-19T08:44:02.663Z</time></trkpt><trkpt lat="42.4581304" lon="14.19868"><ele>10.333333333333332</ele><time>2026-04-19T08:44:03.664Z</time></trkpt><trkpt lat="42.4581061" lon="14.1985622"><ele>9.666666666666666</ele><time>2026-04-19T08:44:04.664Z</time></trkpt><trkpt lat="42.4580968" lon="14.1984453"><ele>9.0</ele><time>2026-04-19T08:44:05.664Z</time></trkpt><trkpt lat="42.4580923" lon="14.1983312"><ele>8.333333333333334</ele><time>2026-04-19T08:44:06.663Z</time></trkpt><trkpt lat="42.4581007" lon="14.1982129"><ele>7.666666666666667</ele><time>2026-04-19T08:44:07.663Z</time></trkpt><trkpt lat="42.4581162" lon="14.198094"><ele>7.0</ele><time>2026-04-19T08:44:08.663Z</time></trkpt><trkpt lat="42.4581434" lon="14.1979698"><ele>6.8</ele><time>2026-04-19T08:44:09.664Z</time></trkpt><trkpt lat="42.4581846" lon="14.1978635"><ele>6.6</ele><time>2026-04-19T08:44:10.663Z</time></trkpt><trkpt lat="42.4582304" lon="14.1977732"><ele>6.3999999999999995</ele><time>2026-04-19T08:44:11.664Z</time></trkpt><trkpt lat="42.4583019" lon="14.1976781"><ele>6.199999999999999</ele><time>2026-04-19T08:44:13.664Z</time></trkpt><trkpt lat="42.4583977" lon="14.1975858"><ele>6.0</ele><time>2026-04-19T08:44:15.663Z</time></trkpt><trkpt lat="42.4584692" lon="14.1975308"><ele>6.0</ele><time>2026-04-19T08:44:16.664Z</time></trkpt><trkpt lat="42.4585747" lon="14.1974611"><ele>6.0</ele><time>2026-04-19T08:44:17.663Z</time></trkpt><trkpt lat="42.4586941" lon="14.1973864"><ele>6.0</ele><time>2026-04-19T08:44:18.663Z</time></trkpt><trkpt lat="42.4588277" lon="14.1973148"><ele>6.0</ele><time>2026-04-19T08:44:19.663Z</time></trkpt><trkpt lat="42.4589621" lon="14.1972316"><ele>6.25</ele><time>2026-04-19T08:44:20.664Z</time></trkpt><trkpt lat="42.4591014" lon="14.1971533"><ele>6.5</ele><time>2026-04-19T08:44:21.663Z</time></trkpt><trkpt lat="42.4592346" lon="14.1970798"><ele>6.75</ele><time>2026-04-19T08:44:22.664Z</time></trkpt><trkpt lat="42.4593598" lon="14.1970104"><ele>7.0</ele><time>2026-04-19T08:44:23.663Z</time></trkpt><trkpt lat="42.4594724" lon="14.1969406"><ele>7.000000000000001</ele><time>2026-04-19T08:44:24.663Z</time></trkpt><trkpt lat="42.4595658" lon="14.1968866"><ele>7.0</ele><time>2026-04-19T08:44:25.663Z</time></trkpt><trkpt lat="42.4596433" lon="14.1968399"><ele>7.0</ele><time>2026-04-19T08:44:26.663Z</time></trkpt><trkpt lat="42.459707" lon="14.1968048"><ele>7.0</ele><time>2026-04-19T08:44:27.663Z</time></trkpt><trkpt lat="42.4597881" lon="14.1967589"><ele>7.000000000000001</ele><time>2026-04-19T08:44:29.664Z</time></trkpt><trkpt lat="42.4598539" lon="14.1967367"><ele>7.0</ele><time>2026-04-19T08:44:32.664Z</time></trkpt><trkpt lat="42.4599356" lon="14.1967042"><ele>7.8</ele><time>2026-04-19T08:44:34.663Z</time></trkpt><trkpt lat="42.4600046" lon="14.1966211"><ele>8.6</ele><time>2026-04-19T08:44:36.664Z</time></trkpt><trkpt lat="42.4600286" lon="14.1964958"><ele>9.4</ele><time>2026-04-19T08:44:38.663Z</time></trkpt><trkpt lat="42.4600038" lon="14.1963279"><ele>10.200000000000001</ele><time>2026-04-19T08:44:40.663Z</time></trkpt><trkpt lat="42.4599822" lon="14.1962265"><ele>11.0</ele><time>2026-04-19T08:44:41.663Z</time></trkpt><trkpt lat="42.4599502" lon="14.1960976"><ele>11.0</ele><time>2026-04-19T08:44:42.663Z</time></trkpt><trkpt lat="42.4599039" lon="14.1959553"><ele>11.0</ele><time>2026-04-19T08:44:43.663Z</time></trkpt><trkpt lat="42.4598499" lon="14.1958106"><ele>11.0</ele><time>2026-04-19T08:44:44.663Z</time></trkpt><trkpt lat="42.4597974" lon="14.1956772"><ele>11.0</ele><time>2026-04-19T08:44:45.663Z</time></trkpt><trkpt lat="42.4597455" lon="14.1955583"><ele>11.0</ele><time>2026-04-19T08:44:46.664Z</time></trkpt><trkpt lat="42.4596946" lon="14.1954438"><ele>11.0</ele><time>2026-04-19T08:44:47.663Z</time></trkpt><trkpt lat="42.4596394" lon="14.1953273"><ele>11.0</ele><time>2026-04-19T08:44:48.664Z</time></trkpt><trkpt lat="42.4595864" lon="14.1952137"><ele>11.0</ele><time>2026-04-19T08:44:49.664Z</time></trkpt><trkpt lat="42.4595433" lon="14.1951053"><ele>11.0</ele><time>2026-04-19T08:44:50.664Z</time></trkpt><trkpt lat="42.4595046" lon="14.195004"><ele>11.0</ele><time>2026-04-19T08:44:51.663Z</time></trkpt><trkpt lat="42.4594613" lon="14.1949067"><ele>11.0</ele><time>2026-04-19T08:44:52.664Z</time></trkpt><trkpt lat="42.4594205" lon="14.1948207"><ele>11.0</ele><time>2026-04-19T08:44:53.663Z</time></trkpt><trkpt lat="42.4593889" lon="14.1947376"><ele>11.0</ele><time>2026-04-19T08:44:54.663Z</time></trkpt><trkpt lat="42.459361" lon="14.1946602"><ele>11.0</ele><time>2026-04-19T08:44:55.663Z</time></trkpt><trkpt lat="42.4593352" lon="14.1945783"><ele>11.0</ele><time>2026-04-19T08:44:56.663Z</time></trkpt><trkpt lat="42.4593006" lon="14.194499"><ele>11.0</ele><time>2026-04-19T08:44:57.663Z</time></trkpt><trkpt lat="42.4592714" lon="14.1944215"><ele>11.0</ele><time>2026-04-19T08:44:58.664Z</time></trkpt><trkpt lat="42.4592175" lon="14.1942582"><ele>11.0</ele><time>2026-04-19T08:45:00.663Z</time></trkpt><trkpt lat="42.4591827" lon="14.1941694"><ele>11.0</ele><time>2026-04-19T08:45:01.664Z</time></trkpt><trkpt lat="42.4591435" lon="14.1940789"><ele>11.0</ele><time>2026-04-19T08:45:02.663Z</time></trkpt><trkpt lat="42.4591017" lon="14.1939957"><ele>11.0</ele><time>2026-04-19T08:45:03.663Z</time></trkpt><trkpt lat="42.4590594" lon="14.1939079"><ele>11.0</ele><time>2026-04-19T08:45:04.663Z</time></trkpt><trkpt lat="42.4590205" lon="14.1938242"><ele>11.0</ele><time>2026-04-19T08:45:05.663Z</time></trkpt><trkpt lat="42.458973" lon="14.1937453"><ele>10.833333333333332</ele><time>2026-04-19T08:45:06.664Z</time></trkpt><trkpt lat="42.4589237" lon="14.1936716"><ele>10.666666666666666</ele><time>2026-04-19T08:45:07.663Z</time></trkpt><trkpt lat="42.4588738" lon="14.1936073"><ele>10.5</ele><time>2026-04-19T08:45:08.663Z</time></trkpt><trkpt lat="42.4588222" lon="14.1935461"><ele>10.333333333333334</ele><time>2026-04-19T08:45:09.664Z</time></trkpt><trkpt lat="42.4587311" lon="14.1934393"><ele>10.166666666666668</ele><time>2026-04-19T08:45:11.663Z</time></trkpt><trkpt lat="42.4586821" lon="14.193385"><ele>10.0</ele><time>2026-04-19T08:45:12.664Z</time></trkpt><trkpt lat="42.4585825" lon="14.193286"><ele>10.0</ele><time>2026-04-19T08:45:14.664Z</time></trkpt><trkpt lat="42.4585286" lon="14.1932335"><ele>10.0</ele><time>2026-04-19T08:45:15.663Z</time></trkpt><trkpt lat="42.4584682" lon="14.1931753"><ele>10.0</ele><time>2026-04-19T08:45:16.663Z</time></trkpt><trkpt lat="42.4584001" lon="14.1931107"><ele>10.0</ele><time>2026-04-19T08:45:17.663Z</time></trkpt><trkpt lat="42.4583309" lon="14.1930463"><ele>10.0</ele><time>2026-04-19T08:45:18.663Z</time></trkpt><trkpt lat="42.4582609" lon="14.1929829"><ele>10.0</ele><time>2026-04-19T08:45:19.664Z</time></trkpt><trkpt lat="42.4581865" lon="14.1929159"><ele>9.833333333333334</ele><time>2026-04-19T08:45:20.663Z</time></trkpt><trkpt lat="42.4581132" lon="14.192847"><ele>9.666666666666668</ele><time>2026-04-19T08:45:21.663Z</time></trkpt><trkpt lat="42.4580439" lon="14.1927819"><ele>9.5</ele><time>2026-04-19T08:45:22.663Z</time></trkpt><trkpt lat="42.4579744" lon="14.1927219"><ele>9.333333333333334</ele><time>2026-04-19T08:45:23.664Z</time></trkpt><trkpt lat="42.4579046" lon="14.1926568"><ele>9.166666666666666</ele><time>2026-04-19T08:45:24.664Z</time></trkpt><trkpt lat="42.4578292" lon="14.1925884"><ele>9.0</ele><time>2026-04-19T08:45:25.664Z</time></trkpt><trkpt lat="42.4577606" lon="14.1925264"><ele>9.0</ele><time>2026-04-19T08:45:26.663Z</time></trkpt><trkpt lat="42.4576885" lon="14.1924607"><ele>9.0</ele><time>2026-04-19T08:45:27.663Z</time></trkpt><trkpt lat="42.4576114" lon="14.1923882"><ele>9.0</ele><time>2026-04-19T08:45:28.663Z</time></trkpt><trkpt lat="42.4575348" lon="14.1923157"><ele>9.0</ele><time>2026-04-19T08:45:29.663Z</time></trkpt><trkpt lat="42.4574572" lon="14.1922456"><ele>9.0</ele><time>2026-04-19T08:45:30.663Z</time></trkpt><trkpt lat="42.4573814" lon="14.1921725"><ele>9.2</ele><time>2026-04-19T08:45:31.663Z</time></trkpt><trkpt lat="42.4573041" lon="14.192097"><ele>9.4</ele><time>2026-04-19T08:45:32.664Z</time></trkpt><trkpt lat="42.4572274" lon="14.1920231"><ele>9.6</ele><time>2026-04-19T08:45:33.663Z</time></trkpt><trkpt lat="42.4571285" lon="14.1919211"><ele>9.8</ele><time>2026-04-19T08:45:35.663Z</time></trkpt><trkpt lat="42.4570566" lon="14.1918518"><ele>10.0</ele><time>2026-04-19T08:45:36.663Z</time></trkpt><trkpt lat="42.4569823" lon="14.191784"><ele>10.4</ele><time>2026-04-19T08:45:37.664Z</time></trkpt><trkpt lat="42.4569134" lon="14.1917041"><ele>10.8</ele><time>2026-04-19T08:45:38.663Z</time></trkpt><trkpt lat="42.4568419" lon="14.191636"><ele>11.2</ele><time>2026-04-19T08:45:39.663Z</time></trkpt><trkpt lat="42.4567633" lon="14.1915652"><ele>11.6</ele><time>2026-04-19T08:45:40.663Z</time></trkpt><trkpt lat="42.4566854" lon="14.1914914"><ele>12.0</ele><time>2026-04-19T08:45:41.663Z</time></trkpt><trkpt lat="42.45661" lon="14.1914221"><ele>12.333333333333334</ele><time>2026-04-19T08:45:42.663Z</time></trkpt><trkpt lat="42.4565363" lon="14.191349"><ele>12.666666666666668</ele><time>2026-04-19T08:45:43.664Z</time></trkpt><trkpt lat="42.456472" lon="14.1912756"><ele>13.0</ele><time>2026-04-19T08:45:44.664Z</time></trkpt><trkpt lat="42.4564166" lon="14.1912043"><ele>13.333333333333334</ele><time>2026-04-19T08:45:45.664Z</time></trkpt><trkpt lat="42.456369" lon="14.1911335"><ele>13.666666666666668</ele><time>2026-04-19T08:45:46.663Z</time></trkpt><trkpt lat="42.4563176" lon="14.1910729"><ele>14.0</ele><time>2026-04-19T08:45:47.664Z</time></trkpt><trkpt lat="42.4562551" lon="14.1910216"><ele>14.000000000000002</ele><time>2026-04-19T08:45:48.663Z</time></trkpt><trkpt lat="42.4561841" lon="14.1909769"><ele>14.0</ele><time>2026-04-19T08:45:49.663Z</time></trkpt><trkpt lat="42.4561064" lon="14.1909357"><ele>14.0</ele><time>2026-04-19T08:45:50.663Z</time></trkpt><trkpt lat="42.4560277" lon="14.190903"><ele>14.0</ele><time>2026-04-19T08:45:51.671Z</time></trkpt><trkpt lat="42.4559486" lon="14.1908613"><ele>14.000000000000002</ele><time>2026-04-19T08:45:52.671Z</time></trkpt><trkpt lat="42.4558719" lon="14.1908039"><ele>14.0</ele><time>2026-04-19T08:45:53.671Z</time></trkpt><trkpt lat="42.455803" lon="14.1907334"><ele>14.0</ele><time>2026-04-19T08:45:54.671Z</time></trkpt><trkpt lat="42.4557255" lon="14.1906625"><ele>13.999999999999998</ele><time>2026-04-19T08:45:55.67Z</time></trkpt><trkpt lat="42.4556474" lon="14.1905901"><ele>13.999999999999998</ele><time>2026-04-19T08:45:56.67Z</time></trkpt><trkpt lat="42.4555502" lon="14.1905234"><ele>14.0</ele><time>2026-04-19T08:45:57.67Z</time></trkpt><trkpt lat="42.4554682" lon="14.1904422"><ele>14.0</ele><time>2026-04-19T08:45:58.67Z</time></trkpt><trkpt lat="42.4553152" lon="14.1903876"><ele>14.0</ele><time>2026-04-19T08:45:59.671Z</time></trkpt><trkpt lat="42.4552344" lon="14.190301"><ele>13.999999999999998</ele><time>2026-04-19T08:46:00.671Z</time></trkpt><trkpt lat="42.455155" lon="14.1902145"><ele>13.999999999999998</ele><time>2026-04-19T08:46:01.671Z</time></trkpt><trkpt lat="42.4550757" lon="14.1901265"><ele>14.0</ele><time>2026-04-19T08:46:02.67Z</time></trkpt><trkpt lat="42.4549951" lon="14.1900378"><ele>14.0</ele><time>2026-04-19T08:46:03.671Z</time></trkpt><trkpt lat="42.4549115" lon="14.1899525"><ele>14.0</ele><time>2026-04-19T08:46:04.671Z</time></trkpt><trkpt lat="42.4548325" lon="14.1898679"><ele>13.999999999999998</ele><time>2026-04-19T08:46:05.671Z</time></trkpt><trkpt lat="42.4547556" lon="14.1897865"><ele>13.999999999999998</ele><time>2026-04-19T08:46:06.67Z</time></trkpt><trkpt lat="42.4546791" lon="14.1897009"><ele>14.0</ele><time>2026-04-19T08:46:07.671Z</time></trkpt><trkpt lat="42.4546082" lon="14.1896067"><ele>14.0</ele><time>2026-04-19T08:46:08.671Z</time></trkpt><trkpt lat="42.4545341" lon="14.1895083"><ele>13.0</ele><time>2026-04-19T08:46:09.67Z</time></trkpt><trkpt lat="42.4544632" lon="14.1894091"><ele>11.999999999999998</ele><time>2026-04-19T08:46:10.67Z</time></trkpt><trkpt lat="42.4543843" lon="14.1893093"><ele>11.0</ele><time>2026-04-19T08:46:11.671Z</time></trkpt><trkpt lat="42.4543103" lon="14.1892078"><ele>10.0</ele><time>2026-04-19T08:46:12.67Z</time></trkpt><trkpt lat="42.4542456" lon="14.1891134"><ele>9.0</ele><time>2026-04-19T08:46:13.67Z</time></trkpt><trkpt lat="42.4541785" lon="14.1890316"><ele>9.428571428571429</ele><time>2026-04-19T08:46:14.671Z</time></trkpt><trkpt lat="42.4541184" lon="14.1889598"><ele>9.857142857142858</ele><time>2026-04-19T08:46:15.67Z</time></trkpt><trkpt lat="42.4540618" lon="14.1888908"><ele>10.285714285714285</ele><time>2026-04-19T08:46:16.67Z</time></trkpt><trkpt lat="42.4540138" lon="14.1888268"><ele>10.714285714285715</ele><time>2026-04-19T08:46:17.67Z</time></trkpt><trkpt lat="42.4539625" lon="14.1887636"><ele>11.142857142857142</ele><time>2026-04-19T08:46:18.67Z</time></trkpt><trkpt lat="42.4539046" lon="14.1886932"><ele>11.571428571428571</ele><time>2026-04-19T08:46:19.67Z</time></trkpt><trkpt lat="42.4538502" lon="14.1886271"><ele>12.0</ele><time>2026-04-19T08:46:20.67Z</time></trkpt><trkpt lat="42.4537996" lon="14.1885651"><ele>12.0</ele><time>2026-04-19T08:46:21.67Z</time></trkpt><trkpt lat="42.4537458" lon="14.1884995"><ele>12.0</ele><time>2026-04-19T08:46:22.67Z</time></trkpt><trkpt lat="42.4536903" lon="14.1884246"><ele>12.0</ele><time>2026-04-19T08:46:23.671Z</time></trkpt><trkpt lat="42.4536319" lon="14.1883451"><ele>12.0</ele><time>2026-04-19T08:46:24.67Z</time></trkpt><trkpt lat="42.4535674" lon="14.1882638"><ele>12.0</ele><time>2026-04-19T08:46:25.67Z</time></trkpt><trkpt lat="42.4535085" lon="14.1881779"><ele>12.0</ele><time>2026-04-19T08:46:26.67Z</time></trkpt><trkpt lat="42.4534326" lon="14.1880929"><ele>12.399999999999999</ele><time>2026-04-19T08:46:27.671Z</time></trkpt><trkpt lat="42.4533544" lon="14.1880058"><ele>12.799999999999999</ele><time>2026-04-19T08:46:28.67Z</time></trkpt><trkpt lat="42.4532802" lon="14.1879136"><ele>13.2</ele><time>2026-04-19T08:46:29.67Z</time></trkpt><trkpt lat="42.453207" lon="14.1878099"><ele>13.6</ele><time>2026-04-19T08:46:30.67Z</time></trkpt><trkpt lat="42.4531261" lon="14.1877084"><ele>14.0</ele><time>2026-04-19T08:46:31.67Z</time></trkpt><trkpt lat="42.4530462" lon="14.1876118"><ele>14.0</ele><time>2026-04-19T08:46:32.67Z</time></trkpt><trkpt lat="42.452963" lon="14.1875084"><ele>13.999999999999998</ele><time>2026-04-19T08:46:33.67Z</time></trkpt><trkpt lat="42.452885" lon="14.1874013"><ele>13.999999999999998</ele><time>2026-04-19T08:46:34.67Z</time></trkpt><trkpt lat="42.4528086" lon="14.187302"><ele>14.0</ele><time>2026-04-19T08:46:35.67Z</time></trkpt><trkpt lat="42.4527282" lon="14.1871987"><ele>14.0</ele><time>2026-04-19T08:46:36.67Z</time></trkpt><trkpt lat="42.4526492" lon="14.1870965"><ele>14.399999999999999</ele><time>2026-04-19T08:46:37.671Z</time></trkpt><trkpt lat="42.4525766" lon="14.1869957"><ele>14.799999999999999</ele><time>2026-04-19T08:46:38.67Z</time></trkpt><trkpt lat="42.4524973" lon="14.1868987"><ele>15.200000000000001</ele><time>2026-04-19T08:46:39.67Z</time></trkpt><trkpt lat="42.4524284" lon="14.1868105"><ele>15.600000000000001</ele><time>2026-04-19T08:46:40.671Z</time></trkpt><trkpt lat="42.4523611" lon="14.1867209"><ele>16.0</ele><time>2026-04-19T08:46:41.671Z</time></trkpt><trkpt lat="42.4523013" lon="14.1866395"><ele>16.0</ele><time>2026-04-19T08:46:42.671Z</time></trkpt><trkpt lat="42.4522476" lon="14.1865704"><ele>16.0</ele><time>2026-04-19T08:46:43.671Z</time></trkpt><trkpt lat="42.4521729" lon="14.1864599"><ele>16.0</ele><time>2026-04-19T08:46:45.67Z</time></trkpt><trkpt lat="42.4521003" lon="14.1863177"><ele>16.0</ele><time>2026-04-19T08:46:47.67Z</time></trkpt><trkpt lat="42.4520586" lon="14.1862309"><ele>16.0</ele><time>2026-04-19T08:46:48.671Z</time></trkpt><trkpt lat="42.4520184" lon="14.1861493"><ele>15.714285714285714</ele><time>2026-04-19T08:46:49.671Z</time></trkpt><trkpt lat="42.4519837" lon="14.1860603"><ele>15.428571428571427</ele><time>2026-04-19T08:46:50.671Z</time></trkpt><trkpt lat="42.4519622" lon="14.1859659"><ele>15.142857142857142</ele><time>2026-04-19T08:46:51.67Z</time></trkpt><trkpt lat="42.451964" lon="14.1858747"><ele>14.857142857142858</ele><time>2026-04-19T08:46:52.671Z</time></trkpt><trkpt lat="42.4519798" lon="14.185787"><ele>14.571428571428571</ele><time>2026-04-19T08:46:53.67Z</time></trkpt><trkpt lat="42.4519855" lon="14.1856833"><ele>14.285714285714285</ele><time>2026-04-19T08:46:54.67Z</time></trkpt><trkpt lat="42.4519773" lon="14.1855772"><ele>14.0</ele><time>2026-04-19T08:46:55.671Z</time></trkpt><trkpt lat="42.4519549" lon="14.1854683"><ele>14.000000000000002</ele><time>2026-04-19T08:46:56.67Z</time></trkpt><trkpt lat="42.4519177" lon="14.185363"><ele>14.0</ele><time>2026-04-19T08:46:57.671Z</time></trkpt><trkpt lat="42.4518822" lon="14.1852634"><ele>14.0</ele><time>2026-04-19T08:46:58.671Z</time></trkpt><trkpt lat="42.4518643" lon="14.185163"><ele>14.0</ele><time>2026-04-19T08:46:59.671Z</time></trkpt><trkpt lat="42.4518635" lon="14.1850545"><ele>14.000000000000002</ele><time>2026-04-19T08:47:00.67Z</time></trkpt><trkpt lat="42.4518967" lon="14.1848962"><ele>14.0</ele><time>2026-04-19T08:47:02.67Z</time></trkpt><trkpt lat="42.4519176" lon="14.1848107"><ele>14.0</ele><time>2026-04-19T08:47:03.671Z</time></trkpt><trkpt lat="42.4519374" lon="14.18471"><ele>13.999999999999998</ele><time>2026-04-19T08:47:04.67Z</time></trkpt><trkpt lat="42.451953" lon="14.1845953"><ele>13.999999999999998</ele><time>2026-04-19T08:47:05.67Z</time></trkpt><trkpt lat="42.4519596" lon="14.1844584"><ele>14.0</ele><time>2026-04-19T08:47:06.671Z</time></trkpt><trkpt lat="42.4519421" lon="14.1843089"><ele>14.0</ele><time>2026-04-19T08:47:07.671Z</time></trkpt><trkpt lat="42.45191" lon="14.1841493"><ele>15.25</ele><time>2026-04-19T08:47:08.671Z</time></trkpt><trkpt lat="42.4518697" lon="14.1839877"><ele>16.5</ele><time>2026-04-19T08:47:09.67Z</time></trkpt><trkpt lat="42.4518197" lon="14.1838167"><ele>17.75</ele><time>2026-04-19T08:47:10.67Z</time></trkpt><trkpt lat="42.4517667" lon="14.1836436"><ele>19.0</ele><time>2026-04-19T08:47:11.67Z</time></trkpt><trkpt lat="42.4517151" lon="14.1834695"><ele>19.0</ele><time>2026-04-19T08:47:12.67Z</time></trkpt><trkpt lat="42.4516645" lon="14.1832927"><ele>19.0</ele><time>2026-04-19T08:47:13.67Z</time></trkpt><trkpt lat="42.4516138" lon="14.183117"><ele>19.0</ele><time>2026-04-19T08:47:14.671Z</time></trkpt><trkpt lat="42.4515621" lon="14.1829381"><ele>19.0</ele><time>2026-04-19T08:47:15.67Z</time></trkpt><trkpt lat="42.4515148" lon="14.1827573"><ele>19.0</ele><time>2026-04-19T08:47:16.67Z</time></trkpt><trkpt lat="42.4514618" lon="14.1825776"><ele>19.0</ele><time>2026-04-19T08:47:17.67Z</time></trkpt><trkpt lat="42.4514172" lon="14.1824036"><ele>19.0</ele><time>2026-04-19T08:47:18.67Z</time></trkpt><trkpt lat="42.4513725" lon="14.1822222"><ele>19.0</ele><time>2026-04-19T08:47:19.67Z</time></trkpt><trkpt lat="42.4513402" lon="14.1820563"><ele>18.75</ele><time>2026-04-19T08:47:20.671Z</time></trkpt><trkpt lat="42.4513073" lon="14.1818717"><ele>18.5</ele><time>2026-04-19T08:47:21.671Z</time></trkpt><trkpt lat="42.4512931" lon="14.1816946"><ele>18.25</ele><time>2026-04-19T08:47:22.671Z</time></trkpt><trkpt lat="42.4512958" lon="14.1815146"><ele>18.0</ele><time>2026-04-19T08:47:23.671Z</time></trkpt><trkpt lat="42.4513264" lon="14.1813317"><ele>18.0</ele><time>2026-04-19T08:47:24.67Z</time></trkpt><trkpt lat="42.4513681" lon="14.1811727"><ele>18.0</ele><time>2026-04-19T08:47:25.67Z</time></trkpt><trkpt lat="42.4514349" lon="14.1810013"><ele>18.0</ele><time>2026-04-19T08:47:26.67Z</time></trkpt><trkpt lat="42.451503" lon="14.1808421"><ele>18.0</ele><time>2026-04-19T08:47:27.671Z</time></trkpt><trkpt lat="42.4515776" lon="14.1806875"><ele>19.0</ele><time>2026-04-19T08:47:28.67Z</time></trkpt><trkpt lat="42.4516685" lon="14.180543"><ele>20.0</ele><time>2026-04-19T08:47:29.67Z</time></trkpt><trkpt lat="42.4517736" lon="14.1804149"><ele>21.0</ele><time>2026-04-19T08:47:30.67Z</time></trkpt><trkpt lat="42.4518845" lon="14.1802728"><ele>22.0</ele><time>2026-04-19T08:47:31.67Z</time></trkpt><trkpt lat="42.452002" lon="14.1801247"><ele>22.0</ele><time>2026-04-19T08:47:32.671Z</time></trkpt><trkpt lat="42.452114" lon="14.1799699"><ele>22.0</ele><time>2026-04-19T08:47:33.67Z</time></trkpt><trkpt lat="42.4522294" lon="14.179801"><ele>22.0</ele><time>2026-04-19T08:47:34.671Z</time></trkpt><trkpt lat="42.4523489" lon="14.1796203"><ele>23.333333333333332</ele><time>2026-04-19T08:47:35.67Z</time></trkpt><trkpt lat="42.452461" lon="14.1794338"><ele>24.666666666666664</ele><time>2026-04-19T08:47:36.67Z</time></trkpt><trkpt lat="42.4525769" lon="14.1792411"><ele>26.0</ele><time>2026-04-19T08:47:37.671Z</time></trkpt><trkpt lat="42.4526898" lon="14.1790374"><ele>26.333333333333332</ele><time>2026-04-19T08:47:38.671Z</time></trkpt><trkpt lat="42.4528" lon="14.178837"><ele>26.666666666666664</ele><time>2026-04-19T08:47:39.671Z</time></trkpt><trkpt lat="42.4529095" lon="14.1786243"><ele>27.0</ele><time>2026-04-19T08:47:40.67Z</time></trkpt><trkpt lat="42.453013" lon="14.1784016"><ele>29.666666666666664</ele><time>2026-04-19T08:47:41.67Z</time></trkpt><trkpt lat="42.4531209" lon="14.1781742"><ele>32.33333333333333</ele><time>2026-04-19T08:47:42.671Z</time></trkpt><trkpt lat="42.4532306" lon="14.1779369"><ele>35.0</ele><time>2026-04-19T08:47:43.67Z</time></trkpt><trkpt lat="42.4533403" lon="14.1776808"><ele>35.0</ele><time>2026-04-19T08:47:44.671Z</time></trkpt><trkpt lat="42.4534572" lon="14.1774311"><ele>35.0</ele><time>2026-04-19T08:47:45.67Z</time></trkpt><trkpt lat="42.4535719" lon="14.177184"><ele>35.0</ele><time>2026-04-19T08:47:46.67Z</time></trkpt><trkpt lat="42.4536826" lon="14.176952"><ele>36.0</ele><time>2026-04-19T08:47:47.67Z</time></trkpt><trkpt lat="42.4538092" lon="14.1767166"><ele>37.0</ele><time>2026-04-19T08:47:48.67Z</time></trkpt><trkpt lat="42.4539347" lon="14.1764868"><ele>38.0</ele><time>2026-04-19T08:47:49.67Z</time></trkpt><trkpt lat="42.4540749" lon="14.1762609"><ele>38.33333333333333</ele><time>2026-04-19T08:47:50.67Z</time></trkpt><trkpt lat="42.4542177" lon="14.1760395"><ele>38.666666666666664</ele><time>2026-04-19T08:47:51.67Z</time></trkpt><trkpt lat="42.4543627" lon="14.1758292"><ele>39.0</ele><time>2026-04-19T08:47:52.671Z</time></trkpt><trkpt lat="42.4545179" lon="14.1756326"><ele>40.666666666666664</ele><time>2026-04-19T08:47:53.67Z</time></trkpt><trkpt lat="42.4546785" lon="14.1754465"><ele>42.33333333333333</ele><time>2026-04-19T08:47:54.67Z</time></trkpt><trkpt lat="42.4548481" lon="14.1752614"><ele>44.0</ele><time>2026-04-19T08:47:55.67Z</time></trkpt><trkpt lat="42.455025" lon="14.1750895"><ele>44.0</ele><time>2026-04-19T08:47:56.67Z</time></trkpt><trkpt lat="42.4552078" lon="14.1749163"><ele>44.0</ele><time>2026-04-19T08:47:57.671Z</time></trkpt><trkpt lat="42.4553982" lon="14.1747564"><ele>44.0</ele><time>2026-04-19T08:47:58.671Z</time></trkpt><trkpt lat="42.4555895" lon="14.1746202"><ele>45.33333333333333</ele><time>2026-04-19T08:47:59.67Z</time></trkpt><trkpt lat="42.4557881" lon="14.174492"><ele>46.666666666666664</ele><time>2026-04-19T08:48:00.67Z</time></trkpt><trkpt lat="42.4559927" lon="14.174372"><ele>48.0</ele><time>2026-04-19T08:48:01.67Z</time></trkpt><trkpt lat="42.4562003" lon="14.1742588"><ele>48.33333333333333</ele><time>2026-04-19T08:48:02.67Z</time></trkpt><trkpt lat="42.4564038" lon="14.1741594"><ele>48.666666666666664</ele><time>2026-04-19T08:48:03.67Z</time></trkpt><trkpt lat="42.456607" lon="14.1740761"><ele>49.0</ele><time>2026-04-19T08:48:04.67Z</time></trkpt><trkpt lat="42.456807" lon="14.174008"><ele>50.666666666666664</ele><time>2026-04-19T08:48:05.67Z</time></trkpt><trkpt lat="42.457003" lon="14.1739478"><ele>52.33333333333333</ele><time>2026-04-19T08:48:06.671Z</time></trkpt><trkpt lat="42.4571919" lon="14.1739017"><ele>54.0</ele><time>2026-04-19T08:48:07.67Z</time></trkpt><trkpt lat="42.4573804" lon="14.1738708"><ele>54.33333333333333</ele><time>2026-04-19T08:48:08.671Z</time></trkpt><trkpt lat="42.4575783" lon="14.1738446"><ele>54.666666666666664</ele><time>2026-04-19T08:48:09.67Z</time></trkpt><trkpt lat="42.4577844" lon="14.1738336"><ele>55.0</ele><time>2026-04-19T08:48:10.671Z</time></trkpt><trkpt lat="42.4579922" lon="14.1738253"><ele>56.0</ele><time>2026-04-19T08:48:11.67Z</time></trkpt><trkpt lat="42.4582181" lon="14.1738315"><ele>57.0</ele><time>2026-04-19T08:48:12.671Z</time></trkpt><trkpt lat="42.4584363" lon="14.1738527"><ele>58.0</ele><time>2026-04-19T08:48:13.67Z</time></trkpt><trkpt lat="42.4586655" lon="14.1738789"><ele>59.0</ele><time>2026-04-19T08:48:14.671Z</time></trkpt><trkpt lat="42.4588947" lon="14.1739017"><ele>60.0</ele><time>2026-04-19T08:48:15.67Z</time></trkpt><trkpt lat="42.4591301" lon="14.1739279"><ele>60.0</ele><time>2026-04-19T08:48:16.671Z</time></trkpt><trkpt lat="42.4593744" lon="14.1739557"><ele>60.0</ele><time>2026-04-19T08:48:17.671Z</time></trkpt><trkpt lat="42.4596371" lon="14.1739625"><ele>58.5</ele><time>2026-04-19T08:48:18.671Z</time></trkpt><trkpt lat="42.4599184" lon="14.1739739"><ele>57.0</ele><time>2026-04-19T08:48:19.67Z</time></trkpt><trkpt lat="42.4602132" lon="14.1739824"><ele>51.5</ele><time>2026-04-19T08:48:20.671Z</time></trkpt><trkpt lat="42.4605186" lon="14.1739776"><ele>46.0</ele><time>2026-04-19T08:48:21.671Z</time></trkpt><trkpt lat="42.4608137" lon="14.173946"><ele>46.0</ele><time>2026-04-19T08:48:22.67Z</time></trkpt><trkpt lat="42.4610994" lon="14.173901"><ele>46.0</ele><time>2026-04-19T08:48:23.671Z</time></trkpt><trkpt lat="42.4613788" lon="14.1738337"><ele>39.5</ele><time>2026-04-19T08:48:24.67Z</time></trkpt><trkpt lat="42.4616493" lon="14.1737454"><ele>33.0</ele><time>2026-04-19T08:48:25.671Z</time></trkpt><trkpt lat="42.4619017" lon="14.1736308"><ele>30.5</ele><time>2026-04-19T08:48:26.67Z</time></trkpt><trkpt lat="42.462142" lon="14.1735182"><ele>28.0</ele><time>2026-04-19T08:48:27.67Z</time></trkpt><trkpt lat="42.462382" lon="14.1733865"><ele>28.0</ele><time>2026-04-19T08:48:28.671Z</time></trkpt><trkpt lat="42.4626131" lon="14.1732347"><ele>28.0</ele><time>2026-04-19T08:48:29.67Z</time></trkpt><trkpt lat="42.4628407" lon="14.1730801"><ele>28.5</ele><time>2026-04-19T08:48:30.671Z</time></trkpt><trkpt lat="42.4630674" lon="14.172901"><ele>29.0</ele><time>2026-04-19T08:48:31.67Z</time></trkpt><trkpt lat="42.4632914" lon="14.1727045"><ele>29.0</ele><time>2026-04-19T08:48:32.67Z</time></trkpt><trkpt lat="42.4635089" lon="14.172493"><ele>29.0</ele><time>2026-04-19T08:48:33.67Z</time></trkpt><trkpt lat="42.4637251" lon="14.1722712"><ele>30.5</ele><time>2026-04-19T08:48:34.67Z</time></trkpt><trkpt lat="42.4639336" lon="14.1720278"><ele>32.0</ele><time>2026-04-19T08:48:35.67Z</time></trkpt><trkpt lat="42.4641359" lon="14.1717648"><ele>31.0</ele><time>2026-04-19T08:48:36.67Z</time></trkpt><trkpt lat="42.464332" lon="14.1714746"><ele>30.0</ele><time>2026-04-19T08:48:37.671Z</time></trkpt><trkpt lat="42.4645228" lon="14.1711793"><ele>31.0</ele><time>2026-04-19T08:48:38.67Z</time></trkpt><trkpt lat="42.4647014" lon="14.1708654"><ele>32.0</ele><time>2026-04-19T08:48:39.67Z</time></trkpt><trkpt lat="42.4648654" lon="14.1705451"><ele>33.0</ele><time>2026-04-19T08:48:40.671Z</time></trkpt><trkpt lat="42.4650194" lon="14.1702123"><ele>34.0</ele><time>2026-04-19T08:48:41.671Z</time></trkpt><trkpt lat="42.4651648" lon="14.1698851"><ele>35.0</ele><time>2026-04-19T08:48:42.67Z</time></trkpt><trkpt lat="42.4653066" lon="14.1695678"><ele>36.0</ele><time>2026-04-19T08:48:43.67Z</time></trkpt><trkpt lat="42.4654476" lon="14.169255"><ele>37.0</ele><time>2026-04-19T08:48:44.67Z</time></trkpt><trkpt lat="42.4655894" lon="14.1689522"><ele>38.0</ele><time>2026-04-19T08:48:45.671Z</time></trkpt><trkpt lat="42.4657344" lon="14.1686616"><ele>38.0</ele><time>2026-04-19T08:48:46.67Z</time></trkpt><trkpt lat="42.465884" lon="14.1683865"><ele>38.0</ele><time>2026-04-19T08:48:47.671Z</time></trkpt><trkpt lat="42.4660448" lon="14.1681184"><ele>37.5</ele><time>2026-04-19T08:48:48.671Z</time></trkpt><trkpt lat="42.4662153" lon="14.1678681"><ele>37.0</ele><time>2026-04-19T08:48:49.67Z</time></trkpt><trkpt lat="42.4663959" lon="14.1676423"><ele>38.5</ele><time>2026-04-19T08:48:50.67Z</time></trkpt><trkpt lat="42.4665916" lon="14.1674493"><ele>40.0</ele><time>2026-04-19T08:48:51.67Z</time></trkpt><trkpt lat="42.4667985" lon="14.1672705"><ele>40.0</ele><time>2026-04-19T08:48:52.671Z</time></trkpt><trkpt lat="42.4670059" lon="14.1671113"><ele>40.0</ele><time>2026-04-19T08:48:53.67Z</time></trkpt><trkpt lat="42.4672227" lon="14.1669651"><ele>45.0</ele><time>2026-04-19T08:48:54.671Z</time></trkpt><trkpt lat="42.467441" lon="14.1668439"><ele>50.0</ele><time>2026-04-19T08:48:55.67Z</time></trkpt><trkpt lat="42.4676683" lon="14.1667436"><ele>50.0</ele><time>2026-04-19T08:48:56.67Z</time></trkpt><trkpt lat="42.4679002" lon="14.1666679"><ele>50.0</ele><time>2026-04-19T08:48:57.671Z</time></trkpt><trkpt lat="42.4681323" lon="14.1666192"><ele>51.0</ele><time>2026-04-19T08:48:58.67Z</time></trkpt><trkpt lat="42.4683641" lon="14.1665814"><ele>52.0</ele><time>2026-04-19T08:48:59.671Z</time></trkpt><trkpt lat="42.4686018" lon="14.1665613"><ele>53.5</ele><time>2026-04-19T08:49:00.671Z</time></trkpt><trkpt lat="42.4688352" lon="14.1665709"><ele>55.0</ele><time>2026-04-19T08:49:01.671Z</time></trkpt><trkpt lat="42.4690701" lon="14.1665935"><ele>55.0</ele><time>2026-04-19T08:49:02.67Z</time></trkpt><trkpt lat="42.4692993" lon="14.1666312"><ele>55.0</ele><time>2026-04-19T08:49:03.67Z</time></trkpt><trkpt lat="42.4695248" lon="14.1666806"><ele>57.0</ele><time>2026-04-19T08:49:04.67Z</time></trkpt><trkpt lat="42.4697442" lon="14.1667377"><ele>59.0</ele><time>2026-04-19T08:49:05.67Z</time></trkpt><trkpt lat="42.4699631" lon="14.1667967"><ele>61.0</ele><time>2026-04-19T08:49:06.67Z</time></trkpt><trkpt lat="42.4701915" lon="14.1668627"><ele>61.0</ele><time>2026-04-19T08:49:07.671Z</time></trkpt><trkpt lat="42.4704243" lon="14.1669367"><ele>61.0</ele><time>2026-04-19T08:49:08.671Z</time></trkpt><trkpt lat="42.4706794" lon="14.1670052"><ele>65.0</ele><time>2026-04-19T08:49:09.671Z</time></trkpt><trkpt lat="42.4709318" lon="14.1670691"><ele>69.0</ele><time>2026-04-19T08:49:10.67Z</time></trkpt><trkpt lat="42.4711833" lon="14.1671271"><ele>72.0</ele><time>2026-04-19T08:49:11.671Z</time></trkpt><trkpt lat="42.4714433" lon="14.1671794"><ele>75.0</ele><time>2026-04-19T08:49:12.67Z</time></trkpt><trkpt lat="42.4717011" lon="14.1672243"><ele>75.0</ele><time>2026-04-19T08:49:13.671Z</time></trkpt><trkpt lat="42.4719556" lon="14.1672594"><ele>75.0</ele><time>2026-04-19T08:49:14.67Z</time></trkpt><trkpt lat="42.4722097" lon="14.167285"><ele>75.0</ele><time>2026-04-19T08:49:15.67Z</time></trkpt><trkpt lat="42.4724662" lon="14.1673165"><ele>75.0</ele><time>2026-04-19T08:49:16.67Z</time></trkpt><trkpt lat="42.4846405" lon="14.1656382"><ele>75.0</ele><time>2026-04-19T08:49:53.671Z</time></trkpt><trkpt lat="42.4848368" lon="14.1655672"><ele>75.0</ele><time>2026-04-19T08:49:54.67Z</time></trkpt><trkpt lat="42.4850731" lon="14.1654791"><ele>75.0</ele><time>2026-04-19T08:49:55.671Z</time></trkpt><trkpt lat="42.4853238" lon="14.1653712"><ele>68.5</ele><time>2026-04-19T08:49:56.67Z</time></trkpt><trkpt lat="42.4855628" lon="14.1652411"><ele>62.0</ele><time>2026-04-19T08:49:57.67Z</time></trkpt><trkpt lat="42.4858244" lon="14.1651162"><ele>62.0</ele><time>2026-04-19T08:49:58.671Z</time></trkpt><trkpt lat="42.4860859" lon="14.1649532"><ele>62.0</ele><time>2026-04-19T08:49:59.67Z</time></trkpt><trkpt lat="42.4863478" lon="14.1647934"><ele>57.0</ele><time>2026-04-19T08:50:00.671Z</time></trkpt><trkpt lat="42.4866047" lon="14.1646395"><ele>52.0</ele><time>2026-04-19T08:50:01.671Z</time></trkpt><trkpt lat="42.4868598" lon="14.1644917"><ele>46.0</ele><time>2026-04-19T08:50:02.671Z</time></trkpt><trkpt lat="42.4871106" lon="14.1643571"><ele>40.0</ele><time>2026-04-19T08:50:03.671Z</time></trkpt><trkpt lat="42.4873643" lon="14.1642268"><ele>40.0</ele><time>2026-04-19T08:50:04.671Z</time></trkpt><trkpt lat="42.4876103" lon="14.1640967"><ele>40.0</ele><time>2026-04-19T08:50:05.67Z</time></trkpt><trkpt lat="42.487843" lon="14.1639591"><ele>46.0</ele><time>2026-04-19T08:50:06.67Z</time></trkpt><trkpt lat="42.4880665" lon="14.1638308"><ele>52.0</ele><time>2026-04-19T08:50:07.67Z</time></trkpt><trkpt lat="42.4882802" lon="14.1637022"><ele>52.0</ele><time>2026-04-19T08:50:08.67Z</time></trkpt><trkpt lat="42.4884903" lon="14.1635749"><ele>52.0</ele><time>2026-04-19T08:50:09.671Z</time></trkpt><trkpt lat="42.4887012" lon="14.1634385"><ele>63.0</ele><time>2026-04-19T08:50:10.67Z</time></trkpt><trkpt lat="42.4985353" lon="14.1458416"><ele>58.66666666666667</ele><time>2026-04-19T08:51:29.671Z</time></trkpt><trkpt lat="42.4985961" lon="14.1455491"><ele>54.333333333333336</ele><time>2026-04-19T08:51:30.67Z</time></trkpt><trkpt lat="42.4986593" lon="14.1452952"><ele>50.0</ele><time>2026-04-19T08:51:31.67Z</time></trkpt><trkpt lat="42.4987179" lon="14.1450507"><ele>48.0</ele><time>2026-04-19T08:51:32.671Z</time></trkpt><trkpt lat="42.4987757" lon="14.1447958"><ele>46.0</ele><time>2026-04-19T08:51:33.671Z</time></trkpt><trkpt lat="42.4988329" lon="14.1445535"><ele>44.0</ele><time>2026-04-19T08:51:34.671Z</time></trkpt><trkpt lat="42.4988885" lon="14.1443053"><ele>44.0</ele><time>2026-04-19T08:51:35.67Z</time></trkpt><trkpt lat="42.4989301" lon="14.1440647"><ele>44.0</ele><time>2026-04-19T08:51:36.671Z</time></trkpt><trkpt lat="42.4989553" lon="14.1438267"><ele>44.0</ele><time>2026-04-19T08:51:37.67Z</time></trkpt><trkpt lat="42.4989556" lon="14.1436025"><ele>42.666666666666664</ele><time>2026-04-19T08:51:38.67Z</time></trkpt><trkpt lat="42.4989255" lon="14.1433865"><ele>41.333333333333336</ele><time>2026-04-19T08:51:39.67Z</time></trkpt><trkpt lat="42.498876" lon="14.1431741"><ele>40.0</ele><time>2026-04-19T08:51:40.671Z</time></trkpt><trkpt lat="42.4988219" lon="14.1429622"><ele>39.66666666666667</ele><time>2026-04-19T08:51:41.67Z</time></trkpt><trkpt lat="42.4987823" lon="14.1427578"><ele>39.333333333333336</ele><time>2026-04-19T08:51:42.671Z</time></trkpt><trkpt lat="42.4987717" lon="14.142547"><ele>39.0</ele><time>2026-04-19T08:51:43.67Z</time></trkpt><trkpt lat="42.4987976" lon="14.1423417"><ele>40.333333333333336</ele><time>2026-04-19T08:51:44.67Z</time></trkpt><trkpt lat="42.4988571" lon="14.1421484"><ele>41.66666666666667</ele><time>2026-04-19T08:51:45.67Z</time></trkpt><trkpt lat="42.4989403" lon="14.1419677"><ele>43.0</ele><time>2026-04-19T08:51:46.67Z</time></trkpt><trkpt lat="42.4990278" lon="14.1417863"><ele>43.0</ele><time>2026-04-19T08:51:47.67Z</time></trkpt><trkpt lat="42.4991182" lon="14.1416145"><ele>43.0</ele><time>2026-04-19T08:51:48.67Z</time></trkpt><trkpt lat="42.4992127" lon="14.1414538"><ele>43.0</ele><time>2026-04-19T08:51:49.671Z</time></trkpt><trkpt lat="42.499314" lon="14.1413129"><ele>45.25</ele><time>2026-04-19T08:51:50.67Z</time></trkpt><trkpt lat="42.4994202" lon="14.1411844"><ele>47.5</ele><time>2026-04-19T08:51:51.67Z</time></trkpt><trkpt lat="42.4995329" lon="14.1410684"><ele>49.75</ele><time>2026-04-19T08:51:52.67Z</time></trkpt><trkpt lat="42.4996485" lon="14.140952"><ele>52.0</ele><time>2026-04-19T08:51:53.67Z</time></trkpt><trkpt lat="42.4997552" lon="14.1408412"><ele>48.75</ele><time>2026-04-19T08:51:54.67Z</time></trkpt><trkpt lat="42.4998572" lon="14.140729"><ele>45.5</ele><time>2026-04-19T08:51:55.67Z</time></trkpt><trkpt lat="42.4999435" lon="14.1406088"><ele>42.25</ele><time>2026-04-19T08:51:56.67Z</time></trkpt><trkpt lat="42.5000242" lon="14.1404924"><ele>39.0</ele><time>2026-04-19T08:51:57.67Z</time></trkpt><trkpt lat="42.5000986" lon="14.1403815"><ele>39.0</ele><time>2026-04-19T08:51:58.671Z</time></trkpt><trkpt lat="42.5001675" lon="14.14028"><ele>39.0</ele><time>2026-04-19T08:51:59.67Z</time></trkpt><trkpt lat="42.5002347" lon="14.1401721"><ele>39.0</ele><time>2026-04-19T08:52:00.67Z</time></trkpt><trkpt lat="42.5003037" lon="14.1400641"><ele>39.0</ele><time>2026-04-19T08:52:01.671Z</time></trkpt><trkpt lat="42.5003689" lon="14.139962"><ele>39.0</ele><time>2026-04-19T08:52:02.67Z</time></trkpt><trkpt lat="42.5004353" lon="14.1398568"><ele>36.4</ele><time>2026-04-19T08:52:03.671Z</time></trkpt><trkpt lat="42.5005025" lon="14.1397501"><ele>33.8</ele><time>2026-04-19T08:52:04.671Z</time></trkpt><trkpt lat="42.5005679" lon="14.1396418"><ele>31.200000000000003</ele><time>2026-04-19T08:52:05.67Z</time></trkpt><trkpt lat="42.5006289" lon="14.1395315"><ele>28.6</ele><time>2026-04-19T08:52:06.67Z</time></trkpt><trkpt lat="42.5006848" lon="14.1394264"><ele>26.0</ele><time>2026-04-19T08:52:07.671Z</time></trkpt><trkpt lat="42.5007435" lon="14.1393201"><ele>26.0</ele><time>2026-04-19T08:52:08.67Z</time></trkpt><trkpt lat="42.5007991" lon="14.1392118"><ele>26.0</ele><time>2026-04-19T08:52:09.67Z</time></trkpt><trkpt lat="42.5008481" lon="14.1390973"><ele>26.0</ele><time>2026-04-19T08:52:10.67Z</time></trkpt><trkpt lat="42.5009025" lon="14.1389939"><ele>26.0</ele><time>2026-04-19T08:52:11.67Z</time></trkpt><trkpt lat="42.5009522" lon="14.1388939"><ele>26.0</ele><time>2026-04-19T08:52:12.67Z</time></trkpt><trkpt lat="42.5009962" lon="14.1387952"><ele>25.166666666666664</ele><time>2026-04-19T08:52:13.67Z</time></trkpt><trkpt lat="42.501037" lon="14.1387118"><ele>24.333333333333332</ele><time>2026-04-19T08:52:14.67Z</time></trkpt><trkpt lat="42.5010762" lon="14.1386305"><ele>23.5</ele><time>2026-04-19T08:52:15.671Z</time></trkpt><trkpt lat="42.5011451" lon="14.1384926"><ele>22.666666666666664</ele><time>2026-04-19T08:52:17.671Z</time></trkpt><trkpt lat="42.5011854" lon="14.1384044"><ele>21.833333333333332</ele><time>2026-04-19T08:52:18.671Z</time></trkpt><trkpt lat="42.5012194" lon="14.1383026"><ele>21.0</ele><time>2026-04-19T08:52:19.67Z</time></trkpt><trkpt lat="42.5012414" lon="14.1382013"><ele>20.166666666666668</ele><time>2026-04-19T08:52:20.67Z</time></trkpt><trkpt lat="42.5012675" lon="14.1381059"><ele>19.333333333333332</ele><time>2026-04-19T08:52:21.671Z</time></trkpt><trkpt lat="42.5012872" lon="14.1380147"><ele>18.5</ele><time>2026-04-19T08:52:22.671Z</time></trkpt><trkpt lat="42.5013076" lon="14.1379309"><ele>17.666666666666664</ele><time>2026-04-19T08:52:23.671Z</time></trkpt><trkpt lat="42.5013524" lon="14.1377838"><ele>16.833333333333332</ele><time>2026-04-19T08:52:25.67Z</time></trkpt><trkpt lat="42.5013913" lon="14.1376678"><ele>16.0</ele><time>2026-04-19T08:52:27.67Z</time></trkpt><trkpt lat="42.5014013" lon="14.1375755"><ele>16.0</ele><time>2026-04-19T08:59:45.683Z</time></trkpt><trkpt lat="42.5014267" lon="14.1374558"><ele>16.0</ele><time>2026-04-19T08:59:47.683Z</time></trkpt><trkpt lat="42.5014704" lon="14.1372922"><ele>16.0</ele><time>2026-04-19T08:59:49.683Z</time></trkpt><trkpt lat="42.5014924" lon="14.1371819"><ele>16.0</ele><time>2026-04-19T08:59:50.683Z</time></trkpt><trkpt lat="42.5015195" lon="14.137074"><ele>16.0</ele><time>2026-04-19T08:59:51.683Z</time></trkpt><trkpt lat="42.5015489" lon="14.1369664"><ele>15.666666666666666</ele><time>2026-04-19T08:59:52.683Z</time></trkpt><trkpt lat="42.5015799" lon="14.136854"><ele>15.333333333333332</ele><time>2026-04-19T08:59:53.683Z</time></trkpt><trkpt lat="42.5016086" lon="14.136744"><ele>15.0</ele><time>2026-04-19T08:59:54.684Z</time></trkpt><trkpt lat="42.5016378" lon="14.1366315"><ele>14.666666666666668</ele><time>2026-04-19T08:59:55.683Z</time></trkpt><trkpt lat="42.5016629" lon="14.1365226"><ele>14.333333333333334</ele><time>2026-04-19T08:59:56.684Z</time></trkpt><trkpt lat="42.5016933" lon="14.1364026"><ele>14.0</ele><time>2026-04-19T08:59:57.683Z</time></trkpt><trkpt lat="42.5017222" lon="14.1362845"><ele>14.000000000000002</ele><time>2026-04-19T08:59:58.684Z</time></trkpt><trkpt lat="42.501753" lon="14.1361777"><ele>14.0</ele><time>2026-04-19T08:59:59.683Z</time></trkpt><trkpt lat="42.5017822" lon="14.1360604"><ele>14.0</ele><time>2026-04-19T09:00:00.683Z</time></trkpt><trkpt lat="42.5018096" lon="14.1359453"><ele>14.0</ele><time>2026-04-19T09:00:01.684Z</time></trkpt><trkpt lat="42.5018371" lon="14.1358373"><ele>14.000000000000002</ele><time>2026-04-19T09:00:02.683Z</time></trkpt><trkpt lat="42.5018663" lon="14.1357317"><ele>14.0</ele><time>2026-04-19T09:00:03.683Z</time></trkpt><trkpt lat="42.5018906" lon="14.1356378"><ele>14.000000000000002</ele><time>2026-04-19T09:00:04.683Z</time></trkpt><trkpt lat="42.5019129" lon="14.1355468"><ele>14.0</ele><time>2026-04-19T09:00:05.684Z</time></trkpt><trkpt lat="42.5019336" lon="14.1354632"><ele>14.0</ele><time>2026-04-19T09:00:06.684Z</time></trkpt><trkpt lat="42.5019543" lon="14.135377"><ele>14.0</ele><time>2026-04-19T09:00:07.683Z</time></trkpt><trkpt lat="42.5019984" lon="14.1352237"><ele>14.000000000000002</ele><time>2026-04-19T09:00:09.683Z</time></trkpt><trkpt lat="42.5020367" lon="14.1350892"><ele>14.0</ele><time>2026-04-19T09:00:11.684Z</time></trkpt><trkpt lat="42.502085" lon="14.1349762"><ele>14.0</ele><time>2026-04-19T09:00:13.683Z</time></trkpt><trkpt lat="42.5021379" lon="14.1348685"><ele>14.0</ele><time>2026-04-19T09:00:15.683Z</time></trkpt><trkpt lat="42.5022267" lon="14.13478"><ele>14.0</ele><time>2026-04-19T09:00:17.683Z</time></trkpt><trkpt lat="42.5023477" lon="14.1347303"><ele>14.0</ele><time>2026-04-19T09:00:19.683Z</time></trkpt><trkpt lat="42.5024671" lon="14.1347694"><ele>14.0</ele><time>2026-04-19T09:00:21.683Z</time></trkpt><trkpt lat="42.5025725" lon="14.1348561"><ele>13.999999999999998</ele><time>2026-04-19T09:00:23.684Z</time></trkpt><trkpt lat="42.5026224" lon="14.1349094"><ele>13.999999999999998</ele><time>2026-04-19T09:00:24.684Z</time></trkpt><trkpt lat="42.502707" lon="14.135003"><ele>14.0</ele><time>2026-04-19T09:00:26.684Z</time></trkpt><trkpt lat="42.5027744" lon="14.1350802"><ele>14.0</ele><time>2026-04-19T09:00:28.683Z</time></trkpt><trkpt lat="42.5028374" lon="14.135149"><ele>14.000000000000002</ele><time>2026-04-19T09:00:30.683Z</time></trkpt><trkpt lat="42.5029038" lon="14.1352169"><ele>14.0</ele><time>2026-04-19T09:00:32.683Z</time></trkpt><trkpt lat="42.5029678" lon="14.1352937"><ele>14.0</ele><time>2026-04-19T09:00:34.684Z</time></trkpt><trkpt lat="42.5030466" lon="14.1353246"><ele>14.0</ele><time>2026-04-19T09:00:36.683Z</time></trkpt><trkpt lat="42.5031096" lon="14.1352525"><ele>14.000000000000002</ele><time>2026-04-19T09:00:38.683Z</time></trkpt><trkpt lat="42.5031448" lon="14.1351311"><ele>14.0</ele><time>2026-04-19T09:00:40.683Z</time></trkpt><trkpt lat="42.5031881" lon="14.1349877"><ele>13.833333333333334</ele><time>2026-04-19T09:00:42.684Z</time></trkpt><trkpt lat="42.5032105" lon="14.1349049"><ele>13.666666666666668</ele><time>2026-04-19T09:00:43.683Z</time></trkpt><trkpt lat="42.5032354" lon="14.1348145"><ele>13.5</ele><time>2026-04-19T09:00:44.683Z</time></trkpt><trkpt lat="42.5032613" lon="14.1347191"><ele>13.333333333333332</ele><time>2026-04-19T09:00:45.683Z</time></trkpt><trkpt lat="42.5032923" lon="14.1346115"><ele>13.166666666666666</ele><time>2026-04-19T09:00:46.684Z</time></trkpt><trkpt lat="42.5033235" lon="14.1344842"><ele>13.0</ele><time>2026-04-19T09:00:47.683Z</time></trkpt><trkpt lat="42.5033557" lon="14.1343446"><ele>12.999999999999998</ele><time>2026-04-19T09:00:48.684Z</time></trkpt><trkpt lat="42.5033872" lon="14.1342141"><ele>13.0</ele><time>2026-04-19T09:00:49.683Z</time></trkpt><trkpt lat="42.5034179" lon="14.1340989"><ele>13.0</ele><time>2026-04-19T09:00:50.683Z</time></trkpt><trkpt lat="42.5034531" lon="14.1339908"><ele>13.0</ele><time>2026-04-19T09:00:51.684Z</time></trkpt><trkpt lat="42.5034882" lon="14.1338867"><ele>12.999999999999998</ele><time>2026-04-19T09:00:52.683Z</time></trkpt><trkpt lat="42.5035214" lon="14.1337966"><ele>13.0</ele><time>2026-04-19T09:00:53.684Z</time></trkpt><trkpt lat="42.5035675" lon="14.1337168"><ele>12.999999999999998</ele><time>2026-04-19T09:00:54.684Z</time></trkpt><trkpt lat="42.5036221" lon="14.1336417"><ele>13.0</ele><time>2026-04-19T09:00:55.684Z</time></trkpt><trkpt lat="42.5036917" lon="14.1335689"><ele>13.0</ele><time>2026-04-19T09:00:56.683Z</time></trkpt><trkpt lat="42.5037679" lon="14.1335014"><ele>13.0</ele><time>2026-04-19T09:00:57.684Z</time></trkpt><trkpt lat="42.5038473" lon="14.1334268"><ele>12.999999999999998</ele><time>2026-04-19T09:00:58.683Z</time></trkpt><trkpt lat="42.5039255" lon="14.1333542"><ele>13.0</ele><time>2026-04-19T09:00:59.683Z</time></trkpt><trkpt lat="42.5039996" lon="14.1332833"><ele>13.0</ele><time>2026-04-19T09:01:00.684Z</time></trkpt><trkpt lat="42.5040785" lon="14.1332066"><ele>13.0</ele><time>2026-04-19T09:01:01.683Z</time></trkpt><trkpt lat="42.5041644" lon="14.1331294"><ele>13.0</ele><time>2026-04-19T09:01:02.683Z</time></trkpt><trkpt lat="42.5042462" lon="14.1330534"><ele>13.0</ele><time>2026-04-19T09:01:03.683Z</time></trkpt><trkpt lat="42.5043308" lon="14.1329829"><ele>13.0</ele><time>2026-04-19T09:01:04.684Z</time></trkpt><trkpt lat="42.5044157" lon="14.1329084"><ele>13.0</ele><time>2026-04-19T09:01:05.683Z</time></trkpt><trkpt lat="42.504503" lon="14.1328226"><ele>13.0</ele><time>2026-04-19T09:01:06.684Z</time></trkpt><trkpt lat="42.5045925" lon="14.1327443"><ele>13.0</ele><time>2026-04-19T09:01:07.683Z</time></trkpt><trkpt lat="42.5046809" lon="14.1326702"><ele>13.0</ele><time>2026-04-19T09:01:08.684Z</time></trkpt><trkpt lat="42.5047687" lon="14.1325962"><ele>13.0</ele><time>2026-04-19T09:01:09.683Z</time></trkpt><trkpt lat="42.504849" lon="14.1325221"><ele>12.333333333333332</ele><time>2026-04-19T09:01:10.684Z</time></trkpt><trkpt lat="42.5049199" lon="14.1324555"><ele>11.666666666666666</ele><time>2026-04-19T09:01:11.683Z</time></trkpt><trkpt lat="42.5049855" lon="14.1323974"><ele>11.0</ele><time>2026-04-19T09:01:12.683Z</time></trkpt><trkpt lat="42.505046" lon="14.1323507"><ele>10.333333333333332</ele><time>2026-04-19T09:01:13.684Z</time></trkpt><trkpt lat="42.505138" lon="14.1322814"><ele>9.666666666666666</ele><time>2026-04-19T09:01:15.684Z</time></trkpt><trkpt lat="42.5052063" lon="14.132228"><ele>9.0</ele><time>2026-04-19T09:01:18.684Z</time></trkpt><trkpt lat="42.5052723" lon="14.1321622"><ele>9.0</ele><time>2026-04-19T09:02:18.683Z</time></trkpt><trkpt lat="42.5053703" lon="14.1320452"><ele>9.0</ele><time>2026-04-19T09:02:20.683Z</time></trkpt><trkpt lat="42.5054493" lon="14.1319929"><ele>9.0</ele><time>2026-04-19T09:02:21.683Z</time></trkpt><trkpt lat="42.50553" lon="14.1319295"><ele>9.0</ele><time>2026-04-19T09:02:22.684Z</time></trkpt><trkpt lat="42.5056154" lon="14.1318691"><ele>9.0</ele><time>2026-04-19T09:02:23.684Z</time></trkpt><trkpt lat="42.5057005" lon="14.1318038"><ele>9.0</ele><time>2026-04-19T09:02:24.683Z</time></trkpt><trkpt lat="42.5057845" lon="14.131737"><ele>9.0</ele><time>2026-04-19T09:02:25.683Z</time></trkpt><trkpt lat="42.5058703" lon="14.1316623"><ele>9.0</ele><time>2026-04-19T09:02:26.683Z</time></trkpt><trkpt lat="42.5059602" lon="14.1316121"><ele>9.0</ele><time>2026-04-19T09:02:27.683Z</time></trkpt><trkpt lat="42.5060416" lon="14.131524"><ele>9.0</ele><time>2026-04-19T09:02:28.684Z</time></trkpt><trkpt lat="42.5061256" lon="14.1314317"><ele>9.0</ele><time>2026-04-19T09:02:29.683Z</time></trkpt><trkpt lat="42.5062203" lon="14.1313551"><ele>9.0</ele><time>2026-04-19T09:02:30.684Z</time></trkpt><trkpt lat="42.5063131" lon="14.1312713"><ele>9.0</ele><time>2026-04-19T09:02:31.684Z</time></trkpt><trkpt lat="42.5064168" lon="14.1312043"><ele>9.0</ele><time>2026-04-19T09:02:32.683Z</time></trkpt><trkpt lat="42.5065274" lon="14.1311369"><ele>9.0</ele><time>2026-04-19T09:02:33.683Z</time></trkpt><trkpt lat="42.5066338" lon="14.1310755"><ele>9.0</ele><time>2026-04-19T09:02:34.684Z</time></trkpt><trkpt lat="42.5067436" lon="14.1310147"><ele>9.0</ele><time>2026-04-19T09:02:35.684Z</time></trkpt><trkpt lat="42.5068505" lon="14.1309494"><ele>9.0</ele><time>2026-04-19T09:02:36.684Z</time></trkpt><trkpt lat="42.5069605" lon="14.1308853"><ele>9.0</ele><time>2026-04-19T09:02:37.683Z</time></trkpt><trkpt lat="42.5070756" lon="14.1308296"><ele>9.0</ele><time>2026-04-19T09:02:38.683Z</time></trkpt><trkpt lat="42.5071868" lon="14.130774"><ele>9.0</ele><time>2026-04-19T09:02:39.684Z</time></trkpt><trkpt lat="42.5072973" lon="14.1307331"><ele>9.0</ele><time>2026-04-19T09:02:40.684Z</time></trkpt><trkpt lat="42.5074101" lon="14.1306831"><ele>9.75</ele><time>2026-04-19T09:02:41.683Z</time></trkpt><trkpt lat="42.5075409" lon="14.1306367"><ele>10.5</ele><time>2026-04-19T09:02:42.683Z</time></trkpt><trkpt lat="42.5076701" lon="14.1305743"><ele>11.25</ele><time>2026-04-19T09:02:43.684Z</time></trkpt><trkpt lat="42.5077926" lon="14.1304991"><ele>12.0</ele><time>2026-04-19T09:02:44.684Z</time></trkpt><trkpt lat="42.5079043" lon="14.1304145"><ele>12.0</ele><time>2026-04-19T09:02:45.683Z</time></trkpt><trkpt lat="42.5080055" lon="14.1303381"><ele>12.0</ele><time>2026-04-19T09:02:46.684Z</time></trkpt><trkpt lat="42.5081021" lon="14.1302663"><ele>12.0</ele><time>2026-04-19T09:02:47.683Z</time></trkpt><trkpt lat="42.5081968" lon="14.1301961"><ele>12.0</ele><time>2026-04-19T09:02:48.683Z</time></trkpt><trkpt lat="42.5082831" lon="14.1301204"><ele>12.0</ele><time>2026-04-19T09:02:49.683Z</time></trkpt><trkpt lat="42.5083655" lon="14.1300518"><ele>12.0</ele><time>2026-04-19T09:02:50.683Z</time></trkpt><trkpt lat="42.508446" lon="14.1299875"><ele>12.0</ele><time>2026-04-19T09:02:51.683Z</time></trkpt><trkpt lat="42.5085114" lon="14.1299315"><ele>12.0</ele><time>2026-04-19T09:02:52.684Z</time></trkpt><trkpt lat="42.508577" lon="14.1298768"><ele>12.0</ele><time>2026-04-19T09:02:53.683Z</time></trkpt><trkpt lat="42.5086374" lon="14.1298279"><ele>12.0</ele><time>2026-04-19T09:02:54.683Z</time></trkpt><trkpt lat="42.5087282" lon="14.1297757"><ele>12.0</ele><time>2026-04-19T09:02:56.683Z</time></trkpt><trkpt lat="42.5088073" lon="14.1297633"><ele>11.166666666666666</ele><time>2026-04-19T09:02:59.683Z</time></trkpt><trkpt lat="42.5089084" lon="14.1297901"><ele>10.333333333333334</ele><time>2026-04-19T09:03:01.683Z</time></trkpt><trkpt lat="42.5089733" lon="14.1298162"><ele>9.5</ele><time>2026-04-19T09:03:02.683Z</time></trkpt><trkpt lat="42.5090432" lon="14.129855"><ele>8.666666666666668</ele><time>2026-04-19T09:03:03.683Z</time></trkpt><trkpt lat="42.5091185" lon="14.1299213"><ele>7.833333333333334</ele><time>2026-04-19T09:03:04.684Z</time></trkpt><trkpt lat="42.509196" lon="14.130017"><ele>7.0</ele><time>2026-04-19T09:03:05.684Z</time></trkpt><trkpt lat="42.5092753" lon="14.1301269"><ele>7.0</ele><time>2026-04-19T09:03:06.684Z</time></trkpt><trkpt lat="42.5093626" lon="14.130248"><ele>7.0</ele><time>2026-04-19T09:03:07.683Z</time></trkpt><trkpt lat="42.5094516" lon="14.130381"><ele>7.0</ele><time>2026-04-19T09:03:08.683Z</time></trkpt><trkpt lat="42.5095408" lon="14.1305087"><ele>7.0</ele><time>2026-04-19T09:03:09.683Z</time></trkpt><trkpt lat="42.509631" lon="14.1306399"><ele>6.5</ele><time>2026-04-19T09:03:10.684Z</time></trkpt><trkpt lat="42.5097226" lon="14.1307849"><ele>6.0</ele><time>2026-04-19T09:03:11.684Z</time></trkpt><trkpt lat="42.5098195" lon="14.1309322"><ele>5.5</ele><time>2026-04-19T09:03:12.684Z</time></trkpt><trkpt lat="42.5099102" lon="14.1310824"><ele>5.0</ele><time>2026-04-19T09:03:13.683Z</time></trkpt><trkpt lat="42.5100008" lon="14.13122"><ele>5.0</ele><time>2026-04-19T09:03:14.683Z</time></trkpt><trkpt lat="42.5100911" lon="14.1313612"><ele>5.0</ele><time>2026-04-19T09:03:15.684Z</time></trkpt><trkpt lat="42.5101792" lon="14.1315003"><ele>5.0</ele><time>2026-04-19T09:03:16.683Z</time></trkpt><trkpt lat="42.5102574" lon="14.1316453"><ele>5.0</ele><time>2026-04-19T09:03:17.683Z</time></trkpt><trkpt lat="42.5103368" lon="14.1317896"><ele>4.75</ele><time>2026-04-19T09:03:18.683Z</time></trkpt><trkpt lat="42.5104125" lon="14.1319243"><ele>4.5</ele><time>2026-04-19T09:03:19.683Z</time></trkpt><trkpt lat="42.5104803" lon="14.1320535"><ele>4.25</ele><time>2026-04-19T09:03:20.683Z</time></trkpt><trkpt lat="42.5105533" lon="14.1321881"><ele>4.0</ele><time>2026-04-19T09:03:21.683Z</time></trkpt><trkpt lat="42.5106308" lon="14.1323345"><ele>4.5</ele><time>2026-04-19T09:03:22.683Z</time></trkpt><trkpt lat="42.5107077" lon="14.1324771"><ele>5.0</ele><time>2026-04-19T09:03:23.683Z</time></trkpt><trkpt lat="42.5107789" lon="14.1326211"><ele>5.5</ele><time>2026-04-19T09:03:24.684Z</time></trkpt><trkpt lat="42.5108436" lon="14.13275"><ele>6.0</ele><time>2026-04-19T09:03:25.684Z</time></trkpt><trkpt lat="42.5109136" lon="14.1328748"><ele>6.0</ele><time>2026-04-19T09:03:26.683Z</time></trkpt><trkpt lat="42.5109759" lon="14.13299"><ele>6.0</ele><time>2026-04-19T09:03:27.684Z</time></trkpt><trkpt lat="42.5110415" lon="14.1330945"><ele>6.0</ele><time>2026-04-19T09:03:28.684Z</time></trkpt><trkpt lat="42.5111056" lon="14.1331993"><ele>6.0</ele><time>2026-04-19T09:03:29.683Z</time></trkpt><trkpt lat="42.5111292" lon="14.1332992"><ele>6.0</ele><time>2026-04-19T09:03:30.683Z</time></trkpt><trkpt lat="42.5111922" lon="14.1333962"><ele>5.8</ele><time>2026-04-19T09:03:31.683Z</time></trkpt><trkpt lat="42.5112537" lon="14.1335006"><ele>5.6</ele><time>2026-04-19T09:03:32.683Z</time></trkpt><trkpt lat="42.5113207" lon="14.1336106"><ele>5.4</ele><time>2026-04-19T09:03:33.683Z</time></trkpt><trkpt lat="42.5113876" lon="14.1337261"><ele>5.2</ele><time>2026-04-19T09:03:34.684Z</time></trkpt><trkpt lat="42.5114537" lon="14.1338495"><ele>5.0</ele><time>2026-04-19T09:03:35.683Z</time></trkpt><trkpt lat="42.5115201" lon="14.1339804"><ele>5.0</ele><time>2026-04-19T09:03:36.683Z</time></trkpt><trkpt lat="42.511584" lon="14.1341089"><ele>5.0</ele><time>2026-04-19T09:03:37.683Z</time></trkpt><trkpt lat="42.5116533" lon="14.1342265"><ele>5.0</ele><time>2026-04-19T09:03:38.683Z</time></trkpt><trkpt lat="42.5117325" lon="14.1343345"><ele>5.0</ele><time>2026-04-19T09:03:39.684Z</time></trkpt><trkpt lat="42.5118215" lon="14.1344289"><ele>5.0</ele><time>2026-04-19T09:03:40.684Z</time></trkpt><trkpt lat="42.5119189" lon="14.1345158"><ele>5.0</ele><time>2026-04-19T09:03:41.684Z</time></trkpt><trkpt lat="42.512023" lon="14.1345915"><ele>5.0</ele><time>2026-04-19T09:03:42.684Z</time></trkpt><trkpt lat="42.5121301" lon="14.1346585"><ele>5.0</ele><time>2026-04-19T09:03:43.683Z</time></trkpt><trkpt lat="42.5122341" lon="14.1347207"><ele>4.5</ele><time>2026-04-19T09:03:44.684Z</time></trkpt><trkpt lat="42.5123426" lon="14.1347803"><ele>4.0</ele><time>2026-04-19T09:03:45.683Z</time></trkpt><trkpt lat="42.5124451" lon="14.1348523"><ele>3.5</ele><time>2026-04-19T09:03:46.683Z</time></trkpt><trkpt lat="42.5125534" lon="14.1349225"><ele>3.0</ele><time>2026-04-19T09:03:47.684Z</time></trkpt><trkpt lat="42.5126617" lon="14.134994"><ele>3.0</ele><time>2026-04-19T09:03:48.683Z</time></trkpt><trkpt lat="42.512767" lon="14.1350858"><ele>3.0</ele><time>2026-04-19T09:03:49.684Z</time></trkpt><trkpt lat="42.5128676" lon="14.1351836"><ele>3.0</ele><time>2026-04-19T09:03:50.683Z</time></trkpt><trkpt lat="42.5129618" lon="14.1352922"><ele>3.0</ele><time>2026-04-19T09:03:51.684Z</time></trkpt><trkpt lat="42.5130479" lon="14.1354074"><ele>3.0</ele><time>2026-04-19T09:03:52.683Z</time></trkpt><trkpt lat="42.5131273" lon="14.1355292"><ele>3.0</ele><time>2026-04-19T09:03:53.683Z</time></trkpt><trkpt lat="42.5131995" lon="14.1356623"><ele>3.0</ele><time>2026-04-19T09:03:54.683Z</time></trkpt><trkpt lat="42.5132683" lon="14.1358016"><ele>3.0</ele><time>2026-04-19T09:03:55.683Z</time></trkpt><trkpt lat="42.5133384" lon="14.1359399"><ele>3.0</ele><time>2026-04-19T09:03:56.683Z</time></trkpt><trkpt lat="42.5134082" lon="14.1360811"><ele>3.0</ele><time>2026-04-19T09:03:57.683Z</time></trkpt><trkpt lat="42.5134738" lon="14.1362167"><ele>3.0</ele><time>2026-04-19T09:03:58.684Z</time></trkpt><trkpt lat="42.5135195" lon="14.1363633"><ele>3.0</ele><time>2026-04-19T09:03:59.683Z</time></trkpt><trkpt lat="42.5135593" lon="14.1365128"><ele>3.1666666666666665</ele><time>2026-04-19T09:04:00.684Z</time></trkpt><trkpt lat="42.5135752" lon="14.1366545"><ele>3.333333333333333</ele><time>2026-04-19T09:04:01.683Z</time></trkpt><trkpt lat="42.5136112" lon="14.1367764"><ele>3.5</ele><time>2026-04-19T09:04:02.683Z</time></trkpt><trkpt lat="42.5136356" lon="14.1368955"><ele>3.6666666666666665</ele><time>2026-04-19T09:04:03.683Z</time></trkpt><trkpt lat="42.5136619" lon="14.1369996"><ele>3.833333333333333</ele><time>2026-04-19T09:04:04.683Z</time></trkpt><trkpt lat="42.5136887" lon="14.1370902"><ele>4.0</ele><time>2026-04-19T09:04:05.684Z</time></trkpt><trkpt lat="42.5137335" lon="14.1372314"><ele>4.0</ele><time>2026-04-19T09:04:07.683Z</time></trkpt><trkpt lat="42.5137711" lon="14.1373903"><ele>4.0</ele><time>2026-04-19T09:04:09.683Z</time></trkpt><trkpt lat="42.5138367" lon="14.1374898"><ele>4.0</ele><time>2026-04-19T09:04:11.684Z</time></trkpt><trkpt lat="42.5139274" lon="14.137461"><ele>4.0</ele><time>2026-04-19T09:04:13.683Z</time></trkpt><trkpt lat="42.5140376" lon="14.1373657"><ele>4.0</ele><time>2026-04-19T09:04:15.682Z</time></trkpt><trkpt lat="42.5141163" lon="14.1373081"><ele>4.0</ele><time>2026-04-19T09:04:16.682Z</time></trkpt><trkpt lat="42.5141978" lon="14.1372553"><ele>4.0</ele><time>2026-04-19T09:04:17.682Z</time></trkpt><trkpt lat="42.5143019" lon="14.1371947"><ele>4.0</ele><time>2026-04-19T09:04:18.682Z</time></trkpt><trkpt lat="42.5144096" lon="14.1371168"><ele>4.0</ele><time>2026-04-19T09:04:19.682Z</time></trkpt><trkpt lat="42.5145262" lon="14.1370423"><ele>3.25</ele><time>2026-04-19T09:04:20.683Z</time></trkpt><trkpt lat="42.5146588" lon="14.1369731"><ele>2.5</ele><time>2026-04-19T09:04:21.682Z</time></trkpt><trkpt lat="42.5148051" lon="14.1369113"><ele>1.75</ele><time>2026-04-19T09:04:22.683Z</time></trkpt><trkpt lat="42.5149453" lon="14.1368533"><ele>1.0</ele><time>2026-04-19T09:04:23.682Z</time></trkpt><trkpt lat="42.5150855" lon="14.1367855"><ele>1.0</ele><time>2026-04-19T09:04:24.682Z</time></trkpt><trkpt lat="42.5152138" lon="14.136717"><ele>1.0</ele><time>2026-04-19T09:04:25.683Z</time></trkpt><trkpt lat="42.5153359" lon="14.136654"><ele>1.0</ele><time>2026-04-19T09:04:26.682Z</time></trkpt><trkpt lat="42.5154406" lon="14.1365974"><ele>1.0</ele><time>2026-04-19T09:04:27.682Z</time></trkpt><trkpt lat="42.5155317" lon="14.1365546"><ele>1.4</ele><time>2026-04-19T09:04:28.682Z</time></trkpt><trkpt lat="42.5156135" lon="14.1365266"><ele>1.8</ele><time>2026-04-19T09:04:29.683Z</time></trkpt><trkpt lat="42.5157014" lon="14.1365215"><ele>2.1999999999999997</ele><time>2026-04-19T09:04:30.682Z</time></trkpt><trkpt lat="42.5157927" lon="14.1365342"><ele>2.6</ele><time>2026-04-19T09:04:31.682Z</time></trkpt><trkpt lat="42.5158889" lon="14.1365559"><ele>3.0</ele><time>2026-04-19T09:04:32.682Z</time></trkpt><trkpt lat="42.5159837" lon="14.1366003"><ele>3.2</ele><time>2026-04-19T09:04:33.683Z</time></trkpt><trkpt lat="42.5160792" lon="14.1366449"><ele>3.4</ele><time>2026-04-19T09:04:34.682Z</time></trkpt><trkpt lat="42.5161661" lon="14.1367047"><ele>3.6000000000000005</ele><time>2026-04-19T09:04:35.683Z</time></trkpt><trkpt lat="42.5162456" lon="14.1367803"><ele>3.8000000000000003</ele><time>2026-04-19T09:04:36.682Z</time></trkpt><trkpt lat="42.5163286" lon="14.136868"><ele>4.0</ele><time>2026-04-19T09:04:37.682Z</time></trkpt><trkpt lat="42.5164137" lon="14.1369492"><ele>4.25</ele><time>2026-04-19T09:04:38.683Z</time></trkpt><trkpt lat="42.5165078" lon="14.1370419"><ele>4.5</ele><time>2026-04-19T09:04:39.682Z</time></trkpt><trkpt lat="42.5166028" lon="14.1371371"><ele>4.75</ele><time>2026-04-19T09:04:40.682Z</time></trkpt><trkpt lat="42.5166999" lon="14.1372387"><ele>5.0</ele><time>2026-04-19T09:04:41.683Z</time></trkpt><trkpt lat="42.5167994" lon="14.1373413"><ele>4.75</ele><time>2026-04-19T09:04:42.682Z</time></trkpt><trkpt lat="42.5168816" lon="14.1374791"><ele>4.5</ele><time>2026-04-19T09:04:43.682Z</time></trkpt><trkpt lat="42.5169543" lon="14.1376381"><ele>4.25</ele><time>2026-04-19T09:04:44.683Z</time></trkpt><trkpt lat="42.5170221" lon="14.137797"><ele>4.0</ele><time>2026-04-19T09:04:45.683Z</time></trkpt><trkpt lat="42.5171041" lon="14.1379882"><ele>3.6666666666666665</ele><time>2026-04-19T09:04:46.683Z</time></trkpt><trkpt lat="42.517182" lon="14.1382069"><ele>3.333333333333333</ele><time>2026-04-19T09:04:47.683Z</time></trkpt><trkpt lat="42.5172634" lon="14.138417"><ele>3.0</ele><time>2026-04-19T09:04:48.682Z</time></trkpt><trkpt lat="42.5173435" lon="14.1386091"><ele>3.0</ele><time>2026-04-19T09:04:49.682Z</time></trkpt><trkpt lat="42.5174155" lon="14.1387928"><ele>3.0</ele><time>2026-04-19T09:04:50.682Z</time></trkpt><trkpt lat="42.5174884" lon="14.1389572"><ele>3.0</ele><time>2026-04-19T09:04:51.683Z</time></trkpt><trkpt lat="42.5175549" lon="14.1391146"><ele>3.0</ele><time>2026-04-19T09:04:52.683Z</time></trkpt><trkpt lat="42.5176182" lon="14.1392531"><ele>3.0</ele><time>2026-04-19T09:04:53.682Z</time></trkpt><trkpt lat="42.5176856" lon="14.1393705"><ele>3.0</ele><time>2026-04-19T09:04:54.683Z</time></trkpt><trkpt lat="42.5177678" lon="14.1394613"><ele>3.0</ele><time>2026-04-19T09:04:55.682Z</time></trkpt><trkpt lat="42.5178604" lon="14.1395141"><ele>3.0</ele><time>2026-04-19T09:04:56.683Z</time></trkpt><trkpt lat="42.5179573" lon="14.1395299"><ele>3.0</ele><time>2026-04-19T09:04:57.683Z</time></trkpt><trkpt lat="42.5180569" lon="14.139514"><ele>3.25</ele><time>2026-04-19T09:04:58.682Z</time></trkpt><trkpt lat="42.5181528" lon="14.13946"><ele>3.5</ele><time>2026-04-19T09:04:59.683Z</time></trkpt><trkpt lat="42.518237" lon="14.1393723"><ele>3.75</ele><time>2026-04-19T09:05:00.683Z</time></trkpt><trkpt lat="42.518318" lon="14.139255"><ele>4.0</ele><time>2026-04-19T09:05:01.683Z</time></trkpt><trkpt lat="42.5184037" lon="14.1391238"><ele>4.0</ele><time>2026-04-19T09:05:02.682Z</time></trkpt><trkpt lat="42.5184874" lon="14.1389939"><ele>4.0</ele><time>2026-04-19T09:05:03.683Z</time></trkpt><trkpt lat="42.518568" lon="14.1388598"><ele>4.0</ele><time>2026-04-19T09:05:04.683Z</time></trkpt><trkpt lat="42.5186503" lon="14.1387259"><ele>4.0</ele><time>2026-04-19T09:05:05.683Z</time></trkpt><trkpt lat="42.5187315" lon="14.1386045"><ele>3.8000000000000003</ele><time>2026-04-19T09:05:06.683Z</time></trkpt><trkpt lat="42.5188097" lon="14.1384873"><ele>3.6000000000000005</ele><time>2026-04-19T09:05:07.682Z</time></trkpt><trkpt lat="42.5188903" lon="14.1383732"><ele>3.4</ele><time>2026-04-19T09:05:08.682Z</time></trkpt><trkpt lat="42.5189665" lon="14.1382639"><ele>3.2</ele><time>2026-04-19T09:05:09.682Z</time></trkpt><trkpt lat="42.5190399" lon="14.1381613"><ele>3.0</ele><time>2026-04-19T09:05:10.682Z</time></trkpt><trkpt lat="42.5191155" lon="14.1380598"><ele>3.0</ele><time>2026-04-19T09:05:11.682Z</time></trkpt><trkpt lat="42.5191903" lon="14.1379529"><ele>3.0</ele><time>2026-04-19T09:05:12.682Z</time></trkpt><trkpt lat="42.5192694" lon="14.1378443"><ele>3.0</ele><time>2026-04-19T09:05:13.683Z</time></trkpt><trkpt lat="42.5193491" lon="14.13773"><ele>3.0</ele><time>2026-04-19T09:05:14.682Z</time></trkpt><trkpt lat="42.5194278" lon="14.1376162"><ele>3.0</ele><time>2026-04-19T09:05:15.682Z</time></trkpt><trkpt lat="42.5194959" lon="14.1375017"><ele>3.0</ele><time>2026-04-19T09:05:16.682Z</time></trkpt><trkpt lat="42.5195528" lon="14.1373895"><ele>3.0</ele><time>2026-04-19T09:05:17.682Z</time></trkpt><trkpt lat="42.5196026" lon="14.137272"><ele>3.0</ele><time>2026-04-19T09:05:18.682Z</time></trkpt><trkpt lat="42.5196425" lon="14.1371588"><ele>3.0</ele><time>2026-04-19T09:05:19.682Z</time></trkpt><trkpt lat="42.5196804" lon="14.1370507"><ele>3.666666666666667</ele><time>2026-04-19T09:05:20.683Z</time></trkpt><trkpt lat="42.5197136" lon="14.1369563"><ele>4.333333333333334</ele><time>2026-04-19T09:05:21.682Z</time></trkpt><trkpt lat="42.5197482" lon="14.1368775"><ele>5.0</ele><time>2026-04-19T09:05:22.682Z</time></trkpt><trkpt lat="42.5198072" lon="14.1367913"><ele>5.666666666666667</ele><time>2026-04-19T09:05:24.682Z</time></trkpt><trkpt lat="42.5198781" lon="14.1367247"><ele>6.333333333333334</ele><time>2026-04-19T09:05:27.682Z</time></trkpt><trkpt lat="42.5199734" lon="14.1367157"><ele>7.0</ele><time>2026-04-19T09:05:29.682Z</time></trkpt><trkpt lat="42.5200357" lon="14.136743"><ele>7.0</ele><time>2026-04-19T09:05:30.683Z</time></trkpt><trkpt lat="42.5200969" lon="14.1367999"><ele>6.999999999999999</ele><time>2026-04-19T09:05:31.682Z</time></trkpt><trkpt lat="42.5201699" lon="14.1368747"><ele>6.999999999999999</ele><time>2026-04-19T09:05:32.682Z</time></trkpt><trkpt lat="42.5202491" lon="14.1369691"><ele>7.0</ele><time>2026-04-19T09:05:33.683Z</time></trkpt><trkpt lat="42.5203305" lon="14.1370662"><ele>7.0</ele><time>2026-04-19T09:05:34.683Z</time></trkpt><trkpt lat="42.5204165" lon="14.137159"><ele>6.6</ele><time>2026-04-19T09:05:35.683Z</time></trkpt><trkpt lat="42.5204993" lon="14.137245"><ele>6.199999999999999</ele><time>2026-04-19T09:05:36.682Z</time></trkpt><trkpt lat="42.5205853" lon="14.1373209"><ele>5.8</ele><time>2026-04-19T09:05:37.683Z</time></trkpt><trkpt lat="42.5206723" lon="14.1373852"><ele>5.4</ele><time>2026-04-19T09:05:38.682Z</time></trkpt><trkpt lat="42.5207445" lon="14.1374585"><ele>5.0</ele><time>2026-04-19T09:05:39.683Z</time></trkpt><trkpt lat="42.5208154" lon="14.137527"><ele>4.833333333333334</ele><time>2026-04-19T09:05:40.682Z</time></trkpt><trkpt lat="42.5208803" lon="14.1376"><ele>4.666666666666667</ele><time>2026-04-19T09:05:41.682Z</time></trkpt><trkpt lat="42.5209406" lon="14.137675"><ele>4.5</ele><time>2026-04-19T09:05:42.682Z</time></trkpt><trkpt lat="42.5209975" lon="14.1377526"><ele>4.333333333333333</ele><time>2026-04-19T09:05:43.683Z</time></trkpt><trkpt lat="42.5210483" lon="14.1378032"><ele>4.166666666666666</ele><time>2026-04-19T09:05:44.683Z</time></trkpt><trkpt lat="42.5211464" lon="14.137824"><ele>4.0</ele><time>2026-04-19T09:05:46.682Z</time></trkpt><trkpt lat="42.52124" lon="14.1377364"><ele>4.142857142857142</ele><time>2026-04-19T09:05:48.682Z</time></trkpt><trkpt lat="42.5212888" lon="14.137649"><ele>4.285714285714286</ele><time>2026-04-19T09:05:50.683Z</time></trkpt><trkpt lat="42.5213357" lon="14.1375821"><ele>4.428571428571429</ele><time>2026-04-19T09:05:54.69Z</time></trkpt><trkpt lat="42.5213906" lon="14.1374931"><ele>4.571428571428571</ele><time>2026-04-19T09:05:58.69Z</time></trkpt><trkpt lat="42.5214246" lon="14.1374179"><ele>4.714285714285714</ele><time>2026-04-19T09:06:00.691Z</time></trkpt><trkpt lat="42.5214502" lon="14.1373334"><ele>4.857142857142857</ele><time>2026-04-19T09:06:02.69Z</time></trkpt><trkpt lat="42.5214747" lon="14.1372321"><ele>5.0</ele><time>2026-04-19T09:06:05.691Z</time></trkpt><trkpt lat="42.5214957" lon="14.1371461"><ele>5.0</ele><time>2026-04-19T09:06:10.69Z</time></trkpt><trkpt lat="42.5215076" lon="14.1370576"><ele>5.0</ele><time>2026-04-19T09:06:21.69Z</time></trkpt><trkpt lat="42.5215321" lon="14.1369233"><ele>5.0</ele><time>2026-04-19T09:06:34.69Z</time></trkpt><trkpt lat="42.5215447" lon="14.1368261"><ele>5.0</ele><time>2026-04-19T09:06:36.69Z</time></trkpt><trkpt lat="42.5215572" lon="14.136708"><ele>5.0</ele><time>2026-04-19T09:06:38.691Z</time></trkpt><trkpt lat="42.5215509" lon="14.1365839"><ele>5.0</ele><time>2026-04-19T09:06:40.69Z</time></trkpt><trkpt lat="42.5215506" lon="14.1364047"><ele>5.0</ele><time>2026-04-19T09:06:42.69Z</time></trkpt><trkpt lat="42.5215509" lon="14.1362868"><ele>5.0</ele><time>2026-04-19T09:06:43.691Z</time></trkpt><trkpt lat="42.5215501" lon="14.1361404"><ele>5.0</ele><time>2026-04-19T09:06:44.69Z</time></trkpt><trkpt lat="42.5215561" lon="14.1359781"><ele>5.0</ele><time>2026-04-19T09:06:45.69Z</time></trkpt><trkpt lat="42.5215719" lon="14.1358093"><ele>5.0</ele><time>2026-04-19T09:06:46.691Z</time></trkpt><trkpt lat="42.5215957" lon="14.1356401"><ele>5.0</ele><time>2026-04-19T09:06:47.69Z</time></trkpt><trkpt lat="42.5216361" lon="14.1354548"><ele>5.0</ele><time>2026-04-19T09:06:48.69Z</time></trkpt><trkpt lat="42.5216935" lon="14.1352813"><ele>5.0</ele><time>2026-04-19T09:06:49.691Z</time></trkpt><trkpt lat="42.5217669" lon="14.1351025"><ele>5.0</ele><time>2026-04-19T09:06:50.69Z</time></trkpt><trkpt lat="42.5218534" lon="14.1349263"><ele>5.666666666666667</ele><time>2026-04-19T09:06:51.69Z</time></trkpt><trkpt lat="42.5219583" lon="14.1347645"><ele>6.333333333333334</ele><time>2026-04-19T09:06:52.69Z</time></trkpt><trkpt lat="42.5220669" lon="14.1346046"><ele>7.0</ele><time>2026-04-19T09:06:53.69Z</time></trkpt><trkpt lat="42.5221817" lon="14.1344454"><ele>7.333333333333334</ele><time>2026-04-19T09:06:54.69Z</time></trkpt><trkpt lat="42.5223049" lon="14.1342949"><ele>7.666666666666666</ele><time>2026-04-19T09:06:55.69Z</time></trkpt><trkpt lat="42.522439" lon="14.1341534"><ele>8.0</ele><time>2026-04-19T09:06:56.691Z</time></trkpt><trkpt lat="42.5225844" lon="14.1340136"><ele>8.0</ele><time>2026-04-19T09:06:57.69Z</time></trkpt><trkpt lat="42.52275" lon="14.1338896"><ele>8.0</ele><time>2026-04-19T09:06:58.691Z</time></trkpt><trkpt lat="42.5229329" lon="14.1337811"><ele>8.0</ele><time>2026-04-19T09:06:59.69Z</time></trkpt><trkpt lat="42.5231246" lon="14.1336839"><ele>8.0</ele><time>2026-04-19T09:07:00.69Z</time></trkpt><trkpt lat="42.5233241" lon="14.1336045"><ele>8.0</ele><time>2026-04-19T09:07:01.69Z</time></trkpt><trkpt lat="42.5235326" lon="14.1335421"><ele>8.0</ele><time>2026-04-19T09:07:02.691Z</time></trkpt><trkpt lat="42.5237467" lon="14.1334887"><ele>8.333333333333332</ele><time>2026-04-19T09:07:03.691Z</time></trkpt><trkpt lat="42.5239638" lon="14.133427"><ele>8.666666666666666</ele><time>2026-04-19T09:07:04.69Z</time></trkpt><trkpt lat="42.524184" lon="14.1333606"><ele>9.0</ele><time>2026-04-19T09:07:05.691Z</time></trkpt><trkpt lat="42.5244054" lon="14.133292"><ele>8.0</ele><time>2026-04-19T09:07:06.69Z</time></trkpt><trkpt lat="42.5246326" lon="14.1332294"><ele>7.0</ele><time>2026-04-19T09:07:07.69Z</time></trkpt><trkpt lat="42.52487" lon="14.1331615"><ele>7.0</ele><time>2026-04-19T09:07:08.691Z</time></trkpt><trkpt lat="42.525116" lon="14.1330884"><ele>7.0</ele><time>2026-04-19T09:07:09.69Z</time></trkpt><trkpt lat="42.5253717" lon="14.1330178"><ele>6.0</ele><time>2026-04-19T09:07:10.691Z</time></trkpt><trkpt lat="42.5256392" lon="14.1329454"><ele>5.0</ele><time>2026-04-19T09:07:11.691Z</time></trkpt><trkpt lat="42.5259082" lon="14.1328781"><ele>5.0</ele><time>2026-04-19T09:07:12.691Z</time></trkpt><trkpt lat="42.5261822" lon="14.1328074"><ele>5.0</ele><time>2026-04-19T09:07:13.69Z</time></trkpt><trkpt lat="42.5264576" lon="14.132729"><ele>6.5</ele><time>2026-04-19T09:07:14.691Z</time></trkpt><trkpt lat="42.5267281" lon="14.1326352"><ele>8.0</ele><time>2026-04-19T09:07:15.69Z</time></trkpt><trkpt lat="42.526994" lon="14.1325223"><ele>8.0</ele><time>2026-04-19T09:07:16.69Z</time></trkpt><trkpt lat="42.5272568" lon="14.1323871"><ele>8.0</ele><time>2026-04-19T09:07:17.69Z</time></trkpt><trkpt lat="42.5275108" lon="14.1322385"><ele>8.0</ele><time>2026-04-19T09:07:18.69Z</time></trkpt><trkpt lat="42.5277561" lon="14.1320708"><ele>8.0</ele><time>2026-04-19T09:07:19.691Z</time></trkpt><trkpt lat="42.5279891" lon="14.1318737"><ele>10.0</ele><time>2026-04-19T09:07:20.69Z</time></trkpt><trkpt lat="42.5282461" lon="14.1315929"><ele>12.0</ele><time>2026-04-19T09:07:21.691Z</time></trkpt><trkpt lat="42.5284722" lon="14.1313504"><ele>12.0</ele><time>2026-04-19T09:07:22.69Z</time></trkpt><trkpt lat="42.5286933" lon="14.1310827"><ele>12.0</ele><time>2026-04-19T09:07:23.691Z</time></trkpt><trkpt lat="42.5289017" lon="14.1307952"><ele>12.0</ele><time>2026-04-19T09:07:24.69Z</time></trkpt><trkpt lat="42.5290918" lon="14.1304865"><ele>12.0</ele><time>2026-04-19T09:07:25.69Z</time></trkpt><trkpt lat="42.52927" lon="14.1301542"><ele>11.5</ele><time>2026-04-19T09:07:26.69Z</time></trkpt><trkpt lat="42.5294302" lon="14.1298041"><ele>11.0</ele><time>2026-04-19T09:07:27.69Z</time></trkpt><trkpt lat="42.5295792" lon="14.129431"><ele>13.5</ele><time>2026-04-19T09:07:28.69Z</time></trkpt><trkpt lat="42.529712" lon="14.1290499"><ele>16.0</ele><time>2026-04-19T09:07:29.69Z</time></trkpt><trkpt lat="42.5298352" lon="14.1286577"><ele>16.0</ele><time>2026-04-19T09:07:30.69Z</time></trkpt><trkpt lat="42.5299539" lon="14.1282656"><ele>16.0</ele><time>2026-04-19T09:07:31.69Z</time></trkpt><trkpt lat="42.530076" lon="14.1278774"><ele>15.0</ele><time>2026-04-19T09:07:32.69Z</time></trkpt><trkpt lat="42.5301939" lon="14.1274938"><ele>14.0</ele><time>2026-04-19T09:07:33.691Z</time></trkpt><trkpt lat="42.5303118" lon="14.1270992"><ele>17.0</ele><time>2026-04-19T09:07:34.69Z</time></trkpt><trkpt lat="42.5304258" lon="14.1267063"><ele>20.0</ele><time>2026-04-19T09:07:35.69Z</time></trkpt><trkpt lat="42.5305335" lon="14.1263108"><ele>20.5</ele><time>2026-04-19T09:07:36.691Z</time></trkpt><trkpt lat="42.5306389" lon="14.125912"><ele>21.0</ele><time>2026-04-19T09:07:37.691Z</time></trkpt><trkpt lat="42.5307503" lon="14.1255239"><ele>21.5</ele><time>2026-04-19T09:07:38.69Z</time></trkpt><trkpt lat="42.5308644" lon="14.1251273"><ele>22.0</ele><time>2026-04-19T09:07:39.691Z</time></trkpt><trkpt lat="42.5309875" lon="14.1247371"><ele>22.0</ele><time>2026-04-19T09:07:40.69Z</time></trkpt><trkpt lat="42.5311074" lon="14.1243486"><ele>22.0</ele><time>2026-04-19T09:07:41.69Z</time></trkpt><trkpt lat="42.5312284" lon="14.1239668"><ele>22.0</ele><time>2026-04-19T09:07:42.691Z</time></trkpt><trkpt lat="42.5313469" lon="14.1235891"><ele>22.0</ele><time>2026-04-19T09:07:43.69Z</time></trkpt><trkpt lat="42.5314598" lon="14.1232062"><ele>22.0</ele><time>2026-04-19T09:07:44.691Z</time></trkpt><trkpt lat="42.53157" lon="14.1228246"><ele>22.0</ele><time>2026-04-19T09:07:45.69Z</time></trkpt><trkpt lat="42.5316795" lon="14.122446"><ele>20.5</ele><time>2026-04-19T09:07:46.69Z</time></trkpt><trkpt lat="42.5317894" lon="14.1220687"><ele>19.0</ele><time>2026-04-19T09:07:47.69Z</time></trkpt><trkpt lat="42.5319014" lon="14.1216862"><ele>20.0</ele><time>2026-04-19T09:07:48.69Z</time></trkpt><trkpt lat="42.5320121" lon="14.1213117"><ele>21.0</ele><time>2026-04-19T09:07:49.69Z</time></trkpt><trkpt lat="42.5321244" lon="14.1209395"><ele>21.0</ele><time>2026-04-19T09:07:50.69Z</time></trkpt><trkpt lat="42.5322338" lon="14.120577"><ele>21.0</ele><time>2026-04-19T09:07:51.69Z</time></trkpt><trkpt lat="42.5323387" lon="14.1202029"><ele>21.5</ele><time>2026-04-19T09:07:52.691Z</time></trkpt><trkpt lat="42.5324476" lon="14.1198293"><ele>22.0</ele><time>2026-04-19T09:07:53.691Z</time></trkpt><trkpt lat="42.532563" lon="14.1194482"><ele>22.0</ele><time>2026-04-19T09:07:54.69Z</time></trkpt><trkpt lat="42.5326775" lon="14.1190709"><ele>22.0</ele><time>2026-04-19T09:07:55.69Z</time></trkpt><trkpt lat="42.5327937" lon="14.1186848"><ele>24.0</ele><time>2026-04-19T09:07:56.69Z</time></trkpt><trkpt lat="42.5329075" lon="14.1182957"><ele>26.0</ele><time>2026-04-19T09:07:57.69Z</time></trkpt><trkpt lat="42.5330197" lon="14.1179033"><ele>28.0</ele><time>2026-04-19T09:07:58.691Z</time></trkpt><trkpt lat="42.5331352" lon="14.1175046"><ele>30.0</ele><time>2026-04-19T09:07:59.69Z</time></trkpt><trkpt lat="42.5332517" lon="14.117115"><ele>32.0</ele><time>2026-04-19T09:08:00.691Z</time></trkpt><trkpt lat="42.5333699" lon="14.1167155"><ele>34.0</ele><time>2026-04-19T09:08:01.69Z</time></trkpt><trkpt lat="42.53349" lon="14.1163179"><ele>34.5</ele><time>2026-04-19T09:08:02.69Z</time></trkpt><trkpt lat="42.5336068" lon="14.115929"><ele>35.0</ele><time>2026-04-19T09:08:03.69Z</time></trkpt><trkpt lat="42.5337186" lon="14.1155496"><ele>34.0</ele><time>2026-04-19T09:08:04.69Z</time></trkpt><trkpt lat="42.5338334" lon="14.115186"><ele>33.0</ele><time>2026-04-19T09:08:05.689Z</time></trkpt><trkpt lat="42.5339474" lon="14.1148254"><ele>35.5</ele><time>2026-04-19T09:08:06.689Z</time></trkpt><trkpt lat="42.5340658" lon="14.1144678"><ele>38.0</ele><time>2026-04-19T09:08:07.689Z</time></trkpt><trkpt lat="42.534199" lon="14.1141312"><ele>39.5</ele><time>2026-04-19T09:08:08.69Z</time></trkpt><trkpt lat="42.5343462" lon="14.1137983"><ele>41.0</ele><time>2026-04-19T09:08:09.69Z</time></trkpt><trkpt lat="42.5345149" lon="14.11348"><ele>44.5</ele><time>2026-04-19T09:08:10.69Z</time></trkpt><trkpt lat="42.5346987" lon="14.1131735"><ele>48.0</ele><time>2026-04-19T09:08:11.689Z</time></trkpt><trkpt lat="42.5348959" lon="14.1128757"><ele>48.0</ele><time>2026-04-19T09:08:12.69Z</time></trkpt><trkpt lat="42.5351134" lon="14.1125985"><ele>48.0</ele><time>2026-04-19T09:08:13.689Z</time></trkpt><trkpt lat="42.5353357" lon="14.1123454"><ele>50.0</ele><time>2026-04-19T09:08:14.689Z</time></trkpt><trkpt lat="42.5355746" lon="14.1121146"><ele>52.0</ele><time>2026-04-19T09:08:15.689Z</time></trkpt><trkpt lat="42.5358294" lon="14.1118974"><ele>52.0</ele><time>2026-04-19T09:08:16.689Z</time></trkpt><trkpt lat="42.5360997" lon="14.1116977"><ele>52.0</ele><time>2026-04-19T09:08:17.689Z</time></trkpt><trkpt lat="42.5363633" lon="14.111535"><ele>54.5</ele><time>2026-04-19T09:08:18.69Z</time></trkpt><trkpt lat="42.5366477" lon="14.1113839"><ele>57.0</ele><time>2026-04-19T09:08:19.689Z</time></trkpt><trkpt lat="42.5369279" lon="14.1112566"><ele>56.5</ele><time>2026-04-19T09:08:20.689Z</time></trkpt><trkpt lat="42.5372103" lon="14.1111518"><ele>56.0</ele><time>2026-04-19T09:08:21.689Z</time></trkpt><trkpt lat="42.5374949" lon="14.1110705"><ele>56.0</ele><time>2026-04-19T09:08:22.689Z</time></trkpt><trkpt lat="42.5377776" lon="14.1110262"><ele>56.0</ele><time>2026-04-19T09:08:23.689Z</time></trkpt><trkpt lat="42.5380688" lon="14.110987"><ele>57.5</ele><time>2026-04-19T09:08:24.689Z</time></trkpt><trkpt lat="42.5383718" lon="14.1109581"><ele>59.0</ele><time>2026-04-19T09:08:25.689Z</time></trkpt><trkpt lat="42.5386735" lon="14.1109207"><ele>62.0</ele><time>2026-04-19T09:08:26.69Z</time></trkpt><trkpt lat="42.5389843" lon="14.1108818"><ele>65.0</ele><time>2026-04-19T09:08:27.689Z</time></trkpt><trkpt lat="42.5392939" lon="14.1108457"><ele>66.0</ele><time>2026-04-19T09:08:28.689Z</time></trkpt><trkpt lat="42.5396053" lon="14.1108067"><ele>67.0</ele><time>2026-04-19T09:08:29.689Z</time></trkpt><trkpt lat="42.5399209" lon="14.1107684"><ele>71.5</ele><time>2026-04-19T09:08:30.689Z</time></trkpt><trkpt lat="42.5402317" lon="14.1107311"><ele>76.0</ele><time>2026-04-19T09:08:31.689Z</time></trkpt><trkpt lat="42.5405414" lon="14.1106904"><ele>77.5</ele><time>2026-04-19T09:08:32.69Z</time></trkpt><trkpt lat="42.5408528" lon="14.1106539"><ele>79.0</ele><time>2026-04-19T09:08:33.69Z</time></trkpt><trkpt lat="42.5411716" lon="14.11061"><ele>81.5</ele><time>2026-04-19T09:08:34.689Z</time></trkpt><trkpt lat="42.5414865" lon="14.1105597"><ele>84.0</ele><time>2026-04-19T09:08:35.689Z</time></trkpt><trkpt lat="42.541803" lon="14.1104873"><ele>84.5</ele><time>2026-04-19T09:08:36.689Z</time></trkpt><trkpt lat="42.5421133" lon="14.1104001"><ele>85.0</ele><time>2026-04-19T09:08:37.689Z</time></trkpt><trkpt lat="42.5424234" lon="14.110289"><ele>85.0</ele><time>2026-04-19T09:08:38.689Z</time></trkpt><trkpt lat="42.5427345" lon="14.1101668"><ele>85.0</ele><time>2026-04-19T09:08:39.689Z</time></trkpt><trkpt lat="42.5430393" lon="14.1100083"><ele>89.5</ele><time>2026-04-19T09:08:40.69Z</time></trkpt><trkpt lat="42.5433448" lon="14.1098422"><ele>94.0</ele><time>2026-04-19T09:08:41.689Z</time></trkpt><trkpt lat="42.5436339" lon="14.1096555"><ele>93.0</ele><time>2026-04-19T09:08:42.689Z</time></trkpt><trkpt lat="42.5439255" lon="14.1094648"><ele>92.0</ele><time>2026-04-19T09:08:43.689Z</time></trkpt><trkpt lat="42.544205" lon="14.1092536"><ele>93.0</ele><time>2026-04-19T09:08:44.689Z</time></trkpt><trkpt lat="42.544475" lon="14.1090291"><ele>94.0</ele><time>2026-04-19T09:08:45.69Z</time></trkpt><trkpt lat="42.544728" lon="14.1087845"><ele>94.0</ele><time>2026-04-19T09:08:46.689Z</time></trkpt><trkpt lat="42.544971" lon="14.1085289"><ele>94.0</ele><time>2026-04-19T09:08:47.69Z</time></trkpt><trkpt lat="42.5452016" lon="14.108253"><ele>93.5</ele><time>2026-04-19T09:08:48.69Z</time></trkpt><trkpt lat="42.545423" lon="14.1079696"><ele>93.0</ele><time>2026-04-19T09:08:49.69Z</time></trkpt><trkpt lat="42.5456382" lon="14.1076681"><ele>97.5</ele><time>2026-04-19T09:08:50.689Z</time></trkpt><trkpt lat="42.5458407" lon="14.1073534"><ele>102.0</ele><time>2026-04-19T09:08:51.69Z</time></trkpt><trkpt lat="42.5460205" lon="14.1070268"><ele>102.0</ele><time>2026-04-19T09:08:52.689Z</time></trkpt><trkpt lat="42.5461926" lon="14.1066882"><ele>102.0</ele><time>2026-04-19T09:08:53.69Z</time></trkpt><trkpt lat="42.5463566" lon="14.1063437"><ele>103.0</ele><time>2026-04-19T09:08:54.689Z</time></trkpt><trkpt lat="42.5465129" lon="14.1059877"><ele>104.0</ele><time>2026-04-19T09:08:55.69Z</time></trkpt><trkpt lat="42.5466719" lon="14.1056331"><ele>108.5</ele><time>2026-04-19T09:08:56.689Z</time></trkpt><trkpt lat="42.5468209" lon="14.1052748"><ele>113.0</ele><time>2026-04-19T09:08:57.689Z</time></trkpt><trkpt lat="42.5469688" lon="14.1049093"><ele>111.5</ele><time>2026-04-19T09:08:58.69Z</time></trkpt><trkpt lat="42.5471133" lon="14.104537"><ele>110.0</ele><time>2026-04-19T09:08:59.689Z</time></trkpt><trkpt lat="42.5472636" lon="14.1041622"><ele>115.5</ele><time>2026-04-19T09:09:00.689Z</time></trkpt><trkpt lat="42.5474048" lon="14.1037903"><ele>121.0</ele><time>2026-04-19T09:09:01.689Z</time></trkpt><trkpt lat="42.5475467" lon="14.1034233"><ele>124.5</ele><time>2026-04-19T09:09:02.69Z</time></trkpt><trkpt lat="42.5476867" lon="14.1030471"><ele>128.0</ele><time>2026-04-19T09:09:03.69Z</time></trkpt><trkpt lat="42.5478247" lon="14.1026754"><ele>124.0</ele><time>2026-04-19T09:09:04.69Z</time></trkpt><trkpt lat="42.547968" lon="14.1023075"><ele>120.0</ele><time>2026-04-19T09:09:05.689Z</time></trkpt><trkpt lat="42.5481083" lon="14.1019409"><ele>125.0</ele><time>2026-04-19T09:09:06.689Z</time></trkpt><trkpt lat="42.5482459" lon="14.1015774"><ele>130.0</ele><time>2026-04-19T09:09:07.689Z</time></trkpt><trkpt lat="42.5483843" lon="14.1012201"><ele>130.0</ele><time>2026-04-19T09:09:08.689Z</time></trkpt><trkpt lat="42.5485159" lon="14.1008616"><ele>130.0</ele><time>2026-04-19T09:09:09.69Z</time></trkpt><trkpt lat="42.5486491" lon="14.100509"><ele>128.5</ele><time>2026-04-19T09:09:10.69Z</time></trkpt><trkpt lat="42.5487845" lon="14.1001575"><ele>127.0</ele><time>2026-04-19T09:09:11.689Z</time></trkpt><trkpt lat="42.5489142" lon="14.099822"><ele>133.0</ele><time>2026-04-19T09:09:12.689Z</time></trkpt><trkpt lat="42.5490467" lon="14.0994971"><ele>139.0</ele><time>2026-04-19T09:09:13.69Z</time></trkpt><trkpt lat="42.5491815" lon="14.0991866"><ele>144.0</ele><time>2026-04-19T09:09:14.69Z</time></trkpt><trkpt lat="42.5493183" lon="14.0988919"><ele>149.0</ele><time>2026-04-19T09:09:15.689Z</time></trkpt><trkpt lat="42.5494608" lon="14.0986089"><ele>147.0</ele><time>2026-04-19T09:09:16.689Z</time></trkpt><trkpt lat="42.5496069" lon="14.0983288"><ele>145.0</ele><time>2026-04-19T09:09:17.69Z</time></trkpt><trkpt lat="42.5497581" lon="14.0980487"><ele>145.0</ele><time>2026-04-19T09:09:18.689Z</time></trkpt><trkpt lat="42.5499183" lon="14.0977741"><ele>145.0</ele><time>2026-04-19T09:09:19.69Z</time></trkpt><trkpt lat="42.5500852" lon="14.097511"><ele>145.5</ele><time>2026-04-19T09:09:20.69Z</time></trkpt><trkpt lat="42.5502474" lon="14.097261"><ele>146.0</ele><time>2026-04-19T09:09:21.69Z</time></trkpt><trkpt lat="42.5504144" lon="14.0970251"><ele>146.0</ele><time>2026-04-19T09:09:22.689Z</time></trkpt><trkpt lat="42.5505834" lon="14.096799"><ele>146.0</ele><time>2026-04-19T09:09:23.69Z</time></trkpt><trkpt lat="42.5507515" lon="14.0965972"><ele>147.33333333333331</ele><time>2026-04-19T09:09:24.69Z</time></trkpt><trkpt lat="42.5509117" lon="14.0964"><ele>148.66666666666666</ele><time>2026-04-19T09:09:25.689Z</time></trkpt><trkpt lat="42.5510753" lon="14.0962089"><ele>150.0</ele><time>2026-04-19T09:09:26.689Z</time></trkpt><trkpt lat="42.5512344" lon="14.0960223"><ele>151.33333333333334</ele><time>2026-04-19T09:09:27.69Z</time></trkpt><trkpt lat="42.5513951" lon="14.0958369"><ele>152.66666666666669</ele><time>2026-04-19T09:09:28.69Z</time></trkpt><trkpt lat="42.5515583" lon="14.095654"><ele>154.0</ele><time>2026-04-19T09:09:29.689Z</time></trkpt><trkpt lat="42.5517149" lon="14.0954704"><ele>154.0</ele><time>2026-04-19T09:09:30.689Z</time></trkpt><trkpt lat="42.5518703" lon="14.0952937"><ele>154.0</ele><time>2026-04-19T09:09:31.69Z</time></trkpt><trkpt lat="42.5601507" lon="14.0854376"><ele>158.0</ele><time>2026-04-19T09:10:08.991Z</time></trkpt><trkpt lat="42.5584641" lon="14.0876526"><ele>158.0</ele><time>2026-04-19T09:10:10.689Z</time></trkpt><trkpt lat="42.5586098" lon="14.0874883"><ele>158.0</ele><time>2026-04-19T09:10:11.689Z</time></trkpt><trkpt lat="42.5587632" lon="14.0873124"><ele>158.0</ele><time>2026-04-19T09:10:12.689Z</time></trkpt><trkpt lat="42.5589279" lon="14.0871321"><ele>156.66666666666666</ele><time>2026-04-19T09:10:13.69Z</time></trkpt><trkpt lat="42.5590837" lon="14.0869421"><ele>155.33333333333334</ele><time>2026-04-19T09:10:14.689Z</time></trkpt><trkpt lat="42.559233" lon="14.0867628"><ele>154.0</ele><time>2026-04-19T09:10:15.689Z</time></trkpt><trkpt lat="42.5593762" lon="14.0865888"><ele>153.0</ele><time>2026-04-19T09:10:16.689Z</time></trkpt><trkpt lat="42.5595177" lon="14.0864217"><ele>152.0</ele><time>2026-04-19T09:10:17.689Z</time></trkpt><trkpt lat="42.559654" lon="14.0862628"><ele>151.0</ele><time>2026-04-19T09:10:18.69Z</time></trkpt><trkpt lat="42.5597898" lon="14.0861028"><ele>151.0</ele><time>2026-04-19T09:10:19.69Z</time></trkpt><trkpt lat="42.5599258" lon="14.0859383"><ele>151.0</ele><time>2026-04-19T09:10:20.689Z</time></trkpt><trkpt lat="42.5600626" lon="14.0857774"><ele>151.0</ele><time>2026-04-19T09:10:21.689Z</time></trkpt><trkpt lat="42.5602012" lon="14.0856166"><ele>152.0</ele><time>2026-04-19T09:10:22.69Z</time></trkpt><trkpt lat="42.5603395" lon="14.0854481"><ele>153.0</ele><time>2026-04-19T09:10:23.689Z</time></trkpt><trkpt lat="42.5604849" lon="14.0852722"><ele>154.0</ele><time>2026-04-19T09:10:24.69Z</time></trkpt><trkpt lat="42.5606373" lon="14.0850911"><ele>155.66666666666669</ele><time>2026-04-19T09:10:25.689Z</time></trkpt><trkpt lat="42.5608007" lon="14.0849082"><ele>157.33333333333334</ele><time>2026-04-19T09:10:26.69Z</time></trkpt><trkpt lat="42.5609702" lon="14.0847224"><ele>159.0</ele><time>2026-04-19T09:10:27.689Z</time></trkpt><trkpt lat="42.5611423" lon="14.0845369"><ele>150.0</ele><time>2026-04-19T09:10:28.689Z</time></trkpt><trkpt lat="42.5646361" lon="14.0804951"><ele>150.0</ele><time>2026-04-19T09:10:46.689Z</time></trkpt><trkpt lat="42.5648365" lon="14.0802369"><ele>150.0</ele><time>2026-04-19T09:10:47.69Z</time></trkpt><trkpt lat="42.5650629" lon="14.0800072"><ele>148.5</ele><time>2026-04-19T09:10:48.69Z</time></trkpt><trkpt lat="42.5652913" lon="14.0797946"><ele>147.0</ele><time>2026-04-19T09:10:49.689Z</time></trkpt><trkpt lat="42.5655305" lon="14.0795772"><ele>147.0</ele><time>2026-04-19T09:10:50.689Z</time></trkpt><trkpt lat="42.5657736" lon="14.0793677"><ele>147.0</ele><time>2026-04-19T09:10:51.69Z</time></trkpt><trkpt lat="42.5660194" lon="14.0791687"><ele>146.5</ele><time>2026-04-19T09:10:52.689Z</time></trkpt><trkpt lat="42.5662751" lon="14.0789865"><ele>146.0</ele><time>2026-04-19T09:10:53.689Z</time></trkpt><trkpt lat="42.5665353" lon="14.0788152"><ele>146.0</ele><time>2026-04-19T09:10:54.69Z</time></trkpt><trkpt lat="42.5667986" lon="14.0786619"><ele>146.0</ele><time>2026-04-19T09:10:55.689Z</time></trkpt><trkpt lat="42.5670507" lon="14.0785282"><ele>143.0</ele><time>2026-04-19T09:10:56.689Z</time></trkpt><trkpt lat="42.5673034" lon="14.0783975"><ele>140.0</ele><time>2026-04-19T09:10:57.69Z</time></trkpt><trkpt lat="42.5675554" lon="14.0782809"><ele>141.5</ele><time>2026-04-19T09:10:58.689Z</time></trkpt><trkpt lat="42.5678009" lon="14.0781804"><ele>143.0</ele><time>2026-04-19T09:10:59.69Z</time></trkpt><trkpt lat="42.5680517" lon="14.0780898"><ele>143.0</ele><time>2026-04-19T09:11:00.689Z</time></trkpt><trkpt lat="42.5682968" lon="14.0780044"><ele>143.0</ele><time>2026-04-19T09:11:01.69Z</time></trkpt><trkpt lat="42.5685427" lon="14.0779318"><ele>139.5</ele><time>2026-04-19T09:11:02.689Z</time></trkpt><trkpt lat="42.5687879" lon="14.0778608"><ele>136.0</ele><time>2026-04-19T09:11:03.689Z</time></trkpt><trkpt lat="42.5690265" lon="14.0777991"><ele>136.0</ele><time>2026-04-19T09:11:04.69Z</time></trkpt><trkpt lat="42.5692688" lon="14.0777317"><ele>136.0</ele><time>2026-04-19T09:11:05.689Z</time></trkpt><trkpt lat="42.5695111" lon="14.077671"><ele>126.5</ele><time>2026-04-19T09:11:06.689Z</time></trkpt><trkpt lat="42.569763" lon="14.0776085"><ele>117.0</ele><time>2026-04-19T09:11:07.689Z</time></trkpt><trkpt lat="42.5700142" lon="14.0775485"><ele>117.0</ele><time>2026-04-19T09:11:08.689Z</time></trkpt><trkpt lat="42.5702668" lon="14.0774928"><ele>117.0</ele><time>2026-04-19T09:11:09.689Z</time></trkpt><trkpt lat="42.5705178" lon="14.0774305"><ele>107.0</ele><time>2026-04-19T09:11:10.689Z</time></trkpt><trkpt lat="42.5707636" lon="14.0773689"><ele>97.0</ele><time>2026-04-19T09:11:11.69Z</time></trkpt><trkpt lat="42.5710015" lon="14.0773122"><ele>89.33333333333334</ele><time>2026-04-19T09:11:12.689Z</time></trkpt><trkpt lat="42.5712278" lon="14.0772585"><ele>81.66666666666667</ele><time>2026-04-19T09:11:13.689Z</time></trkpt><trkpt lat="42.5714351" lon="14.0772129"><ele>74.0</ele><time>2026-04-19T09:11:14.689Z</time></trkpt><trkpt lat="42.5716419" lon="14.077161"><ele>74.0</ele><time>2026-04-19T09:11:15.689Z</time></trkpt><trkpt lat="42.5718455" lon="14.0771041"><ele>74.0</ele><time>2026-04-19T09:11:16.689Z</time></trkpt><trkpt lat="42.5720409" lon="14.0770539"><ele>74.0</ele><time>2026-04-19T09:11:17.689Z</time></trkpt><trkpt lat="42.5722326" lon="14.0770123"><ele>66.0</ele><time>2026-04-19T09:11:18.689Z</time></trkpt><trkpt lat="42.5724146" lon="14.0769629"><ele>58.0</ele><time>2026-04-19T09:11:19.689Z</time></trkpt><trkpt lat="42.5725933" lon="14.0769224"><ele>50.0</ele><time>2026-04-19T09:11:20.689Z</time></trkpt><trkpt lat="42.5727696" lon="14.0768704"><ele>44.66666666666667</ele><time>2026-04-19T09:11:21.69Z</time></trkpt><trkpt lat="42.5729484" lon="14.0768291"><ele>39.333333333333336</ele><time>2026-04-19T09:11:22.689Z</time></trkpt><trkpt lat="42.5731301" lon="14.0767829"><ele>34.0</ele><time>2026-04-19T09:11:23.689Z</time></trkpt><trkpt lat="42.5733084" lon="14.0767335"><ele>34.0</ele><time>2026-04-19T09:11:24.69Z</time></trkpt><trkpt lat="42.5734846" lon="14.0766952"><ele>34.0</ele><time>2026-04-19T09:11:25.69Z</time></trkpt><trkpt lat="42.5736579" lon="14.0766536"><ele>34.0</ele><time>2026-04-19T09:11:26.689Z</time></trkpt><trkpt lat="42.573827" lon="14.0766134"><ele>35.333333333333336</ele><time>2026-04-19T09:11:27.69Z</time></trkpt><trkpt lat="42.5739945" lon="14.0765713"><ele>36.666666666666664</ele><time>2026-04-19T09:11:28.689Z</time></trkpt><trkpt lat="42.574168" lon="14.0765306"><ele>38.0</ele><time>2026-04-19T09:11:29.69Z</time></trkpt><trkpt lat="42.5743478" lon="14.0764924"><ele>46.666666666666664</ele><time>2026-04-19T09:11:30.689Z</time></trkpt><trkpt lat="42.5745248" lon="14.0764491"><ele>55.33333333333333</ele><time>2026-04-19T09:11:31.69Z</time></trkpt><trkpt lat="42.5746995" lon="14.0764029"><ele>64.0</ele><time>2026-04-19T09:11:32.69Z</time></trkpt><trkpt lat="42.5748732" lon="14.0763593"><ele>64.0</ele><time>2026-04-19T09:11:33.69Z</time></trkpt><trkpt lat="42.5750429" lon="14.0763171"><ele>64.0</ele><time>2026-04-19T09:11:34.689Z</time></trkpt><trkpt lat="42.5752064" lon="14.0762755"><ele>64.0</ele><time>2026-04-19T09:11:35.689Z</time></trkpt><trkpt lat="42.5753671" lon="14.0762391"><ele>71.66666666666666</ele><time>2026-04-19T09:11:36.689Z</time></trkpt><trkpt lat="42.5755283" lon="14.0762006"><ele>79.33333333333333</ele><time>2026-04-19T09:11:37.689Z</time></trkpt><trkpt lat="42.5756857" lon="14.0761606"><ele>87.0</ele><time>2026-04-19T09:11:38.69Z</time></trkpt><trkpt lat="42.5758354" lon="14.0761224"><ele>87.0</ele><time>2026-04-19T09:11:39.689Z</time></trkpt><trkpt lat="42.5759811" lon="14.076091"><ele>87.0</ele><time>2026-04-19T09:11:40.69Z</time></trkpt><trkpt lat="42.5761221" lon="14.0760545"><ele>87.0</ele><time>2026-04-19T09:11:41.689Z</time></trkpt><trkpt lat="42.5762636" lon="14.0760153"><ele>87.0</ele><time>2026-04-19T09:11:42.689Z</time></trkpt><trkpt lat="42.5764085" lon="14.0759801"><ele>95.33333333333334</ele><time>2026-04-19T09:11:43.689Z</time></trkpt><trkpt lat="42.5765607" lon="14.075941"><ele>103.66666666666667</ele><time>2026-04-19T09:11:44.69Z</time></trkpt><trkpt lat="42.5767163" lon="14.0759034"><ele>112.0</ele><time>2026-04-19T09:11:45.69Z</time></trkpt><trkpt lat="42.5768824" lon="14.0758675"><ele>111.33333333333334</ele><time>2026-04-19T09:11:46.689Z</time></trkpt><trkpt lat="42.5770584" lon="14.0758325"><ele>110.66666666666666</ele><time>2026-04-19T09:11:47.689Z</time></trkpt><trkpt lat="42.5772415" lon="14.0757938"><ele>110.0</ele><time>2026-04-19T09:11:48.689Z</time></trkpt><trkpt lat="42.5774291" lon="14.0757663"><ele>110.0</ele><time>2026-04-19T09:11:49.689Z</time></trkpt><trkpt lat="42.5776248" lon="14.0757383"><ele>110.0</ele><time>2026-04-19T09:11:50.69Z</time></trkpt><trkpt lat="42.577826" lon="14.0756976"><ele>110.0</ele><time>2026-04-19T09:11:51.689Z</time></trkpt><trkpt lat="42.5780359" lon="14.0756499"><ele>114.66666666666666</ele><time>2026-04-19T09:11:52.69Z</time></trkpt><trkpt lat="42.5782503" lon="14.0755951"><ele>119.33333333333334</ele><time>2026-04-19T09:11:53.689Z</time></trkpt><trkpt lat="42.5784745" lon="14.0755359"><ele>124.0</ele><time>2026-04-19T09:11:54.689Z</time></trkpt><trkpt lat="42.5787104" lon="14.075479"><ele>82.0</ele><time>2026-04-19T09:11:55.69Z</time></trkpt><trkpt lat="42.5897669" lon="14.0697593"><ele>82.0</ele><time>2026-04-19T09:12:35.698Z</time></trkpt><trkpt lat="42.5900423" lon="14.0695887"><ele>82.0</ele><time>2026-04-19T09:12:36.697Z</time></trkpt><trkpt lat="42.5903052" lon="14.0694184"><ele>75.5</ele><time>2026-04-19T09:12:37.698Z</time></trkpt><trkpt lat="42.5905632" lon="14.0692341"><ele>69.0</ele><time>2026-04-19T09:12:38.698Z</time></trkpt><trkpt lat="42.5908112" lon="14.0690614"><ele>62.5</ele><time>2026-04-19T09:12:39.697Z</time></trkpt><trkpt lat="42.5910677" lon="14.0688962"><ele>56.0</ele><time>2026-04-19T09:12:40.698Z</time></trkpt><trkpt lat="42.5913257" lon="14.0687319"><ele>55.0</ele><time>2026-04-19T09:12:41.698Z</time></trkpt><trkpt lat="42.5915866" lon="14.0685601"><ele>54.0</ele><time>2026-04-19T09:12:42.698Z</time></trkpt><trkpt lat="42.5918541" lon="14.0683898"><ele>44.5</ele><time>2026-04-19T09:12:43.698Z</time></trkpt><trkpt lat="42.5921158" lon="14.0682253"><ele>35.0</ele><time>2026-04-19T09:12:44.697Z</time></trkpt><trkpt lat="42.5923789" lon="14.0680514"><ele>35.0</ele><time>2026-04-19T09:12:45.698Z</time></trkpt><trkpt lat="42.5926431" lon="14.0678812"><ele>35.0</ele><time>2026-04-19T09:12:46.698Z</time></trkpt><trkpt lat="42.5929067" lon="14.0677099"><ele>30.5</ele><time>2026-04-19T09:12:47.697Z</time></trkpt><trkpt lat="42.5931702" lon="14.067539"><ele>26.0</ele><time>2026-04-19T09:12:48.697Z</time></trkpt><trkpt lat="42.5934359" lon="14.0673732"><ele>27.0</ele><time>2026-04-19T09:12:49.698Z</time></trkpt><trkpt lat="42.5936993" lon="14.0672001"><ele>28.0</ele><time>2026-04-19T09:12:50.697Z</time></trkpt><trkpt lat="42.5939654" lon="14.0670335"><ele>28.0</ele><time>2026-04-19T09:12:51.698Z</time></trkpt><trkpt lat="42.5942224" lon="14.0668659"><ele>28.0</ele><time>2026-04-19T09:12:52.697Z</time></trkpt><trkpt lat="42.5944753" lon="14.0666984"><ele>33.5</ele><time>2026-04-19T09:12:53.697Z</time></trkpt><trkpt lat="42.5947203" lon="14.0665356"><ele>39.0</ele><time>2026-04-19T09:12:54.697Z</time></trkpt><trkpt lat="42.5949644" lon="14.0663765"><ele>39.0</ele><time>2026-04-19T09:12:55.698Z</time></trkpt><trkpt lat="42.5952148" lon="14.0662133"><ele>39.0</ele><time>2026-04-19T09:12:56.698Z</time></trkpt><trkpt lat="42.5954624" lon="14.0660528"><ele>45.5</ele><time>2026-04-19T09:12:57.698Z</time></trkpt><trkpt lat="42.5957155" lon="14.0658947"><ele>52.0</ele><time>2026-04-19T09:12:58.697Z</time></trkpt><trkpt lat="42.5959605" lon="14.0657328"><ele>61.5</ele><time>2026-04-19T09:12:59.698Z</time></trkpt><trkpt lat="42.59621" lon="14.0655731"><ele>71.0</ele><time>2026-04-19T09:13:00.697Z</time></trkpt><trkpt lat="42.5964642" lon="14.0654153"><ele>71.0</ele><time>2026-04-19T09:13:01.697Z</time></trkpt><trkpt lat="42.596714" lon="14.0652549"><ele>71.0</ele><time>2026-04-19T09:13:02.697Z</time></trkpt><trkpt lat="42.5969716" lon="14.0651024"><ele>79.0</ele><time>2026-04-19T09:13:03.697Z</time></trkpt><trkpt lat="42.5972235" lon="14.0649395"><ele>87.0</ele><time>2026-04-19T09:13:04.697Z</time></trkpt><trkpt lat="42.5974755" lon="14.0647753"><ele>87.0</ele><time>2026-04-19T09:13:05.697Z</time></trkpt><trkpt lat="42.5977248" lon="14.0646179"><ele>87.0</ele><time>2026-04-19T09:13:06.698Z</time></trkpt><trkpt lat="42.6022302" lon="14.0610245"><ele>78.0</ele><time>2026-04-19T09:13:23.698Z</time></trkpt><trkpt lat="42.6024433" lon="14.0607338"><ele>69.0</ele><time>2026-04-19T09:13:24.697Z</time></trkpt><trkpt lat="42.6026614" lon="14.0603959"><ele>65.5</ele><time>2026-04-19T09:13:25.697Z</time></trkpt><trkpt lat="42.6028627" lon="14.0600632"><ele>62.0</ele><time>2026-04-19T09:13:26.698Z</time></trkpt><trkpt lat="42.6030601" lon="14.0597185"><ele>62.0</ele><time>2026-04-19T09:13:27.697Z</time></trkpt><trkpt lat="42.6032415" lon="14.0593664"><ele>62.0</ele><time>2026-04-19T09:13:28.697Z</time></trkpt><trkpt lat="42.603417" lon="14.0590125"><ele>64.0</ele><time>2026-04-19T09:13:29.697Z</time></trkpt><trkpt lat="42.6035762" lon="14.058651"><ele>66.0</ele><time>2026-04-19T09:13:30.697Z</time></trkpt><trkpt lat="42.6037382" lon="14.0582917"><ele>59.0</ele><time>2026-04-19T09:13:31.698Z</time></trkpt><trkpt lat="42.603894" lon="14.0579216"><ele>52.0</ele><time>2026-04-19T09:13:32.697Z</time></trkpt><trkpt lat="42.6040349" lon="14.0575339"><ele>53.5</ele><time>2026-04-19T09:13:33.697Z</time></trkpt><trkpt lat="42.6041641" lon="14.0571359"><ele>55.0</ele><time>2026-04-19T09:13:34.697Z</time></trkpt><trkpt lat="42.6042844" lon="14.0567401"><ele>54.0</ele><time>2026-04-19T09:13:35.698Z</time></trkpt><trkpt lat="42.6044025" lon="14.0563428"><ele>53.0</ele><time>2026-04-19T09:13:36.697Z</time></trkpt><trkpt lat="42.6045138" lon="14.0559377"><ele>55.5</ele><time>2026-04-19T09:13:37.697Z</time></trkpt><trkpt lat="42.60462" lon="14.055531"><ele>58.0</ele><time>2026-04-19T09:13:38.697Z</time></trkpt><trkpt lat="42.6047259" lon="14.0551248"><ele>56.0</ele><time>2026-04-19T09:13:39.698Z</time></trkpt><trkpt lat="42.6048328" lon="14.0547181"><ele>54.0</ele><time>2026-04-19T09:13:40.697Z</time></trkpt><trkpt lat="42.6049404" lon="14.0543109"><ele>52.5</ele><time>2026-04-19T09:13:41.698Z</time></trkpt><trkpt lat="42.6050468" lon="14.0539027"><ele>51.0</ele><time>2026-04-19T09:13:42.698Z</time></trkpt><trkpt lat="42.6051422" lon="14.0534994"><ele>53.0</ele><time>2026-04-19T09:13:43.698Z</time></trkpt><trkpt lat="42.6052419" lon="14.0530937"><ele>55.0</ele><time>2026-04-19T09:13:44.697Z</time></trkpt><trkpt lat="42.6053455" lon="14.0526904"><ele>47.5</ele><time>2026-04-19T09:13:45.698Z</time></trkpt><trkpt lat="42.6054517" lon="14.0522939"><ele>40.0</ele><time>2026-04-19T09:13:46.698Z</time></trkpt><trkpt lat="42.6055522" lon="14.0518857"><ele>40.0</ele><time>2026-04-19T09:13:47.698Z</time></trkpt><trkpt lat="42.6056536" lon="14.051482"><ele>40.0</ele><time>2026-04-19T09:13:48.697Z</time></trkpt><trkpt lat="42.6057538" lon="14.0510854"><ele>40.0</ele><time>2026-04-19T09:13:49.697Z</time></trkpt><trkpt lat="42.6058539" lon="14.050684"><ele>40.0</ele><time>2026-04-19T09:13:50.697Z</time></trkpt><trkpt lat="42.6059523" lon="14.0502794"><ele>41.5</ele><time>2026-04-19T09:13:51.698Z</time></trkpt><trkpt lat="42.6060544" lon="14.0498758"><ele>43.0</ele><time>2026-04-19T09:13:52.697Z</time></trkpt><trkpt lat="42.6061587" lon="14.0494737"><ele>40.5</ele><time>2026-04-19T09:13:53.698Z</time></trkpt><trkpt lat="42.6062595" lon="14.0490702"><ele>38.0</ele><time>2026-04-19T09:13:54.697Z</time></trkpt><trkpt lat="42.6063612" lon="14.0486665"><ele>38.0</ele><time>2026-04-19T09:13:55.697Z</time></trkpt><trkpt lat="42.6064634" lon="14.0482647"><ele>38.0</ele><time>2026-04-19T09:13:56.697Z</time></trkpt><trkpt lat="42.6065663" lon="14.0478659"><ele>38.0</ele><time>2026-04-19T09:13:57.697Z</time></trkpt><trkpt lat="42.6066675" lon="14.0474691"><ele>38.0</ele><time>2026-04-19T09:13:58.698Z</time></trkpt><trkpt lat="42.6067695" lon="14.047074"><ele>39.0</ele><time>2026-04-19T09:13:59.698Z</time></trkpt><trkpt lat="42.6068719" lon="14.0466749"><ele>40.0</ele><time>2026-04-19T09:14:00.698Z</time></trkpt><trkpt lat="42.6069738" lon="14.0462797"><ele>35.0</ele><time>2026-04-19T09:14:01.698Z</time></trkpt><trkpt lat="42.6070766" lon="14.0458778"><ele>30.0</ele><time>2026-04-19T09:14:02.697Z</time></trkpt><trkpt lat="42.6071794" lon="14.0454761"><ele>30.0</ele><time>2026-04-19T09:14:03.698Z</time></trkpt><trkpt lat="42.6072821" lon="14.0450807"><ele>30.0</ele><time>2026-04-19T09:14:04.697Z</time></trkpt><trkpt lat="42.6073792" lon="14.0446833"><ele>30.0</ele><time>2026-04-19T09:14:05.698Z</time></trkpt><trkpt lat="42.6074824" lon="14.0442881"><ele>30.0</ele><time>2026-04-19T09:14:06.697Z</time></trkpt><trkpt lat="42.6075868" lon="14.0438895"><ele>30.0</ele><time>2026-04-19T09:14:07.698Z</time></trkpt><trkpt lat="42.607695" lon="14.043492"><ele>30.0</ele><time>2026-04-19T09:14:08.698Z</time></trkpt><trkpt lat="42.6078084" lon="14.043096"><ele>28.0</ele><time>2026-04-19T09:14:09.697Z</time></trkpt><trkpt lat="42.607929" lon="14.0427045"><ele>26.0</ele><time>2026-04-19T09:14:10.697Z</time></trkpt><trkpt lat="42.6080667" lon="14.0423219"><ele>26.0</ele><time>2026-04-19T09:14:11.697Z</time></trkpt><trkpt lat="42.6082084" lon="14.0419438"><ele>26.0</ele><time>2026-04-19T09:14:12.697Z</time></trkpt><trkpt lat="42.6083597" lon="14.0415701"><ele>25.5</ele><time>2026-04-19T09:14:13.697Z</time></trkpt><trkpt lat="42.6085248" lon="14.0412051"><ele>25.0</ele><time>2026-04-19T09:14:14.697Z</time></trkpt><trkpt lat="42.6086961" lon="14.0408402"><ele>23.5</ele><time>2026-04-19T09:14:15.697Z</time></trkpt><trkpt lat="42.6088751" lon="14.0404882"><ele>22.0</ele><time>2026-04-19T09:14:16.698Z</time></trkpt><trkpt lat="42.6090641" lon="14.0401478"><ele>23.0</ele><time>2026-04-19T09:14:17.698Z</time></trkpt><trkpt lat="42.6092672" lon="14.0398148"><ele>24.0</ele><time>2026-04-19T09:14:18.697Z</time></trkpt><trkpt lat="42.6094719" lon="14.0394877"><ele>22.5</ele><time>2026-04-19T09:14:19.698Z</time></trkpt><trkpt lat="42.6096748" lon="14.0391645"><ele>21.0</ele><time>2026-04-19T09:14:20.697Z</time></trkpt><trkpt lat="42.6098809" lon="14.0388414"><ele>21.0</ele><time>2026-04-19T09:14:21.698Z</time></trkpt><trkpt lat="42.6100855" lon="14.0385196"><ele>21.0</ele><time>2026-04-19T09:14:22.697Z</time></trkpt><trkpt lat="42.6102856" lon="14.0381973"><ele>21.0</ele><time>2026-04-19T09:14:23.697Z</time></trkpt><trkpt lat="42.6104883" lon="14.0378818"><ele>21.0</ele><time>2026-04-19T09:14:24.697Z</time></trkpt><trkpt lat="42.6106906" lon="14.0375684"><ele>22.5</ele><time>2026-04-19T09:14:25.698Z</time></trkpt><trkpt lat="42.610891" lon="14.0372557"><ele>24.0</ele><time>2026-04-19T09:14:26.697Z</time></trkpt><trkpt lat="42.6110911" lon="14.0369467"><ele>24.0</ele><time>2026-04-19T09:14:27.698Z</time></trkpt><trkpt lat="42.6112851" lon="14.0366303"><ele>24.0</ele><time>2026-04-19T09:14:28.697Z</time></trkpt><trkpt lat="42.6114792" lon="14.0363122"><ele>24.0</ele><time>2026-04-19T09:14:29.697Z</time></trkpt><trkpt lat="42.6116785" lon="14.0359927"><ele>24.0</ele><time>2026-04-19T09:14:30.697Z</time></trkpt><trkpt lat="42.6118729" lon="14.0356637"><ele>25.0</ele><time>2026-04-19T09:14:31.697Z</time></trkpt><trkpt lat="42.6120672" lon="14.0353303"><ele>26.0</ele><time>2026-04-19T09:14:32.697Z</time></trkpt><trkpt lat="42.6122506" lon="14.034995"><ele>25.5</ele><time>2026-04-19T09:14:33.697Z</time></trkpt><trkpt lat="42.6124263" lon="14.0346498"><ele>25.0</ele><time>2026-04-19T09:14:34.697Z</time></trkpt><trkpt lat="42.612598" lon="14.0343071"><ele>24.5</ele><time>2026-04-19T09:14:35.698Z</time></trkpt><trkpt lat="42.6127632" lon="14.0339641"><ele>24.0</ele><time>2026-04-19T09:14:36.697Z</time></trkpt><trkpt lat="42.6129265" lon="14.0336147"><ele>26.5</ele><time>2026-04-19T09:14:37.698Z</time></trkpt><trkpt lat="42.6130904" lon="14.0332601"><ele>29.0</ele><time>2026-04-19T09:14:38.697Z</time></trkpt><trkpt lat="42.6132523" lon="14.0329021"><ele>29.0</ele><time>2026-04-19T09:14:39.697Z</time></trkpt><trkpt lat="42.6134024" lon="14.0325365"><ele>29.0</ele><time>2026-04-19T09:14:40.697Z</time></trkpt><trkpt lat="42.6135504" lon="14.0321713"><ele>34.0</ele><time>2026-04-19T09:14:41.697Z</time></trkpt><trkpt lat="42.6136894" lon="14.0318003"><ele>39.0</ele><time>2026-04-19T09:14:42.698Z</time></trkpt><trkpt lat="42.6138259" lon="14.0314219"><ele>39.0</ele><time>2026-04-19T09:14:43.698Z</time></trkpt><trkpt lat="42.6139598" lon="14.0310443"><ele>39.0</ele><time>2026-04-19T09:14:44.698Z</time></trkpt><trkpt lat="42.61409" lon="14.0306637"><ele>37.5</ele><time>2026-04-19T09:14:45.697Z</time></trkpt><trkpt lat="42.6142172" lon="14.0302791"><ele>36.0</ele><time>2026-04-19T09:14:46.698Z</time></trkpt><trkpt lat="42.6143349" lon="14.029889"><ele>35.0</ele><time>2026-04-19T09:14:47.698Z</time></trkpt><trkpt lat="42.6144472" lon="14.0294947"><ele>34.0</ele><time>2026-04-19T09:14:48.698Z</time></trkpt><trkpt lat="42.6145517" lon="14.0291005"><ele>40.0</ele><time>2026-04-19T09:14:49.697Z</time></trkpt><trkpt lat="42.6146576" lon="14.0287058"><ele>46.0</ele><time>2026-04-19T09:14:50.697Z</time></trkpt><trkpt lat="42.6147588" lon="14.0283145"><ele>44.5</ele><time>2026-04-19T09:14:51.697Z</time></trkpt><trkpt lat="42.6148504" lon="14.0279158"><ele>43.0</ele><time>2026-04-19T09:14:52.698Z</time></trkpt><trkpt lat="42.6149398" lon="14.0275206"><ele>40.0</ele><time>2026-04-19T09:14:53.697Z</time></trkpt><trkpt lat="42.615023" lon="14.0271246"><ele>37.0</ele><time>2026-04-19T09:14:54.697Z</time></trkpt><trkpt lat="42.6151062" lon="14.0267257"><ele>37.5</ele><time>2026-04-19T09:14:55.697Z</time></trkpt><trkpt lat="42.6151885" lon="14.0263329"><ele>38.0</ele><time>2026-04-19T09:14:56.697Z</time></trkpt><trkpt lat="42.61527" lon="14.0259309"><ele>44.5</ele><time>2026-04-19T09:14:57.697Z</time></trkpt><trkpt lat="42.6153525" lon="14.0255308"><ele>51.0</ele><time>2026-04-19T09:14:58.697Z</time></trkpt><trkpt lat="42.6154365" lon="14.0251288"><ele>50.0</ele><time>2026-04-19T09:14:59.697Z</time></trkpt><trkpt lat="42.6155248" lon="14.0247242"><ele>49.0</ele><time>2026-04-19T09:15:00.697Z</time></trkpt><trkpt lat="42.6156134" lon="14.0243271"><ele>45.5</ele><time>2026-04-19T09:15:01.698Z</time></trkpt><trkpt lat="42.6157053" lon="14.0239232"><ele>42.0</ele><time>2026-04-19T09:15:02.698Z</time></trkpt><trkpt lat="42.615794" lon="14.0235226"><ele>41.0</ele><time>2026-04-19T09:15:03.697Z</time></trkpt><trkpt lat="42.615882" lon="14.0231222"><ele>40.0</ele><time>2026-04-19T09:15:04.697Z</time></trkpt><trkpt lat="42.6159659" lon="14.0227214"><ele>39.5</ele><time>2026-04-19T09:15:05.697Z</time></trkpt><trkpt lat="42.6160536" lon="14.022321"><ele>39.0</ele><time>2026-04-19T09:15:06.696Z</time></trkpt><trkpt lat="42.6161374" lon="14.0219219"><ele>42.0</ele><time>2026-04-19T09:15:07.696Z</time></trkpt><trkpt lat="42.6162227" lon="14.0215229"><ele>45.0</ele><time>2026-04-19T09:15:08.697Z</time></trkpt><trkpt lat="42.6163042" lon="14.0211161"><ele>44.0</ele><time>2026-04-19T09:15:09.696Z</time></trkpt><trkpt lat="42.6163871" lon="14.0207124"><ele>43.0</ele><time>2026-04-19T09:15:10.696Z</time></trkpt><trkpt lat="42.6164675" lon="14.0203004"><ele>42.0</ele><time>2026-04-19T09:15:11.697Z</time></trkpt><trkpt lat="42.6165516" lon="14.0198882"><ele>41.0</ele><time>2026-04-19T09:15:12.697Z</time></trkpt><trkpt lat="42.6166391" lon="14.0194749"><ele>38.5</ele><time>2026-04-19T09:15:13.697Z</time></trkpt><trkpt lat="42.6167239" lon="14.019065"><ele>36.0</ele><time>2026-04-19T09:15:14.697Z</time></trkpt><trkpt lat="42.6168097" lon="14.0186529"><ele>35.5</ele><time>2026-04-19T09:15:15.697Z</time></trkpt><trkpt lat="42.6168968" lon="14.0182437"><ele>35.0</ele><time>2026-04-19T09:15:16.697Z</time></trkpt><trkpt lat="42.6169853" lon="14.0178334"><ele>37.0</ele><time>2026-04-19T09:15:17.697Z</time></trkpt><trkpt lat="42.6170681" lon="14.0174183"><ele>39.0</ele><time>2026-04-19T09:15:18.696Z</time></trkpt><trkpt lat="42.6171535" lon="14.0170046"><ele>40.0</ele><time>2026-04-19T09:15:19.696Z</time></trkpt><trkpt lat="42.6172414" lon="14.0166069"><ele>41.0</ele><time>2026-04-19T09:15:20.697Z</time></trkpt><trkpt lat="42.6173209" lon="14.0162079"><ele>42.5</ele><time>2026-04-19T09:15:21.696Z</time></trkpt><trkpt lat="42.6174028" lon="14.0158105"><ele>44.0</ele><time>2026-04-19T09:15:22.696Z</time></trkpt><trkpt lat="42.6174864" lon="14.0154116"><ele>44.0</ele><time>2026-04-19T09:15:23.697Z</time></trkpt><trkpt lat="42.6175695" lon="14.0150182"><ele>44.0</ele><time>2026-04-19T09:15:24.696Z</time></trkpt><trkpt lat="42.6176471" lon="14.0146268"><ele>46.0</ele><time>2026-04-19T09:15:25.697Z</time></trkpt><trkpt lat="42.6177302" lon="14.0142407"><ele>48.0</ele><time>2026-04-19T09:15:26.696Z</time></trkpt><trkpt lat="42.6178094" lon="14.0138529"><ele>47.0</ele><time>2026-04-19T09:15:27.697Z</time></trkpt><trkpt lat="42.6178878" lon="14.0134748"><ele>46.0</ele><time>2026-04-19T09:15:28.696Z</time></trkpt><trkpt lat="42.6179671" lon="14.0131054"><ele>46.0</ele><time>2026-04-19T09:15:29.697Z</time></trkpt><trkpt lat="42.6180436" lon="14.0127275"><ele>46.0</ele><time>2026-04-19T09:15:30.696Z</time></trkpt><trkpt lat="42.6181219" lon="14.0123411"><ele>47.0</ele><time>2026-04-19T09:15:31.696Z</time></trkpt><trkpt lat="42.6182009" lon="14.0119535"><ele>48.0</ele><time>2026-04-19T09:15:32.697Z</time></trkpt><trkpt lat="42.6182873" lon="14.0115559"><ele>51.5</ele><time>2026-04-19T09:15:33.697Z</time></trkpt><trkpt lat="42.6183852" lon="14.0111603"><ele>55.0</ele><time>2026-04-19T09:15:34.696Z</time></trkpt><trkpt lat="42.6184953" lon="14.0107667"><ele>55.0</ele><time>2026-04-19T09:15:35.696Z</time></trkpt><trkpt lat="42.6186106" lon="14.0103827"><ele>55.0</ele><time>2026-04-19T09:15:36.696Z</time></trkpt><trkpt lat="42.6187406" lon="14.0100049"><ele>48.5</ele><time>2026-04-19T09:15:37.696Z</time></trkpt><trkpt lat="42.6188783" lon="14.0096273"><ele>42.0</ele><time>2026-04-19T09:15:38.697Z</time></trkpt><trkpt lat="42.6190224" lon="14.0092544"><ele>42.5</ele><time>2026-04-19T09:15:39.696Z</time></trkpt><trkpt lat="42.61917" lon="14.0088899"><ele>43.0</ele><time>2026-04-19T09:15:40.696Z</time></trkpt><trkpt lat="42.6193289" lon="14.0085366"><ele>48.5</ele><time>2026-04-19T09:15:41.697Z</time></trkpt><trkpt lat="42.6194918" lon="14.0081921"><ele>54.0</ele><time>2026-04-19T09:15:42.696Z</time></trkpt><trkpt lat="42.6196679" lon="14.0078542"><ele>54.0</ele><time>2026-04-19T09:15:43.697Z</time></trkpt><trkpt lat="42.6198569" lon="14.0075146"><ele>54.0</ele><time>2026-04-19T09:15:44.696Z</time></trkpt><trkpt lat="42.6200518" lon="14.0071919"><ele>60.5</ele><time>2026-04-19T09:15:45.696Z</time></trkpt><trkpt lat="42.6202543" lon="14.0068836"><ele>67.0</ele><time>2026-04-19T09:15:46.696Z</time></trkpt><trkpt lat="42.6263802" lon="13.9993258"><ele>45.5</ele><time>2026-04-19T09:16:12.696Z</time></trkpt><trkpt lat="42.6265903" lon="13.9990304"><ele>24.0</ele><time>2026-04-19T09:16:13.697Z</time></trkpt><trkpt lat="42.6268114" lon="13.9987305"><ele>23.0</ele><time>2026-04-19T09:16:14.696Z</time></trkpt><trkpt lat="42.6270336" lon="13.998441"><ele>22.0</ele><time>2026-04-19T09:16:15.697Z</time></trkpt><trkpt lat="42.6272581" lon="13.9981406"><ele>22.0</ele><time>2026-04-19T09:16:16.696Z</time></trkpt><trkpt lat="42.6274823" lon="13.9978372"><ele>22.0</ele><time>2026-04-19T09:16:17.696Z</time></trkpt><trkpt lat="42.6277015" lon="13.997549"><ele>21.0</ele><time>2026-04-19T09:16:18.696Z</time></trkpt><trkpt lat="42.6279238" lon="13.9972548"><ele>20.0</ele><time>2026-04-19T09:16:19.696Z</time></trkpt><trkpt lat="42.6281405" lon="13.9969616"><ele>20.0</ele><time>2026-04-19T09:16:20.697Z</time></trkpt><trkpt lat="42.6283667" lon="13.9966743"><ele>20.0</ele><time>2026-04-19T09:16:21.696Z</time></trkpt><trkpt lat="42.6285917" lon="13.9963952"><ele>19.0</ele><time>2026-04-19T09:16:22.697Z</time></trkpt><trkpt lat="42.6288147" lon="13.9961203"><ele>18.0</ele><time>2026-04-19T09:16:23.696Z</time></trkpt><trkpt lat="42.6290413" lon="13.9958443"><ele>19.0</ele><time>2026-04-19T09:16:24.696Z</time></trkpt><trkpt lat="42.6292689" lon="13.9955696"><ele>20.0</ele><time>2026-04-19T09:16:25.696Z</time></trkpt><trkpt lat="42.6294914" lon="13.9952946"><ele>20.0</ele><time>2026-04-19T09:16:26.696Z</time></trkpt><trkpt lat="42.6297137" lon="13.9950191"><ele>20.0</ele><time>2026-04-19T09:16:27.696Z</time></trkpt><trkpt lat="42.6299307" lon="13.9947466"><ele>20.0</ele><time>2026-04-19T09:16:28.697Z</time></trkpt><trkpt lat="42.630151" lon="13.9944738"><ele>20.0</ele><time>2026-04-19T09:16:29.696Z</time></trkpt><trkpt lat="42.6303706" lon="13.9941998"><ele>20.0</ele><time>2026-04-19T09:16:30.696Z</time></trkpt><trkpt lat="42.630587" lon="13.9939252"><ele>20.0</ele><time>2026-04-19T09:16:31.696Z</time></trkpt><trkpt lat="42.6308031" lon="13.9936532"><ele>20.0</ele><time>2026-04-19T09:16:32.696Z</time></trkpt><trkpt lat="42.6310204" lon="13.9933786"><ele>20.0</ele><time>2026-04-19T09:16:33.697Z</time></trkpt><trkpt lat="42.6312357" lon="13.9931107"><ele>20.5</ele><time>2026-04-19T09:16:34.697Z</time></trkpt><trkpt lat="42.6314542" lon="13.9928414"><ele>21.0</ele><time>2026-04-19T09:16:35.696Z</time></trkpt><trkpt lat="42.6316731" lon="13.9925713"><ele>21.5</ele><time>2026-04-19T09:16:36.696Z</time></trkpt><trkpt lat="42.6318938" lon="13.9923034"><ele>22.0</ele><time>2026-04-19T09:16:37.696Z</time></trkpt><trkpt lat="42.6321095" lon="13.9920338"><ele>22.0</ele><time>2026-04-19T09:16:38.697Z</time></trkpt><trkpt lat="42.6323228" lon="13.9917717"><ele>22.0</ele><time>2026-04-19T09:16:39.696Z</time></trkpt><trkpt lat="42.6325379" lon="13.9915069"><ele>22.5</ele><time>2026-04-19T09:16:40.696Z</time></trkpt><trkpt lat="42.6327554" lon="13.9912469"><ele>23.0</ele><time>2026-04-19T09:16:41.696Z</time></trkpt><trkpt lat="42.632972" lon="13.9909866"><ele>22.0</ele><time>2026-04-19T09:16:42.696Z</time></trkpt><trkpt lat="42.6331907" lon="13.990722"><ele>21.0</ele><time>2026-04-19T09:16:43.696Z</time></trkpt><trkpt lat="42.6334084" lon="13.9904534"><ele>21.0</ele><time>2026-04-19T09:16:44.696Z</time></trkpt><trkpt lat="42.6336293" lon="13.990181"><ele>21.0</ele><time>2026-04-19T09:16:45.697Z</time></trkpt><trkpt lat="42.6338513" lon="13.9899032"><ele>21.5</ele><time>2026-04-19T09:16:46.696Z</time></trkpt><trkpt lat="42.6340763" lon="13.989624"><ele>22.0</ele><time>2026-04-19T09:16:47.696Z</time></trkpt><trkpt lat="42.6342997" lon="13.9893392"><ele>21.0</ele><time>2026-04-19T09:16:48.696Z</time></trkpt><trkpt lat="42.6345237" lon="13.9890599"><ele>20.0</ele><time>2026-04-19T09:16:49.696Z</time></trkpt><trkpt lat="42.6347465" lon="13.9887852"><ele>20.0</ele><time>2026-04-19T09:16:50.697Z</time></trkpt><trkpt lat="42.6349667" lon="13.9885062"><ele>20.0</ele><time>2026-04-19T09:16:51.697Z</time></trkpt><trkpt lat="42.6351854" lon="13.9882316"><ele>19.0</ele><time>2026-04-19T09:16:52.697Z</time></trkpt><trkpt lat="42.6354046" lon="13.9879597"><ele>18.0</ele><time>2026-04-19T09:16:53.696Z</time></trkpt><trkpt lat="42.6356211" lon="13.9876878"><ele>18.5</ele><time>2026-04-19T09:16:54.697Z</time></trkpt><trkpt lat="42.6358361" lon="13.9874111"><ele>19.0</ele><time>2026-04-19T09:16:55.696Z</time></trkpt><trkpt lat="42.6360562" lon="13.9871433"><ele>18.0</ele><time>2026-04-19T09:16:56.697Z</time></trkpt><trkpt lat="42.6362743" lon="13.9868748"><ele>17.0</ele><time>2026-04-19T09:16:57.696Z</time></trkpt><trkpt lat="42.6364883" lon="13.9866108"><ele>17.0</ele><time>2026-04-19T09:16:58.696Z</time></trkpt><trkpt lat="42.6367034" lon="13.9863475"><ele>17.0</ele><time>2026-04-19T09:16:59.696Z</time></trkpt><trkpt lat="42.6369143" lon="13.9860877"><ele>18.5</ele><time>2026-04-19T09:17:00.697Z</time></trkpt><trkpt lat="42.6371267" lon="13.9858292"><ele>20.0</ele><time>2026-04-19T09:17:01.697Z</time></trkpt><trkpt lat="42.6373374" lon="13.9855665"><ele>20.0</ele><time>2026-04-19T09:17:02.696Z</time></trkpt><trkpt lat="42.6375435" lon="13.9853096"><ele>20.0</ele><time>2026-04-19T09:17:03.697Z</time></trkpt><trkpt lat="42.6377556" lon="13.9850508"><ele>18.5</ele><time>2026-04-19T09:17:04.696Z</time></trkpt><trkpt lat="42.6379656" lon="13.9847938"><ele>17.0</ele><time>2026-04-19T09:17:05.696Z</time></trkpt><trkpt lat="42.6381726" lon="13.9845334"><ele>17.0</ele><time>2026-04-19T09:17:06.697Z</time></trkpt><trkpt lat="42.6383795" lon="13.9842769"><ele>17.0</ele><time>2026-04-19T09:17:07.697Z</time></trkpt><trkpt lat="42.6385905" lon="13.9840193"><ele>17.5</ele><time>2026-04-19T09:17:08.696Z</time></trkpt><trkpt lat="42.6387945" lon="13.9837734"><ele>18.0</ele><time>2026-04-19T09:17:09.696Z</time></trkpt><trkpt lat="42.6390009" lon="13.9835217"><ele>18.5</ele><time>2026-04-19T09:17:10.696Z</time></trkpt><trkpt lat="42.6392035" lon="13.9832721"><ele>19.0</ele><time>2026-04-19T09:17:11.697Z</time></trkpt><trkpt lat="42.6394069" lon="13.9830195"><ele>19.0</ele><time>2026-04-19T09:17:12.696Z</time></trkpt><trkpt lat="42.6396116" lon="13.9827578"><ele>19.0</ele><time>2026-04-19T09:17:13.696Z</time></trkpt><trkpt lat="42.639822" lon="13.9824961"><ele>19.5</ele><time>2026-04-19T09:17:14.696Z</time></trkpt><trkpt lat="42.6400283" lon="13.982239"><ele>20.0</ele><time>2026-04-19T09:17:15.696Z</time></trkpt><trkpt lat="42.6402348" lon="13.9819825"><ele>20.0</ele><time>2026-04-19T09:17:16.696Z</time></trkpt><trkpt lat="42.6404445" lon="13.9817207"><ele>20.0</ele><time>2026-04-19T09:17:17.696Z</time></trkpt><trkpt lat="42.6406551" lon="13.9814608"><ele>20.5</ele><time>2026-04-19T09:17:18.697Z</time></trkpt><trkpt lat="42.6408642" lon="13.9812016"><ele>21.0</ele><time>2026-04-19T09:17:19.696Z</time></trkpt><trkpt lat="42.6410733" lon="13.9809403"><ele>21.5</ele><time>2026-04-19T09:17:20.697Z</time></trkpt><trkpt lat="42.6412779" lon="13.9806798"><ele>22.0</ele><time>2026-04-19T09:17:21.697Z</time></trkpt><trkpt lat="42.6414919" lon="13.9804211"><ele>22.0</ele><time>2026-04-19T09:17:22.696Z</time></trkpt><trkpt lat="42.641701" lon="13.9801663"><ele>22.0</ele><time>2026-04-19T09:17:23.697Z</time></trkpt><trkpt lat="42.641912" lon="13.9799114"><ele>23.0</ele><time>2026-04-19T09:17:24.697Z</time></trkpt><trkpt lat="42.6421186" lon="13.979656"><ele>24.0</ele><time>2026-04-19T09:17:25.696Z</time></trkpt><trkpt lat="42.6423247" lon="13.9794057"><ele>24.5</ele><time>2026-04-19T09:17:26.696Z</time></trkpt><trkpt lat="42.6425181" lon="13.9791606"><ele>25.0</ele><time>2026-04-19T09:17:27.696Z</time></trkpt><trkpt lat="42.6427075" lon="13.9789202"><ele>25.5</ele><time>2026-04-19T09:17:28.697Z</time></trkpt><trkpt lat="42.6428968" lon="13.9786862"><ele>26.0</ele><time>2026-04-19T09:17:29.696Z</time></trkpt><trkpt lat="42.6430822" lon="13.9784563"><ele>27.5</ele><time>2026-04-19T09:17:30.696Z</time></trkpt><trkpt lat="42.6432673" lon="13.978222"><ele>29.0</ele><time>2026-04-19T09:17:31.697Z</time></trkpt><trkpt lat="42.6434541" lon="13.9779819"><ele>29.0</ele><time>2026-04-19T09:17:32.696Z</time></trkpt><trkpt lat="42.64364" lon="13.9777625"><ele>29.0</ele><time>2026-04-19T09:17:33.696Z</time></trkpt><trkpt lat="42.6438156" lon="13.9775386"><ele>29.5</ele><time>2026-04-19T09:17:34.697Z</time></trkpt><trkpt lat="42.64399" lon="13.9773211"><ele>30.0</ele><time>2026-04-19T09:17:35.696Z</time></trkpt><trkpt lat="42.6441646" lon="13.977101"><ele>30.0</ele><time>2026-04-19T09:17:36.697Z</time></trkpt><trkpt lat="42.6443356" lon="13.976881"><ele>30.0</ele><time>2026-04-19T09:17:37.696Z</time></trkpt><trkpt lat="42.6445118" lon="13.976662"><ele>33.0</ele><time>2026-04-19T09:17:38.696Z</time></trkpt><trkpt lat="42.6446894" lon="13.9764447"><ele>36.0</ele><time>2026-04-19T09:17:39.696Z</time></trkpt><trkpt lat="42.6448718" lon="13.9762345"><ele>36.0</ele><time>2026-04-19T09:17:40.697Z</time></trkpt><trkpt lat="42.6450543" lon="13.9760187"><ele>36.0</ele><time>2026-04-19T09:17:41.697Z</time></trkpt><trkpt lat="42.6452249" lon="13.9758172"><ele>36.333333333333336</ele><time>2026-04-19T09:17:42.697Z</time></trkpt><trkpt lat="42.6453854" lon="13.9756341"><ele>36.66666666666667</ele><time>2026-04-19T09:17:43.697Z</time></trkpt><trkpt lat="42.6455395" lon="13.9754562"><ele>37.0</ele><time>2026-04-19T09:17:44.697Z</time></trkpt><trkpt lat="42.6456884" lon="13.9752769"><ele>37.0</ele><time>2026-04-19T09:17:45.697Z</time></trkpt><trkpt lat="42.6458314" lon="13.9751105"><ele>37.0</ele><time>2026-04-19T09:17:46.696Z</time></trkpt><trkpt lat="42.6459705" lon="13.9749575"><ele>37.0</ele><time>2026-04-19T09:17:47.696Z</time></trkpt><trkpt lat="42.6461111" lon="13.9748109"><ele>38.333333333333336</ele><time>2026-04-19T09:17:48.696Z</time></trkpt><trkpt lat="42.6462549" lon="13.9746805"><ele>39.666666666666664</ele><time>2026-04-19T09:17:49.697Z</time></trkpt><trkpt lat="42.6464131" lon="13.9745548"><ele>41.0</ele><time>2026-04-19T09:17:50.696Z</time></trkpt><trkpt lat="42.6465726" lon="13.9744518"><ele>41.0</ele><time>2026-04-19T09:17:51.697Z</time></trkpt><trkpt lat="42.6467405" lon="13.9743692"><ele>41.0</ele><time>2026-04-19T09:17:52.696Z</time></trkpt><trkpt lat="42.646908" lon="13.9742996"><ele>41.0</ele><time>2026-04-19T09:17:53.696Z</time></trkpt><trkpt lat="42.6470745" lon="13.9742532"><ele>41.33333333333333</ele><time>2026-04-19T09:17:54.696Z</time></trkpt><trkpt lat="42.6472337" lon="13.9742351"><ele>41.666666666666664</ele><time>2026-04-19T09:17:55.696Z</time></trkpt><trkpt lat="42.6473846" lon="13.9742384"><ele>42.0</ele><time>2026-04-19T09:17:56.696Z</time></trkpt><trkpt lat="42.647529" lon="13.9742415"><ele>42.0</ele><time>2026-04-19T09:17:57.696Z</time></trkpt><trkpt lat="42.6476747" lon="13.9742559"><ele>42.0</ele><time>2026-04-19T09:17:58.696Z</time></trkpt><trkpt lat="42.647817" lon="13.9742908"><ele>42.0</ele><time>2026-04-19T09:17:59.697Z</time></trkpt><trkpt lat="42.6479552" lon="13.9743312"><ele>42.0</ele><time>2026-04-19T09:18:00.697Z</time></trkpt><trkpt lat="42.6480854" lon="13.9743759"><ele>42.25</ele><time>2026-04-19T09:18:01.696Z</time></trkpt><trkpt lat="42.6482077" lon="13.9744214"><ele>42.5</ele><time>2026-04-19T09:18:02.696Z</time></trkpt><trkpt lat="42.6483214" lon="13.9744672"><ele>42.75</ele><time>2026-04-19T09:18:03.697Z</time></trkpt><trkpt lat="42.648425" lon="13.9745125"><ele>43.0</ele><time>2026-04-19T09:18:04.696Z</time></trkpt><trkpt lat="42.6485174" lon="13.974553"><ele>43.0</ele><time>2026-04-19T09:18:05.696Z</time></trkpt><trkpt lat="42.6485972" lon="13.9745971"><ele>43.0</ele><time>2026-04-19T09:18:06.696Z</time></trkpt><trkpt lat="42.6486635" lon="13.9746313"><ele>43.0</ele><time>2026-04-19T09:18:07.696Z</time></trkpt><trkpt lat="42.6487586" lon="13.9746613"><ele>43.0</ele><time>2026-04-19T09:18:09.696Z</time></trkpt><trkpt lat="42.6488274" lon="13.9746704"><ele>43.0</ele><time>2026-04-19T09:18:12.697Z</time></trkpt><trkpt lat="42.6488938" lon="13.9747009"><ele>43.0</ele><time>2026-04-19T09:20:45.703Z</time></trkpt><trkpt lat="42.6489886" lon="13.9747214"><ele>43.16666666666667</ele><time>2026-04-19T09:21:14.704Z</time></trkpt><trkpt lat="42.6490705" lon="13.9747475"><ele>43.333333333333336</ele><time>2026-04-19T09:21:17.703Z</time></trkpt><trkpt lat="42.6491754" lon="13.9747753"><ele>43.5</ele><time>2026-04-19T09:21:19.703Z</time></trkpt><trkpt lat="42.6492385" lon="13.9747862"><ele>43.666666666666664</ele><time>2026-04-19T09:21:20.703Z</time></trkpt><trkpt lat="42.6493106" lon="13.9747958"><ele>43.83333333333333</ele><time>2026-04-19T09:21:21.704Z</time></trkpt><trkpt lat="42.6493841" lon="13.9747981"><ele>44.0</ele><time>2026-04-19T09:21:22.704Z</time></trkpt><trkpt lat="42.6494678" lon="13.9748058"><ele>44.166666666666664</ele><time>2026-04-19T09:21:23.704Z</time></trkpt><trkpt lat="42.6495504" lon="13.9748131"><ele>44.33333333333333</ele><time>2026-04-19T09:21:24.703Z</time></trkpt><trkpt lat="42.6496414" lon="13.9748312"><ele>44.5</ele><time>2026-04-19T09:21:25.703Z</time></trkpt><trkpt lat="42.6497196" lon="13.9748514"><ele>44.666666666666664</ele><time>2026-04-19T09:21:26.703Z</time></trkpt><trkpt lat="42.6497931" lon="13.9748805"><ele>44.833333333333336</ele><time>2026-04-19T09:21:27.703Z</time></trkpt><trkpt lat="42.6498672" lon="13.9749105"><ele>45.0</ele><time>2026-04-19T09:21:28.703Z</time></trkpt><trkpt lat="42.6499373" lon="13.974955"><ele>45.0</ele><time>2026-04-19T09:21:29.704Z</time></trkpt><trkpt lat="42.6500074" lon="13.9750069"><ele>45.0</ele><time>2026-04-19T09:21:30.703Z</time></trkpt><trkpt lat="42.6500709" lon="13.9750633"><ele>45.0</ele><time>2026-04-19T09:21:31.703Z</time></trkpt><trkpt lat="42.6501239" lon="13.9751221"><ele>45.0</ele><time>2026-04-19T09:21:32.703Z</time></trkpt><trkpt lat="42.6501803" lon="13.9751967"><ele>45.0</ele><time>2026-04-19T09:21:33.704Z</time></trkpt><trkpt lat="42.6502313" lon="13.9752697"><ele>45.0</ele><time>2026-04-19T09:21:34.702Z</time></trkpt><trkpt lat="42.6502779" lon="13.97535"><ele>45.0</ele><time>2026-04-19T09:21:35.703Z</time></trkpt><trkpt lat="42.650317" lon="13.9754496"><ele>45.0</ele><time>2026-04-19T09:21:36.703Z</time></trkpt><trkpt lat="42.6503587" lon="13.9755552"><ele>45.0</ele><time>2026-04-19T09:21:37.702Z</time></trkpt><trkpt lat="42.6504002" lon="13.9756679"><ele>45.0</ele><time>2026-04-19T09:21:38.702Z</time></trkpt><trkpt lat="42.6504472" lon="13.9757892"><ele>45.0</ele><time>2026-04-19T09:21:39.702Z</time></trkpt><trkpt lat="42.650496" lon="13.9759165"><ele>45.0</ele><time>2026-04-19T09:21:40.702Z</time></trkpt><trkpt lat="42.6505479" lon="13.9760482"><ele>45.0</ele><time>2026-04-19T09:21:41.703Z</time></trkpt><trkpt lat="42.6505958" lon="13.9761709"><ele>45.0</ele><time>2026-04-19T09:21:42.703Z</time></trkpt><trkpt lat="42.6506445" lon="13.976288"><ele>45.0</ele><time>2026-04-19T09:21:43.702Z</time></trkpt><trkpt lat="42.6506918" lon="13.9763988"><ele>45.0</ele><time>2026-04-19T09:21:44.702Z</time></trkpt><trkpt lat="42.6507452" lon="13.9765064"><ele>45.0</ele><time>2026-04-19T09:21:45.702Z</time></trkpt><trkpt lat="42.6507982" lon="13.9766055"><ele>45.0</ele><time>2026-04-19T09:21:46.702Z</time></trkpt><trkpt lat="42.6508568" lon="13.9767438"><ele>45.0</ele><time>2026-04-19T09:21:47.702Z</time></trkpt><trkpt lat="42.6508838" lon="13.9768331"><ele>45.0</ele><time>2026-04-19T09:21:48.702Z</time></trkpt><trkpt lat="42.6509186" lon="13.9769855"><ele>45.0</ele><time>2026-04-19T09:21:50.703Z</time></trkpt><trkpt lat="42.6509636" lon="13.9771029"><ele>45.2</ele><time>2026-04-19T09:21:52.703Z</time></trkpt><trkpt lat="42.6510451" lon="13.9771996"><ele>45.4</ele><time>2026-04-19T09:21:54.702Z</time></trkpt><trkpt lat="42.6511455" lon="13.9772174"><ele>45.599999999999994</ele><time>2026-04-19T09:21:56.702Z</time></trkpt><trkpt lat="42.6511807" lon="13.9770871"><ele>45.8</ele><time>2026-04-19T09:21:58.703Z</time></trkpt><trkpt lat="42.6511592" lon="13.9770008"><ele>46.0</ele><time>2026-04-19T09:21:59.703Z</time></trkpt><trkpt lat="42.6511038" lon="13.9769031"><ele>46.0</ele><time>2026-04-19T09:22:00.702Z</time></trkpt><trkpt lat="42.6510315" lon="13.9768098"><ele>46.0</ele><time>2026-04-19T09:22:01.703Z</time></trkpt><trkpt lat="42.6509436" lon="13.9767299"><ele>46.0</ele><time>2026-04-19T09:22:02.703Z</time></trkpt><trkpt lat="42.6508578" lon="13.9766293"><ele>46.0</ele><time>2026-04-19T09:22:03.703Z</time></trkpt><trkpt lat="42.6507808" lon="13.9765163"><ele>46.0</ele><time>2026-04-19T09:22:04.703Z</time></trkpt><trkpt lat="42.6507075" lon="13.9763946"><ele>46.0</ele><time>2026-04-19T09:22:05.702Z</time></trkpt><trkpt lat="42.6506405" lon="13.976248"><ele>46.0</ele><time>2026-04-19T09:22:06.702Z</time></trkpt><trkpt lat="42.6505717" lon="13.9760966"><ele>46.0</ele><time>2026-04-19T09:22:07.702Z</time></trkpt><trkpt lat="42.650503" lon="13.9758812"><ele>46.0</ele><time>2026-04-19T09:22:08.702Z</time></trkpt><trkpt lat="42.65043" lon="13.9756996"><ele>46.0</ele><time>2026-04-19T09:22:09.703Z</time></trkpt><trkpt lat="42.6503638" lon="13.9755231"><ele>46.0</ele><time>2026-04-19T09:22:10.702Z</time></trkpt><trkpt lat="42.6502955" lon="13.9753472"><ele>46.0</ele><time>2026-04-19T09:22:11.703Z</time></trkpt><trkpt lat="42.6502375" lon="13.9751591"><ele>46.0</ele><time>2026-04-19T09:22:12.702Z</time></trkpt><trkpt lat="42.6501827" lon="13.9749716"><ele>45.75</ele><time>2026-04-19T09:22:13.703Z</time></trkpt><trkpt lat="42.6501319" lon="13.9747953"><ele>45.5</ele><time>2026-04-19T09:22:14.702Z</time></trkpt><trkpt lat="42.6500756" lon="13.9746232"><ele>45.25</ele><time>2026-04-19T09:22:15.703Z</time></trkpt><trkpt lat="42.6500193" lon="13.9744452"><ele>45.0</ele><time>2026-04-19T09:22:16.703Z</time></trkpt><trkpt lat="42.6499658" lon="13.9742707"><ele>45.75</ele><time>2026-04-19T09:22:17.702Z</time></trkpt><trkpt lat="42.649909" lon="13.9741064"><ele>46.5</ele><time>2026-04-19T09:22:18.702Z</time></trkpt><trkpt lat="42.6498444" lon="13.9739441"><ele>47.25</ele><time>2026-04-19T09:22:19.703Z</time></trkpt><trkpt lat="42.6497836" lon="13.9737838"><ele>48.0</ele><time>2026-04-19T09:22:20.703Z</time></trkpt><trkpt lat="42.6497227" lon="13.9736258"><ele>48.0</ele><time>2026-04-19T09:22:21.702Z</time></trkpt><trkpt lat="42.6496716" lon="13.9734684"><ele>48.0</ele><time>2026-04-19T09:22:22.703Z</time></trkpt><trkpt lat="42.6496199" lon="13.9733204"><ele>48.0</ele><time>2026-04-19T09:22:23.702Z</time></trkpt><trkpt lat="42.649576" lon="13.9731715"><ele>48.0</ele><time>2026-04-19T09:22:24.703Z</time></trkpt><trkpt lat="42.6495325" lon="13.9730228"><ele>47.75</ele><time>2026-04-19T09:22:25.702Z</time></trkpt><trkpt lat="42.6494972" lon="13.9728741"><ele>47.5</ele><time>2026-04-19T09:22:26.702Z</time></trkpt><trkpt lat="42.6494612" lon="13.9727183"><ele>47.25</ele><time>2026-04-19T09:22:27.703Z</time></trkpt><trkpt lat="42.6494155" lon="13.9725489"><ele>47.0</ele><time>2026-04-19T09:22:28.703Z</time></trkpt><trkpt lat="42.6493673" lon="13.9723764"><ele>47.0</ele><time>2026-04-19T09:22:29.703Z</time></trkpt><trkpt lat="42.6493041" lon="13.9722197"><ele>47.0</ele><time>2026-04-19T09:22:30.702Z</time></trkpt><trkpt lat="42.6492506" lon="13.9720699"><ele>47.0</ele><time>2026-04-19T09:22:31.702Z</time></trkpt><trkpt lat="42.649203" lon="13.9719302"><ele>47.0</ele><time>2026-04-19T09:22:32.703Z</time></trkpt><trkpt lat="42.6491628" lon="13.9718038"><ele>47.0</ele><time>2026-04-19T09:22:33.702Z</time></trkpt><trkpt lat="42.6491215" lon="13.9716948"><ele>47.0</ele><time>2026-04-19T09:22:34.702Z</time></trkpt><trkpt lat="42.6490785" lon="13.9715925"><ele>47.0</ele><time>2026-04-19T09:22:35.702Z</time></trkpt><trkpt lat="42.6490445" lon="13.9714828"><ele>47.0</ele><time>2026-04-19T09:22:36.702Z</time></trkpt><trkpt lat="42.6490244" lon="13.9713863"><ele>47.0</ele><time>2026-04-19T09:22:37.703Z</time></trkpt><trkpt lat="42.6490021" lon="13.9712822"><ele>47.0</ele><time>2026-04-19T09:22:38.702Z</time></trkpt><trkpt lat="42.6489533" lon="13.971178"><ele>47.0</ele><time>2026-04-19T09:22:39.702Z</time></trkpt><trkpt lat="42.6489094" lon="13.9710782"><ele>47.0</ele><time>2026-04-19T09:22:40.702Z</time></trkpt><trkpt lat="42.6488695" lon="13.9709704"><ele>47.0</ele><time>2026-04-19T09:22:41.703Z</time></trkpt><trkpt lat="42.6488526" lon="13.9708608"><ele>47.0</ele><time>2026-04-19T09:22:42.702Z</time></trkpt><trkpt lat="42.6488454" lon="13.9707296"><ele>47.0</ele><time>2026-04-19T09:22:43.702Z</time></trkpt><trkpt lat="42.6488362" lon="13.970586"><ele>47.0</ele><time>2026-04-19T09:22:44.702Z</time></trkpt><trkpt lat="42.6488242" lon="13.9704106"><ele>47.0</ele><time>2026-04-19T09:22:45.703Z</time></trkpt><trkpt lat="42.6488071" lon="13.9702131"><ele>47.0</ele><time>2026-04-19T09:22:46.702Z</time></trkpt><trkpt lat="42.6487738" lon="13.9699785"><ele>46.0</ele><time>2026-04-19T09:22:47.702Z</time></trkpt><trkpt lat="42.6487395" lon="13.9697425"><ele>45.0</ele><time>2026-04-19T09:22:48.702Z</time></trkpt><trkpt lat="42.6487088" lon="13.9695039"><ele>44.0</ele><time>2026-04-19T09:22:49.703Z</time></trkpt><trkpt lat="42.6486809" lon="13.9692722"><ele>44.33333333333333</ele><time>2026-04-19T09:22:50.702Z</time></trkpt><trkpt lat="42.6486467" lon="13.9690242"><ele>44.666666666666664</ele><time>2026-04-19T09:22:51.702Z</time></trkpt><trkpt lat="42.6486095" lon="13.9687678"><ele>45.0</ele><time>2026-04-19T09:22:52.702Z</time></trkpt><trkpt lat="42.6485413" lon="13.9685003"><ele>45.333333333333336</ele><time>2026-04-19T09:22:53.703Z</time></trkpt><trkpt lat="42.6484735" lon="13.9682481"><ele>45.66666666666667</ele><time>2026-04-19T09:22:54.702Z</time></trkpt><trkpt lat="42.6483985" lon="13.9679936"><ele>46.0</ele><time>2026-04-19T09:22:55.703Z</time></trkpt><trkpt lat="42.6483255" lon="13.9677522"><ele>47.333333333333336</ele><time>2026-04-19T09:22:56.703Z</time></trkpt><trkpt lat="42.6482555" lon="13.9675195"><ele>48.66666666666667</ele><time>2026-04-19T09:22:57.703Z</time></trkpt><trkpt lat="42.6481857" lon="13.9672952"><ele>50.0</ele><time>2026-04-19T09:22:58.702Z</time></trkpt><trkpt lat="42.648119" lon="13.9670659"><ele>50.0</ele><time>2026-04-19T09:22:59.702Z</time></trkpt><trkpt lat="42.6480538" lon="13.9668352"><ele>50.0</ele><time>2026-04-19T09:23:00.703Z</time></trkpt><trkpt lat="42.6479837" lon="13.9665955"><ele>50.0</ele><time>2026-04-19T09:23:01.702Z</time></trkpt><trkpt lat="42.6479156" lon="13.9663517"><ele>50.0</ele><time>2026-04-19T09:23:02.702Z</time></trkpt><trkpt lat="42.6478474" lon="13.96611"><ele>50.0</ele><time>2026-04-19T09:23:03.702Z</time></trkpt><trkpt lat="42.6477813" lon="13.9658859"><ele>50.0</ele><time>2026-04-19T09:23:04.702Z</time></trkpt><trkpt lat="42.6477229" lon="13.9656773"><ele>50.0</ele><time>2026-04-19T09:23:05.703Z</time></trkpt><trkpt lat="42.6476618" lon="13.965475"><ele>50.0</ele><time>2026-04-19T09:23:06.703Z</time></trkpt><trkpt lat="42.6476044" lon="13.9652806"><ele>50.0</ele><time>2026-04-19T09:23:07.702Z</time></trkpt><trkpt lat="42.6475471" lon="13.9650973"><ele>50.5</ele><time>2026-04-19T09:23:08.702Z</time></trkpt><trkpt lat="42.6474994" lon="13.964928"><ele>51.0</ele><time>2026-04-19T09:23:09.703Z</time></trkpt><trkpt lat="42.6474504" lon="13.964771"><ele>51.5</ele><time>2026-04-19T09:23:10.702Z</time></trkpt><trkpt lat="42.6474108" lon="13.9646381"><ele>52.0</ele><time>2026-04-19T09:23:11.703Z</time></trkpt><trkpt lat="42.6473733" lon="13.9645201"><ele>51.99999999999999</ele><time>2026-04-19T09:23:12.702Z</time></trkpt><trkpt lat="42.6473445" lon="13.9644364"><ele>52.0</ele><time>2026-04-19T09:23:13.702Z</time></trkpt><trkpt lat="42.6473062" lon="13.9643198"><ele>52.0</ele><time>2026-04-19T09:23:15.703Z</time></trkpt><trkpt lat="42.6472698" lon="13.9642409"><ele>52.0</ele><time>2026-04-19T09:23:27.702Z</time></trkpt><trkpt lat="42.6472378" lon="13.9641612"><ele>51.99999999999999</ele><time>2026-04-19T09:23:50.703Z</time></trkpt><trkpt lat="42.6472072" lon="13.9640601"><ele>52.0</ele><time>2026-04-19T09:23:52.703Z</time></trkpt><trkpt lat="42.6471628" lon="13.9638889"><ele>52.6</ele><time>2026-04-19T09:23:54.703Z</time></trkpt><trkpt lat="42.6471259" lon="13.9637815"><ele>53.2</ele><time>2026-04-19T09:23:55.702Z</time></trkpt><trkpt lat="42.6470888" lon="13.9636588"><ele>53.8</ele><time>2026-04-19T09:23:56.703Z</time></trkpt><trkpt lat="42.6470497" lon="13.9635174"><ele>54.4</ele><time>2026-04-19T09:23:57.702Z</time></trkpt><trkpt lat="42.6470123" lon="13.9633738"><ele>55.0</ele><time>2026-04-19T09:23:58.702Z</time></trkpt><trkpt lat="42.6469699" lon="13.9632299"><ele>54.25</ele><time>2026-04-19T09:23:59.702Z</time></trkpt><trkpt lat="42.6469296" lon="13.9630852"><ele>53.5</ele><time>2026-04-19T09:24:00.702Z</time></trkpt><trkpt lat="42.6468863" lon="13.9629377"><ele>52.75</ele><time>2026-04-19T09:24:01.703Z</time></trkpt><trkpt lat="42.6468467" lon="13.9627856"><ele>52.0</ele><time>2026-04-19T09:24:02.702Z</time></trkpt><trkpt lat="42.6468067" lon="13.9626253"><ele>52.0</ele><time>2026-04-19T09:24:03.702Z</time></trkpt><trkpt lat="42.6467632" lon="13.9624534"><ele>52.0</ele><time>2026-04-19T09:24:04.702Z</time></trkpt><trkpt lat="42.6467176" lon="13.9622725"><ele>52.0</ele><time>2026-04-19T09:24:05.703Z</time></trkpt><trkpt lat="42.6466615" lon="13.9620984"><ele>52.0</ele><time>2026-04-19T09:24:06.702Z</time></trkpt><trkpt lat="42.6466129" lon="13.9619246"><ele>52.0</ele><time>2026-04-19T09:24:07.703Z</time></trkpt><trkpt lat="42.6465571" lon="13.9617572"><ele>52.0</ele><time>2026-04-19T09:24:08.703Z</time></trkpt><trkpt lat="42.6465132" lon="13.9615872"><ele>52.0</ele><time>2026-04-19T09:24:09.702Z</time></trkpt><trkpt lat="42.646462" lon="13.9614164"><ele>52.0</ele><time>2026-04-19T09:24:10.703Z</time></trkpt><trkpt lat="42.6464143" lon="13.9612466"><ele>52.25</ele><time>2026-04-19T09:24:11.702Z</time></trkpt><trkpt lat="42.6463626" lon="13.9610664"><ele>52.5</ele><time>2026-04-19T09:24:12.702Z</time></trkpt><trkpt lat="42.6463135" lon="13.9608832"><ele>52.75</ele><time>2026-04-19T09:24:13.703Z</time></trkpt><trkpt lat="42.6462627" lon="13.9607028"><ele>53.0</ele><time>2026-04-19T09:24:14.703Z</time></trkpt><trkpt lat="42.6462051" lon="13.9605056"><ele>53.0</ele><time>2026-04-19T09:24:15.703Z</time></trkpt><trkpt lat="42.6461348" lon="13.9603031"><ele>53.0</ele><time>2026-04-19T09:24:16.703Z</time></trkpt><trkpt lat="42.6460632" lon="13.9600833"><ele>53.0</ele><time>2026-04-19T09:24:17.702Z</time></trkpt><trkpt lat="42.6459955" lon="13.9598563"><ele>52.66666666666667</ele><time>2026-04-19T09:24:18.703Z</time></trkpt><trkpt lat="42.6459246" lon="13.9596311"><ele>52.33333333333333</ele><time>2026-04-19T09:24:19.703Z</time></trkpt><trkpt lat="42.6458568" lon="13.9594028"><ele>52.0</ele><time>2026-04-19T09:24:20.702Z</time></trkpt><trkpt lat="42.6457842" lon="13.9591767"><ele>52.0</ele><time>2026-04-19T09:24:21.703Z</time></trkpt><trkpt lat="42.6457129" lon="13.9589586"><ele>52.0</ele><time>2026-04-19T09:24:22.703Z</time></trkpt><trkpt lat="42.645651" lon="13.9587405"><ele>52.0</ele><time>2026-04-19T09:24:23.702Z</time></trkpt><trkpt lat="42.6455913" lon="13.9585263"><ele>52.666666666666664</ele><time>2026-04-19T09:24:24.702Z</time></trkpt><trkpt lat="42.6455325" lon="13.958315"><ele>53.33333333333333</ele><time>2026-04-19T09:24:25.703Z</time></trkpt><trkpt lat="42.6454739" lon="13.9581063"><ele>54.0</ele><time>2026-04-19T09:24:26.702Z</time></trkpt><trkpt lat="42.6454181" lon="13.9578929"><ele>54.0</ele><time>2026-04-19T09:24:27.702Z</time></trkpt><trkpt lat="42.6453683" lon="13.9576856"><ele>54.0</ele><time>2026-04-19T09:24:28.702Z</time></trkpt><trkpt lat="42.6453194" lon="13.9574752"><ele>54.0</ele><time>2026-04-19T09:24:29.702Z</time></trkpt><trkpt lat="42.6452767" lon="13.9572619"><ele>52.33333333333333</ele><time>2026-04-19T09:24:30.702Z</time></trkpt><trkpt lat="42.6452366" lon="13.9570507"><ele>50.666666666666664</ele><time>2026-04-19T09:24:31.703Z</time></trkpt><trkpt lat="42.6452177" lon="13.9568361"><ele>49.0</ele><time>2026-04-19T09:24:32.702Z</time></trkpt><trkpt lat="42.6451962" lon="13.9566277"><ele>49.0</ele><time>2026-04-19T09:24:33.703Z</time></trkpt><trkpt lat="42.645184" lon="13.956426"><ele>49.0</ele><time>2026-04-19T09:24:34.703Z</time></trkpt><trkpt lat="42.6451675" lon="13.9562418"><ele>49.0</ele><time>2026-04-19T09:24:35.703Z</time></trkpt><trkpt lat="42.6451501" lon="13.9560617"><ele>49.0</ele><time>2026-04-19T09:24:36.702Z</time></trkpt><trkpt lat="42.6451326" lon="13.9559042"><ele>49.33333333333333</ele><time>2026-04-19T09:24:37.703Z</time></trkpt><trkpt lat="42.6451174" lon="13.9557721"><ele>49.666666666666664</ele><time>2026-04-19T09:24:38.702Z</time></trkpt><trkpt lat="42.6451079" lon="13.955653"><ele>50.0</ele><time>2026-04-19T09:24:39.702Z</time></trkpt><trkpt lat="42.6450998" lon="13.9555285"><ele>50.33333333333333</ele><time>2026-04-19T09:24:40.702Z</time></trkpt><trkpt lat="42.6450894" lon="13.9554188"><ele>50.666666666666664</ele><time>2026-04-19T09:24:41.703Z</time></trkpt><trkpt lat="42.6450655" lon="13.9553024"><ele>51.0</ele><time>2026-04-19T09:24:42.702Z</time></trkpt><trkpt lat="42.6450375" lon="13.9552007"><ele>51.0</ele><time>2026-04-19T09:24:43.703Z</time></trkpt><trkpt lat="42.6449984" lon="13.955107"><ele>51.0</ele><time>2026-04-19T09:24:44.702Z</time></trkpt><trkpt lat="42.6449506" lon="13.9550106"><ele>51.0</ele><time>2026-04-19T09:24:45.702Z</time></trkpt><trkpt lat="42.6449162" lon="13.9549153"><ele>51.0</ele><time>2026-04-19T09:24:46.703Z</time></trkpt><trkpt lat="42.6448835" lon="13.9548362"><ele>51.0</ele><time>2026-04-19T09:24:47.703Z</time></trkpt><trkpt lat="42.64485" lon="13.9547614"><ele>51.0</ele><time>2026-04-19T09:24:48.702Z</time></trkpt><trkpt lat="42.6447831" lon="13.9545981"><ele>51.199999999999996</ele><time>2026-04-19T09:24:50.703Z</time></trkpt><trkpt lat="42.6447392" lon="13.9544791"><ele>51.4</ele><time>2026-04-19T09:24:52.702Z</time></trkpt><trkpt lat="42.6446853" lon="13.9543165"><ele>51.6</ele><time>2026-04-19T09:24:54.702Z</time></trkpt><trkpt lat="42.6446631" lon="13.9542086"><ele>51.8</ele><time>2026-04-19T09:24:55.702Z</time></trkpt><trkpt lat="42.6446323" lon="13.9540772"><ele>52.0</ele><time>2026-04-19T09:24:56.702Z</time></trkpt><trkpt lat="42.6446004" lon="13.9539295"><ele>52.25</ele><time>2026-04-19T09:24:57.702Z</time></trkpt><trkpt lat="42.6445578" lon="13.9537695"><ele>52.5</ele><time>2026-04-19T09:24:58.702Z</time></trkpt><trkpt lat="42.6445115" lon="13.9536032"><ele>52.75</ele><time>2026-04-19T09:24:59.702Z</time></trkpt><trkpt lat="42.6444452" lon="13.9534311"><ele>53.0</ele><time>2026-04-19T09:25:00.703Z</time></trkpt><trkpt lat="42.6443758" lon="13.953236"><ele>53.0</ele><time>2026-04-19T09:25:01.703Z</time></trkpt><trkpt lat="42.6443127" lon="13.9530419"><ele>53.0</ele><time>2026-04-19T09:25:02.702Z</time></trkpt><trkpt lat="42.6442554" lon="13.9528674"><ele>53.0</ele><time>2026-04-19T09:25:03.702Z</time></trkpt><trkpt lat="42.6441964" lon="13.9526918"><ele>53.0</ele><time>2026-04-19T09:25:04.703Z</time></trkpt><trkpt lat="42.644138" lon="13.9525074"><ele>53.333333333333336</ele><time>2026-04-19T09:25:05.702Z</time></trkpt><trkpt lat="42.6440773" lon="13.9523127"><ele>53.66666666666667</ele><time>2026-04-19T09:25:06.702Z</time></trkpt><trkpt lat="42.6440164" lon="13.9521139"><ele>54.0</ele><time>2026-04-19T09:25:07.702Z</time></trkpt><trkpt lat="42.6439542" lon="13.9519118"><ele>54.0</ele><time>2026-04-19T09:25:08.702Z</time></trkpt><trkpt lat="42.6438927" lon="13.9517104"><ele>54.0</ele><time>2026-04-19T09:25:09.703Z</time></trkpt><trkpt lat="42.6438279" lon="13.9515037"><ele>54.0</ele><time>2026-04-19T09:25:10.702Z</time></trkpt><trkpt lat="42.6437598" lon="13.9512866"><ele>54.0</ele><time>2026-04-19T09:25:11.703Z</time></trkpt><trkpt lat="42.6436998" lon="13.951067"><ele>54.0</ele><time>2026-04-19T09:25:12.702Z</time></trkpt><trkpt lat="42.6436367" lon="13.9508522"><ele>54.0</ele><time>2026-04-19T09:25:13.703Z</time></trkpt><trkpt lat="42.6435787" lon="13.9506509"><ele>52.66666666666667</ele><time>2026-04-19T09:25:14.703Z</time></trkpt><trkpt lat="42.6435173" lon="13.9504641"><ele>51.333333333333336</ele><time>2026-04-19T09:25:15.703Z</time></trkpt><trkpt lat="42.6434615" lon="13.9502741"><ele>50.0</ele><time>2026-04-19T09:25:16.703Z</time></trkpt><trkpt lat="42.6434026" lon="13.950088"><ele>50.25</ele><time>2026-04-19T09:25:17.702Z</time></trkpt><trkpt lat="42.6433462" lon="13.9498961"><ele>50.5</ele><time>2026-04-19T09:25:18.703Z</time></trkpt><trkpt lat="42.6432846" lon="13.9497077"><ele>50.75</ele><time>2026-04-19T09:25:19.702Z</time></trkpt><trkpt lat="42.6432194" lon="13.9495395"><ele>51.0</ele><time>2026-04-19T09:25:20.702Z</time></trkpt><trkpt lat="42.6431468" lon="13.9493762"><ele>51.0</ele><time>2026-04-19T09:25:21.703Z</time></trkpt><trkpt lat="42.6430753" lon="13.9492163"><ele>51.0</ele><time>2026-04-19T09:25:22.703Z</time></trkpt><trkpt lat="42.6429996" lon="13.949076"><ele>51.0</ele><time>2026-04-19T09:25:23.703Z</time></trkpt><trkpt lat="42.6429295" lon="13.9489592"><ele>51.0</ele><time>2026-04-19T09:25:24.702Z</time></trkpt><trkpt lat="42.6428678" lon="13.9488611"><ele>51.0</ele><time>2026-04-19T09:25:25.702Z</time></trkpt><trkpt lat="42.6428199" lon="13.9487587"><ele>51.0</ele><time>2026-04-19T09:25:26.702Z</time></trkpt><trkpt lat="42.6427696" lon="13.9486564"><ele>51.0</ele><time>2026-04-19T09:25:27.703Z</time></trkpt><trkpt lat="42.6427153" lon="13.948549"><ele>51.0</ele><time>2026-04-19T09:25:28.702Z</time></trkpt><trkpt lat="42.6426462" lon="13.9484267"><ele>51.0</ele><time>2026-04-19T09:25:29.702Z</time></trkpt><trkpt lat="42.6425674" lon="13.9482784"><ele>51.0</ele><time>2026-04-19T09:25:30.703Z</time></trkpt><trkpt lat="42.642466" lon="13.948112"><ele>51.0</ele><time>2026-04-19T09:25:31.702Z</time></trkpt><trkpt lat="42.6423587" lon="13.9479289"><ele>51.0</ele><time>2026-04-19T09:25:32.703Z</time></trkpt><trkpt lat="42.6422376" lon="13.9477546"><ele>51.0</ele><time>2026-04-19T09:25:33.703Z</time></trkpt><trkpt lat="42.6421192" lon="13.9475835"><ele>51.0</ele><time>2026-04-19T09:25:34.703Z</time></trkpt><trkpt lat="42.6420061" lon="13.9474228"><ele>51.0</ele><time>2026-04-19T09:25:35.702Z</time></trkpt><trkpt lat="42.641889" lon="13.9472858"><ele>51.0</ele><time>2026-04-19T09:25:36.702Z</time></trkpt><trkpt lat="42.6417727" lon="13.947139"><ele>51.0</ele><time>2026-04-19T09:25:37.703Z</time></trkpt><trkpt lat="42.6416692" lon="13.9469811"><ele>51.0</ele><time>2026-04-19T09:25:38.703Z</time></trkpt><trkpt lat="42.6415857" lon="13.9468059"><ele>51.0</ele><time>2026-04-19T09:25:39.703Z</time></trkpt><trkpt lat="42.6415222" lon="13.9466156"><ele>51.0</ele><time>2026-04-19T09:25:40.702Z</time></trkpt><trkpt lat="42.6414745" lon="13.9464246"><ele>51.0</ele><time>2026-04-19T09:25:41.702Z</time></trkpt><trkpt lat="42.6414337" lon="13.9462391"><ele>51.0</ele><time>2026-04-19T09:25:42.703Z</time></trkpt><trkpt lat="42.641398" lon="13.946046"><ele>51.5</ele><time>2026-04-19T09:25:43.703Z</time></trkpt><trkpt lat="42.6413626" lon="13.9458528"><ele>52.0</ele><time>2026-04-19T09:25:44.702Z</time></trkpt><trkpt lat="42.6413303" lon="13.9456597"><ele>52.5</ele><time>2026-04-19T09:25:45.703Z</time></trkpt><trkpt lat="42.6412996" lon="13.9454683"><ele>53.0</ele><time>2026-04-19T09:25:46.702Z</time></trkpt><trkpt lat="42.6412738" lon="13.9452742"><ele>53.0</ele><time>2026-04-19T09:25:47.702Z</time></trkpt><trkpt lat="42.6412519" lon="13.9450741"><ele>53.0</ele><time>2026-04-19T09:25:48.702Z</time></trkpt><trkpt lat="42.6412273" lon="13.9448658"><ele>53.0</ele><time>2026-04-19T09:25:49.703Z</time></trkpt><trkpt lat="42.6412086" lon="13.9446415"><ele>53.66666666666667</ele><time>2026-04-19T09:25:50.702Z</time></trkpt><trkpt lat="42.6411914" lon="13.9444234"><ele>54.33333333333333</ele><time>2026-04-19T09:25:51.703Z</time></trkpt><trkpt lat="42.641172" lon="13.9442097"><ele>55.0</ele><time>2026-04-19T09:25:52.702Z</time></trkpt><trkpt lat="42.6411514" lon="13.9440019"><ele>54.25</ele><time>2026-04-19T09:25:53.71Z</time></trkpt><trkpt lat="42.6411307" lon="13.9437957"><ele>53.5</ele><time>2026-04-19T09:25:54.71Z</time></trkpt><trkpt lat="42.6411126" lon="13.9435962"><ele>52.75</ele><time>2026-04-19T09:25:55.711Z</time></trkpt><trkpt lat="42.6410945" lon="13.9433958"><ele>52.0</ele><time>2026-04-19T09:25:56.71Z</time></trkpt><trkpt lat="42.6410778" lon="13.943196"><ele>52.0</ele><time>2026-04-19T09:25:57.711Z</time></trkpt><trkpt lat="42.6410558" lon="13.9429941"><ele>52.0</ele><time>2026-04-19T09:25:58.71Z</time></trkpt><trkpt lat="42.641038" lon="13.942785"><ele>52.0</ele><time>2026-04-19T09:25:59.71Z</time></trkpt><trkpt lat="42.6410182" lon="13.942577"><ele>52.33333333333333</ele><time>2026-04-19T09:26:00.711Z</time></trkpt><trkpt lat="42.6409947" lon="13.942367"><ele>52.66666666666667</ele><time>2026-04-19T09:26:01.71Z</time></trkpt><trkpt lat="42.6409752" lon="13.9421486"><ele>53.0</ele><time>2026-04-19T09:26:02.711Z</time></trkpt><trkpt lat="42.640958" lon="13.9419311"><ele>53.0</ele><time>2026-04-19T09:26:03.71Z</time></trkpt><trkpt lat="42.6409395" lon="13.9417284"><ele>53.0</ele><time>2026-04-19T09:26:04.71Z</time></trkpt><trkpt lat="42.6409305" lon="13.9415427"><ele>53.0</ele><time>2026-04-19T09:26:05.71Z</time></trkpt><trkpt lat="42.6409163" lon="13.9413667"><ele>53.0</ele><time>2026-04-19T09:26:06.711Z</time></trkpt><trkpt lat="42.6408993" lon="13.9412003"><ele>53.0</ele><time>2026-04-19T09:26:07.71Z</time></trkpt><trkpt lat="42.6408901" lon="13.9410491"><ele>53.0</ele><time>2026-04-19T09:26:08.71Z</time></trkpt><trkpt lat="42.6408792" lon="13.9408996"><ele>53.0</ele><time>2026-04-19T09:26:09.711Z</time></trkpt><trkpt lat="42.6408682" lon="13.9407608"><ele>53.0</ele><time>2026-04-19T09:26:10.71Z</time></trkpt><trkpt lat="42.6408569" lon="13.9406468"><ele>53.0</ele><time>2026-04-19T09:26:11.71Z</time></trkpt><trkpt lat="42.6408593" lon="13.9405409"><ele>53.0</ele><time>2026-04-19T09:26:12.71Z</time></trkpt><trkpt lat="42.6408833" lon="13.9404477"><ele>53.0</ele><time>2026-04-19T09:26:13.71Z</time></trkpt><trkpt lat="42.6409075" lon="13.940366"><ele>53.0</ele><time>2026-04-19T09:26:14.71Z</time></trkpt><trkpt lat="42.6409872" lon="13.9402429"><ele>53.0</ele><time>2026-04-19T09:26:16.709Z</time></trkpt><trkpt lat="42.641029" lon="13.9401266"><ele>53.0</ele><time>2026-04-19T09:26:18.709Z</time></trkpt><trkpt lat="42.6409722" lon="13.939987"><ele>53.16666666666667</ele><time>2026-04-19T09:26:20.709Z</time></trkpt><trkpt lat="42.6409324" lon="13.939905"><ele>53.333333333333336</ele><time>2026-04-19T09:26:21.709Z</time></trkpt><trkpt lat="42.6409037" lon="13.9398249"><ele>53.5</ele><time>2026-04-19T09:26:22.709Z</time></trkpt><trkpt lat="42.6408842" lon="13.9397336"><ele>53.66666666666667</ele><time>2026-04-19T09:26:23.71Z</time></trkpt><trkpt lat="42.6408727" lon="13.9396091"><ele>53.833333333333336</ele><time>2026-04-19T09:26:24.71Z</time></trkpt><trkpt lat="42.6408716" lon="13.9394405"><ele>54.0</ele><time>2026-04-19T09:26:25.709Z</time></trkpt><trkpt lat="42.6408682" lon="13.9392565"><ele>54.33333333333333</ele><time>2026-04-19T09:26:26.71Z</time></trkpt><trkpt lat="42.6408689" lon="13.939062"><ele>54.666666666666664</ele><time>2026-04-19T09:26:27.709Z</time></trkpt><trkpt lat="42.6408653" lon="13.9388233"><ele>55.0</ele><time>2026-04-19T09:26:28.709Z</time></trkpt><trkpt lat="42.6408724" lon="13.9385928"><ele>56.33333333333333</ele><time>2026-04-19T09:26:29.71Z</time></trkpt><trkpt lat="42.6408757" lon="13.9383654"><ele>57.66666666666667</ele><time>2026-04-19T09:26:30.71Z</time></trkpt><trkpt lat="42.6408751" lon="13.9381588"><ele>59.0</ele><time>2026-04-19T09:26:31.709Z</time></trkpt><trkpt lat="42.6408648" lon="13.9379619"><ele>59.0</ele><time>2026-04-19T09:26:32.709Z</time></trkpt><trkpt lat="42.6408332" lon="13.93777"><ele>59.0</ele><time>2026-04-19T09:26:33.71Z</time></trkpt><trkpt lat="42.6407962" lon="13.9375861"><ele>59.0</ele><time>2026-04-19T09:26:34.709Z</time></trkpt><trkpt lat="42.6407564" lon="13.9374065"><ele>59.0</ele><time>2026-04-19T09:26:35.709Z</time></trkpt><trkpt lat="42.6407181" lon="13.9372201"><ele>58.75</ele><time>2026-04-19T09:26:36.709Z</time></trkpt><trkpt lat="42.6406795" lon="13.9370274"><ele>58.5</ele><time>2026-04-19T09:26:37.709Z</time></trkpt><trkpt lat="42.6406428" lon="13.9368295"><ele>58.25</ele><time>2026-04-19T09:26:38.709Z</time></trkpt><trkpt lat="42.6406109" lon="13.9366342"><ele>58.0</ele><time>2026-04-19T09:26:39.71Z</time></trkpt><trkpt lat="42.6405789" lon="13.9364275"><ele>58.0</ele><time>2026-04-19T09:26:40.709Z</time></trkpt><trkpt lat="42.6405389" lon="13.9362332"><ele>58.0</ele><time>2026-04-19T09:26:41.709Z</time></trkpt><trkpt lat="42.6405021" lon="13.9360418"><ele>58.0</ele><time>2026-04-19T09:26:42.71Z</time></trkpt><trkpt lat="42.6404657" lon="13.9358417"><ele>58.0</ele><time>2026-04-19T09:26:43.709Z</time></trkpt><trkpt lat="42.6404291" lon="13.9356358"><ele>59.0</ele><time>2026-04-19T09:26:44.709Z</time></trkpt><trkpt lat="42.6403897" lon="13.9354309"><ele>60.0</ele><time>2026-04-19T09:26:45.71Z</time></trkpt><trkpt lat="42.6403455" lon="13.9352242"><ele>61.0</ele><time>2026-04-19T09:26:46.709Z</time></trkpt><trkpt lat="42.6403039" lon="13.9350102"><ele>60.0</ele><time>2026-04-19T09:26:47.71Z</time></trkpt><trkpt lat="42.6402617" lon="13.9347956"><ele>59.0</ele><time>2026-04-19T09:26:48.709Z</time></trkpt><trkpt lat="42.6402166" lon="13.9345818"><ele>58.0</ele><time>2026-04-19T09:26:49.709Z</time></trkpt><trkpt lat="42.6401743" lon="13.934366"><ele>58.33333333333333</ele><time>2026-04-19T09:26:50.709Z</time></trkpt><trkpt lat="42.6401347" lon="13.9341532"><ele>58.66666666666667</ele><time>2026-04-19T09:26:51.71Z</time></trkpt><trkpt lat="42.6400904" lon="13.9339398"><ele>59.0</ele><time>2026-04-19T09:26:52.71Z</time></trkpt><trkpt lat="42.6400456" lon="13.9337221"><ele>59.0</ele><time>2026-04-19T09:26:53.709Z</time></trkpt><trkpt lat="42.640001" lon="13.9334983"><ele>59.0</ele><time>2026-04-19T09:26:54.709Z</time></trkpt><trkpt lat="42.6399587" lon="13.9332696"><ele>59.0</ele><time>2026-04-19T09:26:55.709Z</time></trkpt><trkpt lat="42.6399177" lon="13.933041"><ele>59.0</ele><time>2026-04-19T09:26:56.709Z</time></trkpt><trkpt lat="42.639876" lon="13.9328026"><ele>59.0</ele><time>2026-04-19T09:26:57.709Z</time></trkpt><trkpt lat="42.6398301" lon="13.9325612"><ele>59.0</ele><time>2026-04-19T09:26:58.709Z</time></trkpt><trkpt lat="42.6397833" lon="13.932316"><ele>59.333333333333336</ele><time>2026-04-19T09:26:59.709Z</time></trkpt><trkpt lat="42.6397322" lon="13.9320696"><ele>59.66666666666667</ele><time>2026-04-19T09:27:00.709Z</time></trkpt><trkpt lat="42.63968" lon="13.931818"><ele>60.0</ele><time>2026-04-19T09:27:01.709Z</time></trkpt><trkpt lat="42.6396276" lon="13.9315747"><ele>59.0</ele><time>2026-04-19T09:27:02.709Z</time></trkpt><trkpt lat="42.6395675" lon="13.9313438"><ele>58.0</ele><time>2026-04-19T09:27:03.709Z</time></trkpt><trkpt lat="42.6394967" lon="13.9311209"><ele>57.0</ele><time>2026-04-19T09:27:04.709Z</time></trkpt><trkpt lat="42.6394239" lon="13.9308997"><ele>56.66666666666667</ele><time>2026-04-19T09:27:05.71Z</time></trkpt><trkpt lat="42.6393515" lon="13.9306852"><ele>56.333333333333336</ele><time>2026-04-19T09:27:06.709Z</time></trkpt><trkpt lat="42.6392812" lon="13.9304712"><ele>56.0</ele><time>2026-04-19T09:27:07.709Z</time></trkpt><trkpt lat="42.6392015" lon="13.9302585"><ele>57.66666666666667</ele><time>2026-04-19T09:27:08.709Z</time></trkpt><trkpt lat="42.6391234" lon="13.9300441"><ele>59.33333333333333</ele><time>2026-04-19T09:27:09.709Z</time></trkpt><trkpt lat="42.6390526" lon="13.9298222"><ele>61.0</ele><time>2026-04-19T09:27:10.709Z</time></trkpt><trkpt lat="42.6389783" lon="13.9296053"><ele>61.0</ele><time>2026-04-19T09:27:11.709Z</time></trkpt><trkpt lat="42.6389055" lon="13.9293884"><ele>61.0</ele><time>2026-04-19T09:27:12.709Z</time></trkpt><trkpt lat="42.6388302" lon="13.9291717"><ele>61.0</ele><time>2026-04-19T09:27:13.709Z</time></trkpt><trkpt lat="42.6387604" lon="13.9289618"><ele>62.0</ele><time>2026-04-19T09:27:14.71Z</time></trkpt><trkpt lat="42.638692" lon="13.9287529"><ele>63.0</ele><time>2026-04-19T09:27:15.71Z</time></trkpt><trkpt lat="42.6386224" lon="13.9285413"><ele>64.0</ele><time>2026-04-19T09:27:16.709Z</time></trkpt><trkpt lat="42.6385508" lon="13.9283243"><ele>61.33333333333333</ele><time>2026-04-19T09:27:17.71Z</time></trkpt><trkpt lat="42.6384758" lon="13.9281072"><ele>58.66666666666667</ele><time>2026-04-19T09:27:18.709Z</time></trkpt><trkpt lat="42.6383977" lon="13.9278917"><ele>56.0</ele><time>2026-04-19T09:27:19.71Z</time></trkpt><trkpt lat="42.6383173" lon="13.9276731"><ele>58.66666666666667</ele><time>2026-04-19T09:27:20.709Z</time></trkpt><trkpt lat="42.6382319" lon="13.9274602"><ele>61.33333333333333</ele><time>2026-04-19T09:27:21.71Z</time></trkpt><trkpt lat="42.6381437" lon="13.9272456"><ele>64.0</ele><time>2026-04-19T09:27:22.71Z</time></trkpt><trkpt lat="42.6380572" lon="13.9270303"><ele>64.0</ele><time>2026-04-19T09:27:23.709Z</time></trkpt><trkpt lat="42.6379739" lon="13.9268092"><ele>64.0</ele><time>2026-04-19T09:27:24.709Z</time></trkpt><trkpt lat="42.6378863" lon="13.9265899"><ele>64.0</ele><time>2026-04-19T09:27:25.71Z</time></trkpt><trkpt lat="42.637801" lon="13.9263689"><ele>63.33333333333333</ele><time>2026-04-19T09:27:26.709Z</time></trkpt><trkpt lat="42.6377168" lon="13.9261464"><ele>62.66666666666667</ele><time>2026-04-19T09:27:27.71Z</time></trkpt><trkpt lat="42.637623" lon="13.9259302"><ele>62.0</ele><time>2026-04-19T09:27:28.709Z</time></trkpt><trkpt lat="42.637529" lon="13.9257126"><ele>62.0</ele><time>2026-04-19T09:27:29.709Z</time></trkpt><trkpt lat="42.6374458" lon="13.9254943"><ele>62.0</ele><time>2026-04-19T09:27:30.71Z</time></trkpt><trkpt lat="42.637366" lon="13.925281"><ele>62.0</ele><time>2026-04-19T09:27:31.709Z</time></trkpt><trkpt lat="42.6372837" lon="13.9250853"><ele>63.66666666666667</ele><time>2026-04-19T09:27:32.709Z</time></trkpt><trkpt lat="42.6372114" lon="13.924893"><ele>65.33333333333333</ele><time>2026-04-19T09:27:33.71Z</time></trkpt><trkpt lat="42.6371298" lon="13.924701"><ele>67.0</ele><time>2026-04-19T09:27:34.71Z</time></trkpt><trkpt lat="42.6370595" lon="13.924504"><ele>67.0</ele><time>2026-04-19T09:27:35.71Z</time></trkpt><trkpt lat="42.6369981" lon="13.9242984"><ele>67.0</ele><time>2026-04-19T09:27:36.709Z</time></trkpt><trkpt lat="42.636937" lon="13.9240881"><ele>67.0</ele><time>2026-04-19T09:27:37.71Z</time></trkpt><trkpt lat="42.6368716" lon="13.9238727"><ele>65.33333333333333</ele><time>2026-04-19T09:27:38.71Z</time></trkpt><trkpt lat="42.6368115" lon="13.923644"><ele>63.66666666666667</ele><time>2026-04-19T09:27:39.71Z</time></trkpt><trkpt lat="42.6367554" lon="13.9234056"><ele>62.0</ele><time>2026-04-19T09:27:40.71Z</time></trkpt><trkpt lat="42.6367043" lon="13.9231617"><ele>62.0</ele><time>2026-04-19T09:27:41.709Z</time></trkpt><trkpt lat="42.6366583" lon="13.9229239"><ele>62.0</ele><time>2026-04-19T09:27:42.71Z</time></trkpt><trkpt lat="42.6366083" lon="13.9226966"><ele>62.0</ele><time>2026-04-19T09:27:43.709Z</time></trkpt><trkpt lat="42.636558" lon="13.9224648"><ele>62.0</ele><time>2026-04-19T09:27:44.709Z</time></trkpt><trkpt lat="42.6365063" lon="13.9222268"><ele>62.0</ele><time>2026-04-19T09:27:45.709Z</time></trkpt><trkpt lat="42.6364406" lon="13.9219717"><ele>62.0</ele><time>2026-04-19T09:27:46.709Z</time></trkpt><trkpt lat="42.6363764" lon="13.9216804"><ele>62.5</ele><time>2026-04-19T09:27:47.71Z</time></trkpt><trkpt lat="42.636309" lon="13.9213607"><ele>63.0</ele><time>2026-04-19T09:27:48.71Z</time></trkpt><trkpt lat="42.6362494" lon="13.9210089"><ele>63.0</ele><time>2026-04-19T09:27:49.709Z</time></trkpt><trkpt lat="42.636193" lon="13.9206634"><ele>63.0</ele><time>2026-04-19T09:27:50.709Z</time></trkpt><trkpt lat="42.6361269" lon="13.920335"><ele>63.0</ele><time>2026-04-19T09:27:51.709Z</time></trkpt><trkpt lat="42.6360606" lon="13.9200206"><ele>63.0</ele><time>2026-04-19T09:27:52.709Z</time></trkpt><trkpt lat="42.6359942" lon="13.9197224"><ele>63.0</ele><time>2026-04-19T09:27:53.709Z</time></trkpt><trkpt lat="42.635931" lon="13.9194433"><ele>63.0</ele><time>2026-04-19T09:27:54.71Z</time></trkpt><trkpt lat="42.6358738" lon="13.9191792"><ele>63.0</ele><time>2026-04-19T09:27:55.71Z</time></trkpt><trkpt lat="42.6358179" lon="13.9189305"><ele>64.33333333333333</ele><time>2026-04-19T09:27:56.71Z</time></trkpt><trkpt lat="42.6357646" lon="13.9186893"><ele>65.66666666666666</ele><time>2026-04-19T09:27:57.71Z</time></trkpt><trkpt lat="42.6357193" lon="13.9184651"><ele>67.0</ele><time>2026-04-19T09:27:58.71Z</time></trkpt><trkpt lat="42.6356785" lon="13.9182542"><ele>67.25</ele><time>2026-04-19T09:27:59.71Z</time></trkpt><trkpt lat="42.6356413" lon="13.9180555"><ele>67.5</ele><time>2026-04-19T09:28:00.71Z</time></trkpt><trkpt lat="42.6356082" lon="13.9178665"><ele>67.75</ele><time>2026-04-19T09:28:01.709Z</time></trkpt><trkpt lat="42.6355752" lon="13.9176949"><ele>68.0</ele><time>2026-04-19T09:28:02.71Z</time></trkpt><trkpt lat="42.6355416" lon="13.9175377"><ele>68.6</ele><time>2026-04-19T09:28:03.71Z</time></trkpt><trkpt lat="42.635513" lon="13.9173924"><ele>69.19999999999999</ele><time>2026-04-19T09:28:04.709Z</time></trkpt><trkpt lat="42.6354866" lon="13.9172563"><ele>69.8</ele><time>2026-04-19T09:28:05.71Z</time></trkpt><trkpt lat="42.6354544" lon="13.9171342"><ele>70.39999999999999</ele><time>2026-04-19T09:28:06.709Z</time></trkpt><trkpt lat="42.635426" lon="13.9170171"><ele>71.0</ele><time>2026-04-19T09:28:07.71Z</time></trkpt><trkpt lat="42.6353986" lon="13.9169097"><ele>71.0</ele><time>2026-04-19T09:28:08.709Z</time></trkpt><trkpt lat="42.6353729" lon="13.9168126"><ele>71.0</ele><time>2026-04-19T09:28:09.709Z</time></trkpt><trkpt lat="42.6353476" lon="13.9167283"><ele>71.0</ele><time>2026-04-19T09:28:10.71Z</time></trkpt><trkpt lat="42.6353128" lon="13.9165844"><ele>71.0</ele><time>2026-04-19T09:28:12.709Z</time></trkpt><trkpt lat="42.6352898" lon="13.9164962"><ele>71.0</ele><time>2026-04-19T09:28:13.71Z</time></trkpt><trkpt lat="42.6352758" lon="13.9163886"><ele>71.0</ele><time>2026-04-19T09:28:14.709Z</time></trkpt><trkpt lat="42.6352551" lon="13.9162733"><ele>70.39999999999999</ele><time>2026-04-19T09:28:15.71Z</time></trkpt><trkpt lat="42.6352409" lon="13.9161447"><ele>69.8</ele><time>2026-04-19T09:28:16.709Z</time></trkpt><trkpt lat="42.635227" lon="13.9160039"><ele>69.19999999999999</ele><time>2026-04-19T09:28:17.709Z</time></trkpt><trkpt lat="42.6352165" lon="13.9158497"><ele>68.6</ele><time>2026-04-19T09:28:18.71Z</time></trkpt><trkpt lat="42.6351987" lon="13.9156952"><ele>68.0</ele><time>2026-04-19T09:28:19.71Z</time></trkpt><trkpt lat="42.6351745" lon="13.9155397"><ele>68.0</ele><time>2026-04-19T09:28:20.709Z</time></trkpt><trkpt lat="42.6351393" lon="13.9153947"><ele>68.0</ele><time>2026-04-19T09:28:21.71Z</time></trkpt><trkpt lat="42.6351093" lon="13.9152494"><ele>68.0</ele><time>2026-04-19T09:28:22.709Z</time></trkpt><trkpt lat="42.6350764" lon="13.9151012"><ele>68.0</ele><time>2026-04-19T09:28:23.709Z</time></trkpt><trkpt lat="42.6350361" lon="13.9149279"><ele>68.0</ele><time>2026-04-19T09:28:24.709Z</time></trkpt><trkpt lat="42.6349949" lon="13.9147436"><ele>68.0</ele><time>2026-04-19T09:28:25.71Z</time></trkpt><trkpt lat="42.6349546" lon="13.9145483"><ele>68.0</ele><time>2026-04-19T09:28:26.709Z</time></trkpt><trkpt lat="42.6349115" lon="13.9143249"><ele>68.66666666666667</ele><time>2026-04-19T09:28:27.709Z</time></trkpt><trkpt lat="42.6348648" lon="13.9140823"><ele>69.33333333333333</ele><time>2026-04-19T09:28:28.709Z</time></trkpt><trkpt lat="42.6348067" lon="13.9138221"><ele>70.0</ele><time>2026-04-19T09:28:29.709Z</time></trkpt><trkpt lat="42.6347494" lon="13.9135523"><ele>71.0</ele><time>2026-04-19T09:28:30.709Z</time></trkpt><trkpt lat="42.6346939" lon="13.9132709"><ele>72.0</ele><time>2026-04-19T09:28:31.709Z</time></trkpt><trkpt lat="42.6346405" lon="13.912978"><ele>73.0</ele><time>2026-04-19T09:28:32.709Z</time></trkpt><trkpt lat="42.6345839" lon="13.9126791"><ele>73.0</ele><time>2026-04-19T09:28:33.71Z</time></trkpt><trkpt lat="42.6345264" lon="13.9123796"><ele>73.0</ele><time>2026-04-19T09:28:34.709Z</time></trkpt><trkpt lat="42.6344665" lon="13.9120738"><ele>72.0</ele><time>2026-04-19T09:28:35.709Z</time></trkpt><trkpt lat="42.6344053" lon="13.9117591"><ele>71.0</ele><time>2026-04-19T09:28:36.709Z</time></trkpt><trkpt lat="42.6343441" lon="13.9114513"><ele>71.0</ele><time>2026-04-19T09:28:37.71Z</time></trkpt><trkpt lat="42.6342888" lon="13.9111618"><ele>71.0</ele><time>2026-04-19T09:28:38.71Z</time></trkpt><trkpt lat="42.6342334" lon="13.9108889"><ele>71.0</ele><time>2026-04-19T09:28:39.709Z</time></trkpt><trkpt lat="42.6341645" lon="13.910619"><ele>71.0</ele><time>2026-04-19T09:28:40.709Z</time></trkpt><trkpt lat="42.6340766" lon="13.9103584"><ele>71.0</ele><time>2026-04-19T09:28:41.709Z</time></trkpt><trkpt lat="42.6339807" lon="13.91013"><ele>71.0</ele><time>2026-04-19T09:28:42.709Z</time></trkpt><trkpt lat="42.633886" lon="13.9099168"><ele>71.66666666666667</ele><time>2026-04-19T09:28:43.709Z</time></trkpt><trkpt lat="42.6337959" lon="13.9097148"><ele>72.33333333333333</ele><time>2026-04-19T09:28:44.709Z</time></trkpt><trkpt lat="42.6337121" lon="13.9095231"><ele>73.0</ele><time>2026-04-19T09:28:45.71Z</time></trkpt><trkpt lat="42.6336322" lon="13.9093456"><ele>73.5</ele><time>2026-04-19T09:28:46.71Z</time></trkpt><trkpt lat="42.6335621" lon="13.9091782"><ele>74.0</ele><time>2026-04-19T09:28:47.71Z</time></trkpt><trkpt lat="42.6334926" lon="13.9090097"><ele>74.5</ele><time>2026-04-19T09:28:48.71Z</time></trkpt><trkpt lat="42.6334167" lon="13.9088606"><ele>75.0</ele><time>2026-04-19T09:28:49.709Z</time></trkpt><trkpt lat="42.6333455" lon="13.9087099"><ele>75.0</ele><time>2026-04-19T09:28:50.709Z</time></trkpt><trkpt lat="42.6332793" lon="13.9085612"><ele>75.0</ele><time>2026-04-19T09:28:51.709Z</time></trkpt><trkpt lat="42.6332168" lon="13.9084161"><ele>75.0</ele><time>2026-04-19T09:28:52.709Z</time></trkpt><trkpt lat="42.633148" lon="13.9082828"><ele>75.0</ele><time>2026-04-19T09:28:53.709Z</time></trkpt><trkpt lat="42.6330721" lon="13.9081524"><ele>75.0</ele><time>2026-04-19T09:28:54.709Z</time></trkpt><trkpt lat="42.6329965" lon="13.9080332"><ele>75.0</ele><time>2026-04-19T09:28:55.709Z</time></trkpt><trkpt lat="42.6329281" lon="13.9079142"><ele>75.0</ele><time>2026-04-19T09:28:56.71Z</time></trkpt><trkpt lat="42.6328695" lon="13.9077974"><ele>75.0</ele><time>2026-04-19T09:28:57.71Z</time></trkpt><trkpt lat="42.6328337" lon="13.9076651"><ele>75.0</ele><time>2026-04-19T09:28:58.71Z</time></trkpt><trkpt lat="42.6328047" lon="13.9075303"><ele>75.0</ele><time>2026-04-19T09:28:59.709Z</time></trkpt><trkpt lat="42.6327667" lon="13.9074125"><ele>75.0</ele><time>2026-04-19T09:29:00.71Z</time></trkpt><trkpt lat="42.632743" lon="13.9072921"><ele>75.0</ele><time>2026-04-19T09:29:01.71Z</time></trkpt><trkpt lat="42.6327334" lon="13.9071823"><ele>75.0</ele><time>2026-04-19T09:29:02.709Z</time></trkpt><trkpt lat="42.6327322" lon="13.9070822"><ele>75.0</ele><time>2026-04-19T09:29:03.709Z</time></trkpt><trkpt lat="42.6327194" lon="13.9069951"><ele>75.0</ele><time>2026-04-19T09:29:04.709Z</time></trkpt><trkpt lat="42.6326717" lon="13.906877"><ele>75.2</ele><time>2026-04-19T09:29:06.709Z</time></trkpt><trkpt lat="42.6326164" lon="13.9067389"><ele>75.4</ele><time>2026-04-19T09:29:08.71Z</time></trkpt><trkpt lat="42.6326099" lon="13.9066515"><ele>75.6</ele><time>2026-04-19T09:29:09.709Z</time></trkpt><trkpt lat="42.6326135" lon="13.9065404"><ele>75.8</ele><time>2026-04-19T09:29:10.71Z</time></trkpt><trkpt lat="42.632624" lon="13.9064048"><ele>76.0</ele><time>2026-04-19T09:29:11.709Z</time></trkpt><trkpt lat="42.6326244" lon="13.9062446"><ele>76.0</ele><time>2026-04-19T09:29:12.709Z</time></trkpt><trkpt lat="42.6326183" lon="13.9060666"><ele>76.0</ele><time>2026-04-19T09:29:13.709Z</time></trkpt><trkpt lat="42.6326129" lon="13.9058895"><ele>76.0</ele><time>2026-04-19T09:29:14.709Z</time></trkpt><trkpt lat="42.6326061" lon="13.9057183"><ele>76.0</ele><time>2026-04-19T09:29:15.709Z</time></trkpt><trkpt lat="42.6325918" lon="13.9055726"><ele>75.39999999999999</ele><time>2026-04-19T09:29:16.709Z</time></trkpt><trkpt lat="42.6325759" lon="13.9054315"><ele>74.8</ele><time>2026-04-19T09:29:17.709Z</time></trkpt><trkpt lat="42.6325575" lon="13.9052552"><ele>74.19999999999999</ele><time>2026-04-19T09:29:18.71Z</time></trkpt><trkpt lat="42.6325532" lon="13.9051122"><ele>73.6</ele><time>2026-04-19T09:29:19.71Z</time></trkpt><trkpt lat="42.632552" lon="13.9049677"><ele>73.0</ele><time>2026-04-19T09:29:20.709Z</time></trkpt><trkpt lat="42.6325466" lon="13.9048172"><ele>73.0</ele><time>2026-04-19T09:29:21.709Z</time></trkpt><trkpt lat="42.6325429" lon="13.9046657"><ele>73.0</ele><time>2026-04-19T09:29:22.709Z</time></trkpt><trkpt lat="42.6325192" lon="13.9044761"><ele>73.0</ele><time>2026-04-19T09:29:23.709Z</time></trkpt><trkpt lat="42.6325024" lon="13.9043052"><ele>73.0</ele><time>2026-04-19T09:29:24.709Z</time></trkpt><trkpt lat="42.6324749" lon="13.9041236"><ele>73.8</ele><time>2026-04-19T09:29:25.71Z</time></trkpt><trkpt lat="42.6324368" lon="13.9039611"><ele>74.6</ele><time>2026-04-19T09:29:26.709Z</time></trkpt><trkpt lat="42.6324065" lon="13.9038124"><ele>75.4</ele><time>2026-04-19T09:29:27.709Z</time></trkpt><trkpt lat="42.6323792" lon="13.9036806"><ele>76.2</ele><time>2026-04-19T09:29:28.71Z</time></trkpt><trkpt lat="42.6323672" lon="13.9035794"><ele>77.0</ele><time>2026-04-19T09:29:29.709Z</time></trkpt><trkpt lat="42.6324" lon="13.9034521"><ele>77.2</ele><time>2026-04-19T09:29:31.709Z</time></trkpt><trkpt lat="42.6324475" lon="13.9033452"><ele>77.4</ele><time>2026-04-19T09:29:33.709Z</time></trkpt><trkpt lat="42.6325144" lon="13.9032693"><ele>77.6</ele><time>2026-04-19T09:29:35.709Z</time></trkpt><trkpt lat="42.6326067" lon="13.9031868"><ele>77.8</ele><time>2026-04-19T09:29:37.709Z</time></trkpt><trkpt lat="42.6327147" lon="13.9031096"><ele>78.0</ele><time>2026-04-19T09:29:39.709Z</time></trkpt><trkpt lat="42.6327783" lon="13.9030689"><ele>78.0</ele><time>2026-04-19T09:29:40.709Z</time></trkpt><trkpt lat="42.6328473" lon="13.9030374"><ele>78.0</ele><time>2026-04-19T09:29:41.709Z</time></trkpt><trkpt lat="42.632916" lon="13.9030085"><ele>78.0</ele><time>2026-04-19T09:29:42.709Z</time></trkpt><trkpt lat="42.6329797" lon="13.9029791"><ele>78.0</ele><time>2026-04-19T09:29:43.709Z</time></trkpt><trkpt lat="42.6330445" lon="13.9029439"><ele>78.0</ele><time>2026-04-19T09:29:44.709Z</time></trkpt><trkpt lat="42.6331069" lon="13.902904"><ele>78.0</ele><time>2026-04-19T09:29:45.709Z</time></trkpt><trkpt lat="42.6331727" lon="13.9028749"><ele>78.0</ele><time>2026-04-19T09:29:46.709Z</time></trkpt><trkpt lat="42.6332657" lon="13.9027731"><ele>78.0</ele><time>2026-04-19T09:29:48.71Z</time></trkpt><trkpt lat="42.6332842" lon="13.9025915"><ele>78.0</ele><time>2026-04-19T09:29:50.709Z</time></trkpt><trkpt lat="42.6332724" lon="13.9024787"><ele>78.0</ele><time>2026-04-19T09:29:51.709Z</time></trkpt><trkpt lat="42.6332624" lon="13.9023514"><ele>78.0</ele><time>2026-04-19T09:29:52.71Z</time></trkpt><trkpt lat="42.6332498" lon="13.9022227"><ele>78.0</ele><time>2026-04-19T09:29:53.709Z</time></trkpt><trkpt lat="42.6332416" lon="13.9020772"><ele>78.5</ele><time>2026-04-19T09:29:54.709Z</time></trkpt><trkpt lat="42.6332325" lon="13.901916"><ele>79.0</ele><time>2026-04-19T09:29:55.709Z</time></trkpt><trkpt lat="42.6332255" lon="13.9017431"><ele>79.5</ele><time>2026-04-19T09:29:56.71Z</time></trkpt><trkpt lat="42.6332161" lon="13.9015603"><ele>80.0</ele><time>2026-04-19T09:29:57.71Z</time></trkpt><trkpt lat="42.6332072" lon="13.9013663"><ele>82.66666666666667</ele><time>2026-04-19T09:29:58.709Z</time></trkpt><trkpt lat="42.633199" lon="13.9011584"><ele>85.33333333333333</ele><time>2026-04-19T09:29:59.71Z</time></trkpt><trkpt lat="42.6331932" lon="13.9009422"><ele>88.0</ele><time>2026-04-19T09:30:00.709Z</time></trkpt><trkpt lat="42.6331854" lon="13.9007266"><ele>91.0</ele><time>2026-04-19T09:30:01.71Z</time></trkpt><trkpt lat="42.6331618" lon="13.9004992"><ele>94.0</ele><time>2026-04-19T09:30:02.71Z</time></trkpt><trkpt lat="42.6331254" lon="13.9002575"><ele>97.0</ele><time>2026-04-19T09:30:03.71Z</time></trkpt><trkpt lat="42.6330779" lon="13.90001"><ele>99.0</ele><time>2026-04-19T09:30:04.709Z</time></trkpt><trkpt lat="42.6330257" lon="13.8997745"><ele>101.0</ele><time>2026-04-19T09:30:05.71Z</time></trkpt><trkpt lat="42.6329948" lon="13.8995511"><ele>103.0</ele><time>2026-04-19T09:30:06.709Z</time></trkpt><trkpt lat="42.6329664" lon="13.8993153"><ele>104.66666666666667</ele><time>2026-04-19T09:30:07.709Z</time></trkpt><trkpt lat="42.6329521" lon="13.8990852"><ele>106.33333333333334</ele><time>2026-04-19T09:30:08.709Z</time></trkpt><trkpt lat="42.6329512" lon="13.8988576"><ele>108.0</ele><time>2026-04-19T09:30:09.71Z</time></trkpt><trkpt lat="42.6329644" lon="13.898639"><ele>108.66666666666666</ele><time>2026-04-19T09:30:10.71Z</time></trkpt><trkpt lat="42.6329913" lon="13.8984083"><ele>109.33333333333333</ele><time>2026-04-19T09:30:11.71Z</time></trkpt><trkpt lat="42.6330279" lon="13.8981606"><ele>110.0</ele><time>2026-04-19T09:30:12.709Z</time></trkpt><trkpt lat="42.6330701" lon="13.8979035"><ele>110.0</ele><time>2026-04-19T09:30:13.709Z</time></trkpt><trkpt lat="42.6330938" lon="13.8976341"><ele>110.0</ele><time>2026-04-19T09:30:14.71Z</time></trkpt><trkpt lat="42.633095" lon="13.8973534"><ele>110.0</ele><time>2026-04-19T09:30:15.71Z</time></trkpt><trkpt lat="42.6330791" lon="13.8970669"><ele>110.66666666666666</ele><time>2026-04-19T09:30:16.71Z</time></trkpt><trkpt lat="42.6330546" lon="13.8967947"><ele>111.33333333333334</ele><time>2026-04-19T09:30:17.71Z</time></trkpt><trkpt lat="42.633028" lon="13.8965518"><ele>112.0</ele><time>2026-04-19T09:30:18.709Z</time></trkpt><trkpt lat="42.6330053" lon="13.8963317"><ele>112.75</ele><time>2026-04-19T09:30:19.71Z</time></trkpt><trkpt lat="42.6329811" lon="13.8961359"><ele>113.5</ele><time>2026-04-19T09:30:20.71Z</time></trkpt><trkpt lat="42.6329439" lon="13.8959613"><ele>114.25</ele><time>2026-04-19T09:30:21.709Z</time></trkpt><trkpt lat="42.6329094" lon="13.8958229"><ele>115.0</ele><time>2026-04-19T09:30:22.71Z</time></trkpt><trkpt lat="42.6328748" lon="13.8957089"><ele>115.50000000000001</ele><time>2026-04-19T09:30:23.709Z</time></trkpt><trkpt lat="42.6328535" lon="13.895626"><ele>116.0</ele><time>2026-04-19T09:30:24.709Z</time></trkpt><trkpt lat="42.6328856" lon="13.8955052"><ele>116.5</ele><time>2026-04-19T09:30:26.71Z</time></trkpt><trkpt lat="42.6330037" lon="13.895469"><ele>117.0</ele><time>2026-04-19T09:30:28.709Z</time></trkpt><trkpt lat="42.633063" lon="13.8955166"><ele>117.50000000000001</ele><time>2026-04-19T09:30:29.71Z</time></trkpt><trkpt lat="42.6331118" lon="13.8956066"><ele>118.0</ele><time>2026-04-19T09:30:30.709Z</time></trkpt><trkpt lat="42.6331547" lon="13.8957363"><ele>118.0</ele><time>2026-04-19T09:30:31.709Z</time></trkpt><trkpt lat="42.633193" lon="13.8959069"><ele>118.0</ele><time>2026-04-19T09:30:32.709Z</time></trkpt><trkpt lat="42.6332349" lon="13.8961044"><ele>118.0</ele><time>2026-04-19T09:30:33.709Z</time></trkpt><trkpt lat="42.6332841" lon="13.8963263"><ele>117.0</ele><time>2026-04-19T09:30:34.709Z</time></trkpt><trkpt lat="42.6333422" lon="13.896573"><ele>116.0</ele><time>2026-04-19T09:30:35.709Z</time></trkpt><trkpt lat="42.6334124" lon="13.8968289"><ele>115.0</ele><time>2026-04-19T09:30:36.71Z</time></trkpt><trkpt lat="42.6334791" lon="13.8970614"><ele>114.4</ele><time>2026-04-19T09:30:37.709Z</time></trkpt><trkpt lat="42.6335335" lon="13.8972608"><ele>113.8</ele><time>2026-04-19T09:30:38.71Z</time></trkpt><trkpt lat="42.6335715" lon="13.8974061"><ele>113.19999999999999</ele><time>2026-04-19T09:30:39.709Z</time></trkpt><trkpt lat="42.6336049" lon="13.8975312"><ele>112.6</ele><time>2026-04-19T09:30:40.71Z</time></trkpt><trkpt lat="42.6336361" lon="13.8976245"><ele>112.0</ele><time>2026-04-19T09:30:41.71Z</time></trkpt><trkpt lat="42.6337092" lon="13.8976904"><ele>112.25</ele><time>2026-04-19T09:30:43.709Z</time></trkpt><trkpt lat="42.6337908" lon="13.8975426"><ele>112.5</ele><time>2026-04-19T09:30:45.71Z</time></trkpt><trkpt lat="42.6338113" lon="13.8974087"><ele>112.75</ele><time>2026-04-19T09:30:46.709Z</time></trkpt><trkpt lat="42.6338304" lon="13.8972283"><ele>113.0</ele><time>2026-04-19T09:30:47.709Z</time></trkpt><trkpt lat="42.6338403" lon="13.8970141"><ele>113.0</ele><time>2026-04-19T09:30:48.709Z</time></trkpt><trkpt lat="42.6338577" lon="13.8967689"><ele>113.0</ele><time>2026-04-19T09:30:49.709Z</time></trkpt><trkpt lat="42.6338815" lon="13.8965037"><ele>113.0</ele><time>2026-04-19T09:30:50.709Z</time></trkpt><trkpt lat="42.6339024" lon="13.8962255"><ele>115.0</ele><time>2026-04-19T09:30:51.71Z</time></trkpt><trkpt lat="42.6339247" lon="13.8959458"><ele>117.0</ele><time>2026-04-19T09:30:52.709Z</time></trkpt><trkpt lat="42.6339456" lon="13.8956823"><ele>119.0</ele><time>2026-04-19T09:30:53.71Z</time></trkpt><trkpt lat="42.6339624" lon="13.8954298"><ele>119.0</ele><time>2026-04-19T09:30:54.71Z</time></trkpt><trkpt lat="42.633977" lon="13.8951825"><ele>119.0</ele><time>2026-04-19T09:30:55.71Z</time></trkpt><trkpt lat="42.6339868" lon="13.8949332"><ele>119.0</ele><time>2026-04-19T09:30:56.709Z</time></trkpt><trkpt lat="42.6340025" lon="13.8946868"><ele>120.33333333333333</ele><time>2026-04-19T09:30:57.709Z</time></trkpt><trkpt lat="42.6340101" lon="13.8944472"><ele>121.66666666666666</ele><time>2026-04-19T09:30:58.71Z</time></trkpt><trkpt lat="42.6340273" lon="13.8942294"><ele>123.0</ele><time>2026-04-19T09:30:59.71Z</time></trkpt><trkpt lat="42.6340564" lon="13.8940073"><ele>126.33333333333334</ele><time>2026-04-19T09:31:00.71Z</time></trkpt><trkpt lat="42.6341002" lon="13.8937942"><ele>129.66666666666669</ele><time>2026-04-19T09:31:01.71Z</time></trkpt><trkpt lat="42.6341629" lon="13.8935763"><ele>133.0</ele><time>2026-04-19T09:31:02.709Z</time></trkpt><trkpt lat="42.6342298" lon="13.8933463"><ele>134.0</ele><time>2026-04-19T09:31:03.709Z</time></trkpt><trkpt lat="42.634294" lon="13.8931268"><ele>135.0</ele><time>2026-04-19T09:31:04.709Z</time></trkpt><trkpt lat="42.6343555" lon="13.8929102"><ele>136.0</ele><time>2026-04-19T09:31:05.71Z</time></trkpt><trkpt lat="42.634395" lon="13.8926717"><ele>137.33333333333334</ele><time>2026-04-19T09:31:06.709Z</time></trkpt><trkpt lat="42.6344204" lon="13.8924191"><ele>138.66666666666666</ele><time>2026-04-19T09:31:07.709Z</time></trkpt><trkpt lat="42.6344405" lon="13.8921451"><ele>140.0</ele><time>2026-04-19T09:31:08.71Z</time></trkpt><trkpt lat="42.6344577" lon="13.8918693"><ele>133.33333333333331</ele><time>2026-04-19T09:31:09.709Z</time></trkpt><trkpt lat="42.6344792" lon="13.8915998"><ele>126.66666666666666</ele><time>2026-04-19T09:31:10.709Z</time></trkpt><trkpt lat="42.6344993" lon="13.8913433"><ele>120.0</ele><time>2026-04-19T09:31:11.71Z</time></trkpt><trkpt lat="42.6345223" lon="13.8911103"><ele>122.33333333333334</ele><time>2026-04-19T09:31:12.709Z</time></trkpt><trkpt lat="42.6345517" lon="13.8909049"><ele>124.66666666666667</ele><time>2026-04-19T09:31:13.71Z</time></trkpt><trkpt lat="42.6345835" lon="13.8907005"><ele>127.0</ele><time>2026-04-19T09:31:14.71Z</time></trkpt><trkpt lat="42.6346149" lon="13.8905088"><ele>127.0</ele><time>2026-04-19T09:31:15.71Z</time></trkpt><trkpt lat="42.6346447" lon="13.8903344"><ele>127.0</ele><time>2026-04-19T09:31:16.71Z</time></trkpt><trkpt lat="42.6346694" lon="13.8901714"><ele>127.0</ele><time>2026-04-19T09:31:17.709Z</time></trkpt><trkpt lat="42.6346722" lon="13.8900118"><ele>127.0</ele><time>2026-04-19T09:31:18.71Z</time></trkpt><trkpt lat="42.6346453" lon="13.8898651"><ele>128.0</ele><time>2026-04-19T09:31:19.709Z</time></trkpt><trkpt lat="42.6345963" lon="13.8897242"><ele>129.0</ele><time>2026-04-19T09:31:20.71Z</time></trkpt><trkpt lat="42.6345405" lon="13.889579"><ele>130.0</ele><time>2026-04-19T09:31:21.71Z</time></trkpt><trkpt lat="42.634507" lon="13.8894505"><ele>131.0</ele><time>2026-04-19T09:31:22.71Z</time></trkpt><trkpt lat="42.6344934" lon="13.8893225"><ele>132.0</ele><time>2026-04-19T09:31:23.71Z</time></trkpt><trkpt lat="42.6345094" lon="13.8891938"><ele>132.4</ele><time>2026-04-19T09:31:24.709Z</time></trkpt><trkpt lat="42.6345235" lon="13.8890813"><ele>132.79999999999998</ele><time>2026-04-19T09:31:25.709Z</time></trkpt><trkpt lat="42.6345442" lon="13.8889797"><ele>133.2</ele><time>2026-04-19T09:31:26.709Z</time></trkpt><trkpt lat="42.6345343" lon="13.888834"><ele>133.6</ele><time>2026-04-19T09:31:28.709Z</time></trkpt><trkpt lat="42.6344557" lon="13.8887064"><ele>134.0</ele><time>2026-04-19T09:31:30.709Z</time></trkpt><trkpt lat="42.6344163" lon="13.8886179"><ele>135.0</ele><time>2026-04-19T09:31:31.71Z</time></trkpt><trkpt lat="42.6343761" lon="13.8884851"><ele>136.0</ele><time>2026-04-19T09:31:32.709Z</time></trkpt><trkpt lat="42.6343353" lon="13.888337"><ele>137.0</ele><time>2026-04-19T09:31:33.71Z</time></trkpt><trkpt lat="42.6342826" lon="13.8881614"><ele>138.0</ele><time>2026-04-19T09:31:34.709Z</time></trkpt><trkpt lat="42.6342296" lon="13.8879635"><ele>138.6</ele><time>2026-04-19T09:31:35.71Z</time></trkpt><trkpt lat="42.6341826" lon="13.8877989"><ele>139.20000000000002</ele><time>2026-04-19T09:31:36.709Z</time></trkpt><trkpt lat="42.6341476" lon="13.8876589"><ele>139.8</ele><time>2026-04-19T09:31:37.709Z</time></trkpt><trkpt lat="42.6341246" lon="13.8875176"><ele>140.4</ele><time>2026-04-19T09:31:38.709Z</time></trkpt><trkpt lat="42.6341223" lon="13.8873761"><ele>141.0</ele><time>2026-04-19T09:31:39.71Z</time></trkpt><trkpt lat="42.6341381" lon="13.8872302"><ele>141.4</ele><time>2026-04-19T09:31:40.71Z</time></trkpt><trkpt lat="42.6341625" lon="13.8870943"><ele>141.8</ele><time>2026-04-19T09:31:41.71Z</time></trkpt><trkpt lat="42.6341762" lon="13.8869481"><ele>142.20000000000002</ele><time>2026-04-19T09:31:42.709Z</time></trkpt><trkpt lat="42.6341925" lon="13.8867987"><ele>142.6</ele><time>2026-04-19T09:31:43.709Z</time></trkpt><trkpt lat="42.6342316" lon="13.8866503"><ele>143.0</ele><time>2026-04-19T09:31:44.71Z</time></trkpt><trkpt lat="42.6342729" lon="13.8865064"><ele>142.0</ele><time>2026-04-19T09:31:45.709Z</time></trkpt><trkpt lat="42.6343052" lon="13.886349"><ele>141.0</ele><time>2026-04-19T09:31:46.709Z</time></trkpt><trkpt lat="42.6343342" lon="13.8861904"><ele>140.0</ele><time>2026-04-19T09:31:47.71Z</time></trkpt><trkpt lat="42.6343616" lon="13.8860339"><ele>139.0</ele><time>2026-04-19T09:31:48.709Z</time></trkpt><trkpt lat="42.6343779" lon="13.8858828"><ele>137.2</ele><time>2026-04-19T09:31:49.709Z</time></trkpt><trkpt lat="42.6343975" lon="13.8857293"><ele>135.4</ele><time>2026-04-19T09:31:50.71Z</time></trkpt><trkpt lat="42.6344122" lon="13.8855753"><ele>133.6</ele><time>2026-04-19T09:31:51.71Z</time></trkpt><trkpt lat="42.634423" lon="13.8854268"><ele>131.8</ele><time>2026-04-19T09:31:52.71Z</time></trkpt><trkpt lat="42.6344217" lon="13.8853"><ele>130.0</ele><time>2026-04-19T09:31:53.71Z</time></trkpt><trkpt lat="42.6344056" lon="13.8851647"><ele>129.0</ele><time>2026-04-19T09:31:54.709Z</time></trkpt><trkpt lat="42.6343928" lon="13.8850279"><ele>128.0</ele><time>2026-04-19T09:31:55.71Z</time></trkpt><trkpt lat="42.634386" lon="13.8848975"><ele>127.0</ele><time>2026-04-19T09:31:56.709Z</time></trkpt><trkpt lat="42.6343642" lon="13.8847725"><ele>126.0</ele><time>2026-04-19T09:31:57.709Z</time></trkpt><trkpt lat="42.6343418" lon="13.8846385"><ele>125.0</ele><time>2026-04-19T09:31:58.71Z</time></trkpt><trkpt lat="42.6343213" lon="13.8844879"><ele>125.0</ele><time>2026-04-19T09:31:59.709Z</time></trkpt><trkpt lat="42.6342998" lon="13.884331"><ele>125.0</ele><time>2026-04-19T09:32:00.709Z</time></trkpt><trkpt lat="42.6342777" lon="13.8841401"><ele>125.0</ele><time>2026-04-19T09:32:01.709Z</time></trkpt><trkpt lat="42.6342652" lon="13.8839233"><ele>125.0</ele><time>2026-04-19T09:32:02.709Z</time></trkpt><trkpt lat="42.6342526" lon="13.8836849"><ele>122.33333333333333</ele><time>2026-04-19T09:32:03.709Z</time></trkpt><trkpt lat="42.6342354" lon="13.8834267"><ele>119.66666666666666</ele><time>2026-04-19T09:32:04.71Z</time></trkpt><trkpt lat="42.6342153" lon="13.8831756"><ele>117.0</ele><time>2026-04-19T09:32:05.71Z</time></trkpt><trkpt lat="42.6342034" lon="13.8829384"><ele>117.0</ele><time>2026-04-19T09:32:06.709Z</time></trkpt><trkpt lat="42.6341874" lon="13.8827112"><ele>117.0</ele><time>2026-04-19T09:32:07.71Z</time></trkpt><trkpt lat="42.6341764" lon="13.8824935"><ele>117.0</ele><time>2026-04-19T09:32:08.71Z</time></trkpt><trkpt lat="42.6341643" lon="13.8822832"><ele>115.75</ele><time>2026-04-19T09:32:09.709Z</time></trkpt><trkpt lat="42.6341516" lon="13.8820855"><ele>114.5</ele><time>2026-04-19T09:32:10.71Z</time></trkpt><trkpt lat="42.6341343" lon="13.8818991"><ele>113.25</ele><time>2026-04-19T09:32:11.71Z</time></trkpt><trkpt lat="42.6341153" lon="13.8817303"><ele>112.0</ele><time>2026-04-19T09:32:12.709Z</time></trkpt><trkpt lat="42.6340963" lon="13.8815863"><ele>111.6</ele><time>2026-04-19T09:32:13.71Z</time></trkpt><trkpt lat="42.6340547" lon="13.8814571"><ele>111.19999999999999</ele><time>2026-04-19T09:32:14.71Z</time></trkpt><trkpt lat="42.6339859" lon="13.8813403"><ele>110.8</ele><time>2026-04-19T09:32:15.709Z</time></trkpt><trkpt lat="42.6339" lon="13.8812472"><ele>110.4</ele><time>2026-04-19T09:32:16.71Z</time></trkpt><trkpt lat="42.6337954" lon="13.8811701"><ele>110.0</ele><time>2026-04-19T09:32:17.71Z</time></trkpt><trkpt lat="42.6336801" lon="13.8811122"><ele>107.25</ele><time>2026-04-19T09:32:18.709Z</time></trkpt><trkpt lat="42.6335589" lon="13.8810571"><ele>104.5</ele><time>2026-04-19T09:32:19.709Z</time></trkpt><trkpt lat="42.633427" lon="13.8810196"><ele>101.75</ele><time>2026-04-19T09:32:20.71Z</time></trkpt><trkpt lat="42.6332849" lon="13.8809963"><ele>99.0</ele><time>2026-04-19T09:32:21.71Z</time></trkpt><trkpt lat="42.6331393" lon="13.8809806"><ele>99.0</ele><time>2026-04-19T09:32:22.71Z</time></trkpt><trkpt lat="42.6329893" lon="13.8809683"><ele>99.0</ele><time>2026-04-19T09:32:23.71Z</time></trkpt><trkpt lat="42.6328386" lon="13.8809492"><ele>99.0</ele><time>2026-04-19T09:32:24.709Z</time></trkpt><trkpt lat="42.6326879" lon="13.880936"><ele>98.5</ele><time>2026-04-19T09:32:25.71Z</time></trkpt><trkpt lat="42.6325312" lon="13.8809299"><ele>98.0</ele><time>2026-04-19T09:32:26.71Z</time></trkpt><trkpt lat="42.6323868" lon="13.8809274"><ele>97.5</ele><time>2026-04-19T09:32:27.709Z</time></trkpt><trkpt lat="42.632247" lon="13.8809181"><ele>97.0</ele><time>2026-04-19T09:32:28.709Z</time></trkpt><trkpt lat="42.6321136" lon="13.880923"><ele>96.5</ele><time>2026-04-19T09:32:29.71Z</time></trkpt><trkpt lat="42.6319862" lon="13.8809455"><ele>96.0</ele><time>2026-04-19T09:32:30.709Z</time></trkpt><trkpt lat="42.6318619" lon="13.8809644"><ele>95.5</ele><time>2026-04-19T09:32:31.709Z</time></trkpt><trkpt lat="42.6317474" lon="13.8809786"><ele>95.0</ele><time>2026-04-19T09:32:32.71Z</time></trkpt><trkpt lat="42.6316459" lon="13.8809962"><ele>94.66666666666667</ele><time>2026-04-19T09:32:33.71Z</time></trkpt><trkpt lat="42.6315643" lon="13.8810036"><ele>94.33333333333334</ele><time>2026-04-19T09:32:34.716Z</time></trkpt><trkpt lat="42.6314975" lon="13.8810129"><ele>94.0</ele><time>2026-04-19T09:32:35.717Z</time></trkpt><trkpt lat="42.6314015" lon="13.8809574"><ele>93.66666666666667</ele><time>2026-04-19T09:32:37.716Z</time></trkpt><trkpt lat="42.6313464" lon="13.8809133"><ele>93.33333333333333</ele><time>2026-04-19T09:32:38.716Z</time></trkpt><trkpt lat="42.6312973" lon="13.8808499"><ele>93.0</ele><time>2026-04-19T09:32:39.716Z</time></trkpt><trkpt lat="42.6312637" lon="13.8807443"><ele>93.0</ele><time>2026-04-19T09:32:40.717Z</time></trkpt><trkpt lat="42.6312461" lon="13.8806245"><ele>93.0</ele><time>2026-04-19T09:32:41.716Z</time></trkpt><trkpt lat="42.6312444" lon="13.8804904"><ele>93.0</ele><time>2026-04-19T09:32:42.716Z</time></trkpt><trkpt lat="42.6312353" lon="13.8803374"><ele>93.0</ele><time>2026-04-19T09:32:43.717Z</time></trkpt><trkpt lat="42.6312306" lon="13.8801643"><ele>93.0</ele><time>2026-04-19T09:32:44.716Z</time></trkpt><trkpt lat="42.6312252" lon="13.8799745"><ele>93.0</ele><time>2026-04-19T09:32:45.716Z</time></trkpt><trkpt lat="42.6312192" lon="13.8797923"><ele>93.0</ele><time>2026-04-19T09:32:46.716Z</time></trkpt><trkpt lat="42.631214" lon="13.8796308"><ele>93.0</ele><time>2026-04-19T09:32:47.716Z</time></trkpt><trkpt lat="42.6312106" lon="13.8794742"><ele>93.0</ele><time>2026-04-19T09:32:48.716Z</time></trkpt><trkpt lat="42.6312081" lon="13.8793273"><ele>93.0</ele><time>2026-04-19T09:32:49.716Z</time></trkpt><trkpt lat="42.631205" lon="13.8791793"><ele>93.0</ele><time>2026-04-19T09:32:50.716Z</time></trkpt><trkpt lat="42.6311951" lon="13.879031"><ele>93.0</ele><time>2026-04-19T09:32:51.716Z</time></trkpt><trkpt lat="42.6311859" lon="13.8788854"><ele>93.0</ele><time>2026-04-19T09:32:52.716Z</time></trkpt><trkpt lat="42.6311855" lon="13.8787313"><ele>93.0</ele><time>2026-04-19T09:32:53.717Z</time></trkpt><trkpt lat="42.6311827" lon="13.8785787"><ele>93.0</ele><time>2026-04-19T09:32:54.717Z</time></trkpt><trkpt lat="42.6311766" lon="13.87842"><ele>93.0</ele><time>2026-04-19T09:32:55.716Z</time></trkpt><trkpt lat="42.6311732" lon="13.8782647"><ele>93.0</ele><time>2026-04-19T09:32:56.716Z</time></trkpt><trkpt lat="42.6311632" lon="13.8781338"><ele>93.0</ele><time>2026-04-19T09:32:57.717Z</time></trkpt><trkpt lat="42.6311548" lon="13.8779975"><ele>93.0</ele><time>2026-04-19T09:32:58.716Z</time></trkpt><trkpt lat="42.6311449" lon="13.8778654"><ele>92.60000000000001</ele><time>2026-04-19T09:32:59.717Z</time></trkpt><trkpt lat="42.6311399" lon="13.8777427"><ele>92.2</ele><time>2026-04-19T09:33:00.717Z</time></trkpt><trkpt lat="42.6311375" lon="13.877622"><ele>91.8</ele><time>2026-04-19T09:33:01.717Z</time></trkpt><trkpt lat="42.6311393" lon="13.8774947"><ele>91.4</ele><time>2026-04-19T09:33:02.717Z</time></trkpt><trkpt lat="42.6311418" lon="13.877363"><ele>91.0</ele><time>2026-04-19T09:33:03.716Z</time></trkpt><trkpt lat="42.6311419" lon="13.8772295"><ele>91.0</ele><time>2026-04-19T09:33:04.717Z</time></trkpt><trkpt lat="42.6311426" lon="13.8770846"><ele>91.0</ele><time>2026-04-19T09:33:05.716Z</time></trkpt><trkpt lat="42.6311417" lon="13.8769308"><ele>91.0</ele><time>2026-04-19T09:33:06.716Z</time></trkpt><trkpt lat="42.6311396" lon="13.8767699"><ele>91.0</ele><time>2026-04-19T09:33:07.717Z</time></trkpt><trkpt lat="42.631131" lon="13.876614"><ele>90.5</ele><time>2026-04-19T09:33:08.717Z</time></trkpt><trkpt lat="42.6311255" lon="13.8764441"><ele>90.0</ele><time>2026-04-19T09:33:09.716Z</time></trkpt><trkpt lat="42.6311154" lon="13.8762803"><ele>89.5</ele><time>2026-04-19T09:33:10.717Z</time></trkpt><trkpt lat="42.6311052" lon="13.8761215"><ele>89.0</ele><time>2026-04-19T09:33:11.716Z</time></trkpt><trkpt lat="42.6310966" lon="13.87597"><ele>89.2</ele><time>2026-04-19T09:33:12.717Z</time></trkpt><trkpt lat="42.6310864" lon="13.8758148"><ele>89.4</ele><time>2026-04-19T09:33:13.716Z</time></trkpt><trkpt lat="42.6310762" lon="13.8756773"><ele>89.6</ele><time>2026-04-19T09:33:14.716Z</time></trkpt><trkpt lat="42.6310668" lon="13.8755288"><ele>89.8</ele><time>2026-04-19T09:33:15.717Z</time></trkpt><trkpt lat="42.6310596" lon="13.8753839"><ele>90.0</ele><time>2026-04-19T09:33:16.716Z</time></trkpt><trkpt lat="42.6310562" lon="13.875236"><ele>90.5</ele><time>2026-04-19T09:33:17.717Z</time></trkpt><trkpt lat="42.6310476" lon="13.8750765"><ele>91.0</ele><time>2026-04-19T09:33:18.716Z</time></trkpt><trkpt lat="42.6310368" lon="13.8749032"><ele>91.5</ele><time>2026-04-19T09:33:19.717Z</time></trkpt><trkpt lat="42.6310242" lon="13.8747264"><ele>92.0</ele><time>2026-04-19T09:33:20.716Z</time></trkpt><trkpt lat="42.6310167" lon="13.874542"><ele>92.0</ele><time>2026-04-19T09:33:21.716Z</time></trkpt><trkpt lat="42.6310183" lon="13.8743597"><ele>92.0</ele><time>2026-04-19T09:33:22.716Z</time></trkpt><trkpt lat="42.6310133" lon="13.8741834"><ele>92.0</ele><time>2026-04-19T09:33:23.716Z</time></trkpt><trkpt lat="42.6310116" lon="13.8740086"><ele>92.0</ele><time>2026-04-19T09:33:24.717Z</time></trkpt><trkpt lat="42.6310033" lon="13.8738375"><ele>92.0</ele><time>2026-04-19T09:33:25.717Z</time></trkpt><trkpt lat="42.630993" lon="13.8736711"><ele>92.0</ele><time>2026-04-19T09:33:26.717Z</time></trkpt><trkpt lat="42.6309827" lon="13.8735001"><ele>92.0</ele><time>2026-04-19T09:33:27.717Z</time></trkpt><trkpt lat="42.6309777" lon="13.8733332"><ele>92.0</ele><time>2026-04-19T09:33:28.716Z</time></trkpt><trkpt lat="42.6309687" lon="13.8731624"><ele>92.25</ele><time>2026-04-19T09:33:29.717Z</time></trkpt><trkpt lat="42.6309567" lon="13.8730019"><ele>92.5</ele><time>2026-04-19T09:33:30.716Z</time></trkpt><trkpt lat="42.6309487" lon="13.8728431"><ele>92.75</ele><time>2026-04-19T09:33:31.717Z</time></trkpt><trkpt lat="42.6309448" lon="13.8726774"><ele>93.0</ele><time>2026-04-19T09:33:32.717Z</time></trkpt><trkpt lat="42.6309316" lon="13.8724968"><ele>94.0</ele><time>2026-04-19T09:33:33.717Z</time></trkpt><trkpt lat="42.6309153" lon="13.8723017"><ele>95.0</ele><time>2026-04-19T09:33:34.716Z</time></trkpt><trkpt lat="42.6308938" lon="13.8721023"><ele>96.0</ele><time>2026-04-19T09:33:35.716Z</time></trkpt><trkpt lat="42.6308562" lon="13.8718938"><ele>96.66666666666666</ele><time>2026-04-19T09:33:36.716Z</time></trkpt><trkpt lat="42.6308101" lon="13.8716726"><ele>97.33333333333333</ele><time>2026-04-19T09:33:37.716Z</time></trkpt><trkpt lat="42.6307727" lon="13.8714563"><ele>98.0</ele><time>2026-04-19T09:33:38.715Z</time></trkpt><trkpt lat="42.6307345" lon="13.8712407"><ele>98.0</ele><time>2026-04-19T09:33:39.716Z</time></trkpt><trkpt lat="42.6306972" lon="13.8710206"><ele>98.0</ele><time>2026-04-19T09:33:40.716Z</time></trkpt><trkpt lat="42.6306844" lon="13.8708583"><ele>98.0</ele><time>2026-04-19T09:33:41.716Z</time></trkpt><trkpt lat="42.630671" lon="13.8706992"><ele>98.0</ele><time>2026-04-19T09:33:42.715Z</time></trkpt><trkpt lat="42.6306671" lon="13.8705558"><ele>98.75</ele><time>2026-04-19T09:33:43.715Z</time></trkpt><trkpt lat="42.6306608" lon="13.870406"><ele>99.5</ele><time>2026-04-19T09:33:44.716Z</time></trkpt><trkpt lat="42.630648" lon="13.8702587"><ele>100.25</ele><time>2026-04-19T09:33:45.715Z</time></trkpt><trkpt lat="42.630627" lon="13.8700808"><ele>101.0</ele><time>2026-04-19T09:33:46.715Z</time></trkpt><trkpt lat="42.6306103" lon="13.8699198"><ele>101.0</ele><time>2026-04-19T09:33:47.715Z</time></trkpt><trkpt lat="42.6305584" lon="13.8697063"><ele>101.0</ele><time>2026-04-19T09:33:48.715Z</time></trkpt><trkpt lat="42.6305258" lon="13.8695711"><ele>101.0</ele><time>2026-04-19T09:33:49.716Z</time></trkpt><trkpt lat="42.6304893" lon="13.8694752"><ele>101.0</ele><time>2026-04-19T09:33:50.715Z</time></trkpt><trkpt lat="42.6304399" lon="13.869354"><ele>100.6</ele><time>2026-04-19T09:33:51.715Z</time></trkpt><trkpt lat="42.6303874" lon="13.8692284"><ele>100.19999999999999</ele><time>2026-04-19T09:33:52.716Z</time></trkpt><trkpt lat="42.6303423" lon="13.8691106"><ele>99.80000000000001</ele><time>2026-04-19T09:33:53.715Z</time></trkpt><trkpt lat="42.6303236" lon="13.86894"><ele>99.4</ele><time>2026-04-19T09:33:54.715Z</time></trkpt><trkpt lat="42.6303252" lon="13.8688154"><ele>99.0</ele><time>2026-04-19T09:33:55.716Z</time></trkpt><trkpt lat="42.6303012" lon="13.8686848"><ele>99.0</ele><time>2026-04-19T09:33:56.716Z</time></trkpt><trkpt lat="42.6302883" lon="13.8685514"><ele>99.0</ele><time>2026-04-19T09:33:57.716Z</time></trkpt><trkpt lat="42.6302559" lon="13.868399"><ele>99.0</ele><time>2026-04-19T09:33:58.716Z</time></trkpt><trkpt lat="42.6302154" lon="13.8682247"><ele>99.0</ele><time>2026-04-19T09:33:59.715Z</time></trkpt><trkpt lat="42.63015" lon="13.867995"><ele>100.0</ele><time>2026-04-19T09:34:00.715Z</time></trkpt><trkpt lat="42.6301036" lon="13.8678098"><ele>101.0</ele><time>2026-04-19T09:34:01.715Z</time></trkpt><trkpt lat="42.6300499" lon="13.8675824"><ele>102.0</ele><time>2026-04-19T09:34:02.716Z</time></trkpt><trkpt lat="42.6300019" lon="13.8673198"><ele>102.33333333333334</ele><time>2026-04-19T09:34:03.715Z</time></trkpt><trkpt lat="42.629957" lon="13.8670501"><ele>102.66666666666667</ele><time>2026-04-19T09:34:04.716Z</time></trkpt><trkpt lat="42.6299078" lon="13.8667805"><ele>103.0</ele><time>2026-04-19T09:34:05.715Z</time></trkpt><trkpt lat="42.6298548" lon="13.8665244"><ele>103.0</ele><time>2026-04-19T09:34:06.716Z</time></trkpt><trkpt lat="42.6298056" lon="13.8662769"><ele>103.0</ele><time>2026-04-19T09:34:07.715Z</time></trkpt><trkpt lat="42.6297738" lon="13.8660603"><ele>103.0</ele><time>2026-04-19T09:34:08.716Z</time></trkpt><trkpt lat="42.6297259" lon="13.8658315"><ele>104.0</ele><time>2026-04-19T09:34:09.716Z</time></trkpt><trkpt lat="42.6296754" lon="13.8656042"><ele>105.0</ele><time>2026-04-19T09:34:10.715Z</time></trkpt><trkpt lat="42.6296085" lon="13.8653639"><ele>106.0</ele><time>2026-04-19T09:34:11.716Z</time></trkpt><trkpt lat="42.6295386" lon="13.8651379"><ele>105.33333333333334</ele><time>2026-04-19T09:34:12.715Z</time></trkpt><trkpt lat="42.6294615" lon="13.864923"><ele>104.66666666666666</ele><time>2026-04-19T09:34:13.715Z</time></trkpt><trkpt lat="42.6293828" lon="13.864713"><ele>104.0</ele><time>2026-04-19T09:34:14.716Z</time></trkpt><trkpt lat="42.6293055" lon="13.8644989"><ele>104.66666666666666</ele><time>2026-04-19T09:34:15.716Z</time></trkpt><trkpt lat="42.6292359" lon="13.864252"><ele>105.33333333333334</ele><time>2026-04-19T09:34:16.716Z</time></trkpt><trkpt lat="42.6291856" lon="13.8640099"><ele>106.0</ele><time>2026-04-19T09:34:17.716Z</time></trkpt><trkpt lat="42.6291499" lon="13.8637469"><ele>106.0</ele><time>2026-04-19T09:34:18.716Z</time></trkpt><trkpt lat="42.6291219" lon="13.8634772"><ele>106.0</ele><time>2026-04-19T09:34:19.716Z</time></trkpt><trkpt lat="42.6290982" lon="13.8632058"><ele>106.0</ele><time>2026-04-19T09:34:20.716Z</time></trkpt><trkpt lat="42.6290752" lon="13.8629311"><ele>106.0</ele><time>2026-04-19T09:34:21.715Z</time></trkpt><trkpt lat="42.6290509" lon="13.8626527"><ele>106.0</ele><time>2026-04-19T09:34:22.715Z</time></trkpt><trkpt lat="42.6290257" lon="13.8623699"><ele>106.0</ele><time>2026-04-19T09:34:23.716Z</time></trkpt><trkpt lat="42.6290091" lon="13.86209"><ele>105.66666666666667</ele><time>2026-04-19T09:34:24.716Z</time></trkpt><trkpt lat="42.628991" lon="13.8618237"><ele>105.33333333333334</ele><time>2026-04-19T09:34:25.716Z</time></trkpt><trkpt lat="42.6289714" lon="13.8615542"><ele>105.0</ele><time>2026-04-19T09:34:26.715Z</time></trkpt><trkpt lat="42.6289528" lon="13.8612752"><ele>105.0</ele><time>2026-04-19T09:34:27.715Z</time></trkpt><trkpt lat="42.6289357" lon="13.8609923"><ele>105.0</ele><time>2026-04-19T09:34:28.715Z</time></trkpt><trkpt lat="42.6289136" lon="13.8607033"><ele>105.0</ele><time>2026-04-19T09:34:29.715Z</time></trkpt><trkpt lat="42.6288884" lon="13.8604106"><ele>105.0</ele><time>2026-04-19T09:34:30.716Z</time></trkpt><trkpt lat="42.6288618" lon="13.8601029"><ele>105.0</ele><time>2026-04-19T09:34:31.715Z</time></trkpt><trkpt lat="42.6288414" lon="13.8598044"><ele>105.0</ele><time>2026-04-19T09:34:32.716Z</time></trkpt><trkpt lat="42.6288269" lon="13.8595428"><ele>104.66666666666666</ele><time>2026-04-19T09:34:33.715Z</time></trkpt><trkpt lat="42.6288108" lon="13.8592787"><ele>104.33333333333333</ele><time>2026-04-19T09:34:34.716Z</time></trkpt><trkpt lat="42.6287904" lon="13.8590276"><ele>104.0</ele><time>2026-04-19T09:34:35.715Z</time></trkpt><trkpt lat="42.6287751" lon="13.8587814"><ele>104.0</ele><time>2026-04-19T09:34:36.715Z</time></trkpt><trkpt lat="42.6287617" lon="13.8585367"><ele>104.0</ele><time>2026-04-19T09:34:37.715Z</time></trkpt><trkpt lat="42.628736" lon="13.8582747"><ele>104.0</ele><time>2026-04-19T09:34:38.716Z</time></trkpt><trkpt lat="42.6287161" lon="13.8580016"><ele>103.66666666666666</ele><time>2026-04-19T09:34:39.715Z</time></trkpt><trkpt lat="42.6286989" lon="13.8577572"><ele>103.33333333333334</ele><time>2026-04-19T09:34:40.716Z</time></trkpt><trkpt lat="42.6286657" lon="13.8575196"><ele>103.0</ele><time>2026-04-19T09:34:41.716Z</time></trkpt><trkpt lat="42.6286313" lon="13.8572566"><ele>103.0</ele><time>2026-04-19T09:34:42.715Z</time></trkpt><trkpt lat="42.6286027" lon="13.8569938"><ele>103.0</ele><time>2026-04-19T09:34:43.716Z</time></trkpt><trkpt lat="42.6285806" lon="13.8567392"><ele>103.0</ele><time>2026-04-19T09:34:44.715Z</time></trkpt><trkpt lat="42.6285594" lon="13.8564862"><ele>102.66666666666667</ele><time>2026-04-19T09:34:45.715Z</time></trkpt><trkpt lat="42.6285345" lon="13.8562344"><ele>102.33333333333334</ele><time>2026-04-19T09:34:46.715Z</time></trkpt><trkpt lat="42.6285123" lon="13.8559771"><ele>102.0</ele><time>2026-04-19T09:34:47.715Z</time></trkpt><trkpt lat="42.6284895" lon="13.8557241"><ele>102.0</ele><time>2026-04-19T09:34:48.715Z</time></trkpt><trkpt lat="42.6284698" lon="13.8554818"><ele>102.0</ele><time>2026-04-19T09:34:49.716Z</time></trkpt><trkpt lat="42.628448" lon="13.8552356"><ele>102.0</ele><time>2026-04-19T09:34:50.715Z</time></trkpt><trkpt lat="42.6284297" lon="13.8550026"><ele>102.0</ele><time>2026-04-19T09:34:51.715Z</time></trkpt><trkpt lat="42.628415" lon="13.8547943"><ele>102.0</ele><time>2026-04-19T09:34:52.716Z</time></trkpt><trkpt lat="42.6283915" lon="13.8545775"><ele>102.0</ele><time>2026-04-19T09:34:53.715Z</time></trkpt><trkpt lat="42.6283743" lon="13.8543614"><ele>102.0</ele><time>2026-04-19T09:34:54.715Z</time></trkpt><trkpt lat="42.6283678" lon="13.8541512"><ele>102.0</ele><time>2026-04-19T09:34:55.715Z</time></trkpt><trkpt lat="42.6283638" lon="13.8539525"><ele>102.0</ele><time>2026-04-19T09:34:56.716Z</time></trkpt><trkpt lat="42.6283518" lon="13.8537407"><ele>102.0</ele><time>2026-04-19T09:34:57.716Z</time></trkpt><trkpt lat="42.6283489" lon="13.8535334"><ele>102.0</ele><time>2026-04-19T09:34:58.716Z</time></trkpt><trkpt lat="42.6283669" lon="13.8533255"><ele>102.0</ele><time>2026-04-19T09:34:59.715Z</time></trkpt><trkpt lat="42.6283959" lon="13.853146"><ele>102.0</ele><time>2026-04-19T09:35:00.715Z</time></trkpt><trkpt lat="42.6284107" lon="13.8529665"><ele>102.25</ele><time>2026-04-19T09:35:01.716Z</time></trkpt><trkpt lat="42.6284256" lon="13.8527807"><ele>102.5</ele><time>2026-04-19T09:35:02.715Z</time></trkpt><trkpt lat="42.6284473" lon="13.852585"><ele>102.75</ele><time>2026-04-19T09:35:03.716Z</time></trkpt><trkpt lat="42.6284873" lon="13.8523891"><ele>103.0</ele><time>2026-04-19T09:35:04.716Z</time></trkpt><trkpt lat="42.6285518" lon="13.8522188"><ele>103.33333333333334</ele><time>2026-04-19T09:35:05.715Z</time></trkpt><trkpt lat="42.6286148" lon="13.8520276"><ele>103.66666666666666</ele><time>2026-04-19T09:35:06.716Z</time></trkpt><trkpt lat="42.6286991" lon="13.8518288"><ele>104.0</ele><time>2026-04-19T09:35:07.715Z</time></trkpt><trkpt lat="42.6287842" lon="13.851635"><ele>105.66666666666666</ele><time>2026-04-19T09:35:08.715Z</time></trkpt><trkpt lat="42.6288536" lon="13.851421"><ele>107.33333333333334</ele><time>2026-04-19T09:35:09.715Z</time></trkpt><trkpt lat="42.628929" lon="13.8512086"><ele>109.0</ele><time>2026-04-19T09:35:10.716Z</time></trkpt><trkpt lat="42.6289986" lon="13.850989"><ele>109.66666666666667</ele><time>2026-04-19T09:35:11.715Z</time></trkpt><trkpt lat="42.62905" lon="13.8507705"><ele>110.33333333333334</ele><time>2026-04-19T09:35:12.715Z</time></trkpt><trkpt lat="42.6291012" lon="13.8505671"><ele>111.0</ele><time>2026-04-19T09:35:13.715Z</time></trkpt><trkpt lat="42.6291519" lon="13.8503703"><ele>111.0</ele><time>2026-04-19T09:35:14.716Z</time></trkpt><trkpt lat="42.629197" lon="13.8501592"><ele>111.0</ele><time>2026-04-19T09:35:15.715Z</time></trkpt><trkpt lat="42.6292392" lon="13.8499597"><ele>111.0</ele><time>2026-04-19T09:35:16.715Z</time></trkpt><trkpt lat="42.6292706" lon="13.8497758"><ele>111.75</ele><time>2026-04-19T09:35:17.716Z</time></trkpt><trkpt lat="42.6292775" lon="13.8495888"><ele>112.5</ele><time>2026-04-19T09:35:18.715Z</time></trkpt><trkpt lat="42.6292675" lon="13.8494129"><ele>113.25</ele><time>2026-04-19T09:35:19.715Z</time></trkpt><trkpt lat="42.6292401" lon="13.8492208"><ele>114.0</ele><time>2026-04-19T09:35:20.716Z</time></trkpt><trkpt lat="42.6291994" lon="13.8490171"><ele>114.0</ele><time>2026-04-19T09:35:21.716Z</time></trkpt><trkpt lat="42.6291632" lon="13.8488164"><ele>114.0</ele><time>2026-04-19T09:35:22.715Z</time></trkpt><trkpt lat="42.629138" lon="13.8486361"><ele>114.0</ele><time>2026-04-19T09:35:23.715Z</time></trkpt><trkpt lat="42.6290994" lon="13.8484328"><ele>114.0</ele><time>2026-04-19T09:35:24.715Z</time></trkpt><trkpt lat="42.6290692" lon="13.8482582"><ele>114.16666666666667</ele><time>2026-04-19T09:35:25.715Z</time></trkpt><trkpt lat="42.6290433" lon="13.8481246"><ele>114.33333333333334</ele><time>2026-04-19T09:35:26.716Z</time></trkpt><trkpt lat="42.6290246" lon="13.8480233"><ele>114.5</ele><time>2026-04-19T09:35:27.715Z</time></trkpt><trkpt lat="42.629007" lon="13.8479151"><ele>114.66666666666667</ele><time>2026-04-19T09:35:29.715Z</time></trkpt><trkpt lat="42.6289955" lon="13.8478245"><ele>114.83333333333334</ele><time>2026-04-19T09:35:32.715Z</time></trkpt><trkpt lat="42.6290042" lon="13.8476952"><ele>115.0</ele><time>2026-04-19T09:36:32.715Z</time></trkpt><trkpt lat="42.6290015" lon="13.8475956"><ele>115.5</ele><time>2026-04-19T09:36:33.715Z</time></trkpt><trkpt lat="42.6289906" lon="13.8474556"><ele>116.0</ele><time>2026-04-19T09:36:34.716Z</time></trkpt><trkpt lat="42.6289769" lon="13.8472929"><ele>116.5</ele><time>2026-04-19T09:36:35.715Z</time></trkpt><trkpt lat="42.6289502" lon="13.8470995"><ele>117.0</ele><time>2026-04-19T09:36:36.715Z</time></trkpt><trkpt lat="42.62892" lon="13.8468895"><ele>117.66666666666666</ele><time>2026-04-19T09:36:37.715Z</time></trkpt><trkpt lat="42.6288898" lon="13.8466812"><ele>118.33333333333333</ele><time>2026-04-19T09:36:38.715Z</time></trkpt><trkpt lat="42.6288608" lon="13.8464852"><ele>119.0</ele><time>2026-04-19T09:36:39.716Z</time></trkpt><trkpt lat="42.6288323" lon="13.8462902"><ele>119.0</ele><time>2026-04-19T09:36:40.715Z</time></trkpt><trkpt lat="42.6288053" lon="13.8460998"><ele>119.0</ele><time>2026-04-19T09:36:41.716Z</time></trkpt><trkpt lat="42.6287722" lon="13.8459085"><ele>119.0</ele><time>2026-04-19T09:36:42.715Z</time></trkpt><trkpt lat="42.6287448" lon="13.8457142"><ele>119.0</ele><time>2026-04-19T09:36:43.715Z</time></trkpt><trkpt lat="42.6287129" lon="13.8455126"><ele>119.33333333333333</ele><time>2026-04-19T09:36:44.715Z</time></trkpt><trkpt lat="42.6286897" lon="13.8453099"><ele>119.66666666666666</ele><time>2026-04-19T09:36:45.715Z</time></trkpt><trkpt lat="42.6286678" lon="13.8451078"><ele>120.0</ele><time>2026-04-19T09:36:46.715Z</time></trkpt><trkpt lat="42.6286469" lon="13.844905"><ele>119.5</ele><time>2026-04-19T09:36:47.715Z</time></trkpt><trkpt lat="42.6286275" lon="13.8447092"><ele>119.0</ele><time>2026-04-19T09:36:48.715Z</time></trkpt><trkpt lat="42.6286125" lon="13.8445001"><ele>118.5</ele><time>2026-04-19T09:36:49.716Z</time></trkpt><trkpt lat="42.6285905" lon="13.8443007"><ele>118.0</ele><time>2026-04-19T09:36:50.715Z</time></trkpt><trkpt lat="42.6285733" lon="13.8441078"><ele>118.0</ele><time>2026-04-19T09:36:51.716Z</time></trkpt><trkpt lat="42.6285611" lon="13.8439265"><ele>118.0</ele><time>2026-04-19T09:36:52.715Z</time></trkpt><trkpt lat="42.6285454" lon="13.843748"><ele>118.0</ele><time>2026-04-19T09:36:53.716Z</time></trkpt><trkpt lat="42.6285319" lon="13.8435661"><ele>118.0</ele><time>2026-04-19T09:36:54.716Z</time></trkpt><trkpt lat="42.6285171" lon="13.8433846"><ele>117.5</ele><time>2026-04-19T09:36:55.715Z</time></trkpt><trkpt lat="42.6284937" lon="13.8432058"><ele>117.0</ele><time>2026-04-19T09:36:56.715Z</time></trkpt><trkpt lat="42.6284746" lon="13.8430283"><ele>116.5</ele><time>2026-04-19T09:36:57.716Z</time></trkpt><trkpt lat="42.6284563" lon="13.8428516"><ele>116.0</ele><time>2026-04-19T09:36:58.716Z</time></trkpt><trkpt lat="42.628435" lon="13.8426821"><ele>115.75</ele><time>2026-04-19T09:36:59.715Z</time></trkpt><trkpt lat="42.6284143" lon="13.8425092"><ele>115.5</ele><time>2026-04-19T09:37:00.716Z</time></trkpt><trkpt lat="42.6283885" lon="13.8423328"><ele>115.25</ele><time>2026-04-19T09:37:01.716Z</time></trkpt><trkpt lat="42.6283556" lon="13.8421611"><ele>115.0</ele><time>2026-04-19T09:37:02.715Z</time></trkpt><trkpt lat="42.6283303" lon="13.8419934"><ele>115.0</ele><time>2026-04-19T09:37:03.716Z</time></trkpt><trkpt lat="42.6283099" lon="13.8418348"><ele>115.0</ele><time>2026-04-19T09:37:04.715Z</time></trkpt><trkpt lat="42.6282984" lon="13.8416888"><ele>115.0</ele><time>2026-04-19T09:37:05.715Z</time></trkpt><trkpt lat="42.6282913" lon="13.8415424"><ele>115.0</ele><time>2026-04-19T09:37:06.715Z</time></trkpt><trkpt lat="42.6282896" lon="13.8413862"><ele>115.0</ele><time>2026-04-19T09:37:07.715Z</time></trkpt><trkpt lat="42.6282917" lon="13.8412141"><ele>115.0</ele><time>2026-04-19T09:37:08.715Z</time></trkpt><trkpt lat="42.628296" lon="13.8410311"><ele>115.0</ele><time>2026-04-19T09:37:09.716Z</time></trkpt><trkpt lat="42.6283054" lon="13.8408311"><ele>115.0</ele><time>2026-04-19T09:37:10.715Z</time></trkpt><trkpt lat="42.6283188" lon="13.8406189"><ele>115.0</ele><time>2026-04-19T09:37:11.716Z</time></trkpt><trkpt lat="42.6283231" lon="13.8403898"><ele>115.0</ele><time>2026-04-19T09:37:12.715Z</time></trkpt><trkpt lat="42.6283302" lon="13.8401662"><ele>115.0</ele><time>2026-04-19T09:37:13.716Z</time></trkpt><trkpt lat="42.628307" lon="13.8399463"><ele>115.0</ele><time>2026-04-19T09:37:14.715Z</time></trkpt><trkpt lat="42.6282522" lon="13.8397546"><ele>115.0</ele><time>2026-04-19T09:37:15.715Z</time></trkpt><trkpt lat="42.6282255" lon="13.8395369"><ele>115.0</ele><time>2026-04-19T09:37:16.715Z</time></trkpt><trkpt lat="42.6282047" lon="13.8393287"><ele>115.0</ele><time>2026-04-19T09:37:17.716Z</time></trkpt><trkpt lat="42.6281972" lon="13.8391005"><ele>115.0</ele><time>2026-04-19T09:37:18.716Z</time></trkpt><trkpt lat="42.6281988" lon="13.8388788"><ele>115.0</ele><time>2026-04-19T09:37:19.715Z</time></trkpt><trkpt lat="42.6282037" lon="13.8386642"><ele>115.0</ele><time>2026-04-19T09:37:20.715Z</time></trkpt><trkpt lat="42.6282075" lon="13.8384712"><ele>115.25</ele><time>2026-04-19T09:37:21.716Z</time></trkpt><trkpt lat="42.6282201" lon="13.8382846"><ele>115.5</ele><time>2026-04-19T09:37:22.715Z</time></trkpt><trkpt lat="42.6282331" lon="13.8381098"><ele>115.75</ele><time>2026-04-19T09:37:23.715Z</time></trkpt><trkpt lat="42.6282406" lon="13.837957"><ele>116.0</ele><time>2026-04-19T09:37:24.715Z</time></trkpt><trkpt lat="42.6282446" lon="13.8378203"><ele>116.0</ele><time>2026-04-19T09:37:25.715Z</time></trkpt><trkpt lat="42.6282506" lon="13.8376996"><ele>116.0</ele><time>2026-04-19T09:37:26.716Z</time></trkpt><trkpt lat="42.6282681" lon="13.8375985"><ele>116.0</ele><time>2026-04-19T09:37:27.715Z</time></trkpt><trkpt lat="42.6282846" lon="13.8375139"><ele>116.0</ele><time>2026-04-19T09:37:28.715Z</time></trkpt><trkpt lat="42.6282336" lon="13.8373385"><ele>116.0</ele><time>2026-04-19T09:37:30.715Z</time></trkpt><trkpt lat="42.6281896" lon="13.8372356"><ele>116.5</ele><time>2026-04-19T09:37:31.715Z</time></trkpt><trkpt lat="42.6281465" lon="13.8370964"><ele>117.0</ele><time>2026-04-19T09:37:32.715Z</time></trkpt><trkpt lat="42.6280994" lon="13.8369295"><ele>117.5</ele><time>2026-04-19T09:37:33.716Z</time></trkpt><trkpt lat="42.6280354" lon="13.8367204"><ele>118.0</ele><time>2026-04-19T09:37:34.716Z</time></trkpt><trkpt lat="42.6279619" lon="13.8364742"><ele>118.0</ele><time>2026-04-19T09:37:35.716Z</time></trkpt><trkpt lat="42.6278851" lon="13.8361999"><ele>118.0</ele><time>2026-04-19T09:37:36.715Z</time></trkpt><trkpt lat="42.6277956" lon="13.8359145"><ele>118.0</ele><time>2026-04-19T09:37:37.715Z</time></trkpt><trkpt lat="42.6277361" lon="13.8356549"><ele>116.66666666666667</ele><time>2026-04-19T09:37:38.716Z</time></trkpt><trkpt lat="42.6276899" lon="13.8353853"><ele>115.33333333333334</ele><time>2026-04-19T09:37:39.716Z</time></trkpt><trkpt lat="42.6276639" lon="13.8351009"><ele>114.0</ele><time>2026-04-19T09:37:40.715Z</time></trkpt><trkpt lat="42.627663" lon="13.8347888"><ele>113.0</ele><time>2026-04-19T09:37:41.716Z</time></trkpt><trkpt lat="42.627683" lon="13.8344556"><ele>112.0</ele><time>2026-04-19T09:37:42.716Z</time></trkpt><trkpt lat="42.6277111" lon="13.8341082"><ele>112.0</ele><time>2026-04-19T09:37:43.716Z</time></trkpt><trkpt lat="42.6277378" lon="13.8337828"><ele>112.0</ele><time>2026-04-19T09:37:44.715Z</time></trkpt><trkpt lat="42.6277713" lon="13.8334756"><ele>112.5</ele><time>2026-04-19T09:37:45.715Z</time></trkpt><trkpt lat="42.6278238" lon="13.8331714"><ele>113.0</ele><time>2026-04-19T09:37:46.716Z</time></trkpt><trkpt lat="42.6279048" lon="13.8328721"><ele>112.33333333333333</ele><time>2026-04-19T09:37:47.715Z</time></trkpt><trkpt lat="42.6279971" lon="13.8325959"><ele>111.66666666666666</ele><time>2026-04-19T09:37:48.715Z</time></trkpt><trkpt lat="42.6280979" lon="13.832346"><ele>111.0</ele><time>2026-04-19T09:37:49.715Z</time></trkpt><trkpt lat="42.6281931" lon="13.8321074"><ele>111.0</ele><time>2026-04-19T09:37:50.715Z</time></trkpt><trkpt lat="42.6282941" lon="13.8318843"><ele>111.0</ele><time>2026-04-19T09:37:51.715Z</time></trkpt><trkpt lat="42.6283892" lon="13.8316672"><ele>111.0</ele><time>2026-04-19T09:37:52.716Z</time></trkpt><trkpt lat="42.6284835" lon="13.831449"><ele>112.0</ele><time>2026-04-19T09:37:53.715Z</time></trkpt><trkpt lat="42.6285785" lon="13.8312202"><ele>113.0</ele><time>2026-04-19T09:37:54.716Z</time></trkpt><trkpt lat="42.6286718" lon="13.8310036"><ele>114.0</ele><time>2026-04-19T09:37:55.716Z</time></trkpt><trkpt lat="42.62876" lon="13.8307985"><ele>115.33333333333334</ele><time>2026-04-19T09:37:56.715Z</time></trkpt><trkpt lat="42.6288431" lon="13.8306115"><ele>116.66666666666667</ele><time>2026-04-19T09:37:57.716Z</time></trkpt><trkpt lat="42.6289276" lon="13.8304272"><ele>118.0</ele><time>2026-04-19T09:37:58.715Z</time></trkpt><trkpt lat="42.6290074" lon="13.8302455"><ele>117.66666666666667</ele><time>2026-04-19T09:37:59.716Z</time></trkpt><trkpt lat="42.6290826" lon="13.830063"><ele>117.33333333333334</ele><time>2026-04-19T09:38:00.715Z</time></trkpt><trkpt lat="42.6291605" lon="13.829891"><ele>117.0</ele><time>2026-04-19T09:38:01.716Z</time></trkpt><trkpt lat="42.6292397" lon="13.8297184"><ele>117.0</ele><time>2026-04-19T09:38:02.715Z</time></trkpt><trkpt lat="42.6293143" lon="13.829545"><ele>117.0</ele><time>2026-04-19T09:38:03.715Z</time></trkpt><trkpt lat="42.6293892" lon="13.8293816"><ele>117.0</ele><time>2026-04-19T09:38:04.715Z</time></trkpt><trkpt lat="42.6294509" lon="13.8292226"><ele>117.0</ele><time>2026-04-19T09:38:05.716Z</time></trkpt><trkpt lat="42.6295043" lon="13.82907"><ele>119.75</ele><time>2026-04-19T09:38:06.716Z</time></trkpt><trkpt lat="42.6295491" lon="13.8289169"><ele>122.5</ele><time>2026-04-19T09:38:07.715Z</time></trkpt><trkpt lat="42.6295825" lon="13.8287595"><ele>125.25</ele><time>2026-04-19T09:38:08.716Z</time></trkpt><trkpt lat="42.6296118" lon="13.8285896"><ele>128.0</ele><time>2026-04-19T09:38:09.715Z</time></trkpt><trkpt lat="42.6296312" lon="13.8284043"><ele>128.0</ele><time>2026-04-19T09:38:10.716Z</time></trkpt><trkpt lat="42.6296337" lon="13.8282148"><ele>128.0</ele><time>2026-04-19T09:38:11.715Z</time></trkpt><trkpt lat="42.6296132" lon="13.8280214"><ele>128.0</ele><time>2026-04-19T09:38:12.715Z</time></trkpt><trkpt lat="42.6295727" lon="13.8278209"><ele>128.0</ele><time>2026-04-19T09:38:13.715Z</time></trkpt><trkpt lat="42.629519" lon="13.827612"><ele>123.33333333333333</ele><time>2026-04-19T09:38:14.716Z</time></trkpt><trkpt lat="42.6294458" lon="13.8273904"><ele>118.66666666666666</ele><time>2026-04-19T09:38:15.716Z</time></trkpt><trkpt lat="42.6293682" lon="13.8271748"><ele>114.0</ele><time>2026-04-19T09:38:16.715Z</time></trkpt><trkpt lat="42.6293063" lon="13.8269616"><ele>114.66666666666666</ele><time>2026-04-19T09:38:17.715Z</time></trkpt><trkpt lat="42.6292636" lon="13.8267559"><ele>115.33333333333333</ele><time>2026-04-19T09:38:18.715Z</time></trkpt><trkpt lat="42.6292074" lon="13.8265475"><ele>116.0</ele><time>2026-04-19T09:38:19.716Z</time></trkpt><trkpt lat="42.6291534" lon="13.8263455"><ele>116.0</ele><time>2026-04-19T09:38:20.716Z</time></trkpt><trkpt lat="42.6291006" lon="13.8261436"><ele>116.0</ele><time>2026-04-19T09:38:21.716Z</time></trkpt><trkpt lat="42.6290446" lon="13.8259422"><ele>116.0</ele><time>2026-04-19T09:38:22.715Z</time></trkpt><trkpt lat="42.6289854" lon="13.8257296"><ele>117.0</ele><time>2026-04-19T09:38:23.715Z</time></trkpt><trkpt lat="42.6289225" lon="13.8255195"><ele>118.0</ele><time>2026-04-19T09:38:24.716Z</time></trkpt><trkpt lat="42.6288645" lon="13.8253098"><ele>119.0</ele><time>2026-04-19T09:38:25.716Z</time></trkpt><trkpt lat="42.6288102" lon="13.8251037"><ele>119.66666666666666</ele><time>2026-04-19T09:38:26.715Z</time></trkpt><trkpt lat="42.6287562" lon="13.8248922"><ele>120.33333333333334</ele><time>2026-04-19T09:38:27.715Z</time></trkpt><trkpt lat="42.6286879" lon="13.8246893"><ele>121.0</ele><time>2026-04-19T09:38:28.716Z</time></trkpt><trkpt lat="42.6286294" lon="13.8244869"><ele>118.66666666666667</ele><time>2026-04-19T09:38:29.715Z</time></trkpt><trkpt lat="42.6285697" lon="13.8242785"><ele>116.33333333333334</ele><time>2026-04-19T09:38:30.715Z</time></trkpt><trkpt lat="42.6285089" lon="13.8240705"><ele>114.0</ele><time>2026-04-19T09:38:31.715Z</time></trkpt><trkpt lat="42.6284426" lon="13.8238746"><ele>114.0</ele><time>2026-04-19T09:38:32.715Z</time></trkpt><trkpt lat="42.6283659" lon="13.8236883"><ele>114.0</ele><time>2026-04-19T09:38:33.715Z</time></trkpt><trkpt lat="42.6282804" lon="13.8235162"><ele>114.0</ele><time>2026-04-19T09:38:34.715Z</time></trkpt><trkpt lat="42.6281831" lon="13.8233429"><ele>115.33333333333334</ele><time>2026-04-19T09:38:35.716Z</time></trkpt><trkpt lat="42.6280786" lon="13.8231822"><ele>116.66666666666667</ele><time>2026-04-19T09:38:36.715Z</time></trkpt><trkpt lat="42.627976" lon="13.8230258"><ele>118.0</ele><time>2026-04-19T09:38:37.715Z</time></trkpt><trkpt lat="42.6278652" lon="13.8228823"><ele>117.25</ele><time>2026-04-19T09:38:38.716Z</time></trkpt><trkpt lat="42.627754" lon="13.8227548"><ele>116.5</ele><time>2026-04-19T09:38:39.716Z</time></trkpt><trkpt lat="42.6276519" lon="13.8226316"><ele>115.75</ele><time>2026-04-19T09:38:40.715Z</time></trkpt><trkpt lat="42.6275532" lon="13.8225138"><ele>115.0</ele><time>2026-04-19T09:38:41.716Z</time></trkpt><trkpt lat="42.6274559" lon="13.8223953"><ele>115.0</ele><time>2026-04-19T09:38:42.715Z</time></trkpt><trkpt lat="42.62737" lon="13.8222858"><ele>115.0</ele><time>2026-04-19T09:38:43.716Z</time></trkpt><trkpt lat="42.6272892" lon="13.8221749"><ele>115.0</ele><time>2026-04-19T09:38:44.715Z</time></trkpt><trkpt lat="42.6272275" lon="13.822062"><ele>115.0</ele><time>2026-04-19T09:38:45.716Z</time></trkpt><trkpt lat="42.6271738" lon="13.8219403"><ele>115.0</ele><time>2026-04-19T09:38:46.715Z</time></trkpt><trkpt lat="42.6271359" lon="13.8218159"><ele>115.6</ele><time>2026-04-19T09:38:47.715Z</time></trkpt><trkpt lat="42.6271123" lon="13.8216883"><ele>116.2</ele><time>2026-04-19T09:38:48.716Z</time></trkpt><trkpt lat="42.6271039" lon="13.8215602"><ele>116.80000000000001</ele><time>2026-04-19T09:38:49.716Z</time></trkpt><trkpt lat="42.6271025" lon="13.8214093"><ele>117.4</ele><time>2026-04-19T09:38:50.715Z</time></trkpt><trkpt lat="42.6271229" lon="13.8212549"><ele>118.0</ele><time>2026-04-19T09:38:51.715Z</time></trkpt><trkpt lat="42.6271467" lon="13.8210862"><ele>118.5</ele><time>2026-04-19T09:38:52.716Z</time></trkpt><trkpt lat="42.6271868" lon="13.8209305"><ele>119.0</ele><time>2026-04-19T09:38:53.716Z</time></trkpt><trkpt lat="42.6272222" lon="13.8207711"><ele>119.5</ele><time>2026-04-19T09:38:54.716Z</time></trkpt><trkpt lat="42.6272549" lon="13.820615"><ele>120.0</ele><time>2026-04-19T09:38:55.715Z</time></trkpt><trkpt lat="42.6272811" lon="13.820457"><ele>120.0</ele><time>2026-04-19T09:38:56.715Z</time></trkpt><trkpt lat="42.6273084" lon="13.8203086"><ele>120.0</ele><time>2026-04-19T09:38:57.715Z</time></trkpt><trkpt lat="42.6273293" lon="13.8201458"><ele>120.0</ele><time>2026-04-19T09:38:58.716Z</time></trkpt><trkpt lat="42.6273506" lon="13.8199695"><ele>120.0</ele><time>2026-04-19T09:38:59.715Z</time></trkpt><trkpt lat="42.6273687" lon="13.8197745"><ele>119.75</ele><time>2026-04-19T09:39:00.716Z</time></trkpt><trkpt lat="42.6273884" lon="13.8195843"><ele>119.5</ele><time>2026-04-19T09:39:01.716Z</time></trkpt><trkpt lat="42.6274031" lon="13.8193857"><ele>119.25</ele><time>2026-04-19T09:39:02.715Z</time></trkpt><trkpt lat="42.6274116" lon="13.8191813"><ele>119.0</ele><time>2026-04-19T09:39:03.716Z</time></trkpt><trkpt lat="42.627417" lon="13.8189826"><ele>119.66666666666666</ele><time>2026-04-19T09:39:04.715Z</time></trkpt><trkpt lat="42.627419" lon="13.8187765"><ele>120.33333333333334</ele><time>2026-04-19T09:39:05.715Z</time></trkpt><trkpt lat="42.6274052" lon="13.8185656"><ele>121.0</ele><time>2026-04-19T09:39:06.715Z</time></trkpt><trkpt lat="42.6273902" lon="13.8183633"><ele>122.33333333333334</ele><time>2026-04-19T09:39:07.715Z</time></trkpt><trkpt lat="42.627385" lon="13.8181598"><ele>123.66666666666666</ele><time>2026-04-19T09:39:08.715Z</time></trkpt><trkpt lat="42.6273715" lon="13.8179377"><ele>125.0</ele><time>2026-04-19T09:39:09.716Z</time></trkpt><trkpt lat="42.6273561" lon="13.8176991"><ele>125.0</ele><time>2026-04-19T09:39:10.716Z</time></trkpt><trkpt lat="42.6273471" lon="13.8174538"><ele>125.0</ele><time>2026-04-19T09:39:11.715Z</time></trkpt><trkpt lat="42.6273386" lon="13.8172135"><ele>125.0</ele><time>2026-04-19T09:39:12.715Z</time></trkpt><trkpt lat="42.6273241" lon="13.8169923"><ele>125.5</ele><time>2026-04-19T09:39:13.715Z</time></trkpt><trkpt lat="42.6273021" lon="13.8167986"><ele>126.0</ele><time>2026-04-19T09:39:14.722Z</time></trkpt><trkpt lat="42.6272553" lon="13.8165975"><ele>126.5</ele><time>2026-04-19T09:39:15.723Z</time></trkpt><trkpt lat="42.6272158" lon="13.8164255"><ele>127.0</ele><time>2026-04-19T09:39:16.722Z</time></trkpt><trkpt lat="42.6271722" lon="13.8162473"><ele>127.0</ele><time>2026-04-19T09:39:17.722Z</time></trkpt><trkpt lat="42.6271415" lon="13.8160734"><ele>127.0</ele><time>2026-04-19T09:39:18.722Z</time></trkpt><trkpt lat="42.6270977" lon="13.815922"><ele>127.0</ele><time>2026-04-19T09:39:19.722Z</time></trkpt><trkpt lat="42.6270618" lon="13.8157628"><ele>127.0</ele><time>2026-04-19T09:39:20.722Z</time></trkpt><trkpt lat="42.6270268" lon="13.815601"><ele>127.75</ele><time>2026-04-19T09:39:21.722Z</time></trkpt><trkpt lat="42.6270037" lon="13.81544"><ele>128.5</ele><time>2026-04-19T09:39:22.722Z</time></trkpt><trkpt lat="42.6269843" lon="13.8152733"><ele>129.25</ele><time>2026-04-19T09:39:23.723Z</time></trkpt><trkpt lat="42.6269659" lon="13.8151064"><ele>130.0</ele><time>2026-04-19T09:39:24.722Z</time></trkpt><trkpt lat="42.6269437" lon="13.8149189"><ele>126.75</ele><time>2026-04-19T09:39:25.722Z</time></trkpt><trkpt lat="42.6269059" lon="13.8147279"><ele>123.5</ele><time>2026-04-19T09:39:26.723Z</time></trkpt><trkpt lat="42.6268641" lon="13.8145567"><ele>120.25</ele><time>2026-04-19T09:39:27.722Z</time></trkpt><trkpt lat="42.6268303" lon="13.8143979"><ele>117.0</ele><time>2026-04-19T09:39:28.723Z</time></trkpt><trkpt lat="42.6267821" lon="13.8142276"><ele>117.0</ele><time>2026-04-19T09:39:29.723Z</time></trkpt><trkpt lat="42.6267354" lon="13.8140761"><ele>117.0</ele><time>2026-04-19T09:39:30.722Z</time></trkpt><trkpt lat="42.6266803" lon="13.8139263"><ele>117.0</ele><time>2026-04-19T09:39:31.722Z</time></trkpt><trkpt lat="42.6266221" lon="13.8137827"><ele>117.0</ele><time>2026-04-19T09:39:32.722Z</time></trkpt><trkpt lat="42.6265653" lon="13.8136463"><ele>117.0</ele><time>2026-04-19T09:39:33.723Z</time></trkpt><trkpt lat="42.6265117" lon="13.8135169"><ele>116.99999999999999</ele><time>2026-04-19T09:39:34.723Z</time></trkpt><trkpt lat="42.6264556" lon="13.8133872"><ele>116.99999999999999</ele><time>2026-04-19T09:39:35.722Z</time></trkpt><trkpt lat="42.6264097" lon="13.8132478"><ele>117.0</ele><time>2026-04-19T09:39:36.722Z</time></trkpt><trkpt lat="42.6263754" lon="13.8131177"><ele>117.0</ele><time>2026-04-19T09:39:37.723Z</time></trkpt><trkpt lat="42.6263401" lon="13.8130069"><ele>118.0</ele><time>2026-04-19T09:39:38.722Z</time></trkpt><trkpt lat="42.6263167" lon="13.8129009"><ele>119.0</ele><time>2026-04-19T09:39:39.722Z</time></trkpt><trkpt lat="42.6262793" lon="13.8126342"><ele>120.0</ele><time>2026-04-19T09:39:40.723Z</time></trkpt><trkpt lat="42.6262538" lon="13.8124372"><ele>121.0</ele><time>2026-04-19T09:39:41.722Z</time></trkpt><trkpt lat="42.6262265" lon="13.8122427"><ele>122.75</ele><time>2026-04-19T09:39:42.722Z</time></trkpt><trkpt lat="42.6262286" lon="13.812092"><ele>124.5</ele><time>2026-04-19T09:39:43.723Z</time></trkpt><trkpt lat="42.6262103" lon="13.811887"><ele>126.25</ele><time>2026-04-19T09:39:44.722Z</time></trkpt><trkpt lat="42.6261959" lon="13.8116905"><ele>128.0</ele><time>2026-04-19T09:39:45.722Z</time></trkpt><trkpt lat="42.6261944" lon="13.8115137"><ele>128.5</ele><time>2026-04-19T09:39:46.723Z</time></trkpt><trkpt lat="42.6262051" lon="13.811327"><ele>129.0</ele><time>2026-04-19T09:39:47.722Z</time></trkpt><trkpt lat="42.6262277" lon="13.8111389"><ele>129.5</ele><time>2026-04-19T09:39:48.722Z</time></trkpt><trkpt lat="42.6262543" lon="13.8109092"><ele>130.0</ele><time>2026-04-19T09:39:49.722Z</time></trkpt><trkpt lat="42.6262772" lon="13.8106508"><ele>130.33333333333334</ele><time>2026-04-19T09:39:50.723Z</time></trkpt><trkpt lat="42.6262968" lon="13.8103679"><ele>130.66666666666666</ele><time>2026-04-19T09:39:51.723Z</time></trkpt><trkpt lat="42.6262919" lon="13.810051"><ele>131.0</ele><time>2026-04-19T09:39:52.722Z</time></trkpt><trkpt lat="42.6262925" lon="13.8096685"><ele>134.5</ele><time>2026-04-19T09:39:53.723Z</time></trkpt><trkpt lat="42.6262765" lon="13.8093082"><ele>138.0</ele><time>2026-04-19T09:39:54.722Z</time></trkpt><trkpt lat="42.6262696" lon="13.8089653"><ele>138.0</ele><time>2026-04-19T09:39:55.722Z</time></trkpt><trkpt lat="42.6262601" lon="13.8086593"><ele>138.0</ele><time>2026-04-19T09:39:56.722Z</time></trkpt><trkpt lat="42.6262286" lon="13.8083909"><ele>138.0</ele><time>2026-04-19T09:39:57.722Z</time></trkpt><trkpt lat="42.6261929" lon="13.8081564"><ele>137.0</ele><time>2026-04-19T09:39:58.723Z</time></trkpt><trkpt lat="42.6261535" lon="13.8079688"><ele>136.0</ele><time>2026-04-19T09:39:59.722Z</time></trkpt><trkpt lat="42.6261304" lon="13.8077821"><ele>135.0</ele><time>2026-04-19T09:40:00.722Z</time></trkpt><trkpt lat="42.6261145" lon="13.8076221"><ele>134.0</ele><time>2026-04-19T09:40:01.722Z</time></trkpt><trkpt lat="42.6261037" lon="13.8074898"><ele>131.2</ele><time>2026-04-19T09:40:02.722Z</time></trkpt><trkpt lat="42.6261008" lon="13.8073771"><ele>128.4</ele><time>2026-04-19T09:40:03.722Z</time></trkpt><trkpt lat="42.6261033" lon="13.8072766"><ele>125.6</ele><time>2026-04-19T09:40:04.722Z</time></trkpt><trkpt lat="42.6261426" lon="13.8071282"><ele>122.8</ele><time>2026-04-19T09:40:06.722Z</time></trkpt><trkpt lat="42.6261323" lon="13.8070006"><ele>120.0</ele><time>2026-04-19T09:40:08.722Z</time></trkpt><trkpt lat="42.6260512" lon="13.806504"><ele>120.0</ele><time>2026-04-19T09:40:10.723Z</time></trkpt><trkpt lat="42.6259877" lon="13.8064259"><ele>120.0</ele><time>2026-04-19T09:40:11.723Z</time></trkpt><trkpt lat="42.6259482" lon="13.8063116"><ele>120.0</ele><time>2026-04-19T09:40:12.722Z</time></trkpt><trkpt lat="42.62593" lon="13.806181"><ele>120.0</ele><time>2026-04-19T09:40:13.722Z</time></trkpt><trkpt lat="42.625917" lon="13.8060499"><ele>120.0</ele><time>2026-04-19T09:40:14.722Z</time></trkpt><trkpt lat="42.6258994" lon="13.8059086"><ele>120.75</ele><time>2026-04-19T09:40:15.722Z</time></trkpt><trkpt lat="42.6258776" lon="13.8057594"><ele>121.5</ele><time>2026-04-19T09:40:16.722Z</time></trkpt><trkpt lat="42.625857" lon="13.8056067"><ele>122.25</ele><time>2026-04-19T09:40:17.722Z</time></trkpt><trkpt lat="42.625832" lon="13.8054577"><ele>123.0</ele><time>2026-04-19T09:40:18.723Z</time></trkpt><trkpt lat="42.6258027" lon="13.8053083"><ele>124.0</ele><time>2026-04-19T09:40:19.722Z</time></trkpt><trkpt lat="42.6257655" lon="13.8051527"><ele>125.0</ele><time>2026-04-19T09:40:20.722Z</time></trkpt><trkpt lat="42.6257191" lon="13.8049926"><ele>126.0</ele><time>2026-04-19T09:40:21.723Z</time></trkpt><trkpt lat="42.6256594" lon="13.8048308"><ele>127.0</ele><time>2026-04-19T09:40:22.722Z</time></trkpt><trkpt lat="42.625588" lon="13.8046758"><ele>127.0</ele><time>2026-04-19T09:40:23.722Z</time></trkpt><trkpt lat="42.6254973" lon="13.8045098"><ele>127.0</ele><time>2026-04-19T09:40:24.722Z</time></trkpt><trkpt lat="42.6253955" lon="13.8043552"><ele>127.0</ele><time>2026-04-19T09:40:25.722Z</time></trkpt><trkpt lat="42.6252731" lon="13.8041943"><ele>125.33333333333334</ele><time>2026-04-19T09:40:26.723Z</time></trkpt><trkpt lat="42.6251264" lon="13.8040237"><ele>123.66666666666666</ele><time>2026-04-19T09:40:27.723Z</time></trkpt><trkpt lat="42.6249584" lon="13.8038278"><ele>122.0</ele><time>2026-04-19T09:40:28.723Z</time></trkpt><trkpt lat="42.6248066" lon="13.8036259"><ele>121.0</ele><time>2026-04-19T09:40:29.723Z</time></trkpt><trkpt lat="42.6246678" lon="13.8034313"><ele>120.0</ele><time>2026-04-19T09:40:30.722Z</time></trkpt><trkpt lat="42.6245389" lon="13.8032439"><ele>119.0</ele><time>2026-04-19T09:40:31.723Z</time></trkpt><trkpt lat="42.6244212" lon="13.803056"><ele>119.0</ele><time>2026-04-19T09:40:32.722Z</time></trkpt><trkpt lat="42.6242989" lon="13.8028789"><ele>119.0</ele><time>2026-04-19T09:40:33.723Z</time></trkpt><trkpt lat="42.6241831" lon="13.8027168"><ele>119.0</ele><time>2026-04-19T09:40:34.723Z</time></trkpt><trkpt lat="42.6240752" lon="13.8025597"><ele>121.33333333333333</ele><time>2026-04-19T09:40:35.723Z</time></trkpt><trkpt lat="42.6239687" lon="13.8024019"><ele>123.66666666666666</ele><time>2026-04-19T09:40:36.722Z</time></trkpt><trkpt lat="42.6238787" lon="13.8022289"><ele>126.0</ele><time>2026-04-19T09:40:37.722Z</time></trkpt><trkpt lat="42.6237816" lon="13.8020421"><ele>126.0</ele><time>2026-04-19T09:40:38.722Z</time></trkpt><trkpt lat="42.6236986" lon="13.8018515"><ele>126.0</ele><time>2026-04-19T09:40:39.722Z</time></trkpt><trkpt lat="42.6236265" lon="13.8016715"><ele>126.0</ele><time>2026-04-19T09:40:40.723Z</time></trkpt><trkpt lat="42.6235676" lon="13.8014929"><ele>124.0</ele><time>2026-04-19T09:40:41.722Z</time></trkpt><trkpt lat="42.6235195" lon="13.801319"><ele>122.0</ele><time>2026-04-19T09:40:42.722Z</time></trkpt><trkpt lat="42.6234753" lon="13.8011463"><ele>120.0</ele><time>2026-04-19T09:40:43.722Z</time></trkpt><trkpt lat="42.6234277" lon="13.8009826"><ele>118.0</ele><time>2026-04-19T09:40:44.722Z</time></trkpt><trkpt lat="42.6233832" lon="13.8008148"><ele>118.0</ele><time>2026-04-19T09:40:45.722Z</time></trkpt><trkpt lat="42.6233436" lon="13.8006471"><ele>118.0</ele><time>2026-04-19T09:40:46.722Z</time></trkpt><trkpt lat="42.6233094" lon="13.8004649"><ele>118.0</ele><time>2026-04-19T09:40:47.722Z</time></trkpt><trkpt lat="42.6232824" lon="13.8002693"><ele>118.0</ele><time>2026-04-19T09:40:48.722Z</time></trkpt><trkpt lat="42.6232686" lon="13.8000668"><ele>118.33333333333334</ele><time>2026-04-19T09:40:49.722Z</time></trkpt><trkpt lat="42.6232617" lon="13.7998581"><ele>118.66666666666666</ele><time>2026-04-19T09:40:50.722Z</time></trkpt><trkpt lat="42.6232692" lon="13.7996521"><ele>119.0</ele><time>2026-04-19T09:40:51.723Z</time></trkpt><trkpt lat="42.6232811" lon="13.7994476"><ele>119.25</ele><time>2026-04-19T09:40:52.722Z</time></trkpt><trkpt lat="42.6233018" lon="13.7992518"><ele>119.5</ele><time>2026-04-19T09:40:53.722Z</time></trkpt><trkpt lat="42.6233232" lon="13.7990496"><ele>119.75</ele><time>2026-04-19T09:40:54.722Z</time></trkpt><trkpt lat="42.6233438" lon="13.7988477"><ele>120.0</ele><time>2026-04-19T09:40:55.722Z</time></trkpt><trkpt lat="42.6233604" lon="13.798642"><ele>120.66666666666666</ele><time>2026-04-19T09:40:56.722Z</time></trkpt><trkpt lat="42.6233757" lon="13.7984307"><ele>121.33333333333333</ele><time>2026-04-19T09:40:57.722Z</time></trkpt><trkpt lat="42.6233919" lon="13.7982152"><ele>122.0</ele><time>2026-04-19T09:40:58.723Z</time></trkpt><trkpt lat="42.6233984" lon="13.7979873"><ele>122.0</ele><time>2026-04-19T09:40:59.722Z</time></trkpt><trkpt lat="42.6233979" lon="13.7977732"><ele>122.0</ele><time>2026-04-19T09:41:00.722Z</time></trkpt><trkpt lat="42.6233914" lon="13.7975769"><ele>122.0</ele><time>2026-04-19T09:41:01.723Z</time></trkpt><trkpt lat="42.6233834" lon="13.7973835"><ele>122.0</ele><time>2026-04-19T09:41:02.722Z</time></trkpt><trkpt lat="42.6233656" lon="13.7971818"><ele>122.0</ele><time>2026-04-19T09:41:03.723Z</time></trkpt><trkpt lat="42.6233493" lon="13.7969696"><ele>122.0</ele><time>2026-04-19T09:41:04.723Z</time></trkpt><trkpt lat="42.6233246" lon="13.7967377"><ele>122.0</ele><time>2026-04-19T09:41:05.722Z</time></trkpt><trkpt lat="42.6232892" lon="13.7964787"><ele>122.0</ele><time>2026-04-19T09:41:06.722Z</time></trkpt><trkpt lat="42.6232547" lon="13.7961645"><ele>122.0</ele><time>2026-04-19T09:41:07.722Z</time></trkpt><trkpt lat="42.6232253" lon="13.7958313"><ele>122.0</ele><time>2026-04-19T09:41:08.722Z</time></trkpt><trkpt lat="42.6231987" lon="13.795477"><ele>122.0</ele><time>2026-04-19T09:41:09.722Z</time></trkpt><trkpt lat="42.6231604" lon="13.7951011"><ele>123.5</ele><time>2026-04-19T09:41:10.722Z</time></trkpt><trkpt lat="42.6231121" lon="13.7946901"><ele>125.0</ele><time>2026-04-19T09:41:11.723Z</time></trkpt><trkpt lat="42.6230747" lon="13.7942686"><ele>128.5</ele><time>2026-04-19T09:41:12.723Z</time></trkpt><trkpt lat="42.6230439" lon="13.7938753"><ele>132.0</ele><time>2026-04-19T09:41:13.723Z</time></trkpt><trkpt lat="42.6230161" lon="13.7935155"><ele>133.0</ele><time>2026-04-19T09:41:14.722Z</time></trkpt><trkpt lat="42.6229842" lon="13.7931734"><ele>134.0</ele><time>2026-04-19T09:41:15.722Z</time></trkpt><trkpt lat="42.6229497" lon="13.7928374"><ele>136.0</ele><time>2026-04-19T09:41:16.723Z</time></trkpt><trkpt lat="42.6229131" lon="13.7924928"><ele>138.0</ele><time>2026-04-19T09:41:17.722Z</time></trkpt><trkpt lat="42.6228673" lon="13.7921275"><ele>138.0</ele><time>2026-04-19T09:41:18.722Z</time></trkpt><trkpt lat="42.6228226" lon="13.7917328"><ele>138.0</ele><time>2026-04-19T09:41:19.722Z</time></trkpt><trkpt lat="42.6227855" lon="13.7913104"><ele>134.5</ele><time>2026-04-19T09:41:20.723Z</time></trkpt><trkpt lat="42.6227495" lon="13.7908553"><ele>131.0</ele><time>2026-04-19T09:41:21.722Z</time></trkpt><trkpt lat="42.622715" lon="13.790399"><ele>132.0</ele><time>2026-04-19T09:41:22.722Z</time></trkpt><trkpt lat="42.6226704" lon="13.7899543"><ele>133.0</ele><time>2026-04-19T09:41:23.722Z</time></trkpt><trkpt lat="42.6226277" lon="13.7895328"><ele>133.5</ele><time>2026-04-19T09:41:24.721Z</time></trkpt><trkpt lat="42.6225865" lon="13.7891397"><ele>134.0</ele><time>2026-04-19T09:41:25.721Z</time></trkpt><trkpt lat="42.6225511" lon="13.7887677"><ele>135.0</ele><time>2026-04-19T09:41:26.721Z</time></trkpt><trkpt lat="42.6225253" lon="13.7884138"><ele>136.0</ele><time>2026-04-19T09:41:27.721Z</time></trkpt><trkpt lat="42.6224866" lon="13.7880738"><ele>136.0</ele><time>2026-04-19T09:41:28.722Z</time></trkpt><trkpt lat="42.6224389" lon="13.7877573"><ele>136.0</ele><time>2026-04-19T09:41:29.722Z</time></trkpt><trkpt lat="42.6223662" lon="13.7874482"><ele>136.5</ele><time>2026-04-19T09:41:30.721Z</time></trkpt><trkpt lat="42.6222771" lon="13.7871446"><ele>137.0</ele><time>2026-04-19T09:41:31.721Z</time></trkpt><trkpt lat="42.6221663" lon="13.7868389"><ele>136.0</ele><time>2026-04-19T09:41:32.722Z</time></trkpt><trkpt lat="42.622047" lon="13.7865382"><ele>135.0</ele><time>2026-04-19T09:41:33.721Z</time></trkpt><trkpt lat="42.6219369" lon="13.7862382"><ele>135.5</ele><time>2026-04-19T09:41:34.721Z</time></trkpt><trkpt lat="42.6218374" lon="13.7859588"><ele>136.0</ele><time>2026-04-19T09:41:35.721Z</time></trkpt><trkpt lat="42.6217256" lon="13.7856853"><ele>136.0</ele><time>2026-04-19T09:41:36.721Z</time></trkpt><trkpt lat="42.621605" lon="13.7854053"><ele>136.0</ele><time>2026-04-19T09:41:37.721Z</time></trkpt><trkpt lat="42.6214751" lon="13.7851319"><ele>138.0</ele><time>2026-04-19T09:41:38.722Z</time></trkpt><trkpt lat="42.6213342" lon="13.7848653"><ele>140.0</ele><time>2026-04-19T09:41:39.721Z</time></trkpt><trkpt lat="42.621201" lon="13.7846003"><ele>138.66666666666666</ele><time>2026-04-19T09:41:40.722Z</time></trkpt><trkpt lat="42.6210706" lon="13.7843492"><ele>137.33333333333334</ele><time>2026-04-19T09:41:41.721Z</time></trkpt><trkpt lat="42.6209468" lon="13.784118"><ele>136.0</ele><time>2026-04-19T09:41:42.722Z</time></trkpt><trkpt lat="42.6208279" lon="13.783887"><ele>136.0</ele><time>2026-04-19T09:41:43.721Z</time></trkpt><trkpt lat="42.620709" lon="13.783665"><ele>136.0</ele><time>2026-04-19T09:41:44.722Z</time></trkpt><trkpt lat="42.6205962" lon="13.7834356"><ele>136.0</ele><time>2026-04-19T09:41:45.721Z</time></trkpt><trkpt lat="42.6204815" lon="13.7832026"><ele>135.66666666666669</ele><time>2026-04-19T09:41:46.721Z</time></trkpt><trkpt lat="42.6203698" lon="13.7829749"><ele>135.33333333333334</ele><time>2026-04-19T09:41:47.721Z</time></trkpt><trkpt lat="42.620257" lon="13.7827565"><ele>135.0</ele><time>2026-04-19T09:41:48.722Z</time></trkpt><trkpt lat="42.6201459" lon="13.7825481"><ele>135.0</ele><time>2026-04-19T09:41:49.722Z</time></trkpt><trkpt lat="42.6200218" lon="13.7823535"><ele>135.0</ele><time>2026-04-19T09:41:50.721Z</time></trkpt><trkpt lat="42.6198961" lon="13.7821836"><ele>135.0</ele><time>2026-04-19T09:41:51.722Z</time></trkpt><trkpt lat="42.6197692" lon="13.7820262"><ele>135.0</ele><time>2026-04-19T09:41:52.721Z</time></trkpt><trkpt lat="42.6196424" lon="13.781879"><ele>135.0</ele><time>2026-04-19T09:41:53.721Z</time></trkpt><trkpt lat="42.619518" lon="13.7817207"><ele>135.0</ele><time>2026-04-19T09:41:54.722Z</time></trkpt><trkpt lat="42.619388" lon="13.7815699"><ele>136.33333333333334</ele><time>2026-04-19T09:41:55.722Z</time></trkpt><trkpt lat="42.6192618" lon="13.7814304"><ele>137.66666666666669</ele><time>2026-04-19T09:41:56.721Z</time></trkpt><trkpt lat="42.6191444" lon="13.781268"><ele>139.0</ele><time>2026-04-19T09:41:57.721Z</time></trkpt><trkpt lat="42.6190377" lon="13.7810915"><ele>139.66666666666669</ele><time>2026-04-19T09:41:58.722Z</time></trkpt><trkpt lat="42.6189416" lon="13.7808846"><ele>140.33333333333334</ele><time>2026-04-19T09:41:59.721Z</time></trkpt><trkpt lat="42.6188603" lon="13.7806718"><ele>141.0</ele><time>2026-04-19T09:42:00.722Z</time></trkpt><trkpt lat="42.6188034" lon="13.7804363"><ele>141.0</ele><time>2026-04-19T09:42:01.721Z</time></trkpt><trkpt lat="42.618748" lon="13.7801928"><ele>141.0</ele><time>2026-04-19T09:42:02.721Z</time></trkpt><trkpt lat="42.618694" lon="13.7799572"><ele>141.0</ele><time>2026-04-19T09:42:03.721Z</time></trkpt><trkpt lat="42.618643" lon="13.7797283"><ele>139.33333333333334</ele><time>2026-04-19T09:42:04.721Z</time></trkpt><trkpt lat="42.6185879" lon="13.779501"><ele>137.66666666666669</ele><time>2026-04-19T09:42:05.721Z</time></trkpt><trkpt lat="42.6185257" lon="13.7792584"><ele>136.0</ele><time>2026-04-19T09:42:06.721Z</time></trkpt><trkpt lat="42.618454" lon="13.7789877"><ele>136.0</ele><time>2026-04-19T09:42:07.722Z</time></trkpt><trkpt lat="42.6183924" lon="13.7786864"><ele>136.0</ele><time>2026-04-19T09:42:08.721Z</time></trkpt><trkpt lat="42.6183285" lon="13.7783839"><ele>136.66666666666669</ele><time>2026-04-19T09:42:09.721Z</time></trkpt><trkpt lat="42.6182672" lon="13.7780904"><ele>137.33333333333334</ele><time>2026-04-19T09:42:10.721Z</time></trkpt><trkpt lat="42.6182095" lon="13.7778097"><ele>138.0</ele><time>2026-04-19T09:42:11.721Z</time></trkpt><trkpt lat="42.6181616" lon="13.7775351"><ele>138.33333333333334</ele><time>2026-04-19T09:42:12.722Z</time></trkpt><trkpt lat="42.6181177" lon="13.7772666"><ele>138.66666666666669</ele><time>2026-04-19T09:42:13.722Z</time></trkpt><trkpt lat="42.6180736" lon="13.7769959"><ele>139.0</ele><time>2026-04-19T09:42:14.722Z</time></trkpt><trkpt lat="42.6180344" lon="13.77672"><ele>139.0</ele><time>2026-04-19T09:42:15.721Z</time></trkpt><trkpt lat="42.6179941" lon="13.7764392"><ele>139.0</ele><time>2026-04-19T09:42:16.721Z</time></trkpt><trkpt lat="42.6179546" lon="13.7761588"><ele>139.0</ele><time>2026-04-19T09:42:17.722Z</time></trkpt><trkpt lat="42.6179129" lon="13.7758846"><ele>139.66666666666669</ele><time>2026-04-19T09:42:18.721Z</time></trkpt><trkpt lat="42.6178689" lon="13.7756163"><ele>140.33333333333334</ele><time>2026-04-19T09:42:19.722Z</time></trkpt><trkpt lat="42.6178168" lon="13.7753627"><ele>141.0</ele><time>2026-04-19T09:42:20.722Z</time></trkpt><trkpt lat="42.6177435" lon="13.7751283"><ele>139.66666666666666</ele><time>2026-04-19T09:42:21.722Z</time></trkpt><trkpt lat="42.6176645" lon="13.7748947"><ele>138.33333333333331</ele><time>2026-04-19T09:42:22.722Z</time></trkpt><trkpt lat="42.617576" lon="13.774667"><ele>137.0</ele><time>2026-04-19T09:42:23.721Z</time></trkpt><trkpt lat="42.6174852" lon="13.7744363"><ele>137.66666666666666</ele><time>2026-04-19T09:42:24.722Z</time></trkpt><trkpt lat="42.6173927" lon="13.7741964"><ele>138.33333333333334</ele><time>2026-04-19T09:42:25.721Z</time></trkpt><trkpt lat="42.6172948" lon="13.7739526"><ele>139.0</ele><time>2026-04-19T09:42:26.722Z</time></trkpt><trkpt lat="42.6172007" lon="13.7737098"><ele>138.66666666666669</ele><time>2026-04-19T09:42:27.721Z</time></trkpt><trkpt lat="42.6171066" lon="13.773468"><ele>138.33333333333334</ele><time>2026-04-19T09:42:28.722Z</time></trkpt><trkpt lat="42.6170124" lon="13.7732345"><ele>138.0</ele><time>2026-04-19T09:42:29.721Z</time></trkpt><trkpt lat="42.61691" lon="13.7729956"><ele>138.0</ele><time>2026-04-19T09:42:30.721Z</time></trkpt><trkpt lat="42.6167977" lon="13.7727403"><ele>138.0</ele><time>2026-04-19T09:42:31.722Z</time></trkpt><trkpt lat="42.6166847" lon="13.7724814"><ele>138.0</ele><time>2026-04-19T09:42:32.722Z</time></trkpt><trkpt lat="42.6165794" lon="13.7722109"><ele>138.0</ele><time>2026-04-19T09:42:33.722Z</time></trkpt><trkpt lat="42.6164696" lon="13.7719249"><ele>138.0</ele><time>2026-04-19T09:42:34.721Z</time></trkpt><trkpt lat="42.6163592" lon="13.7716238"><ele>138.0</ele><time>2026-04-19T09:42:35.721Z</time></trkpt><trkpt lat="42.6162512" lon="13.771328"><ele>138.0</ele><time>2026-04-19T09:42:36.721Z</time></trkpt><trkpt lat="42.6161451" lon="13.7710486"><ele>138.0</ele><time>2026-04-19T09:42:37.722Z</time></trkpt><trkpt lat="42.6160377" lon="13.7707695"><ele>138.0</ele><time>2026-04-19T09:42:38.722Z</time></trkpt><trkpt lat="42.6159359" lon="13.7704946"><ele>138.0</ele><time>2026-04-19T09:42:39.722Z</time></trkpt><trkpt lat="42.6158359" lon="13.7702248"><ele>138.0</ele><time>2026-04-19T09:42:40.722Z</time></trkpt><trkpt lat="42.6157433" lon="13.7699585"><ele>138.0</ele><time>2026-04-19T09:42:41.722Z</time></trkpt><trkpt lat="42.6156537" lon="13.7696992"><ele>139.33333333333334</ele><time>2026-04-19T09:42:42.721Z</time></trkpt><trkpt lat="42.6155676" lon="13.7694483"><ele>140.66666666666669</ele><time>2026-04-19T09:42:43.722Z</time></trkpt><trkpt lat="42.6154859" lon="13.7692092"><ele>142.0</ele><time>2026-04-19T09:42:44.721Z</time></trkpt><trkpt lat="42.6154106" lon="13.7689839"><ele>143.0</ele><time>2026-04-19T09:42:45.722Z</time></trkpt><trkpt lat="42.6153371" lon="13.7687706"><ele>144.0</ele><time>2026-04-19T09:42:46.722Z</time></trkpt><trkpt lat="42.6152714" lon="13.7685684"><ele>145.0</ele><time>2026-04-19T09:42:47.721Z</time></trkpt><trkpt lat="42.6152045" lon="13.768382"><ele>145.0</ele><time>2026-04-19T09:42:48.721Z</time></trkpt><trkpt lat="42.615141" lon="13.76821"><ele>145.0</ele><time>2026-04-19T09:42:49.721Z</time></trkpt><trkpt lat="42.6150856" lon="13.7680498"><ele>145.0</ele><time>2026-04-19T09:42:50.722Z</time></trkpt><trkpt lat="42.6150302" lon="13.7679143"><ele>145.0</ele><time>2026-04-19T09:42:51.721Z</time></trkpt><trkpt lat="42.6149732" lon="13.7677905"><ele>146.4</ele><time>2026-04-19T09:42:52.721Z</time></trkpt><trkpt lat="42.6149287" lon="13.767682"><ele>147.8</ele><time>2026-04-19T09:42:53.722Z</time></trkpt><trkpt lat="42.6148949" lon="13.7675726"><ele>149.2</ele><time>2026-04-19T09:42:54.721Z</time></trkpt><trkpt lat="42.6148632" lon="13.7674497"><ele>150.6</ele><time>2026-04-19T09:42:55.721Z</time></trkpt><trkpt lat="42.6148217" lon="13.7673059"><ele>152.0</ele><time>2026-04-19T09:42:56.721Z</time></trkpt><trkpt lat="42.6147632" lon="13.7671594"><ele>152.0</ele><time>2026-04-19T09:42:57.721Z</time></trkpt><trkpt lat="42.6147127" lon="13.7669957"><ele>152.0</ele><time>2026-04-19T09:42:58.722Z</time></trkpt><trkpt lat="42.6146734" lon="13.7668336"><ele>152.0</ele><time>2026-04-19T09:42:59.721Z</time></trkpt><trkpt lat="42.6146369" lon="13.7666812"><ele>152.0</ele><time>2026-04-19T09:43:00.721Z</time></trkpt><trkpt lat="42.6145959" lon="13.7665436"><ele>151.75</ele><time>2026-04-19T09:43:01.721Z</time></trkpt><trkpt lat="42.61455" lon="13.7664019"><ele>151.5</ele><time>2026-04-19T09:43:02.722Z</time></trkpt><trkpt lat="42.6145038" lon="13.7662549"><ele>151.25</ele><time>2026-04-19T09:43:03.721Z</time></trkpt><trkpt lat="42.6144515" lon="13.7660986"><ele>151.0</ele><time>2026-04-19T09:43:04.721Z</time></trkpt><trkpt lat="42.6143934" lon="13.7659196"><ele>151.0</ele><time>2026-04-19T09:43:05.721Z</time></trkpt><trkpt lat="42.6143285" lon="13.7657117"><ele>151.0</ele><time>2026-04-19T09:43:06.722Z</time></trkpt><trkpt lat="42.6142682" lon="13.7654849"><ele>151.0</ele><time>2026-04-19T09:43:07.722Z</time></trkpt><trkpt lat="42.6142131" lon="13.7652503"><ele>152.0</ele><time>2026-04-19T09:43:08.721Z</time></trkpt><trkpt lat="42.6141745" lon="13.7650194"><ele>153.0</ele><time>2026-04-19T09:43:09.722Z</time></trkpt><trkpt lat="42.6141465" lon="13.7647744"><ele>154.0</ele><time>2026-04-19T09:43:10.721Z</time></trkpt><trkpt lat="42.6141311" lon="13.7645395"><ele>154.0</ele><time>2026-04-19T09:43:11.721Z</time></trkpt><trkpt lat="42.6141309" lon="13.7643035"><ele>154.0</ele><time>2026-04-19T09:43:12.721Z</time></trkpt><trkpt lat="42.6141382" lon="13.7640507"><ele>154.0</ele><time>2026-04-19T09:43:13.721Z</time></trkpt><trkpt lat="42.614156" lon="13.7637934"><ele>154.0</ele><time>2026-04-19T09:43:14.722Z</time></trkpt><trkpt lat="42.6141758" lon="13.7635453"><ele>154.0</ele><time>2026-04-19T09:43:15.722Z</time></trkpt><trkpt lat="42.6141907" lon="13.7633142"><ele>154.0</ele><time>2026-04-19T09:43:16.721Z</time></trkpt><trkpt lat="42.6142086" lon="13.7631056"><ele>154.75</ele><time>2026-04-19T09:43:17.722Z</time></trkpt><trkpt lat="42.6142191" lon="13.7629087"><ele>155.5</ele><time>2026-04-19T09:43:18.721Z</time></trkpt><trkpt lat="42.6142255" lon="13.7627335"><ele>156.25</ele><time>2026-04-19T09:43:19.722Z</time></trkpt><trkpt lat="42.6142447" lon="13.762557"><ele>157.0</ele><time>2026-04-19T09:43:20.722Z</time></trkpt><trkpt lat="42.6142533" lon="13.7623953"><ele>157.5</ele><time>2026-04-19T09:43:21.721Z</time></trkpt><trkpt lat="42.6142714" lon="13.7622581"><ele>158.0</ele><time>2026-04-19T09:43:22.721Z</time></trkpt><trkpt lat="42.6142925" lon="13.7621529"><ele>158.5</ele><time>2026-04-19T09:43:23.722Z</time></trkpt><trkpt lat="42.6143356" lon="13.7620661"><ele>159.0</ele><time>2026-04-19T09:43:24.721Z</time></trkpt><trkpt lat="42.6143962" lon="13.7619997"><ele>159.5</ele><time>2026-04-19T09:43:25.721Z</time></trkpt><trkpt lat="42.6144714" lon="13.7619614"><ele>160.0</ele><time>2026-04-19T09:43:26.721Z</time></trkpt><trkpt lat="42.6145555" lon="13.76195"><ele>161.0</ele><time>2026-04-19T09:43:27.721Z</time></trkpt><trkpt lat="42.6146373" lon="13.7619821"><ele>162.0</ele><time>2026-04-19T09:43:28.721Z</time></trkpt><trkpt lat="42.6147048" lon="13.7620519"><ele>163.0</ele><time>2026-04-19T09:43:29.721Z</time></trkpt><trkpt lat="42.6147589" lon="13.7621564"><ele>164.0</ele><time>2026-04-19T09:43:30.722Z</time></trkpt><trkpt lat="42.6148078" lon="13.762283"><ele>165.0</ele><time>2026-04-19T09:43:31.722Z</time></trkpt><trkpt lat="42.6148553" lon="13.7624149"><ele>165.0</ele><time>2026-04-19T09:43:32.722Z</time></trkpt><trkpt lat="42.6149114" lon="13.7625376"><ele>165.0</ele><time>2026-04-19T09:43:33.721Z</time></trkpt><trkpt lat="42.6149674" lon="13.7626571"><ele>165.0</ele><time>2026-04-19T09:43:34.721Z</time></trkpt><trkpt lat="42.6150131" lon="13.7627686"><ele>165.0</ele><time>2026-04-19T09:43:35.721Z</time></trkpt><trkpt lat="42.6150349" lon="13.7628677"><ele>165.0</ele><time>2026-04-19T09:43:36.721Z</time></trkpt><trkpt lat="42.6150447" lon="13.7629742"><ele>164.83333333333334</ele><time>2026-04-19T09:43:37.722Z</time></trkpt><trkpt lat="42.6150312" lon="13.7630656"><ele>164.66666666666666</ele><time>2026-04-19T09:43:38.721Z</time></trkpt><trkpt lat="42.6149999" lon="13.7631444"><ele>164.5</ele><time>2026-04-19T09:43:39.722Z</time></trkpt><trkpt lat="42.6149038" lon="13.7632262"><ele>164.33333333333331</ele><time>2026-04-19T09:43:41.721Z</time></trkpt><trkpt lat="42.6147881" lon="13.7632252"><ele>164.16666666666666</ele><time>2026-04-19T09:43:43.721Z</time></trkpt><trkpt lat="42.6147163" lon="13.7631898"><ele>164.0</ele><time>2026-04-19T09:43:44.721Z</time></trkpt><trkpt lat="42.6146297" lon="13.7631255"><ele>164.0</ele><time>2026-04-19T09:43:45.721Z</time></trkpt><trkpt lat="42.614524" lon="13.7630454"><ele>164.0</ele><time>2026-04-19T09:43:46.722Z</time></trkpt><trkpt lat="42.6143964" lon="13.762947"><ele>164.0</ele><time>2026-04-19T09:43:47.722Z</time></trkpt><trkpt lat="42.6142609" lon="13.7628279"><ele>164.0</ele><time>2026-04-19T09:43:48.722Z</time></trkpt><trkpt lat="42.614107" lon="13.7627139"><ele>162.66666666666666</ele><time>2026-04-19T09:43:49.722Z</time></trkpt><trkpt lat="42.6139564" lon="13.7626"><ele>161.33333333333334</ele><time>2026-04-19T09:43:50.721Z</time></trkpt><trkpt lat="42.6138192" lon="13.7624901"><ele>160.0</ele><time>2026-04-19T09:43:51.721Z</time></trkpt><trkpt lat="42.6136908" lon="13.7623917"><ele>159.25</ele><time>2026-04-19T09:43:52.721Z</time></trkpt><trkpt lat="42.6135748" lon="13.7622985"><ele>158.5</ele><time>2026-04-19T09:43:53.722Z</time></trkpt><trkpt lat="42.613466" lon="13.7622135"><ele>157.75</ele><time>2026-04-19T09:43:54.722Z</time></trkpt><trkpt lat="42.6133717" lon="13.7621384"><ele>157.0</ele><time>2026-04-19T09:43:55.721Z</time></trkpt><trkpt lat="42.6132874" lon="13.7620718"><ele>157.0</ele><time>2026-04-19T09:43:56.721Z</time></trkpt><trkpt lat="42.6132154" lon="13.7620076"><ele>157.0</ele><time>2026-04-19T09:43:57.721Z</time></trkpt><trkpt lat="42.613149" lon="13.7619301"><ele>157.0</ele><time>2026-04-19T09:43:58.721Z</time></trkpt><trkpt lat="42.6130791" lon="13.7618529"><ele>157.0</ele><time>2026-04-19T09:43:59.721Z</time></trkpt><trkpt lat="42.6130203" lon="13.7617756"><ele>157.0</ele><time>2026-04-19T09:44:00.721Z</time></trkpt><trkpt lat="42.6129561" lon="13.7617176"><ele>157.0</ele><time>2026-04-19T09:44:01.721Z</time></trkpt><trkpt lat="42.6128716" lon="13.7616926"><ele>154.75</ele><time>2026-04-19T09:44:02.721Z</time></trkpt><trkpt lat="42.6127706" lon="13.7616675"><ele>152.5</ele><time>2026-04-19T09:44:03.722Z</time></trkpt><trkpt lat="42.6126665" lon="13.7616155"><ele>150.25</ele><time>2026-04-19T09:44:04.721Z</time></trkpt><trkpt lat="42.6125527" lon="13.761528"><ele>148.0</ele><time>2026-04-19T09:44:05.722Z</time></trkpt><trkpt lat="42.6124289" lon="13.7614257"><ele>148.0</ele><time>2026-04-19T09:44:06.722Z</time></trkpt><trkpt lat="42.6123" lon="13.761311"><ele>148.0</ele><time>2026-04-19T09:44:07.722Z</time></trkpt><trkpt lat="42.6121655" lon="13.7612004"><ele>148.0</ele><time>2026-04-19T09:44:08.722Z</time></trkpt><trkpt lat="42.6120298" lon="13.7611043"><ele>147.66666666666669</ele><time>2026-04-19T09:44:09.721Z</time></trkpt><trkpt lat="42.6118906" lon="13.7610046"><ele>147.33333333333334</ele><time>2026-04-19T09:44:10.721Z</time></trkpt><trkpt lat="42.6117603" lon="13.7609075"><ele>147.0</ele><time>2026-04-19T09:44:11.721Z</time></trkpt><trkpt lat="42.6116242" lon="13.760814"><ele>147.0</ele><time>2026-04-19T09:44:12.722Z</time></trkpt><trkpt lat="42.6114909" lon="13.7607247"><ele>147.0</ele><time>2026-04-19T09:44:13.721Z</time></trkpt><trkpt lat="42.6113625" lon="13.7606304"><ele>147.0</ele><time>2026-04-19T09:44:14.721Z</time></trkpt><trkpt lat="42.6112312" lon="13.7605342"><ele>147.0</ele><time>2026-04-19T09:44:15.722Z</time></trkpt><trkpt lat="42.6111029" lon="13.7604417"><ele>144.0</ele><time>2026-04-19T09:44:16.722Z</time></trkpt><trkpt lat="42.610976" lon="13.7603445"><ele>141.0</ele><time>2026-04-19T09:44:17.722Z</time></trkpt><trkpt lat="42.6108443" lon="13.7602441"><ele>138.0</ele><time>2026-04-19T09:44:18.721Z</time></trkpt><trkpt lat="42.6107105" lon="13.7601466"><ele>135.0</ele><time>2026-04-19T09:44:19.722Z</time></trkpt><trkpt lat="42.6105805" lon="13.7600522"><ele>135.0</ele><time>2026-04-19T09:44:20.721Z</time></trkpt><trkpt lat="42.6104557" lon="13.7599602"><ele>135.0</ele><time>2026-04-19T09:44:21.721Z</time></trkpt><trkpt lat="42.6103324" lon="13.759866"><ele>135.0</ele><time>2026-04-19T09:44:22.722Z</time></trkpt><trkpt lat="42.6102099" lon="13.7597778"><ele>135.0</ele><time>2026-04-19T09:44:23.722Z</time></trkpt><trkpt lat="42.6100919" lon="13.7596866"><ele>136.75</ele><time>2026-04-19T09:44:24.721Z</time></trkpt><trkpt lat="42.6099694" lon="13.7595951"><ele>138.5</ele><time>2026-04-19T09:44:25.721Z</time></trkpt><trkpt lat="42.6098449" lon="13.7595078"><ele>140.25</ele><time>2026-04-19T09:44:26.722Z</time></trkpt><trkpt lat="42.6097209" lon="13.7594069"><ele>142.0</ele><time>2026-04-19T09:44:27.722Z</time></trkpt><trkpt lat="42.6096078" lon="13.7592977"><ele>143.5</ele><time>2026-04-19T09:44:28.721Z</time></trkpt><trkpt lat="42.6095017" lon="13.7592023"><ele>145.0</ele><time>2026-04-19T09:44:29.721Z</time></trkpt><trkpt lat="42.609396" lon="13.7591021"><ele>146.5</ele><time>2026-04-19T09:44:30.722Z</time></trkpt><trkpt lat="42.6093008" lon="13.7590117"><ele>148.0</ele><time>2026-04-19T09:44:31.722Z</time></trkpt><trkpt lat="42.6092024" lon="13.7589085"><ele>148.20000000000002</ele><time>2026-04-19T09:44:32.721Z</time></trkpt><trkpt lat="42.6091348" lon="13.7588376"><ele>148.4</ele><time>2026-04-19T09:44:33.721Z</time></trkpt><trkpt lat="42.6090424" lon="13.7587476"><ele>148.60000000000002</ele><time>2026-04-19T09:44:34.722Z</time></trkpt><trkpt lat="42.6089516" lon="13.7586679"><ele>148.8</ele><time>2026-04-19T09:44:35.721Z</time></trkpt><trkpt lat="42.6088604" lon="13.7585964"><ele>149.0</ele><time>2026-04-19T09:44:36.722Z</time></trkpt><trkpt lat="42.6087715" lon="13.7585394"><ele>149.16666666666666</ele><time>2026-04-19T09:44:37.721Z</time></trkpt><trkpt lat="42.6086744" lon="13.7584685"><ele>149.33333333333331</ele><time>2026-04-19T09:44:38.721Z</time></trkpt><trkpt lat="42.6086079" lon="13.7584368"><ele>149.5</ele><time>2026-04-19T09:44:39.722Z</time></trkpt><trkpt lat="42.6085509" lon="13.7583725"><ele>149.66666666666666</ele><time>2026-04-19T09:44:40.721Z</time></trkpt><trkpt lat="42.608492" lon="13.7583231"><ele>149.83333333333334</ele><time>2026-04-19T09:44:41.722Z</time></trkpt><trkpt lat="42.6084217" lon="13.7582264"><ele>150.0</ele><time>2026-04-19T09:44:43.721Z</time></trkpt><trkpt lat="42.6083694" lon="13.758175"><ele>150.0</ele><time>2026-04-19T09:44:44.721Z</time></trkpt><trkpt lat="42.6083079" lon="13.7581019"><ele>150.0</ele><time>2026-04-19T09:44:45.721Z</time></trkpt><trkpt lat="42.6082109" lon="13.758029"><ele>150.0</ele><time>2026-04-19T09:44:46.722Z</time></trkpt><trkpt lat="42.6081062" lon="13.7579473"><ele>150.0</ele><time>2026-04-19T09:44:47.721Z</time></trkpt><trkpt lat="42.6080264" lon="13.7578551"><ele>150.0</ele><time>2026-04-19T09:44:48.721Z</time></trkpt><trkpt lat="42.6079627" lon="13.7577484"><ele>149.75</ele><time>2026-04-19T09:44:49.721Z</time></trkpt><trkpt lat="42.607905" lon="13.7576229"><ele>149.5</ele><time>2026-04-19T09:44:50.721Z</time></trkpt><trkpt lat="42.6078654" lon="13.7574679"><ele>149.25</ele><time>2026-04-19T09:44:51.721Z</time></trkpt><trkpt lat="42.6078259" lon="13.7572849"><ele>149.0</ele><time>2026-04-19T09:44:52.721Z</time></trkpt><trkpt lat="42.6077969" lon="13.7570854"><ele>149.0</ele><time>2026-04-19T09:44:53.721Z</time></trkpt><trkpt lat="42.6077595" lon="13.7568711"><ele>149.0</ele><time>2026-04-19T09:44:54.722Z</time></trkpt><trkpt lat="42.607726" lon="13.7566699"><ele>149.0</ele><time>2026-04-19T09:44:55.721Z</time></trkpt><trkpt lat="42.6076907" lon="13.756476"><ele>149.0</ele><time>2026-04-19T09:44:56.721Z</time></trkpt><trkpt lat="42.6076565" lon="13.7562978"><ele>149.0</ele><time>2026-04-19T09:44:57.721Z</time></trkpt><trkpt lat="42.6076291" lon="13.7561338"><ele>149.0</ele><time>2026-04-19T09:44:58.721Z</time></trkpt><trkpt lat="42.6076024" lon="13.7559833"><ele>149.0</ele><time>2026-04-19T09:44:59.722Z</time></trkpt><trkpt lat="42.6075808" lon="13.7558395"><ele>149.0</ele><time>2026-04-19T09:45:00.721Z</time></trkpt><trkpt lat="42.6075661" lon="13.7556973"><ele>149.0</ele><time>2026-04-19T09:45:01.721Z</time></trkpt><trkpt lat="42.6075424" lon="13.7555565"><ele>149.0</ele><time>2026-04-19T09:45:02.722Z</time></trkpt><trkpt lat="42.607525" lon="13.7554043"><ele>149.0</ele><time>2026-04-19T09:45:03.721Z</time></trkpt><trkpt lat="42.6075127" lon="13.7552576"><ele>149.0</ele><time>2026-04-19T09:45:04.721Z</time></trkpt><trkpt lat="42.6074862" lon="13.755109"><ele>149.6</ele><time>2026-04-19T09:45:05.722Z</time></trkpt><trkpt lat="42.6074683" lon="13.754975"><ele>150.2</ele><time>2026-04-19T09:45:06.722Z</time></trkpt><trkpt lat="42.6074528" lon="13.7548504"><ele>150.79999999999998</ele><time>2026-04-19T09:45:07.722Z</time></trkpt><trkpt lat="42.6074362" lon="13.7547148"><ele>151.4</ele><time>2026-04-19T09:45:08.722Z</time></trkpt><trkpt lat="42.6074245" lon="13.7545604"><ele>152.0</ele><time>2026-04-19T09:45:09.722Z</time></trkpt><trkpt lat="42.6074043" lon="13.7543739"><ele>152.33333333333331</ele><time>2026-04-19T09:45:10.721Z</time></trkpt><trkpt lat="42.6073858" lon="13.7541577"><ele>152.66666666666666</ele><time>2026-04-19T09:45:11.722Z</time></trkpt><trkpt lat="42.6073738" lon="13.7539264"><ele>153.0</ele><time>2026-04-19T09:45:12.722Z</time></trkpt><trkpt lat="42.6073663" lon="13.7536885"><ele>153.33333333333334</ele><time>2026-04-19T09:45:13.721Z</time></trkpt><trkpt lat="42.6073638" lon="13.7534615"><ele>153.66666666666669</ele><time>2026-04-19T09:45:14.721Z</time></trkpt><trkpt lat="42.6073619" lon="13.7532281"><ele>154.0</ele><time>2026-04-19T09:45:15.722Z</time></trkpt><trkpt lat="42.6073554" lon="13.7529871"><ele>154.0</ele><time>2026-04-19T09:45:16.722Z</time></trkpt><trkpt lat="42.6073423" lon="13.7527418"><ele>154.0</ele><time>2026-04-19T09:45:17.721Z</time></trkpt><trkpt lat="42.6073309" lon="13.7524993"><ele>154.0</ele><time>2026-04-19T09:45:18.721Z</time></trkpt><trkpt lat="42.607328" lon="13.7522583"><ele>154.0</ele><time>2026-04-19T09:45:19.722Z</time></trkpt><trkpt lat="42.6073359" lon="13.7520211"><ele>154.0</ele><time>2026-04-19T09:45:20.722Z</time></trkpt><trkpt lat="42.6073381" lon="13.7517847"><ele>154.0</ele><time>2026-04-19T09:45:21.722Z</time></trkpt><trkpt lat="42.6073425" lon="13.7515488"><ele>154.33333333333334</ele><time>2026-04-19T09:45:22.721Z</time></trkpt><trkpt lat="42.6073406" lon="13.7513107"><ele>154.66666666666666</ele><time>2026-04-19T09:45:23.722Z</time></trkpt><trkpt lat="42.6073451" lon="13.7510775"><ele>155.0</ele><time>2026-04-19T09:45:24.722Z</time></trkpt><trkpt lat="42.6073437" lon="13.7508465"><ele>156.0</ele><time>2026-04-19T09:45:25.722Z</time></trkpt><trkpt lat="42.6073342" lon="13.7506225"><ele>157.0</ele><time>2026-04-19T09:45:26.721Z</time></trkpt><trkpt lat="42.6073273" lon="13.7503966"><ele>158.0</ele><time>2026-04-19T09:45:27.722Z</time></trkpt><trkpt lat="42.6073202" lon="13.7501743"><ele>158.0</ele><time>2026-04-19T09:45:28.721Z</time></trkpt><trkpt lat="42.607322" lon="13.7499526"><ele>158.0</ele><time>2026-04-19T09:45:29.722Z</time></trkpt><trkpt lat="42.6073096" lon="13.7497303"><ele>158.0</ele><time>2026-04-19T09:45:30.722Z</time></trkpt><trkpt lat="42.6072848" lon="13.7495093"><ele>158.66666666666666</ele><time>2026-04-19T09:45:31.721Z</time></trkpt><trkpt lat="42.6072492" lon="13.7492817"><ele>159.33333333333334</ele><time>2026-04-19T09:45:32.721Z</time></trkpt><trkpt lat="42.6072042" lon="13.7490536"><ele>160.0</ele><time>2026-04-19T09:45:33.722Z</time></trkpt><trkpt lat="42.6071571" lon="13.7488308"><ele>160.0</ele><time>2026-04-19T09:45:34.722Z</time></trkpt><trkpt lat="42.6071166" lon="13.7486153"><ele>160.0</ele><time>2026-04-19T09:45:35.722Z</time></trkpt><trkpt lat="42.6070839" lon="13.7484135"><ele>160.0</ele><time>2026-04-19T09:45:36.721Z</time></trkpt><trkpt lat="42.6070536" lon="13.7482238"><ele>160.0</ele><time>2026-04-19T09:45:37.721Z</time></trkpt><trkpt lat="42.6070464" lon="13.7480403"><ele>160.0</ele><time>2026-04-19T09:45:38.721Z</time></trkpt><trkpt lat="42.6070536" lon="13.7478663"><ele>160.0</ele><time>2026-04-19T09:45:39.721Z</time></trkpt><trkpt lat="42.6070729" lon="13.7476818"><ele>160.0</ele><time>2026-04-19T09:45:40.722Z</time></trkpt><trkpt lat="42.6071008" lon="13.747501"><ele>160.5</ele><time>2026-04-19T09:45:41.721Z</time></trkpt><trkpt lat="42.6071408" lon="13.7473313"><ele>161.0</ele><time>2026-04-19T09:45:42.721Z</time></trkpt><trkpt lat="42.6071926" lon="13.747158"><ele>161.5</ele><time>2026-04-19T09:45:43.721Z</time></trkpt><trkpt lat="42.6072403" lon="13.7469978"><ele>162.0</ele><time>2026-04-19T09:45:44.721Z</time></trkpt><trkpt lat="42.6072936" lon="13.7468295"><ele>162.0</ele><time>2026-04-19T09:45:45.721Z</time></trkpt><trkpt lat="42.6073498" lon="13.7466597"><ele>162.0</ele><time>2026-04-19T09:45:46.722Z</time></trkpt><trkpt lat="42.6074099" lon="13.7464787"><ele>162.0</ele><time>2026-04-19T09:45:47.722Z</time></trkpt><trkpt lat="42.6074684" lon="13.7462873"><ele>162.0</ele><time>2026-04-19T09:45:48.722Z</time></trkpt><trkpt lat="42.6075398" lon="13.7460856"><ele>161.0</ele><time>2026-04-19T09:45:49.721Z</time></trkpt><trkpt lat="42.6076084" lon="13.7458794"><ele>160.0</ele><time>2026-04-19T09:45:50.721Z</time></trkpt><trkpt lat="42.6076748" lon="13.7456732"><ele>159.0</ele><time>2026-04-19T09:45:51.721Z</time></trkpt><trkpt lat="42.6077587" lon="13.7454569"><ele>159.33333333333334</ele><time>2026-04-19T09:45:52.721Z</time></trkpt><trkpt lat="42.6078341" lon="13.7452189"><ele>159.66666666666669</ele><time>2026-04-19T09:45:53.722Z</time></trkpt><trkpt lat="42.6079048" lon="13.7449877"><ele>160.0</ele><time>2026-04-19T09:45:54.729Z</time></trkpt><trkpt lat="42.6079725" lon="13.7447687"><ele>160.0</ele><time>2026-04-19T09:45:55.728Z</time></trkpt><trkpt lat="42.6080358" lon="13.7445618"><ele>160.0</ele><time>2026-04-19T09:45:56.728Z</time></trkpt><trkpt lat="42.6080955" lon="13.7443559"><ele>160.0</ele><time>2026-04-19T09:45:57.729Z</time></trkpt><trkpt lat="42.6081311" lon="13.7441376"><ele>160.33333333333334</ele><time>2026-04-19T09:45:58.728Z</time></trkpt><trkpt lat="42.6081564" lon="13.7438874"><ele>160.66666666666666</ele><time>2026-04-19T09:45:59.729Z</time></trkpt><trkpt lat="42.6081705" lon="13.7436086"><ele>161.0</ele><time>2026-04-19T09:46:00.729Z</time></trkpt><trkpt lat="42.6081927" lon="13.7433115"><ele>161.0</ele><time>2026-04-19T09:46:01.728Z</time></trkpt><trkpt lat="42.6082106" lon="13.7430196"><ele>161.0</ele><time>2026-04-19T09:46:02.729Z</time></trkpt><trkpt lat="42.6082203" lon="13.7427429"><ele>161.0</ele><time>2026-04-19T09:46:03.728Z</time></trkpt><trkpt lat="42.608224" lon="13.7424786"><ele>161.0</ele><time>2026-04-19T09:46:04.728Z</time></trkpt><trkpt lat="42.6082322" lon="13.7422214"><ele>161.0</ele><time>2026-04-19T09:46:05.729Z</time></trkpt><trkpt lat="42.6082474" lon="13.7419821"><ele>161.0</ele><time>2026-04-19T09:46:06.729Z</time></trkpt><trkpt lat="42.6082595" lon="13.7417483"><ele>161.66666666666666</ele><time>2026-04-19T09:46:07.729Z</time></trkpt><trkpt lat="42.6082677" lon="13.7415205"><ele>162.33333333333334</ele><time>2026-04-19T09:46:08.729Z</time></trkpt><trkpt lat="42.608267" lon="13.7412944"><ele>163.0</ele><time>2026-04-19T09:46:09.728Z</time></trkpt><trkpt lat="42.6082626" lon="13.7410829"><ele>163.66666666666669</ele><time>2026-04-19T09:46:10.729Z</time></trkpt><trkpt lat="42.608269" lon="13.7408622"><ele>164.33333333333334</ele><time>2026-04-19T09:46:11.728Z</time></trkpt><trkpt lat="42.6082865" lon="13.7406314"><ele>165.0</ele><time>2026-04-19T09:46:12.729Z</time></trkpt><trkpt lat="42.6083121" lon="13.7403897"><ele>165.33333333333334</ele><time>2026-04-19T09:46:13.728Z</time></trkpt><trkpt lat="42.6083416" lon="13.7401457"><ele>165.66666666666669</ele><time>2026-04-19T09:46:14.728Z</time></trkpt><trkpt lat="42.6083671" lon="13.7399066"><ele>166.0</ele><time>2026-04-19T09:46:15.729Z</time></trkpt><trkpt lat="42.6084022" lon="13.7396663"><ele>166.0</ele><time>2026-04-19T09:46:16.728Z</time></trkpt><trkpt lat="42.6084398" lon="13.7394287"><ele>166.0</ele><time>2026-04-19T09:46:17.728Z</time></trkpt><trkpt lat="42.608484" lon="13.7391848"><ele>166.0</ele><time>2026-04-19T09:46:18.728Z</time></trkpt><trkpt lat="42.6085394" lon="13.7389296"><ele>165.66666666666669</ele><time>2026-04-19T09:46:19.729Z</time></trkpt><trkpt lat="42.6086062" lon="13.738661"><ele>165.33333333333334</ele><time>2026-04-19T09:46:20.728Z</time></trkpt><trkpt lat="42.6086856" lon="13.738391"><ele>165.0</ele><time>2026-04-19T09:46:21.729Z</time></trkpt><trkpt lat="42.6087676" lon="13.7381161"><ele>164.0</ele><time>2026-04-19T09:46:22.729Z</time></trkpt><trkpt lat="42.6088464" lon="13.7378536"><ele>163.0</ele><time>2026-04-19T09:46:23.728Z</time></trkpt><trkpt lat="42.6089248" lon="13.7376009"><ele>162.0</ele><time>2026-04-19T09:46:24.728Z</time></trkpt><trkpt lat="42.6089977" lon="13.7373588"><ele>162.0</ele><time>2026-04-19T09:46:25.729Z</time></trkpt><trkpt lat="42.6090684" lon="13.7371194"><ele>162.0</ele><time>2026-04-19T09:46:26.729Z</time></trkpt><trkpt lat="42.6091396" lon="13.7368818"><ele>162.0</ele><time>2026-04-19T09:46:27.729Z</time></trkpt><trkpt lat="42.6092107" lon="13.7366471"><ele>162.66666666666666</ele><time>2026-04-19T09:46:28.729Z</time></trkpt><trkpt lat="42.6092876" lon="13.736415"><ele>163.33333333333331</ele><time>2026-04-19T09:46:29.729Z</time></trkpt><trkpt lat="42.6093637" lon="13.7361775"><ele>164.0</ele><time>2026-04-19T09:46:30.728Z</time></trkpt><trkpt lat="42.609441" lon="13.7359302"><ele>163.33333333333331</ele><time>2026-04-19T09:46:31.729Z</time></trkpt><trkpt lat="42.6095221" lon="13.7356669"><ele>162.66666666666666</ele><time>2026-04-19T09:46:32.729Z</time></trkpt><trkpt lat="42.6096002" lon="13.7354076"><ele>162.0</ele><time>2026-04-19T09:46:33.728Z</time></trkpt><trkpt lat="42.6096792" lon="13.7351584"><ele>162.0</ele><time>2026-04-19T09:46:34.729Z</time></trkpt><trkpt lat="42.609754" lon="13.7349212"><ele>162.0</ele><time>2026-04-19T09:46:35.729Z</time></trkpt><trkpt lat="42.6098191" lon="13.734696"><ele>162.0</ele><time>2026-04-19T09:46:36.728Z</time></trkpt><trkpt lat="42.6098824" lon="13.7344817"><ele>162.66666666666666</ele><time>2026-04-19T09:46:37.729Z</time></trkpt><trkpt lat="42.6099407" lon="13.734275"><ele>163.33333333333331</ele><time>2026-04-19T09:46:38.728Z</time></trkpt><trkpt lat="42.609997" lon="13.7340804"><ele>164.0</ele><time>2026-04-19T09:46:39.728Z</time></trkpt><trkpt lat="42.6100501" lon="13.7338814"><ele>164.0</ele><time>2026-04-19T09:46:40.728Z</time></trkpt><trkpt lat="42.6100996" lon="13.733669"><ele>164.0</ele><time>2026-04-19T09:46:41.729Z</time></trkpt><trkpt lat="42.610156" lon="13.7334499"><ele>164.0</ele><time>2026-04-19T09:46:42.728Z</time></trkpt><trkpt lat="42.6102304" lon="13.7332407"><ele>164.33333333333331</ele><time>2026-04-19T09:46:43.728Z</time></trkpt><trkpt lat="42.6102894" lon="13.7330489"><ele>164.66666666666666</ele><time>2026-04-19T09:46:44.729Z</time></trkpt><trkpt lat="42.6103505" lon="13.7328584"><ele>165.0</ele><time>2026-04-19T09:46:45.729Z</time></trkpt><trkpt lat="42.6104122" lon="13.7326739"><ele>165.0</ele><time>2026-04-19T09:46:46.729Z</time></trkpt><trkpt lat="42.6104716" lon="13.7324849"><ele>165.0</ele><time>2026-04-19T09:46:47.728Z</time></trkpt><trkpt lat="42.6105329" lon="13.7323027"><ele>165.0</ele><time>2026-04-19T09:46:48.729Z</time></trkpt><trkpt lat="42.6105917" lon="13.7321191"><ele>165.0</ele><time>2026-04-19T09:46:49.729Z</time></trkpt><trkpt lat="42.6106569" lon="13.7319391"><ele>165.25</ele><time>2026-04-19T09:46:50.728Z</time></trkpt><trkpt lat="42.6107179" lon="13.731756"><ele>165.5</ele><time>2026-04-19T09:46:51.729Z</time></trkpt><trkpt lat="42.6107758" lon="13.7315786"><ele>165.75</ele><time>2026-04-19T09:46:52.728Z</time></trkpt><trkpt lat="42.6108269" lon="13.7314069"><ele>166.0</ele><time>2026-04-19T09:46:53.728Z</time></trkpt><trkpt lat="42.6108753" lon="13.7312364"><ele>166.0</ele><time>2026-04-19T09:46:54.728Z</time></trkpt><trkpt lat="42.6109307" lon="13.7310815"><ele>166.0</ele><time>2026-04-19T09:46:55.728Z</time></trkpt><trkpt lat="42.6109819" lon="13.7309244"><ele>166.0</ele><time>2026-04-19T09:46:56.728Z</time></trkpt><trkpt lat="42.611032" lon="13.7307667"><ele>166.0</ele><time>2026-04-19T09:46:57.728Z</time></trkpt><trkpt lat="42.6110867" lon="13.7306048"><ele>166.0</ele><time>2026-04-19T09:46:58.729Z</time></trkpt><trkpt lat="42.6111374" lon="13.7304367"><ele>166.0</ele><time>2026-04-19T09:46:59.728Z</time></trkpt><trkpt lat="42.6111922" lon="13.7302618"><ele>166.0</ele><time>2026-04-19T09:47:00.729Z</time></trkpt><trkpt lat="42.6112448" lon="13.7300813"><ele>166.0</ele><time>2026-04-19T09:47:01.728Z</time></trkpt><trkpt lat="42.6113026" lon="13.729897"><ele>165.75</ele><time>2026-04-19T09:47:02.729Z</time></trkpt><trkpt lat="42.6113629" lon="13.7297119"><ele>165.5</ele><time>2026-04-19T09:47:03.728Z</time></trkpt><trkpt lat="42.6114191" lon="13.7295324"><ele>165.25</ele><time>2026-04-19T09:47:04.728Z</time></trkpt><trkpt lat="42.6114712" lon="13.7293622"><ele>165.0</ele><time>2026-04-19T09:47:05.728Z</time></trkpt><trkpt lat="42.6115216" lon="13.7292038"><ele>165.0</ele><time>2026-04-19T09:47:06.728Z</time></trkpt><trkpt lat="42.6115655" lon="13.7290445"><ele>165.0</ele><time>2026-04-19T09:47:07.728Z</time></trkpt><trkpt lat="42.6116176" lon="13.7288801"><ele>165.0</ele><time>2026-04-19T09:47:08.728Z</time></trkpt><trkpt lat="42.6116684" lon="13.7287142"><ele>165.0</ele><time>2026-04-19T09:47:09.729Z</time></trkpt><trkpt lat="42.6117294" lon="13.7285408"><ele>166.0</ele><time>2026-04-19T09:47:10.728Z</time></trkpt><trkpt lat="42.6117852" lon="13.72836"><ele>167.0</ele><time>2026-04-19T09:47:11.728Z</time></trkpt><trkpt lat="42.6118439" lon="13.7281663"><ele>168.0</ele><time>2026-04-19T09:47:12.728Z</time></trkpt><trkpt lat="42.6119116" lon="13.7279433"><ele>168.0</ele><time>2026-04-19T09:47:13.728Z</time></trkpt><trkpt lat="42.6119921" lon="13.7277027"><ele>168.0</ele><time>2026-04-19T09:47:14.728Z</time></trkpt><trkpt lat="42.6120847" lon="13.7274366"><ele>168.0</ele><time>2026-04-19T09:47:15.728Z</time></trkpt><trkpt lat="42.6121785" lon="13.7271339"><ele>168.5</ele><time>2026-04-19T09:47:16.729Z</time></trkpt><trkpt lat="42.6122781" lon="13.7267163"><ele>169.0</ele><time>2026-04-19T09:47:17.729Z</time></trkpt><trkpt lat="42.6123848" lon="13.7263827"><ele>169.0</ele><time>2026-04-19T09:47:18.728Z</time></trkpt><trkpt lat="42.6124904" lon="13.7260639"><ele>169.0</ele><time>2026-04-19T09:47:19.728Z</time></trkpt><trkpt lat="42.6125855" lon="13.7257729"><ele>169.0</ele><time>2026-04-19T09:47:20.728Z</time></trkpt><trkpt lat="42.6126678" lon="13.7255037"><ele>169.0</ele><time>2026-04-19T09:47:21.728Z</time></trkpt><trkpt lat="42.6127493" lon="13.7252422"><ele>169.0</ele><time>2026-04-19T09:47:22.729Z</time></trkpt><trkpt lat="42.6128264" lon="13.7249841"><ele>168.66666666666669</ele><time>2026-04-19T09:47:23.728Z</time></trkpt><trkpt lat="42.6128976" lon="13.7247526"><ele>168.33333333333334</ele><time>2026-04-19T09:47:24.729Z</time></trkpt><trkpt lat="42.6129634" lon="13.7245306"><ele>168.0</ele><time>2026-04-19T09:47:25.728Z</time></trkpt><trkpt lat="42.6130301" lon="13.7243219"><ele>169.0</ele><time>2026-04-19T09:47:26.728Z</time></trkpt><trkpt lat="42.6130906" lon="13.7241195"><ele>170.0</ele><time>2026-04-19T09:47:27.728Z</time></trkpt><trkpt lat="42.6131483" lon="13.7239319"><ele>171.0</ele><time>2026-04-19T09:47:28.729Z</time></trkpt><trkpt lat="42.6132039" lon="13.7237458"><ele>171.0</ele><time>2026-04-19T09:47:29.728Z</time></trkpt><trkpt lat="42.6132558" lon="13.7235702"><ele>171.0</ele><time>2026-04-19T09:47:30.728Z</time></trkpt><trkpt lat="42.6133023" lon="13.7234092"><ele>171.0</ele><time>2026-04-19T09:47:31.728Z</time></trkpt><trkpt lat="42.6133436" lon="13.7232538"><ele>171.0</ele><time>2026-04-19T09:47:32.729Z</time></trkpt><trkpt lat="42.6133867" lon="13.7231029"><ele>171.20000000000002</ele><time>2026-04-19T09:47:33.728Z</time></trkpt><trkpt lat="42.6134337" lon="13.7229594"><ele>171.4</ele><time>2026-04-19T09:47:34.728Z</time></trkpt><trkpt lat="42.613478" lon="13.7228292"><ele>171.6</ele><time>2026-04-19T09:47:35.728Z</time></trkpt><trkpt lat="42.6135176" lon="13.7227044"><ele>171.8</ele><time>2026-04-19T09:47:36.728Z</time></trkpt><trkpt lat="42.6135453" lon="13.7225766"><ele>172.0</ele><time>2026-04-19T09:47:37.728Z</time></trkpt><trkpt lat="42.6135652" lon="13.7224319"><ele>172.25</ele><time>2026-04-19T09:47:38.729Z</time></trkpt><trkpt lat="42.6135687" lon="13.722266"><ele>172.5</ele><time>2026-04-19T09:47:39.728Z</time></trkpt><trkpt lat="42.6135541" lon="13.7220988"><ele>172.75</ele><time>2026-04-19T09:47:40.728Z</time></trkpt><trkpt lat="42.6135077" lon="13.7219513"><ele>173.0</ele><time>2026-04-19T09:47:41.728Z</time></trkpt><trkpt lat="42.6134411" lon="13.7218169"><ele>171.75</ele><time>2026-04-19T09:47:42.729Z</time></trkpt><trkpt lat="42.6133434" lon="13.7217077"><ele>170.5</ele><time>2026-04-19T09:47:43.728Z</time></trkpt><trkpt lat="42.6132275" lon="13.721615"><ele>169.25</ele><time>2026-04-19T09:47:44.728Z</time></trkpt><trkpt lat="42.6130973" lon="13.7215264"><ele>168.0</ele><time>2026-04-19T09:47:45.728Z</time></trkpt><trkpt lat="42.6129775" lon="13.7214481"><ele>168.0</ele><time>2026-04-19T09:47:46.728Z</time></trkpt><trkpt lat="42.6128616" lon="13.7213642"><ele>168.0</ele><time>2026-04-19T09:47:47.729Z</time></trkpt><trkpt lat="42.6127547" lon="13.721271"><ele>168.0</ele><time>2026-04-19T09:47:48.728Z</time></trkpt><trkpt lat="42.6126616" lon="13.7211588"><ele>168.0</ele><time>2026-04-19T09:47:49.729Z</time></trkpt><trkpt lat="42.6125847" lon="13.721017"><ele>168.25</ele><time>2026-04-19T09:47:50.729Z</time></trkpt><trkpt lat="42.6125267" lon="13.7208699"><ele>168.5</ele><time>2026-04-19T09:47:51.729Z</time></trkpt><trkpt lat="42.6124824" lon="13.7207039"><ele>168.75</ele><time>2026-04-19T09:47:52.728Z</time></trkpt><trkpt lat="42.6124527" lon="13.7205283"><ele>169.0</ele><time>2026-04-19T09:47:53.729Z</time></trkpt><trkpt lat="42.6124208" lon="13.7203459"><ele>168.0</ele><time>2026-04-19T09:47:54.729Z</time></trkpt><trkpt lat="42.6123847" lon="13.72015"><ele>167.0</ele><time>2026-04-19T09:47:55.729Z</time></trkpt><trkpt lat="42.6123505" lon="13.7199097"><ele>166.0</ele><time>2026-04-19T09:47:56.728Z</time></trkpt><trkpt lat="42.6123157" lon="13.7196284"><ele>165.5</ele><time>2026-04-19T09:47:57.728Z</time></trkpt><trkpt lat="42.6122912" lon="13.7193326"><ele>165.0</ele><time>2026-04-19T09:47:58.728Z</time></trkpt><trkpt lat="42.6122627" lon="13.7190123"><ele>165.0</ele><time>2026-04-19T09:47:59.728Z</time></trkpt><trkpt lat="42.6122274" lon="13.7186955"><ele>165.0</ele><time>2026-04-19T09:48:00.729Z</time></trkpt><trkpt lat="42.6121907" lon="13.7183857"><ele>165.0</ele><time>2026-04-19T09:48:01.728Z</time></trkpt><trkpt lat="42.6121638" lon="13.7180798"><ele>165.0</ele><time>2026-04-19T09:48:02.729Z</time></trkpt><trkpt lat="42.612135" lon="13.717782"><ele>165.0</ele><time>2026-04-19T09:48:03.728Z</time></trkpt><trkpt lat="42.6121079" lon="13.7174857"><ele>164.66666666666666</ele><time>2026-04-19T09:48:04.728Z</time></trkpt><trkpt lat="42.6120838" lon="13.7171943"><ele>164.33333333333331</ele><time>2026-04-19T09:48:05.728Z</time></trkpt><trkpt lat="42.6120727" lon="13.716882"><ele>164.0</ele><time>2026-04-19T09:48:06.728Z</time></trkpt><trkpt lat="42.6120872" lon="13.7165586"><ele>163.0</ele><time>2026-04-19T09:48:07.729Z</time></trkpt><trkpt lat="42.6121366" lon="13.716228"><ele>162.0</ele><time>2026-04-19T09:48:08.729Z</time></trkpt><trkpt lat="42.612191" lon="13.7159054"><ele>162.0</ele><time>2026-04-19T09:48:09.728Z</time></trkpt><trkpt lat="42.6122487" lon="13.7156095"><ele>162.0</ele><time>2026-04-19T09:48:10.729Z</time></trkpt><trkpt lat="42.6123001" lon="13.715324"><ele>162.0</ele><time>2026-04-19T09:48:11.729Z</time></trkpt><trkpt lat="42.6123436" lon="13.7150508"><ele>164.33333333333334</ele><time>2026-04-19T09:48:12.728Z</time></trkpt><trkpt lat="42.6123765" lon="13.7147944"><ele>166.66666666666669</ele><time>2026-04-19T09:48:13.729Z</time></trkpt><trkpt lat="42.6123874" lon="13.714533"><ele>169.0</ele><time>2026-04-19T09:48:14.728Z</time></trkpt><trkpt lat="42.6123592" lon="13.7142755"><ele>172.33333333333334</ele><time>2026-04-19T09:48:15.728Z</time></trkpt><trkpt lat="42.6122952" lon="13.714022"><ele>175.66666666666666</ele><time>2026-04-19T09:48:16.729Z</time></trkpt><trkpt lat="42.6122019" lon="13.7137713"><ele>179.0</ele><time>2026-04-19T09:48:17.729Z</time></trkpt><trkpt lat="42.6120848" lon="13.7135291"><ele>176.0</ele><time>2026-04-19T09:48:18.728Z</time></trkpt><trkpt lat="42.6119729" lon="13.7132994"><ele>173.0</ele><time>2026-04-19T09:48:19.728Z</time></trkpt><trkpt lat="42.6119066" lon="13.7131278"><ele>170.0</ele><time>2026-04-19T09:48:20.728Z</time></trkpt><trkpt lat="42.6118051" lon="13.7129305"><ele>173.66666666666666</ele><time>2026-04-19T09:48:21.729Z</time></trkpt><trkpt lat="42.6117091" lon="13.7127266"><ele>177.33333333333334</ele><time>2026-04-19T09:48:22.729Z</time></trkpt><trkpt lat="42.6116153" lon="13.7125279"><ele>181.0</ele><time>2026-04-19T09:48:23.728Z</time></trkpt><trkpt lat="42.6115142" lon="13.7123478"><ele>181.0</ele><time>2026-04-19T09:48:24.728Z</time></trkpt><trkpt lat="42.6114019" lon="13.7121858"><ele>181.0</ele><time>2026-04-19T09:48:25.728Z</time></trkpt><trkpt lat="42.611284" lon="13.7120424"><ele>181.0</ele><time>2026-04-19T09:48:26.728Z</time></trkpt><trkpt lat="42.6111602" lon="13.7119135"><ele>178.25</ele><time>2026-04-19T09:48:27.729Z</time></trkpt><trkpt lat="42.6110392" lon="13.7118101"><ele>175.5</ele><time>2026-04-19T09:48:28.729Z</time></trkpt><trkpt lat="42.6109181" lon="13.7117252"><ele>172.75</ele><time>2026-04-19T09:48:29.728Z</time></trkpt><trkpt lat="42.6108001" lon="13.7116528"><ele>170.0</ele><time>2026-04-19T09:48:30.728Z</time></trkpt><trkpt lat="42.6106894" lon="13.711589"><ele>170.0</ele><time>2026-04-19T09:48:31.728Z</time></trkpt><trkpt lat="42.6105878" lon="13.7115194"><ele>170.0</ele><time>2026-04-19T09:48:32.728Z</time></trkpt><trkpt lat="42.6104958" lon="13.7114426"><ele>170.0</ele><time>2026-04-19T09:48:33.728Z</time></trkpt><trkpt lat="42.6104051" lon="13.7113513"><ele>170.0</ele><time>2026-04-19T09:48:34.728Z</time></trkpt><trkpt lat="42.6103077" lon="13.7112439"><ele>170.25</ele><time>2026-04-19T09:48:35.728Z</time></trkpt><trkpt lat="42.6102088" lon="13.7111376"><ele>170.5</ele><time>2026-04-19T09:48:36.729Z</time></trkpt><trkpt lat="42.6101102" lon="13.7110207"><ele>170.75</ele><time>2026-04-19T09:48:37.729Z</time></trkpt><trkpt lat="42.6100059" lon="13.7109092"><ele>171.0</ele><time>2026-04-19T09:48:38.729Z</time></trkpt><trkpt lat="42.6099039" lon="13.7107976"><ele>171.0</ele><time>2026-04-19T09:48:39.728Z</time></trkpt><trkpt lat="42.6097952" lon="13.7106866"><ele>171.0</ele><time>2026-04-19T09:48:40.728Z</time></trkpt><trkpt lat="42.6096892" lon="13.710559"><ele>171.0</ele><time>2026-04-19T09:48:41.728Z</time></trkpt><trkpt lat="42.6095737" lon="13.7104333"><ele>171.0</ele><time>2026-04-19T09:48:42.729Z</time></trkpt><trkpt lat="42.6094439" lon="13.7103166"><ele>171.66666666666666</ele><time>2026-04-19T09:48:43.728Z</time></trkpt><trkpt lat="42.6093051" lon="13.7101975"><ele>172.33333333333331</ele><time>2026-04-19T09:48:44.729Z</time></trkpt><trkpt lat="42.6091427" lon="13.7101184"><ele>173.0</ele><time>2026-04-19T09:48:45.728Z</time></trkpt><trkpt lat="42.6089659" lon="13.7100711"><ele>173.0</ele><time>2026-04-19T09:48:46.728Z</time></trkpt><trkpt lat="42.6087966" lon="13.7100349"><ele>173.0</ele><time>2026-04-19T09:48:47.728Z</time></trkpt><trkpt lat="42.6086242" lon="13.7100152"><ele>173.0</ele><time>2026-04-19T09:48:48.728Z</time></trkpt><trkpt lat="42.6084442" lon="13.7100348"><ele>171.5</ele><time>2026-04-19T09:48:49.729Z</time></trkpt><trkpt lat="42.6082972" lon="13.7100511"><ele>170.0</ele><time>2026-04-19T09:48:50.728Z</time></trkpt><trkpt lat="42.6081749" lon="13.7100566"><ele>168.5</ele><time>2026-04-19T09:48:51.728Z</time></trkpt><trkpt lat="42.6080536" lon="13.7100623"><ele>167.0</ele><time>2026-04-19T09:48:52.729Z</time></trkpt><trkpt lat="42.6078909" lon="13.7100858"><ele>167.0</ele><time>2026-04-19T09:48:53.729Z</time></trkpt><trkpt lat="42.6077429" lon="13.7101061"><ele>167.0</ele><time>2026-04-19T09:48:54.728Z</time></trkpt><trkpt lat="42.6076152" lon="13.7101202"><ele>167.0</ele><time>2026-04-19T09:48:55.728Z</time></trkpt><trkpt lat="42.607449" lon="13.710147"><ele>167.0</ele><time>2026-04-19T09:48:56.728Z</time></trkpt><trkpt lat="42.6072553" lon="13.7101869"><ele>167.0</ele><time>2026-04-19T09:48:57.728Z</time></trkpt><trkpt lat="42.6070401" lon="13.7102392"><ele>167.0</ele><time>2026-04-19T09:48:58.729Z</time></trkpt><trkpt lat="42.6068252" lon="13.7102633"><ele>167.0</ele><time>2026-04-19T09:48:59.729Z</time></trkpt><trkpt lat="42.606624" lon="13.7103024"><ele>168.33333333333331</ele><time>2026-04-19T09:49:00.729Z</time></trkpt><trkpt lat="42.6064495" lon="13.710342"><ele>169.66666666666666</ele><time>2026-04-19T09:49:01.728Z</time></trkpt><trkpt lat="42.606299" lon="13.7103913"><ele>171.0</ele><time>2026-04-19T09:49:02.729Z</time></trkpt><trkpt lat="42.6061541" lon="13.7104563"><ele>171.0</ele><time>2026-04-19T09:49:03.728Z</time></trkpt><trkpt lat="42.6060099" lon="13.7105177"><ele>171.0</ele><time>2026-04-19T09:49:04.728Z</time></trkpt><trkpt lat="42.6058871" lon="13.7106058"><ele>171.0</ele><time>2026-04-19T09:49:05.728Z</time></trkpt><trkpt lat="42.6057782" lon="13.7107047"><ele>171.0</ele><time>2026-04-19T09:49:06.729Z</time></trkpt><trkpt lat="42.605677" lon="13.7108253"><ele>171.0</ele><time>2026-04-19T09:49:07.728Z</time></trkpt><trkpt lat="42.605583" lon="13.7109488"><ele>171.0</ele><time>2026-04-19T09:49:08.728Z</time></trkpt><trkpt lat="42.6054939" lon="13.711065"><ele>171.0</ele><time>2026-04-19T09:49:09.729Z</time></trkpt><trkpt lat="42.6054086" lon="13.711195"><ele>171.0</ele><time>2026-04-19T09:49:10.728Z</time></trkpt><trkpt lat="42.6053156" lon="13.7113294"><ele>171.75</ele><time>2026-04-19T09:49:11.728Z</time></trkpt><trkpt lat="42.6052103" lon="13.7114506"><ele>172.5</ele><time>2026-04-19T09:49:12.728Z</time></trkpt><trkpt lat="42.6051066" lon="13.7115674"><ele>173.25</ele><time>2026-04-19T09:49:13.728Z</time></trkpt><trkpt lat="42.6049886" lon="13.7116719"><ele>174.0</ele><time>2026-04-19T09:49:14.729Z</time></trkpt><trkpt lat="42.6048654" lon="13.711763"><ele>174.0</ele><time>2026-04-19T09:49:15.728Z</time></trkpt><trkpt lat="42.6047506" lon="13.7118338"><ele>174.0</ele><time>2026-04-19T09:49:16.728Z</time></trkpt><trkpt lat="42.6046158" lon="13.7119002"><ele>174.0</ele><time>2026-04-19T09:49:17.728Z</time></trkpt><trkpt lat="42.6044777" lon="13.7119245"><ele>174.0</ele><time>2026-04-19T09:49:18.728Z</time></trkpt><trkpt lat="42.6043297" lon="13.7119339"><ele>176.0</ele><time>2026-04-19T09:49:19.728Z</time></trkpt><trkpt lat="42.6041809" lon="13.7119404"><ele>178.0</ele><time>2026-04-19T09:49:20.729Z</time></trkpt><trkpt lat="42.604026" lon="13.7119453"><ele>180.0</ele><time>2026-04-19T09:49:21.729Z</time></trkpt><trkpt lat="42.603885" lon="13.7119725"><ele>182.0</ele><time>2026-04-19T09:49:22.729Z</time></trkpt><trkpt lat="42.6037353" lon="13.7119909"><ele>181.66666666666666</ele><time>2026-04-19T09:49:23.729Z</time></trkpt><trkpt lat="42.6035955" lon="13.7120119"><ele>181.33333333333334</ele><time>2026-04-19T09:49:24.728Z</time></trkpt><trkpt lat="42.603435" lon="13.7120385"><ele>181.0</ele><time>2026-04-19T09:49:25.728Z</time></trkpt><trkpt lat="42.6032889" lon="13.7120704"><ele>181.0</ele><time>2026-04-19T09:49:26.729Z</time></trkpt><trkpt lat="42.6032182" lon="13.7121529"><ele>181.0</ele><time>2026-04-19T09:49:27.728Z</time></trkpt><trkpt lat="42.6030375" lon="13.7121602"><ele>181.0</ele><time>2026-04-19T09:49:28.729Z</time></trkpt><trkpt lat="42.602812" lon="13.7121534"><ele>181.5</ele><time>2026-04-19T09:49:29.728Z</time></trkpt><trkpt lat="42.6025884" lon="13.7121524"><ele>182.0</ele><time>2026-04-19T09:49:30.729Z</time></trkpt><trkpt lat="42.6023478" lon="13.71216"><ele>182.0</ele><time>2026-04-19T09:49:31.728Z</time></trkpt><trkpt lat="42.6020937" lon="13.7121612"><ele>182.0</ele><time>2026-04-19T09:49:32.728Z</time></trkpt><trkpt lat="42.601848" lon="13.7121601"><ele>182.0</ele><time>2026-04-19T09:49:33.728Z</time></trkpt><trkpt lat="42.6015873" lon="13.7121556"><ele>182.0</ele><time>2026-04-19T09:49:34.728Z</time></trkpt><trkpt lat="42.6013211" lon="13.7121585"><ele>182.0</ele><time>2026-04-19T09:49:35.729Z</time></trkpt><trkpt lat="42.6010412" lon="13.7121693"><ele>182.0</ele><time>2026-04-19T09:49:36.729Z</time></trkpt><trkpt lat="42.6007594" lon="13.7121832"><ele>182.0</ele><time>2026-04-19T09:49:37.729Z</time></trkpt><trkpt lat="42.600489" lon="13.7121928"><ele>182.0</ele><time>2026-04-19T09:49:38.728Z</time></trkpt><trkpt lat="42.6002443" lon="13.712221"><ele>183.0</ele><time>2026-04-19T09:49:39.728Z</time></trkpt><trkpt lat="42.6000129" lon="13.7122454"><ele>184.0</ele><time>2026-04-19T09:49:40.728Z</time></trkpt><trkpt lat="42.5998111" lon="13.7122732"><ele>185.0</ele><time>2026-04-19T09:49:41.728Z</time></trkpt><trkpt lat="42.5996471" lon="13.712313"><ele>186.75</ele><time>2026-04-19T09:49:42.728Z</time></trkpt><trkpt lat="42.5994944" lon="13.71233"><ele>188.5</ele><time>2026-04-19T09:49:43.728Z</time></trkpt><trkpt lat="42.5993551" lon="13.7123134"><ele>190.25</ele><time>2026-04-19T09:49:44.728Z</time></trkpt><trkpt lat="42.5992276" lon="13.7122753"><ele>192.0</ele><time>2026-04-19T09:49:45.729Z</time></trkpt><trkpt lat="42.5991224" lon="13.712228"><ele>192.0</ele><time>2026-04-19T09:49:46.729Z</time></trkpt><trkpt lat="42.5990357" lon="13.7121697"><ele>192.0</ele><time>2026-04-19T09:49:47.729Z</time></trkpt><trkpt lat="42.5989524" lon="13.7120976"><ele>192.0</ele><time>2026-04-19T09:49:48.729Z</time></trkpt><trkpt lat="42.5988762" lon="13.7120022"><ele>192.0</ele><time>2026-04-19T09:49:49.728Z</time></trkpt><trkpt lat="42.5987977" lon="13.7119051"><ele>192.0</ele><time>2026-04-19T09:49:50.729Z</time></trkpt><trkpt lat="42.5987077" lon="13.7118165"><ele>191.25</ele><time>2026-04-19T09:49:51.729Z</time></trkpt><trkpt lat="42.598609" lon="13.7117481"><ele>190.5</ele><time>2026-04-19T09:49:52.728Z</time></trkpt><trkpt lat="42.5984999" lon="13.7117158"><ele>189.75</ele><time>2026-04-19T09:49:53.729Z</time></trkpt><trkpt lat="42.5983837" lon="13.7117474"><ele>189.0</ele><time>2026-04-19T09:49:54.728Z</time></trkpt><trkpt lat="42.5982851" lon="13.7118127"><ele>189.0</ele><time>2026-04-19T09:49:55.728Z</time></trkpt><trkpt lat="42.5981832" lon="13.7118982"><ele>189.0</ele><time>2026-04-19T09:49:56.728Z</time></trkpt><trkpt lat="42.5980549" lon="13.7119313"><ele>189.0</ele><time>2026-04-19T09:49:57.728Z</time></trkpt><trkpt lat="42.5978927" lon="13.7119199"><ele>189.0</ele><time>2026-04-19T09:49:58.729Z</time></trkpt><trkpt lat="42.5977072" lon="13.7118739"><ele>192.0</ele><time>2026-04-19T09:49:59.728Z</time></trkpt><trkpt lat="42.5975223" lon="13.7117857"><ele>195.0</ele><time>2026-04-19T09:50:00.728Z</time></trkpt><trkpt lat="42.5973269" lon="13.711679"><ele>198.0</ele><time>2026-04-19T09:50:01.729Z</time></trkpt><trkpt lat="42.597127" lon="13.7115368"><ele>204.0</ele><time>2026-04-19T09:50:02.729Z</time></trkpt><trkpt lat="42.5968905" lon="13.7113555"><ele>210.0</ele><time>2026-04-19T09:50:03.729Z</time></trkpt><trkpt lat="42.5966763" lon="13.7111546"><ele>205.5</ele><time>2026-04-19T09:50:04.728Z</time></trkpt><trkpt lat="42.5964785" lon="13.7109717"><ele>201.0</ele><time>2026-04-19T09:50:05.729Z</time></trkpt><trkpt lat="42.5963003" lon="13.710807"><ele>206.0</ele><time>2026-04-19T09:50:06.728Z</time></trkpt><trkpt lat="42.5961461" lon="13.7106522"><ele>211.0</ele><time>2026-04-19T09:50:07.728Z</time></trkpt><trkpt lat="42.5960184" lon="13.7104889"><ele>216.0</ele><time>2026-04-19T09:50:08.728Z</time></trkpt><trkpt lat="42.5959144" lon="13.7102998"><ele>214.33333333333331</ele><time>2026-04-19T09:50:09.728Z</time></trkpt><trkpt lat="42.5958288" lon="13.7100742"><ele>212.66666666666666</ele><time>2026-04-19T09:50:10.729Z</time></trkpt><trkpt lat="42.5957702" lon="13.7098117"><ele>211.0</ele><time>2026-04-19T09:50:11.728Z</time></trkpt><trkpt lat="42.5957033" lon="13.7095384"><ele>209.0</ele><time>2026-04-19T09:50:12.728Z</time></trkpt><trkpt lat="42.5956505" lon="13.7092976"><ele>207.0</ele><time>2026-04-19T09:50:13.729Z</time></trkpt><trkpt lat="42.5955899" lon="13.7090772"><ele>205.0</ele><time>2026-04-19T09:50:14.728Z</time></trkpt><trkpt lat="42.5955151" lon="13.7088782"><ele>205.0</ele><time>2026-04-19T09:50:15.729Z</time></trkpt><trkpt lat="42.5954181" lon="13.7087111"><ele>205.0</ele><time>2026-04-19T09:50:16.728Z</time></trkpt><trkpt lat="42.5952984" lon="13.7085806"><ele>205.0</ele><time>2026-04-19T09:50:17.728Z</time></trkpt><trkpt lat="42.5951498" lon="13.7084754"><ele>205.5</ele><time>2026-04-19T09:50:18.729Z</time></trkpt><trkpt lat="42.5951988" lon="13.7083973"><ele>206.0</ele><time>2026-04-19T09:50:19.729Z</time></trkpt><trkpt lat="42.5950871" lon="13.7082216"><ele>206.5</ele><time>2026-04-19T09:50:20.729Z</time></trkpt><trkpt lat="42.5950055" lon="13.7080009"><ele>207.0</ele><time>2026-04-19T09:50:21.728Z</time></trkpt><trkpt lat="42.5949278" lon="13.7077339"><ele>207.0</ele><time>2026-04-19T09:50:22.728Z</time></trkpt><trkpt lat="42.5948644" lon="13.7074453"><ele>207.0</ele><time>2026-04-19T09:50:23.728Z</time></trkpt><trkpt lat="42.5948035" lon="13.7071325"><ele>205.5</ele><time>2026-04-19T09:50:24.728Z</time></trkpt><trkpt lat="42.594732" lon="13.7067907"><ele>204.0</ele><time>2026-04-19T09:50:25.729Z</time></trkpt><trkpt lat="42.5946586" lon="13.7064625"><ele>204.0</ele><time>2026-04-19T09:50:26.729Z</time></trkpt><trkpt lat="42.5945927" lon="13.7061609"><ele>204.0</ele><time>2026-04-19T09:50:27.728Z</time></trkpt><trkpt lat="42.5945287" lon="13.7058656"><ele>205.33333333333331</ele><time>2026-04-19T09:50:28.729Z</time></trkpt><trkpt lat="42.5944597" lon="13.7055783"><ele>206.66666666666666</ele><time>2026-04-19T09:50:29.729Z</time></trkpt><trkpt lat="42.5943644" lon="13.7053034"><ele>208.0</ele><time>2026-04-19T09:50:30.728Z</time></trkpt><trkpt lat="42.5942317" lon="13.705016"><ele>208.0</ele><time>2026-04-19T09:50:31.729Z</time></trkpt><trkpt lat="42.5940817" lon="13.7047221"><ele>208.0</ele><time>2026-04-19T09:50:32.729Z</time></trkpt><trkpt lat="42.5939042" lon="13.7044233"><ele>210.5</ele><time>2026-04-19T09:50:33.729Z</time></trkpt><trkpt lat="42.5937212" lon="13.7041085"><ele>213.0</ele><time>2026-04-19T09:50:34.729Z</time></trkpt><trkpt lat="42.5935379" lon="13.7037877"><ele>210.0</ele><time>2026-04-19T09:50:35.728Z</time></trkpt><trkpt lat="42.593367" lon="13.7034828"><ele>207.0</ele><time>2026-04-19T09:50:36.729Z</time></trkpt><trkpt lat="42.5932073" lon="13.7031911"><ele>207.0</ele><time>2026-04-19T09:50:37.728Z</time></trkpt><trkpt lat="42.5930592" lon="13.702911"><ele>207.0</ele><time>2026-04-19T09:50:38.729Z</time></trkpt><trkpt lat="42.5929209" lon="13.7026353"><ele>211.0</ele><time>2026-04-19T09:50:39.728Z</time></trkpt><trkpt lat="42.5927991" lon="13.7023605"><ele>215.0</ele><time>2026-04-19T09:50:40.728Z</time></trkpt><trkpt lat="42.5926806" lon="13.7020586"><ele>211.5</ele><time>2026-04-19T09:50:41.728Z</time></trkpt><trkpt lat="42.5925577" lon="13.7017507"><ele>208.0</ele><time>2026-04-19T09:50:42.728Z</time></trkpt><trkpt lat="42.592445" lon="13.7014414"><ele>208.0</ele><time>2026-04-19T09:50:43.728Z</time></trkpt><trkpt lat="42.5923308" lon="13.7011429"><ele>208.0</ele><time>2026-04-19T09:50:44.728Z</time></trkpt><trkpt lat="42.5922218" lon="13.7008674"><ele>206.33333333333331</ele><time>2026-04-19T09:50:45.728Z</time></trkpt><trkpt lat="42.5921194" lon="13.7005941"><ele>204.66666666666669</ele><time>2026-04-19T09:50:46.729Z</time></trkpt><trkpt lat="42.5920342" lon="13.7003272"><ele>203.0</ele><time>2026-04-19T09:50:47.728Z</time></trkpt><trkpt lat="42.5919676" lon="13.7000668"><ele>206.33333333333334</ele><time>2026-04-19T09:50:48.728Z</time></trkpt><trkpt lat="42.5919183" lon="13.6998082"><ele>209.66666666666669</ele><time>2026-04-19T09:50:49.729Z</time></trkpt><trkpt lat="42.5918856" lon="13.6995403"><ele>213.0</ele><time>2026-04-19T09:50:50.728Z</time></trkpt><trkpt lat="42.5918719" lon="13.6992613"><ele>213.0</ele><time>2026-04-19T09:50:51.728Z</time></trkpt><trkpt lat="42.5918613" lon="13.698993"><ele>213.0</ele><time>2026-04-19T09:50:52.729Z</time></trkpt><trkpt lat="42.591855" lon="13.6987554"><ele>213.0</ele><time>2026-04-19T09:50:53.729Z</time></trkpt><trkpt lat="42.5918374" lon="13.698529"><ele>211.66666666666669</ele><time>2026-04-19T09:50:54.729Z</time></trkpt><trkpt lat="42.5918024" lon="13.6983035"><ele>210.33333333333334</ele><time>2026-04-19T09:50:55.728Z</time></trkpt><trkpt lat="42.5917401" lon="13.6981068"><ele>209.0</ele><time>2026-04-19T09:50:56.729Z</time></trkpt><trkpt lat="42.5916515" lon="13.6979269"><ele>209.0</ele><time>2026-04-19T09:50:57.728Z</time></trkpt><trkpt lat="42.5915612" lon="13.6977755"><ele>209.0</ele><time>2026-04-19T09:50:58.728Z</time></trkpt><trkpt lat="42.5914701" lon="13.697638"><ele>209.0</ele><time>2026-04-19T09:50:59.729Z</time></trkpt><trkpt lat="42.5913985" lon="13.6974901"><ele>209.0</ele><time>2026-04-19T09:51:00.728Z</time></trkpt><trkpt lat="42.5913513" lon="13.6973387"><ele>208.79999999999998</ele><time>2026-04-19T09:51:01.728Z</time></trkpt><trkpt lat="42.5913344" lon="13.6971953"><ele>208.6</ele><time>2026-04-19T09:51:02.728Z</time></trkpt><trkpt lat="42.591336" lon="13.6970636"><ele>208.4</ele><time>2026-04-19T09:51:03.728Z</time></trkpt><trkpt lat="42.5913699" lon="13.6969473"><ele>208.2</ele><time>2026-04-19T09:51:04.728Z</time></trkpt><trkpt lat="42.5914087" lon="13.6968419"><ele>208.0</ele><time>2026-04-19T09:51:05.729Z</time></trkpt><trkpt lat="42.5914391" lon="13.6967446"><ele>207.60000000000002</ele><time>2026-04-19T09:51:06.729Z</time></trkpt><trkpt lat="42.591414" lon="13.6966413"><ele>207.20000000000002</ele><time>2026-04-19T09:51:07.729Z</time></trkpt><trkpt lat="42.5913489" lon="13.6965533"><ele>206.8</ele><time>2026-04-19T09:51:08.729Z</time></trkpt><trkpt lat="42.5912656" lon="13.6964571"><ele>206.4</ele><time>2026-04-19T09:51:09.729Z</time></trkpt><trkpt lat="42.5911794" lon="13.6963237"><ele>206.0</ele><time>2026-04-19T09:51:10.729Z</time></trkpt><trkpt lat="42.5911263" lon="13.6961279"><ele>207.33333333333334</ele><time>2026-04-19T09:51:11.729Z</time></trkpt><trkpt lat="42.5910779" lon="13.6958775"><ele>208.66666666666669</ele><time>2026-04-19T09:51:12.729Z</time></trkpt><trkpt lat="42.5910458" lon="13.6956069"><ele>210.0</ele><time>2026-04-19T09:51:13.729Z</time></trkpt><trkpt lat="42.5910148" lon="13.6953084"><ele>210.5</ele><time>2026-04-19T09:51:14.728Z</time></trkpt><trkpt lat="42.5909752" lon="13.6949931"><ele>211.0</ele><time>2026-04-19T09:51:15.728Z</time></trkpt><trkpt lat="42.5909329" lon="13.6946857"><ele>211.0</ele><time>2026-04-19T09:51:16.728Z</time></trkpt><trkpt lat="42.590896" lon="13.6943957"><ele>211.0</ele><time>2026-04-19T09:51:17.728Z</time></trkpt><trkpt lat="42.5908575" lon="13.6941181"><ele>211.0</ele><time>2026-04-19T09:51:18.729Z</time></trkpt><trkpt lat="42.5908146" lon="13.6938492"><ele>210.66666666666666</ele><time>2026-04-19T09:51:19.728Z</time></trkpt><trkpt lat="42.5907636" lon="13.6935879"><ele>210.33333333333331</ele><time>2026-04-19T09:51:20.729Z</time></trkpt><trkpt lat="42.590706" lon="13.6933408"><ele>210.0</ele><time>2026-04-19T09:51:21.729Z</time></trkpt><trkpt lat="42.5906473" lon="13.6930824"><ele>210.0</ele><time>2026-04-19T09:51:22.729Z</time></trkpt><trkpt lat="42.5905923" lon="13.6928266"><ele>210.0</ele><time>2026-04-19T09:51:23.728Z</time></trkpt><trkpt lat="42.5905338" lon="13.6925722"><ele>210.0</ele><time>2026-04-19T09:51:24.728Z</time></trkpt><trkpt lat="42.5904696" lon="13.6923246"><ele>210.33333333333331</ele><time>2026-04-19T09:51:25.728Z</time></trkpt><trkpt lat="42.5904017" lon="13.6920972"><ele>210.66666666666666</ele><time>2026-04-19T09:51:26.728Z</time></trkpt><trkpt lat="42.5903354" lon="13.6918795"><ele>211.0</ele><time>2026-04-19T09:51:27.728Z</time></trkpt><trkpt lat="42.5902717" lon="13.6916849"><ele>211.5</ele><time>2026-04-19T09:51:28.729Z</time></trkpt><trkpt lat="42.5902085" lon="13.6914995"><ele>212.0</ele><time>2026-04-19T09:51:29.728Z</time></trkpt><trkpt lat="42.5901444" lon="13.6913171"><ele>212.5</ele><time>2026-04-19T09:51:30.729Z</time></trkpt><trkpt lat="42.5900821" lon="13.6911456"><ele>213.0</ele><time>2026-04-19T09:51:31.728Z</time></trkpt><trkpt lat="42.5900194" lon="13.6909975"><ele>213.0</ele><time>2026-04-19T09:51:32.728Z</time></trkpt><trkpt lat="42.5899713" lon="13.6908667"><ele>213.0</ele><time>2026-04-19T09:51:33.728Z</time></trkpt><trkpt lat="42.5899389" lon="13.6907572"><ele>213.0</ele><time>2026-04-19T09:51:34.728Z</time></trkpt><trkpt lat="42.5899224" lon="13.69067"><ele>213.0</ele><time>2026-04-19T09:51:35.728Z</time></trkpt><trkpt lat="42.5898845" lon="13.6905344"><ele>213.0</ele><time>2026-04-19T09:51:37.729Z</time></trkpt><trkpt lat="42.5898185" lon="13.690417"><ele>213.0</ele><time>2026-04-19T09:51:39.729Z</time></trkpt><trkpt lat="42.5897536" lon="13.6902779"><ele>213.0</ele><time>2026-04-19T09:51:41.728Z</time></trkpt><trkpt lat="42.5897314" lon="13.6901925"><ele>213.0</ele><time>2026-04-19T09:51:42.728Z</time></trkpt><trkpt lat="42.5897088" lon="13.6901048"><ele>213.0</ele><time>2026-04-19T09:51:43.729Z</time></trkpt><trkpt lat="42.5896896" lon="13.6899508"><ele>213.0</ele><time>2026-04-19T09:51:45.729Z</time></trkpt><trkpt lat="42.5897029" lon="13.6898049"><ele>212.66666666666666</ele><time>2026-04-19T09:51:47.728Z</time></trkpt><trkpt lat="42.5896557" lon="13.6896719"><ele>212.33333333333331</ele><time>2026-04-19T09:51:49.728Z</time></trkpt><trkpt lat="42.5896006" lon="13.6896294"><ele>212.0</ele><time>2026-04-19T09:51:50.728Z</time></trkpt><trkpt lat="42.5895383" lon="13.6896049"><ele>211.66666666666666</ele><time>2026-04-19T09:51:51.728Z</time></trkpt><trkpt lat="42.5894767" lon="13.6895676"><ele>211.33333333333331</ele><time>2026-04-19T09:51:52.729Z</time></trkpt><trkpt lat="42.5894195" lon="13.6894911"><ele>211.0</ele><time>2026-04-19T09:51:53.728Z</time></trkpt><trkpt lat="42.5893483" lon="13.6893853"><ele>214.0</ele><time>2026-04-19T09:51:54.728Z</time></trkpt><trkpt lat="42.5892697" lon="13.6892307"><ele>217.0</ele><time>2026-04-19T09:51:55.728Z</time></trkpt><trkpt lat="42.5891943" lon="13.6890421"><ele>220.0</ele><time>2026-04-19T09:51:56.729Z</time></trkpt><trkpt lat="42.5891179" lon="13.6888259"><ele>218.66666666666666</ele><time>2026-04-19T09:51:57.728Z</time></trkpt><trkpt lat="42.5890369" lon="13.6885836"><ele>217.33333333333331</ele><time>2026-04-19T09:51:58.728Z</time></trkpt><trkpt lat="42.5889403" lon="13.6883365"><ele>216.0</ele><time>2026-04-19T09:51:59.728Z</time></trkpt><trkpt lat="42.5888312" lon="13.6880687"><ele>216.0</ele><time>2026-04-19T09:52:00.728Z</time></trkpt><trkpt lat="42.5887218" lon="13.6877939"><ele>216.0</ele><time>2026-04-19T09:52:01.728Z</time></trkpt><trkpt lat="42.5886043" lon="13.6874882"><ele>218.5</ele><time>2026-04-19T09:52:02.728Z</time></trkpt><trkpt lat="42.5884811" lon="13.6871782"><ele>221.0</ele><time>2026-04-19T09:52:03.729Z</time></trkpt><trkpt lat="42.5883503" lon="13.686865"><ele>221.5</ele><time>2026-04-19T09:52:04.729Z</time></trkpt><trkpt lat="42.5882121" lon="13.68654"><ele>222.0</ele><time>2026-04-19T09:52:05.728Z</time></trkpt><trkpt lat="42.5880729" lon="13.6862061"><ele>221.0</ele><time>2026-04-19T09:52:06.729Z</time></trkpt><trkpt lat="42.5879398" lon="13.6858809"><ele>220.0</ele><time>2026-04-19T09:52:07.728Z</time></trkpt><trkpt lat="42.5878169" lon="13.6855656"><ele>222.5</ele><time>2026-04-19T09:52:08.728Z</time></trkpt><trkpt lat="42.5876956" lon="13.6852717"><ele>225.0</ele><time>2026-04-19T09:52:09.729Z</time></trkpt><trkpt lat="42.5875804" lon="13.6849849"><ele>225.0</ele><time>2026-04-19T09:52:10.729Z</time></trkpt><trkpt lat="42.587473" lon="13.6847164"><ele>225.0</ele><time>2026-04-19T09:52:11.729Z</time></trkpt><trkpt lat="42.5873674" lon="13.6844558"><ele>225.0</ele><time>2026-04-19T09:52:12.729Z</time></trkpt><trkpt lat="42.587259" lon="13.6842125"><ele>224.33333333333331</ele><time>2026-04-19T09:52:13.728Z</time></trkpt><trkpt lat="42.5871375" lon="13.6839945"><ele>223.66666666666666</ele><time>2026-04-19T09:52:14.729Z</time></trkpt><trkpt lat="42.586998" lon="13.6837803"><ele>223.0</ele><time>2026-04-19T09:52:15.728Z</time></trkpt><trkpt lat="42.5868248" lon="13.6835767"><ele>220.0</ele><time>2026-04-19T09:52:16.728Z</time></trkpt><trkpt lat="42.5866342" lon="13.6834004"><ele>217.0</ele><time>2026-04-19T09:52:17.729Z</time></trkpt><trkpt lat="42.5864279" lon="13.6832475"><ele>217.0</ele><time>2026-04-19T09:52:18.729Z</time></trkpt><trkpt lat="42.586214" lon="13.6831182"><ele>217.0</ele><time>2026-04-19T09:52:19.729Z</time></trkpt><trkpt lat="42.5860084" lon="13.6830064"><ele>216.66666666666666</ele><time>2026-04-19T09:52:20.728Z</time></trkpt><trkpt lat="42.5858068" lon="13.682892"><ele>216.33333333333331</ele><time>2026-04-19T09:52:21.728Z</time></trkpt><trkpt lat="42.5856119" lon="13.6827652"><ele>216.0</ele><time>2026-04-19T09:52:22.728Z</time></trkpt><trkpt lat="42.5854319" lon="13.6826113"><ele>222.66666666666669</ele><time>2026-04-19T09:52:23.728Z</time></trkpt><trkpt lat="42.5852732" lon="13.6824135"><ele>229.33333333333334</ele><time>2026-04-19T09:52:24.729Z</time></trkpt><trkpt lat="42.5851232" lon="13.6821964"><ele>236.0</ele><time>2026-04-19T09:52:25.729Z</time></trkpt><trkpt lat="42.5849767" lon="13.6819669"><ele>230.0</ele><time>2026-04-19T09:52:26.728Z</time></trkpt><trkpt lat="42.5848215" lon="13.6817241"><ele>224.0</ele><time>2026-04-19T09:52:27.729Z</time></trkpt><trkpt lat="42.5846688" lon="13.6814726"><ele>224.0</ele><time>2026-04-19T09:52:28.729Z</time></trkpt><trkpt lat="42.5845335" lon="13.6812074"><ele>224.0</ele><time>2026-04-19T09:52:29.728Z</time></trkpt><trkpt lat="42.5844135" lon="13.680961"><ele>228.66666666666669</ele><time>2026-04-19T09:52:30.728Z</time></trkpt><trkpt lat="42.5843002" lon="13.6807305"><ele>233.33333333333331</ele><time>2026-04-19T09:52:31.728Z</time></trkpt><trkpt lat="42.5841969" lon="13.680491"><ele>238.0</ele><time>2026-04-19T09:52:32.728Z</time></trkpt><trkpt lat="42.5841175" lon="13.680251"><ele>238.0</ele><time>2026-04-19T09:52:33.729Z</time></trkpt><trkpt lat="42.5840691" lon="13.6799884"><ele>238.0</ele><time>2026-04-19T09:52:34.728Z</time></trkpt><trkpt lat="42.5840586" lon="13.6797089"><ele>238.0</ele><time>2026-04-19T09:52:35.735Z</time></trkpt><trkpt lat="42.5840548" lon="13.6794222"><ele>237.66666666666666</ele><time>2026-04-19T09:52:36.736Z</time></trkpt><trkpt lat="42.5840514" lon="13.6791379"><ele>237.33333333333331</ele><time>2026-04-19T09:52:37.736Z</time></trkpt><trkpt lat="42.5840501" lon="13.6788569"><ele>237.0</ele><time>2026-04-19T09:52:38.736Z</time></trkpt><trkpt lat="42.5840684" lon="13.6785954"><ele>238.0</ele><time>2026-04-19T09:52:39.735Z</time></trkpt><trkpt lat="42.5841126" lon="13.6783365"><ele>239.0</ele><time>2026-04-19T09:52:40.735Z</time></trkpt><trkpt lat="42.5841464" lon="13.6780873"><ele>240.0</ele><time>2026-04-19T09:52:41.735Z</time></trkpt><trkpt lat="42.5841785" lon="13.6778457"><ele>238.66666666666669</ele><time>2026-04-19T09:52:42.735Z</time></trkpt><trkpt lat="42.5841944" lon="13.677616"><ele>237.33333333333334</ele><time>2026-04-19T09:52:43.736Z</time></trkpt><trkpt lat="42.584172" lon="13.6773798"><ele>236.0</ele><time>2026-04-19T09:52:44.736Z</time></trkpt><trkpt lat="42.5841153" lon="13.6771318"><ele>234.66666666666669</ele><time>2026-04-19T09:52:45.736Z</time></trkpt><trkpt lat="42.5840359" lon="13.6768827"><ele>233.33333333333331</ele><time>2026-04-19T09:52:46.735Z</time></trkpt><trkpt lat="42.5839471" lon="13.676617"><ele>232.0</ele><time>2026-04-19T09:52:47.735Z</time></trkpt><trkpt lat="42.5838623" lon="13.6763145"><ele>230.5</ele><time>2026-04-19T09:52:48.735Z</time></trkpt><trkpt lat="42.5837776" lon="13.6760012"><ele>229.0</ele><time>2026-04-19T09:52:49.735Z</time></trkpt><trkpt lat="42.5836861" lon="13.6756927"><ele>233.5</ele><time>2026-04-19T09:52:50.735Z</time></trkpt><trkpt lat="42.5836023" lon="13.6753834"><ele>238.0</ele><time>2026-04-19T09:52:51.735Z</time></trkpt><trkpt lat="42.5835236" lon="13.6750729"><ele>238.0</ele><time>2026-04-19T09:52:52.736Z</time></trkpt><trkpt lat="42.583446" lon="13.6747636"><ele>238.0</ele><time>2026-04-19T09:52:53.736Z</time></trkpt><trkpt lat="42.5833638" lon="13.6744512"><ele>235.0</ele><time>2026-04-19T09:52:54.736Z</time></trkpt><trkpt lat="42.5832672" lon="13.6741264"><ele>232.0</ele><time>2026-04-19T09:52:55.736Z</time></trkpt><trkpt lat="42.583165" lon="13.6738019"><ele>228.0</ele><time>2026-04-19T09:52:56.735Z</time></trkpt><trkpt lat="42.5830527" lon="13.6734706"><ele>224.0</ele><time>2026-04-19T09:52:57.736Z</time></trkpt><trkpt lat="42.5829326" lon="13.6731305"><ele>224.5</ele><time>2026-04-19T09:52:58.735Z</time></trkpt><trkpt lat="42.5828192" lon="13.6727988"><ele>225.0</ele><time>2026-04-19T09:52:59.735Z</time></trkpt><trkpt lat="42.5827095" lon="13.6724863"><ele>226.0</ele><time>2026-04-19T09:53:00.735Z</time></trkpt><trkpt lat="42.5826082" lon="13.6721848"><ele>227.0</ele><time>2026-04-19T09:53:01.736Z</time></trkpt><trkpt lat="42.58251" lon="13.6718975"><ele>227.0</ele><time>2026-04-19T09:53:02.735Z</time></trkpt><trkpt lat="42.5824222" lon="13.6716234"><ele>227.0</ele><time>2026-04-19T09:53:03.736Z</time></trkpt><trkpt lat="42.5823397" lon="13.671354"><ele>227.0</ele><time>2026-04-19T09:53:04.736Z</time></trkpt><trkpt lat="42.5822642" lon="13.6711044"><ele>226.66666666666669</ele><time>2026-04-19T09:53:05.735Z</time></trkpt><trkpt lat="42.5821844" lon="13.6708595"><ele>226.33333333333331</ele><time>2026-04-19T09:53:06.736Z</time></trkpt><trkpt lat="42.5821108" lon="13.6706277"><ele>226.0</ele><time>2026-04-19T09:53:07.736Z</time></trkpt><trkpt lat="42.5820399" lon="13.6703974"><ele>230.33333333333331</ele><time>2026-04-19T09:53:08.735Z</time></trkpt><trkpt lat="42.5819688" lon="13.6701618"><ele>234.66666666666669</ele><time>2026-04-19T09:53:09.736Z</time></trkpt><trkpt lat="42.5818993" lon="13.6699397"><ele>239.0</ele><time>2026-04-19T09:53:10.735Z</time></trkpt><trkpt lat="42.581831" lon="13.6697146"><ele>239.0</ele><time>2026-04-19T09:53:11.735Z</time></trkpt><trkpt lat="42.5817768" lon="13.6694875"><ele>239.0</ele><time>2026-04-19T09:53:12.736Z</time></trkpt><trkpt lat="42.5817304" lon="13.6692677"><ele>239.0</ele><time>2026-04-19T09:53:13.735Z</time></trkpt><trkpt lat="42.5816975" lon="13.669058"><ele>238.75</ele><time>2026-04-19T09:53:14.735Z</time></trkpt><trkpt lat="42.5816607" lon="13.668869"><ele>238.5</ele><time>2026-04-19T09:53:15.735Z</time></trkpt><trkpt lat="42.5816235" lon="13.6686851"><ele>238.25</ele><time>2026-04-19T09:53:16.735Z</time></trkpt><trkpt lat="42.581589" lon="13.6685068"><ele>238.0</ele><time>2026-04-19T09:53:17.735Z</time></trkpt><trkpt lat="42.5815512" lon="13.6683211"><ele>238.0</ele><time>2026-04-19T09:53:18.736Z</time></trkpt><trkpt lat="42.5815089" lon="13.6681249"><ele>238.0</ele><time>2026-04-19T09:53:19.735Z</time></trkpt><trkpt lat="42.5814672" lon="13.6679326"><ele>238.0</ele><time>2026-04-19T09:53:20.736Z</time></trkpt><trkpt lat="42.5814172" lon="13.6677406"><ele>238.0</ele><time>2026-04-19T09:53:21.735Z</time></trkpt><trkpt lat="42.581365" lon="13.6675497"><ele>236.66666666666666</ele><time>2026-04-19T09:53:22.736Z</time></trkpt><trkpt lat="42.5813035" lon="13.6673517"><ele>235.33333333333331</ele><time>2026-04-19T09:53:23.735Z</time></trkpt><trkpt lat="42.5812438" lon="13.6671581"><ele>234.0</ele><time>2026-04-19T09:53:24.735Z</time></trkpt><trkpt lat="42.5811793" lon="13.6669615"><ele>236.66666666666669</ele><time>2026-04-19T09:53:25.735Z</time></trkpt><trkpt lat="42.5811139" lon="13.6667513"><ele>239.33333333333334</ele><time>2026-04-19T09:53:26.736Z</time></trkpt><trkpt lat="42.5810384" lon="13.6665426"><ele>242.0</ele><time>2026-04-19T09:53:27.735Z</time></trkpt><trkpt lat="42.580944" lon="13.6663359"><ele>242.0</ele><time>2026-04-19T09:53:28.735Z</time></trkpt><trkpt lat="42.5808152" lon="13.6661351"><ele>242.0</ele><time>2026-04-19T09:53:29.735Z</time></trkpt><trkpt lat="42.580681" lon="13.665942"><ele>242.0</ele><time>2026-04-19T09:53:30.735Z</time></trkpt><trkpt lat="42.5805364" lon="13.6657756"><ele>238.66666666666669</ele><time>2026-04-19T09:53:31.735Z</time></trkpt><trkpt lat="42.5804024" lon="13.6656069"><ele>235.33333333333331</ele><time>2026-04-19T09:53:32.735Z</time></trkpt><trkpt lat="42.5802723" lon="13.665443"><ele>232.0</ele><time>2026-04-19T09:53:33.735Z</time></trkpt><trkpt lat="42.5801508" lon="13.665293"><ele>236.0</ele><time>2026-04-19T09:53:34.735Z</time></trkpt><trkpt lat="42.5800399" lon="13.665141"><ele>240.0</ele><time>2026-04-19T09:53:35.735Z</time></trkpt><trkpt lat="42.5799467" lon="13.6649792"><ele>244.0</ele><time>2026-04-19T09:53:36.735Z</time></trkpt><trkpt lat="42.5798716" lon="13.6648052"><ele>244.0</ele><time>2026-04-19T09:53:37.736Z</time></trkpt><trkpt lat="42.5798222" lon="13.6646061"><ele>244.0</ele><time>2026-04-19T09:53:38.735Z</time></trkpt><trkpt lat="42.5797952" lon="13.6643987"><ele>244.0</ele><time>2026-04-19T09:53:39.736Z</time></trkpt><trkpt lat="42.5797949" lon="13.664197"><ele>241.75</ele><time>2026-04-19T09:53:40.736Z</time></trkpt><trkpt lat="42.5798111" lon="13.6640021"><ele>239.5</ele><time>2026-04-19T09:53:41.735Z</time></trkpt><trkpt lat="42.5798488" lon="13.6638306"><ele>237.25</ele><time>2026-04-19T09:53:42.735Z</time></trkpt><trkpt lat="42.5798931" lon="13.6636508"><ele>235.0</ele><time>2026-04-19T09:53:43.736Z</time></trkpt><trkpt lat="42.5799358" lon="13.663477"><ele>234.75</ele><time>2026-04-19T09:53:44.736Z</time></trkpt><trkpt lat="42.5799713" lon="13.6633066"><ele>234.5</ele><time>2026-04-19T09:53:45.736Z</time></trkpt><trkpt lat="42.580002" lon="13.6631201"><ele>234.25</ele><time>2026-04-19T09:53:46.735Z</time></trkpt><trkpt lat="42.5800245" lon="13.6629227"><ele>234.0</ele><time>2026-04-19T09:53:47.736Z</time></trkpt><trkpt lat="42.5800462" lon="13.6627132"><ele>232.0</ele><time>2026-04-19T09:53:48.736Z</time></trkpt><trkpt lat="42.5800511" lon="13.6625176"><ele>230.0</ele><time>2026-04-19T09:53:49.736Z</time></trkpt><trkpt lat="42.5800423" lon="13.6623281"><ele>228.0</ele><time>2026-04-19T09:53:50.736Z</time></trkpt><trkpt lat="42.5800405" lon="13.6621481"><ele>226.0</ele><time>2026-04-19T09:53:51.736Z</time></trkpt><trkpt lat="42.5800529" lon="13.6619725"><ele>224.75</ele><time>2026-04-19T09:53:52.735Z</time></trkpt><trkpt lat="42.5800717" lon="13.6617952"><ele>223.5</ele><time>2026-04-19T09:53:53.736Z</time></trkpt><trkpt lat="42.5800999" lon="13.6616175"><ele>222.25</ele><time>2026-04-19T09:53:54.735Z</time></trkpt><trkpt lat="42.5801427" lon="13.6614474"><ele>221.0</ele><time>2026-04-19T09:53:55.736Z</time></trkpt><trkpt lat="42.5801991" lon="13.6612835"><ele>222.66666666666669</ele><time>2026-04-19T09:53:56.735Z</time></trkpt><trkpt lat="42.5802651" lon="13.6611109"><ele>224.33333333333331</ele><time>2026-04-19T09:53:57.735Z</time></trkpt><trkpt lat="42.5803567" lon="13.6609291"><ele>226.0</ele><time>2026-04-19T09:53:58.735Z</time></trkpt><trkpt lat="42.5804722" lon="13.660722"><ele>226.0</ele><time>2026-04-19T09:53:59.735Z</time></trkpt><trkpt lat="42.5806082" lon="13.6604929"><ele>226.0</ele><time>2026-04-19T09:54:00.735Z</time></trkpt><trkpt lat="42.5807714" lon="13.6602655"><ele>230.0</ele><time>2026-04-19T09:54:01.736Z</time></trkpt><trkpt lat="42.5809503" lon="13.6600236"><ele>234.0</ele><time>2026-04-19T09:54:02.736Z</time></trkpt><trkpt lat="42.5811323" lon="13.6598117"><ele>234.0</ele><time>2026-04-19T09:54:03.735Z</time></trkpt><trkpt lat="42.5812976" lon="13.6596214"><ele>234.0</ele><time>2026-04-19T09:54:04.736Z</time></trkpt><trkpt lat="42.5814564" lon="13.659444"><ele>234.0</ele><time>2026-04-19T09:54:05.735Z</time></trkpt><trkpt lat="42.5816094" lon="13.6592671"><ele>234.0</ele><time>2026-04-19T09:54:06.735Z</time></trkpt><trkpt lat="42.5817574" lon="13.6590963"><ele>234.0</ele><time>2026-04-19T09:54:07.736Z</time></trkpt><trkpt lat="42.5818915" lon="13.6589339"><ele>234.0</ele><time>2026-04-19T09:54:08.735Z</time></trkpt><trkpt lat="42.5820098" lon="13.6587714"><ele>233.75</ele><time>2026-04-19T09:54:09.735Z</time></trkpt><trkpt lat="42.5821003" lon="13.6586075"><ele>233.5</ele><time>2026-04-19T09:54:10.735Z</time></trkpt><trkpt lat="42.5821759" lon="13.6584402"><ele>233.25</ele><time>2026-04-19T09:54:11.735Z</time></trkpt><trkpt lat="42.5822311" lon="13.6582805"><ele>233.0</ele><time>2026-04-19T09:54:12.736Z</time></trkpt><trkpt lat="42.5822723" lon="13.6581493"><ele>233.00000000000003</ele><time>2026-04-19T09:54:13.735Z</time></trkpt><trkpt lat="42.5823207" lon="13.6580525"><ele>233.0</ele><time>2026-04-19T09:54:14.735Z</time></trkpt><trkpt lat="42.5823779" lon="13.6579806"><ele>233.0</ele><time>2026-04-19T09:54:15.735Z</time></trkpt><trkpt lat="42.5824555" lon="13.6579523"><ele>233.0</ele><time>2026-04-19T09:54:16.736Z</time></trkpt><trkpt lat="42.58252" lon="13.6579385"><ele>233.00000000000003</ele><time>2026-04-19T09:54:17.735Z</time></trkpt><trkpt lat="42.5826164" lon="13.6578072"><ele>233.0</ele><time>2026-04-19T09:54:19.735Z</time></trkpt><trkpt lat="42.5826289" lon="13.6577073"><ele>233.50000000000003</ele><time>2026-04-19T09:54:20.736Z</time></trkpt><trkpt lat="42.5826006" lon="13.6576221"><ele>234.0</ele><time>2026-04-19T09:54:21.736Z</time></trkpt><trkpt lat="42.582538" lon="13.6575485"><ele>234.5</ele><time>2026-04-19T09:54:22.735Z</time></trkpt><trkpt lat="42.5824609" lon="13.6575211"><ele>235.0</ele><time>2026-04-19T09:54:23.735Z</time></trkpt><trkpt lat="42.5823857" lon="13.6574755"><ele>235.50000000000003</ele><time>2026-04-19T09:54:24.735Z</time></trkpt><trkpt lat="42.5823343" lon="13.657389"><ele>236.0</ele><time>2026-04-19T09:54:25.735Z</time></trkpt><trkpt lat="42.5823141" lon="13.6572397"><ele>236.0</ele><time>2026-04-19T09:54:26.735Z</time></trkpt><trkpt lat="42.5823161" lon="13.657073"><ele>236.0</ele><time>2026-04-19T09:54:27.735Z</time></trkpt><trkpt lat="42.5823267" lon="13.6568641"><ele>236.0</ele><time>2026-04-19T09:54:28.735Z</time></trkpt><trkpt lat="42.5823335" lon="13.6566161"><ele>236.0</ele><time>2026-04-19T09:54:29.736Z</time></trkpt><trkpt lat="42.5823373" lon="13.6563305"><ele>236.0</ele><time>2026-04-19T09:54:30.736Z</time></trkpt><trkpt lat="42.5823459" lon="13.6560159"><ele>236.0</ele><time>2026-04-19T09:54:31.736Z</time></trkpt><trkpt lat="42.5823618" lon="13.6556925"><ele>236.5</ele><time>2026-04-19T09:54:32.736Z</time></trkpt><trkpt lat="42.5823698" lon="13.6553418"><ele>237.0</ele><time>2026-04-19T09:54:33.735Z</time></trkpt><trkpt lat="42.5823744" lon="13.6549902"><ele>237.5</ele><time>2026-04-19T09:54:34.735Z</time></trkpt><trkpt lat="42.5823723" lon="13.6546313"><ele>238.0</ele><time>2026-04-19T09:54:35.736Z</time></trkpt><trkpt lat="42.5823633" lon="13.6542825"><ele>239.0</ele><time>2026-04-19T09:54:36.735Z</time></trkpt><trkpt lat="42.5823565" lon="13.6539469"><ele>240.0</ele><time>2026-04-19T09:54:37.735Z</time></trkpt><trkpt lat="42.5823445" lon="13.6536178"><ele>241.0</ele><time>2026-04-19T09:54:38.735Z</time></trkpt><trkpt lat="42.5823351" lon="13.653308"><ele>242.0</ele><time>2026-04-19T09:54:39.736Z</time></trkpt><trkpt lat="42.5823259" lon="13.653"><ele>242.33333333333334</ele><time>2026-04-19T09:54:40.736Z</time></trkpt><trkpt lat="42.5823161" lon="13.6527064"><ele>242.66666666666669</ele><time>2026-04-19T09:54:41.735Z</time></trkpt><trkpt lat="42.5823039" lon="13.6524298"><ele>243.0</ele><time>2026-04-19T09:54:42.735Z</time></trkpt><trkpt lat="42.5822951" lon="13.6521464"><ele>242.66666666666669</ele><time>2026-04-19T09:54:43.736Z</time></trkpt><trkpt lat="42.5822843" lon="13.6518549"><ele>242.33333333333334</ele><time>2026-04-19T09:54:44.735Z</time></trkpt><trkpt lat="42.5822824" lon="13.6515614"><ele>242.0</ele><time>2026-04-19T09:54:45.736Z</time></trkpt><trkpt lat="42.5822652" lon="13.6512606"><ele>241.5</ele><time>2026-04-19T09:54:46.736Z</time></trkpt><trkpt lat="42.582242" lon="13.6509466"><ele>241.0</ele><time>2026-04-19T09:54:47.736Z</time></trkpt><trkpt lat="42.5822099" lon="13.6506098"><ele>242.0</ele><time>2026-04-19T09:54:48.735Z</time></trkpt><trkpt lat="42.5821578" lon="13.6502664"><ele>243.0</ele><time>2026-04-19T09:54:49.735Z</time></trkpt><trkpt lat="42.5821066" lon="13.6499238"><ele>243.0</ele><time>2026-04-19T09:54:50.735Z</time></trkpt><trkpt lat="42.5820489" lon="13.6496006"><ele>243.0</ele><time>2026-04-19T09:54:51.735Z</time></trkpt><trkpt lat="42.5819917" lon="13.6492992"><ele>243.33333333333331</ele><time>2026-04-19T09:54:52.735Z</time></trkpt><trkpt lat="42.5819456" lon="13.649012"><ele>243.66666666666666</ele><time>2026-04-19T09:54:53.736Z</time></trkpt><trkpt lat="42.5819" lon="13.6487471"><ele>244.0</ele><time>2026-04-19T09:54:54.735Z</time></trkpt><trkpt lat="42.5818525" lon="13.6484997"><ele>244.0</ele><time>2026-04-19T09:54:55.736Z</time></trkpt><trkpt lat="42.581819" lon="13.6482724"><ele>244.0</ele><time>2026-04-19T09:54:56.735Z</time></trkpt><trkpt lat="42.5817879" lon="13.6480622"><ele>244.0</ele><time>2026-04-19T09:54:57.736Z</time></trkpt><trkpt lat="42.5817563" lon="13.6478645"><ele>244.25</ele><time>2026-04-19T09:54:58.736Z</time></trkpt><trkpt lat="42.5817229" lon="13.6476728"><ele>244.5</ele><time>2026-04-19T09:54:59.736Z</time></trkpt><trkpt lat="42.5817" lon="13.6474807"><ele>244.75</ele><time>2026-04-19T09:55:00.735Z</time></trkpt><trkpt lat="42.5816982" lon="13.6472834"><ele>245.0</ele><time>2026-04-19T09:55:01.735Z</time></trkpt><trkpt lat="42.5817103" lon="13.6470833"><ele>245.25</ele><time>2026-04-19T09:55:02.735Z</time></trkpt><trkpt lat="42.5817352" lon="13.6468941"><ele>245.5</ele><time>2026-04-19T09:55:03.735Z</time></trkpt><trkpt lat="42.5817655" lon="13.6467186"><ele>245.75</ele><time>2026-04-19T09:55:04.735Z</time></trkpt><trkpt lat="42.581814" lon="13.6465414"><ele>246.0</ele><time>2026-04-19T09:55:05.736Z</time></trkpt><trkpt lat="42.5818577" lon="13.6463602"><ele>246.0</ele><time>2026-04-19T09:55:06.736Z</time></trkpt><trkpt lat="42.5818972" lon="13.6461884"><ele>246.0</ele><time>2026-04-19T09:55:07.736Z</time></trkpt><trkpt lat="42.5819397" lon="13.6460279"><ele>246.0</ele><time>2026-04-19T09:55:08.735Z</time></trkpt><trkpt lat="42.5819736" lon="13.6458707"><ele>246.0</ele><time>2026-04-19T09:55:09.735Z</time></trkpt><trkpt lat="42.5820082" lon="13.6457318"><ele>244.60000000000002</ele><time>2026-04-19T09:55:10.736Z</time></trkpt><trkpt lat="42.5820274" lon="13.6455996"><ele>243.20000000000002</ele><time>2026-04-19T09:55:11.735Z</time></trkpt><trkpt lat="42.5820462" lon="13.6454733"><ele>241.79999999999998</ele><time>2026-04-19T09:55:12.736Z</time></trkpt><trkpt lat="42.5820576" lon="13.645349"><ele>240.39999999999998</ele><time>2026-04-19T09:55:13.735Z</time></trkpt><trkpt lat="42.582069" lon="13.6452253"><ele>239.0</ele><time>2026-04-19T09:55:14.735Z</time></trkpt><trkpt lat="42.5820765" lon="13.6451091"><ele>239.0</ele><time>2026-04-19T09:55:15.736Z</time></trkpt><trkpt lat="42.5820838" lon="13.6449897"><ele>238.99999999999997</ele><time>2026-04-19T09:55:16.735Z</time></trkpt><trkpt lat="42.5820888" lon="13.6448655"><ele>238.99999999999997</ele><time>2026-04-19T09:55:17.736Z</time></trkpt><trkpt lat="42.5820864" lon="13.6447344"><ele>239.0</ele><time>2026-04-19T09:55:18.735Z</time></trkpt><trkpt lat="42.58207" lon="13.6446012"><ele>239.0</ele><time>2026-04-19T09:55:19.735Z</time></trkpt><trkpt lat="42.5820405" lon="13.6444787"><ele>239.39999999999998</ele><time>2026-04-19T09:55:20.735Z</time></trkpt><trkpt lat="42.5820202" lon="13.6443647"><ele>239.79999999999998</ele><time>2026-04-19T09:55:21.735Z</time></trkpt><trkpt lat="42.582004" lon="13.6442484"><ele>240.20000000000002</ele><time>2026-04-19T09:55:22.735Z</time></trkpt><trkpt lat="42.5819722" lon="13.6441279"><ele>240.60000000000002</ele><time>2026-04-19T09:55:23.736Z</time></trkpt><trkpt lat="42.581929" lon="13.6439972"><ele>241.0</ele><time>2026-04-19T09:55:24.736Z</time></trkpt><trkpt lat="42.5818988" lon="13.6438626"><ele>242.20000000000002</ele><time>2026-04-19T09:55:25.736Z</time></trkpt><trkpt lat="42.5818762" lon="13.6437384"><ele>243.40000000000003</ele><time>2026-04-19T09:55:26.736Z</time></trkpt><trkpt lat="42.5818548" lon="13.6436158"><ele>244.6</ele><time>2026-04-19T09:55:27.736Z</time></trkpt><trkpt lat="42.5818186" lon="13.6434923"><ele>245.8</ele><time>2026-04-19T09:55:28.735Z</time></trkpt><trkpt lat="42.5817718" lon="13.643357"><ele>247.0</ele><time>2026-04-19T09:55:29.735Z</time></trkpt><trkpt lat="42.5817224" lon="13.6432208"><ele>247.0</ele><time>2026-04-19T09:55:30.735Z</time></trkpt><trkpt lat="42.5816687" lon="13.6430755"><ele>247.0</ele><time>2026-04-19T09:55:31.736Z</time></trkpt><trkpt lat="42.5816155" lon="13.6429285"><ele>247.0</ele><time>2026-04-19T09:55:32.735Z</time></trkpt><trkpt lat="42.5815637" lon="13.6427733"><ele>247.0</ele><time>2026-04-19T09:55:33.735Z</time></trkpt><trkpt lat="42.5815065" lon="13.6426014"><ele>247.0</ele><time>2026-04-19T09:55:34.736Z</time></trkpt><trkpt lat="42.5814552" lon="13.6424325"><ele>247.0</ele><time>2026-04-19T09:55:35.735Z</time></trkpt><trkpt lat="42.5814081" lon="13.6422569"><ele>247.0</ele><time>2026-04-19T09:55:36.735Z</time></trkpt><trkpt lat="42.5813643" lon="13.642076"><ele>247.0</ele><time>2026-04-19T09:55:37.735Z</time></trkpt><trkpt lat="42.5813253" lon="13.6418952"><ele>246.25</ele><time>2026-04-19T09:55:38.735Z</time></trkpt><trkpt lat="42.5812871" lon="13.6417281"><ele>245.5</ele><time>2026-04-19T09:55:39.735Z</time></trkpt><trkpt lat="42.5812485" lon="13.6415552"><ele>244.75</ele><time>2026-04-19T09:55:40.735Z</time></trkpt><trkpt lat="42.5812058" lon="13.6413771"><ele>244.0</ele><time>2026-04-19T09:55:41.735Z</time></trkpt><trkpt lat="42.5811676" lon="13.6411987"><ele>245.75</ele><time>2026-04-19T09:55:42.735Z</time></trkpt><trkpt lat="42.5811317" lon="13.6410213"><ele>247.5</ele><time>2026-04-19T09:55:43.736Z</time></trkpt><trkpt lat="42.5810956" lon="13.6408528"><ele>249.25</ele><time>2026-04-19T09:55:44.735Z</time></trkpt><trkpt lat="42.5810604" lon="13.6406987"><ele>251.0</ele><time>2026-04-19T09:55:45.736Z</time></trkpt><trkpt lat="42.5810296" lon="13.6405542"><ele>251.0</ele><time>2026-04-19T09:55:46.735Z</time></trkpt><trkpt lat="42.5810004" lon="13.6404154"><ele>251.00000000000003</ele><time>2026-04-19T09:55:47.735Z</time></trkpt><trkpt lat="42.5809711" lon="13.6402699"><ele>251.00000000000003</ele><time>2026-04-19T09:55:48.735Z</time></trkpt><trkpt lat="42.5809389" lon="13.6401339"><ele>251.0</ele><time>2026-04-19T09:55:49.736Z</time></trkpt><trkpt lat="42.5809141" lon="13.6400103"><ele>251.0</ele><time>2026-04-19T09:55:50.735Z</time></trkpt><trkpt lat="42.5808896" lon="13.6398866"><ele>251.00000000000003</ele><time>2026-04-19T09:55:51.736Z</time></trkpt><trkpt lat="42.5808601" lon="13.6397709"><ele>251.0</ele><time>2026-04-19T09:55:52.735Z</time></trkpt><trkpt lat="42.5808309" lon="13.6396691"><ele>251.0</ele><time>2026-04-19T09:55:53.735Z</time></trkpt><trkpt lat="42.5807968" lon="13.6395673"><ele>251.0</ele><time>2026-04-19T09:55:54.735Z</time></trkpt><trkpt lat="42.5807647" lon="13.6394783"><ele>251.00000000000003</ele><time>2026-04-19T09:55:55.735Z</time></trkpt><trkpt lat="42.5807362" lon="13.6393965"><ele>251.0</ele><time>2026-04-19T09:55:56.735Z</time></trkpt><trkpt lat="42.5807001" lon="13.6392291"><ele>251.00000000000003</ele><time>2026-04-19T09:55:58.735Z</time></trkpt><trkpt lat="42.5806898" lon="13.6391387"><ele>251.0</ele><time>2026-04-19T09:55:59.735Z</time></trkpt><trkpt lat="42.5806309" lon="13.6389926"><ele>251.0</ele><time>2026-04-19T09:56:01.735Z</time></trkpt><trkpt lat="42.5805668" lon="13.6389354"><ele>251.0</ele><time>2026-04-19T09:56:02.736Z</time></trkpt><trkpt lat="42.5804944" lon="13.6388727"><ele>251.00000000000003</ele><time>2026-04-19T09:56:03.736Z</time></trkpt><trkpt lat="42.5804277" lon="13.6387976"><ele>251.0</ele><time>2026-04-19T09:56:04.736Z</time></trkpt><trkpt lat="42.5803649" lon="13.6387166"><ele>251.5</ele><time>2026-04-19T09:56:05.736Z</time></trkpt><trkpt lat="42.5803038" lon="13.6386084"><ele>252.0</ele><time>2026-04-19T09:56:06.735Z</time></trkpt><trkpt lat="42.5802329" lon="13.6384692"><ele>252.5</ele><time>2026-04-19T09:56:07.735Z</time></trkpt><trkpt lat="42.5801653" lon="13.6383302"><ele>253.0</ele><time>2026-04-19T09:56:08.736Z</time></trkpt><trkpt lat="42.5801022" lon="13.6381877"><ele>253.0</ele><time>2026-04-19T09:56:09.736Z</time></trkpt><trkpt lat="42.5800538" lon="13.6380468"><ele>253.0</ele><time>2026-04-19T09:56:10.736Z</time></trkpt><trkpt lat="42.5800043" lon="13.6379108"><ele>253.0</ele><time>2026-04-19T09:56:11.736Z</time></trkpt><trkpt lat="42.5799691" lon="13.6377652"><ele>253.0</ele><time>2026-04-19T09:56:12.735Z</time></trkpt><trkpt lat="42.5799339" lon="13.6376182"><ele>253.0</ele><time>2026-04-19T09:56:13.736Z</time></trkpt><trkpt lat="42.5798998" lon="13.6374722"><ele>253.0</ele><time>2026-04-19T09:56:14.736Z</time></trkpt><trkpt lat="42.5798642" lon="13.6373265"><ele>253.0</ele><time>2026-04-19T09:56:15.736Z</time></trkpt><trkpt lat="42.5798283" lon="13.6371847"><ele>253.0</ele><time>2026-04-19T09:56:16.735Z</time></trkpt><trkpt lat="42.5797956" lon="13.6370503"><ele>253.0</ele><time>2026-04-19T09:56:17.735Z</time></trkpt><trkpt lat="42.5797635" lon="13.6369209"><ele>253.0</ele><time>2026-04-19T09:56:18.735Z</time></trkpt><trkpt lat="42.5797215" lon="13.6368053"><ele>253.0</ele><time>2026-04-19T09:56:19.735Z</time></trkpt><trkpt lat="42.579675" lon="13.6366901"><ele>253.0</ele><time>2026-04-19T09:56:20.735Z</time></trkpt><trkpt lat="42.5796117" lon="13.6365919"><ele>253.0</ele><time>2026-04-19T09:56:21.736Z</time></trkpt><trkpt lat="42.5795451" lon="13.6365062"><ele>253.0</ele><time>2026-04-19T09:56:22.736Z</time></trkpt><trkpt lat="42.5794728" lon="13.6364396"><ele>253.0</ele><time>2026-04-19T09:56:23.735Z</time></trkpt><trkpt lat="42.579398" lon="13.6363768"><ele>253.0</ele><time>2026-04-19T09:56:24.735Z</time></trkpt><trkpt lat="42.5793275" lon="13.6363144"><ele>253.0</ele><time>2026-04-19T09:56:25.735Z</time></trkpt><trkpt lat="42.5792581" lon="13.6362367"><ele>253.0</ele><time>2026-04-19T09:56:26.735Z</time></trkpt><trkpt lat="42.5792079" lon="13.6361334"><ele>253.0</ele><time>2026-04-19T09:56:27.735Z</time></trkpt><trkpt lat="42.5791697" lon="13.6360027"><ele>253.0</ele><time>2026-04-19T09:56:28.736Z</time></trkpt><trkpt lat="42.5791579" lon="13.6358579"><ele>253.0</ele><time>2026-04-19T09:56:29.735Z</time></trkpt><trkpt lat="42.5791669" lon="13.6357185"><ele>253.0</ele><time>2026-04-19T09:56:30.736Z</time></trkpt><trkpt lat="42.5791686" lon="13.6355788"><ele>253.0</ele><time>2026-04-19T09:56:31.736Z</time></trkpt><trkpt lat="42.5791705" lon="13.6354575"><ele>253.0</ele><time>2026-04-19T09:56:32.735Z</time></trkpt><trkpt lat="42.5791696" lon="13.6353412"><ele>253.33333333333331</ele><time>2026-04-19T09:56:33.735Z</time></trkpt><trkpt lat="42.579169" lon="13.6352273"><ele>253.66666666666666</ele><time>2026-04-19T09:56:34.735Z</time></trkpt><trkpt lat="42.5791721" lon="13.6351036"><ele>254.0</ele><time>2026-04-19T09:56:35.735Z</time></trkpt><trkpt lat="42.5791746" lon="13.6349851"><ele>254.33333333333331</ele><time>2026-04-19T09:56:36.735Z</time></trkpt><trkpt lat="42.5791759" lon="13.6348582"><ele>254.66666666666666</ele><time>2026-04-19T09:56:37.735Z</time></trkpt><trkpt lat="42.5791832" lon="13.6347317"><ele>255.0</ele><time>2026-04-19T09:56:38.736Z</time></trkpt><trkpt lat="42.5791871" lon="13.634589"><ele>255.75</ele><time>2026-04-19T09:56:39.735Z</time></trkpt><trkpt lat="42.5791892" lon="13.6344339"><ele>256.5</ele><time>2026-04-19T09:56:40.736Z</time></trkpt><trkpt lat="42.5791896" lon="13.634278"><ele>257.25</ele><time>2026-04-19T09:56:41.736Z</time></trkpt><trkpt lat="42.5791875" lon="13.6341212"><ele>258.0</ele><time>2026-04-19T09:56:42.736Z</time></trkpt><trkpt lat="42.5791836" lon="13.6339632"><ele>258.0</ele><time>2026-04-19T09:56:43.736Z</time></trkpt><trkpt lat="42.5791842" lon="13.6337976"><ele>258.0</ele><time>2026-04-19T09:56:44.736Z</time></trkpt><trkpt lat="42.579186" lon="13.6336185"><ele>258.0</ele><time>2026-04-19T09:56:45.736Z</time></trkpt><trkpt lat="42.579194" lon="13.6334269"><ele>258.0</ele><time>2026-04-19T09:56:46.735Z</time></trkpt><trkpt lat="42.5792014" lon="13.6332181"><ele>258.3333333333333</ele><time>2026-04-19T09:56:47.736Z</time></trkpt><trkpt lat="42.5792065" lon="13.633008"><ele>258.66666666666663</ele><time>2026-04-19T09:56:48.736Z</time></trkpt><trkpt lat="42.5792128" lon="13.6328088"><ele>259.0</ele><time>2026-04-19T09:56:49.735Z</time></trkpt><trkpt lat="42.5792134" lon="13.6326079"><ele>259.25</ele><time>2026-04-19T09:56:50.736Z</time></trkpt><trkpt lat="42.5792182" lon="13.6324137"><ele>259.5</ele><time>2026-04-19T09:56:51.736Z</time></trkpt><trkpt lat="42.5792235" lon="13.632216"><ele>259.75</ele><time>2026-04-19T09:56:52.735Z</time></trkpt><trkpt lat="42.5792333" lon="13.6320312"><ele>260.0</ele><time>2026-04-19T09:56:53.735Z</time></trkpt><trkpt lat="42.5792545" lon="13.6318448"><ele>260.5</ele><time>2026-04-19T09:56:54.736Z</time></trkpt><trkpt lat="42.5792947" lon="13.6316652"><ele>261.0</ele><time>2026-04-19T09:56:55.735Z</time></trkpt><trkpt lat="42.5793549" lon="13.6314927"><ele>261.5</ele><time>2026-04-19T09:56:56.736Z</time></trkpt><trkpt lat="42.5794244" lon="13.6313248"><ele>262.0</ele><time>2026-04-19T09:56:57.736Z</time></trkpt><trkpt lat="42.5795159" lon="13.6311698"><ele>260.75</ele><time>2026-04-19T09:56:58.735Z</time></trkpt><trkpt lat="42.5796297" lon="13.6310443"><ele>259.5</ele><time>2026-04-19T09:56:59.736Z</time></trkpt><trkpt lat="42.5797402" lon="13.6309344"><ele>258.25</ele><time>2026-04-19T09:57:00.735Z</time></trkpt><trkpt lat="42.5798504" lon="13.6308425"><ele>257.0</ele><time>2026-04-19T09:57:01.736Z</time></trkpt><trkpt lat="42.5799451" lon="13.6307522"><ele>257.0</ele><time>2026-04-19T09:57:02.736Z</time></trkpt><trkpt lat="42.5800385" lon="13.6306714"><ele>257.0</ele><time>2026-04-19T09:57:03.735Z</time></trkpt><trkpt lat="42.5801212" lon="13.6306201"><ele>257.0</ele><time>2026-04-19T09:57:04.736Z</time></trkpt><trkpt lat="42.580198" lon="13.6305958"><ele>257.0</ele><time>2026-04-19T09:57:05.736Z</time></trkpt><trkpt lat="42.5802653" lon="13.6305831"><ele>257.0</ele><time>2026-04-19T09:57:06.735Z</time></trkpt><trkpt lat="42.5803219" lon="13.6305412"><ele>257.0</ele><time>2026-04-19T09:57:07.735Z</time></trkpt><trkpt lat="42.5803648" lon="13.6304037"><ele>257.0</ele><time>2026-04-19T09:57:09.735Z</time></trkpt><trkpt lat="42.5803485" lon="13.6303181"><ele>257.0</ele><time>2026-04-19T09:57:10.736Z</time></trkpt><trkpt lat="42.5803256" lon="13.6302236"><ele>257.0</ele><time>2026-04-19T09:57:11.736Z</time></trkpt><trkpt lat="42.580291" lon="13.6301028"><ele>257.0</ele><time>2026-04-19T09:57:12.736Z</time></trkpt><trkpt lat="42.5802542" lon="13.6299584"><ele>257.0</ele><time>2026-04-19T09:57:13.736Z</time></trkpt><trkpt lat="42.5802126" lon="13.6298071"><ele>258.0</ele><time>2026-04-19T09:57:14.735Z</time></trkpt><trkpt lat="42.5801613" lon="13.6296359"><ele>259.0</ele><time>2026-04-19T09:57:15.735Z</time></trkpt><trkpt lat="42.5801055" lon="13.6294413"><ele>260.0</ele><time>2026-04-19T09:57:16.735Z</time></trkpt><trkpt lat="42.5800389" lon="13.6292257"><ele>260.33333333333337</ele><time>2026-04-19T09:57:17.735Z</time></trkpt><trkpt lat="42.5799626" lon="13.6290069"><ele>260.6666666666667</ele><time>2026-04-19T09:57:18.736Z</time></trkpt><trkpt lat="42.5798786" lon="13.6287564"><ele>261.0</ele><time>2026-04-19T09:57:19.735Z</time></trkpt><trkpt lat="42.5797943" lon="13.6284954"><ele>262.0</ele><time>2026-04-19T09:57:20.735Z</time></trkpt><trkpt lat="42.5797107" lon="13.6282201"><ele>263.0</ele><time>2026-04-19T09:57:21.736Z</time></trkpt><trkpt lat="42.5796186" lon="13.6279397"><ele>264.0</ele><time>2026-04-19T09:57:22.736Z</time></trkpt><trkpt lat="42.5795277" lon="13.6276609"><ele>265.0</ele><time>2026-04-19T09:57:23.736Z</time></trkpt><trkpt lat="42.579445" lon="13.6273879"><ele>266.0</ele><time>2026-04-19T09:57:24.735Z</time></trkpt><trkpt lat="42.5793538" lon="13.6271379"><ele>267.0</ele><time>2026-04-19T09:57:25.736Z</time></trkpt><trkpt lat="42.5792414" lon="13.626895"><ele>267.0</ele><time>2026-04-19T09:57:26.735Z</time></trkpt><trkpt lat="42.5791143" lon="13.6266563"><ele>267.0</ele><time>2026-04-19T09:57:27.735Z</time></trkpt><trkpt lat="42.5789799" lon="13.6264204"><ele>267.0</ele><time>2026-04-19T09:57:28.736Z</time></trkpt><trkpt lat="42.5788472" lon="13.6261991"><ele>268.6666666666667</ele><time>2026-04-19T09:57:29.736Z</time></trkpt><trkpt lat="42.5787232" lon="13.6260023"><ele>270.33333333333337</ele><time>2026-04-19T09:57:30.735Z</time></trkpt><trkpt lat="42.5786094" lon="13.625814"><ele>272.0</ele><time>2026-04-19T09:57:31.736Z</time></trkpt><trkpt lat="42.5784995" lon="13.625637"><ele>272.0</ele><time>2026-04-19T09:57:32.735Z</time></trkpt><trkpt lat="42.5783776" lon="13.6254697"><ele>272.0</ele><time>2026-04-19T09:57:33.735Z</time></trkpt><trkpt lat="42.5782381" lon="13.6253384"><ele>272.0</ele><time>2026-04-19T09:57:34.736Z</time></trkpt><trkpt lat="42.5781096" lon="13.6252377"><ele>272.2</ele><time>2026-04-19T09:57:35.735Z</time></trkpt><trkpt lat="42.5779951" lon="13.6251613"><ele>272.4</ele><time>2026-04-19T09:57:36.735Z</time></trkpt><trkpt lat="42.5779132" lon="13.625075"><ele>272.6</ele><time>2026-04-19T09:57:37.735Z</time></trkpt><trkpt lat="42.5778568" lon="13.6249686"><ele>272.8</ele><time>2026-04-19T09:57:38.736Z</time></trkpt><trkpt lat="42.5778446" lon="13.6248603"><ele>273.0</ele><time>2026-04-19T09:57:39.735Z</time></trkpt><trkpt lat="42.5778703" lon="13.6247278"><ele>268.6666666666667</ele><time>2026-04-19T09:57:40.736Z</time></trkpt><trkpt lat="42.5779329" lon="13.6244736"><ele>264.33333333333337</ele><time>2026-04-19T09:57:42.736Z</time></trkpt><trkpt lat="42.5779808" lon="13.6243015"><ele>260.0</ele><time>2026-04-19T09:57:43.735Z</time></trkpt><trkpt lat="42.5780203" lon="13.6241165"><ele>260.0</ele><time>2026-04-19T09:57:44.735Z</time></trkpt><trkpt lat="42.5780304" lon="13.6239202"><ele>260.0</ele><time>2026-04-19T09:57:45.735Z</time></trkpt><trkpt lat="42.5780002" lon="13.6236937"><ele>260.0</ele><time>2026-04-19T09:57:46.735Z</time></trkpt><trkpt lat="42.5779587" lon="13.623415"><ele>262.0</ele><time>2026-04-19T09:57:47.736Z</time></trkpt><trkpt lat="42.5779063" lon="13.6231144"><ele>264.0</ele><time>2026-04-19T09:57:48.735Z</time></trkpt><trkpt lat="42.5778589" lon="13.6228284"><ele>266.0</ele><time>2026-04-19T09:57:49.735Z</time></trkpt><trkpt lat="42.5778353" lon="13.6226196"><ele>271.33333333333337</ele><time>2026-04-19T09:57:50.735Z</time></trkpt><trkpt lat="42.577823" lon="13.6223714"><ele>276.6666666666667</ele><time>2026-04-19T09:57:51.735Z</time></trkpt><trkpt lat="42.5778037" lon="13.6220302"><ele>282.0</ele><time>2026-04-19T09:57:52.735Z</time></trkpt><trkpt lat="42.5777862" lon="13.6217168"><ele>282.0</ele><time>2026-04-19T09:57:53.736Z</time></trkpt><trkpt lat="42.5777905" lon="13.6213883"><ele>282.0</ele><time>2026-04-19T09:57:54.735Z</time></trkpt><trkpt lat="42.5778239" lon="13.6210682"><ele>275.5</ele><time>2026-04-19T09:57:55.735Z</time></trkpt><trkpt lat="42.5778974" lon="13.6206983"><ele>269.0</ele><time>2026-04-19T09:57:56.735Z</time></trkpt><trkpt lat="42.5779869" lon="13.620357"><ele>270.0</ele><time>2026-04-19T09:57:57.735Z</time></trkpt><trkpt lat="42.5780565" lon="13.6200511"><ele>271.0</ele><time>2026-04-19T09:57:58.735Z</time></trkpt><trkpt lat="42.5781122" lon="13.6197728"><ele>272.0</ele><time>2026-04-19T09:57:59.735Z</time></trkpt><trkpt lat="42.5781506" lon="13.6194932"><ele>273.33333333333337</ele><time>2026-04-19T09:58:00.735Z</time></trkpt><trkpt lat="42.578159" lon="13.6191998"><ele>274.6666666666667</ele><time>2026-04-19T09:58:01.736Z</time></trkpt><trkpt lat="42.5781515" lon="13.6189007"><ele>276.0</ele><time>2026-04-19T09:58:02.736Z</time></trkpt><trkpt lat="42.5781529" lon="13.6185994"><ele>281.0</ele><time>2026-04-19T09:58:03.736Z</time></trkpt><trkpt lat="42.5781755" lon="13.618299"><ele>286.0</ele><time>2026-04-19T09:58:04.735Z</time></trkpt><trkpt lat="42.5782276" lon="13.6179864"><ele>288.5</ele><time>2026-04-19T09:58:05.735Z</time></trkpt><trkpt lat="42.5782925" lon="13.6176742"><ele>291.0</ele><time>2026-04-19T09:58:06.736Z</time></trkpt><trkpt lat="42.5783607" lon="13.6173768"><ele>291.0</ele><time>2026-04-19T09:58:07.734Z</time></trkpt><trkpt lat="42.5784128" lon="13.6170852"><ele>291.0</ele><time>2026-04-19T09:58:08.735Z</time></trkpt><trkpt lat="42.5784466" lon="13.6167888"><ele>291.0</ele><time>2026-04-19T09:58:09.734Z</time></trkpt><trkpt lat="42.5784592" lon="13.6164959"><ele>292.0</ele><time>2026-04-19T09:58:10.734Z</time></trkpt><trkpt lat="42.5785106" lon="13.6162237"><ele>293.0</ele><time>2026-04-19T09:58:11.734Z</time></trkpt><trkpt lat="42.5785586" lon="13.6159736"><ele>294.0</ele><time>2026-04-19T09:58:12.735Z</time></trkpt><trkpt lat="42.5786131" lon="13.6157415"><ele>294.0</ele><time>2026-04-19T09:58:13.734Z</time></trkpt><trkpt lat="42.5786789" lon="13.6155184"><ele>294.0</ele><time>2026-04-19T09:58:14.735Z</time></trkpt><trkpt lat="42.5787568" lon="13.6153129"><ele>294.0</ele><time>2026-04-19T09:58:15.735Z</time></trkpt><trkpt lat="42.5788635" lon="13.6151287"><ele>291.25</ele><time>2026-04-19T09:58:16.734Z</time></trkpt><trkpt lat="42.5789541" lon="13.6149635"><ele>288.5</ele><time>2026-04-19T09:58:17.734Z</time></trkpt><trkpt lat="42.5790435" lon="13.6148134"><ele>285.75</ele><time>2026-04-19T09:58:18.735Z</time></trkpt><trkpt lat="42.5791157" lon="13.6146845"><ele>283.0</ele><time>2026-04-19T09:58:19.735Z</time></trkpt><trkpt lat="42.5791667" lon="13.6145532"><ele>283.75</ele><time>2026-04-19T09:58:20.734Z</time></trkpt><trkpt lat="42.5791964" lon="13.6144087"><ele>284.5</ele><time>2026-04-19T09:58:21.735Z</time></trkpt><trkpt lat="42.579194" lon="13.6142591"><ele>285.25</ele><time>2026-04-19T09:58:22.734Z</time></trkpt><trkpt lat="42.5791575" lon="13.6141021"><ele>286.0</ele><time>2026-04-19T09:58:23.735Z</time></trkpt><trkpt lat="42.5790791" lon="13.6139502"><ele>286.0</ele><time>2026-04-19T09:58:24.734Z</time></trkpt><trkpt lat="42.5789711" lon="13.6137821"><ele>286.0</ele><time>2026-04-19T09:58:25.734Z</time></trkpt><trkpt lat="42.5788418" lon="13.6135717"><ele>286.0</ele><time>2026-04-19T09:58:26.735Z</time></trkpt><trkpt lat="42.5787103" lon="13.6133544"><ele>290.0</ele><time>2026-04-19T09:58:27.734Z</time></trkpt><trkpt lat="42.5785885" lon="13.6131285"><ele>294.0</ele><time>2026-04-19T09:58:28.735Z</time></trkpt><trkpt lat="42.5784937" lon="13.6129031"><ele>298.0</ele><time>2026-04-19T09:58:29.734Z</time></trkpt><trkpt lat="42.5784192" lon="13.6126664"><ele>298.0</ele><time>2026-04-19T09:58:30.735Z</time></trkpt><trkpt lat="42.5783596" lon="13.6124306"><ele>298.0</ele><time>2026-04-19T09:58:31.734Z</time></trkpt><trkpt lat="42.5783064" lon="13.612212"><ele>298.0</ele><time>2026-04-19T09:58:32.734Z</time></trkpt><trkpt lat="42.5782663" lon="13.6120082"><ele>298.3333333333333</ele><time>2026-04-19T09:58:33.735Z</time></trkpt><trkpt lat="42.5782458" lon="13.6118118"><ele>298.6666666666667</ele><time>2026-04-19T09:58:34.735Z</time></trkpt><trkpt lat="42.578261" lon="13.6116093"><ele>299.0</ele><time>2026-04-19T09:58:35.735Z</time></trkpt><trkpt lat="42.5783085" lon="13.6114"><ele>299.0</ele><time>2026-04-19T09:58:36.734Z</time></trkpt><trkpt lat="42.5783867" lon="13.6111865"><ele>299.0</ele><time>2026-04-19T09:58:37.734Z</time></trkpt><trkpt lat="42.5784862" lon="13.6109558"><ele>299.0</ele><time>2026-04-19T09:58:38.734Z</time></trkpt><trkpt lat="42.5786029" lon="13.6107078"><ele>300.5</ele><time>2026-04-19T09:58:39.735Z</time></trkpt><trkpt lat="42.5787339" lon="13.6104464"><ele>302.0</ele><time>2026-04-19T09:58:40.734Z</time></trkpt><trkpt lat="42.5788664" lon="13.6102"><ele>302.0</ele><time>2026-04-19T09:58:41.734Z</time></trkpt><trkpt lat="42.5789868" lon="13.6099731"><ele>302.0</ele><time>2026-04-19T09:58:42.735Z</time></trkpt><trkpt lat="42.5791086" lon="13.609767"><ele>302.0</ele><time>2026-04-19T09:58:43.735Z</time></trkpt><trkpt lat="42.5792348" lon="13.6095819"><ele>297.33333333333337</ele><time>2026-04-19T09:58:44.734Z</time></trkpt><trkpt lat="42.5793643" lon="13.609428"><ele>292.6666666666667</ele><time>2026-04-19T09:58:45.735Z</time></trkpt><trkpt lat="42.5794964" lon="13.609276"><ele>288.0</ele><time>2026-04-19T09:58:46.735Z</time></trkpt><trkpt lat="42.5796216" lon="13.6091091"><ele>288.0</ele><time>2026-04-19T09:58:47.735Z</time></trkpt><trkpt lat="42.5797165" lon="13.6089198"><ele>288.0</ele><time>2026-04-19T09:58:48.735Z</time></trkpt><trkpt lat="42.5797842" lon="13.6087136"><ele>288.0</ele><time>2026-04-19T09:58:49.734Z</time></trkpt><trkpt lat="42.5798202" lon="13.6084828"><ele>291.3333333333333</ele><time>2026-04-19T09:58:50.734Z</time></trkpt><trkpt lat="42.5798248" lon="13.6082381"><ele>294.66666666666663</ele><time>2026-04-19T09:58:51.735Z</time></trkpt><trkpt lat="42.5798116" lon="13.6080009"><ele>298.0</ele><time>2026-04-19T09:58:52.734Z</time></trkpt><trkpt lat="42.5797996" lon="13.6077918"><ele>300.0</ele><time>2026-04-19T09:58:53.734Z</time></trkpt><trkpt lat="42.5798131" lon="13.6075829"><ele>302.0</ele><time>2026-04-19T09:58:54.734Z</time></trkpt><trkpt lat="42.5798546" lon="13.6073725"><ele>304.0</ele><time>2026-04-19T09:58:55.734Z</time></trkpt><trkpt lat="42.5799048" lon="13.607161"><ele>305.3333333333333</ele><time>2026-04-19T09:58:56.734Z</time></trkpt><trkpt lat="42.5799423" lon="13.6069476"><ele>306.6666666666667</ele><time>2026-04-19T09:58:57.734Z</time></trkpt><trkpt lat="42.579942" lon="13.6067278"><ele>308.0</ele><time>2026-04-19T09:58:58.735Z</time></trkpt><trkpt lat="42.5799034" lon="13.6064923"><ele>308.0</ele><time>2026-04-19T09:58:59.735Z</time></trkpt><trkpt lat="42.5798343" lon="13.6062505"><ele>308.0</ele><time>2026-04-19T09:59:00.735Z</time></trkpt><trkpt lat="42.5797438" lon="13.6059962"><ele>308.0</ele><time>2026-04-19T09:59:01.735Z</time></trkpt><trkpt lat="42.5796607" lon="13.6057212"><ele>307.5</ele><time>2026-04-19T09:59:02.735Z</time></trkpt><trkpt lat="42.5795902" lon="13.6054351"><ele>307.0</ele><time>2026-04-19T09:59:03.734Z</time></trkpt><trkpt lat="42.5795375" lon="13.6051294"><ele>327.0</ele><time>2026-04-19T09:59:04.734Z</time></trkpt><trkpt lat="42.5795023" lon="13.6048133"><ele>347.0</ele><time>2026-04-19T09:59:05.734Z</time></trkpt><trkpt lat="42.5794806" lon="13.6044794"><ele>350.0</ele><time>2026-04-19T09:59:06.734Z</time></trkpt><trkpt lat="42.5794744" lon="13.6041407"><ele>353.0</ele><time>2026-04-19T09:59:07.734Z</time></trkpt><trkpt lat="42.5794686" lon="13.6038028"><ele>351.5</ele><time>2026-04-19T09:59:08.734Z</time></trkpt><trkpt lat="42.5794492" lon="13.6034748"><ele>350.0</ele><time>2026-04-19T09:59:09.735Z</time></trkpt><trkpt lat="42.5794168" lon="13.6031694"><ele>350.0</ele><time>2026-04-19T09:59:10.734Z</time></trkpt><trkpt lat="42.5793737" lon="13.6028771"><ele>350.0</ele><time>2026-04-19T09:59:11.735Z</time></trkpt><trkpt lat="42.5793087" lon="13.6025952"><ele>350.0</ele><time>2026-04-19T09:59:12.734Z</time></trkpt><trkpt lat="42.5792133" lon="13.602328"><ele>341.5</ele><time>2026-04-19T09:59:13.734Z</time></trkpt><trkpt lat="42.5790943" lon="13.6020567"><ele>333.0</ele><time>2026-04-19T09:59:14.735Z</time></trkpt><trkpt lat="42.5789495" lon="13.6017915"><ele>323.5</ele><time>2026-04-19T09:59:15.741Z</time></trkpt><trkpt lat="42.5787898" lon="13.6015289"><ele>314.0</ele><time>2026-04-19T09:59:16.741Z</time></trkpt><trkpt lat="42.5786258" lon="13.6012647"><ele>322.5</ele><time>2026-04-19T09:59:17.741Z</time></trkpt><trkpt lat="42.5784645" lon="13.6010073"><ele>331.0</ele><time>2026-04-19T09:59:18.742Z</time></trkpt><trkpt lat="42.5783131" lon="13.6007669"><ele>331.0</ele><time>2026-04-19T09:59:19.741Z</time></trkpt><trkpt lat="42.5781782" lon="13.6005413"><ele>331.0</ele><time>2026-04-19T09:59:20.741Z</time></trkpt><trkpt lat="42.5780687" lon="13.6003183"><ele>331.0</ele><time>2026-04-19T09:59:21.741Z</time></trkpt><trkpt lat="42.5779881" lon="13.6000914"><ele>325.3333333333333</ele><time>2026-04-19T09:59:22.741Z</time></trkpt><trkpt lat="42.5779266" lon="13.5998363"><ele>319.6666666666667</ele><time>2026-04-19T09:59:23.741Z</time></trkpt><trkpt lat="42.5778896" lon="13.5995653"><ele>314.0</ele><time>2026-04-19T09:59:24.742Z</time></trkpt><trkpt lat="42.5778666" lon="13.5992729"><ele>313.6666666666667</ele><time>2026-04-19T09:59:25.741Z</time></trkpt><trkpt lat="42.577881" lon="13.5989977"><ele>313.3333333333333</ele><time>2026-04-19T09:59:26.741Z</time></trkpt><trkpt lat="42.577919" lon="13.5986905"><ele>313.0</ele><time>2026-04-19T09:59:27.741Z</time></trkpt><trkpt lat="42.5779777" lon="13.5983922"><ele>313.0</ele><time>2026-04-19T09:59:28.742Z</time></trkpt><trkpt lat="42.5780387" lon="13.5981129"><ele>313.0</ele><time>2026-04-19T09:59:29.741Z</time></trkpt><trkpt lat="42.5780974" lon="13.5978515"><ele>313.0</ele><time>2026-04-19T09:59:30.741Z</time></trkpt><trkpt lat="42.5781402" lon="13.5976169"><ele>312.75</ele><time>2026-04-19T09:59:31.742Z</time></trkpt><trkpt lat="42.5781622" lon="13.5974097"><ele>312.5</ele><time>2026-04-19T09:59:32.742Z</time></trkpt><trkpt lat="42.5781536" lon="13.5972192"><ele>312.25</ele><time>2026-04-19T09:59:33.741Z</time></trkpt><trkpt lat="42.5781058" lon="13.5970912"><ele>312.0</ele><time>2026-04-19T09:59:34.742Z</time></trkpt><trkpt lat="42.5780124" lon="13.5969767"><ele>312.0</ele><time>2026-04-19T09:59:35.741Z</time></trkpt><trkpt lat="42.5778943" lon="13.5968816"><ele>312.0</ele><time>2026-04-19T09:59:36.742Z</time></trkpt><trkpt lat="42.5777674" lon="13.5967675"><ele>312.0</ele><time>2026-04-19T09:59:37.742Z</time></trkpt><trkpt lat="42.5778563" lon="13.5964672"><ele>320.3333333333333</ele><time>2026-04-19T09:59:38.741Z</time></trkpt><trkpt lat="42.5777303" lon="13.5962603"><ele>328.66666666666663</ele><time>2026-04-19T09:59:39.741Z</time></trkpt><trkpt lat="42.5776108" lon="13.596039"><ele>337.0</ele><time>2026-04-19T09:59:40.742Z</time></trkpt><trkpt lat="42.5774985" lon="13.5957941"><ele>337.0</ele><time>2026-04-19T09:59:41.741Z</time></trkpt><trkpt lat="42.577409" lon="13.595561"><ele>337.0</ele><time>2026-04-19T09:59:42.742Z</time></trkpt><trkpt lat="42.5773379" lon="13.5953347"><ele>337.0</ele><time>2026-04-19T09:59:43.741Z</time></trkpt><trkpt lat="42.5772958" lon="13.5951126"><ele>332.0</ele><time>2026-04-19T09:59:44.741Z</time></trkpt><trkpt lat="42.5772892" lon="13.5948447"><ele>327.0</ele><time>2026-04-19T09:59:45.741Z</time></trkpt><trkpt lat="42.5772919" lon="13.5945553"><ele>322.0</ele><time>2026-04-19T09:59:46.741Z</time></trkpt><trkpt lat="42.5772885" lon="13.5942253"><ele>322.0</ele><time>2026-04-19T09:59:47.741Z</time></trkpt><trkpt lat="42.5772957" lon="13.5938687"><ele>322.0</ele><time>2026-04-19T09:59:48.742Z</time></trkpt><trkpt lat="42.5772982" lon="13.5935188"><ele>322.0</ele><time>2026-04-19T09:59:49.741Z</time></trkpt><trkpt lat="42.5773028" lon="13.5932041"><ele>322.0</ele><time>2026-04-19T09:59:50.742Z</time></trkpt><trkpt lat="42.5773134" lon="13.5929229"><ele>322.0</ele><time>2026-04-19T09:59:51.742Z</time></trkpt><trkpt lat="42.5773074" lon="13.5926587"><ele>322.3333333333333</ele><time>2026-04-19T09:59:52.741Z</time></trkpt><trkpt lat="42.5772818" lon="13.5924044"><ele>322.6666666666667</ele><time>2026-04-19T09:59:53.741Z</time></trkpt><trkpt lat="42.5772375" lon="13.5921614"><ele>323.0</ele><time>2026-04-19T09:59:54.741Z</time></trkpt><trkpt lat="42.5771452" lon="13.59193"><ele>330.0</ele><time>2026-04-19T09:59:55.741Z</time></trkpt><trkpt lat="42.5770036" lon="13.5917172"><ele>337.0</ele><time>2026-04-19T09:59:56.742Z</time></trkpt><trkpt lat="42.5768861" lon="13.5915084"><ele>344.0</ele><time>2026-04-19T09:59:57.741Z</time></trkpt><trkpt lat="42.5767977" lon="13.5912971"><ele>344.0</ele><time>2026-04-19T09:59:58.742Z</time></trkpt><trkpt lat="42.5767586" lon="13.5910554"><ele>344.0</ele><time>2026-04-19T09:59:59.742Z</time></trkpt><trkpt lat="42.576741" lon="13.590802"><ele>344.0</ele><time>2026-04-19T10:00:00.741Z</time></trkpt><trkpt lat="42.5767266" lon="13.5905274"><ele>341.33333333333337</ele><time>2026-04-19T10:00:01.741Z</time></trkpt><trkpt lat="42.5767096" lon="13.5902399"><ele>338.6666666666667</ele><time>2026-04-19T10:00:02.741Z</time></trkpt><trkpt lat="42.5766768" lon="13.589936"><ele>336.0</ele><time>2026-04-19T10:00:03.741Z</time></trkpt><trkpt lat="42.5766171" lon="13.5896256"><ele>332.0</ele><time>2026-04-19T10:00:04.742Z</time></trkpt><trkpt lat="42.5765154" lon="13.589315"><ele>328.0</ele><time>2026-04-19T10:00:05.741Z</time></trkpt><trkpt lat="42.5763883" lon="13.5889946"><ele>328.0</ele><time>2026-04-19T10:00:06.741Z</time></trkpt><trkpt lat="42.57627" lon="13.5887052"><ele>328.0</ele><time>2026-04-19T10:00:07.741Z</time></trkpt><trkpt lat="42.5761564" lon="13.5884449"><ele>331.0</ele><time>2026-04-19T10:00:08.741Z</time></trkpt><trkpt lat="42.5760458" lon="13.5882112"><ele>334.0</ele><time>2026-04-19T10:00:09.741Z</time></trkpt><trkpt lat="42.5759319" lon="13.588006"><ele>337.0</ele><time>2026-04-19T10:00:10.742Z</time></trkpt><trkpt lat="42.5758224" lon="13.5878081"><ele>337.0</ele><time>2026-04-19T10:00:11.741Z</time></trkpt><trkpt lat="42.5757409" lon="13.5875939"><ele>337.0</ele><time>2026-04-19T10:00:12.742Z</time></trkpt><trkpt lat="42.5756828" lon="13.587347"><ele>337.0</ele><time>2026-04-19T10:00:13.742Z</time></trkpt><trkpt lat="42.5756453" lon="13.587056"><ele>333.0</ele><time>2026-04-19T10:00:14.741Z</time></trkpt><trkpt lat="42.5756147" lon="13.5867262"><ele>329.0</ele><time>2026-04-19T10:00:15.741Z</time></trkpt><trkpt lat="42.5755931" lon="13.5863758"><ele>328.0</ele><time>2026-04-19T10:00:16.741Z</time></trkpt><trkpt lat="42.5755728" lon="13.5860443"><ele>327.0</ele><time>2026-04-19T10:00:17.741Z</time></trkpt><trkpt lat="42.5755516" lon="13.5857442"><ele>327.0</ele><time>2026-04-19T10:00:18.742Z</time></trkpt><trkpt lat="42.5755196" lon="13.5854708"><ele>327.0</ele><time>2026-04-19T10:00:19.741Z</time></trkpt><trkpt lat="42.575476" lon="13.5852463"><ele>327.0</ele><time>2026-04-19T10:00:20.741Z</time></trkpt><trkpt lat="42.5754271" lon="13.585038"><ele>326.5</ele><time>2026-04-19T10:00:21.741Z</time></trkpt><trkpt lat="42.5753893" lon="13.5848455"><ele>326.0</ele><time>2026-04-19T10:00:22.742Z</time></trkpt><trkpt lat="42.5753869" lon="13.5846617"><ele>325.5</ele><time>2026-04-19T10:00:23.742Z</time></trkpt><trkpt lat="42.5754181" lon="13.5844865"><ele>325.0</ele><time>2026-04-19T10:00:24.741Z</time></trkpt><trkpt lat="42.5754508" lon="13.5843299"><ele>324.0</ele><time>2026-04-19T10:00:25.742Z</time></trkpt><trkpt lat="42.5754447" lon="13.5841892"><ele>323.0</ele><time>2026-04-19T10:00:26.741Z</time></trkpt><trkpt lat="42.5753983" lon="13.5840602"><ele>322.0</ele><time>2026-04-19T10:00:27.741Z</time></trkpt><trkpt lat="42.5753198" lon="13.583942"><ele>321.0</ele><time>2026-04-19T10:00:28.742Z</time></trkpt><trkpt lat="42.575229" lon="13.5838296"><ele>328.25</ele><time>2026-04-19T10:00:29.741Z</time></trkpt><trkpt lat="42.5751396" lon="13.5837208"><ele>335.5</ele><time>2026-04-19T10:00:30.741Z</time></trkpt><trkpt lat="42.5750553" lon="13.5836089"><ele>342.75</ele><time>2026-04-19T10:00:31.741Z</time></trkpt><trkpt lat="42.5749707" lon="13.5834874"><ele>350.0</ele><time>2026-04-19T10:00:32.742Z</time></trkpt><trkpt lat="42.5748927" lon="13.5833598"><ele>350.0</ele><time>2026-04-19T10:00:33.741Z</time></trkpt><trkpt lat="42.574845" lon="13.5832063"><ele>350.0</ele><time>2026-04-19T10:00:34.742Z</time></trkpt><trkpt lat="42.5748193" lon="13.5830323"><ele>350.0</ele><time>2026-04-19T10:00:35.741Z</time></trkpt><trkpt lat="42.5748091" lon="13.5828515"><ele>350.0</ele><time>2026-04-19T10:00:36.742Z</time></trkpt><trkpt lat="42.574809" lon="13.5826807"><ele>347.75</ele><time>2026-04-19T10:00:37.741Z</time></trkpt><trkpt lat="42.5747969" lon="13.5825133"><ele>345.5</ele><time>2026-04-19T10:00:38.741Z</time></trkpt><trkpt lat="42.5747707" lon="13.58235"><ele>343.25</ele><time>2026-04-19T10:00:39.741Z</time></trkpt><trkpt lat="42.5747122" lon="13.5821957"><ele>341.0</ele><time>2026-04-19T10:00:40.742Z</time></trkpt><trkpt lat="42.5746395" lon="13.5820564"><ele>341.20000000000005</ele><time>2026-04-19T10:00:41.741Z</time></trkpt><trkpt lat="42.5745824" lon="13.5819208"><ele>341.40000000000003</ele><time>2026-04-19T10:00:42.742Z</time></trkpt><trkpt lat="42.5745338" lon="13.5817958"><ele>341.6</ele><time>2026-04-19T10:00:43.742Z</time></trkpt><trkpt lat="42.5744897" lon="13.5816767"><ele>341.8</ele><time>2026-04-19T10:00:44.742Z</time></trkpt><trkpt lat="42.5744708" lon="13.5815631"><ele>342.0</ele><time>2026-04-19T10:00:45.741Z</time></trkpt><trkpt lat="42.5744986" lon="13.5814611"><ele>342.0</ele><time>2026-04-19T10:00:46.741Z</time></trkpt><trkpt lat="42.574561" lon="13.5813735"><ele>342.0</ele><time>2026-04-19T10:00:47.741Z</time></trkpt><trkpt lat="42.5746426" lon="13.5813118"><ele>342.0</ele><time>2026-04-19T10:00:48.742Z</time></trkpt><trkpt lat="42.5747278" lon="13.5812695"><ele>342.0</ele><time>2026-04-19T10:00:49.741Z</time></trkpt><trkpt lat="42.574821" lon="13.5812391"><ele>342.0</ele><time>2026-04-19T10:00:50.741Z</time></trkpt><trkpt lat="42.5749117" lon="13.5812084"><ele>343.8</ele><time>2026-04-19T10:00:51.741Z</time></trkpt><trkpt lat="42.5749951" lon="13.5811479"><ele>345.6</ele><time>2026-04-19T10:00:52.741Z</time></trkpt><trkpt lat="42.5750631" lon="13.5810537"><ele>347.40000000000003</ele><time>2026-04-19T10:00:53.741Z</time></trkpt><trkpt lat="42.5751051" lon="13.5809449"><ele>349.20000000000005</ele><time>2026-04-19T10:00:54.742Z</time></trkpt><trkpt lat="42.575117" lon="13.5808175"><ele>351.0</ele><time>2026-04-19T10:00:55.741Z</time></trkpt><trkpt lat="42.5750965" lon="13.5806873"><ele>351.0</ele><time>2026-04-19T10:00:56.741Z</time></trkpt><trkpt lat="42.5750289" lon="13.5805935"><ele>351.0</ele><time>2026-04-19T10:00:57.741Z</time></trkpt><trkpt lat="42.5749268" lon="13.5805132"><ele>351.0</ele><time>2026-04-19T10:00:58.741Z</time></trkpt><trkpt lat="42.5748082" lon="13.5804225"><ele>351.0</ele><time>2026-04-19T10:00:59.742Z</time></trkpt><trkpt lat="42.5746832" lon="13.5803221"><ele>347.6666666666667</ele><time>2026-04-19T10:01:00.741Z</time></trkpt><trkpt lat="42.57455" lon="13.5802548"><ele>344.33333333333337</ele><time>2026-04-19T10:01:01.741Z</time></trkpt><trkpt lat="42.5744068" lon="13.5802344"><ele>341.0</ele><time>2026-04-19T10:01:02.741Z</time></trkpt><trkpt lat="42.5742433" lon="13.5802598"><ele>341.0</ele><time>2026-04-19T10:01:03.741Z</time></trkpt><trkpt lat="42.5740747" lon="13.5803113"><ele>341.0</ele><time>2026-04-19T10:01:04.741Z</time></trkpt><trkpt lat="42.5739253" lon="13.5803477"><ele>341.0</ele><time>2026-04-19T10:01:05.741Z</time></trkpt><trkpt lat="42.5738051" lon="13.5803503"><ele>341.0</ele><time>2026-04-19T10:01:06.742Z</time></trkpt><trkpt lat="42.573686" lon="13.5803591"><ele>343.75</ele><time>2026-04-19T10:01:07.741Z</time></trkpt><trkpt lat="42.5735641" lon="13.5803394"><ele>346.5</ele><time>2026-04-19T10:01:08.741Z</time></trkpt><trkpt lat="42.5734369" lon="13.5802913"><ele>349.25</ele><time>2026-04-19T10:01:09.742Z</time></trkpt><trkpt lat="42.573309" lon="13.5802076"><ele>352.0</ele><time>2026-04-19T10:01:10.741Z</time></trkpt><trkpt lat="42.5731869" lon="13.5801334"><ele>352.0</ele><time>2026-04-19T10:01:11.741Z</time></trkpt><trkpt lat="42.5730615" lon="13.5800655"><ele>352.0</ele><time>2026-04-19T10:01:12.741Z</time></trkpt><trkpt lat="42.5729382" lon="13.5800129"><ele>352.0</ele><time>2026-04-19T10:01:13.742Z</time></trkpt><trkpt lat="42.5728233" lon="13.5799296"><ele>352.0</ele><time>2026-04-19T10:01:14.742Z</time></trkpt><trkpt lat="42.5727049" lon="13.579816"><ele>356.5</ele><time>2026-04-19T10:01:15.742Z</time></trkpt><trkpt lat="42.5726166" lon="13.5796703"><ele>361.0</ele><time>2026-04-19T10:01:16.741Z</time></trkpt><trkpt lat="42.5725491" lon="13.5795086"><ele>365.5</ele><time>2026-04-19T10:01:17.742Z</time></trkpt><trkpt lat="42.5724819" lon="13.5793457"><ele>370.0</ele><time>2026-04-19T10:01:18.741Z</time></trkpt><trkpt lat="42.5724298" lon="13.5791514"><ele>370.0</ele><time>2026-04-19T10:01:19.741Z</time></trkpt><trkpt lat="42.5723956" lon="13.5789032"><ele>370.0</ele><time>2026-04-19T10:01:20.741Z</time></trkpt><trkpt lat="42.5723669" lon="13.578631"><ele>370.0</ele><time>2026-04-19T10:01:21.741Z</time></trkpt><trkpt lat="42.5723405" lon="13.5783947"><ele>366.25</ele><time>2026-04-19T10:01:22.741Z</time></trkpt><trkpt lat="42.5723024" lon="13.5781835"><ele>362.5</ele><time>2026-04-19T10:01:23.741Z</time></trkpt><trkpt lat="42.572275" lon="13.5779879"><ele>358.75</ele><time>2026-04-19T10:01:24.742Z</time></trkpt><trkpt lat="42.5722436" lon="13.5778064"><ele>355.0</ele><time>2026-04-19T10:01:25.741Z</time></trkpt><trkpt lat="42.5722131" lon="13.5776284"><ele>353.0</ele><time>2026-04-19T10:01:26.742Z</time></trkpt><trkpt lat="42.5721694" lon="13.5774484"><ele>351.0</ele><time>2026-04-19T10:01:27.741Z</time></trkpt><trkpt lat="42.5721152" lon="13.577286"><ele>349.0</ele><time>2026-04-19T10:01:28.742Z</time></trkpt><trkpt lat="42.5720373" lon="13.5771358"><ele>347.0</ele><time>2026-04-19T10:01:29.741Z</time></trkpt><trkpt lat="42.5719393" lon="13.576967"><ele>353.25</ele><time>2026-04-19T10:01:30.741Z</time></trkpt><trkpt lat="42.5718416" lon="13.5768221"><ele>359.5</ele><time>2026-04-19T10:01:31.741Z</time></trkpt><trkpt lat="42.5717438" lon="13.5766871"><ele>365.75</ele><time>2026-04-19T10:01:32.741Z</time></trkpt><trkpt lat="42.5716381" lon="13.5765583"><ele>372.0</ele><time>2026-04-19T10:01:33.742Z</time></trkpt><trkpt lat="42.5715212" lon="13.5764505"><ele>372.0</ele><time>2026-04-19T10:01:34.741Z</time></trkpt><trkpt lat="42.5713894" lon="13.5763715"><ele>372.0</ele><time>2026-04-19T10:01:35.742Z</time></trkpt><trkpt lat="42.5712603" lon="13.5762982"><ele>372.0</ele><time>2026-04-19T10:01:36.741Z</time></trkpt><trkpt lat="42.5711382" lon="13.576245"><ele>372.0</ele><time>2026-04-19T10:01:37.741Z</time></trkpt><trkpt lat="42.571028" lon="13.5761939"><ele>370.6666666666667</ele><time>2026-04-19T10:01:38.742Z</time></trkpt><trkpt lat="42.5709329" lon="13.5761347"><ele>369.3333333333333</ele><time>2026-04-19T10:01:39.742Z</time></trkpt><trkpt lat="42.57086" lon="13.5760661"><ele>368.0</ele><time>2026-04-19T10:01:40.742Z</time></trkpt><trkpt lat="42.570809" lon="13.5759811"><ele>366.66666666666663</ele><time>2026-04-19T10:01:41.741Z</time></trkpt><trkpt lat="42.5707751" lon="13.5758774"><ele>365.3333333333333</ele><time>2026-04-19T10:01:42.742Z</time></trkpt><trkpt lat="42.5707501" lon="13.5757578"><ele>364.0</ele><time>2026-04-19T10:01:43.742Z</time></trkpt><trkpt lat="42.5707167" lon="13.5755996"><ele>364.0</ele><time>2026-04-19T10:01:44.741Z</time></trkpt><trkpt lat="42.57068" lon="13.5754444"><ele>364.0</ele><time>2026-04-19T10:01:45.742Z</time></trkpt><trkpt lat="42.5706318" lon="13.5752778"><ele>364.0</ele><time>2026-04-19T10:01:46.741Z</time></trkpt><trkpt lat="42.5705702" lon="13.5751192"><ele>364.0</ele><time>2026-04-19T10:01:47.742Z</time></trkpt><trkpt lat="42.5704887" lon="13.5749846"><ele>364.75</ele><time>2026-04-19T10:01:48.742Z</time></trkpt><trkpt lat="42.5703933" lon="13.5748876"><ele>365.5</ele><time>2026-04-19T10:01:49.741Z</time></trkpt><trkpt lat="42.5702835" lon="13.5748099"><ele>366.25</ele><time>2026-04-19T10:01:50.742Z</time></trkpt><trkpt lat="42.5701628" lon="13.5747318"><ele>367.0</ele><time>2026-04-19T10:01:51.741Z</time></trkpt><trkpt lat="42.5700453" lon="13.5746605"><ele>367.0</ele><time>2026-04-19T10:01:52.741Z</time></trkpt><trkpt lat="42.5699362" lon="13.5745909"><ele>367.0</ele><time>2026-04-19T10:01:53.741Z</time></trkpt><trkpt lat="42.5698222" lon="13.5745312"><ele>367.0</ele><time>2026-04-19T10:01:54.742Z</time></trkpt><trkpt lat="42.5696917" lon="13.574495"><ele>367.0</ele><time>2026-04-19T10:01:55.741Z</time></trkpt><trkpt lat="42.5695436" lon="13.5744665"><ele>364.66666666666663</ele><time>2026-04-19T10:01:56.742Z</time></trkpt><trkpt lat="42.5693878" lon="13.5744455"><ele>362.3333333333333</ele><time>2026-04-19T10:01:57.741Z</time></trkpt><trkpt lat="42.5692366" lon="13.5744261"><ele>360.0</ele><time>2026-04-19T10:01:58.741Z</time></trkpt><trkpt lat="42.5690783" lon="13.5744367"><ele>360.0</ele><time>2026-04-19T10:01:59.742Z</time></trkpt><trkpt lat="42.5689063" lon="13.574459"><ele>360.0</ele><time>2026-04-19T10:02:00.742Z</time></trkpt><trkpt lat="42.5687389" lon="13.5744867"><ele>360.0</ele><time>2026-04-19T10:02:01.742Z</time></trkpt><trkpt lat="42.5685702" lon="13.5745347"><ele>369.33333333333337</ele><time>2026-04-19T10:02:02.741Z</time></trkpt><trkpt lat="42.5683712" lon="13.5745978"><ele>378.6666666666667</ele><time>2026-04-19T10:02:03.741Z</time></trkpt><trkpt lat="42.5681539" lon="13.5746864"><ele>388.0</ele><time>2026-04-19T10:02:04.741Z</time></trkpt><trkpt lat="42.567931" lon="13.5747794"><ele>388.0</ele><time>2026-04-19T10:02:05.741Z</time></trkpt><trkpt lat="42.5677295" lon="13.5748543"><ele>388.0</ele><time>2026-04-19T10:02:06.741Z</time></trkpt><trkpt lat="42.5675464" lon="13.5749052"><ele>388.0</ele><time>2026-04-19T10:02:07.741Z</time></trkpt><trkpt lat="42.5673637" lon="13.5749109"><ele>388.0</ele><time>2026-04-19T10:02:08.741Z</time></trkpt><trkpt lat="42.5671644" lon="13.5748775"><ele>388.0</ele><time>2026-04-19T10:02:09.741Z</time></trkpt><trkpt lat="42.5669539" lon="13.5748063"><ele>388.0</ele><time>2026-04-19T10:02:10.741Z</time></trkpt><trkpt lat="42.5667129" lon="13.5747247"><ele>396.0</ele><time>2026-04-19T10:02:11.742Z</time></trkpt><trkpt lat="42.56648" lon="13.5746723"><ele>404.0</ele><time>2026-04-19T10:02:12.741Z</time></trkpt><trkpt lat="42.5662688" lon="13.5746354"><ele>412.0</ele><time>2026-04-19T10:02:13.741Z</time></trkpt><trkpt lat="42.5660661" lon="13.5746"><ele>400.33333333333337</ele><time>2026-04-19T10:02:14.742Z</time></trkpt><trkpt lat="42.5658952" lon="13.574538"><ele>388.6666666666667</ele><time>2026-04-19T10:02:15.742Z</time></trkpt><trkpt lat="42.5657379" lon="13.5744364"><ele>377.0</ele><time>2026-04-19T10:02:16.741Z</time></trkpt><trkpt lat="42.5655844" lon="13.5742751"><ele>377.0</ele><time>2026-04-19T10:02:17.742Z</time></trkpt><trkpt lat="42.5654296" lon="13.5740757"><ele>377.0</ele><time>2026-04-19T10:02:18.742Z</time></trkpt><trkpt lat="42.5652616" lon="13.5738595"><ele>377.0</ele><time>2026-04-19T10:02:19.742Z</time></trkpt><trkpt lat="42.5651002" lon="13.5736418"><ele>382.33333333333337</ele><time>2026-04-19T10:02:20.741Z</time></trkpt><trkpt lat="42.5649644" lon="13.5734335"><ele>387.6666666666667</ele><time>2026-04-19T10:02:21.741Z</time></trkpt><trkpt lat="42.5648573" lon="13.573218"><ele>393.0</ele><time>2026-04-19T10:02:22.741Z</time></trkpt><trkpt lat="42.564783" lon="13.573005"><ele>387.0</ele><time>2026-04-19T10:02:23.741Z</time></trkpt><trkpt lat="42.5647393" lon="13.5727721"><ele>381.0</ele><time>2026-04-19T10:02:24.741Z</time></trkpt><trkpt lat="42.5647325" lon="13.5725265"><ele>375.0</ele><time>2026-04-19T10:02:25.742Z</time></trkpt><trkpt lat="42.5647361" lon="13.5722794"><ele>375.0</ele><time>2026-04-19T10:02:26.741Z</time></trkpt><trkpt lat="42.5647623" lon="13.5720506"><ele>375.0</ele><time>2026-04-19T10:02:27.742Z</time></trkpt><trkpt lat="42.5647816" lon="13.5718417"><ele>375.0</ele><time>2026-04-19T10:02:28.742Z</time></trkpt><trkpt lat="42.5647767" lon="13.571691"><ele>375.0</ele><time>2026-04-19T10:02:29.742Z</time></trkpt><trkpt lat="42.564704" lon="13.5715624"><ele>374.0</ele><time>2026-04-19T10:02:30.741Z</time></trkpt><trkpt lat="42.5645939" lon="13.5714401"><ele>373.0</ele><time>2026-04-19T10:02:31.742Z</time></trkpt><trkpt lat="42.5644686" lon="13.5712946"><ele>372.0</ele><time>2026-04-19T10:02:32.742Z</time></trkpt><trkpt lat="42.5643095" lon="13.5711606"><ele>376.33333333333337</ele><time>2026-04-19T10:02:33.741Z</time></trkpt><trkpt lat="42.564164" lon="13.571011"><ele>380.6666666666667</ele><time>2026-04-19T10:02:34.742Z</time></trkpt><trkpt lat="42.5640272" lon="13.570845"><ele>385.0</ele><time>2026-04-19T10:02:35.741Z</time></trkpt><trkpt lat="42.5639103" lon="13.5706475"><ele>385.0</ele><time>2026-04-19T10:02:36.741Z</time></trkpt><trkpt lat="42.5638078" lon="13.5704276"><ele>385.0</ele><time>2026-04-19T10:02:37.741Z</time></trkpt><trkpt lat="42.5637219" lon="13.5702226"><ele>385.0</ele><time>2026-04-19T10:02:38.741Z</time></trkpt><trkpt lat="42.5636638" lon="13.570022"><ele>390.6666666666667</ele><time>2026-04-19T10:02:39.742Z</time></trkpt><trkpt lat="42.5636493" lon="13.5697917"><ele>396.33333333333337</ele><time>2026-04-19T10:02:40.741Z</time></trkpt><trkpt lat="42.5636605" lon="13.5695488"><ele>402.0</ele><time>2026-04-19T10:02:41.741Z</time></trkpt><trkpt lat="42.5636532" lon="13.569308"><ele>402.0</ele><time>2026-04-19T10:02:42.741Z</time></trkpt><trkpt lat="42.563619" lon="13.5690647"><ele>402.0</ele><time>2026-04-19T10:02:43.742Z</time></trkpt><trkpt lat="42.5635612" lon="13.5688259"><ele>402.0</ele><time>2026-04-19T10:02:44.741Z</time></trkpt><trkpt lat="42.5634935" lon="13.5685902"><ele>399.66666666666663</ele><time>2026-04-19T10:02:45.741Z</time></trkpt><trkpt lat="42.5634535" lon="13.5683132"><ele>397.3333333333333</ele><time>2026-04-19T10:02:46.741Z</time></trkpt><trkpt lat="42.5634362" lon="13.5680094"><ele>395.0</ele><time>2026-04-19T10:02:47.742Z</time></trkpt><trkpt lat="42.5634388" lon="13.5676904"><ele>392.5</ele><time>2026-04-19T10:02:48.741Z</time></trkpt><trkpt lat="42.5634405" lon="13.5673669"><ele>390.0</ele><time>2026-04-19T10:02:49.741Z</time></trkpt><trkpt lat="42.563441" lon="13.5670602"><ele>390.66666666666663</ele><time>2026-04-19T10:02:50.742Z</time></trkpt><trkpt lat="42.5634324" lon="13.566793"><ele>391.3333333333333</ele><time>2026-04-19T10:02:51.742Z</time></trkpt><trkpt lat="42.5634193" lon="13.5665761"><ele>392.0</ele><time>2026-04-19T10:02:52.742Z</time></trkpt><trkpt lat="42.5633765" lon="13.5663901"><ele>392.0</ele><time>2026-04-19T10:02:53.741Z</time></trkpt><trkpt lat="42.5633091" lon="13.5662194"><ele>392.0</ele><time>2026-04-19T10:02:54.742Z</time></trkpt><trkpt lat="42.5632281" lon="13.5660095"><ele>392.0</ele><time>2026-04-19T10:02:55.741Z</time></trkpt><trkpt lat="42.5630992" lon="13.5658065"><ele>390.3333333333333</ele><time>2026-04-19T10:02:56.741Z</time></trkpt><trkpt lat="42.5629457" lon="13.5656337"><ele>388.66666666666663</ele><time>2026-04-19T10:02:57.741Z</time></trkpt><trkpt lat="42.5627752" lon="13.5654818"><ele>387.0</ele><time>2026-04-19T10:02:58.741Z</time></trkpt><trkpt lat="42.5626" lon="13.5653612"><ele>387.0</ele><time>2026-04-19T10:02:59.742Z</time></trkpt><trkpt lat="42.562407" lon="13.5652666"><ele>387.0</ele><time>2026-04-19T10:03:00.742Z</time></trkpt><trkpt lat="42.5622082" lon="13.5651888"><ele>387.0</ele><time>2026-04-19T10:03:01.741Z</time></trkpt><trkpt lat="42.5620018" lon="13.565108"><ele>395.33333333333337</ele><time>2026-04-19T10:03:02.741Z</time></trkpt><trkpt lat="42.5617903" lon="13.5650376"><ele>403.6666666666667</ele><time>2026-04-19T10:03:03.741Z</time></trkpt><trkpt lat="42.5615895" lon="13.5649738"><ele>412.0</ele><time>2026-04-19T10:03:04.741Z</time></trkpt><trkpt lat="42.5614128" lon="13.5649047"><ele>412.0</ele><time>2026-04-19T10:03:05.741Z</time></trkpt><trkpt lat="42.561258" lon="13.5648264"><ele>412.0</ele><time>2026-04-19T10:03:06.741Z</time></trkpt><trkpt lat="42.5611197" lon="13.5647191"><ele>412.0</ele><time>2026-04-19T10:03:07.741Z</time></trkpt><trkpt lat="42.5609945" lon="13.5645816"><ele>411.0</ele><time>2026-04-19T10:03:08.742Z</time></trkpt><trkpt lat="42.5608785" lon="13.5644074"><ele>410.0</ele><time>2026-04-19T10:03:09.742Z</time></trkpt><trkpt lat="42.5607641" lon="13.5642052"><ele>409.0</ele><time>2026-04-19T10:03:10.741Z</time></trkpt><trkpt lat="42.5606228" lon="13.5640087"><ele>409.0</ele><time>2026-04-19T10:03:11.741Z</time></trkpt><trkpt lat="42.5604772" lon="13.5637641"><ele>409.0</ele><time>2026-04-19T10:03:12.742Z</time></trkpt><trkpt lat="42.5603372" lon="13.5634893"><ele>419.0</ele><time>2026-04-19T10:03:13.742Z</time></trkpt><trkpt lat="42.560183" lon="13.5631709"><ele>429.0</ele><time>2026-04-19T10:03:14.741Z</time></trkpt><trkpt lat="42.5591243" lon="13.5614404"><ele>429.0</ele><time>2026-04-19T10:03:20.742Z</time></trkpt><trkpt lat="42.5589662" lon="13.5612239"><ele>429.0</ele><time>2026-04-19T10:03:21.742Z</time></trkpt><trkpt lat="42.558852" lon="13.5610196"><ele>429.0</ele><time>2026-04-19T10:03:22.742Z</time></trkpt><trkpt lat="42.5587242" lon="13.5608308"><ele>427.33333333333337</ele><time>2026-04-19T10:03:23.741Z</time></trkpt><trkpt lat="42.5585745" lon="13.5606682"><ele>425.6666666666667</ele><time>2026-04-19T10:03:24.742Z</time></trkpt><trkpt lat="42.5584433" lon="13.560525"><ele>424.0</ele><time>2026-04-19T10:03:25.741Z</time></trkpt><trkpt lat="42.5582721" lon="13.5604498"><ele>424.0</ele><time>2026-04-19T10:03:26.741Z</time></trkpt><trkpt lat="42.5581146" lon="13.5604006"><ele>424.0</ele><time>2026-04-19T10:03:27.741Z</time></trkpt><trkpt lat="42.5579336" lon="13.5603827"><ele>424.0</ele><time>2026-04-19T10:03:28.742Z</time></trkpt><trkpt lat="42.5577407" lon="13.5604215"><ele>428.6666666666667</ele><time>2026-04-19T10:03:29.742Z</time></trkpt><trkpt lat="42.5575844" lon="13.5604752"><ele>433.33333333333337</ele><time>2026-04-19T10:03:30.742Z</time></trkpt><trkpt lat="42.5574314" lon="13.5605162"><ele>438.0</ele><time>2026-04-19T10:03:31.741Z</time></trkpt><trkpt lat="42.5572736" lon="13.5605116"><ele>438.0</ele><time>2026-04-19T10:03:32.741Z</time></trkpt><trkpt lat="42.5571178" lon="13.5604339"><ele>438.0</ele><time>2026-04-19T10:03:33.742Z</time></trkpt><trkpt lat="42.5569656" lon="13.5603203"><ele>438.0</ele><time>2026-04-19T10:03:34.741Z</time></trkpt><trkpt lat="42.5568022" lon="13.5601767"><ele>431.66666666666663</ele><time>2026-04-19T10:03:35.741Z</time></trkpt><trkpt lat="42.5566351" lon="13.560017"><ele>425.3333333333333</ele><time>2026-04-19T10:03:36.741Z</time></trkpt><trkpt lat="42.5564721" lon="13.5598482"><ele>419.0</ele><time>2026-04-19T10:03:37.741Z</time></trkpt><trkpt lat="42.5563262" lon="13.5596751"><ele>419.3333333333333</ele><time>2026-04-19T10:03:38.742Z</time></trkpt><trkpt lat="42.5561947" lon="13.5594948"><ele>419.66666666666663</ele><time>2026-04-19T10:03:39.742Z</time></trkpt><trkpt lat="42.5560872" lon="13.55931"><ele>420.0</ele><time>2026-04-19T10:03:40.742Z</time></trkpt><trkpt lat="42.5560194" lon="13.5591244"><ele>420.0</ele><time>2026-04-19T10:03:41.742Z</time></trkpt><trkpt lat="42.5559211" lon="13.5589933"><ele>420.0</ele><time>2026-04-19T10:03:42.742Z</time></trkpt><trkpt lat="42.5557845" lon="13.558892"><ele>420.0</ele><time>2026-04-19T10:03:43.741Z</time></trkpt><trkpt lat="42.5556155" lon="13.5588049"><ele>420.0</ele><time>2026-04-19T10:03:44.742Z</time></trkpt><trkpt lat="42.5554248" lon="13.5587215"><ele>420.0</ele><time>2026-04-19T10:03:45.741Z</time></trkpt><trkpt lat="42.555227" lon="13.558657"><ele>420.0</ele><time>2026-04-19T10:03:46.741Z</time></trkpt><trkpt lat="42.5550492" lon="13.5586283"><ele>416.0</ele><time>2026-04-19T10:03:47.741Z</time></trkpt><trkpt lat="42.5548857" lon="13.558629"><ele>412.0</ele><time>2026-04-19T10:03:48.741Z</time></trkpt><trkpt lat="42.5547301" lon="13.5586108"><ele>408.0</ele><time>2026-04-19T10:03:49.741Z</time></trkpt><trkpt lat="42.5545645" lon="13.5585392"><ele>413.33333333333337</ele><time>2026-04-19T10:03:50.742Z</time></trkpt><trkpt lat="42.5543935" lon="13.5584281"><ele>418.6666666666667</ele><time>2026-04-19T10:03:51.742Z</time></trkpt><trkpt lat="42.5542188" lon="13.558295"><ele>424.0</ele><time>2026-04-19T10:03:52.741Z</time></trkpt><trkpt lat="42.5540455" lon="13.5581535"><ele>424.0</ele><time>2026-04-19T10:03:53.741Z</time></trkpt><trkpt lat="42.5538984" lon="13.5579902"><ele>424.0</ele><time>2026-04-19T10:03:54.741Z</time></trkpt><trkpt lat="42.5537672" lon="13.5578421"><ele>424.0</ele><time>2026-04-19T10:03:55.742Z</time></trkpt><trkpt lat="42.5536591" lon="13.5576823"><ele>423.75</ele><time>2026-04-19T10:03:56.741Z</time></trkpt><trkpt lat="42.553565" lon="13.5575187"><ele>423.5</ele><time>2026-04-19T10:03:57.741Z</time></trkpt><trkpt lat="42.5534894" lon="13.5573552"><ele>423.25</ele><time>2026-04-19T10:03:58.741Z</time></trkpt><trkpt lat="42.5533977" lon="13.5572509"><ele>423.0</ele><time>2026-04-19T10:03:59.742Z</time></trkpt><trkpt lat="42.5533098" lon="13.5571913"><ele>423.0</ele><time>2026-04-19T10:04:00.741Z</time></trkpt><trkpt lat="42.5532239" lon="13.5571609"><ele>423.0</ele><time>2026-04-19T10:04:01.742Z</time></trkpt><trkpt lat="42.5531541" lon="13.5571363"><ele>423.0</ele><time>2026-04-19T10:04:02.742Z</time></trkpt><trkpt lat="42.5530936" lon="13.5571059"><ele>423.0</ele><time>2026-04-19T10:04:03.741Z</time></trkpt><trkpt lat="42.5530398" lon="13.5570541"><ele>423.0</ele><time>2026-04-19T10:04:04.742Z</time></trkpt><trkpt lat="42.5529958" lon="13.556992"><ele>423.0</ele><time>2026-04-19T10:04:05.741Z</time></trkpt><trkpt lat="42.552963" lon="13.5569014"><ele>423.0</ele><time>2026-04-19T10:04:06.741Z</time></trkpt><trkpt lat="42.5529597" lon="13.5567864"><ele>420.0</ele><time>2026-04-19T10:04:07.741Z</time></trkpt><trkpt lat="42.5529672" lon="13.5566322"><ele>417.0</ele><time>2026-04-19T10:04:08.741Z</time></trkpt><trkpt lat="42.5529923" lon="13.5564437"><ele>414.0</ele><time>2026-04-19T10:04:09.741Z</time></trkpt><trkpt lat="42.5530247" lon="13.5562198"><ele>411.0</ele><time>2026-04-19T10:04:10.742Z</time></trkpt><trkpt lat="42.5530771" lon="13.5560081"><ele>411.0</ele><time>2026-04-19T10:04:11.741Z</time></trkpt><trkpt lat="42.5531161" lon="13.5558255"><ele>411.0</ele><time>2026-04-19T10:04:12.741Z</time></trkpt><trkpt lat="42.5531537" lon="13.5556586"><ele>411.0</ele><time>2026-04-19T10:04:13.741Z</time></trkpt><trkpt lat="42.5532034" lon="13.5555121"><ele>411.0</ele><time>2026-04-19T10:04:14.741Z</time></trkpt><trkpt lat="42.5532547" lon="13.5553814"><ele>416.25</ele><time>2026-04-19T10:04:15.742Z</time></trkpt><trkpt lat="42.5533165" lon="13.5552492"><ele>421.5</ele><time>2026-04-19T10:04:16.741Z</time></trkpt><trkpt lat="42.5533962" lon="13.5551183"><ele>426.75</ele><time>2026-04-19T10:04:17.741Z</time></trkpt><trkpt lat="42.5534733" lon="13.5549883"><ele>432.0</ele><time>2026-04-19T10:04:18.741Z</time></trkpt><trkpt lat="42.5535531" lon="13.5548598"><ele>432.0</ele><time>2026-04-19T10:04:19.742Z</time></trkpt><trkpt lat="42.5536297" lon="13.5547505"><ele>432.00000000000006</ele><time>2026-04-19T10:04:20.741Z</time></trkpt><trkpt lat="42.5537069" lon="13.5546486"><ele>432.00000000000006</ele><time>2026-04-19T10:04:21.741Z</time></trkpt><trkpt lat="42.5537905" lon="13.5545517"><ele>432.0</ele><time>2026-04-19T10:04:22.741Z</time></trkpt><trkpt lat="42.5538729" lon="13.5544661"><ele>432.0</ele><time>2026-04-19T10:04:23.742Z</time></trkpt><trkpt lat="42.5539499" lon="13.5543863"><ele>430.0</ele><time>2026-04-19T10:04:24.741Z</time></trkpt><trkpt lat="42.5540182" lon="13.5542998"><ele>428.00000000000006</ele><time>2026-04-19T10:04:25.741Z</time></trkpt><trkpt lat="42.5540784" lon="13.5542118"><ele>426.0</ele><time>2026-04-19T10:04:26.742Z</time></trkpt><trkpt lat="42.5541275" lon="13.5540934"><ele>424.0</ele><time>2026-04-19T10:04:27.742Z</time></trkpt><trkpt lat="42.5541703" lon="13.5539455"><ele>422.0</ele><time>2026-04-19T10:04:28.742Z</time></trkpt><trkpt lat="42.5542335" lon="13.5537824"><ele>427.0</ele><time>2026-04-19T10:04:29.741Z</time></trkpt><trkpt lat="42.5543073" lon="13.5536419"><ele>432.0</ele><time>2026-04-19T10:04:30.742Z</time></trkpt><trkpt lat="42.5543854" lon="13.5535318"><ele>437.0</ele><time>2026-04-19T10:04:31.741Z</time></trkpt><trkpt lat="42.5544634" lon="13.5534239"><ele>442.0</ele><time>2026-04-19T10:04:32.741Z</time></trkpt><trkpt lat="42.5545351" lon="13.5533151"><ele>435.6</ele><time>2026-04-19T10:04:33.741Z</time></trkpt><trkpt lat="42.5545976" lon="13.5532009"><ele>429.20000000000005</ele><time>2026-04-19T10:04:34.741Z</time></trkpt><trkpt lat="42.5546532" lon="13.5530667"><ele>422.8</ele><time>2026-04-19T10:04:35.741Z</time></trkpt><trkpt lat="42.5546958" lon="13.5529328"><ele>416.4</ele><time>2026-04-19T10:04:36.741Z</time></trkpt><trkpt lat="42.5547267" lon="13.5528039"><ele>410.0</ele><time>2026-04-19T10:04:37.741Z</time></trkpt><trkpt lat="42.5547442" lon="13.5526738"><ele>409.99999999999994</ele><time>2026-04-19T10:04:38.742Z</time></trkpt><trkpt lat="42.5547571" lon="13.5525524"><ele>410.0</ele><time>2026-04-19T10:04:39.741Z</time></trkpt><trkpt lat="42.554769" lon="13.5524397"><ele>410.0</ele><time>2026-04-19T10:04:40.741Z</time></trkpt><trkpt lat="42.5547771" lon="13.5523322"><ele>410.0</ele><time>2026-04-19T10:04:41.741Z</time></trkpt><trkpt lat="42.5547636" lon="13.5522112"><ele>409.99999999999994</ele><time>2026-04-19T10:04:42.741Z</time></trkpt><trkpt lat="42.5547078" lon="13.5520897"><ele>410.0</ele><time>2026-04-19T10:04:43.742Z</time></trkpt><trkpt lat="42.5546197" lon="13.5519841"><ele>418.6</ele><time>2026-04-19T10:04:44.742Z</time></trkpt><trkpt lat="42.5545324" lon="13.551887"><ele>427.2</ele><time>2026-04-19T10:04:45.741Z</time></trkpt><trkpt lat="42.5544722" lon="13.5517684"><ele>435.79999999999995</ele><time>2026-04-19T10:04:46.742Z</time></trkpt><trkpt lat="42.5544399" lon="13.5516407"><ele>444.4</ele><time>2026-04-19T10:04:47.741Z</time></trkpt><trkpt lat="42.5544046" lon="13.5514984"><ele>453.0</ele><time>2026-04-19T10:04:48.742Z</time></trkpt><trkpt lat="42.5543773" lon="13.5513477"><ele>453.5</ele><time>2026-04-19T10:04:49.741Z</time></trkpt><trkpt lat="42.5543703" lon="13.5511944"><ele>454.0</ele><time>2026-04-19T10:04:50.741Z</time></trkpt><trkpt lat="42.5543789" lon="13.5510319"><ele>454.5</ele><time>2026-04-19T10:04:51.741Z</time></trkpt><trkpt lat="42.5543956" lon="13.5508665"><ele>455.0</ele><time>2026-04-19T10:04:52.741Z</time></trkpt><trkpt lat="42.5544064" lon="13.5507041"><ele>455.0</ele><time>2026-04-19T10:04:53.742Z</time></trkpt><trkpt lat="42.5544182" lon="13.5505513"><ele>455.0</ele><time>2026-04-19T10:04:54.741Z</time></trkpt><trkpt lat="42.5544299" lon="13.5503918"><ele>455.0</ele><time>2026-04-19T10:04:55.741Z</time></trkpt><trkpt lat="42.5544406" lon="13.550249"><ele>455.0</ele><time>2026-04-19T10:04:56.741Z</time></trkpt><trkpt lat="42.55445" lon="13.5500999"><ele>455.0</ele><time>2026-04-19T10:04:57.741Z</time></trkpt><trkpt lat="42.5544603" lon="13.5499584"><ele>454.66666666666663</ele><time>2026-04-19T10:04:58.741Z</time></trkpt><trkpt lat="42.5544752" lon="13.5498309"><ele>454.3333333333333</ele><time>2026-04-19T10:04:59.741Z</time></trkpt><trkpt lat="42.5544987" lon="13.5497145"><ele>454.0</ele><time>2026-04-19T10:05:00.741Z</time></trkpt><trkpt lat="42.5545192" lon="13.5496047"><ele>453.66666666666663</ele><time>2026-04-19T10:05:01.741Z</time></trkpt><trkpt lat="42.5545414" lon="13.5494876"><ele>453.3333333333333</ele><time>2026-04-19T10:05:02.741Z</time></trkpt><trkpt lat="42.5545404" lon="13.549362"><ele>453.0</ele><time>2026-04-19T10:05:03.742Z</time></trkpt><trkpt lat="42.5545179" lon="13.5492405"><ele>451.59999999999997</ele><time>2026-04-19T10:05:04.742Z</time></trkpt><trkpt lat="42.5544703" lon="13.5491209"><ele>450.19999999999993</ele><time>2026-04-19T10:05:05.742Z</time></trkpt><trkpt lat="42.5544267" lon="13.5489972"><ele>448.8</ele><time>2026-04-19T10:05:06.741Z</time></trkpt><trkpt lat="42.5543915" lon="13.5488662"><ele>447.4</ele><time>2026-04-19T10:05:07.741Z</time></trkpt><trkpt lat="42.5543627" lon="13.5487399"><ele>446.0</ele><time>2026-04-19T10:05:08.741Z</time></trkpt><trkpt lat="42.554326" lon="13.5486319"><ele>442.99999999999994</ele><time>2026-04-19T10:05:09.742Z</time></trkpt><trkpt lat="42.554291" lon="13.5485411"><ele>440.0</ele><time>2026-04-19T10:05:10.742Z</time></trkpt><trkpt lat="42.5542547" lon="13.5484673"><ele>437.0</ele><time>2026-04-19T10:05:11.741Z</time></trkpt><trkpt lat="42.5542025" lon="13.5483869"><ele>434.0</ele><time>2026-04-19T10:05:12.741Z</time></trkpt><trkpt lat="42.5541492" lon="13.5483055"><ele>430.99999999999994</ele><time>2026-04-19T10:05:13.742Z</time></trkpt><trkpt lat="42.5541124" lon="13.5481998"><ele>428.0</ele><time>2026-04-19T10:05:14.741Z</time></trkpt><trkpt lat="42.554106" lon="13.5480817"><ele>427.99999999999994</ele><time>2026-04-19T10:05:15.741Z</time></trkpt><trkpt lat="42.5541303" lon="13.5479635"><ele>428.0</ele><time>2026-04-19T10:05:16.741Z</time></trkpt><trkpt lat="42.554159" lon="13.5478453"><ele>428.0</ele><time>2026-04-19T10:05:17.742Z</time></trkpt><trkpt lat="42.5541876" lon="13.5477354"><ele>428.0</ele><time>2026-04-19T10:05:18.742Z</time></trkpt><trkpt lat="42.5542309" lon="13.5476311"><ele>427.99999999999994</ele><time>2026-04-19T10:05:19.741Z</time></trkpt><trkpt lat="42.5542949" lon="13.5475471"><ele>428.0</ele><time>2026-04-19T10:05:20.742Z</time></trkpt><trkpt lat="42.5543823" lon="13.5474912"><ele>428.49999999999994</ele><time>2026-04-19T10:05:21.741Z</time></trkpt><trkpt lat="42.5544629" lon="13.5474669"><ele>429.0</ele><time>2026-04-19T10:05:22.741Z</time></trkpt><trkpt lat="42.5545148" lon="13.5473927"><ele>429.5</ele><time>2026-04-19T10:05:23.742Z</time></trkpt><trkpt lat="42.5545442" lon="13.5472711"><ele>430.0</ele><time>2026-04-19T10:05:24.741Z</time></trkpt><trkpt lat="42.5545716" lon="13.5471557"><ele>430.49999999999994</ele><time>2026-04-19T10:05:25.742Z</time></trkpt><trkpt lat="42.5546025" lon="13.5470158"><ele>431.0</ele><time>2026-04-19T10:05:26.741Z</time></trkpt><trkpt lat="42.5546438" lon="13.5468718"><ele>428.0</ele><time>2026-04-19T10:05:27.741Z</time></trkpt><trkpt lat="42.5546918" lon="13.5467009"><ele>425.0</ele><time>2026-04-19T10:05:28.742Z</time></trkpt><trkpt lat="42.5547505" lon="13.5465077"><ele>422.0</ele><time>2026-04-19T10:05:29.741Z</time></trkpt><trkpt lat="42.5548289" lon="13.5462912"><ele>426.3333333333333</ele><time>2026-04-19T10:05:30.741Z</time></trkpt><trkpt lat="42.5549068" lon="13.5460407"><ele>430.66666666666663</ele><time>2026-04-19T10:05:31.742Z</time></trkpt><trkpt lat="42.5549887" lon="13.5457881"><ele>435.0</ele><time>2026-04-19T10:05:32.742Z</time></trkpt><trkpt lat="42.5550706" lon="13.5455432"><ele>452.0</ele><time>2026-04-19T10:05:33.742Z</time></trkpt><trkpt lat="42.5551509" lon="13.5452908"><ele>469.0</ele><time>2026-04-19T10:05:34.742Z</time></trkpt><trkpt lat="42.555241" lon="13.54505"><ele>486.0</ele><time>2026-04-19T10:05:35.742Z</time></trkpt><trkpt lat="42.5553351" lon="13.5448095"><ele>475.66666666666663</ele><time>2026-04-19T10:05:36.741Z</time></trkpt><trkpt lat="42.5554464" lon="13.5445635"><ele>465.3333333333333</ele><time>2026-04-19T10:05:37.741Z</time></trkpt><trkpt lat="42.5556119" lon="13.5443603"><ele>455.0</ele><time>2026-04-19T10:05:38.742Z</time></trkpt><trkpt lat="42.5557735" lon="13.5441731"><ele>455.0</ele><time>2026-04-19T10:05:39.741Z</time></trkpt><trkpt lat="42.5559387" lon="13.5440035"><ele>455.0</ele><time>2026-04-19T10:05:40.741Z</time></trkpt><trkpt lat="42.5560968" lon="13.5438273"><ele>455.0</ele><time>2026-04-19T10:05:41.741Z</time></trkpt><trkpt lat="42.5562504" lon="13.5436532"><ele>456.0</ele><time>2026-04-19T10:05:42.742Z</time></trkpt><trkpt lat="42.5564022" lon="13.5435123"><ele>457.0</ele><time>2026-04-19T10:05:43.741Z</time></trkpt><trkpt lat="42.5565741" lon="13.5433899"><ele>458.0</ele><time>2026-04-19T10:05:44.741Z</time></trkpt><trkpt lat="42.5567607" lon="13.5432702"><ele>458.0</ele><time>2026-04-19T10:05:45.742Z</time></trkpt><trkpt lat="42.5569597" lon="13.5431272"><ele>458.0</ele><time>2026-04-19T10:05:46.741Z</time></trkpt><trkpt lat="42.5571422" lon="13.5429569"><ele>458.0</ele><time>2026-04-19T10:05:47.741Z</time></trkpt><trkpt lat="42.5573124" lon="13.5427653"><ele>456.66666666666663</ele><time>2026-04-19T10:05:48.741Z</time></trkpt><trkpt lat="42.5574685" lon="13.5425738"><ele>455.33333333333337</ele><time>2026-04-19T10:05:49.742Z</time></trkpt><trkpt lat="42.5576153" lon="13.5423623"><ele>454.0</ele><time>2026-04-19T10:05:50.742Z</time></trkpt><trkpt lat="42.5577618" lon="13.5421542"><ele>453.6666666666667</ele><time>2026-04-19T10:05:51.741Z</time></trkpt><trkpt lat="42.5579211" lon="13.5419816"><ele>453.33333333333337</ele><time>2026-04-19T10:05:52.741Z</time></trkpt><trkpt lat="42.5580678" lon="13.5418568"><ele>453.0</ele><time>2026-04-19T10:05:53.74Z</time></trkpt><trkpt lat="42.5581906" lon="13.5417622"><ele>453.0</ele><time>2026-04-19T10:05:54.74Z</time></trkpt><trkpt lat="42.5583043" lon="13.5416614"><ele>453.0</ele><time>2026-04-19T10:05:55.74Z</time></trkpt><trkpt lat="42.558405" lon="13.5415584"><ele>453.0</ele><time>2026-04-19T10:05:56.749Z</time></trkpt><trkpt lat="42.5585077" lon="13.5414539"><ele>453.0</ele><time>2026-04-19T10:05:57.748Z</time></trkpt><trkpt lat="42.558594" lon="13.5413119"><ele>461.66666666666663</ele><time>2026-04-19T10:05:58.748Z</time></trkpt><trkpt lat="42.5586173" lon="13.5410965"><ele>470.3333333333333</ele><time>2026-04-19T10:05:59.748Z</time></trkpt><trkpt lat="42.5586454" lon="13.5408829"><ele>479.0</ele><time>2026-04-19T10:06:00.748Z</time></trkpt><trkpt lat="42.5586986" lon="13.5406631"><ele>474.0</ele><time>2026-04-19T10:06:01.748Z</time></trkpt><trkpt lat="42.5587549" lon="13.5404496"><ele>469.0</ele><time>2026-04-19T10:06:02.749Z</time></trkpt><trkpt lat="42.5588117" lon="13.5402419"><ele>464.0</ele><time>2026-04-19T10:06:03.749Z</time></trkpt><trkpt lat="42.5588689" lon="13.5400538"><ele>464.0</ele><time>2026-04-19T10:06:04.748Z</time></trkpt><trkpt lat="42.5589339" lon="13.539923"><ele>464.0</ele><time>2026-04-19T10:06:05.749Z</time></trkpt><trkpt lat="42.5590134" lon="13.5398207"><ele>464.0</ele><time>2026-04-19T10:06:06.749Z</time></trkpt><trkpt lat="42.5591042" lon="13.5397488"><ele>464.0</ele><time>2026-04-19T10:06:07.749Z</time></trkpt><trkpt lat="42.5592506" lon="13.5397204"><ele>464.0</ele><time>2026-04-19T10:06:08.748Z</time></trkpt><trkpt lat="42.5593998" lon="13.5396935"><ele>464.0</ele><time>2026-04-19T10:06:09.748Z</time></trkpt><trkpt lat="42.5595438" lon="13.5396948"><ele>464.0</ele><time>2026-04-19T10:06:10.749Z</time></trkpt><trkpt lat="42.5596775" lon="13.5396661"><ele>464.0</ele><time>2026-04-19T10:06:11.749Z</time></trkpt><trkpt lat="42.559822" lon="13.53958"><ele>468.0</ele><time>2026-04-19T10:06:12.748Z</time></trkpt><trkpt lat="42.5599556" lon="13.5394345"><ele>472.0</ele><time>2026-04-19T10:06:13.749Z</time></trkpt><trkpt lat="42.5600844" lon="13.5392537"><ele>476.0</ele><time>2026-04-19T10:06:14.748Z</time></trkpt><trkpt lat="42.5602104" lon="13.5390729"><ele>476.0</ele><time>2026-04-19T10:06:15.749Z</time></trkpt><trkpt lat="42.5603361" lon="13.5389011"><ele>476.0</ele><time>2026-04-19T10:06:16.748Z</time></trkpt><trkpt lat="42.5604615" lon="13.5387564"><ele>476.0</ele><time>2026-04-19T10:06:17.749Z</time></trkpt><trkpt lat="42.5605853" lon="13.5386232"><ele>472.0</ele><time>2026-04-19T10:06:18.749Z</time></trkpt><trkpt lat="42.5607045" lon="13.5384755"><ele>468.0</ele><time>2026-04-19T10:06:19.749Z</time></trkpt><trkpt lat="42.5607961" lon="13.5382716"><ele>464.0</ele><time>2026-04-19T10:06:20.749Z</time></trkpt><trkpt lat="42.5608616" lon="13.5380291"><ele>469.3333333333333</ele><time>2026-04-19T10:06:21.748Z</time></trkpt><trkpt lat="42.5609263" lon="13.5377645"><ele>474.66666666666663</ele><time>2026-04-19T10:06:22.749Z</time></trkpt><trkpt lat="42.5610095" lon="13.5375104"><ele>480.0</ele><time>2026-04-19T10:06:23.748Z</time></trkpt><trkpt lat="42.5611163" lon="13.5372799"><ele>476.33333333333337</ele><time>2026-04-19T10:06:24.748Z</time></trkpt><trkpt lat="42.561246" lon="13.5370587"><ele>472.6666666666667</ele><time>2026-04-19T10:06:25.748Z</time></trkpt><trkpt lat="42.5613654" lon="13.5368381"><ele>469.0</ele><time>2026-04-19T10:06:26.748Z</time></trkpt><trkpt lat="42.5614644" lon="13.5366317"><ele>469.0</ele><time>2026-04-19T10:06:27.748Z</time></trkpt><trkpt lat="42.5615538" lon="13.5364393"><ele>469.0</ele><time>2026-04-19T10:06:28.748Z</time></trkpt><trkpt lat="42.5616682" lon="13.5362573"><ele>469.0</ele><time>2026-04-19T10:06:29.748Z</time></trkpt><trkpt lat="42.5618161" lon="13.5361159"><ele>468.33333333333337</ele><time>2026-04-19T10:06:30.749Z</time></trkpt><trkpt lat="42.5619567" lon="13.5359921"><ele>467.66666666666663</ele><time>2026-04-19T10:06:31.748Z</time></trkpt><trkpt lat="42.5620801" lon="13.5358645"><ele>467.0</ele><time>2026-04-19T10:06:32.749Z</time></trkpt><trkpt lat="42.562169" lon="13.535693"><ele>467.0</ele><time>2026-04-19T10:06:33.749Z</time></trkpt><trkpt lat="42.5622134" lon="13.5354686"><ele>467.0</ele><time>2026-04-19T10:06:34.748Z</time></trkpt><trkpt lat="42.562231" lon="13.5351784"><ele>467.0</ele><time>2026-04-19T10:06:35.748Z</time></trkpt><trkpt lat="42.5622634" lon="13.534889"><ele>471.0</ele><time>2026-04-19T10:06:36.748Z</time></trkpt><trkpt lat="42.5623032" lon="13.5345787"><ele>475.0</ele><time>2026-04-19T10:06:37.749Z</time></trkpt><trkpt lat="42.5623445" lon="13.5342442"><ele>478.0</ele><time>2026-04-19T10:06:38.748Z</time></trkpt><trkpt lat="42.5623877" lon="13.5338799"><ele>481.0</ele><time>2026-04-19T10:06:39.748Z</time></trkpt><trkpt lat="42.5624399" lon="13.533489"><ele>482.5</ele><time>2026-04-19T10:06:40.748Z</time></trkpt><trkpt lat="42.5625035" lon="13.5330817"><ele>484.0</ele><time>2026-04-19T10:06:41.749Z</time></trkpt><trkpt lat="42.5625664" lon="13.5326934"><ele>487.5</ele><time>2026-04-19T10:06:42.749Z</time></trkpt><trkpt lat="42.5626265" lon="13.5323265"><ele>491.0</ele><time>2026-04-19T10:06:43.749Z</time></trkpt><trkpt lat="42.5626918" lon="13.5320009"><ele>493.3333333333333</ele><time>2026-04-19T10:06:44.749Z</time></trkpt><trkpt lat="42.5627574" lon="13.5317528"><ele>495.66666666666663</ele><time>2026-04-19T10:06:45.748Z</time></trkpt><trkpt lat="42.5628302" lon="13.5315468"><ele>498.0</ele><time>2026-04-19T10:06:46.748Z</time></trkpt><trkpt lat="42.5628911" lon="13.5313327"><ele>499.0</ele><time>2026-04-19T10:06:47.749Z</time></trkpt><trkpt lat="42.5629219" lon="13.5311199"><ele>500.0</ele><time>2026-04-19T10:06:48.748Z</time></trkpt><trkpt lat="42.5629008" lon="13.530917"><ele>501.0</ele><time>2026-04-19T10:06:49.748Z</time></trkpt><trkpt lat="42.5628435" lon="13.5307236"><ele>501.0</ele><time>2026-04-19T10:06:50.748Z</time></trkpt><trkpt lat="42.5627552" lon="13.5305698"><ele>501.0</ele><time>2026-04-19T10:06:51.749Z</time></trkpt><trkpt lat="42.5626289" lon="13.5304376"><ele>501.0</ele><time>2026-04-19T10:06:52.748Z</time></trkpt><trkpt lat="42.5624804" lon="13.5302802"><ele>499.5</ele><time>2026-04-19T10:06:53.748Z</time></trkpt><trkpt lat="42.5623175" lon="13.5300918"><ele>498.0</ele><time>2026-04-19T10:06:54.749Z</time></trkpt><trkpt lat="42.5621292" lon="13.5298867"><ele>496.0</ele><time>2026-04-19T10:06:55.748Z</time></trkpt><trkpt lat="42.5619126" lon="13.5297025"><ele>494.0</ele><time>2026-04-19T10:06:56.749Z</time></trkpt><trkpt lat="42.5616639" lon="13.5295215"><ele>494.0</ele><time>2026-04-19T10:06:57.748Z</time></trkpt><trkpt lat="42.5614059" lon="13.5293532"><ele>494.0</ele><time>2026-04-19T10:06:58.748Z</time></trkpt><trkpt lat="42.5611551" lon="13.5292056"><ele>501.0</ele><time>2026-04-19T10:06:59.748Z</time></trkpt><trkpt lat="42.5609312" lon="13.5290731"><ele>508.0</ele><time>2026-04-19T10:07:00.748Z</time></trkpt><trkpt lat="42.5607241" lon="13.5289512"><ele>508.0</ele><time>2026-04-19T10:07:01.748Z</time></trkpt><trkpt lat="42.560537" lon="13.5288023"><ele>508.0</ele><time>2026-04-19T10:07:02.748Z</time></trkpt><trkpt lat="42.5603884" lon="13.5286116"><ele>508.0</ele><time>2026-04-19T10:07:03.748Z</time></trkpt><trkpt lat="42.5602539" lon="13.528395"><ele>507.6666666666667</ele><time>2026-04-19T10:07:04.748Z</time></trkpt><trkpt lat="42.5601227" lon="13.5281572"><ele>507.33333333333337</ele><time>2026-04-19T10:07:05.749Z</time></trkpt><trkpt lat="42.5599758" lon="13.5279391"><ele>507.0</ele><time>2026-04-19T10:07:06.748Z</time></trkpt><trkpt lat="42.5598029" lon="13.5277412"><ele>507.0</ele><time>2026-04-19T10:07:07.748Z</time></trkpt><trkpt lat="42.5595779" lon="13.5275784"><ele>507.0</ele><time>2026-04-19T10:07:08.749Z</time></trkpt><trkpt lat="42.5593679" lon="13.5274063"><ele>508.66666666666663</ele><time>2026-04-19T10:07:09.749Z</time></trkpt><trkpt lat="42.5591662" lon="13.5272525"><ele>510.3333333333333</ele><time>2026-04-19T10:07:10.748Z</time></trkpt><trkpt lat="42.5589938" lon="13.5270753"><ele>512.0</ele><time>2026-04-19T10:07:11.749Z</time></trkpt><trkpt lat="42.5588395" lon="13.526888"><ele>512.0</ele><time>2026-04-19T10:07:12.749Z</time></trkpt><trkpt lat="42.5587096" lon="13.5267039"><ele>512.0</ele><time>2026-04-19T10:07:13.749Z</time></trkpt><trkpt lat="42.5586158" lon="13.5265165"><ele>512.0</ele><time>2026-04-19T10:07:14.749Z</time></trkpt><trkpt lat="42.5585241" lon="13.5263739"><ele>511.75</ele><time>2026-04-19T10:07:15.749Z</time></trkpt><trkpt lat="42.5584045" lon="13.5262835"><ele>511.5</ele><time>2026-04-19T10:07:16.748Z</time></trkpt><trkpt lat="42.5582654" lon="13.5262194"><ele>511.25</ele><time>2026-04-19T10:07:17.749Z</time></trkpt><trkpt lat="42.558114" lon="13.5262209"><ele>511.0</ele><time>2026-04-19T10:07:18.749Z</time></trkpt><trkpt lat="42.5579763" lon="13.526246"><ele>512.75</ele><time>2026-04-19T10:07:19.748Z</time></trkpt><trkpt lat="42.5578498" lon="13.5262559"><ele>514.5</ele><time>2026-04-19T10:07:20.748Z</time></trkpt><trkpt lat="42.5577132" lon="13.5262266"><ele>516.25</ele><time>2026-04-19T10:07:21.748Z</time></trkpt><trkpt lat="42.5575715" lon="13.5261587"><ele>518.0</ele><time>2026-04-19T10:07:22.748Z</time></trkpt><trkpt lat="42.5574371" lon="13.5260367"><ele>518.0</ele><time>2026-04-19T10:07:23.748Z</time></trkpt><trkpt lat="42.5573058" lon="13.5258931"><ele>518.0</ele><time>2026-04-19T10:07:24.748Z</time></trkpt><trkpt lat="42.5571819" lon="13.5257554"><ele>518.0</ele><time>2026-04-19T10:07:25.749Z</time></trkpt><trkpt lat="42.5570546" lon="13.5256171"><ele>519.6666666666666</ele><time>2026-04-19T10:07:26.749Z</time></trkpt><trkpt lat="42.5569319" lon="13.5254778"><ele>521.3333333333334</ele><time>2026-04-19T10:07:27.749Z</time></trkpt><trkpt lat="42.5568107" lon="13.5253511"><ele>523.0</ele><time>2026-04-19T10:07:28.749Z</time></trkpt><trkpt lat="42.5566984" lon="13.5252215"><ele>523.0</ele><time>2026-04-19T10:07:29.749Z</time></trkpt><trkpt lat="42.556578" lon="13.5250935"><ele>523.0</ele><time>2026-04-19T10:07:30.749Z</time></trkpt><trkpt lat="42.5564646" lon="13.5249512"><ele>523.0</ele><time>2026-04-19T10:07:31.749Z</time></trkpt><trkpt lat="42.5563618" lon="13.5247819"><ele>523.0</ele><time>2026-04-19T10:07:32.748Z</time></trkpt><trkpt lat="42.556283" lon="13.524588"><ele>523.0</ele><time>2026-04-19T10:07:33.748Z</time></trkpt><trkpt lat="42.5562237" lon="13.5243672"><ele>523.0</ele><time>2026-04-19T10:07:34.748Z</time></trkpt><trkpt lat="42.5561956" lon="13.5241459"><ele>524.25</ele><time>2026-04-19T10:07:35.749Z</time></trkpt><trkpt lat="42.5561914" lon="13.5239461"><ele>525.5</ele><time>2026-04-19T10:07:36.748Z</time></trkpt><trkpt lat="42.5561542" lon="13.5237676"><ele>526.75</ele><time>2026-04-19T10:07:37.749Z</time></trkpt><trkpt lat="42.5560846" lon="13.5236378"><ele>528.0</ele><time>2026-04-19T10:07:38.748Z</time></trkpt><trkpt lat="42.5559652" lon="13.5235408"><ele>528.0</ele><time>2026-04-19T10:07:39.749Z</time></trkpt><trkpt lat="42.5558179" lon="13.523461"><ele>528.0</ele><time>2026-04-19T10:07:40.748Z</time></trkpt><trkpt lat="42.5556512" lon="13.5233643"><ele>528.0</ele><time>2026-04-19T10:07:41.748Z</time></trkpt><trkpt lat="42.5554937" lon="13.5232863"><ele>528.6666666666666</ele><time>2026-04-19T10:07:42.748Z</time></trkpt><trkpt lat="42.5553259" lon="13.5232504"><ele>529.3333333333333</ele><time>2026-04-19T10:07:43.748Z</time></trkpt><trkpt lat="42.5551425" lon="13.5232539"><ele>530.0</ele><time>2026-04-19T10:07:44.748Z</time></trkpt><trkpt lat="42.5549261" lon="13.5233023"><ele>530.0</ele><time>2026-04-19T10:07:45.749Z</time></trkpt><trkpt lat="42.5546996" lon="13.5233566"><ele>530.0</ele><time>2026-04-19T10:07:46.748Z</time></trkpt><trkpt lat="42.5544603" lon="13.5234096"><ele>531.0</ele><time>2026-04-19T10:07:47.749Z</time></trkpt><trkpt lat="42.5542363" lon="13.5234342"><ele>532.0</ele><time>2026-04-19T10:07:48.749Z</time></trkpt><trkpt lat="42.55402" lon="13.5234432"><ele>533.0</ele><time>2026-04-19T10:07:49.748Z</time></trkpt><trkpt lat="42.5538359" lon="13.523408"><ele>536.3333333333333</ele><time>2026-04-19T10:07:50.749Z</time></trkpt><trkpt lat="42.5536397" lon="13.5233092"><ele>539.6666666666666</ele><time>2026-04-19T10:07:51.748Z</time></trkpt><trkpt lat="42.5534584" lon="13.5231978"><ele>543.0</ele><time>2026-04-19T10:07:52.749Z</time></trkpt><trkpt lat="42.5532782" lon="13.5231136"><ele>543.0</ele><time>2026-04-19T10:07:53.748Z</time></trkpt><trkpt lat="42.5531082" lon="13.5230524"><ele>543.0</ele><time>2026-04-19T10:07:54.749Z</time></trkpt><trkpt lat="42.5529669" lon="13.5229639"><ele>543.0</ele><time>2026-04-19T10:07:55.748Z</time></trkpt><trkpt lat="42.5528706" lon="13.5228282"><ele>546.25</ele><time>2026-04-19T10:07:56.748Z</time></trkpt><trkpt lat="42.5528005" lon="13.522673"><ele>549.5</ele><time>2026-04-19T10:07:57.748Z</time></trkpt><trkpt lat="42.5527716" lon="13.5224952"><ele>552.75</ele><time>2026-04-19T10:07:58.748Z</time></trkpt><trkpt lat="42.5527826" lon="13.5222734"><ele>556.0</ele><time>2026-04-19T10:07:59.749Z</time></trkpt><trkpt lat="42.5528045" lon="13.5220323"><ele>556.0</ele><time>2026-04-19T10:08:00.748Z</time></trkpt><trkpt lat="42.5528348" lon="13.521788"><ele>556.0</ele><time>2026-04-19T10:08:01.748Z</time></trkpt><trkpt lat="42.552876" lon="13.5215757"><ele>556.0</ele><time>2026-04-19T10:08:02.748Z</time></trkpt><trkpt lat="42.5528984" lon="13.5213988"><ele>556.0</ele><time>2026-04-19T10:08:03.748Z</time></trkpt><trkpt lat="42.5528708" lon="13.521242"><ele>556.0</ele><time>2026-04-19T10:08:04.748Z</time></trkpt><trkpt lat="42.552808" lon="13.5211329"><ele>556.0</ele><time>2026-04-19T10:08:05.749Z</time></trkpt><trkpt lat="42.5527151" lon="13.5210541"><ele>556.0</ele><time>2026-04-19T10:08:06.748Z</time></trkpt><trkpt lat="42.5525784" lon="13.5210185"><ele>549.6666666666667</ele><time>2026-04-19T10:08:07.748Z</time></trkpt><trkpt lat="42.5524272" lon="13.5210202"><ele>543.3333333333334</ele><time>2026-04-19T10:08:08.748Z</time></trkpt><trkpt lat="42.5522464" lon="13.5210644"><ele>537.0</ele><time>2026-04-19T10:08:09.748Z</time></trkpt><trkpt lat="42.5520562" lon="13.5211049"><ele>535.0</ele><time>2026-04-19T10:08:10.748Z</time></trkpt><trkpt lat="42.5518788" lon="13.521141"><ele>533.0</ele><time>2026-04-19T10:08:11.748Z</time></trkpt><trkpt lat="42.5517289" lon="13.5211746"><ele>531.0</ele><time>2026-04-19T10:08:12.749Z</time></trkpt><trkpt lat="42.5515986" lon="13.5212187"><ele>538.5</ele><time>2026-04-19T10:08:13.749Z</time></trkpt><trkpt lat="42.551491" lon="13.5213176"><ele>546.0</ele><time>2026-04-19T10:08:14.748Z</time></trkpt><trkpt lat="42.5514056" lon="13.52146"><ele>553.5</ele><time>2026-04-19T10:08:15.749Z</time></trkpt><trkpt lat="42.5513295" lon="13.5216524"><ele>561.0</ele><time>2026-04-19T10:08:16.748Z</time></trkpt><trkpt lat="42.5512549" lon="13.5218701"><ele>558.0</ele><time>2026-04-19T10:08:17.749Z</time></trkpt><trkpt lat="42.5511553" lon="13.5220788"><ele>555.0</ele><time>2026-04-19T10:08:18.748Z</time></trkpt><trkpt lat="42.5510351" lon="13.522276"><ele>552.0</ele><time>2026-04-19T10:08:19.749Z</time></trkpt><trkpt lat="42.5509194" lon="13.5224436"><ele>552.0</ele><time>2026-04-19T10:08:20.748Z</time></trkpt><trkpt lat="42.5508151" lon="13.5225899"><ele>552.0</ele><time>2026-04-19T10:08:21.748Z</time></trkpt><trkpt lat="42.5507011" lon="13.5227141"><ele>552.0</ele><time>2026-04-19T10:08:22.748Z</time></trkpt><trkpt lat="42.5505735" lon="13.5228267"><ele>552.0</ele><time>2026-04-19T10:08:23.748Z</time></trkpt><trkpt lat="42.5504281" lon="13.5229646"><ele>554.0</ele><time>2026-04-19T10:08:24.748Z</time></trkpt><trkpt lat="42.5502746" lon="13.5231104"><ele>556.0</ele><time>2026-04-19T10:08:25.748Z</time></trkpt><trkpt lat="42.5501356" lon="13.5232291"><ele>558.0</ele><time>2026-04-19T10:08:26.749Z</time></trkpt><trkpt lat="42.5499948" lon="13.5233219"><ele>558.0</ele><time>2026-04-19T10:08:27.749Z</time></trkpt><trkpt lat="42.5498301" lon="13.5233789"><ele>558.0</ele><time>2026-04-19T10:08:28.748Z</time></trkpt><trkpt lat="42.5496392" lon="13.5233914"><ele>558.0</ele><time>2026-04-19T10:08:29.749Z</time></trkpt><trkpt lat="42.5494519" lon="13.5233966"><ele>557.0</ele><time>2026-04-19T10:08:30.748Z</time></trkpt><trkpt lat="42.5492809" lon="13.5234179"><ele>556.0</ele><time>2026-04-19T10:08:31.748Z</time></trkpt><trkpt lat="42.5491203" lon="13.5234731"><ele>555.0</ele><time>2026-04-19T10:08:32.748Z</time></trkpt><trkpt lat="42.5489924" lon="13.5235612"><ele>555.0</ele><time>2026-04-19T10:08:33.749Z</time></trkpt><trkpt lat="42.5488832" lon="13.5236593"><ele>555.0</ele><time>2026-04-19T10:08:34.749Z</time></trkpt><trkpt lat="42.5487642" lon="13.5237382"><ele>555.0</ele><time>2026-04-19T10:08:35.748Z</time></trkpt><trkpt lat="42.5486475" lon="13.5237356"><ele>555.0</ele><time>2026-04-19T10:08:36.748Z</time></trkpt><trkpt lat="42.5485159" lon="13.5236932"><ele>554.25</ele><time>2026-04-19T10:08:37.749Z</time></trkpt><trkpt lat="42.5483964" lon="13.5235895"><ele>553.5</ele><time>2026-04-19T10:08:38.748Z</time></trkpt><trkpt lat="42.5482606" lon="13.5235334"><ele>552.75</ele><time>2026-04-19T10:08:39.748Z</time></trkpt><trkpt lat="42.5481211" lon="13.5235173"><ele>552.0</ele><time>2026-04-19T10:08:40.749Z</time></trkpt><trkpt lat="42.547959" lon="13.5235554"><ele>556.3333333333334</ele><time>2026-04-19T10:08:41.748Z</time></trkpt><trkpt lat="42.5477931" lon="13.5236263"><ele>560.6666666666667</ele><time>2026-04-19T10:08:42.748Z</time></trkpt><trkpt lat="42.5476133" lon="13.5236782"><ele>565.0</ele><time>2026-04-19T10:08:43.749Z</time></trkpt><trkpt lat="42.5474409" lon="13.5236932"><ele>565.0</ele><time>2026-04-19T10:08:44.748Z</time></trkpt><trkpt lat="42.5472593" lon="13.523659"><ele>565.0</ele><time>2026-04-19T10:08:45.748Z</time></trkpt><trkpt lat="42.5470831" lon="13.5235648"><ele>565.0</ele><time>2026-04-19T10:08:46.749Z</time></trkpt><trkpt lat="42.5469037" lon="13.5234295"><ele>570.6666666666667</ele><time>2026-04-19T10:08:47.748Z</time></trkpt><trkpt lat="42.5467189" lon="13.5233102"><ele>576.3333333333334</ele><time>2026-04-19T10:08:48.748Z</time></trkpt><trkpt lat="42.5465434" lon="13.5232166"><ele>582.0</ele><time>2026-04-19T10:08:49.749Z</time></trkpt><trkpt lat="42.5463896" lon="13.5231442"><ele>582.0</ele><time>2026-04-19T10:08:50.749Z</time></trkpt><trkpt lat="42.5462667" lon="13.5230763"><ele>582.0</ele><time>2026-04-19T10:08:51.748Z</time></trkpt><trkpt lat="42.5461641" lon="13.5229889"><ele>582.0</ele><time>2026-04-19T10:08:52.748Z</time></trkpt><trkpt lat="42.5460808" lon="13.5228681"><ele>582.0</ele><time>2026-04-19T10:08:53.749Z</time></trkpt><trkpt lat="42.5460509" lon="13.5226898"><ele>577.3333333333334</ele><time>2026-04-19T10:08:54.749Z</time></trkpt><trkpt lat="42.5460657" lon="13.52249"><ele>572.6666666666667</ele><time>2026-04-19T10:08:55.748Z</time></trkpt><trkpt lat="42.5461286" lon="13.5222838"><ele>568.0</ele><time>2026-04-19T10:08:56.749Z</time></trkpt><trkpt lat="42.5462136" lon="13.5220428"><ele>568.0</ele><time>2026-04-19T10:08:57.748Z</time></trkpt><trkpt lat="42.5463114" lon="13.5217702"><ele>568.0</ele><time>2026-04-19T10:08:58.748Z</time></trkpt><trkpt lat="42.5464118" lon="13.5214886"><ele>572.3333333333334</ele><time>2026-04-19T10:08:59.748Z</time></trkpt><trkpt lat="42.5465076" lon="13.5212198"><ele>576.6666666666666</ele><time>2026-04-19T10:09:00.748Z</time></trkpt><trkpt lat="42.546591" lon="13.5209715"><ele>581.0</ele><time>2026-04-19T10:09:01.748Z</time></trkpt><trkpt lat="42.5466521" lon="13.5207496"><ele>581.0</ele><time>2026-04-19T10:09:02.748Z</time></trkpt><trkpt lat="42.5466866" lon="13.5205469"><ele>581.0</ele><time>2026-04-19T10:09:03.748Z</time></trkpt><trkpt lat="42.5466909" lon="13.520358"><ele>581.0</ele><time>2026-04-19T10:09:04.748Z</time></trkpt><trkpt lat="42.5466516" lon="13.5201868"><ele>581.0</ele><time>2026-04-19T10:09:05.749Z</time></trkpt><trkpt lat="42.5465867" lon="13.520049"><ele>581.25</ele><time>2026-04-19T10:09:06.748Z</time></trkpt><trkpt lat="42.546507" lon="13.519925"><ele>581.5</ele><time>2026-04-19T10:09:07.749Z</time></trkpt><trkpt lat="42.5464806" lon="13.5197557"><ele>581.75</ele><time>2026-04-19T10:09:08.749Z</time></trkpt><trkpt lat="42.5464939" lon="13.5195657"><ele>582.0</ele><time>2026-04-19T10:09:09.748Z</time></trkpt><trkpt lat="42.5465473" lon="13.519349"><ele>582.6666666666666</ele><time>2026-04-19T10:09:10.749Z</time></trkpt><trkpt lat="42.5466035" lon="13.5190813"><ele>583.3333333333333</ele><time>2026-04-19T10:09:11.748Z</time></trkpt><trkpt lat="42.5466516" lon="13.5188066"><ele>584.0</ele><time>2026-04-19T10:09:12.749Z</time></trkpt><trkpt lat="42.5467137" lon="13.5185672"><ele>588.6666666666666</ele><time>2026-04-19T10:09:13.748Z</time></trkpt><trkpt lat="42.5467941" lon="13.5183597"><ele>593.3333333333334</ele><time>2026-04-19T10:09:14.748Z</time></trkpt><trkpt lat="42.5468763" lon="13.5181691"><ele>598.0</ele><time>2026-04-19T10:09:15.749Z</time></trkpt><trkpt lat="42.5469438" lon="13.5179712"><ele>598.0</ele><time>2026-04-19T10:09:16.748Z</time></trkpt><trkpt lat="42.5469778" lon="13.5177718"><ele>598.0</ele><time>2026-04-19T10:09:17.748Z</time></trkpt><trkpt lat="42.5469812" lon="13.517596"><ele>598.0</ele><time>2026-04-19T10:09:18.748Z</time></trkpt><trkpt lat="42.5469419" lon="13.5174464"><ele>598.0</ele><time>2026-04-19T10:09:19.748Z</time></trkpt><trkpt lat="42.546874" lon="13.5173253"><ele>598.0</ele><time>2026-04-19T10:09:20.748Z</time></trkpt><trkpt lat="42.5467806" lon="13.5172424"><ele>598.0</ele><time>2026-04-19T10:09:21.749Z</time></trkpt><trkpt lat="42.5466268" lon="13.5171735"><ele>598.0</ele><time>2026-04-19T10:09:22.748Z</time></trkpt><trkpt lat="42.5464546" lon="13.5171045"><ele>595.3333333333334</ele><time>2026-04-19T10:09:23.748Z</time></trkpt><trkpt lat="42.5462792" lon="13.5170036"><ele>592.6666666666666</ele><time>2026-04-19T10:09:24.748Z</time></trkpt><trkpt lat="42.5460931" lon="13.5169089"><ele>590.0</ele><time>2026-04-19T10:09:25.749Z</time></trkpt><trkpt lat="42.5459037" lon="13.5168452"><ele>590.0</ele><time>2026-04-19T10:09:26.749Z</time></trkpt><trkpt lat="42.5457328" lon="13.516803"><ele>590.0</ele><time>2026-04-19T10:09:27.748Z</time></trkpt><trkpt lat="42.5455923" lon="13.5167315"><ele>590.0</ele><time>2026-04-19T10:09:28.748Z</time></trkpt><trkpt lat="42.5454809" lon="13.516615"><ele>590.0</ele><time>2026-04-19T10:09:29.748Z</time></trkpt><trkpt lat="42.545389" lon="13.5164536"><ele>590.0</ele><time>2026-04-19T10:09:30.748Z</time></trkpt><trkpt lat="42.5453142" lon="13.5162718"><ele>590.0</ele><time>2026-04-19T10:09:31.748Z</time></trkpt><trkpt lat="42.5452297" lon="13.5161018"><ele>597.5</ele><time>2026-04-19T10:09:32.748Z</time></trkpt><trkpt lat="42.5451335" lon="13.5159499"><ele>605.0</ele><time>2026-04-19T10:09:33.748Z</time></trkpt><trkpt lat="42.5450664" lon="13.515816"><ele>612.5</ele><time>2026-04-19T10:09:34.748Z</time></trkpt><trkpt lat="42.5450262" lon="13.5156686"><ele>620.0</ele><time>2026-04-19T10:09:35.749Z</time></trkpt><trkpt lat="42.5450401" lon="13.5154891"><ele>619.6666666666666</ele><time>2026-04-19T10:09:36.748Z</time></trkpt><trkpt lat="42.5450682" lon="13.5153069"><ele>619.3333333333334</ele><time>2026-04-19T10:09:37.748Z</time></trkpt><trkpt lat="42.5451153" lon="13.5151103"><ele>619.0</ele><time>2026-04-19T10:09:38.748Z</time></trkpt><trkpt lat="42.5451645" lon="13.5148967"><ele>619.0</ele><time>2026-04-19T10:09:39.749Z</time></trkpt><trkpt lat="42.545217" lon="13.5146633"><ele>619.0</ele><time>2026-04-19T10:09:40.749Z</time></trkpt><trkpt lat="42.5452681" lon="13.514417"><ele>619.0</ele><time>2026-04-19T10:09:41.749Z</time></trkpt><trkpt lat="42.5453187" lon="13.5141649"><ele>621.3333333333334</ele><time>2026-04-19T10:09:42.748Z</time></trkpt><trkpt lat="42.5453431" lon="13.5139178"><ele>623.6666666666666</ele><time>2026-04-19T10:09:43.749Z</time></trkpt><trkpt lat="42.5453522" lon="13.5136754"><ele>626.0</ele><time>2026-04-19T10:09:44.748Z</time></trkpt><trkpt lat="42.5453021" lon="13.5134123"><ele>626.6666666666666</ele><time>2026-04-19T10:09:45.748Z</time></trkpt><trkpt lat="42.5452193" lon="13.5131599"><ele>627.3333333333334</ele><time>2026-04-19T10:09:46.749Z</time></trkpt><trkpt lat="42.5451397" lon="13.5129482"><ele>628.0</ele><time>2026-04-19T10:09:47.749Z</time></trkpt><trkpt lat="42.5450733" lon="13.5127768"><ele>628.75</ele><time>2026-04-19T10:09:48.748Z</time></trkpt><trkpt lat="42.5450305" lon="13.5126177"><ele>629.5</ele><time>2026-04-19T10:09:49.749Z</time></trkpt><trkpt lat="42.545023" lon="13.5124565"><ele>630.25</ele><time>2026-04-19T10:09:50.748Z</time></trkpt><trkpt lat="42.5450821" lon="13.51227"><ele>631.0</ele><time>2026-04-19T10:09:51.748Z</time></trkpt><trkpt lat="42.5451648" lon="13.5120634"><ele>631.0</ele><time>2026-04-19T10:09:52.749Z</time></trkpt><trkpt lat="42.5452546" lon="13.5118245"><ele>631.0</ele><time>2026-04-19T10:09:53.748Z</time></trkpt><trkpt lat="42.5453442" lon="13.5115702"><ele>631.0</ele><time>2026-04-19T10:09:54.749Z</time></trkpt><trkpt lat="42.5454358" lon="13.511337"><ele>627.0</ele><time>2026-04-19T10:09:55.749Z</time></trkpt><trkpt lat="42.5455218" lon="13.5111398"><ele>623.0</ele><time>2026-04-19T10:09:56.749Z</time></trkpt><trkpt lat="42.5456188" lon="13.5109672"><ele>619.0</ele><time>2026-04-19T10:09:57.748Z</time></trkpt><trkpt lat="42.5457272" lon="13.5108268"><ele>619.0</ele><time>2026-04-19T10:09:58.748Z</time></trkpt><trkpt lat="42.5458649" lon="13.5106992"><ele>619.0</ele><time>2026-04-19T10:09:59.749Z</time></trkpt><trkpt lat="42.5460386" lon="13.5105744"><ele>619.0</ele><time>2026-04-19T10:10:00.748Z</time></trkpt><trkpt lat="42.5462121" lon="13.5104565"><ele>618.6666666666667</ele><time>2026-04-19T10:10:01.748Z</time></trkpt><trkpt lat="42.5463663" lon="13.5103451"><ele>618.3333333333334</ele><time>2026-04-19T10:10:02.749Z</time></trkpt><trkpt lat="42.5465066" lon="13.5102394"><ele>618.0</ele><time>2026-04-19T10:10:03.748Z</time></trkpt><trkpt lat="42.5466311" lon="13.5101172"><ele>618.0</ele><time>2026-04-19T10:10:04.748Z</time></trkpt><trkpt lat="42.5467429" lon="13.50994"><ele>618.0</ele><time>2026-04-19T10:10:05.749Z</time></trkpt><trkpt lat="42.5468343" lon="13.5097116"><ele>618.0</ele><time>2026-04-19T10:10:06.748Z</time></trkpt><trkpt lat="42.546902" lon="13.5094455"><ele>626.0</ele><time>2026-04-19T10:10:07.749Z</time></trkpt><trkpt lat="42.5469463" lon="13.509156"><ele>634.0</ele><time>2026-04-19T10:10:08.748Z</time></trkpt><trkpt lat="42.546958" lon="13.5088215"><ele>637.0</ele><time>2026-04-19T10:10:09.749Z</time></trkpt><trkpt lat="42.5469518" lon="13.5084539"><ele>640.0</ele><time>2026-04-19T10:10:10.748Z</time></trkpt><trkpt lat="42.5469424" lon="13.5080541"><ele>643.0</ele><time>2026-04-19T10:10:11.749Z</time></trkpt><trkpt lat="42.546932" lon="13.5076382"><ele>646.0</ele><time>2026-04-19T10:10:12.749Z</time></trkpt><trkpt lat="42.546922" lon="13.5072073"><ele>640.5</ele><time>2026-04-19T10:10:13.749Z</time></trkpt><trkpt lat="42.5468906" lon="13.5067702"><ele>635.0</ele><time>2026-04-19T10:10:14.749Z</time></trkpt><trkpt lat="42.5468556" lon="13.5063537"><ele>633.0</ele><time>2026-04-19T10:10:15.748Z</time></trkpt><trkpt lat="42.5468227" lon="13.5059534"><ele>631.0</ele><time>2026-04-19T10:10:16.749Z</time></trkpt><trkpt lat="42.5467899" lon="13.5055684"><ele>633.0</ele><time>2026-04-19T10:10:17.748Z</time></trkpt><trkpt lat="42.5467478" lon="13.5051983"><ele>635.0</ele><time>2026-04-19T10:10:18.748Z</time></trkpt><trkpt lat="42.5466889" lon="13.5048439"><ele>631.5</ele><time>2026-04-19T10:10:19.748Z</time></trkpt><trkpt lat="42.5466226" lon="13.5045221"><ele>628.0</ele><time>2026-04-19T10:10:20.749Z</time></trkpt><trkpt lat="42.5465532" lon="13.5042083"><ele>628.0</ele><time>2026-04-19T10:10:21.748Z</time></trkpt><trkpt lat="42.5464921" lon="13.503931"><ele>628.0</ele><time>2026-04-19T10:10:22.748Z</time></trkpt><trkpt lat="42.5464272" lon="13.5036745"><ele>628.0</ele><time>2026-04-19T10:10:23.748Z</time></trkpt><trkpt lat="42.5463615" lon="13.5034319"><ele>624.6666666666667</ele><time>2026-04-19T10:10:24.749Z</time></trkpt><trkpt lat="42.546285" lon="13.5032041"><ele>621.3333333333334</ele><time>2026-04-19T10:10:25.749Z</time></trkpt><trkpt lat="42.5461976" lon="13.5029856"><ele>618.0</ele><time>2026-04-19T10:10:26.748Z</time></trkpt><trkpt lat="42.5460894" lon="13.5027781"><ele>625.6666666666666</ele><time>2026-04-19T10:10:27.749Z</time></trkpt><trkpt lat="42.5459721" lon="13.5025819"><ele>633.3333333333333</ele><time>2026-04-19T10:10:28.748Z</time></trkpt><trkpt lat="42.5458387" lon="13.5023754"><ele>641.0</ele><time>2026-04-19T10:10:29.749Z</time></trkpt><trkpt lat="42.5456966" lon="13.5021845"><ele>645.3333333333333</ele><time>2026-04-19T10:10:30.749Z</time></trkpt><trkpt lat="42.545549" lon="13.5020044"><ele>649.6666666666666</ele><time>2026-04-19T10:10:31.748Z</time></trkpt><trkpt lat="42.5453974" lon="13.5018128"><ele>654.0</ele><time>2026-04-19T10:10:32.749Z</time></trkpt><trkpt lat="42.5452657" lon="13.5015897"><ele>654.0</ele><time>2026-04-19T10:10:33.748Z</time></trkpt><trkpt lat="42.5451384" lon="13.5013357"><ele>654.0</ele><time>2026-04-19T10:10:34.748Z</time></trkpt><trkpt lat="42.5450198" lon="13.5011011"><ele>654.0</ele><time>2026-04-19T10:10:35.749Z</time></trkpt><trkpt lat="42.54491" lon="13.5008823"><ele>649.0</ele><time>2026-04-19T10:10:36.749Z</time></trkpt><trkpt lat="42.5448035" lon="13.5007012"><ele>644.0</ele><time>2026-04-19T10:10:37.749Z</time></trkpt><trkpt lat="42.5447019" lon="13.5005272"><ele>639.0</ele><time>2026-04-19T10:10:38.748Z</time></trkpt><trkpt lat="42.5446109" lon="13.5003353"><ele>646.0</ele><time>2026-04-19T10:10:39.748Z</time></trkpt><trkpt lat="42.5445397" lon="13.5001087"><ele>653.0</ele><time>2026-04-19T10:10:40.748Z</time></trkpt><trkpt lat="42.5444871" lon="13.4998354"><ele>660.0</ele><time>2026-04-19T10:10:41.749Z</time></trkpt><trkpt lat="42.5444382" lon="13.4995521"><ele>660.0</ele><time>2026-04-19T10:10:42.748Z</time></trkpt><trkpt lat="42.54439" lon="13.4992758"><ele>660.0</ele><time>2026-04-19T10:10:43.748Z</time></trkpt><trkpt lat="42.5443443" lon="13.4990114"><ele>660.0</ele><time>2026-04-19T10:10:44.748Z</time></trkpt><trkpt lat="42.5443242" lon="13.4987538"><ele>660.6666666666666</ele><time>2026-04-19T10:10:45.748Z</time></trkpt><trkpt lat="42.5443405" lon="13.4984988"><ele>661.3333333333333</ele><time>2026-04-19T10:10:46.748Z</time></trkpt><trkpt lat="42.5443804" lon="13.4982565"><ele>662.0</ele><time>2026-04-19T10:10:47.748Z</time></trkpt><trkpt lat="42.5444504" lon="13.4980445"><ele>659.6666666666666</ele><time>2026-04-19T10:10:48.748Z</time></trkpt><trkpt lat="42.5445343" lon="13.4978575"><ele>657.3333333333334</ele><time>2026-04-19T10:10:49.749Z</time></trkpt><trkpt lat="42.5446354" lon="13.4976869"><ele>655.0</ele><time>2026-04-19T10:10:50.749Z</time></trkpt><trkpt lat="42.5447617" lon="13.4975293"><ele>655.0</ele><time>2026-04-19T10:10:51.749Z</time></trkpt><trkpt lat="42.5448984" lon="13.4974063"><ele>655.0</ele><time>2026-04-19T10:10:52.749Z</time></trkpt><trkpt lat="42.5450532" lon="13.4973239"><ele>655.0</ele><time>2026-04-19T10:10:53.749Z</time></trkpt><trkpt lat="42.5452319" lon="13.497268"><ele>659.0</ele><time>2026-04-19T10:10:54.748Z</time></trkpt><trkpt lat="42.5454199" lon="13.4972094"><ele>663.0</ele><time>2026-04-19T10:10:55.748Z</time></trkpt><trkpt lat="42.5456015" lon="13.4971083"><ele>667.0</ele><time>2026-04-19T10:10:56.749Z</time></trkpt><trkpt lat="42.5457726" lon="13.4970086"><ele>667.0</ele><time>2026-04-19T10:10:57.749Z</time></trkpt><trkpt lat="42.5459254" lon="13.4969184"><ele>667.0</ele><time>2026-04-19T10:10:58.749Z</time></trkpt><trkpt lat="42.5460533" lon="13.496795"><ele>667.0</ele><time>2026-04-19T10:10:59.749Z</time></trkpt><trkpt lat="42.5461678" lon="13.4966383"><ele>661.0</ele><time>2026-04-19T10:11:00.749Z</time></trkpt><trkpt lat="42.5462574" lon="13.4964668"><ele>655.0</ele><time>2026-04-19T10:11:01.748Z</time></trkpt><trkpt lat="42.5463144" lon="13.4962698"><ele>649.0</ele><time>2026-04-19T10:11:02.748Z</time></trkpt><trkpt lat="42.5463511" lon="13.4960617"><ele>649.0</ele><time>2026-04-19T10:11:03.748Z</time></trkpt><trkpt lat="42.5463563" lon="13.4958272"><ele>649.0</ele><time>2026-04-19T10:11:04.749Z</time></trkpt><trkpt lat="42.5463708" lon="13.4955531"><ele>649.0</ele><time>2026-04-19T10:11:05.748Z</time></trkpt><trkpt lat="42.5464166" lon="13.4952674"><ele>652.3333333333334</ele><time>2026-04-19T10:11:06.749Z</time></trkpt><trkpt lat="42.5464601" lon="13.4950087"><ele>655.6666666666666</ele><time>2026-04-19T10:11:07.748Z</time></trkpt><trkpt lat="42.54651" lon="13.4947924"><ele>659.0</ele><time>2026-04-19T10:11:08.749Z</time></trkpt><trkpt lat="42.5465878" lon="13.4946316"><ele>665.6666666666666</ele><time>2026-04-19T10:11:09.748Z</time></trkpt><trkpt lat="42.5467108" lon="13.49449"><ele>672.3333333333334</ele><time>2026-04-19T10:11:10.749Z</time></trkpt><trkpt lat="42.5468394" lon="13.4943749"><ele>679.0</ele><time>2026-04-19T10:11:11.748Z</time></trkpt><trkpt lat="42.5469927" lon="13.4942593"><ele>673.6666666666667</ele><time>2026-04-19T10:11:12.749Z</time></trkpt><trkpt lat="42.5471749" lon="13.4941317"><ele>668.3333333333334</ele><time>2026-04-19T10:11:13.748Z</time></trkpt><trkpt lat="42.5473727" lon="13.4939704"><ele>663.0</ele><time>2026-04-19T10:11:14.748Z</time></trkpt><trkpt lat="42.5475513" lon="13.4937638"><ele>664.0</ele><time>2026-04-19T10:11:15.748Z</time></trkpt><trkpt lat="42.5477328" lon="13.4935129"><ele>665.0</ele><time>2026-04-19T10:11:16.748Z</time></trkpt><trkpt lat="42.5479337" lon="13.4932622"><ele>665.0</ele><time>2026-04-19T10:11:17.748Z</time></trkpt><trkpt lat="42.5481479" lon="13.4930115"><ele>665.0</ele><time>2026-04-19T10:11:18.749Z</time></trkpt><trkpt lat="42.5483339" lon="13.4927619"><ele>679.0</ele><time>2026-04-19T10:11:19.749Z</time></trkpt><trkpt lat="42.5484988" lon="13.4925257"><ele>693.0</ele><time>2026-04-19T10:11:20.748Z</time></trkpt><trkpt lat="42.5486609" lon="13.4923401"><ele>689.3333333333334</ele><time>2026-04-19T10:11:21.748Z</time></trkpt><trkpt lat="42.5488021" lon="13.4921931"><ele>685.6666666666667</ele><time>2026-04-19T10:11:22.749Z</time></trkpt><trkpt lat="42.5489428" lon="13.4920447"><ele>682.0</ele><time>2026-04-19T10:11:23.748Z</time></trkpt><trkpt lat="42.5490615" lon="13.4918745"><ele>682.0</ele><time>2026-04-19T10:11:24.749Z</time></trkpt><trkpt lat="42.5491605" lon="13.4916523"><ele>682.0</ele><time>2026-04-19T10:11:25.748Z</time></trkpt><trkpt lat="42.5492362" lon="13.4914332"><ele>682.0</ele><time>2026-04-19T10:11:26.748Z</time></trkpt><trkpt lat="42.5492846" lon="13.4912069"><ele>687.0</ele><time>2026-04-19T10:11:27.749Z</time></trkpt><trkpt lat="42.5492995" lon="13.4909645"><ele>692.0</ele><time>2026-04-19T10:11:28.749Z</time></trkpt><trkpt lat="42.549306" lon="13.4907506"><ele>697.0</ele><time>2026-04-19T10:11:29.748Z</time></trkpt><trkpt lat="42.5493137" lon="13.4905551"><ele>700.25</ele><time>2026-04-19T10:11:30.749Z</time></trkpt><trkpt lat="42.5493374" lon="13.4903832"><ele>703.5</ele><time>2026-04-19T10:11:31.748Z</time></trkpt><trkpt lat="42.5493441" lon="13.4902369"><ele>706.75</ele><time>2026-04-19T10:11:32.748Z</time></trkpt><trkpt lat="42.5493653" lon="13.4900832"><ele>710.0</ele><time>2026-04-19T10:11:33.748Z</time></trkpt><trkpt lat="42.5494025" lon="13.4899343"><ele>710.0</ele><time>2026-04-19T10:11:34.748Z</time></trkpt><trkpt lat="42.5494557" lon="13.4897898"><ele>710.0</ele><time>2026-04-19T10:11:35.749Z</time></trkpt><trkpt lat="42.5495169" lon="13.4896373"><ele>710.0</ele><time>2026-04-19T10:11:36.748Z</time></trkpt><trkpt lat="42.5495756" lon="13.4894683"><ele>710.0</ele><time>2026-04-19T10:11:37.748Z</time></trkpt><trkpt lat="42.5496434" lon="13.4892896"><ele>702.6666666666666</ele><time>2026-04-19T10:11:38.748Z</time></trkpt><trkpt lat="42.5497174" lon="13.4890938"><ele>695.3333333333334</ele><time>2026-04-19T10:11:39.748Z</time></trkpt><trkpt lat="42.5497986" lon="13.4888891"><ele>688.0</ele><time>2026-04-19T10:11:40.749Z</time></trkpt><trkpt lat="42.5498605" lon="13.488685"><ele>688.0</ele><time>2026-04-19T10:11:41.748Z</time></trkpt><trkpt lat="42.5499" lon="13.4885022"><ele>688.0</ele><time>2026-04-19T10:11:42.749Z</time></trkpt><trkpt lat="42.5499086" lon="13.4883085"><ele>688.0</ele><time>2026-04-19T10:11:43.748Z</time></trkpt><trkpt lat="42.5498893" lon="13.4880945"><ele>688.0</ele><time>2026-04-19T10:11:44.749Z</time></trkpt><trkpt lat="42.5498352" lon="13.4878531"><ele>686.6666666666667</ele><time>2026-04-19T10:11:45.748Z</time></trkpt><trkpt lat="42.5497618" lon="13.4876146"><ele>685.3333333333334</ele><time>2026-04-19T10:11:46.748Z</time></trkpt><trkpt lat="42.5496852" lon="13.4873937"><ele>684.0</ele><time>2026-04-19T10:11:47.749Z</time></trkpt><trkpt lat="42.5495912" lon="13.4871968"><ele>696.0</ele><time>2026-04-19T10:11:48.749Z</time></trkpt><trkpt lat="42.5494903" lon="13.4870287"><ele>708.0</ele><time>2026-04-19T10:11:49.749Z</time></trkpt><trkpt lat="42.5494002" lon="13.4868592"><ele>720.0</ele><time>2026-04-19T10:11:50.749Z</time></trkpt><trkpt lat="42.5493238" lon="13.4866768"><ele>720.0</ele><time>2026-04-19T10:11:51.748Z</time></trkpt><trkpt lat="42.549266" lon="13.4864745"><ele>720.0</ele><time>2026-04-19T10:11:52.748Z</time></trkpt><trkpt lat="42.5492096" lon="13.4862736"><ele>720.0</ele><time>2026-04-19T10:11:53.749Z</time></trkpt><trkpt lat="42.5491726" lon="13.4860762"><ele>713.6666666666666</ele><time>2026-04-19T10:11:54.748Z</time></trkpt><trkpt lat="42.5491585" lon="13.485891"><ele>707.3333333333333</ele><time>2026-04-19T10:11:55.748Z</time></trkpt><trkpt lat="42.5491436" lon="13.4856898"><ele>701.0</ele><time>2026-04-19T10:11:56.749Z</time></trkpt><trkpt lat="42.5490882" lon="13.485479"><ele>694.3333333333333</ele><time>2026-04-19T10:11:57.748Z</time></trkpt><trkpt lat="42.5490067" lon="13.4852595"><ele>687.6666666666666</ele><time>2026-04-19T10:11:58.748Z</time></trkpt><trkpt lat="42.5489226" lon="13.4850369"><ele>681.0</ele><time>2026-04-19T10:11:59.749Z</time></trkpt><trkpt lat="42.5488425" lon="13.4848439"><ele>681.0</ele><time>2026-04-19T10:12:00.748Z</time></trkpt><trkpt lat="42.5487646" lon="13.4846731"><ele>681.0</ele><time>2026-04-19T10:12:01.748Z</time></trkpt><trkpt lat="42.5486685" lon="13.4845376"><ele>681.0</ele><time>2026-04-19T10:12:02.748Z</time></trkpt><trkpt lat="42.5485487" lon="13.4844209"><ele>681.0</ele><time>2026-04-19T10:12:03.748Z</time></trkpt><trkpt lat="42.5484245" lon="13.4843067"><ele>685.5</ele><time>2026-04-19T10:12:04.748Z</time></trkpt><trkpt lat="42.5483051" lon="13.4841893"><ele>690.0</ele><time>2026-04-19T10:12:05.748Z</time></trkpt><trkpt lat="42.5481883" lon="13.4840882"><ele>694.5</ele><time>2026-04-19T10:12:06.748Z</time></trkpt><trkpt lat="42.5480813" lon="13.4839962"><ele>699.0</ele><time>2026-04-19T10:12:07.749Z</time></trkpt><trkpt lat="42.54799" lon="13.4839005"><ele>699.0</ele><time>2026-04-19T10:12:08.748Z</time></trkpt><trkpt lat="42.5479181" lon="13.4838096"><ele>699.0</ele><time>2026-04-19T10:12:09.749Z</time></trkpt><trkpt lat="42.5478768" lon="13.4837107"><ele>699.0</ele><time>2026-04-19T10:12:10.748Z</time></trkpt><trkpt lat="42.5478706" lon="13.4836158"><ele>699.0</ele><time>2026-04-19T10:12:11.748Z</time></trkpt><trkpt lat="42.5478991" lon="13.4835226"><ele>699.0</ele><time>2026-04-19T10:12:12.748Z</time></trkpt><trkpt lat="42.5479552" lon="13.4834433"><ele>699.0</ele><time>2026-04-19T10:12:13.748Z</time></trkpt><trkpt lat="42.5480052" lon="13.4833617"><ele>699.6</ele><time>2026-04-19T10:12:14.749Z</time></trkpt><trkpt lat="42.5480628" lon="13.4832836"><ele>700.2</ele><time>2026-04-19T10:12:15.748Z</time></trkpt><trkpt lat="42.5481319" lon="13.4832329"><ele>700.8000000000001</ele><time>2026-04-19T10:12:16.748Z</time></trkpt><trkpt lat="42.5482155" lon="13.4832351"><ele>701.4000000000001</ele><time>2026-04-19T10:12:17.749Z</time></trkpt><trkpt lat="42.5483102" lon="13.4832563"><ele>702.0</ele><time>2026-04-19T10:12:18.749Z</time></trkpt><trkpt lat="42.5484202" lon="13.4832861"><ele>702.0</ele><time>2026-04-19T10:12:19.748Z</time></trkpt><trkpt lat="42.548545" lon="13.4833356"><ele>702.0</ele><time>2026-04-19T10:12:20.748Z</time></trkpt><trkpt lat="42.5486728" lon="13.4833986"><ele>702.0</ele><time>2026-04-19T10:12:21.748Z</time></trkpt><trkpt lat="42.5488066" lon="13.4834738"><ele>702.0</ele><time>2026-04-19T10:12:22.748Z</time></trkpt><trkpt lat="42.5489441" lon="13.4835558"><ele>710.3333333333334</ele><time>2026-04-19T10:12:23.749Z</time></trkpt><trkpt lat="42.5490901" lon="13.4836443"><ele>718.6666666666667</ele><time>2026-04-19T10:12:24.748Z</time></trkpt><trkpt lat="42.5492446" lon="13.4836971"><ele>727.0</ele><time>2026-04-19T10:12:25.748Z</time></trkpt><trkpt lat="42.5493996" lon="13.4837274"><ele>724.0</ele><time>2026-04-19T10:12:26.748Z</time></trkpt><trkpt lat="42.5495469" lon="13.4837251"><ele>721.0</ele><time>2026-04-19T10:12:27.749Z</time></trkpt><trkpt lat="42.5496812" lon="13.48372"><ele>718.0</ele><time>2026-04-19T10:12:28.748Z</time></trkpt><trkpt lat="42.5497945" lon="13.483692"><ele>715.0</ele><time>2026-04-19T10:12:29.748Z</time></trkpt><trkpt lat="42.5499034" lon="13.4836303"><ele>715.0</ele><time>2026-04-19T10:12:30.748Z</time></trkpt><trkpt lat="42.5500037" lon="13.483521"><ele>715.0</ele><time>2026-04-19T10:12:31.748Z</time></trkpt><trkpt lat="42.5501043" lon="13.4833861"><ele>715.0</ele><time>2026-04-19T10:12:32.749Z</time></trkpt><trkpt lat="42.5502085" lon="13.4832417"><ele>715.0</ele><time>2026-04-19T10:12:33.748Z</time></trkpt><trkpt lat="42.5503174" lon="13.4830973"><ele>710.6666666666667</ele><time>2026-04-19T10:12:34.749Z</time></trkpt><trkpt lat="42.5504276" lon="13.482937"><ele>706.3333333333334</ele><time>2026-04-19T10:12:35.748Z</time></trkpt><trkpt lat="42.5505288" lon="13.4827892"><ele>702.0</ele><time>2026-04-19T10:12:36.755Z</time></trkpt><trkpt lat="42.5506241" lon="13.4826352"><ele>702.0</ele><time>2026-04-19T10:12:37.754Z</time></trkpt><trkpt lat="42.5507258" lon="13.4824876"><ele>702.0</ele><time>2026-04-19T10:12:38.754Z</time></trkpt><trkpt lat="42.5508198" lon="13.4823381"><ele>702.0</ele><time>2026-04-19T10:12:39.755Z</time></trkpt><trkpt lat="42.5509117" lon="13.4821947"><ele>702.0</ele><time>2026-04-19T10:12:40.754Z</time></trkpt><trkpt lat="42.5510094" lon="13.4820685"><ele>702.25</ele><time>2026-04-19T10:12:41.755Z</time></trkpt><trkpt lat="42.5511187" lon="13.4819613"><ele>702.5</ele><time>2026-04-19T10:12:42.755Z</time></trkpt><trkpt lat="42.551247" lon="13.4818674"><ele>702.75</ele><time>2026-04-19T10:12:43.755Z</time></trkpt><trkpt lat="42.5513764" lon="13.4817857"><ele>703.0</ele><time>2026-04-19T10:12:44.754Z</time></trkpt><trkpt lat="42.5514956" lon="13.4816982"><ele>703.0</ele><time>2026-04-19T10:12:45.755Z</time></trkpt><trkpt lat="42.5516108" lon="13.4816111"><ele>703.0</ele><time>2026-04-19T10:12:46.754Z</time></trkpt><trkpt lat="42.5517167" lon="13.4815274"><ele>703.0</ele><time>2026-04-19T10:12:47.754Z</time></trkpt><trkpt lat="42.5518207" lon="13.4814392"><ele>703.0</ele><time>2026-04-19T10:12:48.754Z</time></trkpt><trkpt lat="42.5519026" lon="13.4813417"><ele>708.2</ele><time>2026-04-19T10:12:49.754Z</time></trkpt><trkpt lat="42.55196" lon="13.4812323"><ele>713.4</ele><time>2026-04-19T10:12:50.754Z</time></trkpt><trkpt lat="42.5519676" lon="13.4811287"><ele>718.6</ele><time>2026-04-19T10:12:51.754Z</time></trkpt><trkpt lat="42.5519485" lon="13.4809911"><ele>723.8000000000001</ele><time>2026-04-19T10:12:52.754Z</time></trkpt><trkpt lat="42.5519194" lon="13.4808569"><ele>729.0</ele><time>2026-04-19T10:12:53.755Z</time></trkpt><trkpt lat="42.551894" lon="13.480715"><ele>729.0</ele><time>2026-04-19T10:12:54.755Z</time></trkpt><trkpt lat="42.551871" lon="13.4805593"><ele>729.0</ele><time>2026-04-19T10:12:55.755Z</time></trkpt><trkpt lat="42.5518573" lon="13.4803926"><ele>729.0</ele><time>2026-04-19T10:12:56.755Z</time></trkpt><trkpt lat="42.5518544" lon="13.4802316"><ele>729.0</ele><time>2026-04-19T10:12:57.754Z</time></trkpt><trkpt lat="42.5518662" lon="13.4800581"><ele>732.0</ele><time>2026-04-19T10:12:58.754Z</time></trkpt><trkpt lat="42.5518904" lon="13.4798877"><ele>735.0</ele><time>2026-04-19T10:12:59.754Z</time></trkpt><trkpt lat="42.5519322" lon="13.4797249"><ele>738.0</ele><time>2026-04-19T10:13:00.754Z</time></trkpt><trkpt lat="42.5519906" lon="13.4795684"><ele>741.0</ele><time>2026-04-19T10:13:01.753Z</time></trkpt><trkpt lat="42.5520525" lon="13.4794141"><ele>733.5</ele><time>2026-04-19T10:13:02.754Z</time></trkpt><trkpt lat="42.5521086" lon="13.4792684"><ele>726.0</ele><time>2026-04-19T10:13:03.754Z</time></trkpt><trkpt lat="42.5521676" lon="13.4791336"><ele>718.5</ele><time>2026-04-19T10:13:04.753Z</time></trkpt><trkpt lat="42.5522448" lon="13.4790132"><ele>711.0</ele><time>2026-04-19T10:13:05.753Z</time></trkpt><trkpt lat="42.5523273" lon="13.4789104"><ele>711.0</ele><time>2026-04-19T10:13:06.754Z</time></trkpt><trkpt lat="42.5524246" lon="13.4788253"><ele>711.0</ele><time>2026-04-19T10:13:07.753Z</time></trkpt><trkpt lat="42.552519" lon="13.4787515"><ele>711.0</ele><time>2026-04-19T10:13:08.753Z</time></trkpt><trkpt lat="42.5526041" lon="13.4786688"><ele>711.0</ele><time>2026-04-19T10:13:09.753Z</time></trkpt><trkpt lat="42.5526838" lon="13.4785713"><ele>711.0</ele><time>2026-04-19T10:13:10.754Z</time></trkpt><trkpt lat="42.5527537" lon="13.4784616"><ele>714.8</ele><time>2026-04-19T10:13:11.754Z</time></trkpt><trkpt lat="42.5527934" lon="13.478325"><ele>718.5999999999999</ele><time>2026-04-19T10:13:12.754Z</time></trkpt><trkpt lat="42.5528114" lon="13.4781859"><ele>722.4</ele><time>2026-04-19T10:13:13.753Z</time></trkpt><trkpt lat="42.5528066" lon="13.478052"><ele>726.2</ele><time>2026-04-19T10:13:14.753Z</time></trkpt><trkpt lat="42.5528005" lon="13.4779284"><ele>730.0</ele><time>2026-04-19T10:13:15.754Z</time></trkpt><trkpt lat="42.5527851" lon="13.477821"><ele>730.8571428571429</ele><time>2026-04-19T10:13:16.754Z</time></trkpt><trkpt lat="42.5527718" lon="13.4777092"><ele>731.7142857142858</ele><time>2026-04-19T10:13:17.754Z</time></trkpt><trkpt lat="42.5527576" lon="13.4776073"><ele>732.5714285714287</ele><time>2026-04-19T10:13:18.753Z</time></trkpt><trkpt lat="42.5527475" lon="13.4775131"><ele>733.4285714285714</ele><time>2026-04-19T10:13:19.753Z</time></trkpt><trkpt lat="42.5527435" lon="13.477418"><ele>734.2857142857142</ele><time>2026-04-19T10:13:20.754Z</time></trkpt><trkpt lat="42.5527398" lon="13.4773142"><ele>735.1428571428572</ele><time>2026-04-19T10:13:21.754Z</time></trkpt><trkpt lat="42.5527388" lon="13.4772177"><ele>736.0</ele><time>2026-04-19T10:13:22.753Z</time></trkpt><trkpt lat="42.5527321" lon="13.477117"><ele>735.1999999999999</ele><time>2026-04-19T10:13:23.753Z</time></trkpt><trkpt lat="42.5527142" lon="13.4769932"><ele>734.4</ele><time>2026-04-19T10:13:24.754Z</time></trkpt><trkpt lat="42.5526857" lon="13.4768651"><ele>733.6</ele><time>2026-04-19T10:13:25.754Z</time></trkpt><trkpt lat="42.5526377" lon="13.4767344"><ele>732.8</ele><time>2026-04-19T10:13:26.753Z</time></trkpt><trkpt lat="42.5525797" lon="13.4766082"><ele>732.0</ele><time>2026-04-19T10:13:27.754Z</time></trkpt><trkpt lat="42.5525116" lon="13.4764916"><ele>732.0</ele><time>2026-04-19T10:13:28.754Z</time></trkpt><trkpt lat="42.5524392" lon="13.4763735"><ele>732.0</ele><time>2026-04-19T10:13:29.753Z</time></trkpt><trkpt lat="42.5523701" lon="13.4762596"><ele>732.0</ele><time>2026-04-19T10:13:30.754Z</time></trkpt><trkpt lat="42.5522955" lon="13.4761516"><ele>732.0</ele><time>2026-04-19T10:13:31.753Z</time></trkpt><trkpt lat="42.5522047" lon="13.4760503"><ele>732.0</ele><time>2026-04-19T10:13:32.753Z</time></trkpt><trkpt lat="42.552102" lon="13.4759325"><ele>738.5</ele><time>2026-04-19T10:13:33.753Z</time></trkpt><trkpt lat="42.5520089" lon="13.4758073"><ele>745.0</ele><time>2026-04-19T10:13:34.753Z</time></trkpt><trkpt lat="42.5519301" lon="13.4756802"><ele>751.5</ele><time>2026-04-19T10:13:35.753Z</time></trkpt><trkpt lat="42.5518718" lon="13.4755462"><ele>758.0</ele><time>2026-04-19T10:13:36.753Z</time></trkpt><trkpt lat="42.5518271" lon="13.4754156"><ele>758.0</ele><time>2026-04-19T10:13:37.754Z</time></trkpt><trkpt lat="42.5517967" lon="13.4752965"><ele>758.0</ele><time>2026-04-19T10:13:38.753Z</time></trkpt><trkpt lat="42.5517916" lon="13.4751604"><ele>758.0</ele><time>2026-04-19T10:13:39.754Z</time></trkpt><trkpt lat="42.5518064" lon="13.475026"><ele>758.0</ele><time>2026-04-19T10:13:40.753Z</time></trkpt><trkpt lat="42.551819" lon="13.4748915"><ele>758.0</ele><time>2026-04-19T10:13:41.754Z</time></trkpt><trkpt lat="42.5518269" lon="13.4747521"><ele>758.0</ele><time>2026-04-19T10:13:42.753Z</time></trkpt><trkpt lat="42.5518258" lon="13.4746065"><ele>758.0</ele><time>2026-04-19T10:13:43.753Z</time></trkpt><trkpt lat="42.5518277" lon="13.4744727"><ele>758.0</ele><time>2026-04-19T10:13:44.753Z</time></trkpt><trkpt lat="42.5518228" lon="13.4743411"><ele>758.0</ele><time>2026-04-19T10:13:45.754Z</time></trkpt><trkpt lat="42.5518162" lon="13.4742051"><ele>758.0</ele><time>2026-04-19T10:13:46.754Z</time></trkpt><trkpt lat="42.551807" lon="13.4740565"><ele>756.25</ele><time>2026-04-19T10:13:47.753Z</time></trkpt><trkpt lat="42.5517949" lon="13.4739031"><ele>754.5</ele><time>2026-04-19T10:13:48.754Z</time></trkpt><trkpt lat="42.5517957" lon="13.4737351"><ele>752.75</ele><time>2026-04-19T10:13:49.753Z</time></trkpt><trkpt lat="42.5518138" lon="13.4735555"><ele>751.0</ele><time>2026-04-19T10:13:50.754Z</time></trkpt><trkpt lat="42.551828" lon="13.4733607"><ele>750.5</ele><time>2026-04-19T10:13:51.753Z</time></trkpt><trkpt lat="42.5518347" lon="13.4731649"><ele>750.0</ele><time>2026-04-19T10:13:52.754Z</time></trkpt><trkpt lat="42.5518367" lon="13.4729719"><ele>749.5</ele><time>2026-04-19T10:13:53.753Z</time></trkpt><trkpt lat="42.5518416" lon="13.4727562"><ele>749.0</ele><time>2026-04-19T10:13:54.753Z</time></trkpt><trkpt lat="42.5518441" lon="13.4725199"><ele>750.3333333333333</ele><time>2026-04-19T10:13:55.753Z</time></trkpt><trkpt lat="42.5518212" lon="13.4722682"><ele>751.6666666666666</ele><time>2026-04-19T10:13:56.753Z</time></trkpt><trkpt lat="42.5517836" lon="13.4720028"><ele>753.0</ele><time>2026-04-19T10:13:57.754Z</time></trkpt><trkpt lat="42.5517252" lon="13.4717353"><ele>753.3333333333334</ele><time>2026-04-19T10:13:58.753Z</time></trkpt><trkpt lat="42.5516487" lon="13.4714715"><ele>753.6666666666667</ele><time>2026-04-19T10:13:59.753Z</time></trkpt><trkpt lat="42.5515459" lon="13.4712051"><ele>754.0</ele><time>2026-04-19T10:14:00.753Z</time></trkpt><trkpt lat="42.551429" lon="13.4709307"><ele>755.5</ele><time>2026-04-19T10:14:01.754Z</time></trkpt><trkpt lat="42.5513166" lon="13.47062"><ele>757.0</ele><time>2026-04-19T10:14:02.753Z</time></trkpt><trkpt lat="42.5512086" lon="13.4703299"><ele>762.0</ele><time>2026-04-19T10:14:03.753Z</time></trkpt><trkpt lat="42.5510915" lon="13.470061"><ele>767.0</ele><time>2026-04-19T10:14:04.753Z</time></trkpt><trkpt lat="42.5509755" lon="13.4698"><ele>761.6666666666666</ele><time>2026-04-19T10:14:05.754Z</time></trkpt><trkpt lat="42.5508499" lon="13.4695455"><ele>756.3333333333334</ele><time>2026-04-19T10:14:06.753Z</time></trkpt><trkpt lat="42.5507191" lon="13.4693218"><ele>751.0</ele><time>2026-04-19T10:14:07.753Z</time></trkpt><trkpt lat="42.5505756" lon="13.4690986"><ele>751.0</ele><time>2026-04-19T10:14:08.754Z</time></trkpt><trkpt lat="42.5504429" lon="13.4688872"><ele>751.0</ele><time>2026-04-19T10:14:09.754Z</time></trkpt><trkpt lat="42.5503171" lon="13.4686933"><ele>751.0</ele><time>2026-04-19T10:14:10.753Z</time></trkpt><trkpt lat="42.5501799" lon="13.4685297"><ele>754.3333333333334</ele><time>2026-04-19T10:14:11.753Z</time></trkpt><trkpt lat="42.5500342" lon="13.4683796"><ele>757.6666666666666</ele><time>2026-04-19T10:14:12.753Z</time></trkpt><trkpt lat="42.5498906" lon="13.4682231"><ele>761.0</ele><time>2026-04-19T10:14:13.753Z</time></trkpt><trkpt lat="42.5497569" lon="13.4680853"><ele>761.0</ele><time>2026-04-19T10:14:14.754Z</time></trkpt><trkpt lat="42.5496255" lon="13.4679486"><ele>761.0</ele><time>2026-04-19T10:14:15.753Z</time></trkpt><trkpt lat="42.5494751" lon="13.4678147"><ele>761.0</ele><time>2026-04-19T10:14:16.753Z</time></trkpt><trkpt lat="42.5493173" lon="13.4676817"><ele>763.3333333333333</ele><time>2026-04-19T10:14:17.754Z</time></trkpt><trkpt lat="42.5491621" lon="13.467589"><ele>765.6666666666666</ele><time>2026-04-19T10:14:18.753Z</time></trkpt><trkpt lat="42.5490097" lon="13.4675104"><ele>768.0</ele><time>2026-04-19T10:14:19.753Z</time></trkpt><trkpt lat="42.5488702" lon="13.4674441"><ele>768.0</ele><time>2026-04-19T10:14:20.754Z</time></trkpt><trkpt lat="42.5487263" lon="13.4674011"><ele>768.0</ele><time>2026-04-19T10:14:21.753Z</time></trkpt><trkpt lat="42.5485745" lon="13.4673472"><ele>768.0</ele><time>2026-04-19T10:14:22.754Z</time></trkpt><trkpt lat="42.5484206" lon="13.4672747"><ele>767.3333333333334</ele><time>2026-04-19T10:14:23.753Z</time></trkpt><trkpt lat="42.5482681" lon="13.467178"><ele>766.6666666666667</ele><time>2026-04-19T10:14:24.753Z</time></trkpt><trkpt lat="42.5481136" lon="13.4670549"><ele>766.0</ele><time>2026-04-19T10:14:25.754Z</time></trkpt><trkpt lat="42.5479603" lon="13.4669248"><ele>772.6666666666667</ele><time>2026-04-19T10:14:26.753Z</time></trkpt><trkpt lat="42.5477902" lon="13.4667706"><ele>779.3333333333334</ele><time>2026-04-19T10:14:27.753Z</time></trkpt><trkpt lat="42.5476036" lon="13.4665943"><ele>786.0</ele><time>2026-04-19T10:14:28.754Z</time></trkpt><trkpt lat="42.5474278" lon="13.4664248"><ele>788.0</ele><time>2026-04-19T10:14:29.753Z</time></trkpt><trkpt lat="42.5472693" lon="13.4662687"><ele>790.0</ele><time>2026-04-19T10:14:30.754Z</time></trkpt><trkpt lat="42.5471207" lon="13.4661257"><ele>792.0</ele><time>2026-04-19T10:14:31.753Z</time></trkpt><trkpt lat="42.5469834" lon="13.466009"><ele>792.0</ele><time>2026-04-19T10:14:32.753Z</time></trkpt><trkpt lat="42.5468484" lon="13.4659008"><ele>792.0</ele><time>2026-04-19T10:14:33.754Z</time></trkpt><trkpt lat="42.5467247" lon="13.465779"><ele>792.0</ele><time>2026-04-19T10:14:34.753Z</time></trkpt><trkpt lat="42.5466141" lon="13.4656424"><ele>792.0</ele><time>2026-04-19T10:14:35.753Z</time></trkpt><trkpt lat="42.5465083" lon="13.4654917"><ele>792.0</ele><time>2026-04-19T10:14:36.753Z</time></trkpt><trkpt lat="42.5463985" lon="13.4653314"><ele>792.0</ele><time>2026-04-19T10:14:37.754Z</time></trkpt><trkpt lat="42.5462861" lon="13.4651813"><ele>793.6666666666667</ele><time>2026-04-19T10:14:38.754Z</time></trkpt><trkpt lat="42.5461714" lon="13.4650358"><ele>795.3333333333334</ele><time>2026-04-19T10:14:39.754Z</time></trkpt><trkpt lat="42.5460498" lon="13.4648779"><ele>797.0</ele><time>2026-04-19T10:14:40.753Z</time></trkpt><trkpt lat="42.5459181" lon="13.4647162"><ele>793.5</ele><time>2026-04-19T10:14:41.753Z</time></trkpt><trkpt lat="42.5458005" lon="13.464551"><ele>790.0</ele><time>2026-04-19T10:14:42.754Z</time></trkpt><trkpt lat="42.5456926" lon="13.4643981"><ele>786.5</ele><time>2026-04-19T10:14:43.753Z</time></trkpt><trkpt lat="42.5456024" lon="13.4642885"><ele>783.0</ele><time>2026-04-19T10:14:44.754Z</time></trkpt><trkpt lat="42.5455229" lon="13.4641926"><ele>783.0</ele><time>2026-04-19T10:14:45.753Z</time></trkpt><trkpt lat="42.5454334" lon="13.4641315"><ele>783.0</ele><time>2026-04-19T10:14:46.754Z</time></trkpt><trkpt lat="42.545333" lon="13.4640849"><ele>783.0</ele><time>2026-04-19T10:14:47.753Z</time></trkpt><trkpt lat="42.54522" lon="13.4640407"><ele>783.0</ele><time>2026-04-19T10:14:48.754Z</time></trkpt><trkpt lat="42.5451113" lon="13.4639704"><ele>783.0</ele><time>2026-04-19T10:14:49.754Z</time></trkpt><trkpt lat="42.5449854" lon="13.4638993"><ele>786.0</ele><time>2026-04-19T10:14:50.754Z</time></trkpt><trkpt lat="42.5448614" lon="13.4637686"><ele>789.0</ele><time>2026-04-19T10:14:51.753Z</time></trkpt><trkpt lat="42.5447236" lon="13.463617"><ele>792.0</ele><time>2026-04-19T10:14:52.753Z</time></trkpt><trkpt lat="42.5445575" lon="13.4634333"><ele>799.5</ele><time>2026-04-19T10:14:53.753Z</time></trkpt><trkpt lat="42.5443841" lon="13.4632337"><ele>807.0</ele><time>2026-04-19T10:14:54.753Z</time></trkpt><trkpt lat="42.5442059" lon="13.4630389"><ele>803.6666666666667</ele><time>2026-04-19T10:14:55.754Z</time></trkpt><trkpt lat="42.5440385" lon="13.4628523"><ele>800.3333333333334</ele><time>2026-04-19T10:14:56.753Z</time></trkpt><trkpt lat="42.5438759" lon="13.4626631"><ele>797.0</ele><time>2026-04-19T10:14:57.753Z</time></trkpt><trkpt lat="42.5437086" lon="13.4624654"><ele>801.5</ele><time>2026-04-19T10:14:58.754Z</time></trkpt><trkpt lat="42.5435228" lon="13.462249"><ele>806.0</ele><time>2026-04-19T10:14:59.753Z</time></trkpt><trkpt lat="42.5433419" lon="13.4620223"><ele>806.0</ele><time>2026-04-19T10:15:00.754Z</time></trkpt><trkpt lat="42.5431636" lon="13.4617957"><ele>806.0</ele><time>2026-04-19T10:15:01.753Z</time></trkpt><trkpt lat="42.5430084" lon="13.4615734"><ele>806.3333333333334</ele><time>2026-04-19T10:15:02.754Z</time></trkpt><trkpt lat="42.5428548" lon="13.4613807"><ele>806.6666666666667</ele><time>2026-04-19T10:15:03.753Z</time></trkpt><trkpt lat="42.5427279" lon="13.4612074"><ele>807.0</ele><time>2026-04-19T10:15:04.753Z</time></trkpt><trkpt lat="42.5426267" lon="13.4610547"><ele>807.0</ele><time>2026-04-19T10:15:05.753Z</time></trkpt><trkpt lat="42.5425469" lon="13.4608708"><ele>807.0</ele><time>2026-04-19T10:15:06.754Z</time></trkpt><trkpt lat="42.5424952" lon="13.4606478"><ele>807.0</ele><time>2026-04-19T10:15:07.754Z</time></trkpt><trkpt lat="42.5424404" lon="13.4604134"><ele>814.3333333333333</ele><time>2026-04-19T10:15:08.753Z</time></trkpt><trkpt lat="42.542385" lon="13.4601645"><ele>821.6666666666666</ele><time>2026-04-19T10:15:09.753Z</time></trkpt><trkpt lat="42.5423297" lon="13.4599171"><ele>829.0</ele><time>2026-04-19T10:15:10.754Z</time></trkpt><trkpt lat="42.5422704" lon="13.459667"><ele>848.0</ele><time>2026-04-19T10:15:11.753Z</time></trkpt><trkpt lat="42.5422127" lon="13.4594174"><ele>867.0</ele><time>2026-04-19T10:15:12.754Z</time></trkpt><trkpt lat="42.5370047" lon="13.454614"><ele>867.0</ele><time>2026-04-19T10:15:42.753Z</time></trkpt><trkpt lat="42.5369195" lon="13.4545488"><ele>867.0</ele><time>2026-04-19T10:15:43.753Z</time></trkpt><trkpt lat="42.5368329" lon="13.4545073"><ele>867.0</ele><time>2026-04-19T10:15:44.753Z</time></trkpt><trkpt lat="42.5367478" lon="13.4544425"><ele>867.0</ele><time>2026-04-19T10:15:46.753Z</time></trkpt><trkpt lat="42.5366829" lon="13.4544013"><ele>867.0</ele><time>2026-04-19T10:15:50.754Z</time></trkpt><trkpt lat="42.5367059" lon="13.4543209"><ele>867.0</ele><time>2026-04-19T10:17:43.754Z</time></trkpt><trkpt lat="42.5366374" lon="13.4542508"><ele>867.0</ele><time>2026-04-19T10:17:45.754Z</time></trkpt><trkpt lat="42.5365746" lon="13.4541783"><ele>867.0</ele><time>2026-04-19T10:17:46.754Z</time></trkpt><trkpt lat="42.5364988" lon="13.4540856"><ele>867.0</ele><time>2026-04-19T10:17:47.753Z</time></trkpt><trkpt lat="42.5364123" lon="13.4539415"><ele>867.0</ele><time>2026-04-19T10:17:48.753Z</time></trkpt><trkpt lat="42.5363176" lon="13.4537799"><ele>871.75</ele><time>2026-04-19T10:17:49.753Z</time></trkpt><trkpt lat="42.5362114" lon="13.4536252"><ele>876.5</ele><time>2026-04-19T10:17:50.754Z</time></trkpt><trkpt lat="42.5360896" lon="13.4535088"><ele>881.25</ele><time>2026-04-19T10:17:51.753Z</time></trkpt><trkpt lat="42.535962" lon="13.4534531"><ele>886.0</ele><time>2026-04-19T10:17:52.753Z</time></trkpt><trkpt lat="42.5358211" lon="13.4534246"><ele>886.0</ele><time>2026-04-19T10:17:53.753Z</time></trkpt><trkpt lat="42.5356639" lon="13.4533934"><ele>886.0</ele><time>2026-04-19T10:17:54.754Z</time></trkpt><trkpt lat="42.5354924" lon="13.4533157"><ele>886.0</ele><time>2026-04-19T10:17:55.753Z</time></trkpt><trkpt lat="42.5353111" lon="13.453215"><ele>886.3333333333333</ele><time>2026-04-19T10:17:56.753Z</time></trkpt><trkpt lat="42.5351364" lon="13.4531007"><ele>886.6666666666667</ele><time>2026-04-19T10:17:57.753Z</time></trkpt><trkpt lat="42.5349918" lon="13.4529749"><ele>887.0</ele><time>2026-04-19T10:17:58.753Z</time></trkpt><trkpt lat="42.534867" lon="13.4528247"><ele>887.0</ele><time>2026-04-19T10:17:59.753Z</time></trkpt><trkpt lat="42.5347556" lon="13.4526465"><ele>887.0</ele><time>2026-04-19T10:18:00.754Z</time></trkpt><trkpt lat="42.5346346" lon="13.4524696"><ele>887.0</ele><time>2026-04-19T10:18:01.754Z</time></trkpt><trkpt lat="42.5344896" lon="13.452306"><ele>885.0</ele><time>2026-04-19T10:18:02.753Z</time></trkpt><trkpt lat="42.5343213" lon="13.4521659"><ele>883.0</ele><time>2026-04-19T10:18:03.754Z</time></trkpt><trkpt lat="42.534152" lon="13.4520245"><ele>881.0</ele><time>2026-04-19T10:18:04.753Z</time></trkpt><trkpt lat="42.5340113" lon="13.4519112"><ele>881.0</ele><time>2026-04-19T10:18:05.753Z</time></trkpt><trkpt lat="42.5338967" lon="13.4517793"><ele>881.0</ele><time>2026-04-19T10:18:06.754Z</time></trkpt><trkpt lat="42.533816" lon="13.4516433"><ele>881.0</ele><time>2026-04-19T10:18:07.754Z</time></trkpt><trkpt lat="42.5337617" lon="13.4514591"><ele>881.0</ele><time>2026-04-19T10:18:08.754Z</time></trkpt><trkpt lat="42.5337285" lon="13.4512306"><ele>880.6666666666667</ele><time>2026-04-19T10:18:09.754Z</time></trkpt><trkpt lat="42.5336785" lon="13.4509959"><ele>880.3333333333333</ele><time>2026-04-19T10:18:10.753Z</time></trkpt><trkpt lat="42.5335874" lon="13.4507482"><ele>880.0</ele><time>2026-04-19T10:18:11.753Z</time></trkpt><trkpt lat="42.5334576" lon="13.4505277"><ele>886.0</ele><time>2026-04-19T10:18:12.754Z</time></trkpt><trkpt lat="42.5333441" lon="13.4503086"><ele>892.0</ele><time>2026-04-19T10:18:13.754Z</time></trkpt><trkpt lat="42.5332691" lon="13.4500836"><ele>898.0</ele><time>2026-04-19T10:18:14.753Z</time></trkpt><trkpt lat="42.5332214" lon="13.4498468"><ele>898.0</ele><time>2026-04-19T10:18:15.753Z</time></trkpt><trkpt lat="42.5331412" lon="13.4496483"><ele>898.0</ele><time>2026-04-19T10:18:16.753Z</time></trkpt><trkpt lat="42.5330494" lon="13.4494259"><ele>898.0</ele><time>2026-04-19T10:18:17.753Z</time></trkpt><trkpt lat="42.5328964" lon="13.44922"><ele>892.0</ele><time>2026-04-19T10:18:18.754Z</time></trkpt><trkpt lat="42.5327094" lon="13.4490323"><ele>886.0</ele><time>2026-04-19T10:18:19.753Z</time></trkpt><trkpt lat="42.5325291" lon="13.4488226"><ele>947.0</ele><time>2026-04-19T10:18:20.753Z</time></trkpt><trkpt lat="42.5298651" lon="13.4445656"><ele>947.0</ele><time>2026-04-19T10:18:38.753Z</time></trkpt><trkpt lat="42.5296911" lon="13.4444139"><ele>947.0</ele><time>2026-04-19T10:18:39.753Z</time></trkpt><trkpt lat="42.5295414" lon="13.4442812"><ele>947.0</ele><time>2026-04-19T10:18:40.754Z</time></trkpt><trkpt lat="42.5294108" lon="13.444148"><ele>943.6666666666667</ele><time>2026-04-19T10:18:41.754Z</time></trkpt><trkpt lat="42.529309" lon="13.4439824"><ele>940.3333333333333</ele><time>2026-04-19T10:18:42.753Z</time></trkpt><trkpt lat="42.5292324" lon="13.4437679"><ele>937.0</ele><time>2026-04-19T10:18:43.754Z</time></trkpt><trkpt lat="42.529165" lon="13.4435241"><ele>937.0</ele><time>2026-04-19T10:18:44.754Z</time></trkpt><trkpt lat="42.5290952" lon="13.443285"><ele>937.0</ele><time>2026-04-19T10:18:45.754Z</time></trkpt><trkpt lat="42.5289886" lon="13.4431097"><ele>937.0</ele><time>2026-04-19T10:18:46.753Z</time></trkpt><trkpt lat="42.5288518" lon="13.4429566"><ele>933.0</ele><time>2026-04-19T10:18:47.754Z</time></trkpt><trkpt lat="42.5286972" lon="13.4428238"><ele>929.0</ele><time>2026-04-19T10:18:48.753Z</time></trkpt><trkpt lat="42.5285459" lon="13.4426775"><ele>925.0</ele><time>2026-04-19T10:18:49.753Z</time></trkpt><trkpt lat="42.5284147" lon="13.4424959"><ele>925.0</ele><time>2026-04-19T10:18:50.753Z</time></trkpt><trkpt lat="42.5283126" lon="13.4422969"><ele>925.0</ele><time>2026-04-19T10:18:51.754Z</time></trkpt><trkpt lat="42.5282375" lon="13.4420785"><ele>925.0</ele><time>2026-04-19T10:18:52.754Z</time></trkpt><trkpt lat="42.5281816" lon="13.4418345"><ele>933.0</ele><time>2026-04-19T10:18:53.753Z</time></trkpt><trkpt lat="42.5281452" lon="13.4415871"><ele>941.0</ele><time>2026-04-19T10:18:54.753Z</time></trkpt><trkpt lat="42.5281229" lon="13.4413586"><ele>949.0</ele><time>2026-04-19T10:18:55.753Z</time></trkpt><trkpt lat="42.5280858" lon="13.4411716"><ele>951.3333333333333</ele><time>2026-04-19T10:18:56.754Z</time></trkpt><trkpt lat="42.5280236" lon="13.4410091"><ele>953.6666666666667</ele><time>2026-04-19T10:18:57.753Z</time></trkpt><trkpt lat="42.5279084" lon="13.4408831"><ele>956.0</ele><time>2026-04-19T10:18:58.754Z</time></trkpt><trkpt lat="42.5277662" lon="13.4407594"><ele>959.3333333333334</ele><time>2026-04-19T10:18:59.754Z</time></trkpt><trkpt lat="42.527597" lon="13.4406288"><ele>962.6666666666667</ele><time>2026-04-19T10:19:00.753Z</time></trkpt><trkpt lat="42.5274278" lon="13.44052"><ele>966.0</ele><time>2026-04-19T10:19:01.753Z</time></trkpt><trkpt lat="42.5272729" lon="13.4404386"><ele>966.0</ele><time>2026-04-19T10:19:02.754Z</time></trkpt><trkpt lat="42.5271222" lon="13.440376"><ele>966.0</ele><time>2026-04-19T10:19:03.753Z</time></trkpt><trkpt lat="42.5269955" lon="13.4402939"><ele>966.0</ele><time>2026-04-19T10:19:04.753Z</time></trkpt><trkpt lat="42.5268879" lon="13.4401809"><ele>966.0</ele><time>2026-04-19T10:19:05.754Z</time></trkpt><trkpt lat="42.5267946" lon="13.4400162"><ele>962.6666666666667</ele><time>2026-04-19T10:19:06.753Z</time></trkpt><trkpt lat="42.526738" lon="13.4398081"><ele>959.3333333333334</ele><time>2026-04-19T10:19:07.754Z</time></trkpt><trkpt lat="42.5266819" lon="13.4395843"><ele>956.0</ele><time>2026-04-19T10:19:08.754Z</time></trkpt><trkpt lat="42.5266088" lon="13.4393868"><ele>956.0</ele><time>2026-04-19T10:19:09.753Z</time></trkpt><trkpt lat="42.5265054" lon="13.4392216"><ele>956.0</ele><time>2026-04-19T10:19:10.754Z</time></trkpt><trkpt lat="42.526364" lon="13.4390846"><ele>956.0</ele><time>2026-04-19T10:19:11.753Z</time></trkpt><trkpt lat="42.5261892" lon="13.4389628"><ele>950.3333333333334</ele><time>2026-04-19T10:19:12.754Z</time></trkpt><trkpt lat="42.526019" lon="13.4388265"><ele>944.6666666666667</ele><time>2026-04-19T10:19:13.754Z</time></trkpt><trkpt lat="42.5258535" lon="13.4386775"><ele>939.0</ele><time>2026-04-19T10:19:14.753Z</time></trkpt><trkpt lat="42.5256847" lon="13.4385619"><ele>946.6666666666667</ele><time>2026-04-19T10:19:15.754Z</time></trkpt><trkpt lat="42.525494" lon="13.4384803"><ele>954.3333333333334</ele><time>2026-04-19T10:19:16.753Z</time></trkpt><trkpt lat="42.5252887" lon="13.4384225"><ele>962.0</ele><time>2026-04-19T10:19:17.763Z</time></trkpt><trkpt lat="42.5250687" lon="13.4383716"><ele>962.0</ele><time>2026-04-19T10:19:18.763Z</time></trkpt><trkpt lat="42.5248539" lon="13.438319"><ele>962.0</ele><time>2026-04-19T10:19:19.762Z</time></trkpt><trkpt lat="42.5246463" lon="13.4382639"><ele>962.0</ele><time>2026-04-19T10:19:20.763Z</time></trkpt><trkpt lat="42.524449" lon="13.4381766"><ele>958.0</ele><time>2026-04-19T10:19:21.762Z</time></trkpt><trkpt lat="42.5242771" lon="13.4380616"><ele>954.0</ele><time>2026-04-19T10:19:22.763Z</time></trkpt><trkpt lat="42.5205415" lon="13.4317547"><ele>974.6666666666667</ele><time>2026-04-19T10:19:48.762Z</time></trkpt><trkpt lat="42.5205278" lon="13.431489"><ele>995.3333333333334</ele><time>2026-04-19T10:19:49.762Z</time></trkpt><trkpt lat="42.5204407" lon="13.4311904"><ele>1016.0</ele><time>2026-04-19T10:19:50.762Z</time></trkpt><trkpt lat="42.5204087" lon="13.4308863"><ele>1005.5</ele><time>2026-04-19T10:19:51.762Z</time></trkpt><trkpt lat="42.5203276" lon="13.430581"><ele>995.0</ele><time>2026-04-19T10:19:52.762Z</time></trkpt><trkpt lat="42.520259" lon="13.4302846"><ele>995.0</ele><time>2026-04-19T10:19:53.762Z</time></trkpt><trkpt lat="42.5201976" lon="13.4299878"><ele>995.0</ele><time>2026-04-19T10:19:54.763Z</time></trkpt><trkpt lat="42.520138" lon="13.4297001"><ele>995.0</ele><time>2026-04-19T10:19:55.763Z</time></trkpt><trkpt lat="42.5193473" lon="13.428894"><ele>992.5</ele><time>2026-04-19T10:20:00.763Z</time></trkpt><trkpt lat="42.5190033" lon="13.4287599"><ele>990.0</ele><time>2026-04-19T10:20:01.762Z</time></trkpt><trkpt lat="42.518798" lon="13.4285477"><ele>1011.0</ele><time>2026-04-19T10:20:02.763Z</time></trkpt><trkpt lat="42.5187239" lon="13.4282109"><ele>1032.0</ele><time>2026-04-19T10:20:03.763Z</time></trkpt><trkpt lat="42.5186941" lon="13.4278433"><ele>1032.0</ele><time>2026-04-19T10:20:04.763Z</time></trkpt><trkpt lat="42.5187073" lon="13.4275052"><ele>1032.0</ele><time>2026-04-19T10:20:05.763Z</time></trkpt><trkpt lat="42.5186969" lon="13.4271791"><ele>1026.3333333333333</ele><time>2026-04-19T10:20:06.762Z</time></trkpt><trkpt lat="42.5186961" lon="13.4269379"><ele>1020.6666666666666</ele><time>2026-04-19T10:20:07.762Z</time></trkpt><trkpt lat="42.5186566" lon="13.4267292"><ele>1015.0</ele><time>2026-04-19T10:20:08.762Z</time></trkpt><trkpt lat="42.51874" lon="13.4263545"><ele>1001.5</ele><time>2026-04-19T10:20:09.762Z</time></trkpt><trkpt lat="42.5187968" lon="13.4260126"><ele>988.0</ele><time>2026-04-19T10:20:10.762Z</time></trkpt><trkpt lat="42.5189614" lon="13.4256918"><ele>993.5</ele><time>2026-04-19T10:20:11.763Z</time></trkpt><trkpt lat="42.5192417" lon="13.4254311"><ele>999.0</ele><time>2026-04-19T10:20:12.763Z</time></trkpt><trkpt lat="42.5195154" lon="13.4253041"><ele>999.0</ele><time>2026-04-19T10:20:13.763Z</time></trkpt><trkpt lat="42.5196559" lon="13.4251782"><ele>999.0</ele><time>2026-04-19T10:20:14.762Z</time></trkpt><trkpt lat="42.5196477" lon="13.425014"><ele>999.0</ele><time>2026-04-19T10:20:15.763Z</time></trkpt><trkpt lat="42.5195592" lon="13.4248315"><ele>999.0</ele><time>2026-04-19T10:20:16.762Z</time></trkpt><trkpt lat="42.519468" lon="13.4246686"><ele>999.0</ele><time>2026-04-19T10:20:17.762Z</time></trkpt><trkpt lat="42.5194016" lon="13.424519"><ele>999.0</ele><time>2026-04-19T10:20:18.763Z</time></trkpt><trkpt lat="42.5193614" lon="13.4243668"><ele>999.0</ele><time>2026-04-19T10:20:19.763Z</time></trkpt><trkpt lat="42.5193662" lon="13.4242102"><ele>1002.3333333333333</ele><time>2026-04-19T10:20:20.762Z</time></trkpt><trkpt lat="42.5194048" lon="13.4240363"><ele>1005.6666666666666</ele><time>2026-04-19T10:20:21.762Z</time></trkpt><trkpt lat="42.5194579" lon="13.423829"><ele>1009.0</ele><time>2026-04-19T10:20:22.763Z</time></trkpt><trkpt lat="42.5195095" lon="13.4235941"><ele>1010.0</ele><time>2026-04-19T10:20:23.762Z</time></trkpt><trkpt lat="42.5195491" lon="13.4233564"><ele>1011.0</ele><time>2026-04-19T10:20:24.763Z</time></trkpt><trkpt lat="42.5196017" lon="13.4231304"><ele>1012.0</ele><time>2026-04-19T10:20:25.762Z</time></trkpt><trkpt lat="42.519643" lon="13.4229031"><ele>1018.0</ele><time>2026-04-19T10:20:26.763Z</time></trkpt><trkpt lat="42.5196975" lon="13.4226972"><ele>1024.0</ele><time>2026-04-19T10:20:27.762Z</time></trkpt><trkpt lat="42.5197557" lon="13.4225131"><ele>1030.0</ele><time>2026-04-19T10:20:28.762Z</time></trkpt><trkpt lat="42.519815" lon="13.4223576"><ele>1036.0</ele><time>2026-04-19T10:20:29.762Z</time></trkpt><trkpt lat="42.519855" lon="13.4222517"><ele>1037.0</ele><time>2026-04-19T10:20:30.763Z</time></trkpt><trkpt lat="42.5198413" lon="13.4221296"><ele>1038.0</ele><time>2026-04-19T10:20:31.762Z</time></trkpt><trkpt lat="42.5198096" lon="13.4220353"><ele>1039.0</ele><time>2026-04-19T10:20:32.763Z</time></trkpt><trkpt lat="42.519736" lon="13.4219897"><ele>1040.0</ele><time>2026-04-19T10:20:33.762Z</time></trkpt><trkpt lat="42.5196515" lon="13.4219746"><ele>1041.0</ele><time>2026-04-19T10:20:34.763Z</time></trkpt><trkpt lat="42.5195573" lon="13.4220389"><ele>1042.0</ele><time>2026-04-19T10:20:35.762Z</time></trkpt><trkpt lat="42.5194721" lon="13.4221487"><ele>1037.0</ele><time>2026-04-19T10:20:36.762Z</time></trkpt><trkpt lat="42.519362" lon="13.4222646"><ele>1032.0</ele><time>2026-04-19T10:20:37.763Z</time></trkpt><trkpt lat="42.5192399" lon="13.4223627"><ele>1027.0</ele><time>2026-04-19T10:20:38.763Z</time></trkpt><trkpt lat="42.5191137" lon="13.4224277"><ele>1022.0</ele><time>2026-04-19T10:20:39.762Z</time></trkpt><trkpt lat="42.5189829" lon="13.422443"><ele>1022.0</ele><time>2026-04-19T10:20:40.762Z</time></trkpt><trkpt lat="42.5188523" lon="13.4223949"><ele>1022.0</ele><time>2026-04-19T10:20:41.763Z</time></trkpt><trkpt lat="42.5187405" lon="13.4223181"><ele>1022.0</ele><time>2026-04-19T10:20:42.762Z</time></trkpt><trkpt lat="42.5186506" lon="13.4222165"><ele>1022.0</ele><time>2026-04-19T10:20:43.763Z</time></trkpt><trkpt lat="42.5186008" lon="13.4220713"><ele>1022.3333333333334</ele><time>2026-04-19T10:20:44.763Z</time></trkpt><trkpt lat="42.5185682" lon="13.421889"><ele>1022.6666666666667</ele><time>2026-04-19T10:20:45.763Z</time></trkpt><trkpt lat="42.5185219" lon="13.4216909"><ele>1023.0</ele><time>2026-04-19T10:20:46.762Z</time></trkpt><trkpt lat="42.5184511" lon="13.4214726"><ele>1031.0</ele><time>2026-04-19T10:20:47.762Z</time></trkpt><trkpt lat="42.5183515" lon="13.4212562"><ele>1039.0</ele><time>2026-04-19T10:20:48.763Z</time></trkpt><trkpt lat="42.5182594" lon="13.4210123"><ele>1047.0</ele><time>2026-04-19T10:20:49.762Z</time></trkpt><trkpt lat="42.5181791" lon="13.4207334"><ele>1054.0</ele><time>2026-04-19T10:20:50.762Z</time></trkpt><trkpt lat="42.518108" lon="13.420448"><ele>1061.0</ele><time>2026-04-19T10:20:51.763Z</time></trkpt><trkpt lat="42.5180423" lon="13.4201731"><ele>1068.0</ele><time>2026-04-19T10:20:52.762Z</time></trkpt><trkpt lat="42.5179684" lon="13.4199342"><ele>1060.3333333333333</ele><time>2026-04-19T10:20:53.762Z</time></trkpt><trkpt lat="42.5178631" lon="13.4197181"><ele>1052.6666666666665</ele><time>2026-04-19T10:20:54.763Z</time></trkpt><trkpt lat="42.5177211" lon="13.4195445"><ele>1045.0</ele><time>2026-04-19T10:20:55.762Z</time></trkpt><trkpt lat="42.5175496" lon="13.4193846"><ele>1045.0</ele><time>2026-04-19T10:20:56.763Z</time></trkpt><trkpt lat="42.5173768" lon="13.4192129"><ele>1045.0</ele><time>2026-04-19T10:20:57.763Z</time></trkpt><trkpt lat="42.5171957" lon="13.4190664"><ele>1045.0</ele><time>2026-04-19T10:20:58.762Z</time></trkpt><trkpt lat="42.5170034" lon="13.4189478"><ele>1046.0</ele><time>2026-04-19T10:20:59.762Z</time></trkpt><trkpt lat="42.516822" lon="13.4188188"><ele>1047.0</ele><time>2026-04-19T10:21:00.762Z</time></trkpt><trkpt lat="42.5166569" lon="13.4186599"><ele>1048.0</ele><time>2026-04-19T10:21:01.762Z</time></trkpt><trkpt lat="42.5165013" lon="13.4184486"><ele>1048.0</ele><time>2026-04-19T10:21:02.762Z</time></trkpt><trkpt lat="42.5163455" lon="13.4181973"><ele>1048.0</ele><time>2026-04-19T10:21:03.763Z</time></trkpt><trkpt lat="42.5161851" lon="13.417929"><ele>1041.5</ele><time>2026-04-19T10:21:04.762Z</time></trkpt><trkpt lat="42.5160317" lon="13.417658"><ele>1035.0</ele><time>2026-04-19T10:21:05.762Z</time></trkpt><trkpt lat="42.5159036" lon="13.4173916"><ele>1046.0</ele><time>2026-04-19T10:21:06.762Z</time></trkpt><trkpt lat="42.5157964" lon="13.4171292"><ele>1057.0</ele><time>2026-04-19T10:21:07.762Z</time></trkpt><trkpt lat="42.5156921" lon="13.4168774"><ele>1068.0</ele><time>2026-04-19T10:21:08.763Z</time></trkpt><trkpt lat="42.5155739" lon="13.4166449"><ele>1068.0</ele><time>2026-04-19T10:21:09.763Z</time></trkpt><trkpt lat="42.5154223" lon="13.4164433"><ele>1068.0</ele><time>2026-04-19T10:21:10.762Z</time></trkpt><trkpt lat="42.5152352" lon="13.4162978"><ele>1068.0</ele><time>2026-04-19T10:21:11.763Z</time></trkpt><trkpt lat="42.5150417" lon="13.4161973"><ele>1066.6666666666667</ele><time>2026-04-19T10:21:12.763Z</time></trkpt><trkpt lat="42.514856" lon="13.4160999"><ele>1065.3333333333335</ele><time>2026-04-19T10:21:13.763Z</time></trkpt><trkpt lat="42.5146929" lon="13.4159979"><ele>1064.0</ele><time>2026-04-19T10:21:14.762Z</time></trkpt><trkpt lat="42.5145585" lon="13.4158468"><ele>1059.6666666666667</ele><time>2026-04-19T10:21:15.763Z</time></trkpt><trkpt lat="42.5144348" lon="13.415647"><ele>1055.3333333333333</ele><time>2026-04-19T10:21:16.763Z</time></trkpt><trkpt lat="42.5143088" lon="13.4154188"><ele>1051.0</ele><time>2026-04-19T10:21:17.762Z</time></trkpt><trkpt lat="42.5141745" lon="13.415171"><ele>1051.0</ele><time>2026-04-19T10:21:18.763Z</time></trkpt><trkpt lat="42.5140387" lon="13.4149157"><ele>1051.0</ele><time>2026-04-19T10:21:19.762Z</time></trkpt><trkpt lat="42.5139104" lon="13.4146532"><ele>1055.0</ele><time>2026-04-19T10:21:20.762Z</time></trkpt><trkpt lat="42.5137865" lon="13.4144033"><ele>1059.0</ele><time>2026-04-19T10:21:21.762Z</time></trkpt><trkpt lat="42.5136826" lon="13.4141635"><ele>1063.0</ele><time>2026-04-19T10:21:22.762Z</time></trkpt><trkpt lat="42.513615" lon="13.413902"><ele>1057.0</ele><time>2026-04-19T10:21:23.763Z</time></trkpt><trkpt lat="42.5135701" lon="13.4136337"><ele>1051.0</ele><time>2026-04-19T10:21:24.762Z</time></trkpt><trkpt lat="42.5135324" lon="13.4133621"><ele>1045.0</ele><time>2026-04-19T10:21:25.762Z</time></trkpt><trkpt lat="42.513492" lon="13.4130991"><ele>1051.6666666666665</ele><time>2026-04-19T10:21:26.762Z</time></trkpt><trkpt lat="42.5134501" lon="13.412855"><ele>1058.3333333333333</ele><time>2026-04-19T10:21:27.762Z</time></trkpt><trkpt lat="42.5133925" lon="13.4126294"><ele>1065.0</ele><time>2026-04-19T10:21:28.762Z</time></trkpt><trkpt lat="42.5133041" lon="13.4124341"><ele>1065.0</ele><time>2026-04-19T10:21:29.762Z</time></trkpt><trkpt lat="42.5131956" lon="13.4122771"><ele>1065.0</ele><time>2026-04-19T10:21:30.763Z</time></trkpt><trkpt lat="42.5130571" lon="13.4121703"><ele>1065.0</ele><time>2026-04-19T10:21:31.762Z</time></trkpt><trkpt lat="42.5128846" lon="13.4120928"><ele>1069.6666666666667</ele><time>2026-04-19T10:21:32.762Z</time></trkpt><trkpt lat="42.5126992" lon="13.412055"><ele>1074.3333333333335</ele><time>2026-04-19T10:21:33.762Z</time></trkpt><trkpt lat="42.5124958" lon="13.4120527"><ele>1079.0</ele><time>2026-04-19T10:21:34.762Z</time></trkpt><trkpt lat="42.5122889" lon="13.4120851"><ele>1079.0</ele><time>2026-04-19T10:21:35.763Z</time></trkpt><trkpt lat="42.5121005" lon="13.4121312"><ele>1079.0</ele><time>2026-04-19T10:21:36.762Z</time></trkpt><trkpt lat="42.5119478" lon="13.4121641"><ele>1079.0</ele><time>2026-04-19T10:21:37.762Z</time></trkpt><trkpt lat="42.5118131" lon="13.4121745"><ele>1075.75</ele><time>2026-04-19T10:21:38.763Z</time></trkpt><trkpt lat="42.5117045" lon="13.4121271"><ele>1072.5</ele><time>2026-04-19T10:21:39.763Z</time></trkpt><trkpt lat="42.5116297" lon="13.412023"><ele>1069.25</ele><time>2026-04-19T10:21:40.762Z</time></trkpt><trkpt lat="42.5115856" lon="13.4118838"><ele>1066.0</ele><time>2026-04-19T10:21:41.763Z</time></trkpt><trkpt lat="42.511545" lon="13.4117191"><ele>1066.0</ele><time>2026-04-19T10:21:42.762Z</time></trkpt><trkpt lat="42.5114737" lon="13.4115226"><ele>1066.0</ele><time>2026-04-19T10:21:43.762Z</time></trkpt><trkpt lat="42.5113803" lon="13.4113129"><ele>1066.0</ele><time>2026-04-19T10:21:44.762Z</time></trkpt><trkpt lat="42.5112892" lon="13.4111105"><ele>1065.3333333333333</ele><time>2026-04-19T10:21:45.762Z</time></trkpt><trkpt lat="42.5112044" lon="13.4109219"><ele>1064.6666666666667</ele><time>2026-04-19T10:21:46.762Z</time></trkpt><trkpt lat="42.5111027" lon="13.4107469"><ele>1064.0</ele><time>2026-04-19T10:21:47.762Z</time></trkpt><trkpt lat="42.5109697" lon="13.410604"><ele>1072.6666666666667</ele><time>2026-04-19T10:21:48.762Z</time></trkpt><trkpt lat="42.5108004" lon="13.4104846"><ele>1081.3333333333333</ele><time>2026-04-19T10:21:49.763Z</time></trkpt><trkpt lat="42.5106228" lon="13.410379"><ele>1090.0</ele><time>2026-04-19T10:21:50.762Z</time></trkpt><trkpt lat="42.51046" lon="13.4102827"><ele>1083.75</ele><time>2026-04-19T10:21:51.763Z</time></trkpt><trkpt lat="42.5103078" lon="13.4101942"><ele>1077.5</ele><time>2026-04-19T10:21:52.763Z</time></trkpt><trkpt lat="42.5101843" lon="13.4100843"><ele>1071.25</ele><time>2026-04-19T10:21:53.763Z</time></trkpt><trkpt lat="42.5100977" lon="13.4099532"><ele>1065.0</ele><time>2026-04-19T10:21:54.762Z</time></trkpt><trkpt lat="42.5100499" lon="13.4097778"><ele>1071.3333333333333</ele><time>2026-04-19T10:21:55.762Z</time></trkpt><trkpt lat="42.5100292" lon="13.4095728"><ele>1077.6666666666665</ele><time>2026-04-19T10:21:56.762Z</time></trkpt><trkpt lat="42.5100133" lon="13.4093355"><ele>1084.0</ele><time>2026-04-19T10:21:57.763Z</time></trkpt><trkpt lat="42.5099895" lon="13.409122"><ele>1084.0</ele><time>2026-04-19T10:21:58.762Z</time></trkpt><trkpt lat="42.5099682" lon="13.4089196"><ele>1084.0</ele><time>2026-04-19T10:21:59.762Z</time></trkpt><trkpt lat="42.5099222" lon="13.4087327"><ele>1084.0</ele><time>2026-04-19T10:22:00.762Z</time></trkpt><trkpt lat="42.5098367" lon="13.4085452"><ele>1090.6666666666665</ele><time>2026-04-19T10:22:01.762Z</time></trkpt><trkpt lat="42.5097117" lon="13.4083752"><ele>1097.3333333333333</ele><time>2026-04-19T10:22:02.762Z</time></trkpt><trkpt lat="42.5095723" lon="13.4082073"><ele>1104.0</ele><time>2026-04-19T10:22:03.762Z</time></trkpt><trkpt lat="42.5094134" lon="13.4080555"><ele>1097.3333333333333</ele><time>2026-04-19T10:22:04.762Z</time></trkpt><trkpt lat="42.5092433" lon="13.4079264"><ele>1090.6666666666665</ele><time>2026-04-19T10:22:05.763Z</time></trkpt><trkpt lat="42.509065" lon="13.4078139"><ele>1084.0</ele><time>2026-04-19T10:22:06.762Z</time></trkpt><trkpt lat="42.508898" lon="13.4077159"><ele>1084.0</ele><time>2026-04-19T10:22:07.763Z</time></trkpt><trkpt lat="42.5087472" lon="13.4075966"><ele>1084.0</ele><time>2026-04-19T10:22:08.763Z</time></trkpt><trkpt lat="42.5086208" lon="13.4074617"><ele>1084.0</ele><time>2026-04-19T10:22:09.762Z</time></trkpt><trkpt lat="42.5085213" lon="13.4072793"><ele>1084.3333333333333</ele><time>2026-04-19T10:22:10.762Z</time></trkpt><trkpt lat="42.5084495" lon="13.407056"><ele>1084.6666666666667</ele><time>2026-04-19T10:22:11.762Z</time></trkpt><trkpt lat="42.5083811" lon="13.4068143"><ele>1085.0</ele><time>2026-04-19T10:22:12.763Z</time></trkpt><trkpt lat="42.5083063" lon="13.4065665"><ele>1085.0</ele><time>2026-04-19T10:22:13.762Z</time></trkpt><trkpt lat="42.5082397" lon="13.4063386"><ele>1085.0</ele><time>2026-04-19T10:22:14.762Z</time></trkpt><trkpt lat="42.5082028" lon="13.4061093"><ele>1085.0</ele><time>2026-04-19T10:22:15.763Z</time></trkpt><trkpt lat="42.5082145" lon="13.4058805"><ele>1088.0</ele><time>2026-04-19T10:22:16.763Z</time></trkpt><trkpt lat="42.5082401" lon="13.4056517"><ele>1091.0</ele><time>2026-04-19T10:22:17.763Z</time></trkpt><trkpt lat="42.5082419" lon="13.4054388"><ele>1094.0</ele><time>2026-04-19T10:22:18.762Z</time></trkpt><trkpt lat="42.5081966" lon="13.405226"><ele>1098.6666666666667</ele><time>2026-04-19T10:22:19.763Z</time></trkpt><trkpt lat="42.5081232" lon="13.405014"><ele>1103.3333333333333</ele><time>2026-04-19T10:22:20.763Z</time></trkpt><trkpt lat="42.5080103" lon="13.4047974"><ele>1108.0</ele><time>2026-04-19T10:22:21.762Z</time></trkpt><trkpt lat="42.5079002" lon="13.4045878"><ele>1097.0</ele><time>2026-04-19T10:22:22.762Z</time></trkpt><trkpt lat="42.5077977" lon="13.4043812"><ele>1086.0</ele><time>2026-04-19T10:22:23.762Z</time></trkpt><trkpt lat="42.5077287" lon="13.4041665"><ele>1075.0</ele><time>2026-04-19T10:22:24.762Z</time></trkpt><trkpt lat="42.5076864" lon="13.4039248"><ele>1079.0</ele><time>2026-04-19T10:22:25.762Z</time></trkpt><trkpt lat="42.5076581" lon="13.4036878"><ele>1083.0</ele><time>2026-04-19T10:22:26.763Z</time></trkpt><trkpt lat="42.5076413" lon="13.4034592"><ele>1087.0</ele><time>2026-04-19T10:22:27.763Z</time></trkpt><trkpt lat="42.5076362" lon="13.4032457"><ele>1087.0</ele><time>2026-04-19T10:22:28.763Z</time></trkpt><trkpt lat="42.5076131" lon="13.4030572"><ele>1087.0</ele><time>2026-04-19T10:22:29.762Z</time></trkpt><trkpt lat="42.5075505" lon="13.4028901"><ele>1087.0</ele><time>2026-04-19T10:22:30.763Z</time></trkpt><trkpt lat="42.5074687" lon="13.402736"><ele>1087.0</ele><time>2026-04-19T10:22:31.763Z</time></trkpt><trkpt lat="42.5073445" lon="13.4026161"><ele>1086.3333333333333</ele><time>2026-04-19T10:22:32.762Z</time></trkpt><trkpt lat="42.5071909" lon="13.4025198"><ele>1085.6666666666667</ele><time>2026-04-19T10:22:33.763Z</time></trkpt><trkpt lat="42.5070247" lon="13.4024121"><ele>1085.0</ele><time>2026-04-19T10:22:34.762Z</time></trkpt><trkpt lat="42.5068448" lon="13.4022784"><ele>1100.3333333333335</ele><time>2026-04-19T10:22:35.762Z</time></trkpt><trkpt lat="42.506655" lon="13.4021346"><ele>1115.6666666666667</ele><time>2026-04-19T10:22:36.762Z</time></trkpt><trkpt lat="42.5064621" lon="13.4019873"><ele>1131.0</ele><time>2026-04-19T10:22:37.763Z</time></trkpt><trkpt lat="42.5062681" lon="13.4018406"><ele>1113.5</ele><time>2026-04-19T10:22:38.762Z</time></trkpt><trkpt lat="42.506066" lon="13.4016921"><ele>1096.0</ele><time>2026-04-19T10:22:39.763Z</time></trkpt><trkpt lat="42.5058653" lon="13.4015365"><ele>1096.0</ele><time>2026-04-19T10:22:40.762Z</time></trkpt><trkpt lat="42.5056687" lon="13.4013629"><ele>1096.0</ele><time>2026-04-19T10:22:41.762Z</time></trkpt><trkpt lat="42.5054751" lon="13.4012162"><ele>1098.3333333333333</ele><time>2026-04-19T10:22:42.762Z</time></trkpt><trkpt lat="42.5052831" lon="13.4011032"><ele>1100.6666666666667</ele><time>2026-04-19T10:22:43.763Z</time></trkpt><trkpt lat="42.5051186" lon="13.4009828"><ele>1103.0</ele><time>2026-04-19T10:22:44.763Z</time></trkpt><trkpt lat="42.5049587" lon="13.4008806"><ele>1103.0</ele><time>2026-04-19T10:22:45.763Z</time></trkpt><trkpt lat="42.5048065" lon="13.4007698"><ele>1103.0</ele><time>2026-04-19T10:22:46.762Z</time></trkpt><trkpt lat="42.5046802" lon="13.4006181"><ele>1103.0</ele><time>2026-04-19T10:22:47.762Z</time></trkpt><trkpt lat="42.5045746" lon="13.4004341"><ele>1100.0</ele><time>2026-04-19T10:22:48.763Z</time></trkpt><trkpt lat="42.5044944" lon="13.400199"><ele>1097.0</ele><time>2026-04-19T10:22:49.763Z</time></trkpt><trkpt lat="42.5044217" lon="13.3999342"><ele>1094.0</ele><time>2026-04-19T10:22:50.762Z</time></trkpt><trkpt lat="42.5043346" lon="13.3996639"><ele>1105.0</ele><time>2026-04-19T10:22:51.763Z</time></trkpt><trkpt lat="42.5042154" lon="13.3993987"><ele>1116.0</ele><time>2026-04-19T10:22:52.762Z</time></trkpt><trkpt lat="42.5040681" lon="13.3991426"><ele>1116.0</ele><time>2026-04-19T10:22:53.762Z</time></trkpt><trkpt lat="42.5038772" lon="13.3988922"><ele>1116.0</ele><time>2026-04-19T10:22:54.763Z</time></trkpt><trkpt lat="42.5036519" lon="13.3986362"><ele>1115.0</ele><time>2026-04-19T10:22:55.762Z</time></trkpt><trkpt lat="42.5034242" lon="13.3984013"><ele>1114.0</ele><time>2026-04-19T10:22:56.762Z</time></trkpt><trkpt lat="42.5032131" lon="13.3981934"><ele>1114.0</ele><time>2026-04-19T10:22:57.762Z</time></trkpt><trkpt lat="42.5030197" lon="13.3980079"><ele>1114.0</ele><time>2026-04-19T10:22:58.763Z</time></trkpt><trkpt lat="42.5028602" lon="13.3978404"><ele>1114.0</ele><time>2026-04-19T10:22:59.763Z</time></trkpt><trkpt lat="42.5027344" lon="13.3976694"><ele>1114.6666666666665</ele><time>2026-04-19T10:23:00.762Z</time></trkpt><trkpt lat="42.5026294" lon="13.3974723"><ele>1115.3333333333333</ele><time>2026-04-19T10:23:01.763Z</time></trkpt><trkpt lat="42.5025506" lon="13.3972369"><ele>1116.0</ele><time>2026-04-19T10:23:02.763Z</time></trkpt><trkpt lat="42.5024966" lon="13.396968"><ele>1116.0</ele><time>2026-04-19T10:23:03.762Z</time></trkpt><trkpt lat="42.5024723" lon="13.3966751"><ele>1116.0</ele><time>2026-04-19T10:23:04.763Z</time></trkpt><trkpt lat="42.5024559" lon="13.3963851"><ele>1116.0</ele><time>2026-04-19T10:23:05.762Z</time></trkpt><trkpt lat="42.5024292" lon="13.3961035"><ele>1120.3333333333333</ele><time>2026-04-19T10:23:06.763Z</time></trkpt><trkpt lat="42.5023903" lon="13.3958268"><ele>1124.6666666666665</ele><time>2026-04-19T10:23:07.762Z</time></trkpt><trkpt lat="42.5023282" lon="13.3955367"><ele>1129.0</ele><time>2026-04-19T10:23:08.762Z</time></trkpt><trkpt lat="42.5022362" lon="13.3952481"><ele>1131.3333333333333</ele><time>2026-04-19T10:23:09.762Z</time></trkpt><trkpt lat="42.5021324" lon="13.3949627"><ele>1133.6666666666667</ele><time>2026-04-19T10:23:10.762Z</time></trkpt><trkpt lat="42.5020495" lon="13.3946973"><ele>1136.0</ele><time>2026-04-19T10:23:11.763Z</time></trkpt><trkpt lat="42.5019909" lon="13.3944443"><ele>1134.3333333333335</ele><time>2026-04-19T10:23:12.762Z</time></trkpt><trkpt lat="42.5019171" lon="13.3942054"><ele>1132.6666666666667</ele><time>2026-04-19T10:23:13.762Z</time></trkpt><trkpt lat="42.5017964" lon="13.3939719"><ele>1131.0</ele><time>2026-04-19T10:23:14.763Z</time></trkpt><trkpt lat="42.5016606" lon="13.3937799"><ele>1131.0</ele><time>2026-04-19T10:23:15.763Z</time></trkpt><trkpt lat="42.5015065" lon="13.3936103"><ele>1131.0</ele><time>2026-04-19T10:23:16.762Z</time></trkpt><trkpt lat="42.5013507" lon="13.393466"><ele>1131.0</ele><time>2026-04-19T10:23:17.763Z</time></trkpt><trkpt lat="42.5011993" lon="13.393353"><ele>1125.25</ele><time>2026-04-19T10:23:18.762Z</time></trkpt><trkpt lat="42.5010776" lon="13.3932485"><ele>1119.5</ele><time>2026-04-19T10:23:19.763Z</time></trkpt><trkpt lat="42.5009827" lon="13.3931242"><ele>1113.75</ele><time>2026-04-19T10:23:20.763Z</time></trkpt><trkpt lat="42.5009263" lon="13.3929712"><ele>1108.0</ele><time>2026-04-19T10:23:21.762Z</time></trkpt><trkpt lat="42.5009171" lon="13.3927917"><ele>1108.0</ele><time>2026-04-19T10:23:22.762Z</time></trkpt><trkpt lat="42.5009224" lon="13.3925776"><ele>1108.0</ele><time>2026-04-19T10:23:23.762Z</time></trkpt><trkpt lat="42.500917" lon="13.3923491"><ele>1108.0</ele><time>2026-04-19T10:23:24.763Z</time></trkpt><trkpt lat="42.5008821" lon="13.3921122"><ele>1108.3333333333333</ele><time>2026-04-19T10:23:25.763Z</time></trkpt><trkpt lat="42.5008272" lon="13.3918856"><ele>1108.6666666666667</ele><time>2026-04-19T10:23:26.763Z</time></trkpt><trkpt lat="42.5007568" lon="13.3916815"><ele>1109.0</ele><time>2026-04-19T10:23:27.762Z</time></trkpt><trkpt lat="42.500644" lon="13.391512"><ele>1109.0</ele><time>2026-04-19T10:23:28.762Z</time></trkpt><trkpt lat="42.500494" lon="13.3913634"><ele>1109.0</ele><time>2026-04-19T10:23:29.763Z</time></trkpt><trkpt lat="42.5003044" lon="13.3912417"><ele>1109.0</ele><time>2026-04-19T10:23:30.763Z</time></trkpt><trkpt lat="42.5001014" lon="13.3911329"><ele>1112.0</ele><time>2026-04-19T10:23:31.762Z</time></trkpt><trkpt lat="42.4999083" lon="13.3910291"><ele>1115.0</ele><time>2026-04-19T10:23:32.763Z</time></trkpt><trkpt lat="42.4997401" lon="13.3908918"><ele>1118.0</ele><time>2026-04-19T10:23:33.762Z</time></trkpt><trkpt lat="42.4995883" lon="13.3907054"><ele>1117.0</ele><time>2026-04-19T10:23:34.762Z</time></trkpt><trkpt lat="42.4994397" lon="13.390473"><ele>1116.0</ele><time>2026-04-19T10:23:35.762Z</time></trkpt><trkpt lat="42.4992818" lon="13.3902055"><ele>1116.0</ele><time>2026-04-19T10:23:36.763Z</time></trkpt><trkpt lat="42.4991391" lon="13.3899355"><ele>1116.0</ele><time>2026-04-19T10:23:37.762Z</time></trkpt><trkpt lat="42.4990079" lon="13.3896852"><ele>1119.6666666666667</ele><time>2026-04-19T10:23:38.762Z</time></trkpt><trkpt lat="42.4989037" lon="13.3894434"><ele>1123.3333333333335</ele><time>2026-04-19T10:23:39.762Z</time></trkpt><trkpt lat="42.4988198" lon="13.3891966"><ele>1127.0</ele><time>2026-04-19T10:23:40.762Z</time></trkpt><trkpt lat="42.4987822" lon="13.3889215"><ele>1128.0</ele><time>2026-04-19T10:23:41.762Z</time></trkpt><trkpt lat="42.4987616" lon="13.388624"><ele>1129.0</ele><time>2026-04-19T10:23:42.762Z</time></trkpt><trkpt lat="42.4987322" lon="13.3883347"><ele>1130.0</ele><time>2026-04-19T10:23:43.762Z</time></trkpt><trkpt lat="42.4986673" lon="13.3880502"><ele>1123.5</ele><time>2026-04-19T10:23:44.762Z</time></trkpt><trkpt lat="42.4985627" lon="13.3877514"><ele>1117.0</ele><time>2026-04-19T10:23:45.763Z</time></trkpt><trkpt lat="42.498426" lon="13.3874663"><ele>1117.0</ele><time>2026-04-19T10:23:46.763Z</time></trkpt><trkpt lat="42.4982738" lon="13.3872098"><ele>1117.0</ele><time>2026-04-19T10:23:47.762Z</time></trkpt><trkpt lat="42.4980913" lon="13.3869558"><ele>1116.0</ele><time>2026-04-19T10:23:48.762Z</time></trkpt><trkpt lat="42.4978696" lon="13.3867114"><ele>1115.0</ele><time>2026-04-19T10:23:49.763Z</time></trkpt><trkpt lat="42.4976306" lon="13.3864713"><ele>1122.5</ele><time>2026-04-19T10:23:50.762Z</time></trkpt><trkpt lat="42.4973868" lon="13.3862408"><ele>1130.0</ele><time>2026-04-19T10:23:51.762Z</time></trkpt><trkpt lat="42.4971505" lon="13.3860309"><ele>1124.5</ele><time>2026-04-19T10:23:52.763Z</time></trkpt><trkpt lat="42.4969359" lon="13.3858288"><ele>1119.0</ele><time>2026-04-19T10:23:53.762Z</time></trkpt><trkpt lat="42.4967334" lon="13.3856472"><ele>1131.5</ele><time>2026-04-19T10:23:54.762Z</time></trkpt><trkpt lat="42.4965303" lon="13.3854711"><ele>1144.0</ele><time>2026-04-19T10:23:55.763Z</time></trkpt><trkpt lat="42.4963063" lon="13.3853363"><ele>1139.0</ele><time>2026-04-19T10:23:56.762Z</time></trkpt><trkpt lat="42.4960674" lon="13.3852388"><ele>1134.0</ele><time>2026-04-19T10:23:57.763Z</time></trkpt><trkpt lat="42.4958353" lon="13.385189"><ele>1134.0</ele><time>2026-04-19T10:23:58.763Z</time></trkpt><trkpt lat="42.4956085" lon="13.3851768"><ele>1134.0</ele><time>2026-04-19T10:23:59.762Z</time></trkpt><trkpt lat="42.4953971" lon="13.385186"><ele>1134.0</ele><time>2026-04-19T10:24:00.762Z</time></trkpt><trkpt lat="42.4952122" lon="13.3851939"><ele>1133.0</ele><time>2026-04-19T10:24:01.762Z</time></trkpt><trkpt lat="42.4950407" lon="13.385176"><ele>1132.0</ele><time>2026-04-19T10:24:02.762Z</time></trkpt><trkpt lat="42.4948908" lon="13.3851197"><ele>1131.0</ele><time>2026-04-19T10:24:03.762Z</time></trkpt><trkpt lat="42.4947711" lon="13.3850062"><ele>1131.0</ele><time>2026-04-19T10:24:04.762Z</time></trkpt><trkpt lat="42.4946812" lon="13.3848569"><ele>1131.0</ele><time>2026-04-19T10:24:05.762Z</time></trkpt><trkpt lat="42.4946281" lon="13.3846689"><ele>1131.0</ele><time>2026-04-19T10:24:06.762Z</time></trkpt><trkpt lat="42.494611" lon="13.3844504"><ele>1134.0</ele><time>2026-04-19T10:24:07.763Z</time></trkpt><trkpt lat="42.4946357" lon="13.3842044"><ele>1137.0</ele><time>2026-04-19T10:24:08.763Z</time></trkpt><trkpt lat="42.4946791" lon="13.3839336"><ele>1140.0</ele><time>2026-04-19T10:24:09.762Z</time></trkpt><trkpt lat="42.4947422" lon="13.3836424"><ele>1141.0</ele><time>2026-04-19T10:24:10.763Z</time></trkpt><trkpt lat="42.4947947" lon="13.3833405"><ele>1142.0</ele><time>2026-04-19T10:24:11.763Z</time></trkpt><trkpt lat="42.4948225" lon="13.3830381"><ele>1142.6666666666667</ele><time>2026-04-19T10:24:12.762Z</time></trkpt><trkpt lat="42.4948393" lon="13.3827708"><ele>1143.3333333333333</ele><time>2026-04-19T10:24:13.762Z</time></trkpt><trkpt lat="42.4948369" lon="13.3825117"><ele>1144.0</ele><time>2026-04-19T10:24:14.762Z</time></trkpt><trkpt lat="42.494787" lon="13.3822504"><ele>1145.6666666666665</ele><time>2026-04-19T10:24:15.762Z</time></trkpt><trkpt lat="42.494707" lon="13.3819705"><ele>1147.3333333333333</ele><time>2026-04-19T10:24:16.762Z</time></trkpt><trkpt lat="42.4946135" lon="13.3816963"><ele>1149.0</ele><time>2026-04-19T10:24:17.762Z</time></trkpt><trkpt lat="42.4945185" lon="13.3814069"><ele>1143.0</ele><time>2026-04-19T10:24:18.762Z</time></trkpt><trkpt lat="42.4943974" lon="13.3811451"><ele>1137.0</ele><time>2026-04-19T10:24:19.763Z</time></trkpt><trkpt lat="42.4942728" lon="13.380894"><ele>1137.0</ele><time>2026-04-19T10:24:20.763Z</time></trkpt><trkpt lat="42.4941518" lon="13.380627"><ele>1137.0</ele><time>2026-04-19T10:24:21.763Z</time></trkpt><trkpt lat="42.494047" lon="13.3803184"><ele>1140.0</ele><time>2026-04-19T10:24:22.763Z</time></trkpt><trkpt lat="42.4939476" lon="13.3799835"><ele>1143.0</ele><time>2026-04-19T10:24:23.762Z</time></trkpt><trkpt lat="42.4938594" lon="13.3796291"><ele>1144.5</ele><time>2026-04-19T10:24:24.763Z</time></trkpt><trkpt lat="42.4937713" lon="13.3792544"><ele>1146.0</ele><time>2026-04-19T10:24:25.762Z</time></trkpt><trkpt lat="42.4937133" lon="13.3788448"><ele>1142.0</ele><time>2026-04-19T10:24:26.762Z</time></trkpt><trkpt lat="42.4936685" lon="13.3784382"><ele>1138.0</ele><time>2026-04-19T10:24:27.762Z</time></trkpt><trkpt lat="42.4936173" lon="13.3780584"><ele>1139.0</ele><time>2026-04-19T10:24:28.762Z</time></trkpt><trkpt lat="42.493561" lon="13.3776905"><ele>1140.0</ele><time>2026-04-19T10:24:29.762Z</time></trkpt><trkpt lat="42.4934888" lon="13.377334"><ele>1143.0</ele><time>2026-04-19T10:24:30.762Z</time></trkpt><trkpt lat="42.4933961" lon="13.3770149"><ele>1146.0</ele><time>2026-04-19T10:24:31.762Z</time></trkpt><trkpt lat="42.4932868" lon="13.3767141"><ele>1146.0</ele><time>2026-04-19T10:24:32.763Z</time></trkpt><trkpt lat="42.49319" lon="13.3764204"><ele>1146.0</ele><time>2026-04-19T10:24:33.762Z</time></trkpt><trkpt lat="42.4931317" lon="13.3760998"><ele>1147.0</ele><time>2026-04-19T10:24:34.762Z</time></trkpt><trkpt lat="42.493104" lon="13.3757604"><ele>1148.0</ele><time>2026-04-19T10:24:35.762Z</time></trkpt><trkpt lat="42.4930966" lon="13.3754258"><ele>1146.0</ele><time>2026-04-19T10:24:36.763Z</time></trkpt><trkpt lat="42.4931005" lon="13.3751083"><ele>1144.0</ele><time>2026-04-19T10:24:37.763Z</time></trkpt><trkpt lat="42.4931003" lon="13.374799"><ele>1143.5</ele><time>2026-04-19T10:24:38.762Z</time></trkpt><trkpt lat="42.4931058" lon="13.3744924"><ele>1143.0</ele><time>2026-04-19T10:24:39.762Z</time></trkpt><trkpt lat="42.4931289" lon="13.3741896"><ele>1143.0</ele><time>2026-04-19T10:24:40.763Z</time></trkpt><trkpt lat="42.4931974" lon="13.3738652"><ele>1143.0</ele><time>2026-04-19T10:24:41.762Z</time></trkpt><trkpt lat="42.4932901" lon="13.3735172"><ele>1142.5</ele><time>2026-04-19T10:24:42.762Z</time></trkpt><trkpt lat="42.4933957" lon="13.3731617"><ele>1142.0</ele><time>2026-04-19T10:24:43.763Z</time></trkpt><trkpt lat="42.4935136" lon="13.3728051"><ele>1142.0</ele><time>2026-04-19T10:24:44.762Z</time></trkpt><trkpt lat="42.4936288" lon="13.3724591"><ele>1142.0</ele><time>2026-04-19T10:24:45.763Z</time></trkpt><trkpt lat="42.493735" lon="13.372133"><ele>1144.0</ele><time>2026-04-19T10:24:46.763Z</time></trkpt><trkpt lat="42.4938329" lon="13.3718243"><ele>1146.0</ele><time>2026-04-19T10:24:47.763Z</time></trkpt><trkpt lat="42.493909" lon="13.3715245"><ele>1145.6666666666667</ele><time>2026-04-19T10:24:48.763Z</time></trkpt><trkpt lat="42.4939601" lon="13.3712525"><ele>1145.3333333333335</ele><time>2026-04-19T10:24:49.763Z</time></trkpt><trkpt lat="42.4939822" lon="13.3710064"><ele>1145.0</ele><time>2026-04-19T10:24:50.762Z</time></trkpt><trkpt lat="42.4939558" lon="13.3707559"><ele>1145.0</ele><time>2026-04-19T10:24:51.762Z</time></trkpt><trkpt lat="42.4938807" lon="13.3705094"><ele>1145.0</ele><time>2026-04-19T10:24:52.762Z</time></trkpt><trkpt lat="42.4937633" lon="13.3702586"><ele>1145.0</ele><time>2026-04-19T10:24:53.762Z</time></trkpt><trkpt lat="42.4936193" lon="13.3700064"><ele>1145.0</ele><time>2026-04-19T10:24:54.763Z</time></trkpt><trkpt lat="42.4934621" lon="13.3697546"><ele>1145.0</ele><time>2026-04-19T10:24:55.763Z</time></trkpt><trkpt lat="42.4933003" lon="13.3694972"><ele>1145.0</ele><time>2026-04-19T10:24:56.763Z</time></trkpt><trkpt lat="42.4931192" lon="13.3692364"><ele>1145.0</ele><time>2026-04-19T10:24:57.762Z</time></trkpt><trkpt lat="42.4929346" lon="13.3689885"><ele>1145.0</ele><time>2026-04-19T10:24:58.762Z</time></trkpt><trkpt lat="42.4927423" lon="13.3687362"><ele>1145.0</ele><time>2026-04-19T10:24:59.763Z</time></trkpt><trkpt lat="42.4925405" lon="13.3685089"><ele>1145.0</ele><time>2026-04-19T10:25:00.762Z</time></trkpt><trkpt lat="42.4923362" lon="13.3683077"><ele>1145.0</ele><time>2026-04-19T10:25:01.762Z</time></trkpt><trkpt lat="42.492121" lon="13.3681276"><ele>1145.0</ele><time>2026-04-19T10:25:02.763Z</time></trkpt><trkpt lat="42.4918732" lon="13.3679902"><ele>1145.0</ele><time>2026-04-19T10:25:03.763Z</time></trkpt><trkpt lat="42.4916067" lon="13.3678731"><ele>1145.0</ele><time>2026-04-19T10:25:04.762Z</time></trkpt><trkpt lat="42.4913385" lon="13.3677673"><ele>1145.0</ele><time>2026-04-19T10:25:05.762Z</time></trkpt><trkpt lat="42.4910748" lon="13.3676679"><ele>1145.5</ele><time>2026-04-19T10:25:06.762Z</time></trkpt><trkpt lat="42.49083" lon="13.3675711"><ele>1146.0</ele><time>2026-04-19T10:25:07.762Z</time></trkpt><trkpt lat="42.4905983" lon="13.3674813"><ele>1147.3333333333333</ele><time>2026-04-19T10:25:08.763Z</time></trkpt><trkpt lat="42.4903828" lon="13.3673845"><ele>1148.6666666666665</ele><time>2026-04-19T10:25:09.763Z</time></trkpt><trkpt lat="42.4901748" lon="13.3672835"><ele>1150.0</ele><time>2026-04-19T10:25:10.763Z</time></trkpt><trkpt lat="42.4899849" lon="13.3671683"><ele>1151.6666666666665</ele><time>2026-04-19T10:25:11.762Z</time></trkpt><trkpt lat="42.4898121" lon="13.3670349"><ele>1153.3333333333333</ele><time>2026-04-19T10:25:12.762Z</time></trkpt><trkpt lat="42.4896404" lon="13.3668733"><ele>1155.0</ele><time>2026-04-19T10:25:13.763Z</time></trkpt><trkpt lat="42.4894614" lon="13.3666879"><ele>1155.0</ele><time>2026-04-19T10:25:14.763Z</time></trkpt><trkpt lat="42.489283" lon="13.3664631"><ele>1155.0</ele><time>2026-04-19T10:25:15.762Z</time></trkpt><trkpt lat="42.4890996" lon="13.3662389"><ele>1154.5</ele><time>2026-04-19T10:25:16.763Z</time></trkpt><trkpt lat="42.4889158" lon="13.3660066"><ele>1154.0</ele><time>2026-04-19T10:25:17.762Z</time></trkpt><trkpt lat="42.488735" lon="13.3657685"><ele>1154.0</ele><time>2026-04-19T10:25:18.762Z</time></trkpt><trkpt lat="42.4885481" lon="13.3655298"><ele>1154.0</ele><time>2026-04-19T10:25:19.763Z</time></trkpt><trkpt lat="42.4883694" lon="13.3652978"><ele>1154.6666666666667</ele><time>2026-04-19T10:25:20.762Z</time></trkpt><trkpt lat="42.488203" lon="13.365086"><ele>1155.3333333333333</ele><time>2026-04-19T10:25:21.762Z</time></trkpt><trkpt lat="42.4880542" lon="13.3648923"><ele>1156.0</ele><time>2026-04-19T10:25:22.762Z</time></trkpt><trkpt lat="42.4879271" lon="13.3647322"><ele>1156.2</ele><time>2026-04-19T10:25:23.762Z</time></trkpt><trkpt lat="42.4878168" lon="13.3645953"><ele>1156.3999999999999</ele><time>2026-04-19T10:25:24.762Z</time></trkpt><trkpt lat="42.4877157" lon="13.3644894"><ele>1156.6</ele><time>2026-04-19T10:25:25.763Z</time></trkpt><trkpt lat="42.4876399" lon="13.3644162"><ele>1156.8</ele><time>2026-04-19T10:25:26.762Z</time></trkpt><trkpt lat="42.4875888" lon="13.3643626"><ele>1157.0</ele><time>2026-04-19T10:25:27.763Z</time></trkpt><trkpt lat="42.4875145" lon="13.3642648"><ele>1157.0</ele><time>2026-04-19T10:25:29.762Z</time></trkpt><trkpt lat="42.4874378" lon="13.3641565"><ele>1157.0</ele><time>2026-04-19T10:25:31.763Z</time></trkpt><trkpt lat="42.4873759" lon="13.3640933"><ele>1157.0</ele><time>2026-04-19T10:25:32.762Z</time></trkpt><trkpt lat="42.4873124" lon="13.3640152"><ele>1157.0</ele><time>2026-04-19T10:25:33.762Z</time></trkpt><trkpt lat="42.4872503" lon="13.3639346"><ele>1157.0</ele><time>2026-04-19T10:25:34.763Z</time></trkpt><trkpt lat="42.4871916" lon="13.3638605"><ele>1157.0</ele><time>2026-04-19T10:25:35.762Z</time></trkpt><trkpt lat="42.4871308" lon="13.3638057"><ele>1158.8333333333335</ele><time>2026-04-19T10:25:36.762Z</time></trkpt><trkpt lat="42.4870662" lon="13.3637536"><ele>1160.6666666666667</ele><time>2026-04-19T10:25:37.762Z</time></trkpt><trkpt lat="42.4870008" lon="13.3637071"><ele>1162.5</ele><time>2026-04-19T10:25:38.762Z</time></trkpt><trkpt lat="42.4869277" lon="13.3636722"><ele>1164.3333333333333</ele><time>2026-04-19T10:25:39.762Z</time></trkpt><trkpt lat="42.4868531" lon="13.3636685"><ele>1166.1666666666665</ele><time>2026-04-19T10:25:40.762Z</time></trkpt><trkpt lat="42.4867534" lon="13.3636639"><ele>1168.0</ele><time>2026-04-19T10:25:42.762Z</time></trkpt><trkpt lat="42.4866949" lon="13.3635918"><ele>1168.0</ele><time>2026-04-19T10:25:44.762Z</time></trkpt><trkpt lat="42.4867039" lon="13.3634631"><ele>1168.0</ele><time>2026-04-19T10:25:46.762Z</time></trkpt><trkpt lat="42.4867368" lon="13.3633646"><ele>1168.0</ele><time>2026-04-19T10:25:47.762Z</time></trkpt><trkpt lat="42.4867783" lon="13.3632273"><ele>1168.0</ele><time>2026-04-19T10:25:48.762Z</time></trkpt><trkpt lat="42.4868227" lon="13.3630602"><ele>1168.0</ele><time>2026-04-19T10:25:49.762Z</time></trkpt><trkpt lat="42.486865" lon="13.3628732"><ele>1169.6666666666665</ele><time>2026-04-19T10:25:50.763Z</time></trkpt><trkpt lat="42.4868858" lon="13.3626579"><ele>1171.3333333333333</ele><time>2026-04-19T10:25:51.762Z</time></trkpt><trkpt lat="42.4868896" lon="13.3623933"><ele>1173.0</ele><time>2026-04-19T10:25:52.763Z</time></trkpt><trkpt lat="42.4868784" lon="13.3620995"><ele>1174.0</ele><time>2026-04-19T10:25:53.763Z</time></trkpt><trkpt lat="42.4868644" lon="13.3617713"><ele>1175.0</ele><time>2026-04-19T10:25:54.762Z</time></trkpt><trkpt lat="42.4868507" lon="13.3614261"><ele>1175.0</ele><time>2026-04-19T10:25:55.762Z</time></trkpt><trkpt lat="42.4868342" lon="13.361095"><ele>1175.0</ele><time>2026-04-19T10:25:56.763Z</time></trkpt><trkpt lat="42.4868189" lon="13.3607801"><ele>1176.3333333333335</ele><time>2026-04-19T10:25:57.762Z</time></trkpt><trkpt lat="42.4868042" lon="13.3604958"><ele>1177.6666666666667</ele><time>2026-04-19T10:25:58.769Z</time></trkpt><trkpt lat="42.4867901" lon="13.3602371"><ele>1179.0</ele><time>2026-04-19T10:25:59.769Z</time></trkpt><trkpt lat="42.4867811" lon="13.3599935"><ele>1179.0</ele><time>2026-04-19T10:26:00.769Z</time></trkpt><trkpt lat="42.486788" lon="13.3597886"><ele>1179.0</ele><time>2026-04-19T10:26:01.769Z</time></trkpt><trkpt lat="42.4868329" lon="13.3596281"><ele>1179.0</ele><time>2026-04-19T10:26:02.769Z</time></trkpt><trkpt lat="42.4869134" lon="13.3594951"><ele>1179.0</ele><time>2026-04-19T10:26:03.769Z</time></trkpt><trkpt lat="42.4870152" lon="13.3594041"><ele>1179.5</ele><time>2026-04-19T10:26:04.77Z</time></trkpt><trkpt lat="42.4871443" lon="13.3593519"><ele>1180.0</ele><time>2026-04-19T10:26:05.77Z</time></trkpt><trkpt lat="42.487294" lon="13.359367"><ele>1180.5</ele><time>2026-04-19T10:26:06.769Z</time></trkpt><trkpt lat="42.4874434" lon="13.3594314"><ele>1181.0</ele><time>2026-04-19T10:26:07.77Z</time></trkpt><trkpt lat="42.4875702" lon="13.3595179"><ele>1181.0</ele><time>2026-04-19T10:26:08.769Z</time></trkpt><trkpt lat="42.4876915" lon="13.3596628"><ele>1181.0</ele><time>2026-04-19T10:26:09.769Z</time></trkpt><trkpt lat="42.4878088" lon="13.3597921"><ele>1181.0</ele><time>2026-04-19T10:26:10.769Z</time></trkpt><trkpt lat="42.487935" lon="13.3598838"><ele>1181.0</ele><time>2026-04-19T10:26:11.769Z</time></trkpt><trkpt lat="42.4880597" lon="13.3599246"><ele>1181.0</ele><time>2026-04-19T10:26:12.769Z</time></trkpt><trkpt lat="42.4881719" lon="13.3599028"><ele>1181.0</ele><time>2026-04-19T10:26:13.77Z</time></trkpt><trkpt lat="42.4883012" lon="13.3598071"><ele>1181.0</ele><time>2026-04-19T10:26:14.77Z</time></trkpt><trkpt lat="42.4884295" lon="13.359685"><ele>1181.0</ele><time>2026-04-19T10:26:15.769Z</time></trkpt><trkpt lat="42.4885697" lon="13.3595325"><ele>1181.0</ele><time>2026-04-19T10:26:16.769Z</time></trkpt><trkpt lat="42.4887188" lon="13.3593654"><ele>1181.0</ele><time>2026-04-19T10:26:17.77Z</time></trkpt><trkpt lat="42.4888614" lon="13.3592141"><ele>1180.3333333333335</ele><time>2026-04-19T10:26:18.77Z</time></trkpt><trkpt lat="42.4889812" lon="13.3590663"><ele>1179.6666666666667</ele><time>2026-04-19T10:26:19.769Z</time></trkpt><trkpt lat="42.489076" lon="13.3589072"><ele>1179.0</ele><time>2026-04-19T10:26:20.769Z</time></trkpt><trkpt lat="42.489137" lon="13.3587033"><ele>1181.0</ele><time>2026-04-19T10:26:21.769Z</time></trkpt><trkpt lat="42.4891736" lon="13.3584698"><ele>1183.0</ele><time>2026-04-19T10:26:22.769Z</time></trkpt><trkpt lat="42.4892068" lon="13.3582132"><ele>1185.0</ele><time>2026-04-19T10:26:23.769Z</time></trkpt><trkpt lat="42.4892316" lon="13.3579874"><ele>1186.75</ele><time>2026-04-19T10:26:24.77Z</time></trkpt><trkpt lat="42.4892597" lon="13.357792"><ele>1188.5</ele><time>2026-04-19T10:26:25.769Z</time></trkpt><trkpt lat="42.4893196" lon="13.3576375"><ele>1190.25</ele><time>2026-04-19T10:26:26.769Z</time></trkpt><trkpt lat="42.4894039" lon="13.3575243"><ele>1192.0</ele><time>2026-04-19T10:26:27.769Z</time></trkpt><trkpt lat="42.4894952" lon="13.3574828"><ele>1191.0</ele><time>2026-04-19T10:26:28.769Z</time></trkpt><trkpt lat="42.4895998" lon="13.3574953"><ele>1190.0</ele><time>2026-04-19T10:26:29.769Z</time></trkpt><trkpt lat="42.4897232" lon="13.3575332"><ele>1189.0</ele><time>2026-04-19T10:26:30.769Z</time></trkpt><trkpt lat="42.4898753" lon="13.3575992"><ele>1188.0</ele><time>2026-04-19T10:26:31.77Z</time></trkpt><trkpt lat="42.490034" lon="13.3576852"><ele>1188.0</ele><time>2026-04-19T10:26:32.769Z</time></trkpt><trkpt lat="42.4901838" lon="13.3578162"><ele>1188.0</ele><time>2026-04-19T10:26:33.769Z</time></trkpt><trkpt lat="42.4903109" lon="13.3579823"><ele>1188.0</ele><time>2026-04-19T10:26:34.769Z</time></trkpt><trkpt lat="42.4904181" lon="13.358145"><ele>1188.75</ele><time>2026-04-19T10:26:35.769Z</time></trkpt><trkpt lat="42.4905274" lon="13.3582899"><ele>1189.5</ele><time>2026-04-19T10:26:36.77Z</time></trkpt><trkpt lat="42.4906424" lon="13.3583713"><ele>1190.25</ele><time>2026-04-19T10:26:37.769Z</time></trkpt><trkpt lat="42.4907791" lon="13.3583935"><ele>1191.0</ele><time>2026-04-19T10:26:38.769Z</time></trkpt><trkpt lat="42.4909263" lon="13.3583606"><ele>1191.0</ele><time>2026-04-19T10:26:39.77Z</time></trkpt><trkpt lat="42.4910609" lon="13.3582584"><ele>1191.0</ele><time>2026-04-19T10:26:40.769Z</time></trkpt><trkpt lat="42.4912061" lon="13.3581295"><ele>1191.0</ele><time>2026-04-19T10:26:41.769Z</time></trkpt><trkpt lat="42.4913319" lon="13.3579901"><ele>1192.5</ele><time>2026-04-19T10:26:42.77Z</time></trkpt><trkpt lat="42.4914465" lon="13.357885"><ele>1194.0</ele><time>2026-04-19T10:26:43.77Z</time></trkpt><trkpt lat="42.4915692" lon="13.3578152"><ele>1195.5</ele><time>2026-04-19T10:26:44.769Z</time></trkpt><trkpt lat="42.491691" lon="13.3578111"><ele>1197.0</ele><time>2026-04-19T10:26:45.769Z</time></trkpt><trkpt lat="42.4918127" lon="13.357851"><ele>1197.0</ele><time>2026-04-19T10:26:46.769Z</time></trkpt><trkpt lat="42.49192" lon="13.3579177"><ele>1197.0</ele><time>2026-04-19T10:26:47.77Z</time></trkpt><trkpt lat="42.4920025" lon="13.3580293"><ele>1197.0</ele><time>2026-04-19T10:26:48.769Z</time></trkpt><trkpt lat="42.4920424" lon="13.3581662"><ele>1197.0</ele><time>2026-04-19T10:26:49.769Z</time></trkpt><trkpt lat="42.4920294" lon="13.3583171"><ele>1195.5</ele><time>2026-04-19T10:26:50.769Z</time></trkpt><trkpt lat="42.4919943" lon="13.3584744"><ele>1194.0</ele><time>2026-04-19T10:26:51.77Z</time></trkpt><trkpt lat="42.4919563" lon="13.3586553"><ele>1192.5</ele><time>2026-04-19T10:26:52.769Z</time></trkpt><trkpt lat="42.491937" lon="13.3588441"><ele>1191.0</ele><time>2026-04-19T10:26:53.77Z</time></trkpt><trkpt lat="42.4919678" lon="13.3590064"><ele>1190.25</ele><time>2026-04-19T10:26:54.769Z</time></trkpt><trkpt lat="42.4920434" lon="13.3591691"><ele>1189.5</ele><time>2026-04-19T10:26:55.77Z</time></trkpt><trkpt lat="42.4921474" lon="13.3593148"><ele>1188.75</ele><time>2026-04-19T10:26:56.769Z</time></trkpt><trkpt lat="42.4922704" lon="13.359424"><ele>1188.0</ele><time>2026-04-19T10:26:57.769Z</time></trkpt><trkpt lat="42.4924078" lon="13.3594711"><ele>1191.0</ele><time>2026-04-19T10:26:58.769Z</time></trkpt><trkpt lat="42.4925793" lon="13.3594541"><ele>1194.0</ele><time>2026-04-19T10:26:59.77Z</time></trkpt><trkpt lat="42.4927568" lon="13.359409"><ele>1197.0</ele><time>2026-04-19T10:27:00.769Z</time></trkpt><trkpt lat="42.4929541" lon="13.3593621"><ele>1199.6666666666667</ele><time>2026-04-19T10:27:01.77Z</time></trkpt><trkpt lat="42.4931472" lon="13.3593318"><ele>1202.3333333333335</ele><time>2026-04-19T10:27:02.769Z</time></trkpt><trkpt lat="42.4933258" lon="13.3593499"><ele>1205.0</ele><time>2026-04-19T10:27:03.77Z</time></trkpt><trkpt lat="42.493488" lon="13.3594379"><ele>1205.0</ele><time>2026-04-19T10:27:04.769Z</time></trkpt><trkpt lat="42.4936418" lon="13.3595677"><ele>1205.0</ele><time>2026-04-19T10:27:05.77Z</time></trkpt><trkpt lat="42.4937847" lon="13.359719"><ele>1205.0</ele><time>2026-04-19T10:27:06.769Z</time></trkpt><trkpt lat="42.4939348" lon="13.3598478"><ele>1205.0</ele><time>2026-04-19T10:27:07.77Z</time></trkpt><trkpt lat="42.4941148" lon="13.3599377"><ele>1205.0</ele><time>2026-04-19T10:27:08.769Z</time></trkpt><trkpt lat="42.4943023" lon="13.359979"><ele>1205.0</ele><time>2026-04-19T10:27:09.769Z</time></trkpt><trkpt lat="42.4944643" lon="13.3599813"><ele>1209.0</ele><time>2026-04-19T10:27:10.769Z</time></trkpt><trkpt lat="42.4946081" lon="13.3600149"><ele>1213.0</ele><time>2026-04-19T10:27:11.77Z</time></trkpt><trkpt lat="42.4947384" lon="13.3601169"><ele>1217.0</ele><time>2026-04-19T10:27:12.77Z</time></trkpt><trkpt lat="42.4948775" lon="13.3602633"><ele>1217.0</ele><time>2026-04-19T10:27:13.769Z</time></trkpt><trkpt lat="42.4950043" lon="13.3604469"><ele>1217.0</ele><time>2026-04-19T10:27:14.77Z</time></trkpt><trkpt lat="42.4951433" lon="13.3606081"><ele>1217.0</ele><time>2026-04-19T10:27:15.77Z</time></trkpt><trkpt lat="42.4952647" lon="13.3607492"><ele>1215.5</ele><time>2026-04-19T10:27:16.77Z</time></trkpt><trkpt lat="42.4953615" lon="13.3608611"><ele>1214.0</ele><time>2026-04-19T10:27:17.77Z</time></trkpt><trkpt lat="42.4954792" lon="13.3609098"><ele>1212.5</ele><time>2026-04-19T10:27:18.769Z</time></trkpt><trkpt lat="42.4955871" lon="13.3608807"><ele>1211.0</ele><time>2026-04-19T10:27:19.769Z</time></trkpt><trkpt lat="42.4956649" lon="13.3607854"><ele>1211.0</ele><time>2026-04-19T10:27:20.77Z</time></trkpt><trkpt lat="42.4957108" lon="13.3606612"><ele>1211.0</ele><time>2026-04-19T10:27:21.769Z</time></trkpt><trkpt lat="42.4957178" lon="13.3605056"><ele>1211.0</ele><time>2026-04-19T10:27:22.769Z</time></trkpt><trkpt lat="42.4957085" lon="13.36029"><ele>1211.0</ele><time>2026-04-19T10:27:23.769Z</time></trkpt><trkpt lat="42.4956815" lon="13.3600139"><ele>1210.0</ele><time>2026-04-19T10:27:24.769Z</time></trkpt><trkpt lat="42.4956542" lon="13.3597244"><ele>1209.0</ele><time>2026-04-19T10:27:25.77Z</time></trkpt><trkpt lat="42.4956022" lon="13.3594538"><ele>1208.0</ele><time>2026-04-19T10:27:26.769Z</time></trkpt><trkpt lat="42.4955335" lon="13.3592187"><ele>1209.0</ele><time>2026-04-19T10:27:27.77Z</time></trkpt><trkpt lat="42.49547" lon="13.358998"><ele>1210.0</ele><time>2026-04-19T10:27:28.769Z</time></trkpt><trkpt lat="42.4954474" lon="13.3587695"><ele>1211.0</ele><time>2026-04-19T10:27:29.769Z</time></trkpt><trkpt lat="42.4954576" lon="13.358542"><ele>1211.0</ele><time>2026-04-19T10:27:30.77Z</time></trkpt><trkpt lat="42.4954952" lon="13.3583276"><ele>1211.0</ele><time>2026-04-19T10:27:31.769Z</time></trkpt><trkpt lat="42.495567" lon="13.3581361"><ele>1211.0</ele><time>2026-04-19T10:27:32.77Z</time></trkpt><trkpt lat="42.49567" lon="13.3579938"><ele>1214.5</ele><time>2026-04-19T10:27:33.769Z</time></trkpt><trkpt lat="42.4957861" lon="13.3578814"><ele>1218.0</ele><time>2026-04-19T10:27:34.769Z</time></trkpt><trkpt lat="42.4959269" lon="13.3578197"><ele>1221.5</ele><time>2026-04-19T10:27:35.769Z</time></trkpt><trkpt lat="42.4960762" lon="13.3578073"><ele>1225.0</ele><time>2026-04-19T10:27:36.769Z</time></trkpt><trkpt lat="42.4962341" lon="13.3578167"><ele>1222.5</ele><time>2026-04-19T10:27:37.77Z</time></trkpt><trkpt lat="42.4963785" lon="13.3578151"><ele>1220.0</ele><time>2026-04-19T10:27:38.77Z</time></trkpt><trkpt lat="42.4965088" lon="13.3577859"><ele>1217.5</ele><time>2026-04-19T10:27:39.769Z</time></trkpt><trkpt lat="42.4966279" lon="13.3577046"><ele>1215.0</ele><time>2026-04-19T10:27:40.769Z</time></trkpt><trkpt lat="42.4967222" lon="13.3575743"><ele>1215.0</ele><time>2026-04-19T10:27:41.77Z</time></trkpt><trkpt lat="42.4967878" lon="13.3574151"><ele>1215.0</ele><time>2026-04-19T10:27:42.769Z</time></trkpt><trkpt lat="42.4968374" lon="13.3572413"><ele>1215.0</ele><time>2026-04-19T10:27:43.77Z</time></trkpt><trkpt lat="42.4968502" lon="13.3570798"><ele>1215.0</ele><time>2026-04-19T10:27:44.77Z</time></trkpt><trkpt lat="42.4968126" lon="13.3569048"><ele>1215.0</ele><time>2026-04-19T10:27:45.769Z</time></trkpt><trkpt lat="42.4967375" lon="13.3567711"><ele>1215.0</ele><time>2026-04-19T10:27:46.769Z</time></trkpt><trkpt lat="42.4966259" lon="13.3566452"><ele>1215.0</ele><time>2026-04-19T10:27:47.769Z</time></trkpt><trkpt lat="42.4964911" lon="13.356529"><ele>1215.0</ele><time>2026-04-19T10:27:48.769Z</time></trkpt><trkpt lat="42.4963764" lon="13.3564055"><ele>1213.25</ele><time>2026-04-19T10:27:49.769Z</time></trkpt><trkpt lat="42.4962867" lon="13.3562598"><ele>1211.5</ele><time>2026-04-19T10:27:50.77Z</time></trkpt><trkpt lat="42.4962422" lon="13.3561057"><ele>1209.75</ele><time>2026-04-19T10:27:51.769Z</time></trkpt><trkpt lat="42.4962466" lon="13.3559479"><ele>1208.0</ele><time>2026-04-19T10:27:52.769Z</time></trkpt><trkpt lat="42.4962915" lon="13.3557913"><ele>1208.0</ele><time>2026-04-19T10:27:53.77Z</time></trkpt><trkpt lat="42.4963801" lon="13.3556404"><ele>1208.0</ele><time>2026-04-19T10:27:54.769Z</time></trkpt><trkpt lat="42.4965007" lon="13.3554972"><ele>1208.0</ele><time>2026-04-19T10:27:55.769Z</time></trkpt><trkpt lat="42.4966536" lon="13.3553397"><ele>1209.6666666666667</ele><time>2026-04-19T10:27:56.77Z</time></trkpt><trkpt lat="42.4968136" lon="13.3551645"><ele>1211.3333333333333</ele><time>2026-04-19T10:27:57.769Z</time></trkpt><trkpt lat="42.49699" lon="13.3549726"><ele>1213.0</ele><time>2026-04-19T10:27:58.77Z</time></trkpt><trkpt lat="42.4971807" lon="13.3547769"><ele>1216.3333333333333</ele><time>2026-04-19T10:27:59.769Z</time></trkpt><trkpt lat="42.4973634" lon="13.3545861"><ele>1219.6666666666667</ele><time>2026-04-19T10:28:00.769Z</time></trkpt><trkpt lat="42.4975292" lon="13.3544126"><ele>1223.0</ele><time>2026-04-19T10:28:01.769Z</time></trkpt><trkpt lat="42.4976945" lon="13.3542869"><ele>1223.0</ele><time>2026-04-19T10:28:02.769Z</time></trkpt><trkpt lat="42.4978574" lon="13.3542079"><ele>1223.0</ele><time>2026-04-19T10:28:03.77Z</time></trkpt><trkpt lat="42.4980133" lon="13.354183"><ele>1223.0</ele><time>2026-04-19T10:28:04.769Z</time></trkpt><trkpt lat="42.4981598" lon="13.3541828"><ele>1223.25</ele><time>2026-04-19T10:28:05.769Z</time></trkpt><trkpt lat="42.498295" lon="13.3541428"><ele>1223.5</ele><time>2026-04-19T10:28:06.77Z</time></trkpt><trkpt lat="42.4984003" lon="13.3540751"><ele>1223.75</ele><time>2026-04-19T10:28:07.77Z</time></trkpt><trkpt lat="42.4984643" lon="13.3539492"><ele>1224.0</ele><time>2026-04-19T10:28:08.77Z</time></trkpt><trkpt lat="42.4984745" lon="13.353788"><ele>1224.0</ele><time>2026-04-19T10:28:09.769Z</time></trkpt><trkpt lat="42.4984464" lon="13.353629"><ele>1224.0</ele><time>2026-04-19T10:28:10.769Z</time></trkpt><trkpt lat="42.4983861" lon="13.3534788"><ele>1224.0</ele><time>2026-04-19T10:28:11.77Z</time></trkpt><trkpt lat="42.498336" lon="13.3533421"><ele>1224.0</ele><time>2026-04-19T10:28:12.77Z</time></trkpt><trkpt lat="42.4983834" lon="13.3531865"><ele>1227.3333333333333</ele><time>2026-04-19T10:28:13.77Z</time></trkpt><trkpt lat="42.4985123" lon="13.353026"><ele>1230.6666666666665</ele><time>2026-04-19T10:28:14.769Z</time></trkpt><trkpt lat="42.4986239" lon="13.3528668"><ele>1234.0</ele><time>2026-04-19T10:28:15.769Z</time></trkpt><trkpt lat="42.4987186" lon="13.3526738"><ele>1230.0</ele><time>2026-04-19T10:28:16.769Z</time></trkpt><trkpt lat="42.4987854" lon="13.3524396"><ele>1226.0</ele><time>2026-04-19T10:28:17.769Z</time></trkpt><trkpt lat="42.4988442" lon="13.3521773"><ele>1222.0</ele><time>2026-04-19T10:28:18.769Z</time></trkpt><trkpt lat="42.4988838" lon="13.3519317"><ele>1222.0</ele><time>2026-04-19T10:28:19.769Z</time></trkpt><trkpt lat="42.4989214" lon="13.3517149"><ele>1222.0</ele><time>2026-04-19T10:28:20.769Z</time></trkpt><trkpt lat="42.4989495" lon="13.3515264"><ele>1222.0</ele><time>2026-04-19T10:28:21.769Z</time></trkpt><trkpt lat="42.4989897" lon="13.3513811"><ele>1222.0</ele><time>2026-04-19T10:28:22.769Z</time></trkpt><trkpt lat="42.4990615" lon="13.3512997"><ele>1222.0</ele><time>2026-04-19T10:28:23.769Z</time></trkpt><trkpt lat="42.4991656" lon="13.3512667"><ele>1222.0</ele><time>2026-04-19T10:28:24.769Z</time></trkpt><trkpt lat="42.4992757" lon="13.3512771"><ele>1222.0</ele><time>2026-04-19T10:28:25.769Z</time></trkpt><trkpt lat="42.4993889" lon="13.3513337"><ele>1222.0</ele><time>2026-04-19T10:28:26.769Z</time></trkpt><trkpt lat="42.4994926" lon="13.3514305"><ele>1222.0</ele><time>2026-04-19T10:28:27.769Z</time></trkpt><trkpt lat="42.4995579" lon="13.3515834"><ele>1222.0</ele><time>2026-04-19T10:28:28.769Z</time></trkpt><trkpt lat="42.4996059" lon="13.3517565"><ele>1222.0</ele><time>2026-04-19T10:28:29.77Z</time></trkpt><trkpt lat="42.4996467" lon="13.3519418"><ele>1222.0</ele><time>2026-04-19T10:28:30.77Z</time></trkpt><trkpt lat="42.4997305" lon="13.3520812"><ele>1222.75</ele><time>2026-04-19T10:28:31.769Z</time></trkpt><trkpt lat="42.4998225" lon="13.3521949"><ele>1223.5</ele><time>2026-04-19T10:28:32.77Z</time></trkpt><trkpt lat="42.4999541" lon="13.3522462"><ele>1224.25</ele><time>2026-04-19T10:28:33.769Z</time></trkpt><trkpt lat="42.5000955" lon="13.3522571"><ele>1225.0</ele><time>2026-04-19T10:28:34.77Z</time></trkpt><trkpt lat="42.5002544" lon="13.3522687"><ele>1224.6666666666665</ele><time>2026-04-19T10:28:35.769Z</time></trkpt><trkpt lat="42.5004456" lon="13.3523236"><ele>1224.3333333333333</ele><time>2026-04-19T10:28:36.769Z</time></trkpt><trkpt lat="42.5006463" lon="13.3524027"><ele>1224.0</ele><time>2026-04-19T10:28:37.769Z</time></trkpt><trkpt lat="42.5008393" lon="13.3524603"><ele>1224.0</ele><time>2026-04-19T10:28:38.77Z</time></trkpt><trkpt lat="42.5010198" lon="13.3525192"><ele>1224.0</ele><time>2026-04-19T10:28:39.769Z</time></trkpt><trkpt lat="42.5011777" lon="13.3525846"><ele>1224.0</ele><time>2026-04-19T10:28:40.769Z</time></trkpt><trkpt lat="42.5013218" lon="13.3526712"><ele>1227.6666666666667</ele><time>2026-04-19T10:28:41.77Z</time></trkpt><trkpt lat="42.5014449" lon="13.3527994"><ele>1231.3333333333335</ele><time>2026-04-19T10:28:42.77Z</time></trkpt><trkpt lat="42.5015349" lon="13.3529749"><ele>1235.0</ele><time>2026-04-19T10:28:43.769Z</time></trkpt><trkpt lat="42.5015836" lon="13.3531782"><ele>1235.0</ele><time>2026-04-19T10:28:44.769Z</time></trkpt><trkpt lat="42.5016162" lon="13.3533885"><ele>1235.0</ele><time>2026-04-19T10:28:45.77Z</time></trkpt><trkpt lat="42.5016397" lon="13.3535998"><ele>1235.0</ele><time>2026-04-19T10:28:46.77Z</time></trkpt><trkpt lat="42.5016808" lon="13.3537756"><ele>1235.75</ele><time>2026-04-19T10:28:47.769Z</time></trkpt><trkpt lat="42.5017475" lon="13.3539132"><ele>1236.5</ele><time>2026-04-19T10:28:48.769Z</time></trkpt><trkpt lat="42.5018564" lon="13.3540319"><ele>1237.25</ele><time>2026-04-19T10:28:49.769Z</time></trkpt><trkpt lat="42.5019953" lon="13.3541284"><ele>1238.0</ele><time>2026-04-19T10:28:50.77Z</time></trkpt><trkpt lat="42.5021472" lon="13.3542109"><ele>1238.0</ele><time>2026-04-19T10:28:51.77Z</time></trkpt><trkpt lat="42.5023103" lon="13.3542752"><ele>1238.0</ele><time>2026-04-19T10:28:52.769Z</time></trkpt><trkpt lat="42.502472" lon="13.3543153"><ele>1238.0</ele><time>2026-04-19T10:28:53.769Z</time></trkpt><trkpt lat="42.5026217" lon="13.3543327"><ele>1238.0</ele><time>2026-04-19T10:28:54.77Z</time></trkpt><trkpt lat="42.5027652" lon="13.3543604"><ele>1238.0</ele><time>2026-04-19T10:28:55.77Z</time></trkpt><trkpt lat="42.5028859" lon="13.3544174"><ele>1238.0</ele><time>2026-04-19T10:28:56.769Z</time></trkpt><trkpt lat="42.5029884" lon="13.3545327"><ele>1238.0</ele><time>2026-04-19T10:28:57.769Z</time></trkpt><trkpt lat="42.5030578" lon="13.3546737"><ele>1239.5</ele><time>2026-04-19T10:28:58.77Z</time></trkpt><trkpt lat="42.5030947" lon="13.3548517"><ele>1241.0</ele><time>2026-04-19T10:28:59.77Z</time></trkpt><trkpt lat="42.5030998" lon="13.3550349"><ele>1242.5</ele><time>2026-04-19T10:29:00.77Z</time></trkpt><trkpt lat="42.5030769" lon="13.355196"><ele>1244.0</ele><time>2026-04-19T10:29:01.77Z</time></trkpt><trkpt lat="42.5030795" lon="13.3553532"><ele>1244.0</ele><time>2026-04-19T10:29:02.769Z</time></trkpt><trkpt lat="42.5031186" lon="13.3554862"><ele>1244.0</ele><time>2026-04-19T10:29:03.77Z</time></trkpt><trkpt lat="42.5031939" lon="13.3555927"><ele>1244.0</ele><time>2026-04-19T10:29:04.77Z</time></trkpt><trkpt lat="42.5033023" lon="13.3556588"><ele>1244.0</ele><time>2026-04-19T10:29:05.769Z</time></trkpt><trkpt lat="42.5034395" lon="13.3556917"><ele>1241.6666666666667</ele><time>2026-04-19T10:29:06.769Z</time></trkpt><trkpt lat="42.503603" lon="13.3557148"><ele>1239.3333333333333</ele><time>2026-04-19T10:29:07.769Z</time></trkpt><trkpt lat="42.5037813" lon="13.3557447"><ele>1237.0</ele><time>2026-04-19T10:29:08.769Z</time></trkpt><trkpt lat="42.5039537" lon="13.3557946"><ele>1241.6666666666665</ele><time>2026-04-19T10:29:09.769Z</time></trkpt><trkpt lat="42.5041119" lon="13.35589"><ele>1246.3333333333333</ele><time>2026-04-19T10:29:10.77Z</time></trkpt><trkpt lat="42.5042573" lon="13.3560129"><ele>1251.0</ele><time>2026-04-19T10:29:11.769Z</time></trkpt><trkpt lat="42.5043828" lon="13.3561621"><ele>1251.0</ele><time>2026-04-19T10:29:12.769Z</time></trkpt><trkpt lat="42.5044751" lon="13.356329"><ele>1251.0</ele><time>2026-04-19T10:29:13.769Z</time></trkpt><trkpt lat="42.5045441" lon="13.3565196"><ele>1251.0</ele><time>2026-04-19T10:29:14.77Z</time></trkpt><trkpt lat="42.5046133" lon="13.356697"><ele>1252.0</ele><time>2026-04-19T10:29:15.769Z</time></trkpt><trkpt lat="42.504703" lon="13.3568292"><ele>1253.0</ele><time>2026-04-19T10:29:16.769Z</time></trkpt><trkpt lat="42.5048516" lon="13.3569217"><ele>1254.0</ele><time>2026-04-19T10:29:17.769Z</time></trkpt><trkpt lat="42.5050066" lon="13.3569983"><ele>1254.0</ele><time>2026-04-19T10:29:18.77Z</time></trkpt><trkpt lat="42.5051478" lon="13.3570956"><ele>1254.0</ele><time>2026-04-19T10:29:19.77Z</time></trkpt><trkpt lat="42.5052647" lon="13.3572368"><ele>1254.0</ele><time>2026-04-19T10:29:20.77Z</time></trkpt><trkpt lat="42.5053796" lon="13.3574336"><ele>1255.6666666666667</ele><time>2026-04-19T10:29:21.77Z</time></trkpt><trkpt lat="42.5054822" lon="13.3576245"><ele>1257.3333333333335</ele><time>2026-04-19T10:29:22.77Z</time></trkpt><trkpt lat="42.5056133" lon="13.3577895"><ele>1259.0</ele><time>2026-04-19T10:29:23.769Z</time></trkpt><trkpt lat="42.505768" lon="13.3579183"><ele>1259.0</ele><time>2026-04-19T10:29:24.77Z</time></trkpt><trkpt lat="42.5059455" lon="13.3579866"><ele>1259.0</ele><time>2026-04-19T10:29:25.768Z</time></trkpt><trkpt lat="42.5061101" lon="13.3580326"><ele>1259.0</ele><time>2026-04-19T10:29:26.769Z</time></trkpt><trkpt lat="42.5062507" lon="13.3580846"><ele>1260.5</ele><time>2026-04-19T10:29:27.768Z</time></trkpt><trkpt lat="42.5063736" lon="13.3581552"><ele>1262.0</ele><time>2026-04-19T10:29:28.769Z</time></trkpt><trkpt lat="42.5064763" lon="13.358287"><ele>1263.5</ele><time>2026-04-19T10:29:29.768Z</time></trkpt><trkpt lat="42.5065901" lon="13.3584586"><ele>1265.0</ele><time>2026-04-19T10:29:30.769Z</time></trkpt><trkpt lat="42.506718" lon="13.3586532"><ele>1265.0</ele><time>2026-04-19T10:29:31.769Z</time></trkpt><trkpt lat="42.5068607" lon="13.3588625"><ele>1265.0</ele><time>2026-04-19T10:29:32.769Z</time></trkpt><trkpt lat="42.506976" lon="13.3590938"><ele>1265.0</ele><time>2026-04-19T10:29:33.769Z</time></trkpt><trkpt lat="42.5070603" lon="13.3593567"><ele>1266.3333333333335</ele><time>2026-04-19T10:29:34.769Z</time></trkpt><trkpt lat="42.5071285" lon="13.3596524"><ele>1267.6666666666667</ele><time>2026-04-19T10:29:35.769Z</time></trkpt><trkpt lat="42.5072025" lon="13.3599312"><ele>1269.0</ele><time>2026-04-19T10:29:36.769Z</time></trkpt><trkpt lat="42.507292" lon="13.3601939"><ele>1269.0</ele><time>2026-04-19T10:29:37.769Z</time></trkpt><trkpt lat="42.5073747" lon="13.3604235"><ele>1269.0</ele><time>2026-04-19T10:29:38.768Z</time></trkpt><trkpt lat="42.5074522" lon="13.3606462"><ele>1269.0</ele><time>2026-04-19T10:29:39.768Z</time></trkpt><trkpt lat="42.5075231" lon="13.3608293"><ele>1268.25</ele><time>2026-04-19T10:29:40.768Z</time></trkpt><trkpt lat="42.5075996" lon="13.3609495"><ele>1267.5</ele><time>2026-04-19T10:29:41.769Z</time></trkpt><trkpt lat="42.5077009" lon="13.3610427"><ele>1266.75</ele><time>2026-04-19T10:29:42.768Z</time></trkpt><trkpt lat="42.5078221" lon="13.3610585"><ele>1266.0</ele><time>2026-04-19T10:29:43.768Z</time></trkpt><trkpt lat="42.5079394" lon="13.3610061"><ele>1266.0</ele><time>2026-04-19T10:29:44.769Z</time></trkpt><trkpt lat="42.5080785" lon="13.3609185"><ele>1266.0</ele><time>2026-04-19T10:29:45.768Z</time></trkpt><trkpt lat="42.5082271" lon="13.3607897"><ele>1266.0</ele><time>2026-04-19T10:29:46.768Z</time></trkpt><trkpt lat="42.5083878" lon="13.3606658"><ele>1266.0</ele><time>2026-04-19T10:29:47.768Z</time></trkpt><trkpt lat="42.5085553" lon="13.3605413"><ele>1266.0</ele><time>2026-04-19T10:29:48.768Z</time></trkpt><trkpt lat="42.5087278" lon="13.3604309"><ele>1266.0</ele><time>2026-04-19T10:29:49.768Z</time></trkpt><trkpt lat="42.5088766" lon="13.3603431"><ele>1268.25</ele><time>2026-04-19T10:29:50.768Z</time></trkpt><trkpt lat="42.5090208" lon="13.360302"><ele>1270.5</ele><time>2026-04-19T10:29:51.768Z</time></trkpt><trkpt lat="42.5091588" lon="13.3603237"><ele>1272.75</ele><time>2026-04-19T10:29:52.768Z</time></trkpt><trkpt lat="42.5092822" lon="13.3604035"><ele>1275.0</ele><time>2026-04-19T10:29:53.769Z</time></trkpt><trkpt lat="42.5094049" lon="13.360522"><ele>1274.0</ele><time>2026-04-19T10:29:54.769Z</time></trkpt><trkpt lat="42.509533" lon="13.3606177"><ele>1273.0</ele><time>2026-04-19T10:29:55.769Z</time></trkpt><trkpt lat="42.5096821" lon="13.3606378"><ele>1272.0</ele><time>2026-04-19T10:29:56.768Z</time></trkpt><trkpt lat="42.5098335" lon="13.3605985"><ele>1272.0</ele><time>2026-04-19T10:29:57.768Z</time></trkpt><trkpt lat="42.5099772" lon="13.360529"><ele>1272.0</ele><time>2026-04-19T10:29:58.769Z</time></trkpt><trkpt lat="42.5101111" lon="13.3604845"><ele>1272.0</ele><time>2026-04-19T10:29:59.769Z</time></trkpt><trkpt lat="42.5102466" lon="13.3604912"><ele>1272.0</ele><time>2026-04-19T10:30:00.768Z</time></trkpt><trkpt lat="42.5103742" lon="13.3605465"><ele>1276.25</ele><time>2026-04-19T10:30:01.768Z</time></trkpt><trkpt lat="42.5104735" lon="13.3606293"><ele>1280.5</ele><time>2026-04-19T10:30:02.768Z</time></trkpt><trkpt lat="42.5105377" lon="13.3607547"><ele>1284.75</ele><time>2026-04-19T10:30:03.768Z</time></trkpt><trkpt lat="42.5105668" lon="13.360909"><ele>1289.0</ele><time>2026-04-19T10:30:04.769Z</time></trkpt><trkpt lat="42.5105664" lon="13.3610997"><ele>1289.0</ele><time>2026-04-19T10:30:05.769Z</time></trkpt><trkpt lat="42.510572" lon="13.3613159"><ele>1289.0</ele><time>2026-04-19T10:30:06.768Z</time></trkpt><trkpt lat="42.5106185" lon="13.3615589"><ele>1289.0</ele><time>2026-04-19T10:30:07.768Z</time></trkpt><trkpt lat="42.5106998" lon="13.3618199"><ele>1288.6666666666667</ele><time>2026-04-19T10:30:08.768Z</time></trkpt><trkpt lat="42.5107881" lon="13.3620573"><ele>1288.3333333333333</ele><time>2026-04-19T10:30:09.769Z</time></trkpt><trkpt lat="42.5108684" lon="13.3622744"><ele>1288.0</ele><time>2026-04-19T10:30:10.768Z</time></trkpt><trkpt lat="42.5109373" lon="13.3624448"><ele>1286.0</ele><time>2026-04-19T10:30:11.769Z</time></trkpt><trkpt lat="42.5110478" lon="13.3625621"><ele>1284.0</ele><time>2026-04-19T10:30:12.768Z</time></trkpt><trkpt lat="42.5111933" lon="13.3626164"><ele>1282.0</ele><time>2026-04-19T10:30:13.769Z</time></trkpt><trkpt lat="42.5113403" lon="13.3626277"><ele>1280.0</ele><time>2026-04-19T10:30:14.768Z</time></trkpt><trkpt lat="42.5114883" lon="13.3626316"><ele>1282.0</ele><time>2026-04-19T10:30:15.768Z</time></trkpt><trkpt lat="42.5116088" lon="13.3626926"><ele>1284.0</ele><time>2026-04-19T10:30:16.769Z</time></trkpt><trkpt lat="42.511694" lon="13.3628147"><ele>1286.0</ele><time>2026-04-19T10:30:17.768Z</time></trkpt><trkpt lat="42.5117593" lon="13.3629887"><ele>1288.0</ele><time>2026-04-19T10:30:18.769Z</time></trkpt><trkpt lat="42.5118052" lon="13.3632053"><ele>1288.0</ele><time>2026-04-19T10:30:19.769Z</time></trkpt><trkpt lat="42.5118489" lon="13.3634533"><ele>1288.0</ele><time>2026-04-19T10:30:20.769Z</time></trkpt><trkpt lat="42.5119091" lon="13.3637371"><ele>1288.0</ele><time>2026-04-19T10:30:21.768Z</time></trkpt><trkpt lat="42.5119543" lon="13.3640343"><ele>1286.3333333333333</ele><time>2026-04-19T10:30:22.769Z</time></trkpt><trkpt lat="42.51199" lon="13.3643359"><ele>1284.6666666666667</ele><time>2026-04-19T10:30:23.768Z</time></trkpt><trkpt lat="42.5120289" lon="13.3646301"><ele>1283.0</ele><time>2026-04-19T10:30:24.769Z</time></trkpt><trkpt lat="42.5120714" lon="13.3649159"><ele>1294.5</ele><time>2026-04-19T10:30:25.768Z</time></trkpt><trkpt lat="42.5121498" lon="13.3652081"><ele>1306.0</ele><time>2026-04-19T10:30:26.769Z</time></trkpt><trkpt lat="42.5122525" lon="13.3655068"><ele>1304.5</ele><time>2026-04-19T10:30:27.769Z</time></trkpt><trkpt lat="42.5123555" lon="13.3658157"><ele>1303.0</ele><time>2026-04-19T10:30:28.769Z</time></trkpt><trkpt lat="42.5124478" lon="13.3661161"><ele>1300.5</ele><time>2026-04-19T10:30:29.768Z</time></trkpt><trkpt lat="42.5125394" lon="13.3664024"><ele>1298.0</ele><time>2026-04-19T10:30:30.768Z</time></trkpt><trkpt lat="42.5126398" lon="13.3666735"><ele>1298.0</ele><time>2026-04-19T10:30:31.768Z</time></trkpt><trkpt lat="42.5127414" lon="13.3669206"><ele>1298.0</ele><time>2026-04-19T10:30:32.769Z</time></trkpt><trkpt lat="42.5128528" lon="13.3671568"><ele>1298.0</ele><time>2026-04-19T10:30:33.769Z</time></trkpt><trkpt lat="42.5129575" lon="13.3673934"><ele>1301.0</ele><time>2026-04-19T10:30:34.769Z</time></trkpt><trkpt lat="42.5130565" lon="13.3676332"><ele>1304.0</ele><time>2026-04-19T10:30:35.769Z</time></trkpt><trkpt lat="42.5131454" lon="13.3678714"><ele>1307.0</ele><time>2026-04-19T10:30:36.769Z</time></trkpt><trkpt lat="42.5132011" lon="13.3681343"><ele>1307.0</ele><time>2026-04-19T10:30:37.768Z</time></trkpt><trkpt lat="42.5132371" lon="13.3684034"><ele>1307.0</ele><time>2026-04-19T10:30:38.768Z</time></trkpt><trkpt lat="42.513265" lon="13.368661"><ele>1307.0</ele><time>2026-04-19T10:30:39.768Z</time></trkpt><trkpt lat="42.5133056" lon="13.3689074"><ele>1308.0</ele><time>2026-04-19T10:30:40.768Z</time></trkpt><trkpt lat="42.5133495" lon="13.369141"><ele>1309.0</ele><time>2026-04-19T10:30:41.769Z</time></trkpt><trkpt lat="42.5134122" lon="13.3693602"><ele>1310.0</ele><time>2026-04-19T10:30:42.768Z</time></trkpt><trkpt lat="42.5135233" lon="13.3695555"><ele>1311.3333333333335</ele><time>2026-04-19T10:30:43.769Z</time></trkpt><trkpt lat="42.5136567" lon="13.3697401"><ele>1312.6666666666667</ele><time>2026-04-19T10:30:44.768Z</time></trkpt><trkpt lat="42.5138129" lon="13.3699044"><ele>1314.0</ele><time>2026-04-19T10:30:45.768Z</time></trkpt><trkpt lat="42.5139844" lon="13.3700557"><ele>1314.0</ele><time>2026-04-19T10:30:46.769Z</time></trkpt><trkpt lat="42.5141674" lon="13.3702022"><ele>1314.0</ele><time>2026-04-19T10:30:47.769Z</time></trkpt><trkpt lat="42.5143264" lon="13.3703503"><ele>1314.0</ele><time>2026-04-19T10:30:48.769Z</time></trkpt><trkpt lat="42.5144748" lon="13.3704892"><ele>1317.3333333333333</ele><time>2026-04-19T10:30:49.769Z</time></trkpt><trkpt lat="42.5146136" lon="13.3706026"><ele>1320.6666666666665</ele><time>2026-04-19T10:30:50.769Z</time></trkpt><trkpt lat="42.5147557" lon="13.3706582"><ele>1324.0</ele><time>2026-04-19T10:30:51.769Z</time></trkpt><trkpt lat="42.514909" lon="13.3706765"><ele>1324.0</ele><time>2026-04-19T10:30:52.769Z</time></trkpt><trkpt lat="42.5150672" lon="13.3706314"><ele>1324.0</ele><time>2026-04-19T10:30:53.768Z</time></trkpt><trkpt lat="42.5152331" lon="13.3705498"><ele>1324.0</ele><time>2026-04-19T10:30:54.769Z</time></trkpt><trkpt lat="42.5154032" lon="13.3704234"><ele>1326.3333333333333</ele><time>2026-04-19T10:30:55.769Z</time></trkpt><trkpt lat="42.5155671" lon="13.3702842"><ele>1328.6666666666667</ele><time>2026-04-19T10:30:56.769Z</time></trkpt><trkpt lat="42.5157173" lon="13.3701439"><ele>1331.0</ele><time>2026-04-19T10:30:57.768Z</time></trkpt><trkpt lat="42.5158603" lon="13.3699493"><ele>1331.0</ele><time>2026-04-19T10:30:58.768Z</time></trkpt><trkpt lat="42.5159968" lon="13.3697568"><ele>1331.0</ele><time>2026-04-19T10:30:59.768Z</time></trkpt><trkpt lat="42.5161341" lon="13.3696012"><ele>1331.0</ele><time>2026-04-19T10:31:00.768Z</time></trkpt><trkpt lat="42.5162824" lon="13.3694671"><ele>1330.6666666666667</ele><time>2026-04-19T10:31:01.768Z</time></trkpt><trkpt lat="42.5164461" lon="13.3693676"><ele>1330.3333333333333</ele><time>2026-04-19T10:31:02.768Z</time></trkpt><trkpt lat="42.5166151" lon="13.3692854"><ele>1330.0</ele><time>2026-04-19T10:31:03.769Z</time></trkpt><trkpt lat="42.5167953" lon="13.3692172"><ele>1330.0</ele><time>2026-04-19T10:31:04.768Z</time></trkpt><trkpt lat="42.516984" lon="13.36916"><ele>1330.0</ele><time>2026-04-19T10:31:05.768Z</time></trkpt><trkpt lat="42.5171717" lon="13.369119"><ele>1330.0</ele><time>2026-04-19T10:31:06.769Z</time></trkpt><trkpt lat="42.5173622" lon="13.3690918"><ele>1332.6666666666665</ele><time>2026-04-19T10:31:07.769Z</time></trkpt><trkpt lat="42.5175432" lon="13.3690894"><ele>1335.3333333333333</ele><time>2026-04-19T10:31:08.768Z</time></trkpt><trkpt lat="42.5177115" lon="13.3690753"><ele>1338.0</ele><time>2026-04-19T10:31:09.768Z</time></trkpt><trkpt lat="42.517867" lon="13.3690321"><ele>1338.75</ele><time>2026-04-19T10:31:10.768Z</time></trkpt><trkpt lat="42.5180137" lon="13.3689513"><ele>1339.5</ele><time>2026-04-19T10:31:11.768Z</time></trkpt><trkpt lat="42.5181269" lon="13.3688327"><ele>1340.25</ele><time>2026-04-19T10:31:12.769Z</time></trkpt><trkpt lat="42.5182232" lon="13.3686897"><ele>1341.0</ele><time>2026-04-19T10:31:13.768Z</time></trkpt><trkpt lat="42.5183283" lon="13.3685454"><ele>1337.3333333333333</ele><time>2026-04-19T10:31:14.768Z</time></trkpt><trkpt lat="42.5184598" lon="13.3684386"><ele>1333.6666666666665</ele><time>2026-04-19T10:31:15.769Z</time></trkpt><trkpt lat="42.5186118" lon="13.3683717"><ele>1330.0</ele><time>2026-04-19T10:31:16.768Z</time></trkpt><trkpt lat="42.5187772" lon="13.3683256"><ele>1330.0</ele><time>2026-04-19T10:31:17.768Z</time></trkpt><trkpt lat="42.5189343" lon="13.3683477"><ele>1330.0</ele><time>2026-04-19T10:31:18.769Z</time></trkpt><trkpt lat="42.5190712" lon="13.3684221"><ele>1330.0</ele><time>2026-04-19T10:31:19.768Z</time></trkpt><trkpt lat="42.5191858" lon="13.3685509"><ele>1330.0</ele><time>2026-04-19T10:31:20.769Z</time></trkpt><trkpt lat="42.5193006" lon="13.3687007"><ele>1330.0</ele><time>2026-04-19T10:31:21.768Z</time></trkpt><trkpt lat="42.5193869" lon="13.3688544"><ele>1330.0</ele><time>2026-04-19T10:31:22.769Z</time></trkpt><trkpt lat="42.5194387" lon="13.3690147"><ele>1330.0</ele><time>2026-04-19T10:31:23.769Z</time></trkpt><trkpt lat="42.5194462" lon="13.3691955"><ele>1332.25</ele><time>2026-04-19T10:31:24.768Z</time></trkpt><trkpt lat="42.51942" lon="13.369382"><ele>1334.5</ele><time>2026-04-19T10:31:25.768Z</time></trkpt><trkpt lat="42.5193872" lon="13.3695544"><ele>1336.75</ele><time>2026-04-19T10:31:26.768Z</time></trkpt><trkpt lat="42.5193899" lon="13.3697208"><ele>1339.0</ele><time>2026-04-19T10:31:27.768Z</time></trkpt><trkpt lat="42.5194468" lon="13.3698743"><ele>1339.6666666666665</ele><time>2026-04-19T10:31:28.769Z</time></trkpt><trkpt lat="42.5195391" lon="13.3700171"><ele>1340.3333333333333</ele><time>2026-04-19T10:31:29.769Z</time></trkpt><trkpt lat="42.5196543" lon="13.3701633"><ele>1341.0</ele><time>2026-04-19T10:31:30.768Z</time></trkpt><trkpt lat="42.5197736" lon="13.3703253"><ele>1339.0</ele><time>2026-04-19T10:31:31.768Z</time></trkpt><trkpt lat="42.5198887" lon="13.3704832"><ele>1337.0</ele><time>2026-04-19T10:31:32.769Z</time></trkpt><trkpt lat="42.520018" lon="13.3706152"><ele>1335.0</ele><time>2026-04-19T10:31:33.769Z</time></trkpt><trkpt lat="42.5201662" lon="13.370714"><ele>1335.0</ele><time>2026-04-19T10:31:34.768Z</time></trkpt><trkpt lat="42.5203246" lon="13.3707441"><ele>1335.0</ele><time>2026-04-19T10:31:35.768Z</time></trkpt><trkpt lat="42.5204655" lon="13.3707535"><ele>1335.0</ele><time>2026-04-19T10:31:36.768Z</time></trkpt><trkpt lat="42.5205828" lon="13.3708136"><ele>1335.0</ele><time>2026-04-19T10:31:37.768Z</time></trkpt><trkpt lat="42.5206682" lon="13.3709222"><ele>1333.0</ele><time>2026-04-19T10:31:38.769Z</time></trkpt><trkpt lat="42.5207156" lon="13.3710771"><ele>1331.0</ele><time>2026-04-19T10:31:39.768Z</time></trkpt><trkpt lat="42.5207077" lon="13.3712164"><ele>1329.0</ele><time>2026-04-19T10:31:40.768Z</time></trkpt><trkpt lat="42.5206584" lon="13.3713588"><ele>1327.0</ele><time>2026-04-19T10:31:41.768Z</time></trkpt><trkpt lat="42.5205797" lon="13.3715142"><ele>1327.0</ele><time>2026-04-19T10:31:42.768Z</time></trkpt><trkpt lat="42.5204961" lon="13.371685"><ele>1327.0</ele><time>2026-04-19T10:31:43.768Z</time></trkpt><trkpt lat="42.520408" lon="13.3718471"><ele>1327.0</ele><time>2026-04-19T10:31:44.769Z</time></trkpt><trkpt lat="42.5203304" lon="13.3720052"><ele>1327.0</ele><time>2026-04-19T10:31:45.768Z</time></trkpt><trkpt lat="42.5202618" lon="13.3721588"><ele>1330.75</ele><time>2026-04-19T10:31:46.768Z</time></trkpt><trkpt lat="42.5202252" lon="13.3723091"><ele>1334.5</ele><time>2026-04-19T10:31:47.768Z</time></trkpt><trkpt lat="42.5202357" lon="13.3724804"><ele>1338.25</ele><time>2026-04-19T10:31:48.768Z</time></trkpt><trkpt lat="42.5202884" lon="13.3726199"><ele>1342.0</ele><time>2026-04-19T10:31:49.768Z</time></trkpt><trkpt lat="42.5203787" lon="13.3727276"><ele>1339.75</ele><time>2026-04-19T10:31:50.768Z</time></trkpt><trkpt lat="42.5204863" lon="13.3728077"><ele>1337.5</ele><time>2026-04-19T10:31:51.768Z</time></trkpt><trkpt lat="42.5206026" lon="13.3728554"><ele>1335.25</ele><time>2026-04-19T10:31:52.768Z</time></trkpt><trkpt lat="42.5207212" lon="13.3728664"><ele>1333.0</ele><time>2026-04-19T10:31:53.769Z</time></trkpt><trkpt lat="42.5208388" lon="13.3728066"><ele>1333.0</ele><time>2026-04-19T10:31:54.769Z</time></trkpt><trkpt lat="42.5209508" lon="13.3726691"><ele>1333.0</ele><time>2026-04-19T10:31:55.768Z</time></trkpt><trkpt lat="42.5210573" lon="13.3725067"><ele>1333.0</ele><time>2026-04-19T10:31:56.768Z</time></trkpt><trkpt lat="42.5211713" lon="13.3723557"><ele>1335.0</ele><time>2026-04-19T10:31:57.768Z</time></trkpt><trkpt lat="42.5213113" lon="13.3722215"><ele>1337.0</ele><time>2026-04-19T10:31:58.768Z</time></trkpt><trkpt lat="42.521481" lon="13.3721468"><ele>1339.0</ele><time>2026-04-19T10:31:59.769Z</time></trkpt><trkpt lat="42.521663" lon="13.3720758"><ele>1337.6666666666665</ele><time>2026-04-19T10:32:00.768Z</time></trkpt><trkpt lat="42.5218236" lon="13.3719926"><ele>1336.3333333333333</ele><time>2026-04-19T10:32:01.769Z</time></trkpt><trkpt lat="42.521961" lon="13.3718733"><ele>1335.0</ele><time>2026-04-19T10:32:02.768Z</time></trkpt><trkpt lat="42.5220786" lon="13.3717066"><ele>1335.0</ele><time>2026-04-19T10:32:03.769Z</time></trkpt><trkpt lat="42.5221787" lon="13.371529"><ele>1335.0</ele><time>2026-04-19T10:32:04.769Z</time></trkpt><trkpt lat="42.5222825" lon="13.3713572"><ele>1335.0</ele><time>2026-04-19T10:32:05.768Z</time></trkpt><trkpt lat="42.5224051" lon="13.3712378"><ele>1335.0</ele><time>2026-04-19T10:32:06.768Z</time></trkpt><trkpt lat="42.52253" lon="13.3711749"><ele>1335.0</ele><time>2026-04-19T10:32:07.768Z</time></trkpt><trkpt lat="42.5226543" lon="13.3711802"><ele>1335.0</ele><time>2026-04-19T10:32:08.768Z</time></trkpt><trkpt lat="42.5227681" lon="13.3712542"><ele>1335.0</ele><time>2026-04-19T10:32:09.768Z</time></trkpt><trkpt lat="42.5228657" lon="13.3713827"><ele>1331.0</ele><time>2026-04-19T10:32:10.769Z</time></trkpt><trkpt lat="42.5229437" lon="13.3715332"><ele>1327.0</ele><time>2026-04-19T10:32:11.768Z</time></trkpt><trkpt lat="42.523034" lon="13.3717162"><ele>1323.0</ele><time>2026-04-19T10:32:12.769Z</time></trkpt><trkpt lat="42.5231205" lon="13.3719078"><ele>1323.0</ele><time>2026-04-19T10:32:13.768Z</time></trkpt><trkpt lat="42.5232083" lon="13.3721157"><ele>1323.0</ele><time>2026-04-19T10:32:14.768Z</time></trkpt><trkpt lat="42.523289" lon="13.3723291"><ele>1323.0</ele><time>2026-04-19T10:32:15.769Z</time></trkpt><trkpt lat="42.5233642" lon="13.3725477"><ele>1325.0</ele><time>2026-04-19T10:32:16.768Z</time></trkpt><trkpt lat="42.5234342" lon="13.3727716"><ele>1327.0</ele><time>2026-04-19T10:32:17.768Z</time></trkpt><trkpt lat="42.5235112" lon="13.3730013"><ele>1329.0</ele><time>2026-04-19T10:32:18.769Z</time></trkpt><trkpt lat="42.523588" lon="13.3732366"><ele>1330.0</ele><time>2026-04-19T10:32:19.768Z</time></trkpt><trkpt lat="42.5236435" lon="13.3734692"><ele>1331.0</ele><time>2026-04-19T10:32:20.768Z</time></trkpt><trkpt lat="42.5236819" lon="13.3736858"><ele>1332.0</ele><time>2026-04-19T10:32:21.769Z</time></trkpt><trkpt lat="42.5236965" lon="13.3738737"><ele>1332.0</ele><time>2026-04-19T10:32:22.768Z</time></trkpt><trkpt lat="42.5236923" lon="13.3740597"><ele>1332.0</ele><time>2026-04-19T10:32:23.768Z</time></trkpt><trkpt lat="42.523657" lon="13.3742404"><ele>1332.0</ele><time>2026-04-19T10:32:24.769Z</time></trkpt><trkpt lat="42.5235902" lon="13.3744131"><ele>1332.0</ele><time>2026-04-19T10:32:25.769Z</time></trkpt><trkpt lat="42.523495" lon="13.3745833"><ele>1329.6666666666667</ele><time>2026-04-19T10:32:26.768Z</time></trkpt><trkpt lat="42.5233775" lon="13.3747493"><ele>1327.3333333333335</ele><time>2026-04-19T10:32:27.768Z</time></trkpt><trkpt lat="42.523245" lon="13.3748981"><ele>1325.0</ele><time>2026-04-19T10:32:28.768Z</time></trkpt><trkpt lat="42.5231142" lon="13.3750264"><ele>1325.0</ele><time>2026-04-19T10:32:29.769Z</time></trkpt><trkpt lat="42.5229983" lon="13.3751541"><ele>1325.0</ele><time>2026-04-19T10:32:30.769Z</time></trkpt><trkpt lat="42.5229071" lon="13.3753003"><ele>1325.0</ele><time>2026-04-19T10:32:31.769Z</time></trkpt><trkpt lat="42.5228366" lon="13.3754776"><ele>1325.0</ele><time>2026-04-19T10:32:32.768Z</time></trkpt><trkpt lat="42.522798" lon="13.3756874"><ele>1328.6666666666667</ele><time>2026-04-19T10:32:33.768Z</time></trkpt><trkpt lat="42.5227615" lon="13.37592"><ele>1332.3333333333333</ele><time>2026-04-19T10:32:34.769Z</time></trkpt><trkpt lat="42.5227299" lon="13.3761598"><ele>1336.0</ele><time>2026-04-19T10:32:35.768Z</time></trkpt><trkpt lat="42.5226918" lon="13.376385"><ele>1336.0</ele><time>2026-04-19T10:32:36.768Z</time></trkpt><trkpt lat="42.5226469" lon="13.3766027"><ele>1336.0</ele><time>2026-04-19T10:32:37.769Z</time></trkpt><trkpt lat="42.5225853" lon="13.3768068"><ele>1336.0</ele><time>2026-04-19T10:32:38.777Z</time></trkpt><trkpt lat="42.5225035" lon="13.3769927"><ele>1336.0</ele><time>2026-04-19T10:32:39.776Z</time></trkpt><trkpt lat="42.5224219" lon="13.3771529"><ele>1336.0</ele><time>2026-04-19T10:32:40.777Z</time></trkpt><trkpt lat="42.5223554" lon="13.3773103"><ele>1336.0</ele><time>2026-04-19T10:32:41.776Z</time></trkpt><trkpt lat="42.5223102" lon="13.3774603"><ele>1336.0</ele><time>2026-04-19T10:32:42.776Z</time></trkpt><trkpt lat="42.5222993" lon="13.3776013"><ele>1336.0</ele><time>2026-04-19T10:32:43.777Z</time></trkpt><trkpt lat="42.5223297" lon="13.3777291"><ele>1336.0</ele><time>2026-04-19T10:32:44.777Z</time></trkpt><trkpt lat="42.5223955" lon="13.3778402"><ele>1336.0</ele><time>2026-04-19T10:32:45.776Z</time></trkpt><trkpt lat="42.5224916" lon="13.3779281"><ele>1336.0</ele><time>2026-04-19T10:32:46.777Z</time></trkpt><trkpt lat="42.5226081" lon="13.3779939"><ele>1336.0</ele><time>2026-04-19T10:32:47.777Z</time></trkpt><trkpt lat="42.5227287" lon="13.3780683"><ele>1336.0</ele><time>2026-04-19T10:32:48.776Z</time></trkpt><trkpt lat="42.5228324" lon="13.3781816"><ele>1336.0</ele><time>2026-04-19T10:32:49.776Z</time></trkpt><trkpt lat="42.5229144" lon="13.3783403"><ele>1336.0</ele><time>2026-04-19T10:32:50.776Z</time></trkpt><trkpt lat="42.5229729" lon="13.3785273"><ele>1336.0</ele><time>2026-04-19T10:32:51.777Z</time></trkpt><trkpt lat="42.5230156" lon="13.3787431"><ele>1330.6666666666665</ele><time>2026-04-19T10:32:52.776Z</time></trkpt><trkpt lat="42.5230323" lon="13.3789861"><ele>1325.3333333333333</ele><time>2026-04-19T10:32:53.777Z</time></trkpt><trkpt lat="42.5230204" lon="13.3792242"><ele>1320.0</ele><time>2026-04-19T10:32:54.776Z</time></trkpt><trkpt lat="42.522985" lon="13.3794395"><ele>1320.0</ele><time>2026-04-19T10:32:55.777Z</time></trkpt><trkpt lat="42.5229177" lon="13.3796234"><ele>1320.0</ele><time>2026-04-19T10:32:56.776Z</time></trkpt><trkpt lat="42.5228312" lon="13.379775"><ele>1320.0</ele><time>2026-04-19T10:32:57.777Z</time></trkpt><trkpt lat="42.5227481" lon="13.3799152"><ele>1320.0</ele><time>2026-04-19T10:32:58.776Z</time></trkpt><trkpt lat="42.5226978" lon="13.3800657"><ele>1323.75</ele><time>2026-04-19T10:32:59.777Z</time></trkpt><trkpt lat="42.5226856" lon="13.3802101"><ele>1327.5</ele><time>2026-04-19T10:33:00.776Z</time></trkpt><trkpt lat="42.5227093" lon="13.380365"><ele>1331.25</ele><time>2026-04-19T10:33:01.776Z</time></trkpt><trkpt lat="42.522742" lon="13.3805246"><ele>1335.0</ele><time>2026-04-19T10:33:02.777Z</time></trkpt><trkpt lat="42.5227497" lon="13.3807047"><ele>1335.0</ele><time>2026-04-19T10:33:03.776Z</time></trkpt><trkpt lat="42.5227221" lon="13.3808759"><ele>1335.0</ele><time>2026-04-19T10:33:04.776Z</time></trkpt><trkpt lat="42.5226563" lon="13.3810587"><ele>1335.0</ele><time>2026-04-19T10:33:05.777Z</time></trkpt><trkpt lat="42.5225864" lon="13.3812104"><ele>1335.0</ele><time>2026-04-19T10:33:06.776Z</time></trkpt><trkpt lat="42.5225467" lon="13.3813758"><ele>1334.75</ele><time>2026-04-19T10:33:07.776Z</time></trkpt><trkpt lat="42.5225515" lon="13.3815549"><ele>1334.5</ele><time>2026-04-19T10:33:08.776Z</time></trkpt><trkpt lat="42.5225986" lon="13.3817314"><ele>1334.25</ele><time>2026-04-19T10:33:09.777Z</time></trkpt><trkpt lat="42.5226732" lon="13.3819134"><ele>1334.0</ele><time>2026-04-19T10:33:10.776Z</time></trkpt><trkpt lat="42.5227427" lon="13.3821104"><ele>1334.3333333333335</ele><time>2026-04-19T10:33:11.776Z</time></trkpt><trkpt lat="42.5227771" lon="13.3823398"><ele>1334.6666666666667</ele><time>2026-04-19T10:33:12.777Z</time></trkpt><trkpt lat="42.5227886" lon="13.3825584"><ele>1335.0</ele><time>2026-04-19T10:33:13.777Z</time></trkpt><trkpt lat="42.52277" lon="13.3827633"><ele>1335.0</ele><time>2026-04-19T10:33:14.776Z</time></trkpt><trkpt lat="42.5227142" lon="13.3829334"><ele>1335.0</ele><time>2026-04-19T10:33:15.777Z</time></trkpt><trkpt lat="42.522626" lon="13.3831006"><ele>1335.0</ele><time>2026-04-19T10:33:16.776Z</time></trkpt><trkpt lat="42.5225103" lon="13.3832591"><ele>1333.5</ele><time>2026-04-19T10:33:17.776Z</time></trkpt><trkpt lat="42.5223965" lon="13.3834018"><ele>1332.0</ele><time>2026-04-19T10:33:18.777Z</time></trkpt><trkpt lat="42.5222983" lon="13.3835435"><ele>1330.5</ele><time>2026-04-19T10:33:19.776Z</time></trkpt><trkpt lat="42.5222267" lon="13.383683"><ele>1329.0</ele><time>2026-04-19T10:33:20.776Z</time></trkpt><trkpt lat="42.5221884" lon="13.3838153"><ele>1328.4</ele><time>2026-04-19T10:33:21.777Z</time></trkpt><trkpt lat="42.5221772" lon="13.3839239"><ele>1327.8000000000002</ele><time>2026-04-19T10:33:22.776Z</time></trkpt><trkpt lat="42.5221926" lon="13.3840387"><ele>1327.1999999999998</ele><time>2026-04-19T10:33:23.777Z</time></trkpt><trkpt lat="42.5222414" lon="13.3841629"><ele>1326.6</ele><time>2026-04-19T10:33:24.776Z</time></trkpt><trkpt lat="42.5223155" lon="13.3842954"><ele>1326.0</ele><time>2026-04-19T10:33:25.777Z</time></trkpt><trkpt lat="42.5223694" lon="13.3844506"><ele>1326.0</ele><time>2026-04-19T10:33:26.776Z</time></trkpt><trkpt lat="42.5223905" lon="13.3846091"><ele>1326.0</ele><time>2026-04-19T10:33:27.777Z</time></trkpt><trkpt lat="42.5223702" lon="13.3847446"><ele>1326.0</ele><time>2026-04-19T10:33:28.776Z</time></trkpt><trkpt lat="42.5223208" lon="13.3848712"><ele>1326.0</ele><time>2026-04-19T10:33:29.777Z</time></trkpt><trkpt lat="42.5222551" lon="13.3849898"><ele>1326.0</ele><time>2026-04-19T10:33:30.776Z</time></trkpt><trkpt lat="42.5222163" lon="13.3851027"><ele>1326.4</ele><time>2026-04-19T10:33:31.777Z</time></trkpt><trkpt lat="42.5222124" lon="13.3852506"><ele>1326.8</ele><time>2026-04-19T10:33:32.777Z</time></trkpt><trkpt lat="42.522244" lon="13.385379"><ele>1327.2</ele><time>2026-04-19T10:33:33.776Z</time></trkpt><trkpt lat="42.5222995" lon="13.385499"><ele>1327.6000000000001</ele><time>2026-04-19T10:33:34.777Z</time></trkpt><trkpt lat="42.5223566" lon="13.3856068"><ele>1328.0</ele><time>2026-04-19T10:33:35.777Z</time></trkpt><trkpt lat="42.5224265" lon="13.3856915"><ele>1328.2</ele><time>2026-04-19T10:33:36.776Z</time></trkpt><trkpt lat="42.5225107" lon="13.3857405"><ele>1328.4</ele><time>2026-04-19T10:33:37.776Z</time></trkpt><trkpt lat="42.5225931" lon="13.3857401"><ele>1328.6000000000001</ele><time>2026-04-19T10:33:38.776Z</time></trkpt><trkpt lat="42.5226925" lon="13.3857192"><ele>1328.8000000000002</ele><time>2026-04-19T10:33:39.776Z</time></trkpt><trkpt lat="42.5228125" lon="13.3856816"><ele>1329.0</ele><time>2026-04-19T10:33:40.777Z</time></trkpt><trkpt lat="42.5229464" lon="13.3856508"><ele>1329.0</ele><time>2026-04-19T10:33:41.777Z</time></trkpt><trkpt lat="42.523107" lon="13.3856112"><ele>1329.0</ele><time>2026-04-19T10:33:42.777Z</time></trkpt><trkpt lat="42.523263" lon="13.3855629"><ele>1329.0</ele><time>2026-04-19T10:33:43.776Z</time></trkpt><trkpt lat="42.5234144" lon="13.3855096"><ele>1326.75</ele><time>2026-04-19T10:33:44.777Z</time></trkpt><trkpt lat="42.5235506" lon="13.3854582"><ele>1324.5</ele><time>2026-04-19T10:33:45.777Z</time></trkpt><trkpt lat="42.5236718" lon="13.3854305"><ele>1322.25</ele><time>2026-04-19T10:33:46.777Z</time></trkpt><trkpt lat="42.5237852" lon="13.3854523"><ele>1320.0</ele><time>2026-04-19T10:33:47.776Z</time></trkpt><trkpt lat="42.5238865" lon="13.3855082"><ele>1320.2</ele><time>2026-04-19T10:33:48.776Z</time></trkpt><trkpt lat="42.5239621" lon="13.3855814"><ele>1320.4</ele><time>2026-04-19T10:33:49.776Z</time></trkpt><trkpt lat="42.5240112" lon="13.3856842"><ele>1320.6</ele><time>2026-04-19T10:33:50.776Z</time></trkpt><trkpt lat="42.5240474" lon="13.385802"><ele>1320.8</ele><time>2026-04-19T10:33:51.776Z</time></trkpt><trkpt lat="42.5240595" lon="13.3859419"><ele>1321.0</ele><time>2026-04-19T10:33:52.777Z</time></trkpt><trkpt lat="42.5240552" lon="13.3860946"><ele>1321.0</ele><time>2026-04-19T10:33:53.776Z</time></trkpt><trkpt lat="42.524022" lon="13.3862538"><ele>1321.0</ele><time>2026-04-19T10:33:54.776Z</time></trkpt><trkpt lat="42.5239646" lon="13.3863836"><ele>1321.0</ele><time>2026-04-19T10:33:55.776Z</time></trkpt><trkpt lat="42.5238864" lon="13.3865037"><ele>1321.0</ele><time>2026-04-19T10:33:56.776Z</time></trkpt><trkpt lat="42.5237842" lon="13.3866"><ele>1323.75</ele><time>2026-04-19T10:33:57.777Z</time></trkpt><trkpt lat="42.523671" lon="13.3866822"><ele>1326.5</ele><time>2026-04-19T10:33:58.777Z</time></trkpt><trkpt lat="42.5235684" lon="13.3867569"><ele>1329.25</ele><time>2026-04-19T10:33:59.776Z</time></trkpt><trkpt lat="42.5234823" lon="13.3868632"><ele>1332.0</ele><time>2026-04-19T10:34:00.776Z</time></trkpt><trkpt lat="42.5234199" lon="13.387007"><ele>1332.0</ele><time>2026-04-19T10:34:01.777Z</time></trkpt><trkpt lat="42.5233664" lon="13.3871686"><ele>1332.0</ele><time>2026-04-19T10:34:02.776Z</time></trkpt><trkpt lat="42.5233374" lon="13.3873696"><ele>1332.0</ele><time>2026-04-19T10:34:03.776Z</time></trkpt><trkpt lat="42.5232979" lon="13.38757"><ele>1332.0</ele><time>2026-04-19T10:34:04.777Z</time></trkpt><trkpt lat="42.5232511" lon="13.3877498"><ele>1331.6</ele><time>2026-04-19T10:34:05.777Z</time></trkpt><trkpt lat="42.5231943" lon="13.3879083"><ele>1331.1999999999998</ele><time>2026-04-19T10:34:06.777Z</time></trkpt><trkpt lat="42.5231365" lon="13.388051"><ele>1330.8</ele><time>2026-04-19T10:34:07.777Z</time></trkpt><trkpt lat="42.5230831" lon="13.3881767"><ele>1330.4</ele><time>2026-04-19T10:34:08.777Z</time></trkpt><trkpt lat="42.5230501" lon="13.3882885"><ele>1330.0</ele><time>2026-04-19T10:34:09.776Z</time></trkpt><trkpt lat="42.5230367" lon="13.388407"><ele>1330.0</ele><time>2026-04-19T10:34:10.776Z</time></trkpt><trkpt lat="42.5230501" lon="13.3885237"><ele>1330.0</ele><time>2026-04-19T10:34:11.777Z</time></trkpt><trkpt lat="42.5230963" lon="13.3886322"><ele>1330.0</ele><time>2026-04-19T10:34:12.777Z</time></trkpt><trkpt lat="42.5231569" lon="13.3887136"><ele>1330.0</ele><time>2026-04-19T10:34:13.777Z</time></trkpt><trkpt lat="42.5232427" lon="13.3887726"><ele>1330.0</ele><time>2026-04-19T10:34:14.777Z</time></trkpt><trkpt lat="42.5233409" lon="13.3888091"><ele>1330.0</ele><time>2026-04-19T10:34:15.777Z</time></trkpt><trkpt lat="42.5234427" lon="13.3888322"><ele>1330.0</ele><time>2026-04-19T10:34:16.776Z</time></trkpt><trkpt lat="42.5235451" lon="13.3888761"><ele>1330.0</ele><time>2026-04-19T10:34:17.776Z</time></trkpt><trkpt lat="42.5236685" lon="13.3889129"><ele>1330.0</ele><time>2026-04-19T10:34:18.776Z</time></trkpt><trkpt lat="42.5237773" lon="13.3889619"><ele>1329.0</ele><time>2026-04-19T10:34:19.776Z</time></trkpt><trkpt lat="42.5238609" lon="13.3890191"><ele>1328.0</ele><time>2026-04-19T10:34:20.776Z</time></trkpt><trkpt lat="42.5239284" lon="13.3890993"><ele>1327.0</ele><time>2026-04-19T10:34:21.776Z</time></trkpt><trkpt lat="42.5239707" lon="13.3892209"><ele>1326.0</ele><time>2026-04-19T10:34:22.776Z</time></trkpt><trkpt lat="42.5239965" lon="13.3893571"><ele>1325.0</ele><time>2026-04-19T10:34:23.776Z</time></trkpt><trkpt lat="42.5240168" lon="13.3894981"><ele>1325.0</ele><time>2026-04-19T10:34:24.777Z</time></trkpt><trkpt lat="42.5240419" lon="13.3896221"><ele>1325.0</ele><time>2026-04-19T10:34:25.776Z</time></trkpt><trkpt lat="42.5240643" lon="13.3897315"><ele>1325.0</ele><time>2026-04-19T10:34:26.776Z</time></trkpt><trkpt lat="42.5240982" lon="13.3898279"><ele>1325.0</ele><time>2026-04-19T10:34:27.776Z</time></trkpt><trkpt lat="42.5241674" lon="13.3899454"><ele>1325.0</ele><time>2026-04-19T10:34:28.777Z</time></trkpt><trkpt lat="42.524268" lon="13.3900482"><ele>1324.6666666666667</ele><time>2026-04-19T10:34:29.776Z</time></trkpt><trkpt lat="42.5244116" lon="13.390163"><ele>1324.3333333333333</ele><time>2026-04-19T10:34:30.776Z</time></trkpt><trkpt lat="42.52458" lon="13.3902797"><ele>1324.0</ele><time>2026-04-19T10:34:31.777Z</time></trkpt><trkpt lat="42.5247795" lon="13.3903903"><ele>1324.0</ele><time>2026-04-19T10:34:32.777Z</time></trkpt><trkpt lat="42.5250013" lon="13.3904989"><ele>1324.0</ele><time>2026-04-19T10:34:33.776Z</time></trkpt><trkpt lat="42.525198" lon="13.390605"><ele>1324.0</ele><time>2026-04-19T10:34:34.777Z</time></trkpt><trkpt lat="42.5253849" lon="13.3907052"><ele>1325.6666666666665</ele><time>2026-04-19T10:34:35.776Z</time></trkpt><trkpt lat="42.5255576" lon="13.3908057"><ele>1327.3333333333333</ele><time>2026-04-19T10:34:36.777Z</time></trkpt><trkpt lat="42.5257124" lon="13.3909127"><ele>1329.0</ele><time>2026-04-19T10:34:37.776Z</time></trkpt><trkpt lat="42.5258615" lon="13.3910365"><ele>1329.0</ele><time>2026-04-19T10:34:38.776Z</time></trkpt><trkpt lat="42.526001" lon="13.39118"><ele>1329.0</ele><time>2026-04-19T10:34:39.777Z</time></trkpt><trkpt lat="42.5261408" lon="13.3913291"><ele>1329.0</ele><time>2026-04-19T10:34:40.777Z</time></trkpt><trkpt lat="42.5262936" lon="13.3914424"><ele>1331.3333333333333</ele><time>2026-04-19T10:34:41.776Z</time></trkpt><trkpt lat="42.5264514" lon="13.3915467"><ele>1333.6666666666665</ele><time>2026-04-19T10:34:42.776Z</time></trkpt><trkpt lat="42.5266085" lon="13.3916348"><ele>1336.0</ele><time>2026-04-19T10:34:43.777Z</time></trkpt><trkpt lat="42.526746" lon="13.3917309"><ele>1336.0</ele><time>2026-04-19T10:34:44.777Z</time></trkpt><trkpt lat="42.526869" lon="13.3918579"><ele>1336.0</ele><time>2026-04-19T10:34:45.776Z</time></trkpt><trkpt lat="42.5269932" lon="13.3920183"><ele>1336.0</ele><time>2026-04-19T10:34:46.776Z</time></trkpt><trkpt lat="42.5271241" lon="13.3922212"><ele>1332.0</ele><time>2026-04-19T10:34:47.777Z</time></trkpt><trkpt lat="42.5272741" lon="13.3924526"><ele>1328.0</ele><time>2026-04-19T10:34:48.776Z</time></trkpt><trkpt lat="42.5274193" lon="13.3926972"><ele>1328.0</ele><time>2026-04-19T10:34:49.776Z</time></trkpt><trkpt lat="42.527565" lon="13.392934"><ele>1328.0</ele><time>2026-04-19T10:34:50.777Z</time></trkpt><trkpt lat="42.5277027" lon="13.3931681"><ele>1328.0</ele><time>2026-04-19T10:34:51.776Z</time></trkpt><trkpt lat="42.5278367" lon="13.3934007"><ele>1325.3333333333335</ele><time>2026-04-19T10:34:52.776Z</time></trkpt><trkpt lat="42.5279564" lon="13.3936339"><ele>1322.6666666666667</ele><time>2026-04-19T10:34:53.777Z</time></trkpt><trkpt lat="42.5280571" lon="13.3938779"><ele>1320.0</ele><time>2026-04-19T10:34:54.776Z</time></trkpt><trkpt lat="42.5281248" lon="13.3941237"><ele>1320.0</ele><time>2026-04-19T10:34:55.776Z</time></trkpt><trkpt lat="42.5281704" lon="13.3943628"><ele>1320.0</ele><time>2026-04-19T10:34:56.777Z</time></trkpt><trkpt lat="42.5281898" lon="13.3945952"><ele>1320.0</ele><time>2026-04-19T10:34:57.776Z</time></trkpt><trkpt lat="42.5281845" lon="13.3948343"><ele>1321.0</ele><time>2026-04-19T10:34:58.777Z</time></trkpt><trkpt lat="42.5281458" lon="13.3950809"><ele>1322.0</ele><time>2026-04-19T10:34:59.777Z</time></trkpt><trkpt lat="42.5281036" lon="13.3953055"><ele>1323.0</ele><time>2026-04-19T10:35:00.776Z</time></trkpt><trkpt lat="42.5280696" lon="13.3955166"><ele>1323.0</ele><time>2026-04-19T10:35:01.777Z</time></trkpt><trkpt lat="42.5280662" lon="13.3957234"><ele>1323.0</ele><time>2026-04-19T10:35:02.777Z</time></trkpt><trkpt lat="42.5280981" lon="13.3959317"><ele>1323.0</ele><time>2026-04-19T10:35:03.776Z</time></trkpt><trkpt lat="42.528144" lon="13.3961228"><ele>1323.0</ele><time>2026-04-19T10:35:04.777Z</time></trkpt><trkpt lat="42.5281789" lon="13.3962903"><ele>1323.0</ele><time>2026-04-19T10:35:05.777Z</time></trkpt><trkpt lat="42.5281898" lon="13.3964459"><ele>1323.0</ele><time>2026-04-19T10:35:06.776Z</time></trkpt><trkpt lat="42.528169" lon="13.3965915"><ele>1323.0</ele><time>2026-04-19T10:35:07.777Z</time></trkpt><trkpt lat="42.5281104" lon="13.3967061"><ele>1322.5</ele><time>2026-04-19T10:35:08.776Z</time></trkpt><trkpt lat="42.5280267" lon="13.3967867"><ele>1322.0</ele><time>2026-04-19T10:35:09.777Z</time></trkpt><trkpt lat="42.5279135" lon="13.3968315"><ele>1321.5</ele><time>2026-04-19T10:35:10.776Z</time></trkpt><trkpt lat="42.5277763" lon="13.3968534"><ele>1321.0</ele><time>2026-04-19T10:35:11.777Z</time></trkpt><trkpt lat="42.5276215" lon="13.3968574"><ele>1323.6666666666665</ele><time>2026-04-19T10:35:12.776Z</time></trkpt><trkpt lat="42.5274557" lon="13.3968697"><ele>1326.3333333333333</ele><time>2026-04-19T10:35:13.777Z</time></trkpt><trkpt lat="42.5272754" lon="13.3968703"><ele>1329.0</ele><time>2026-04-19T10:35:14.776Z</time></trkpt><trkpt lat="42.5270773" lon="13.3968492"><ele>1328.5</ele><time>2026-04-19T10:35:15.777Z</time></trkpt><trkpt lat="42.5268605" lon="13.3968121"><ele>1328.0</ele><time>2026-04-19T10:35:16.776Z</time></trkpt><trkpt lat="42.5266274" lon="13.3967562"><ele>1328.0</ele><time>2026-04-19T10:35:17.777Z</time></trkpt><trkpt lat="42.5263934" lon="13.3967125"><ele>1328.0</ele><time>2026-04-19T10:35:18.777Z</time></trkpt><trkpt lat="42.5261731" lon="13.396664"><ele>1328.3333333333335</ele><time>2026-04-19T10:35:19.777Z</time></trkpt><trkpt lat="42.5259675" lon="13.3966182"><ele>1328.6666666666667</ele><time>2026-04-19T10:35:20.776Z</time></trkpt><trkpt lat="42.5257738" lon="13.3965746"><ele>1329.0</ele><time>2026-04-19T10:35:21.776Z</time></trkpt><trkpt lat="42.5255858" lon="13.3965534"><ele>1330.6666666666667</ele><time>2026-04-19T10:35:22.776Z</time></trkpt><trkpt lat="42.5253922" lon="13.3965658"><ele>1332.3333333333335</ele><time>2026-04-19T10:35:23.776Z</time></trkpt><trkpt lat="42.5251907" lon="13.3966079"><ele>1334.0</ele><time>2026-04-19T10:35:24.777Z</time></trkpt><trkpt lat="42.5249768" lon="13.3966688"><ele>1334.0</ele><time>2026-04-19T10:35:25.776Z</time></trkpt><trkpt lat="42.5247537" lon="13.396741"><ele>1334.0</ele><time>2026-04-19T10:35:26.776Z</time></trkpt><trkpt lat="42.5245441" lon="13.3968159"><ele>1334.0</ele><time>2026-04-19T10:35:27.776Z</time></trkpt><trkpt lat="42.5243471" lon="13.3968753"><ele>1335.3333333333335</ele><time>2026-04-19T10:35:28.777Z</time></trkpt><trkpt lat="42.5241616" lon="13.3969344"><ele>1336.6666666666667</ele><time>2026-04-19T10:35:29.776Z</time></trkpt><trkpt lat="42.5239861" lon="13.3969957"><ele>1338.0</ele><time>2026-04-19T10:35:30.776Z</time></trkpt><trkpt lat="42.5238148" lon="13.3970575"><ele>1340.0</ele><time>2026-04-19T10:35:31.776Z</time></trkpt><trkpt lat="42.5236518" lon="13.397113"><ele>1342.0</ele><time>2026-04-19T10:35:32.777Z</time></trkpt><trkpt lat="42.523496" lon="13.3971603"><ele>1344.0</ele><time>2026-04-19T10:35:33.776Z</time></trkpt><trkpt lat="42.5233527" lon="13.3972031"><ele>1341.6</ele><time>2026-04-19T10:35:34.776Z</time></trkpt><trkpt lat="42.5232361" lon="13.3972657"><ele>1339.2</ele><time>2026-04-19T10:35:35.776Z</time></trkpt><trkpt lat="42.523156" lon="13.3973529"><ele>1336.8</ele><time>2026-04-19T10:35:36.777Z</time></trkpt><trkpt lat="42.5231033" lon="13.3974633"><ele>1334.3999999999999</ele><time>2026-04-19T10:35:37.777Z</time></trkpt><trkpt lat="42.5230876" lon="13.3976111"><ele>1332.0</ele><time>2026-04-19T10:35:38.776Z</time></trkpt><trkpt lat="42.5230782" lon="13.3977608"><ele>1332.0</ele><time>2026-04-19T10:35:39.776Z</time></trkpt><trkpt lat="42.5231073" lon="13.397929"><ele>1332.0</ele><time>2026-04-19T10:35:40.776Z</time></trkpt><trkpt lat="42.523138" lon="13.3981029"><ele>1332.0</ele><time>2026-04-19T10:35:41.777Z</time></trkpt><trkpt lat="42.5231816" lon="13.3982691"><ele>1332.0</ele><time>2026-04-19T10:35:42.776Z</time></trkpt><trkpt lat="42.5232465" lon="13.398422"><ele>1332.0</ele><time>2026-04-19T10:35:43.777Z</time></trkpt><trkpt lat="42.5233231" lon="13.3985543"><ele>1332.0</ele><time>2026-04-19T10:35:44.777Z</time></trkpt><trkpt lat="42.5234052" lon="13.3986855"><ele>1332.0</ele><time>2026-04-19T10:35:45.776Z</time></trkpt><trkpt lat="42.5234724" lon="13.3988404"><ele>1332.0</ele><time>2026-04-19T10:35:46.777Z</time></trkpt><trkpt lat="42.5234902" lon="13.3990044"><ele>1333.5</ele><time>2026-04-19T10:35:47.776Z</time></trkpt><trkpt lat="42.5234813" lon="13.3991905"><ele>1335.0</ele><time>2026-04-19T10:35:48.776Z</time></trkpt><trkpt lat="42.5234481" lon="13.3993904"><ele>1336.5</ele><time>2026-04-19T10:35:49.776Z</time></trkpt><trkpt lat="42.5234223" lon="13.3995926"><ele>1338.0</ele><time>2026-04-19T10:35:50.777Z</time></trkpt><trkpt lat="42.5233874" lon="13.3997707"><ele>1338.0</ele><time>2026-04-19T10:35:51.776Z</time></trkpt><trkpt lat="42.5233619" lon="13.3999201"><ele>1338.0</ele><time>2026-04-19T10:35:52.776Z</time></trkpt><trkpt lat="42.5233551" lon="13.4000502"><ele>1338.0</ele><time>2026-04-19T10:35:53.776Z</time></trkpt><trkpt lat="42.5233884" lon="13.4001678"><ele>1338.0</ele><time>2026-04-19T10:35:54.776Z</time></trkpt><trkpt lat="42.5234702" lon="13.4003029"><ele>1338.0</ele><time>2026-04-19T10:35:55.776Z</time></trkpt><trkpt lat="42.5235734" lon="13.4004647"><ele>1341.0</ele><time>2026-04-19T10:35:56.777Z</time></trkpt><trkpt lat="42.523704" lon="13.4006684"><ele>1344.0</ele><time>2026-04-19T10:35:57.777Z</time></trkpt><trkpt lat="42.5238482" lon="13.4008281"><ele>1347.0</ele><time>2026-04-19T10:35:58.776Z</time></trkpt><trkpt lat="42.523958" lon="13.4009789"><ele>1342.3333333333333</ele><time>2026-04-19T10:35:59.776Z</time></trkpt><trkpt lat="42.5240607" lon="13.4011328"><ele>1337.6666666666665</ele><time>2026-04-19T10:36:00.777Z</time></trkpt><trkpt lat="42.524123" lon="13.401325"><ele>1333.0</ele><time>2026-04-19T10:36:01.777Z</time></trkpt><trkpt lat="42.5241688" lon="13.4015287"><ele>1333.0</ele><time>2026-04-19T10:36:02.777Z</time></trkpt><trkpt lat="42.5241976" lon="13.4017253"><ele>1333.0</ele><time>2026-04-19T10:36:03.777Z</time></trkpt><trkpt lat="42.5242064" lon="13.4019087"><ele>1333.0</ele><time>2026-04-19T10:36:04.777Z</time></trkpt><trkpt lat="42.5241817" lon="13.4020756"><ele>1333.0</ele><time>2026-04-19T10:36:05.776Z</time></trkpt><trkpt lat="42.5241164" lon="13.402213"><ele>1331.75</ele><time>2026-04-19T10:36:06.776Z</time></trkpt><trkpt lat="42.5240168" lon="13.4023157"><ele>1330.5</ele><time>2026-04-19T10:36:07.776Z</time></trkpt><trkpt lat="42.5238847" lon="13.4024013"><ele>1329.25</ele><time>2026-04-19T10:36:08.777Z</time></trkpt><trkpt lat="42.5237335" lon="13.4024709"><ele>1328.0</ele><time>2026-04-19T10:36:09.777Z</time></trkpt><trkpt lat="42.5235812" lon="13.4025346"><ele>1332.75</ele><time>2026-04-19T10:36:10.777Z</time></trkpt><trkpt lat="42.5234416" lon="13.4026004"><ele>1337.5</ele><time>2026-04-19T10:36:11.777Z</time></trkpt><trkpt lat="42.5233314" lon="13.4026787"><ele>1342.25</ele><time>2026-04-19T10:36:12.777Z</time></trkpt><trkpt lat="42.5232523" lon="13.4027836"><ele>1347.0</ele><time>2026-04-19T10:36:13.777Z</time></trkpt><trkpt lat="42.5232028" lon="13.4029345"><ele>1344.75</ele><time>2026-04-19T10:36:14.777Z</time></trkpt><trkpt lat="42.5231755" lon="13.4031082"><ele>1342.5</ele><time>2026-04-19T10:36:15.776Z</time></trkpt><trkpt lat="42.5231602" lon="13.4032859"><ele>1340.25</ele><time>2026-04-19T10:36:16.777Z</time></trkpt><trkpt lat="42.5231579" lon="13.4034387"><ele>1338.0</ele><time>2026-04-19T10:36:17.776Z</time></trkpt><trkpt lat="42.5231763" lon="13.4035447"><ele>1338.0</ele><time>2026-04-19T10:36:18.777Z</time></trkpt><trkpt lat="42.5232415" lon="13.4036641"><ele>1338.0</ele><time>2026-04-19T10:36:19.776Z</time></trkpt><trkpt lat="42.5233451" lon="13.4037683"><ele>1338.0</ele><time>2026-04-19T10:36:20.777Z</time></trkpt><trkpt lat="42.5234666" lon="13.4038604"><ele>1338.0</ele><time>2026-04-19T10:36:21.776Z</time></trkpt><trkpt lat="42.5236011" lon="13.4039365"><ele>1336.0</ele><time>2026-04-19T10:36:22.776Z</time></trkpt><trkpt lat="42.5237575" lon="13.404004"><ele>1334.0</ele><time>2026-04-19T10:36:23.777Z</time></trkpt><trkpt lat="42.523898" lon="13.4040838"><ele>1332.0</ele><time>2026-04-19T10:36:24.777Z</time></trkpt><trkpt lat="42.5240377" lon="13.4041569"><ele>1332.0</ele><time>2026-04-19T10:36:25.776Z</time></trkpt><trkpt lat="42.5241508" lon="13.4042489"><ele>1332.0</ele><time>2026-04-19T10:36:26.776Z</time></trkpt><trkpt lat="42.5242342" lon="13.4043533"><ele>1332.0</ele><time>2026-04-19T10:36:27.776Z</time></trkpt><trkpt lat="42.5242856" lon="13.4044654"><ele>1332.0</ele><time>2026-04-19T10:36:28.777Z</time></trkpt><trkpt lat="42.5243083" lon="13.4045618"><ele>1332.0</ele><time>2026-04-19T10:36:29.776Z</time></trkpt><trkpt lat="42.5242968" lon="13.4046616"><ele>1332.1999999999998</ele><time>2026-04-19T10:36:30.777Z</time></trkpt><trkpt lat="42.5242504" lon="13.4047722"><ele>1332.4</ele><time>2026-04-19T10:36:31.776Z</time></trkpt><trkpt lat="42.5241843" lon="13.4048849"><ele>1332.6</ele><time>2026-04-19T10:36:32.776Z</time></trkpt><trkpt lat="42.5241147" lon="13.4050034"><ele>1332.8000000000002</ele><time>2026-04-19T10:36:33.777Z</time></trkpt><trkpt lat="42.524051" lon="13.4051251"><ele>1333.0</ele><time>2026-04-19T10:36:34.777Z</time></trkpt><trkpt lat="42.5240075" lon="13.4052466"><ele>1333.0</ele><time>2026-04-19T10:36:35.776Z</time></trkpt><trkpt lat="42.5239889" lon="13.4053706"><ele>1333.0</ele><time>2026-04-19T10:36:36.776Z</time></trkpt><trkpt lat="42.5240061" lon="13.405502"><ele>1333.0</ele><time>2026-04-19T10:36:37.777Z</time></trkpt><trkpt lat="42.5240411" lon="13.4056222"><ele>1333.0</ele><time>2026-04-19T10:36:38.776Z</time></trkpt><trkpt lat="42.524101" lon="13.4057291"><ele>1333.0</ele><time>2026-04-19T10:36:39.777Z</time></trkpt><trkpt lat="42.5241757" lon="13.4058247"><ele>1333.8000000000002</ele><time>2026-04-19T10:36:40.777Z</time></trkpt><trkpt lat="42.5242628" lon="13.4059098"><ele>1334.6</ele><time>2026-04-19T10:36:41.776Z</time></trkpt><trkpt lat="42.5243565" lon="13.4059789"><ele>1335.4</ele><time>2026-04-19T10:36:42.777Z</time></trkpt><trkpt lat="42.5244579" lon="13.4060241"><ele>1336.1999999999998</ele><time>2026-04-19T10:36:43.777Z</time></trkpt><trkpt lat="42.5245663" lon="13.4060531"><ele>1337.0</ele><time>2026-04-19T10:36:44.777Z</time></trkpt><trkpt lat="42.5246756" lon="13.4060776"><ele>1334.8</ele><time>2026-04-19T10:36:45.777Z</time></trkpt><trkpt lat="42.5247866" lon="13.4061051"><ele>1332.6</ele><time>2026-04-19T10:36:46.777Z</time></trkpt><trkpt lat="42.5248924" lon="13.4061049"><ele>1330.3999999999999</ele><time>2026-04-19T10:36:47.777Z</time></trkpt><trkpt lat="42.5249988" lon="13.4061094"><ele>1328.1999999999998</ele><time>2026-04-19T10:36:48.776Z</time></trkpt><trkpt lat="42.5251078" lon="13.406102"><ele>1326.0</ele><time>2026-04-19T10:36:49.776Z</time></trkpt><trkpt lat="42.5252242" lon="13.4060863"><ele>1326.0</ele><time>2026-04-19T10:36:50.776Z</time></trkpt><trkpt lat="42.5253335" lon="13.4060809"><ele>1326.0</ele><time>2026-04-19T10:36:51.777Z</time></trkpt><trkpt lat="42.5254525" lon="13.40608"><ele>1326.0</ele><time>2026-04-19T10:36:52.776Z</time></trkpt><trkpt lat="42.5255714" lon="13.4060859"><ele>1326.0</ele><time>2026-04-19T10:36:53.777Z</time></trkpt><trkpt lat="42.525687" lon="13.4060921"><ele>1325.75</ele><time>2026-04-19T10:36:54.777Z</time></trkpt><trkpt lat="42.5258004" lon="13.4061098"><ele>1325.5</ele><time>2026-04-19T10:36:55.776Z</time></trkpt><trkpt lat="42.5259087" lon="13.4061457"><ele>1325.25</ele><time>2026-04-19T10:36:56.777Z</time></trkpt><trkpt lat="42.526018" lon="13.4062068"><ele>1325.0</ele><time>2026-04-19T10:36:57.777Z</time></trkpt><trkpt lat="42.5261214" lon="13.4062902"><ele>1325.5</ele><time>2026-04-19T10:36:58.777Z</time></trkpt><trkpt lat="42.5262197" lon="13.4063935"><ele>1326.0</ele><time>2026-04-19T10:36:59.776Z</time></trkpt><trkpt lat="42.5263216" lon="13.4064907"><ele>1326.5</ele><time>2026-04-19T10:37:00.777Z</time></trkpt><trkpt lat="42.5264259" lon="13.4065689"><ele>1327.0</ele><time>2026-04-19T10:37:01.776Z</time></trkpt><trkpt lat="42.526529" lon="13.4066196"><ele>1327.0</ele><time>2026-04-19T10:37:02.776Z</time></trkpt><trkpt lat="42.5266307" lon="13.4066347"><ele>1327.0</ele><time>2026-04-19T10:37:03.776Z</time></trkpt><trkpt lat="42.5267291" lon="13.40661"><ele>1327.0</ele><time>2026-04-19T10:37:04.776Z</time></trkpt><trkpt lat="42.5268309" lon="13.4065591"><ele>1327.0</ele><time>2026-04-19T10:37:05.776Z</time></trkpt><trkpt lat="42.5269393" lon="13.4065057"><ele>1327.0</ele><time>2026-04-19T10:37:06.777Z</time></trkpt><trkpt lat="42.5270563" lon="13.4064296"><ele>1328.0</ele><time>2026-04-19T10:37:07.777Z</time></trkpt><trkpt lat="42.5271533" lon="13.4063569"><ele>1329.0</ele><time>2026-04-19T10:37:08.776Z</time></trkpt><trkpt lat="42.5272564" lon="13.4062904"><ele>1330.0</ele><time>2026-04-19T10:37:09.777Z</time></trkpt><trkpt lat="42.5273442" lon="13.4062555"><ele>1331.0</ele><time>2026-04-19T10:37:10.776Z</time></trkpt><trkpt lat="42.5274286" lon="13.4062619"><ele>1332.0</ele><time>2026-04-19T10:37:11.777Z</time></trkpt><trkpt lat="42.5275178" lon="13.4062977"><ele>1332.0</ele><time>2026-04-19T10:37:12.776Z</time></trkpt><trkpt lat="42.5276114" lon="13.4063754"><ele>1332.0</ele><time>2026-04-19T10:37:13.776Z</time></trkpt><trkpt lat="42.5276995" lon="13.4064683"><ele>1332.0</ele><time>2026-04-19T10:37:14.777Z</time></trkpt><trkpt lat="42.5277992" lon="13.4065872"><ele>1332.0</ele><time>2026-04-19T10:37:15.776Z</time></trkpt><trkpt lat="42.5278942" lon="13.4067238"><ele>1330.6666666666667</ele><time>2026-04-19T10:37:16.776Z</time></trkpt><trkpt lat="42.5279929" lon="13.4068699"><ele>1329.3333333333335</ele><time>2026-04-19T10:37:17.777Z</time></trkpt><trkpt lat="42.528098" lon="13.4070214"><ele>1328.0</ele><time>2026-04-19T10:37:18.777Z</time></trkpt><trkpt lat="42.5282068" lon="13.4071736"><ele>1328.0</ele><time>2026-04-19T10:37:19.776Z</time></trkpt><trkpt lat="42.5283046" lon="13.4073342"><ele>1328.0</ele><time>2026-04-19T10:37:20.776Z</time></trkpt><trkpt lat="42.5283979" lon="13.4074933"><ele>1328.0</ele><time>2026-04-19T10:37:21.777Z</time></trkpt><trkpt lat="42.5285024" lon="13.4076604"><ele>1328.0</ele><time>2026-04-19T10:37:22.776Z</time></trkpt><trkpt lat="42.5286033" lon="13.4078361"><ele>1328.0</ele><time>2026-04-19T10:37:23.776Z</time></trkpt><trkpt lat="42.5286983" lon="13.4080005"><ele>1328.0</ele><time>2026-04-19T10:37:24.776Z</time></trkpt><trkpt lat="42.5287955" lon="13.4081634"><ele>1326.75</ele><time>2026-04-19T10:37:25.776Z</time></trkpt><trkpt lat="42.5288902" lon="13.4083168"><ele>1325.5</ele><time>2026-04-19T10:37:26.776Z</time></trkpt><trkpt lat="42.5289796" lon="13.4084604"><ele>1324.25</ele><time>2026-04-19T10:37:27.777Z</time></trkpt><trkpt lat="42.5290627" lon="13.4085975"><ele>1323.0</ele><time>2026-04-19T10:37:28.776Z</time></trkpt><trkpt lat="42.52914" lon="13.4087313"><ele>1324.0</ele><time>2026-04-19T10:37:29.776Z</time></trkpt><trkpt lat="42.5292081" lon="13.4088587"><ele>1325.0</ele><time>2026-04-19T10:37:30.776Z</time></trkpt><trkpt lat="42.5292691" lon="13.4089877"><ele>1326.0</ele><time>2026-04-19T10:37:31.776Z</time></trkpt><trkpt lat="42.5293276" lon="13.4091124"><ele>1327.0</ele><time>2026-04-19T10:37:32.776Z</time></trkpt><trkpt lat="42.5293755" lon="13.4092256"><ele>1328.0</ele><time>2026-04-19T10:37:33.776Z</time></trkpt><trkpt lat="42.5294323" lon="13.4093189"><ele>1328.0</ele><time>2026-04-19T10:37:34.776Z</time></trkpt><trkpt lat="42.5294984" lon="13.4094142"><ele>1328.0</ele><time>2026-04-19T10:37:35.776Z</time></trkpt><trkpt lat="42.5295814" lon="13.4094987"><ele>1328.0</ele><time>2026-04-19T10:37:36.776Z</time></trkpt><trkpt lat="42.529683" lon="13.4095769"><ele>1328.0</ele><time>2026-04-19T10:37:37.776Z</time></trkpt><trkpt lat="42.5297907" lon="13.4096573"><ele>1328.0</ele><time>2026-04-19T10:37:38.776Z</time></trkpt><trkpt lat="42.5299015" lon="13.4097447"><ele>1328.5</ele><time>2026-04-19T10:37:39.776Z</time></trkpt><trkpt lat="42.5300054" lon="13.4098417"><ele>1329.0</ele><time>2026-04-19T10:37:40.776Z</time></trkpt><trkpt lat="42.5301107" lon="13.4099375"><ele>1329.5</ele><time>2026-04-19T10:37:41.776Z</time></trkpt><trkpt lat="42.5302278" lon="13.4100336"><ele>1330.0</ele><time>2026-04-19T10:37:42.776Z</time></trkpt><trkpt lat="42.5303461" lon="13.4101335"><ele>1328.25</ele><time>2026-04-19T10:37:43.776Z</time></trkpt><trkpt lat="42.5304684" lon="13.4102296"><ele>1326.5</ele><time>2026-04-19T10:37:44.777Z</time></trkpt><trkpt lat="42.5305858" lon="13.4103217"><ele>1324.75</ele><time>2026-04-19T10:37:45.776Z</time></trkpt><trkpt lat="42.530706" lon="13.4104052"><ele>1323.0</ele><time>2026-04-19T10:37:46.777Z</time></trkpt><trkpt lat="42.5308242" lon="13.4104582"><ele>1323.0</ele><time>2026-04-19T10:37:47.777Z</time></trkpt><trkpt lat="42.5309442" lon="13.4104661"><ele>1323.0</ele><time>2026-04-19T10:37:48.777Z</time></trkpt><trkpt lat="42.5310442" lon="13.4104785"><ele>1323.0</ele><time>2026-04-19T10:37:49.777Z</time></trkpt><trkpt lat="42.531153" lon="13.4104551"><ele>1323.0</ele><time>2026-04-19T10:37:50.776Z</time></trkpt><trkpt lat="42.5312542" lon="13.410411"><ele>1323.0</ele><time>2026-04-19T10:37:51.776Z</time></trkpt><trkpt lat="42.5313477" lon="13.4103564"><ele>1324.6000000000001</ele><time>2026-04-19T10:37:52.777Z</time></trkpt><trkpt lat="42.53144" lon="13.4103062"><ele>1326.2</ele><time>2026-04-19T10:37:53.776Z</time></trkpt><trkpt lat="42.5315345" lon="13.4102283"><ele>1327.8</ele><time>2026-04-19T10:37:54.776Z</time></trkpt><trkpt lat="42.5316256" lon="13.41015"><ele>1329.4</ele><time>2026-04-19T10:37:55.777Z</time></trkpt><trkpt lat="42.5317301" lon="13.4100732"><ele>1331.0</ele><time>2026-04-19T10:37:56.776Z</time></trkpt><trkpt lat="42.5318326" lon="13.4099854"><ele>1331.0</ele><time>2026-04-19T10:37:57.776Z</time></trkpt><trkpt lat="42.5319255" lon="13.4098937"><ele>1331.0</ele><time>2026-04-19T10:37:58.777Z</time></trkpt><trkpt lat="42.5320137" lon="13.4097945"><ele>1331.0</ele><time>2026-04-19T10:37:59.777Z</time></trkpt><trkpt lat="42.5321087" lon="13.4096939"><ele>1331.0</ele><time>2026-04-19T10:38:00.776Z</time></trkpt><trkpt lat="42.532202" lon="13.4095937"><ele>1328.75</ele><time>2026-04-19T10:38:01.776Z</time></trkpt><trkpt lat="42.5323005" lon="13.4095028"><ele>1326.5</ele><time>2026-04-19T10:38:02.776Z</time></trkpt><trkpt lat="42.5324071" lon="13.4094389"><ele>1324.25</ele><time>2026-04-19T10:38:03.776Z</time></trkpt><trkpt lat="42.5325185" lon="13.409394"><ele>1322.0</ele><time>2026-04-19T10:38:04.776Z</time></trkpt><trkpt lat="42.5326433" lon="13.4093652"><ele>1322.0</ele><time>2026-04-19T10:38:05.776Z</time></trkpt><trkpt lat="42.5327644" lon="13.4093372"><ele>1322.0</ele><time>2026-04-19T10:38:06.777Z</time></trkpt><trkpt lat="42.5328848" lon="13.4093205"><ele>1322.0</ele><time>2026-04-19T10:38:07.776Z</time></trkpt><trkpt lat="42.533005" lon="13.409318"><ele>1322.0</ele><time>2026-04-19T10:38:08.776Z</time></trkpt><trkpt lat="42.5331215" lon="13.4093433"><ele>1322.0</ele><time>2026-04-19T10:38:09.777Z</time></trkpt><trkpt lat="42.5332358" lon="13.4093906"><ele>1322.0</ele><time>2026-04-19T10:38:10.777Z</time></trkpt><trkpt lat="42.533355" lon="13.4094697"><ele>1322.0</ele><time>2026-04-19T10:38:11.776Z</time></trkpt><trkpt lat="42.5334738" lon="13.4095465"><ele>1322.0</ele><time>2026-04-19T10:38:12.776Z</time></trkpt><trkpt lat="42.5335827" lon="13.4096131"><ele>1324.3999999999999</ele><time>2026-04-19T10:38:13.777Z</time></trkpt><trkpt lat="42.5336802" lon="13.4096692"><ele>1326.8</ele><time>2026-04-19T10:38:14.776Z</time></trkpt><trkpt lat="42.5337828" lon="13.4097149"><ele>1329.2</ele><time>2026-04-19T10:38:15.777Z</time></trkpt><trkpt lat="42.5338945" lon="13.4097512"><ele>1331.6</ele><time>2026-04-19T10:38:16.777Z</time></trkpt><trkpt lat="42.5340011" lon="13.4097669"><ele>1334.0</ele><time>2026-04-19T10:38:17.776Z</time></trkpt><trkpt lat="42.5340958" lon="13.4097838"><ele>1334.0</ele><time>2026-04-19T10:38:18.776Z</time></trkpt><trkpt lat="42.5341874" lon="13.4098043"><ele>1334.0</ele><time>2026-04-19T10:38:19.777Z</time></trkpt><trkpt lat="42.5342722" lon="13.4098234"><ele>1334.0</ele><time>2026-04-19T10:38:20.775Z</time></trkpt><trkpt lat="42.5343518" lon="13.4098393"><ele>1334.0</ele><time>2026-04-19T10:38:21.776Z</time></trkpt><trkpt lat="42.5344274" lon="13.4098675"><ele>1334.0</ele><time>2026-04-19T10:38:22.775Z</time></trkpt><trkpt lat="42.5344906" lon="13.4098951"><ele>1334.0</ele><time>2026-04-19T10:38:23.775Z</time></trkpt><trkpt lat="42.5345508" lon="13.4099281"><ele>1331.0</ele><time>2026-04-19T10:38:24.775Z</time></trkpt><trkpt lat="42.5346543" lon="13.4099999"><ele>1328.0</ele><time>2026-04-19T10:38:26.775Z</time></trkpt><trkpt lat="42.5347089" lon="13.4100448"><ele>1325.0</ele><time>2026-04-19T10:38:27.776Z</time></trkpt><trkpt lat="42.5347718" lon="13.4100862"><ele>1322.0</ele><time>2026-04-19T10:38:28.776Z</time></trkpt><trkpt lat="42.5348809" lon="13.4101523"><ele>1319.0</ele><time>2026-04-19T10:38:30.776Z</time></trkpt><trkpt lat="42.5349859" lon="13.4102176"><ele>1319.0</ele><time>2026-04-19T10:38:32.775Z</time></trkpt><trkpt lat="42.5350503" lon="13.4102367"><ele>1319.0</ele><time>2026-04-19T10:38:33.776Z</time></trkpt><trkpt lat="42.5351183" lon="13.410238"><ele>1319.0</ele><time>2026-04-19T10:38:34.776Z</time></trkpt><trkpt lat="42.5351879" lon="13.4102157"><ele>1319.0</ele><time>2026-04-19T10:38:35.775Z</time></trkpt><trkpt lat="42.5352477" lon="13.4101838"><ele>1319.0</ele><time>2026-04-19T10:38:36.775Z</time></trkpt><trkpt lat="42.5353573" lon="13.4100955"><ele>1319.0</ele><time>2026-04-19T10:38:38.776Z</time></trkpt><trkpt lat="42.5354407" lon="13.4100391"><ele>1320.1666666666667</ele><time>2026-04-19T10:38:40.776Z</time></trkpt><trkpt lat="42.535505" lon="13.4099401"><ele>1321.3333333333335</ele><time>2026-04-19T10:38:42.776Z</time></trkpt><trkpt lat="42.5355427" lon="13.4098379"><ele>1322.5</ele><time>2026-04-19T10:38:44.775Z</time></trkpt><trkpt lat="42.5355634" lon="13.4097501"><ele>1323.6666666666667</ele><time>2026-04-19T10:38:46.775Z</time></trkpt><trkpt lat="42.5355927" lon="13.4096566"><ele>1324.8333333333333</ele><time>2026-04-19T10:38:48.776Z</time></trkpt><trkpt lat="42.5356152" lon="13.4095534"><ele>1326.0</ele><time>2026-04-19T10:38:50.776Z</time></trkpt><trkpt lat="42.5356513" lon="13.4094423"><ele>1326.0</ele><time>2026-04-19T10:38:52.775Z</time></trkpt><trkpt lat="42.535688" lon="13.4093257"><ele>1326.0</ele><time>2026-04-19T10:38:54.775Z</time></trkpt><trkpt lat="42.5357015" lon="13.4091819"><ele>1326.0</ele><time>2026-04-19T10:38:56.776Z</time></trkpt><trkpt lat="42.5356921" lon="13.4090247"><ele>1326.0</ele><time>2026-04-19T10:38:58.776Z</time></trkpt><trkpt lat="42.535683" lon="13.4088528"><ele>1326.0</ele><time>2026-04-19T10:39:00.775Z</time></trkpt><trkpt lat="42.5356797" lon="13.4087624"><ele>1328.4285714285713</ele><time>2026-04-19T10:39:01.775Z</time></trkpt><trkpt lat="42.5356778" lon="13.4086715"><ele>1330.857142857143</ele><time>2026-04-19T10:39:02.776Z</time></trkpt><trkpt lat="42.5356749" lon="13.4085833"><ele>1333.2857142857142</ele><time>2026-04-19T10:39:03.775Z</time></trkpt><trkpt lat="42.5356726" lon="13.4084938"><ele>1335.7142857142858</ele><time>2026-04-19T10:39:04.776Z</time></trkpt><trkpt lat="42.5356734" lon="13.4083952"><ele>1338.142857142857</ele><time>2026-04-19T10:39:05.775Z</time></trkpt><trkpt lat="42.5356681" lon="13.4083078"><ele>1340.5714285714284</ele><time>2026-04-19T10:39:06.775Z</time></trkpt><trkpt lat="42.5356719" lon="13.4082046"><ele>1343.0</ele><time>2026-04-19T10:39:07.776Z</time></trkpt><trkpt lat="42.5356651" lon="13.4081093"><ele>1343.0</ele><time>2026-04-19T10:39:08.776Z</time></trkpt><trkpt lat="42.5356697" lon="13.4080089"><ele>1343.0</ele><time>2026-04-19T10:39:09.776Z</time></trkpt><trkpt lat="42.5356731" lon="13.4078975"><ele>1343.0</ele><time>2026-04-19T10:39:10.775Z</time></trkpt><trkpt lat="42.5356738" lon="13.4078025"><ele>1343.0</ele><time>2026-04-19T10:39:11.775Z</time></trkpt><trkpt lat="42.5356827" lon="13.4077038"><ele>1343.0</ele><time>2026-04-19T10:39:12.775Z</time></trkpt><trkpt lat="42.5357015" lon="13.4076054"><ele>1343.0</ele><time>2026-04-19T10:39:13.775Z</time></trkpt><trkpt lat="42.5356979" lon="13.4075177"><ele>1343.0</ele><time>2026-04-19T10:39:14.775Z</time></trkpt><trkpt lat="42.5357029" lon="13.4074137"><ele>1343.3333333333335</ele><time>2026-04-19T10:39:15.775Z</time></trkpt><trkpt lat="42.5357134" lon="13.4073142"><ele>1343.6666666666667</ele><time>2026-04-19T10:39:16.776Z</time></trkpt><trkpt lat="42.5357273" lon="13.4072136"><ele>1344.0</ele><time>2026-04-19T10:39:17.775Z</time></trkpt><trkpt lat="42.5357387" lon="13.4071182"><ele>1344.3333333333333</ele><time>2026-04-19T10:39:18.776Z</time></trkpt><trkpt lat="42.5357522" lon="13.4070125"><ele>1344.6666666666665</ele><time>2026-04-19T10:39:19.782Z</time></trkpt><trkpt lat="42.5357718" lon="13.4069058"><ele>1345.0</ele><time>2026-04-19T10:39:20.782Z</time></trkpt><trkpt lat="42.5357857" lon="13.4068046"><ele>1343.5</ele><time>2026-04-19T10:39:21.782Z</time></trkpt><trkpt lat="42.535801" lon="13.4067127"><ele>1342.0</ele><time>2026-04-19T10:39:22.782Z</time></trkpt><trkpt lat="42.5358145" lon="13.4066117"><ele>1340.5</ele><time>2026-04-19T10:39:23.783Z</time></trkpt><trkpt lat="42.5358392" lon="13.4065151"><ele>1339.0</ele><time>2026-04-19T10:39:24.782Z</time></trkpt><trkpt lat="42.535877" lon="13.4063997"><ele>1337.5</ele><time>2026-04-19T10:39:25.782Z</time></trkpt><trkpt lat="42.5359089" lon="13.4062778"><ele>1336.0</ele><time>2026-04-19T10:39:26.783Z</time></trkpt><trkpt lat="42.5359144" lon="13.406154"><ele>1334.8</ele><time>2026-04-19T10:39:27.783Z</time></trkpt><trkpt lat="42.5359231" lon="13.4060557"><ele>1333.6</ele><time>2026-04-19T10:39:28.783Z</time></trkpt><trkpt lat="42.5359331" lon="13.4059276"><ele>1332.4</ele><time>2026-04-19T10:39:30.783Z</time></trkpt><trkpt lat="42.535945" lon="13.4058092"><ele>1331.2</ele><time>2026-04-19T10:39:33.782Z</time></trkpt><trkpt lat="42.5359237" lon="13.4056606"><ele>1330.0</ele><time>2026-04-19T10:39:35.782Z</time></trkpt><trkpt lat="42.535925" lon="13.4055028"><ele>1330.0</ele><time>2026-04-19T10:39:37.783Z</time></trkpt><trkpt lat="42.5359259" lon="13.405407"><ele>1330.0</ele><time>2026-04-19T10:39:38.782Z</time></trkpt><trkpt lat="42.5359273" lon="13.4051956"><ele>1330.0</ele><time>2026-04-19T10:39:40.782Z</time></trkpt><trkpt lat="42.5359244" lon="13.405077"><ele>1330.0</ele><time>2026-04-19T10:39:41.783Z</time></trkpt><trkpt lat="42.5359221" lon="13.4049582"><ele>1330.0</ele><time>2026-04-19T10:39:42.782Z</time></trkpt><trkpt lat="42.5358995" lon="13.404828"><ele>1329.5</ele><time>2026-04-19T10:39:43.782Z</time></trkpt><trkpt lat="42.5358845" lon="13.4045975"><ele>1329.0</ele><time>2026-04-19T10:39:44.782Z</time></trkpt><trkpt lat="42.5358765" lon="13.4044396"><ele>1328.5</ele><time>2026-04-19T10:39:45.782Z</time></trkpt><trkpt lat="42.5358642" lon="13.4042973"><ele>1328.0</ele><time>2026-04-19T10:39:46.782Z</time></trkpt><trkpt lat="42.5358421" lon="13.4041272"><ele>1328.0</ele><time>2026-04-19T10:39:47.783Z</time></trkpt><trkpt lat="42.5358262" lon="13.4039575"><ele>1328.0</ele><time>2026-04-19T10:39:48.782Z</time></trkpt><trkpt lat="42.5358108" lon="13.403783"><ele>1328.0</ele><time>2026-04-19T10:39:49.782Z</time></trkpt><trkpt lat="42.5358029" lon="13.4036031"><ele>1328.0</ele><time>2026-04-19T10:39:50.783Z</time></trkpt><trkpt lat="42.5358058" lon="13.4034182"><ele>1328.5</ele><time>2026-04-19T10:39:51.782Z</time></trkpt><trkpt lat="42.5358247" lon="13.4032215"><ele>1329.0</ele><time>2026-04-19T10:39:52.783Z</time></trkpt><trkpt lat="42.5358657" lon="13.4030372"><ele>1329.5</ele><time>2026-04-19T10:39:53.783Z</time></trkpt><trkpt lat="42.535921" lon="13.4028479"><ele>1330.0</ele><time>2026-04-19T10:39:54.783Z</time></trkpt><trkpt lat="42.5359878" lon="13.4026617"><ele>1330.3333333333333</ele><time>2026-04-19T10:39:55.783Z</time></trkpt><trkpt lat="42.5360603" lon="13.4024874"><ele>1330.6666666666667</ele><time>2026-04-19T10:39:56.783Z</time></trkpt><trkpt lat="42.53615" lon="13.4023159"><ele>1331.0</ele><time>2026-04-19T10:39:57.782Z</time></trkpt><trkpt lat="42.5362417" lon="13.4021329"><ele>1335.3333333333335</ele><time>2026-04-19T10:39:58.782Z</time></trkpt><trkpt lat="42.5363372" lon="13.4019479"><ele>1339.6666666666667</ele><time>2026-04-19T10:39:59.782Z</time></trkpt><trkpt lat="42.5364252" lon="13.4017689"><ele>1344.0</ele><time>2026-04-19T10:40:00.783Z</time></trkpt><trkpt lat="42.5365039" lon="13.4015907"><ele>1344.0</ele><time>2026-04-19T10:40:01.782Z</time></trkpt><trkpt lat="42.5365596" lon="13.4013969"><ele>1344.0</ele><time>2026-04-19T10:40:02.782Z</time></trkpt><trkpt lat="42.5365958" lon="13.4011937"><ele>1344.0</ele><time>2026-04-19T10:40:03.783Z</time></trkpt><trkpt lat="42.5366206" lon="13.4009766"><ele>1343.3333333333333</ele><time>2026-04-19T10:40:04.782Z</time></trkpt><trkpt lat="42.5366407" lon="13.4007451"><ele>1342.6666666666665</ele><time>2026-04-19T10:40:05.782Z</time></trkpt><trkpt lat="42.5366691" lon="13.4005096"><ele>1342.0</ele><time>2026-04-19T10:40:06.783Z</time></trkpt><trkpt lat="42.5366975" lon="13.4002784"><ele>1341.3333333333333</ele><time>2026-04-19T10:40:07.783Z</time></trkpt><trkpt lat="42.5367277" lon="13.4000586"><ele>1340.6666666666667</ele><time>2026-04-19T10:40:08.782Z</time></trkpt><trkpt lat="42.5367591" lon="13.3998396"><ele>1340.0</ele><time>2026-04-19T10:40:09.783Z</time></trkpt><trkpt lat="42.5367936" lon="13.3996318"><ele>1337.3333333333335</ele><time>2026-04-19T10:40:10.782Z</time></trkpt><trkpt lat="42.5368376" lon="13.3994288"><ele>1334.6666666666667</ele><time>2026-04-19T10:40:11.782Z</time></trkpt><trkpt lat="42.5368901" lon="13.3992419"><ele>1332.0</ele><time>2026-04-19T10:40:12.783Z</time></trkpt><trkpt lat="42.5369658" lon="13.39906"><ele>1334.3333333333333</ele><time>2026-04-19T10:40:13.782Z</time></trkpt><trkpt lat="42.5370636" lon="13.3989108"><ele>1336.6666666666665</ele><time>2026-04-19T10:40:14.782Z</time></trkpt><trkpt lat="42.5371755" lon="13.3987729"><ele>1339.0</ele><time>2026-04-19T10:40:15.782Z</time></trkpt><trkpt lat="42.5373017" lon="13.3986332"><ele>1339.0</ele><time>2026-04-19T10:40:16.782Z</time></trkpt><trkpt lat="42.5374367" lon="13.3985047"><ele>1339.0</ele><time>2026-04-19T10:40:17.782Z</time></trkpt><trkpt lat="42.5375691" lon="13.3983903"><ele>1339.0</ele><time>2026-04-19T10:40:18.782Z</time></trkpt><trkpt lat="42.5377031" lon="13.3982939"><ele>1339.0</ele><time>2026-04-19T10:40:19.782Z</time></trkpt><trkpt lat="42.5378391" lon="13.3982208"><ele>1339.0</ele><time>2026-04-19T10:40:20.783Z</time></trkpt><trkpt lat="42.5379791" lon="13.3981556"><ele>1339.0</ele><time>2026-04-19T10:40:21.782Z</time></trkpt><trkpt lat="42.5381083" lon="13.398081"><ele>1339.0</ele><time>2026-04-19T10:40:22.783Z</time></trkpt><trkpt lat="42.5382254" lon="13.3980004"><ele>1338.4</ele><time>2026-04-19T10:40:23.783Z</time></trkpt><trkpt lat="42.5383196" lon="13.3979088"><ele>1337.8000000000002</ele><time>2026-04-19T10:40:24.783Z</time></trkpt><trkpt lat="42.5383938" lon="13.3978023"><ele>1337.1999999999998</ele><time>2026-04-19T10:40:25.783Z</time></trkpt><trkpt lat="42.538452" lon="13.3976754"><ele>1336.6</ele><time>2026-04-19T10:40:26.782Z</time></trkpt><trkpt lat="42.5385116" lon="13.3975414"><ele>1336.0</ele><time>2026-04-19T10:40:27.783Z</time></trkpt><trkpt lat="42.5385799" lon="13.397416"><ele>1336.0</ele><time>2026-04-19T10:40:28.782Z</time></trkpt><trkpt lat="42.5386671" lon="13.3973231"><ele>1336.0</ele><time>2026-04-19T10:40:29.783Z</time></trkpt><trkpt lat="42.5387678" lon="13.3972539"><ele>1336.0</ele><time>2026-04-19T10:40:30.783Z</time></trkpt><trkpt lat="42.5388754" lon="13.3972019"><ele>1336.0</ele><time>2026-04-19T10:40:31.782Z</time></trkpt><trkpt lat="42.5389882" lon="13.3971506"><ele>1336.0</ele><time>2026-04-19T10:40:32.783Z</time></trkpt><trkpt lat="42.5390951" lon="13.3971015"><ele>1336.0</ele><time>2026-04-19T10:40:33.782Z</time></trkpt><trkpt lat="42.539206" lon="13.3970372"><ele>1336.0</ele><time>2026-04-19T10:40:34.783Z</time></trkpt><trkpt lat="42.539295" lon="13.3969678"><ele>1336.0</ele><time>2026-04-19T10:40:35.782Z</time></trkpt><trkpt lat="42.5393773" lon="13.3968878"><ele>1336.0</ele><time>2026-04-19T10:40:36.782Z</time></trkpt><trkpt lat="42.5394524" lon="13.3968059"><ele>1336.0</ele><time>2026-04-19T10:40:37.782Z</time></trkpt><trkpt lat="42.5395208" lon="13.3967095"><ele>1336.0</ele><time>2026-04-19T10:40:38.783Z</time></trkpt><trkpt lat="42.5395962" lon="13.3966224"><ele>1336.0</ele><time>2026-04-19T10:40:39.782Z</time></trkpt><trkpt lat="42.5396814" lon="13.3965396"><ele>1336.0</ele><time>2026-04-19T10:40:40.782Z</time></trkpt><trkpt lat="42.5397685" lon="13.3964755"><ele>1336.0</ele><time>2026-04-19T10:40:41.782Z</time></trkpt><trkpt lat="42.5398797" lon="13.3964313"><ele>1335.5</ele><time>2026-04-19T10:40:42.783Z</time></trkpt><trkpt lat="42.5399976" lon="13.3963951"><ele>1335.0</ele><time>2026-04-19T10:40:43.783Z</time></trkpt><trkpt lat="42.540117" lon="13.3963777"><ele>1334.5</ele><time>2026-04-19T10:40:44.782Z</time></trkpt><trkpt lat="42.5402313" lon="13.3963556"><ele>1334.0</ele><time>2026-04-19T10:40:45.782Z</time></trkpt><trkpt lat="42.5403344" lon="13.396328"><ele>1336.2</ele><time>2026-04-19T10:40:46.782Z</time></trkpt><trkpt lat="42.5404234" lon="13.3962992"><ele>1338.4</ele><time>2026-04-19T10:40:47.782Z</time></trkpt><trkpt lat="42.5405025" lon="13.3962488"><ele>1340.6</ele><time>2026-04-19T10:40:48.782Z</time></trkpt><trkpt lat="42.5405734" lon="13.3961654"><ele>1342.8</ele><time>2026-04-19T10:40:49.783Z</time></trkpt><trkpt lat="42.5406435" lon="13.3960413"><ele>1345.0</ele><time>2026-04-19T10:40:50.782Z</time></trkpt><trkpt lat="42.540696" lon="13.3958942"><ele>1345.0</ele><time>2026-04-19T10:40:51.782Z</time></trkpt><trkpt lat="42.5407368" lon="13.3957181"><ele>1345.0</ele><time>2026-04-19T10:40:52.783Z</time></trkpt><trkpt lat="42.5407794" lon="13.3955256"><ele>1345.0</ele><time>2026-04-19T10:40:53.783Z</time></trkpt><trkpt lat="42.5408459" lon="13.3953299"><ele>1345.0</ele><time>2026-04-19T10:40:54.782Z</time></trkpt><trkpt lat="42.5409375" lon="13.3951383"><ele>1343.6666666666665</ele><time>2026-04-19T10:40:55.782Z</time></trkpt><trkpt lat="42.5410511" lon="13.3949532"><ele>1342.3333333333333</ele><time>2026-04-19T10:40:56.782Z</time></trkpt><trkpt lat="42.541169" lon="13.3947904"><ele>1341.0</ele><time>2026-04-19T10:40:57.783Z</time></trkpt><trkpt lat="42.5412842" lon="13.394642"><ele>1341.0</ele><time>2026-04-19T10:40:58.782Z</time></trkpt><trkpt lat="42.5414042" lon="13.3945184"><ele>1341.0</ele><time>2026-04-19T10:40:59.783Z</time></trkpt><trkpt lat="42.5415383" lon="13.3944202"><ele>1341.0</ele><time>2026-04-19T10:41:00.783Z</time></trkpt><trkpt lat="42.5416944" lon="13.3943365"><ele>1341.0</ele><time>2026-04-19T10:41:01.783Z</time></trkpt><trkpt lat="42.5418544" lon="13.3942545"><ele>1341.0</ele><time>2026-04-19T10:41:02.782Z</time></trkpt><trkpt lat="42.54202" lon="13.3941726"><ele>1341.0</ele><time>2026-04-19T10:41:03.782Z</time></trkpt><trkpt lat="42.5421888" lon="13.3940875"><ele>1339.3333333333333</ele><time>2026-04-19T10:41:04.782Z</time></trkpt><trkpt lat="42.5423555" lon="13.394002"><ele>1337.6666666666665</ele><time>2026-04-19T10:41:05.783Z</time></trkpt><trkpt lat="42.5425219" lon="13.3939205"><ele>1336.0</ele><time>2026-04-19T10:41:06.782Z</time></trkpt><trkpt lat="42.5426846" lon="13.3938354"><ele>1336.0</ele><time>2026-04-19T10:41:07.783Z</time></trkpt><trkpt lat="42.5428368" lon="13.3937468"><ele>1336.0</ele><time>2026-04-19T10:41:08.783Z</time></trkpt><trkpt lat="42.5429763" lon="13.3936485"><ele>1336.0</ele><time>2026-04-19T10:41:09.783Z</time></trkpt><trkpt lat="42.5431053" lon="13.3935217"><ele>1336.3333333333333</ele><time>2026-04-19T10:41:10.782Z</time></trkpt><trkpt lat="42.5432224" lon="13.3933653"><ele>1336.6666666666667</ele><time>2026-04-19T10:41:11.783Z</time></trkpt><trkpt lat="42.5433333" lon="13.3931687"><ele>1337.0</ele><time>2026-04-19T10:41:12.782Z</time></trkpt><trkpt lat="42.5434535" lon="13.3929649"><ele>1337.0</ele><time>2026-04-19T10:41:13.782Z</time></trkpt><trkpt lat="42.5435744" lon="13.3927703"><ele>1337.0</ele><time>2026-04-19T10:41:14.783Z</time></trkpt><trkpt lat="42.5436924" lon="13.3925907"><ele>1337.0</ele><time>2026-04-19T10:41:15.782Z</time></trkpt><trkpt lat="42.5438094" lon="13.3924048"><ele>1338.0</ele><time>2026-04-19T10:41:16.782Z</time></trkpt><trkpt lat="42.5439308" lon="13.3922124"><ele>1339.0</ele><time>2026-04-19T10:41:17.782Z</time></trkpt><trkpt lat="42.544054" lon="13.3920171"><ele>1340.0</ele><time>2026-04-19T10:41:18.783Z</time></trkpt><trkpt lat="42.5441816" lon="13.3918215"><ele>1340.0</ele><time>2026-04-19T10:41:19.783Z</time></trkpt><trkpt lat="42.5443164" lon="13.3916263"><ele>1340.0</ele><time>2026-04-19T10:41:20.782Z</time></trkpt><trkpt lat="42.5444457" lon="13.3914252"><ele>1340.0</ele><time>2026-04-19T10:41:21.783Z</time></trkpt><trkpt lat="42.544573" lon="13.3912319"><ele>1340.3333333333335</ele><time>2026-04-19T10:41:22.783Z</time></trkpt><trkpt lat="42.5446977" lon="13.3910463"><ele>1340.6666666666667</ele><time>2026-04-19T10:41:23.782Z</time></trkpt><trkpt lat="42.5448235" lon="13.3908743"><ele>1341.0</ele><time>2026-04-19T10:41:24.782Z</time></trkpt><trkpt lat="42.544944" lon="13.3906993"><ele>1341.0</ele><time>2026-04-19T10:41:25.783Z</time></trkpt><trkpt lat="42.5450618" lon="13.3905193"><ele>1341.0</ele><time>2026-04-19T10:41:26.782Z</time></trkpt><trkpt lat="42.5451785" lon="13.390333"><ele>1341.0</ele><time>2026-04-19T10:41:27.783Z</time></trkpt><trkpt lat="42.5452971" lon="13.3901547"><ele>1341.6666666666667</ele><time>2026-04-19T10:41:28.783Z</time></trkpt><trkpt lat="42.5454138" lon="13.3899712"><ele>1342.3333333333335</ele><time>2026-04-19T10:41:29.782Z</time></trkpt><trkpt lat="42.5455304" lon="13.3897947"><ele>1343.0</ele><time>2026-04-19T10:41:30.782Z</time></trkpt><trkpt lat="42.5456431" lon="13.3896199"><ele>1343.0</ele><time>2026-04-19T10:41:31.782Z</time></trkpt><trkpt lat="42.5457498" lon="13.3894515"><ele>1343.0</ele><time>2026-04-19T10:41:32.782Z</time></trkpt><trkpt lat="42.545858" lon="13.3892852"><ele>1343.0</ele><time>2026-04-19T10:41:33.782Z</time></trkpt><trkpt lat="42.5459698" lon="13.389108"><ele>1343.0</ele><time>2026-04-19T10:41:34.783Z</time></trkpt><trkpt lat="42.5460848" lon="13.3889272"><ele>1343.0</ele><time>2026-04-19T10:41:35.782Z</time></trkpt><trkpt lat="42.5462037" lon="13.3887466"><ele>1343.0</ele><time>2026-04-19T10:41:36.782Z</time></trkpt><trkpt lat="42.5463212" lon="13.3885534"><ele>1342.6666666666667</ele><time>2026-04-19T10:41:37.782Z</time></trkpt><trkpt lat="42.5464342" lon="13.3883479"><ele>1342.3333333333333</ele><time>2026-04-19T10:41:38.782Z</time></trkpt><trkpt lat="42.5465327" lon="13.3881053"><ele>1342.0</ele><time>2026-04-19T10:41:39.783Z</time></trkpt><trkpt lat="42.546619" lon="13.3878285"><ele>1339.5</ele><time>2026-04-19T10:41:40.783Z</time></trkpt><trkpt lat="42.5467077" lon="13.387526"><ele>1337.0</ele><time>2026-04-19T10:41:41.782Z</time></trkpt><trkpt lat="42.5467952" lon="13.3872043"><ele>1337.0</ele><time>2026-04-19T10:41:42.782Z</time></trkpt><trkpt lat="42.5468919" lon="13.3868977"><ele>1337.0</ele><time>2026-04-19T10:41:43.782Z</time></trkpt><trkpt lat="42.5469888" lon="13.3865993"><ele>1339.5</ele><time>2026-04-19T10:41:44.783Z</time></trkpt><trkpt lat="42.5470785" lon="13.3863156"><ele>1342.0</ele><time>2026-04-19T10:41:45.782Z</time></trkpt><trkpt lat="42.5471598" lon="13.3860295"><ele>1342.0</ele><time>2026-04-19T10:41:46.782Z</time></trkpt><trkpt lat="42.5472434" lon="13.3857455"><ele>1342.0</ele><time>2026-04-19T10:41:47.782Z</time></trkpt><trkpt lat="42.5473318" lon="13.3854578"><ele>1341.3333333333333</ele><time>2026-04-19T10:41:48.782Z</time></trkpt><trkpt lat="42.5474181" lon="13.3851792"><ele>1340.6666666666667</ele><time>2026-04-19T10:41:49.782Z</time></trkpt><trkpt lat="42.5475015" lon="13.3849157"><ele>1340.0</ele><time>2026-04-19T10:41:50.782Z</time></trkpt><trkpt lat="42.5475735" lon="13.3846674"><ele>1339.6666666666667</ele><time>2026-04-19T10:41:51.783Z</time></trkpt><trkpt lat="42.5476408" lon="13.3844399"><ele>1339.3333333333333</ele><time>2026-04-19T10:41:52.782Z</time></trkpt><trkpt lat="42.5477115" lon="13.3842399"><ele>1339.0</ele><time>2026-04-19T10:41:53.783Z</time></trkpt><trkpt lat="42.5477986" lon="13.3840579"><ele>1340.6666666666665</ele><time>2026-04-19T10:41:54.783Z</time></trkpt><trkpt lat="42.5478953" lon="13.3838949"><ele>1342.3333333333333</ele><time>2026-04-19T10:41:55.783Z</time></trkpt><trkpt lat="42.5480113" lon="13.3837576"><ele>1344.0</ele><time>2026-04-19T10:41:56.783Z</time></trkpt><trkpt lat="42.5481449" lon="13.3836272"><ele>1344.0</ele><time>2026-04-19T10:41:57.782Z</time></trkpt><trkpt lat="42.5482946" lon="13.3834861"><ele>1344.0</ele><time>2026-04-19T10:41:58.782Z</time></trkpt><trkpt lat="42.5484514" lon="13.3833348"><ele>1344.0</ele><time>2026-04-19T10:41:59.783Z</time></trkpt><trkpt lat="42.548602" lon="13.3831772"><ele>1343.6666666666667</ele><time>2026-04-19T10:42:00.782Z</time></trkpt><trkpt lat="42.548758" lon="13.3830164"><ele>1343.3333333333335</ele><time>2026-04-19T10:42:01.782Z</time></trkpt><trkpt lat="42.5489163" lon="13.3828537"><ele>1343.0</ele><time>2026-04-19T10:42:02.783Z</time></trkpt><trkpt lat="42.549073" lon="13.3826917"><ele>1343.0</ele><time>2026-04-19T10:42:03.782Z</time></trkpt><trkpt lat="42.5492293" lon="13.3825401"><ele>1343.0</ele><time>2026-04-19T10:42:04.782Z</time></trkpt><trkpt lat="42.5493709" lon="13.3823922"><ele>1343.0</ele><time>2026-04-19T10:42:05.783Z</time></trkpt><trkpt lat="42.5495069" lon="13.3822553"><ele>1343.0</ele><time>2026-04-19T10:42:06.783Z</time></trkpt><trkpt lat="42.5496375" lon="13.3821351"><ele>1343.0</ele><time>2026-04-19T10:42:07.783Z</time></trkpt><trkpt lat="42.5497715" lon="13.3820391"><ele>1343.0</ele><time>2026-04-19T10:42:08.783Z</time></trkpt><trkpt lat="42.549912" lon="13.381975"><ele>1343.0</ele><time>2026-04-19T10:42:09.783Z</time></trkpt><trkpt lat="42.5500617" lon="13.3819323"><ele>1343.0</ele><time>2026-04-19T10:42:10.782Z</time></trkpt><trkpt lat="42.5502169" lon="13.3819032"><ele>1343.0</ele><time>2026-04-19T10:42:11.782Z</time></trkpt><trkpt lat="42.5503726" lon="13.3818762"><ele>1343.3333333333335</ele><time>2026-04-19T10:42:12.783Z</time></trkpt><trkpt lat="42.5505295" lon="13.3818439"><ele>1343.6666666666667</ele><time>2026-04-19T10:42:13.782Z</time></trkpt><trkpt lat="42.550677" lon="13.3818159"><ele>1344.0</ele><time>2026-04-19T10:42:14.782Z</time></trkpt><trkpt lat="42.5508212" lon="13.3817836"><ele>1344.0</ele><time>2026-04-19T10:42:15.782Z</time></trkpt><trkpt lat="42.5509507" lon="13.3817547"><ele>1344.0</ele><time>2026-04-19T10:42:16.782Z</time></trkpt><trkpt lat="42.5510876" lon="13.381726"><ele>1344.0</ele><time>2026-04-19T10:42:17.783Z</time></trkpt><trkpt lat="42.5512236" lon="13.3817074"><ele>1344.0</ele><time>2026-04-19T10:42:18.783Z</time></trkpt><trkpt lat="42.5513658" lon="13.3817016"><ele>1342.3333333333333</ele><time>2026-04-19T10:42:19.782Z</time></trkpt><trkpt lat="42.5515166" lon="13.3817087"><ele>1340.6666666666665</ele><time>2026-04-19T10:42:20.782Z</time></trkpt><trkpt lat="42.5516732" lon="13.3817274"><ele>1339.0</ele><time>2026-04-19T10:42:21.782Z</time></trkpt><trkpt lat="42.5518331" lon="13.3817332"><ele>1339.0</ele><time>2026-04-19T10:42:22.783Z</time></trkpt><trkpt lat="42.5519996" lon="13.3817544"><ele>1339.0</ele><time>2026-04-19T10:42:23.783Z</time></trkpt><trkpt lat="42.5521661" lon="13.3817827"><ele>1339.0</ele><time>2026-04-19T10:42:24.782Z</time></trkpt><trkpt lat="42.5523347" lon="13.3818261"><ele>1339.0</ele><time>2026-04-19T10:42:25.782Z</time></trkpt><trkpt lat="42.5524915" lon="13.3818484"><ele>1339.0</ele><time>2026-04-19T10:42:26.782Z</time></trkpt><trkpt lat="42.5526491" lon="13.3818675"><ele>1339.0</ele><time>2026-04-19T10:42:27.783Z</time></trkpt><trkpt lat="42.552807" lon="13.3818811"><ele>1338.75</ele><time>2026-04-19T10:42:28.783Z</time></trkpt><trkpt lat="42.5529564" lon="13.3818991"><ele>1338.5</ele><time>2026-04-19T10:42:29.782Z</time></trkpt><trkpt lat="42.5530963" lon="13.3819162"><ele>1338.25</ele><time>2026-04-19T10:42:30.783Z</time></trkpt><trkpt lat="42.5532199" lon="13.3819361"><ele>1338.0</ele><time>2026-04-19T10:42:31.782Z</time></trkpt><trkpt lat="42.5533415" lon="13.3819279"><ele>1338.0</ele><time>2026-04-19T10:42:32.782Z</time></trkpt><trkpt lat="42.5534501" lon="13.3819004"><ele>1338.0</ele><time>2026-04-19T10:42:33.783Z</time></trkpt><trkpt lat="42.5535425" lon="13.3818332"><ele>1338.0</ele><time>2026-04-19T10:42:34.782Z</time></trkpt><trkpt lat="42.5536144" lon="13.3817256"><ele>1338.0</ele><time>2026-04-19T10:42:35.782Z</time></trkpt><trkpt lat="42.553662" lon="13.3815803"><ele>1338.0</ele><time>2026-04-19T10:42:36.782Z</time></trkpt><trkpt lat="42.5536723" lon="13.3814036"><ele>1337.5</ele><time>2026-04-19T10:42:37.783Z</time></trkpt><trkpt lat="42.5536771" lon="13.3812175"><ele>1337.0</ele><time>2026-04-19T10:42:38.782Z</time></trkpt><trkpt lat="42.5536702" lon="13.3810367"><ele>1336.5</ele><time>2026-04-19T10:42:39.782Z</time></trkpt><trkpt lat="42.553659" lon="13.3808596"><ele>1336.0</ele><time>2026-04-19T10:42:40.782Z</time></trkpt><trkpt lat="42.5536789" lon="13.3806871"><ele>1337.75</ele><time>2026-04-19T10:42:41.783Z</time></trkpt><trkpt lat="42.5537131" lon="13.3805196"><ele>1339.5</ele><time>2026-04-19T10:42:42.783Z</time></trkpt><trkpt lat="42.5537688" lon="13.3803739"><ele>1341.25</ele><time>2026-04-19T10:42:43.782Z</time></trkpt><trkpt lat="42.5538588" lon="13.3802528"><ele>1343.0</ele><time>2026-04-19T10:42:44.783Z</time></trkpt><trkpt lat="42.5539903" lon="13.3801765"><ele>1343.0</ele><time>2026-04-19T10:42:45.782Z</time></trkpt><trkpt lat="42.5541487" lon="13.3801105"><ele>1343.0</ele><time>2026-04-19T10:42:46.782Z</time></trkpt><trkpt lat="42.5543319" lon="13.3800435"><ele>1343.0</ele><time>2026-04-19T10:42:47.782Z</time></trkpt><trkpt lat="42.554514" lon="13.3799671"><ele>1345.0</ele><time>2026-04-19T10:42:48.782Z</time></trkpt><trkpt lat="42.5546891" lon="13.3799001"><ele>1347.0</ele><time>2026-04-19T10:42:49.782Z</time></trkpt><trkpt lat="42.5548447" lon="13.3798506"><ele>1349.0</ele><time>2026-04-19T10:42:50.783Z</time></trkpt><trkpt lat="42.5549968" lon="13.3797973"><ele>1349.0</ele><time>2026-04-19T10:42:51.782Z</time></trkpt><trkpt lat="42.5551308" lon="13.3797291"><ele>1349.0</ele><time>2026-04-19T10:42:52.783Z</time></trkpt><trkpt lat="42.5552373" lon="13.379645"><ele>1349.0</ele><time>2026-04-19T10:42:53.782Z</time></trkpt><trkpt lat="42.5553309" lon="13.3795402"><ele>1349.0</ele><time>2026-04-19T10:42:54.782Z</time></trkpt><trkpt lat="42.5553942" lon="13.3793932"><ele>1347.75</ele><time>2026-04-19T10:42:55.782Z</time></trkpt><trkpt lat="42.555429" lon="13.3792383"><ele>1346.5</ele><time>2026-04-19T10:42:56.782Z</time></trkpt><trkpt lat="42.5554218" lon="13.3790606"><ele>1345.25</ele><time>2026-04-19T10:42:57.783Z</time></trkpt><trkpt lat="42.5553886" lon="13.3788623"><ele>1344.0</ele><time>2026-04-19T10:42:58.782Z</time></trkpt><trkpt lat="42.5553326" lon="13.3786697"><ele>1342.5</ele><time>2026-04-19T10:42:59.782Z</time></trkpt><trkpt lat="42.555287" lon="13.3784791"><ele>1341.0</ele><time>2026-04-19T10:43:00.783Z</time></trkpt><trkpt lat="42.555271" lon="13.378296"><ele>1339.5</ele><time>2026-04-19T10:43:01.782Z</time></trkpt><trkpt lat="42.5552788" lon="13.3780852"><ele>1338.0</ele><time>2026-04-19T10:43:02.782Z</time></trkpt><trkpt lat="42.5553333" lon="13.3778755"><ele>1338.0</ele><time>2026-04-19T10:43:03.782Z</time></trkpt><trkpt lat="42.5554082" lon="13.3776525"><ele>1338.0</ele><time>2026-04-19T10:43:04.782Z</time></trkpt><trkpt lat="42.5555114" lon="13.3774063"><ele>1338.0</ele><time>2026-04-19T10:43:05.782Z</time></trkpt><trkpt lat="42.5556277" lon="13.3771539"><ele>1338.0</ele><time>2026-04-19T10:43:06.782Z</time></trkpt><trkpt lat="42.5557452" lon="13.3768974"><ele>1338.0</ele><time>2026-04-19T10:43:07.782Z</time></trkpt><trkpt lat="42.55585" lon="13.3766505"><ele>1338.0</ele><time>2026-04-19T10:43:08.782Z</time></trkpt><trkpt lat="42.5559506" lon="13.3764244"><ele>1338.0</ele><time>2026-04-19T10:43:09.782Z</time></trkpt><trkpt lat="42.5560447" lon="13.3762279"><ele>1338.0</ele><time>2026-04-19T10:43:10.782Z</time></trkpt><trkpt lat="42.5561457" lon="13.3760714"><ele>1338.0</ele><time>2026-04-19T10:43:11.783Z</time></trkpt><trkpt lat="42.5562713" lon="13.3759428"><ele>1338.6666666666667</ele><time>2026-04-19T10:43:12.782Z</time></trkpt><trkpt lat="42.5564305" lon="13.3758464"><ele>1339.3333333333335</ele><time>2026-04-19T10:43:13.783Z</time></trkpt><trkpt lat="42.5565719" lon="13.3757621"><ele>1340.0</ele><time>2026-04-19T10:43:14.783Z</time></trkpt><trkpt lat="42.5567017" lon="13.375657"><ele>1338.3333333333335</ele><time>2026-04-19T10:43:15.783Z</time></trkpt><trkpt lat="42.5568112" lon="13.3755045"><ele>1336.6666666666667</ele><time>2026-04-19T10:43:16.782Z</time></trkpt><trkpt lat="42.5568995" lon="13.375305"><ele>1335.0</ele><time>2026-04-19T10:43:17.783Z</time></trkpt><trkpt lat="42.5569674" lon="13.3750797"><ele>1336.0</ele><time>2026-04-19T10:43:18.782Z</time></trkpt><trkpt lat="42.5570376" lon="13.3748397"><ele>1337.0</ele><time>2026-04-19T10:43:19.782Z</time></trkpt><trkpt lat="42.5570998" lon="13.3745907"><ele>1338.0</ele><time>2026-04-19T10:43:20.782Z</time></trkpt><trkpt lat="42.557172" lon="13.374353"><ele>1338.0</ele><time>2026-04-19T10:43:21.782Z</time></trkpt><trkpt lat="42.5572621" lon="13.3741288"><ele>1338.0</ele><time>2026-04-19T10:43:22.783Z</time></trkpt><trkpt lat="42.5573816" lon="13.3739184"><ele>1338.0</ele><time>2026-04-19T10:43:23.782Z</time></trkpt><trkpt lat="42.5575076" lon="13.3737345"><ele>1338.0</ele><time>2026-04-19T10:43:24.783Z</time></trkpt><trkpt lat="42.5576246" lon="13.3735698"><ele>1338.0</ele><time>2026-04-19T10:43:25.783Z</time></trkpt><trkpt lat="42.5577381" lon="13.373418"><ele>1338.0</ele><time>2026-04-19T10:43:26.783Z</time></trkpt><trkpt lat="42.5578508" lon="13.3732833"><ele>1339.3333333333333</ele><time>2026-04-19T10:43:27.782Z</time></trkpt><trkpt lat="42.5579773" lon="13.37318"><ele>1340.6666666666665</ele><time>2026-04-19T10:43:28.783Z</time></trkpt><trkpt lat="42.55813" lon="13.3731097"><ele>1342.0</ele><time>2026-04-19T10:43:29.783Z</time></trkpt><trkpt lat="42.5583009" lon="13.3730704"><ele>1342.0</ele><time>2026-04-19T10:43:30.783Z</time></trkpt><trkpt lat="42.5584875" lon="13.3730347"><ele>1342.0</ele><time>2026-04-19T10:43:31.783Z</time></trkpt><trkpt lat="42.5586779" lon="13.3729935"><ele>1342.0</ele><time>2026-04-19T10:43:32.783Z</time></trkpt><trkpt lat="42.5588619" lon="13.3729439"><ele>1342.0</ele><time>2026-04-19T10:43:33.782Z</time></trkpt><trkpt lat="42.5590467" lon="13.3728917"><ele>1342.0</ele><time>2026-04-19T10:43:34.782Z</time></trkpt><trkpt lat="42.5592267" lon="13.3728182"><ele>1342.0</ele><time>2026-04-19T10:43:35.783Z</time></trkpt><trkpt lat="42.5593954" lon="13.3727064"><ele>1344.0</ele><time>2026-04-19T10:43:36.783Z</time></trkpt><trkpt lat="42.5595488" lon="13.3725723"><ele>1346.0</ele><time>2026-04-19T10:43:37.783Z</time></trkpt><trkpt lat="42.559698" lon="13.3724437"><ele>1348.0</ele><time>2026-04-19T10:43:38.783Z</time></trkpt><trkpt lat="42.5598491" lon="13.3723522"><ele>1348.0</ele><time>2026-04-19T10:43:39.782Z</time></trkpt><trkpt lat="42.5600101" lon="13.372303"><ele>1348.0</ele><time>2026-04-19T10:43:40.782Z</time></trkpt><trkpt lat="42.560177" lon="13.3722915"><ele>1348.0</ele><time>2026-04-19T10:43:41.783Z</time></trkpt><trkpt lat="42.5603336" lon="13.3722821"><ele>1349.25</ele><time>2026-04-19T10:43:42.783Z</time></trkpt><trkpt lat="42.5604808" lon="13.3722485"><ele>1350.5</ele><time>2026-04-19T10:43:43.783Z</time></trkpt><trkpt lat="42.5606179" lon="13.3721913"><ele>1351.75</ele><time>2026-04-19T10:43:44.783Z</time></trkpt><trkpt lat="42.5607388" lon="13.3721271"><ele>1353.0</ele><time>2026-04-19T10:43:45.782Z</time></trkpt><trkpt lat="42.5608586" lon="13.3720821"><ele>1353.0</ele><time>2026-04-19T10:43:46.782Z</time></trkpt><trkpt lat="42.5609689" lon="13.3720897"><ele>1353.0</ele><time>2026-04-19T10:43:47.783Z</time></trkpt><trkpt lat="42.561087" lon="13.3721193"><ele>1353.0</ele><time>2026-04-19T10:43:48.783Z</time></trkpt><trkpt lat="42.5612031" lon="13.3721431"><ele>1353.0</ele><time>2026-04-19T10:43:49.782Z</time></trkpt><trkpt lat="42.5613113" lon="13.3721732"><ele>1353.75</ele><time>2026-04-19T10:43:50.782Z</time></trkpt><trkpt lat="42.561419" lon="13.3722032"><ele>1354.5</ele><time>2026-04-19T10:43:51.783Z</time></trkpt><trkpt lat="42.5615352" lon="13.3722115"><ele>1355.25</ele><time>2026-04-19T10:43:52.782Z</time></trkpt><trkpt lat="42.5616473" lon="13.3721794"><ele>1356.0</ele><time>2026-04-19T10:43:53.783Z</time></trkpt><trkpt lat="42.5617458" lon="13.3721154"><ele>1356.0</ele><time>2026-04-19T10:43:54.783Z</time></trkpt><trkpt lat="42.5618292" lon="13.3720282"><ele>1356.0</ele><time>2026-04-19T10:43:55.783Z</time></trkpt><trkpt lat="42.5618835" lon="13.3719183"><ele>1356.0</ele><time>2026-04-19T10:43:56.782Z</time></trkpt><trkpt lat="42.5619302" lon="13.3717887"><ele>1356.0</ele><time>2026-04-19T10:43:57.783Z</time></trkpt><trkpt lat="42.5619751" lon="13.3716825"><ele>1356.0</ele><time>2026-04-19T10:43:58.783Z</time></trkpt><trkpt lat="42.561995" lon="13.3715843"><ele>1356.0</ele><time>2026-04-19T10:43:59.783Z</time></trkpt><trkpt lat="42.5619824" lon="13.3714991"><ele>1356.0</ele><time>2026-04-19T10:44:00.782Z</time></trkpt><trkpt lat="42.5619314" lon="13.3714327"><ele>1356.0</ele><time>2026-04-19T10:44:01.783Z</time></trkpt><trkpt lat="42.5618531" lon="13.3713776"><ele>1356.0</ele><time>2026-04-19T10:44:02.783Z</time></trkpt><trkpt lat="42.561757" lon="13.3713231"><ele>1356.0</ele><time>2026-04-19T10:44:03.783Z</time></trkpt><trkpt lat="42.5616434" lon="13.3712626"><ele>1356.0</ele><time>2026-04-19T10:44:04.783Z</time></trkpt><trkpt lat="42.5615167" lon="13.3711952"><ele>1360.0</ele><time>2026-04-19T10:44:05.783Z</time></trkpt><trkpt lat="42.5613758" lon="13.3711202"><ele>1364.0</ele><time>2026-04-19T10:44:06.783Z</time></trkpt><trkpt lat="42.5612335" lon="13.3710844"><ele>1368.0</ele><time>2026-04-19T10:44:07.782Z</time></trkpt><trkpt lat="42.561087" lon="13.3710789"><ele>1372.0</ele><time>2026-04-19T10:44:08.783Z</time></trkpt><trkpt lat="42.5609292" lon="13.3710975"><ele>1372.5</ele><time>2026-04-19T10:44:09.782Z</time></trkpt><trkpt lat="42.5607843" lon="13.3711105"><ele>1373.0</ele><time>2026-04-19T10:44:10.782Z</time></trkpt><trkpt lat="42.5606495" lon="13.3711133"><ele>1373.5</ele><time>2026-04-19T10:44:11.782Z</time></trkpt><trkpt lat="42.5604996" lon="13.3711305"><ele>1374.0</ele><time>2026-04-19T10:44:12.782Z</time></trkpt><trkpt lat="42.560344" lon="13.371152"><ele>1375.3333333333333</ele><time>2026-04-19T10:44:13.782Z</time></trkpt><trkpt lat="42.5601835" lon="13.3711432"><ele>1376.6666666666665</ele><time>2026-04-19T10:44:14.782Z</time></trkpt><trkpt lat="42.5600176" lon="13.3711175"><ele>1378.0</ele><time>2026-04-19T10:44:15.783Z</time></trkpt><trkpt lat="42.559854" lon="13.3710804"><ele>1378.0</ele><time>2026-04-19T10:44:16.782Z</time></trkpt><trkpt lat="42.5597028" lon="13.3710409"><ele>1378.0</ele><time>2026-04-19T10:44:17.782Z</time></trkpt><trkpt lat="42.5595595" lon="13.3710152"><ele>1378.0</ele><time>2026-04-19T10:44:18.782Z</time></trkpt><trkpt lat="42.5594318" lon="13.3709723"><ele>1378.0</ele><time>2026-04-19T10:44:19.782Z</time></trkpt><trkpt lat="42.5593209" lon="13.3709169"><ele>1378.6000000000001</ele><time>2026-04-19T10:44:20.783Z</time></trkpt><trkpt lat="42.5592325" lon="13.370833"><ele>1379.2</ele><time>2026-04-19T10:44:21.782Z</time></trkpt><trkpt lat="42.5591826" lon="13.3707175"><ele>1379.8</ele><time>2026-04-19T10:44:22.782Z</time></trkpt><trkpt lat="42.5591599" lon="13.3706021"><ele>1380.4</ele><time>2026-04-19T10:44:23.783Z</time></trkpt><trkpt lat="42.5591618" lon="13.3704597"><ele>1381.0</ele><time>2026-04-19T10:44:24.782Z</time></trkpt><trkpt lat="42.559173" lon="13.3702996"><ele>1381.0</ele><time>2026-04-19T10:44:25.782Z</time></trkpt><trkpt lat="42.5591886" lon="13.3701237"><ele>1381.0</ele><time>2026-04-19T10:44:26.782Z</time></trkpt><trkpt lat="42.5591946" lon="13.3699583"><ele>1381.0</ele><time>2026-04-19T10:44:27.782Z</time></trkpt><trkpt lat="42.5592012" lon="13.3697909"><ele>1381.0</ele><time>2026-04-19T10:44:28.782Z</time></trkpt><trkpt lat="42.5591756" lon="13.3696359"><ele>1383.25</ele><time>2026-04-19T10:44:29.783Z</time></trkpt><trkpt lat="42.5591451" lon="13.3694945"><ele>1385.5</ele><time>2026-04-19T10:44:30.782Z</time></trkpt><trkpt lat="42.5590954" lon="13.3693483"><ele>1387.75</ele><time>2026-04-19T10:44:31.782Z</time></trkpt><trkpt lat="42.5590274" lon="13.3692131"><ele>1390.0</ele><time>2026-04-19T10:44:32.783Z</time></trkpt><trkpt lat="42.5589556" lon="13.3690887"><ele>1390.0</ele><time>2026-04-19T10:44:33.783Z</time></trkpt><trkpt lat="42.5588848" lon="13.3689817"><ele>1390.0</ele><time>2026-04-19T10:44:34.782Z</time></trkpt><trkpt lat="42.5588125" lon="13.3689049"><ele>1390.0</ele><time>2026-04-19T10:44:35.783Z</time></trkpt><trkpt lat="42.5587429" lon="13.3688593"><ele>1390.0</ele><time>2026-04-19T10:44:36.783Z</time></trkpt><trkpt lat="42.5586705" lon="13.3688579"><ele>1390.0</ele><time>2026-04-19T10:44:37.783Z</time></trkpt><trkpt lat="42.5586009" lon="13.3688873"><ele>1390.0</ele><time>2026-04-19T10:44:38.783Z</time></trkpt><trkpt lat="42.5585308" lon="13.3689475"><ele>1388.8333333333333</ele><time>2026-04-19T10:44:39.783Z</time></trkpt><trkpt lat="42.558463" lon="13.3690408"><ele>1387.6666666666665</ele><time>2026-04-19T10:44:40.783Z</time></trkpt><trkpt lat="42.5583921" lon="13.3691237"><ele>1386.5</ele><time>2026-04-19T10:44:41.783Z</time></trkpt><trkpt lat="42.5583325" lon="13.3692065"><ele>1385.3333333333333</ele><time>2026-04-19T10:44:42.782Z</time></trkpt><trkpt lat="42.5582692" lon="13.3692916"><ele>1384.1666666666667</ele><time>2026-04-19T10:44:43.782Z</time></trkpt><trkpt lat="42.5582087" lon="13.3693519"><ele>1383.0</ele><time>2026-04-19T10:44:44.783Z</time></trkpt><trkpt lat="42.5581375" lon="13.3694327"><ele>1383.0</ele><time>2026-04-19T10:44:45.782Z</time></trkpt><trkpt lat="42.5580747" lon="13.3695187"><ele>1383.0</ele><time>2026-04-19T10:44:46.782Z</time></trkpt><trkpt lat="42.5580005" lon="13.3695878"><ele>1383.0</ele><time>2026-04-19T10:44:47.783Z</time></trkpt><trkpt lat="42.55793" lon="13.3696531"><ele>1383.0</ele><time>2026-04-19T10:44:48.782Z</time></trkpt><trkpt lat="42.557866" lon="13.369707"><ele>1383.0</ele><time>2026-04-19T10:44:49.782Z</time></trkpt><trkpt lat="42.5578043" lon="13.3697438"><ele>1383.0</ele><time>2026-04-19T10:44:50.783Z</time></trkpt><trkpt lat="42.5577033" lon="13.3697277"><ele>1383.6000000000001</ele><time>2026-04-19T10:44:52.782Z</time></trkpt><trkpt lat="42.5576314" lon="13.369588"><ele>1384.2</ele><time>2026-04-19T10:44:54.783Z</time></trkpt><trkpt lat="42.5575973" lon="13.3694744"><ele>1384.8</ele><time>2026-04-19T10:44:55.782Z</time></trkpt><trkpt lat="42.5575674" lon="13.3693578"><ele>1385.4</ele><time>2026-04-19T10:44:56.783Z</time></trkpt><trkpt lat="42.5575417" lon="13.3692382"><ele>1386.0</ele><time>2026-04-19T10:44:57.782Z</time></trkpt><trkpt lat="42.5575053" lon="13.3691201"><ele>1386.0</ele><time>2026-04-19T10:44:58.783Z</time></trkpt><trkpt lat="42.5574773" lon="13.3690255"><ele>1386.0</ele><time>2026-04-19T10:44:59.783Z</time></trkpt><trkpt lat="42.5574488" lon="13.3689351"><ele>1386.0</ele><time>2026-04-19T10:45:00.782Z</time></trkpt><trkpt lat="42.5574189" lon="13.3687634"><ele>1386.0</ele><time>2026-04-19T10:45:02.782Z</time></trkpt><trkpt lat="42.5574267" lon="13.36867"><ele>1386.0</ele><time>2026-04-19T10:45:03.783Z</time></trkpt><trkpt lat="42.5574283" lon="13.3685839"><ele>1386.0</ele><time>2026-04-19T10:45:04.783Z</time></trkpt><trkpt lat="42.557425" lon="13.3684808"><ele>1385.8</ele><time>2026-04-19T10:45:05.782Z</time></trkpt><trkpt lat="42.5574123" lon="13.3683608"><ele>1385.6</ele><time>2026-04-19T10:45:06.783Z</time></trkpt><trkpt lat="42.5574178" lon="13.3682403"><ele>1385.4</ele><time>2026-04-19T10:45:07.782Z</time></trkpt><trkpt lat="42.5574196" lon="13.368122"><ele>1385.2</ele><time>2026-04-19T10:45:08.782Z</time></trkpt><trkpt lat="42.5574259" lon="13.3679934"><ele>1385.0</ele><time>2026-04-19T10:45:09.783Z</time></trkpt><trkpt lat="42.5574338" lon="13.3678565"><ele>1384.6</ele><time>2026-04-19T10:45:10.783Z</time></trkpt><trkpt lat="42.5574421" lon="13.3677153"><ele>1384.2</ele><time>2026-04-19T10:45:11.783Z</time></trkpt><trkpt lat="42.5574434" lon="13.3675739"><ele>1383.8000000000002</ele><time>2026-04-19T10:45:12.782Z</time></trkpt><trkpt lat="42.5574376" lon="13.3674299"><ele>1383.4</ele><time>2026-04-19T10:45:13.782Z</time></trkpt><trkpt lat="42.5574347" lon="13.367283"><ele>1383.0</ele><time>2026-04-19T10:45:14.782Z</time></trkpt><trkpt lat="42.5574395" lon="13.3671412"><ele>1381.8000000000002</ele><time>2026-04-19T10:45:15.782Z</time></trkpt><trkpt lat="42.5574411" lon="13.3670079"><ele>1380.6</ele><time>2026-04-19T10:45:16.783Z</time></trkpt><trkpt lat="42.5574379" lon="13.3668712"><ele>1379.4</ele><time>2026-04-19T10:45:17.782Z</time></trkpt><trkpt lat="42.5574346" lon="13.3667306"><ele>1378.1999999999998</ele><time>2026-04-19T10:45:18.782Z</time></trkpt><trkpt lat="42.5574484" lon="13.3665901"><ele>1377.0</ele><time>2026-04-19T10:45:19.782Z</time></trkpt><trkpt lat="42.5574741" lon="13.3664597"><ele>1374.25</ele><time>2026-04-19T10:45:20.782Z</time></trkpt><trkpt lat="42.5575231" lon="13.3663383"><ele>1371.5</ele><time>2026-04-19T10:45:21.782Z</time></trkpt><trkpt lat="42.5575869" lon="13.3662121"><ele>1368.75</ele><time>2026-04-19T10:45:22.782Z</time></trkpt><trkpt lat="42.5576692" lon="13.3660943"><ele>1366.0</ele><time>2026-04-19T10:45:23.782Z</time></trkpt><trkpt lat="42.5577622" lon="13.3659907"><ele>1366.0</ele><time>2026-04-19T10:45:24.783Z</time></trkpt><trkpt lat="42.5578492" lon="13.3658927"><ele>1366.0</ele><time>2026-04-19T10:45:25.783Z</time></trkpt><trkpt lat="42.5579361" lon="13.3657926"><ele>1366.0</ele><time>2026-04-19T10:45:26.782Z</time></trkpt><trkpt lat="42.5579995" lon="13.3656729"><ele>1366.0</ele><time>2026-04-19T10:45:27.782Z</time></trkpt><trkpt lat="42.5580385" lon="13.3655536"><ele>1366.0</ele><time>2026-04-19T10:45:28.783Z</time></trkpt><trkpt lat="42.5580459" lon="13.3654174"><ele>1367.75</ele><time>2026-04-19T10:45:29.783Z</time></trkpt><trkpt lat="42.5580319" lon="13.3652756"><ele>1369.5</ele><time>2026-04-19T10:45:30.783Z</time></trkpt><trkpt lat="42.5579951" lon="13.365135"><ele>1371.25</ele><time>2026-04-19T10:45:31.783Z</time></trkpt><trkpt lat="42.5579357" lon="13.364991"><ele>1373.0</ele><time>2026-04-19T10:45:32.783Z</time></trkpt><trkpt lat="42.5578721" lon="13.3648584"><ele>1370.3333333333335</ele><time>2026-04-19T10:45:33.782Z</time></trkpt><trkpt lat="42.557815" lon="13.3647394"><ele>1367.6666666666667</ele><time>2026-04-19T10:45:34.783Z</time></trkpt><trkpt lat="42.557761" lon="13.3646308"><ele>1365.0</ele><time>2026-04-19T10:45:35.782Z</time></trkpt><trkpt lat="42.5577384" lon="13.3645296"><ele>1362.3333333333333</ele><time>2026-04-19T10:45:36.782Z</time></trkpt><trkpt lat="42.5577442" lon="13.3644232"><ele>1359.6666666666665</ele><time>2026-04-19T10:45:37.783Z</time></trkpt><trkpt lat="42.5577859" lon="13.3643332"><ele>1357.0</ele><time>2026-04-19T10:45:38.782Z</time></trkpt><trkpt lat="42.5578569" lon="13.3642697"><ele>1358.1999999999998</ele><time>2026-04-19T10:45:39.782Z</time></trkpt><trkpt lat="42.5579361" lon="13.3642279"><ele>1359.4</ele><time>2026-04-19T10:45:40.782Z</time></trkpt><trkpt lat="42.5580484" lon="13.36421"><ele>1360.6</ele><time>2026-04-19T10:45:41.783Z</time></trkpt><trkpt lat="42.5581522" lon="13.3642086"><ele>1361.8000000000002</ele><time>2026-04-19T10:45:42.782Z</time></trkpt><trkpt lat="42.5582716" lon="13.364213"><ele>1363.0</ele><time>2026-04-19T10:45:43.782Z</time></trkpt><trkpt lat="42.5583977" lon="13.3642187"><ele>1363.0</ele><time>2026-04-19T10:45:44.782Z</time></trkpt><trkpt lat="42.558523" lon="13.3642313"><ele>1363.0</ele><time>2026-04-19T10:45:45.782Z</time></trkpt><trkpt lat="42.5586455" lon="13.3642484"><ele>1363.0</ele><time>2026-04-19T10:45:46.782Z</time></trkpt><trkpt lat="42.5587522" lon="13.3642864"><ele>1363.0</ele><time>2026-04-19T10:45:47.783Z</time></trkpt><trkpt lat="42.558846" lon="13.3643492"><ele>1362.4</ele><time>2026-04-19T10:45:48.783Z</time></trkpt><trkpt lat="42.5589233" lon="13.3644379"><ele>1361.8000000000002</ele><time>2026-04-19T10:45:49.783Z</time></trkpt><trkpt lat="42.5589725" lon="13.3645531"><ele>1361.2</ele><time>2026-04-19T10:45:50.782Z</time></trkpt><trkpt lat="42.5589907" lon="13.3646941"><ele>1360.6</ele><time>2026-04-19T10:45:51.783Z</time></trkpt><trkpt lat="42.5590006" lon="13.3648345"><ele>1360.0</ele><time>2026-04-19T10:45:52.783Z</time></trkpt><trkpt lat="42.5590289" lon="13.3649501"><ele>1360.0</ele><time>2026-04-19T10:45:53.782Z</time></trkpt><trkpt lat="42.5590708" lon="13.3650554"><ele>1360.0</ele><time>2026-04-19T10:45:54.783Z</time></trkpt><trkpt lat="42.5591242" lon="13.3651449"><ele>1360.0</ele><time>2026-04-19T10:45:55.782Z</time></trkpt><trkpt lat="42.5591942" lon="13.3652236"><ele>1360.0</ele><time>2026-04-19T10:45:56.783Z</time></trkpt><trkpt lat="42.5592851" lon="13.3652801"><ele>1360.0</ele><time>2026-04-19T10:45:57.782Z</time></trkpt><trkpt lat="42.5593829" lon="13.3653105"><ele>1360.0</ele><time>2026-04-19T10:45:58.791Z</time></trkpt><trkpt lat="42.5594859" lon="13.3653252"><ele>1360.0</ele><time>2026-04-19T10:45:59.791Z</time></trkpt><trkpt lat="42.5595946" lon="13.3653236"><ele>1360.0</ele><time>2026-04-19T10:46:00.791Z</time></trkpt><trkpt lat="42.5597033" lon="13.3653055"><ele>1360.0</ele><time>2026-04-19T10:46:01.791Z</time></trkpt><trkpt lat="42.5597979" lon="13.3652742"><ele>1360.0</ele><time>2026-04-19T10:46:02.79Z</time></trkpt><trkpt lat="42.5599" lon="13.3652441"><ele>1360.4</ele><time>2026-04-19T10:46:03.791Z</time></trkpt><trkpt lat="42.560001" lon="13.3651913"><ele>1360.8</ele><time>2026-04-19T10:46:04.79Z</time></trkpt><trkpt lat="42.5601042" lon="13.3651239"><ele>1361.1999999999998</ele><time>2026-04-19T10:46:05.79Z</time></trkpt><trkpt lat="42.5601996" lon="13.365047"><ele>1361.6</ele><time>2026-04-19T10:46:06.79Z</time></trkpt><trkpt lat="42.560291" lon="13.3649549"><ele>1362.0</ele><time>2026-04-19T10:46:07.79Z</time></trkpt><trkpt lat="42.5603831" lon="13.3648486"><ele>1362.0</ele><time>2026-04-19T10:46:08.79Z</time></trkpt><trkpt lat="42.5604782" lon="13.3647222"><ele>1362.0</ele><time>2026-04-19T10:46:09.791Z</time></trkpt><trkpt lat="42.5605783" lon="13.364579"><ele>1362.0</ele><time>2026-04-19T10:46:10.791Z</time></trkpt><trkpt lat="42.5606814" lon="13.3644152"><ele>1362.0</ele><time>2026-04-19T10:46:11.79Z</time></trkpt><trkpt lat="42.5607988" lon="13.3642475"><ele>1356.3333333333333</ele><time>2026-04-19T10:46:12.791Z</time></trkpt><trkpt lat="42.5609105" lon="13.3640665"><ele>1350.6666666666665</ele><time>2026-04-19T10:46:13.79Z</time></trkpt><trkpt lat="42.5610284" lon="13.3639208"><ele>1345.0</ele><time>2026-04-19T10:46:14.791Z</time></trkpt><trkpt lat="42.5611323" lon="13.3637663"><ele>1347.0</ele><time>2026-04-19T10:46:15.79Z</time></trkpt><trkpt lat="42.5612123" lon="13.3636093"><ele>1349.0</ele><time>2026-04-19T10:46:16.791Z</time></trkpt><trkpt lat="42.5612711" lon="13.3634447"><ele>1351.0</ele><time>2026-04-19T10:46:17.79Z</time></trkpt><trkpt lat="42.5613285" lon="13.3632579"><ele>1353.0</ele><time>2026-04-19T10:46:18.79Z</time></trkpt><trkpt lat="42.5613676" lon="13.3630617"><ele>1350.25</ele><time>2026-04-19T10:46:19.79Z</time></trkpt><trkpt lat="42.5613994" lon="13.3628902"><ele>1347.5</ele><time>2026-04-19T10:46:20.791Z</time></trkpt><trkpt lat="42.5614414" lon="13.3627363"><ele>1344.75</ele><time>2026-04-19T10:46:21.791Z</time></trkpt><trkpt lat="42.5615089" lon="13.3625985"><ele>1342.0</ele><time>2026-04-19T10:46:22.791Z</time></trkpt><trkpt lat="42.5616066" lon="13.3624973"><ele>1342.0</ele><time>2026-04-19T10:46:23.791Z</time></trkpt><trkpt lat="42.5617182" lon="13.3624214"><ele>1342.0</ele><time>2026-04-19T10:46:24.79Z</time></trkpt><trkpt lat="42.5618459" lon="13.3623502"><ele>1342.0</ele><time>2026-04-19T10:46:25.79Z</time></trkpt><trkpt lat="42.5619738" lon="13.3622819"><ele>1342.0</ele><time>2026-04-19T10:46:26.79Z</time></trkpt><trkpt lat="42.5620984" lon="13.3622234"><ele>1338.25</ele><time>2026-04-19T10:46:27.791Z</time></trkpt><trkpt lat="42.5622288" lon="13.3621806"><ele>1334.5</ele><time>2026-04-19T10:46:28.79Z</time></trkpt><trkpt lat="42.5623512" lon="13.3621643"><ele>1330.75</ele><time>2026-04-19T10:46:29.79Z</time></trkpt><trkpt lat="42.5624654" lon="13.362157"><ele>1327.0</ele><time>2026-04-19T10:46:30.79Z</time></trkpt><trkpt lat="42.5625758" lon="13.3621652"><ele>1329.0</ele><time>2026-04-19T10:46:31.791Z</time></trkpt><trkpt lat="42.5626751" lon="13.3622048"><ele>1331.0</ele><time>2026-04-19T10:46:32.791Z</time></trkpt><trkpt lat="42.5627823" lon="13.3622661"><ele>1333.0</ele><time>2026-04-19T10:46:33.79Z</time></trkpt><trkpt lat="42.5629001" lon="13.3623442"><ele>1335.0</ele><time>2026-04-19T10:46:34.791Z</time></trkpt><trkpt lat="42.563009" lon="13.3624228"><ele>1335.0</ele><time>2026-04-19T10:46:35.791Z</time></trkpt><trkpt lat="42.5631072" lon="13.3625066"><ele>1335.0</ele><time>2026-04-19T10:46:36.791Z</time></trkpt><trkpt lat="42.5632046" lon="13.3625924"><ele>1335.0</ele><time>2026-04-19T10:46:37.791Z</time></trkpt><trkpt lat="42.5632953" lon="13.3626846"><ele>1335.0</ele><time>2026-04-19T10:46:38.79Z</time></trkpt><trkpt lat="42.5633867" lon="13.3627618"><ele>1335.0</ele><time>2026-04-19T10:46:39.791Z</time></trkpt><trkpt lat="42.5634764" lon="13.3628264"><ele>1335.0</ele><time>2026-04-19T10:46:40.79Z</time></trkpt><trkpt lat="42.5635602" lon="13.3628646"><ele>1335.0</ele><time>2026-04-19T10:46:41.79Z</time></trkpt><trkpt lat="42.5636444" lon="13.3628665"><ele>1335.0</ele><time>2026-04-19T10:46:42.79Z</time></trkpt><trkpt lat="42.5637247" lon="13.3628068"><ele>1335.0</ele><time>2026-04-19T10:46:43.791Z</time></trkpt><trkpt lat="42.5637837" lon="13.3627192"><ele>1335.2</ele><time>2026-04-19T10:46:44.79Z</time></trkpt><trkpt lat="42.5638139" lon="13.3626066"><ele>1335.4</ele><time>2026-04-19T10:46:45.79Z</time></trkpt><trkpt lat="42.5638508" lon="13.3624765"><ele>1335.6</ele><time>2026-04-19T10:46:46.79Z</time></trkpt><trkpt lat="42.5638996" lon="13.3623287"><ele>1335.8</ele><time>2026-04-19T10:46:47.79Z</time></trkpt><trkpt lat="42.5639585" lon="13.3621798"><ele>1336.0</ele><time>2026-04-19T10:46:48.79Z</time></trkpt><trkpt lat="42.5640272" lon="13.362029"><ele>1335.25</ele><time>2026-04-19T10:46:49.79Z</time></trkpt><trkpt lat="42.5641054" lon="13.3618727"><ele>1334.5</ele><time>2026-04-19T10:46:50.791Z</time></trkpt><trkpt lat="42.5641971" lon="13.3617167"><ele>1333.75</ele><time>2026-04-19T10:46:51.791Z</time></trkpt><trkpt lat="42.5642696" lon="13.3615766"><ele>1333.0</ele><time>2026-04-19T10:46:52.791Z</time></trkpt><trkpt lat="42.5643336" lon="13.3614408"><ele>1332.6000000000001</ele><time>2026-04-19T10:46:53.79Z</time></trkpt><trkpt lat="42.5643717" lon="13.3613076"><ele>1332.2</ele><time>2026-04-19T10:46:54.791Z</time></trkpt><trkpt lat="42.564429" lon="13.3611697"><ele>1331.8</ele><time>2026-04-19T10:46:55.79Z</time></trkpt><trkpt lat="42.5644394" lon="13.3610334"><ele>1331.4</ele><time>2026-04-19T10:46:56.79Z</time></trkpt><trkpt lat="42.5644186" lon="13.3608901"><ele>1331.0</ele><time>2026-04-19T10:46:57.791Z</time></trkpt><trkpt lat="42.5644132" lon="13.360751"><ele>1331.0</ele><time>2026-04-19T10:46:58.79Z</time></trkpt><trkpt lat="42.5643722" lon="13.3606168"><ele>1331.0</ele><time>2026-04-19T10:46:59.79Z</time></trkpt><trkpt lat="42.5643134" lon="13.3604846"><ele>1331.0</ele><time>2026-04-19T10:47:00.79Z</time></trkpt><trkpt lat="42.5642353" lon="13.3603587"><ele>1331.0</ele><time>2026-04-19T10:47:01.791Z</time></trkpt><trkpt lat="42.5641323" lon="13.3602404"><ele>1331.75</ele><time>2026-04-19T10:47:02.79Z</time></trkpt><trkpt lat="42.5640239" lon="13.3601433"><ele>1332.5</ele><time>2026-04-19T10:47:03.791Z</time></trkpt><trkpt lat="42.5639442" lon="13.360014"><ele>1333.25</ele><time>2026-04-19T10:47:04.79Z</time></trkpt><trkpt lat="42.5638551" lon="13.3598879"><ele>1334.0</ele><time>2026-04-19T10:47:05.791Z</time></trkpt><trkpt lat="42.5637664" lon="13.3597585"><ele>1333.75</ele><time>2026-04-19T10:47:06.79Z</time></trkpt><trkpt lat="42.5636693" lon="13.359626"><ele>1333.5</ele><time>2026-04-19T10:47:07.791Z</time></trkpt><trkpt lat="42.5635718" lon="13.359491"><ele>1333.25</ele><time>2026-04-19T10:47:08.791Z</time></trkpt><trkpt lat="42.5634792" lon="13.3593589"><ele>1333.0</ele><time>2026-04-19T10:47:09.791Z</time></trkpt><trkpt lat="42.5633771" lon="13.3592348"><ele>1333.0</ele><time>2026-04-19T10:47:10.79Z</time></trkpt><trkpt lat="42.5632492" lon="13.359128"><ele>1333.0</ele><time>2026-04-19T10:47:11.79Z</time></trkpt><trkpt lat="42.563108" lon="13.3590347"><ele>1333.0</ele><time>2026-04-19T10:47:12.791Z</time></trkpt><trkpt lat="42.5629296" lon="13.3589731"><ele>1332.6666666666665</ele><time>2026-04-19T10:47:13.79Z</time></trkpt><trkpt lat="42.5627635" lon="13.3589132"><ele>1332.3333333333333</ele><time>2026-04-19T10:47:14.79Z</time></trkpt><trkpt lat="42.5626131" lon="13.3588599"><ele>1332.0</ele><time>2026-04-19T10:47:15.79Z</time></trkpt><trkpt lat="42.562471" lon="13.3588081"><ele>1332.0</ele><time>2026-04-19T10:47:16.79Z</time></trkpt><trkpt lat="42.5623344" lon="13.358755"><ele>1332.0</ele><time>2026-04-19T10:47:17.791Z</time></trkpt><trkpt lat="42.5621914" lon="13.3587002"><ele>1332.0</ele><time>2026-04-19T10:47:18.791Z</time></trkpt><trkpt lat="42.5620546" lon="13.3586418"><ele>1332.0</ele><time>2026-04-19T10:47:19.79Z</time></trkpt><trkpt lat="42.5619248" lon="13.3585768"><ele>1331.0</ele><time>2026-04-19T10:47:20.79Z</time></trkpt><trkpt lat="42.5618058" lon="13.3585177"><ele>1330.0</ele><time>2026-04-19T10:47:21.79Z</time></trkpt><trkpt lat="42.5616937" lon="13.3584583"><ele>1329.0</ele><time>2026-04-19T10:47:22.791Z</time></trkpt><trkpt lat="42.5615858" lon="13.3583909"><ele>1328.0</ele><time>2026-04-19T10:47:23.791Z</time></trkpt><trkpt lat="42.561496" lon="13.3583135"><ele>1328.0</ele><time>2026-04-19T10:47:24.79Z</time></trkpt><trkpt lat="42.5614263" lon="13.3582188"><ele>1328.0</ele><time>2026-04-19T10:47:25.79Z</time></trkpt><trkpt lat="42.5613767" lon="13.3581156"><ele>1328.0</ele><time>2026-04-19T10:47:26.791Z</time></trkpt><trkpt lat="42.5613511" lon="13.3579949"><ele>1328.0</ele><time>2026-04-19T10:47:27.79Z</time></trkpt><trkpt lat="42.5613495" lon="13.357877"><ele>1328.0</ele><time>2026-04-19T10:47:28.79Z</time></trkpt><trkpt lat="42.5613719" lon="13.3577574"><ele>1328.2</ele><time>2026-04-19T10:47:29.79Z</time></trkpt><trkpt lat="42.5614167" lon="13.3576487"><ele>1328.4</ele><time>2026-04-19T10:47:30.79Z</time></trkpt><trkpt lat="42.561482" lon="13.3575581"><ele>1328.6000000000001</ele><time>2026-04-19T10:47:31.79Z</time></trkpt><trkpt lat="42.5615669" lon="13.3574862"><ele>1328.8000000000002</ele><time>2026-04-19T10:47:32.79Z</time></trkpt><trkpt lat="42.5616677" lon="13.3574213"><ele>1329.0</ele><time>2026-04-19T10:47:33.791Z</time></trkpt><trkpt lat="42.5617719" lon="13.3573541"><ele>1329.0</ele><time>2026-04-19T10:47:34.79Z</time></trkpt><trkpt lat="42.561873" lon="13.3572953"><ele>1329.0</ele><time>2026-04-19T10:47:35.79Z</time></trkpt><trkpt lat="42.561967" lon="13.3572251"><ele>1329.0</ele><time>2026-04-19T10:47:36.79Z</time></trkpt><trkpt lat="42.562045" lon="13.3571418"><ele>1329.0</ele><time>2026-04-19T10:47:37.79Z</time></trkpt><trkpt lat="42.5621056" lon="13.3570359"><ele>1329.0</ele><time>2026-04-19T10:47:38.79Z</time></trkpt><trkpt lat="42.5621523" lon="13.3569069"><ele>1331.0</ele><time>2026-04-19T10:47:39.791Z</time></trkpt><trkpt lat="42.5621696" lon="13.3567597"><ele>1333.0</ele><time>2026-04-19T10:47:40.79Z</time></trkpt><trkpt lat="42.5621476" lon="13.3566031"><ele>1335.0</ele><time>2026-04-19T10:47:41.79Z</time></trkpt><trkpt lat="42.5620956" lon="13.3564413"><ele>1337.0</ele><time>2026-04-19T10:47:42.79Z</time></trkpt><trkpt lat="42.5620318" lon="13.3562901"><ele>1335.25</ele><time>2026-04-19T10:47:43.79Z</time></trkpt><trkpt lat="42.5619585" lon="13.3561317"><ele>1333.5</ele><time>2026-04-19T10:47:44.791Z</time></trkpt><trkpt lat="42.5619012" lon="13.355957"><ele>1331.75</ele><time>2026-04-19T10:47:45.791Z</time></trkpt><trkpt lat="42.5618601" lon="13.3557798"><ele>1330.0</ele><time>2026-04-19T10:47:46.79Z</time></trkpt><trkpt lat="42.5618458" lon="13.355613"><ele>1330.0</ele><time>2026-04-19T10:47:47.791Z</time></trkpt><trkpt lat="42.5618645" lon="13.3554634"><ele>1330.0</ele><time>2026-04-19T10:47:48.79Z</time></trkpt><trkpt lat="42.5619189" lon="13.3553497"><ele>1330.0</ele><time>2026-04-19T10:47:49.791Z</time></trkpt><trkpt lat="42.5619924" lon="13.3552612"><ele>1330.0</ele><time>2026-04-19T10:47:50.79Z</time></trkpt><trkpt lat="42.5620863" lon="13.3551961"><ele>1330.0</ele><time>2026-04-19T10:47:51.791Z</time></trkpt><trkpt lat="42.5622052" lon="13.3551523"><ele>1330.0</ele><time>2026-04-19T10:47:52.791Z</time></trkpt><trkpt lat="42.562337" lon="13.3551293"><ele>1330.0</ele><time>2026-04-19T10:47:53.79Z</time></trkpt><trkpt lat="42.562482" lon="13.3551165"><ele>1330.0</ele><time>2026-04-19T10:47:54.79Z</time></trkpt><trkpt lat="42.5626392" lon="13.3551118"><ele>1330.0</ele><time>2026-04-19T10:47:55.79Z</time></trkpt><trkpt lat="42.5628012" lon="13.3551053"><ele>1330.75</ele><time>2026-04-19T10:47:56.791Z</time></trkpt><trkpt lat="42.5629434" lon="13.3550952"><ele>1331.5</ele><time>2026-04-19T10:47:57.79Z</time></trkpt><trkpt lat="42.5630657" lon="13.355091"><ele>1332.25</ele><time>2026-04-19T10:47:58.79Z</time></trkpt><trkpt lat="42.5631878" lon="13.3550913"><ele>1333.0</ele><time>2026-04-19T10:47:59.79Z</time></trkpt><trkpt lat="42.5632933" lon="13.3550717"><ele>1333.0</ele><time>2026-04-19T10:48:00.79Z</time></trkpt><trkpt lat="42.5633805" lon="13.3550207"><ele>1333.0</ele><time>2026-04-19T10:48:01.79Z</time></trkpt><trkpt lat="42.5634553" lon="13.3549409"><ele>1333.0</ele><time>2026-04-19T10:48:02.79Z</time></trkpt><trkpt lat="42.5635216" lon="13.3548384"><ele>1333.0</ele><time>2026-04-19T10:48:03.791Z</time></trkpt><trkpt lat="42.5635718" lon="13.354708"><ele>1333.0</ele><time>2026-04-19T10:48:04.791Z</time></trkpt><trkpt lat="42.5635882" lon="13.3545719"><ele>1332.8000000000002</ele><time>2026-04-19T10:48:05.79Z</time></trkpt><trkpt lat="42.5635877" lon="13.3544357"><ele>1332.6</ele><time>2026-04-19T10:48:06.791Z</time></trkpt><trkpt lat="42.563549" lon="13.3543164"><ele>1332.4</ele><time>2026-04-19T10:48:07.79Z</time></trkpt><trkpt lat="42.5634856" lon="13.354217"><ele>1332.1999999999998</ele><time>2026-04-19T10:48:08.79Z</time></trkpt><trkpt lat="42.5633998" lon="13.3541289"><ele>1332.0</ele><time>2026-04-19T10:48:09.79Z</time></trkpt><trkpt lat="42.5632987" lon="13.3540429"><ele>1332.0</ele><time>2026-04-19T10:48:10.791Z</time></trkpt><trkpt lat="42.5631922" lon="13.3539581"><ele>1332.0</ele><time>2026-04-19T10:48:11.79Z</time></trkpt><trkpt lat="42.5630796" lon="13.3538737"><ele>1332.0</ele><time>2026-04-19T10:48:12.791Z</time></trkpt><trkpt lat="42.5629744" lon="13.3537761"><ele>1332.0</ele><time>2026-04-19T10:48:13.79Z</time></trkpt><trkpt lat="42.5628829" lon="13.3536587"><ele>1331.0</ele><time>2026-04-19T10:48:14.79Z</time></trkpt><trkpt lat="42.5628129" lon="13.3535192"><ele>1330.0</ele><time>2026-04-19T10:48:15.79Z</time></trkpt><trkpt lat="42.5627646" lon="13.3533566"><ele>1329.0</ele><time>2026-04-19T10:48:16.789Z</time></trkpt><trkpt lat="42.5627432" lon="13.3531753"><ele>1328.0</ele><time>2026-04-19T10:48:17.789Z</time></trkpt><trkpt lat="42.5627532" lon="13.3529969"><ele>1327.6666666666667</ele><time>2026-04-19T10:48:18.79Z</time></trkpt><trkpt lat="42.5627936" lon="13.3528156"><ele>1327.3333333333333</ele><time>2026-04-19T10:48:19.789Z</time></trkpt><trkpt lat="42.5628664" lon="13.3526416"><ele>1327.0</ele><time>2026-04-19T10:48:20.79Z</time></trkpt><trkpt lat="42.5629615" lon="13.3524539"><ele>1328.3333333333333</ele><time>2026-04-19T10:48:21.789Z</time></trkpt><trkpt lat="42.5630647" lon="13.3522453"><ele>1329.6666666666667</ele><time>2026-04-19T10:48:22.79Z</time></trkpt><trkpt lat="42.5631676" lon="13.3520185"><ele>1331.0</ele><time>2026-04-19T10:48:23.789Z</time></trkpt><trkpt lat="42.5632679" lon="13.3518085"><ele>1331.0</ele><time>2026-04-19T10:48:24.789Z</time></trkpt><trkpt lat="42.56337" lon="13.3516201"><ele>1331.0</ele><time>2026-04-19T10:48:25.789Z</time></trkpt><trkpt lat="42.5634904" lon="13.3514516"><ele>1331.0</ele><time>2026-04-19T10:48:26.789Z</time></trkpt><trkpt lat="42.5636205" lon="13.351314"><ele>1332.0</ele><time>2026-04-19T10:48:27.79Z</time></trkpt><trkpt lat="42.5637467" lon="13.3511964"><ele>1333.0</ele><time>2026-04-19T10:48:28.789Z</time></trkpt><trkpt lat="42.5638556" lon="13.351085"><ele>1334.0</ele><time>2026-04-19T10:48:29.79Z</time></trkpt><trkpt lat="42.5639433" lon="13.3509683"><ele>1335.0</ele><time>2026-04-19T10:48:30.789Z</time></trkpt><trkpt lat="42.564007" lon="13.3508323"><ele>1335.0</ele><time>2026-04-19T10:48:31.789Z</time></trkpt><trkpt lat="42.5640461" lon="13.3506722"><ele>1335.0</ele><time>2026-04-19T10:48:32.79Z</time></trkpt><trkpt lat="42.5640669" lon="13.3504835"><ele>1335.0</ele><time>2026-04-19T10:48:33.789Z</time></trkpt><trkpt lat="42.5640647" lon="13.3502897"><ele>1335.0</ele><time>2026-04-19T10:48:34.789Z</time></trkpt><trkpt lat="42.5640626" lon="13.3501087"><ele>1334.75</ele><time>2026-04-19T10:48:35.789Z</time></trkpt><trkpt lat="42.5640379" lon="13.3499419"><ele>1334.5</ele><time>2026-04-19T10:48:36.789Z</time></trkpt><trkpt lat="42.563983" lon="13.3497927"><ele>1334.25</ele><time>2026-04-19T10:48:37.789Z</time></trkpt><trkpt lat="42.5638959" lon="13.3496721"><ele>1334.0</ele><time>2026-04-19T10:48:38.789Z</time></trkpt><trkpt lat="42.5637783" lon="13.3495836"><ele>1336.6666666666667</ele><time>2026-04-19T10:48:39.79Z</time></trkpt><trkpt lat="42.5636344" lon="13.3495075"><ele>1339.3333333333333</ele><time>2026-04-19T10:48:40.789Z</time></trkpt><trkpt lat="42.5634736" lon="13.3494308"><ele>1342.0</ele><time>2026-04-19T10:48:41.789Z</time></trkpt><trkpt lat="42.5633136" lon="13.3493508"><ele>1342.0</ele><time>2026-04-19T10:48:42.789Z</time></trkpt><trkpt lat="42.5631675" lon="13.3492856"><ele>1342.0</ele><time>2026-04-19T10:48:43.79Z</time></trkpt><trkpt lat="42.5630328" lon="13.349246"><ele>1342.0</ele><time>2026-04-19T10:48:44.789Z</time></trkpt><trkpt lat="42.5629031" lon="13.3492401"><ele>1342.0</ele><time>2026-04-19T10:48:45.79Z</time></trkpt><trkpt lat="42.5627775" lon="13.3492629"><ele>1340.25</ele><time>2026-04-19T10:48:46.79Z</time></trkpt><trkpt lat="42.5626545" lon="13.3493322"><ele>1338.5</ele><time>2026-04-19T10:48:47.79Z</time></trkpt><trkpt lat="42.5625355" lon="13.349444"><ele>1336.75</ele><time>2026-04-19T10:48:48.789Z</time></trkpt><trkpt lat="42.5624089" lon="13.3495765"><ele>1335.0</ele><time>2026-04-19T10:48:49.789Z</time></trkpt><trkpt lat="42.5622849" lon="13.3497035"><ele>1334.5</ele><time>2026-04-19T10:48:50.79Z</time></trkpt><trkpt lat="42.5621646" lon="13.3498274"><ele>1334.0</ele><time>2026-04-19T10:48:51.789Z</time></trkpt><trkpt lat="42.56205" lon="13.3499378"><ele>1333.5</ele><time>2026-04-19T10:48:52.789Z</time></trkpt><trkpt lat="42.5619434" lon="13.3500303"><ele>1333.0</ele><time>2026-04-19T10:48:53.789Z</time></trkpt><trkpt lat="42.5618396" lon="13.3500852"><ele>1333.0</ele><time>2026-04-19T10:48:54.789Z</time></trkpt><trkpt lat="42.5617418" lon="13.3500995"><ele>1333.0</ele><time>2026-04-19T10:48:55.789Z</time></trkpt><trkpt lat="42.5616428" lon="13.3500709"><ele>1333.0</ele><time>2026-04-19T10:48:56.789Z</time></trkpt><trkpt lat="42.5615525" lon="13.3500034"><ele>1333.0</ele><time>2026-04-19T10:48:57.789Z</time></trkpt><trkpt lat="42.5614813" lon="13.3498875"><ele>1333.0</ele><time>2026-04-19T10:48:58.789Z</time></trkpt><trkpt lat="42.56143" lon="13.3497465"><ele>1332.6000000000001</ele><time>2026-04-19T10:48:59.789Z</time></trkpt><trkpt lat="42.5614029" lon="13.3496025"><ele>1332.2</ele><time>2026-04-19T10:49:00.789Z</time></trkpt><trkpt lat="42.5614079" lon="13.3494688"><ele>1331.8</ele><time>2026-04-19T10:49:01.79Z</time></trkpt><trkpt lat="42.561442" lon="13.3493424"><ele>1331.4</ele><time>2026-04-19T10:49:02.789Z</time></trkpt><trkpt lat="42.561501" lon="13.3492121"><ele>1331.0</ele><time>2026-04-19T10:49:03.789Z</time></trkpt><trkpt lat="42.5615879" lon="13.3490851"><ele>1331.0</ele><time>2026-04-19T10:49:04.789Z</time></trkpt><trkpt lat="42.5616863" lon="13.3489455"><ele>1331.0</ele><time>2026-04-19T10:49:05.789Z</time></trkpt><trkpt lat="42.5617927" lon="13.3487898"><ele>1331.0</ele><time>2026-04-19T10:49:06.79Z</time></trkpt><trkpt lat="42.5619075" lon="13.3486219"><ele>1333.0</ele><time>2026-04-19T10:49:07.789Z</time></trkpt><trkpt lat="42.5620426" lon="13.3484511"><ele>1335.0</ele><time>2026-04-19T10:49:08.789Z</time></trkpt><trkpt lat="42.5621897" lon="13.3483053"><ele>1337.0</ele><time>2026-04-19T10:49:09.789Z</time></trkpt><trkpt lat="42.5623295" lon="13.3481481"><ele>1336.0</ele><time>2026-04-19T10:49:10.79Z</time></trkpt><trkpt lat="42.5624489" lon="13.3480111"><ele>1335.0</ele><time>2026-04-19T10:49:11.789Z</time></trkpt><trkpt lat="42.5625399" lon="13.3478796"><ele>1334.0</ele><time>2026-04-19T10:49:12.79Z</time></trkpt><trkpt lat="42.5626022" lon="13.3477379"><ele>1333.0</ele><time>2026-04-19T10:49:13.79Z</time></trkpt><trkpt lat="42.5626415" lon="13.3475772"><ele>1333.0</ele><time>2026-04-19T10:49:14.79Z</time></trkpt><trkpt lat="42.5626648" lon="13.3474099"><ele>1333.0</ele><time>2026-04-19T10:49:15.789Z</time></trkpt><trkpt lat="42.5626666" lon="13.3472516"><ele>1333.0</ele><time>2026-04-19T10:49:16.789Z</time></trkpt><trkpt lat="42.5626405" lon="13.3471043"><ele>1333.0</ele><time>2026-04-19T10:49:17.789Z</time></trkpt><trkpt lat="42.5625791" lon="13.3469623"><ele>1335.0</ele><time>2026-04-19T10:49:18.789Z</time></trkpt><trkpt lat="42.56249" lon="13.3468387"><ele>1337.0</ele><time>2026-04-19T10:49:19.789Z</time></trkpt><trkpt lat="42.5623716" lon="13.3467301"><ele>1339.0</ele><time>2026-04-19T10:49:20.789Z</time></trkpt><trkpt lat="42.5622433" lon="13.3466345"><ele>1341.0</ele><time>2026-04-19T10:49:21.789Z</time></trkpt><trkpt lat="42.5621155" lon="13.3465545"><ele>1338.25</ele><time>2026-04-19T10:49:22.789Z</time></trkpt><trkpt lat="42.5619997" lon="13.3465116"><ele>1335.5</ele><time>2026-04-19T10:49:23.789Z</time></trkpt><trkpt lat="42.5618843" lon="13.3464504"><ele>1332.75</ele><time>2026-04-19T10:49:24.789Z</time></trkpt><trkpt lat="42.5617899" lon="13.3463668"><ele>1330.0</ele><time>2026-04-19T10:49:25.789Z</time></trkpt><trkpt lat="42.5617247" lon="13.3462484"><ele>1330.0</ele><time>2026-04-19T10:49:26.789Z</time></trkpt><trkpt lat="42.5616801" lon="13.3461195"><ele>1330.0</ele><time>2026-04-19T10:49:27.789Z</time></trkpt><trkpt lat="42.561668" lon="13.3459773"><ele>1330.0</ele><time>2026-04-19T10:49:28.79Z</time></trkpt><trkpt lat="42.5616915" lon="13.3458373"><ele>1330.0</ele><time>2026-04-19T10:49:29.79Z</time></trkpt><trkpt lat="42.56174" lon="13.3457097"><ele>1330.0</ele><time>2026-04-19T10:49:30.79Z</time></trkpt><trkpt lat="42.561826" lon="13.3455925"><ele>1331.0</ele><time>2026-04-19T10:49:31.789Z</time></trkpt><trkpt lat="42.5619443" lon="13.345489"><ele>1332.0</ele><time>2026-04-19T10:49:32.789Z</time></trkpt><trkpt lat="42.5620705" lon="13.3453844"><ele>1333.0</ele><time>2026-04-19T10:49:33.789Z</time></trkpt><trkpt lat="42.5621884" lon="13.3452848"><ele>1334.0</ele><time>2026-04-19T10:49:34.789Z</time></trkpt><trkpt lat="42.5622791" lon="13.3451714"><ele>1334.0</ele><time>2026-04-19T10:49:35.79Z</time></trkpt><trkpt lat="42.5623252" lon="13.3450382"><ele>1334.0</ele><time>2026-04-19T10:49:36.79Z</time></trkpt><trkpt lat="42.5623444" lon="13.3448858"><ele>1334.0</ele><time>2026-04-19T10:49:37.789Z</time></trkpt><trkpt lat="42.5623517" lon="13.3447094"><ele>1334.0</ele><time>2026-04-19T10:49:38.79Z</time></trkpt><trkpt lat="42.5623604" lon="13.3445258"><ele>1334.0</ele><time>2026-04-19T10:49:39.79Z</time></trkpt><trkpt lat="42.5623426" lon="13.3443433"><ele>1334.0</ele><time>2026-04-19T10:49:40.789Z</time></trkpt><trkpt lat="42.5623028" lon="13.3441811"><ele>1334.0</ele><time>2026-04-19T10:49:41.79Z</time></trkpt><trkpt lat="42.5622346" lon="13.3440524"><ele>1334.0</ele><time>2026-04-19T10:49:42.789Z</time></trkpt><trkpt lat="42.5621401" lon="13.3439462"><ele>1334.0</ele><time>2026-04-19T10:49:43.79Z</time></trkpt><trkpt lat="42.5620325" lon="13.3438808"><ele>1334.0</ele><time>2026-04-19T10:49:44.79Z</time></trkpt><trkpt lat="42.5618982" lon="13.3438179"><ele>1334.0</ele><time>2026-04-19T10:49:45.79Z</time></trkpt><trkpt lat="42.5617793" lon="13.3437656"><ele>1334.0</ele><time>2026-04-19T10:49:46.789Z</time></trkpt><trkpt lat="42.5616351" lon="13.3436968"><ele>1335.0</ele><time>2026-04-19T10:49:47.789Z</time></trkpt><trkpt lat="42.5614794" lon="13.3436234"><ele>1336.0</ele><time>2026-04-19T10:49:48.79Z</time></trkpt><trkpt lat="42.5613195" lon="13.3435604"><ele>1337.0</ele><time>2026-04-19T10:49:49.79Z</time></trkpt><trkpt lat="42.5611516" lon="13.343514"><ele>1337.0</ele><time>2026-04-19T10:49:50.79Z</time></trkpt><trkpt lat="42.5609742" lon="13.3435091"><ele>1337.0</ele><time>2026-04-19T10:49:51.79Z</time></trkpt><trkpt lat="42.560782" lon="13.3435298"><ele>1337.0</ele><time>2026-04-19T10:49:52.789Z</time></trkpt><trkpt lat="42.5605814" lon="13.3435588"><ele>1337.0</ele><time>2026-04-19T10:49:53.79Z</time></trkpt><trkpt lat="42.5603689" lon="13.3435914"><ele>1337.0</ele><time>2026-04-19T10:49:54.79Z</time></trkpt><trkpt lat="42.5601553" lon="13.3436197"><ele>1337.0</ele><time>2026-04-19T10:49:55.789Z</time></trkpt><trkpt lat="42.5599421" lon="13.3436487"><ele>1338.6666666666667</ele><time>2026-04-19T10:49:56.789Z</time></trkpt><trkpt lat="42.5597329" lon="13.3436768"><ele>1340.3333333333333</ele><time>2026-04-19T10:49:57.789Z</time></trkpt><trkpt lat="42.5595307" lon="13.3437047"><ele>1342.0</ele><time>2026-04-19T10:49:58.789Z</time></trkpt><trkpt lat="42.559333" lon="13.3437468"><ele>1342.3333333333333</ele><time>2026-04-19T10:49:59.79Z</time></trkpt><trkpt lat="42.5591445" lon="13.3438122"><ele>1342.6666666666667</ele><time>2026-04-19T10:50:00.789Z</time></trkpt><trkpt lat="42.5589682" lon="13.3438948"><ele>1343.0</ele><time>2026-04-19T10:50:01.79Z</time></trkpt><trkpt lat="42.558807" lon="13.3439764"><ele>1338.0</ele><time>2026-04-19T10:50:02.79Z</time></trkpt><trkpt lat="42.558657" lon="13.3440623"><ele>1333.0</ele><time>2026-04-19T10:50:03.789Z</time></trkpt><trkpt lat="42.5585179" lon="13.3441385"><ele>1328.0</ele><time>2026-04-19T10:50:04.79Z</time></trkpt><trkpt lat="42.5583816" lon="13.3441923"><ele>1328.0</ele><time>2026-04-19T10:50:05.789Z</time></trkpt><trkpt lat="42.5582531" lon="13.3442276"><ele>1328.0</ele><time>2026-04-19T10:50:06.789Z</time></trkpt><trkpt lat="42.5581244" lon="13.3442191"><ele>1328.0</ele><time>2026-04-19T10:50:07.789Z</time></trkpt><trkpt lat="42.5580066" lon="13.3441717"><ele>1328.0</ele><time>2026-04-19T10:50:08.79Z</time></trkpt><trkpt lat="42.5579015" lon="13.344097"><ele>1328.25</ele><time>2026-04-19T10:50:09.79Z</time></trkpt><trkpt lat="42.5578176" lon="13.34399"><ele>1328.5</ele><time>2026-04-19T10:50:10.789Z</time></trkpt><trkpt lat="42.5577498" lon="13.3438579"><ele>1328.75</ele><time>2026-04-19T10:50:11.79Z</time></trkpt><trkpt lat="42.5576996" lon="13.3437004"><ele>1329.0</ele><time>2026-04-19T10:50:12.789Z</time></trkpt><trkpt lat="42.5576539" lon="13.3435185"><ele>1329.0</ele><time>2026-04-19T10:50:13.789Z</time></trkpt><trkpt lat="42.5576157" lon="13.3433193"><ele>1329.0</ele><time>2026-04-19T10:50:14.789Z</time></trkpt><trkpt lat="42.557588" lon="13.3431175"><ele>1329.0</ele><time>2026-04-19T10:50:15.79Z</time></trkpt><trkpt lat="42.5575727" lon="13.3429096"><ele>1329.0</ele><time>2026-04-19T10:50:16.789Z</time></trkpt><trkpt lat="42.5575791" lon="13.3426993"><ele>1329.0</ele><time>2026-04-19T10:50:17.79Z</time></trkpt><trkpt lat="42.5575993" lon="13.3424806"><ele>1329.0</ele><time>2026-04-19T10:50:18.789Z</time></trkpt><trkpt lat="42.5576254" lon="13.3422571"><ele>1328.3333333333333</ele><time>2026-04-19T10:50:19.789Z</time></trkpt><trkpt lat="42.5576548" lon="13.3420339"><ele>1327.6666666666665</ele><time>2026-04-19T10:50:20.79Z</time></trkpt><trkpt lat="42.5576878" lon="13.3418272"><ele>1327.0</ele><time>2026-04-19T10:50:21.79Z</time></trkpt><trkpt lat="42.5577261" lon="13.3416365"><ele>1327.0</ele><time>2026-04-19T10:50:22.79Z</time></trkpt><trkpt lat="42.5577667" lon="13.3414615"><ele>1327.0</ele><time>2026-04-19T10:50:23.789Z</time></trkpt><trkpt lat="42.5578066" lon="13.3412945"><ele>1327.0</ele><time>2026-04-19T10:50:24.79Z</time></trkpt><trkpt lat="42.5578592" lon="13.3411414"><ele>1327.0</ele><time>2026-04-19T10:50:25.789Z</time></trkpt><trkpt lat="42.5579264" lon="13.3410161"><ele>1329.5</ele><time>2026-04-19T10:50:26.789Z</time></trkpt><trkpt lat="42.5580128" lon="13.3409052"><ele>1332.0</ele><time>2026-04-19T10:50:27.79Z</time></trkpt><trkpt lat="42.5581153" lon="13.3407988"><ele>1334.5</ele><time>2026-04-19T10:50:28.789Z</time></trkpt><trkpt lat="42.5582189" lon="13.3407129"><ele>1337.0</ele><time>2026-04-19T10:50:29.789Z</time></trkpt><trkpt lat="42.5583211" lon="13.3406278"><ele>1335.3999999999999</ele><time>2026-04-19T10:50:30.79Z</time></trkpt><trkpt lat="42.5584064" lon="13.3405417"><ele>1333.8</ele><time>2026-04-19T10:50:31.79Z</time></trkpt><trkpt lat="42.5584769" lon="13.3404469"><ele>1332.2</ele><time>2026-04-19T10:50:32.789Z</time></trkpt><trkpt lat="42.5585256" lon="13.3403367"><ele>1330.6</ele><time>2026-04-19T10:50:33.79Z</time></trkpt><trkpt lat="42.5585471" lon="13.3402016"><ele>1329.0</ele><time>2026-04-19T10:50:34.789Z</time></trkpt><trkpt lat="42.5585397" lon="13.3400484"><ele>1329.0</ele><time>2026-04-19T10:50:35.79Z</time></trkpt><trkpt lat="42.5585174" lon="13.3399089"><ele>1329.0</ele><time>2026-04-19T10:50:36.79Z</time></trkpt><trkpt lat="42.5584901" lon="13.3397786"><ele>1329.0</ele><time>2026-04-19T10:50:37.789Z</time></trkpt><trkpt lat="42.5584663" lon="13.3396527"><ele>1329.0</ele><time>2026-04-19T10:50:38.789Z</time></trkpt><trkpt lat="42.5584501" lon="13.3395433"><ele>1329.0</ele><time>2026-04-19T10:50:39.79Z</time></trkpt><trkpt lat="42.5584372" lon="13.3394371"><ele>1328.6666666666667</ele><time>2026-04-19T10:50:40.789Z</time></trkpt><trkpt lat="42.5584311" lon="13.3393355"><ele>1328.3333333333333</ele><time>2026-04-19T10:50:41.789Z</time></trkpt><trkpt lat="42.5584342" lon="13.3392371"><ele>1328.0</ele><time>2026-04-19T10:50:42.789Z</time></trkpt><trkpt lat="42.5584482" lon="13.3391501"><ele>1327.6666666666665</ele><time>2026-04-19T10:50:43.789Z</time></trkpt><trkpt lat="42.558481" lon="13.3389983"><ele>1327.3333333333333</ele><time>2026-04-19T10:50:45.789Z</time></trkpt><trkpt lat="42.5585379" lon="13.3388777"><ele>1327.0</ele><time>2026-04-19T10:50:47.789Z</time></trkpt><trkpt lat="42.5586194" lon="13.3387512"><ele>1327.1666666666665</ele><time>2026-04-19T10:50:49.789Z</time></trkpt><trkpt lat="42.5586696" lon="13.3386947"><ele>1327.3333333333333</ele><time>2026-04-19T10:50:50.789Z</time></trkpt><trkpt lat="42.5587327" lon="13.3386391"><ele>1327.5</ele><time>2026-04-19T10:50:51.79Z</time></trkpt><trkpt lat="42.5587998" lon="13.3385782"><ele>1327.6666666666667</ele><time>2026-04-19T10:50:52.789Z</time></trkpt><trkpt lat="42.5588702" lon="13.3384958"><ele>1327.8333333333335</ele><time>2026-04-19T10:50:53.789Z</time></trkpt><trkpt lat="42.5589292" lon="13.3383893"><ele>1328.0</ele><time>2026-04-19T10:50:54.789Z</time></trkpt><trkpt lat="42.5589834" lon="13.3382734"><ele>1328.0</ele><time>2026-04-19T10:50:55.789Z</time></trkpt><trkpt lat="42.5590341" lon="13.3381216"><ele>1328.0</ele><time>2026-04-19T10:50:56.789Z</time></trkpt><trkpt lat="42.5590541" lon="13.3379709"><ele>1328.0</ele><time>2026-04-19T10:50:57.789Z</time></trkpt><trkpt lat="42.5590799" lon="13.3378052"><ele>1328.0</ele><time>2026-04-19T10:50:58.789Z</time></trkpt><trkpt lat="42.5591073" lon="13.3376036"><ele>1328.5</ele><time>2026-04-19T10:50:59.79Z</time></trkpt><trkpt lat="42.5590953" lon="13.3374248"><ele>1329.0</ele><time>2026-04-19T10:51:00.79Z</time></trkpt><trkpt lat="42.5590595" lon="13.3372469"><ele>1329.5</ele><time>2026-04-19T10:51:01.79Z</time></trkpt><trkpt lat="42.5590264" lon="13.3370865"><ele>1330.0</ele><time>2026-04-19T10:51:02.789Z</time></trkpt><trkpt lat="42.5589763" lon="13.3369281"><ele>1330.0</ele><time>2026-04-19T10:51:03.79Z</time></trkpt><trkpt lat="42.5589214" lon="13.336772"><ele>1330.0</ele><time>2026-04-19T10:51:04.79Z</time></trkpt><trkpt lat="42.5588825" lon="13.3366129"><ele>1330.0</ele><time>2026-04-19T10:51:05.79Z</time></trkpt><trkpt lat="42.5588605" lon="13.3364468"><ele>1330.0</ele><time>2026-04-19T10:51:06.789Z</time></trkpt><trkpt lat="42.558853" lon="13.336287"><ele>1329.0</ele><time>2026-04-19T10:51:07.789Z</time></trkpt><trkpt lat="42.5588731" lon="13.3361322"><ele>1328.0</ele><time>2026-04-19T10:51:08.79Z</time></trkpt><trkpt lat="42.5589024" lon="13.3359721"><ele>1327.0</ele><time>2026-04-19T10:51:09.789Z</time></trkpt><trkpt lat="42.5589425" lon="13.3358025"><ele>1326.0</ele><time>2026-04-19T10:51:10.789Z</time></trkpt><trkpt lat="42.5589906" lon="13.3356281"><ele>1324.5</ele><time>2026-04-19T10:51:11.789Z</time></trkpt><trkpt lat="42.5590448" lon="13.3354432"><ele>1323.0</ele><time>2026-04-19T10:51:12.79Z</time></trkpt><trkpt lat="42.5591021" lon="13.3352589"><ele>1321.5</ele><time>2026-04-19T10:51:13.789Z</time></trkpt><trkpt lat="42.5591528" lon="13.3350702"><ele>1320.0</ele><time>2026-04-19T10:51:14.79Z</time></trkpt><trkpt lat="42.5591952" lon="13.3348716"><ele>1317.6666666666667</ele><time>2026-04-19T10:51:15.79Z</time></trkpt><trkpt lat="42.5592339" lon="13.3346759"><ele>1315.3333333333335</ele><time>2026-04-19T10:51:16.79Z</time></trkpt><trkpt lat="42.5592718" lon="13.3344629"><ele>1313.0</ele><time>2026-04-19T10:51:17.789Z</time></trkpt><trkpt lat="42.5593048" lon="13.3342441"><ele>1313.0</ele><time>2026-04-19T10:51:18.789Z</time></trkpt><trkpt lat="42.5593208" lon="13.3340029"><ele>1313.0</ele><time>2026-04-19T10:51:19.789Z</time></trkpt><trkpt lat="42.5593235" lon="13.3337485"><ele>1313.0</ele><time>2026-04-19T10:51:20.79Z</time></trkpt><trkpt lat="42.5593199" lon="13.3335048"><ele>1311.0</ele><time>2026-04-19T10:51:21.789Z</time></trkpt><trkpt lat="42.5593016" lon="13.3332383"><ele>1309.0</ele><time>2026-04-19T10:51:22.789Z</time></trkpt><trkpt lat="42.5592921" lon="13.3329881"><ele>1307.0</ele><time>2026-04-19T10:51:23.789Z</time></trkpt><trkpt lat="42.5592836" lon="13.3327433"><ele>1306.3333333333335</ele><time>2026-04-19T10:51:24.79Z</time></trkpt><trkpt lat="42.5592866" lon="13.3325035"><ele>1305.6666666666667</ele><time>2026-04-19T10:51:25.789Z</time></trkpt><trkpt lat="42.5592924" lon="13.332267"><ele>1305.0</ele><time>2026-04-19T10:51:26.79Z</time></trkpt><trkpt lat="42.5592986" lon="13.3320377"><ele>1304.0</ele><time>2026-04-19T10:51:27.79Z</time></trkpt><trkpt lat="42.5593073" lon="13.3318221"><ele>1303.0</ele><time>2026-04-19T10:51:28.79Z</time></trkpt><trkpt lat="42.5593179" lon="13.3316053"><ele>1302.0</ele><time>2026-04-19T10:51:29.79Z</time></trkpt><trkpt lat="42.559329" lon="13.3313888"><ele>1301.5</ele><time>2026-04-19T10:51:30.789Z</time></trkpt><trkpt lat="42.5593371" lon="13.3311857"><ele>1301.0</ele><time>2026-04-19T10:51:31.789Z</time></trkpt><trkpt lat="42.5593488" lon="13.3309938"><ele>1300.5</ele><time>2026-04-19T10:51:32.79Z</time></trkpt><trkpt lat="42.5593644" lon="13.3308242"><ele>1300.0</ele><time>2026-04-19T10:51:33.789Z</time></trkpt><trkpt lat="42.5594003" lon="13.330674"><ele>1300.5</ele><time>2026-04-19T10:51:34.789Z</time></trkpt><trkpt lat="42.5594501" lon="13.3305331"><ele>1301.0</ele><time>2026-04-19T10:51:35.79Z</time></trkpt><trkpt lat="42.5595091" lon="13.3303948"><ele>1301.5</ele><time>2026-04-19T10:51:36.79Z</time></trkpt><trkpt lat="42.5595705" lon="13.3302654"><ele>1302.0</ele><time>2026-04-19T10:51:37.789Z</time></trkpt><trkpt lat="42.5596278" lon="13.3301282"><ele>1302.0</ele><time>2026-04-19T10:51:38.79Z</time></trkpt><trkpt lat="42.5596655" lon="13.3299988"><ele>1302.0</ele><time>2026-04-19T10:51:39.789Z</time></trkpt><trkpt lat="42.5596824" lon="13.3298748"><ele>1302.0</ele><time>2026-04-19T10:51:40.789Z</time></trkpt><trkpt lat="42.5596785" lon="13.3297702"><ele>1302.0</ele><time>2026-04-19T10:51:41.789Z</time></trkpt><trkpt lat="42.5596491" lon="13.3296632"><ele>1302.0</ele><time>2026-04-19T10:51:42.79Z</time></trkpt><trkpt lat="42.5596148" lon="13.329556"><ele>1302.0</ele><time>2026-04-19T10:51:43.789Z</time></trkpt><trkpt lat="42.5595783" lon="13.3294542"><ele>1301.1666666666667</ele><time>2026-04-19T10:51:44.789Z</time></trkpt><trkpt lat="42.5595384" lon="13.3293607"><ele>1300.3333333333333</ele><time>2026-04-19T10:51:45.789Z</time></trkpt><trkpt lat="42.5594936" lon="13.3292697"><ele>1299.5</ele><time>2026-04-19T10:51:46.79Z</time></trkpt><trkpt lat="42.5594463" lon="13.3291825"><ele>1298.6666666666665</ele><time>2026-04-19T10:51:47.79Z</time></trkpt><trkpt lat="42.5593941" lon="13.3290971"><ele>1297.8333333333333</ele><time>2026-04-19T10:51:48.789Z</time></trkpt><trkpt lat="42.5593423" lon="13.3290156"><ele>1297.0</ele><time>2026-04-19T10:51:49.79Z</time></trkpt><trkpt lat="42.5592965" lon="13.3289388"><ele>1298.1999999999998</ele><time>2026-04-19T10:51:50.789Z</time></trkpt><trkpt lat="42.5592541" lon="13.3288645"><ele>1299.4</ele><time>2026-04-19T10:51:51.79Z</time></trkpt><trkpt lat="42.5592167" lon="13.3287911"><ele>1300.6</ele><time>2026-04-19T10:51:52.79Z</time></trkpt><trkpt lat="42.5591716" lon="13.3286586"><ele>1301.8000000000002</ele><time>2026-04-19T10:51:54.79Z</time></trkpt><trkpt lat="42.5591668" lon="13.32852"><ele>1303.0</ele><time>2026-04-19T10:51:56.79Z</time></trkpt><trkpt lat="42.5592213" lon="13.3283984"><ele>1303.0</ele><time>2026-04-19T10:51:58.789Z</time></trkpt><trkpt lat="42.559312" lon="13.3282862"><ele>1303.0</ele><time>2026-04-19T10:52:00.79Z</time></trkpt><trkpt lat="42.5593752" lon="13.3282195"><ele>1303.0</ele><time>2026-04-19T10:52:01.79Z</time></trkpt><trkpt lat="42.5594475" lon="13.3281431"><ele>1303.0</ele><time>2026-04-19T10:52:02.789Z</time></trkpt><trkpt lat="42.5595127" lon="13.3280818"><ele>1303.0</ele><time>2026-04-19T10:52:03.789Z</time></trkpt><trkpt lat="42.5595859" lon="13.3280068"><ele>1303.2</ele><time>2026-04-19T10:52:04.789Z</time></trkpt><trkpt lat="42.5596597" lon="13.3279303"><ele>1303.4</ele><time>2026-04-19T10:52:05.79Z</time></trkpt><trkpt lat="42.5597334" lon="13.3278409"><ele>1303.6000000000001</ele><time>2026-04-19T10:52:06.789Z</time></trkpt><trkpt lat="42.5598179" lon="13.3277619"><ele>1303.8000000000002</ele><time>2026-04-19T10:52:07.79Z</time></trkpt><trkpt lat="42.5599038" lon="13.3276798"><ele>1304.0</ele><time>2026-04-19T10:52:08.789Z</time></trkpt><trkpt lat="42.5599885" lon="13.3275939"><ele>1304.0</ele><time>2026-04-19T10:52:09.79Z</time></trkpt><trkpt lat="42.560074" lon="13.327513"><ele>1304.0</ele><time>2026-04-19T10:52:10.789Z</time></trkpt><trkpt lat="42.560158" lon="13.3274418"><ele>1304.0</ele><time>2026-04-19T10:52:11.789Z</time></trkpt><trkpt lat="42.5602285" lon="13.3273707"><ele>1304.0</ele><time>2026-04-19T10:52:12.789Z</time></trkpt><trkpt lat="42.560283" lon="13.3273187"><ele>1304.0</ele><time>2026-04-19T10:52:13.79Z</time></trkpt><trkpt lat="42.5603669" lon="13.327226"><ele>1303.8333333333335</ele><time>2026-04-19T10:52:15.79Z</time></trkpt><trkpt lat="42.5604037" lon="13.3271471"><ele>1303.6666666666667</ele><time>2026-04-19T10:52:16.789Z</time></trkpt><trkpt lat="42.560456" lon="13.3269937"><ele>1303.5</ele><time>2026-04-19T10:52:18.789Z</time></trkpt><trkpt lat="42.5605115" lon="13.3269116"><ele>1303.3333333333333</ele><time>2026-04-19T10:52:19.789Z</time></trkpt><trkpt lat="42.5605734" lon="13.3268424"><ele>1303.1666666666665</ele><time>2026-04-19T10:52:20.79Z</time></trkpt><trkpt lat="42.5606436" lon="13.3267888"><ele>1303.0</ele><time>2026-04-19T10:52:21.789Z</time></trkpt><trkpt lat="42.5607255" lon="13.326763"><ele>1303.0</ele><time>2026-04-19T10:52:22.79Z</time></trkpt><trkpt lat="42.5608072" lon="13.3267494"><ele>1303.0</ele><time>2026-04-19T10:52:23.79Z</time></trkpt><trkpt lat="42.5608893" lon="13.3267463"><ele>1303.0</ele><time>2026-04-19T10:52:24.789Z</time></trkpt><trkpt lat="42.5609739" lon="13.32673"><ele>1303.0</ele><time>2026-04-19T10:52:25.79Z</time></trkpt><trkpt lat="42.5610616" lon="13.3267106"><ele>1303.0</ele><time>2026-04-19T10:52:26.789Z</time></trkpt><trkpt lat="42.5611586" lon="13.3266801"><ele>1303.0</ele><time>2026-04-19T10:52:27.789Z</time></trkpt><trkpt lat="42.5612619" lon="13.3266452"><ele>1302.4</ele><time>2026-04-19T10:52:28.789Z</time></trkpt><trkpt lat="42.5613502" lon="13.3266154"><ele>1301.8000000000002</ele><time>2026-04-19T10:52:29.789Z</time></trkpt><trkpt lat="42.561453" lon="13.3266059"><ele>1301.2</ele><time>2026-04-19T10:52:30.789Z</time></trkpt><trkpt lat="42.5615591" lon="13.3265989"><ele>1300.6</ele><time>2026-04-19T10:52:31.789Z</time></trkpt><trkpt lat="42.5616698" lon="13.3265966"><ele>1300.0</ele><time>2026-04-19T10:52:32.789Z</time></trkpt><trkpt lat="42.5617812" lon="13.3265961"><ele>1300.0</ele><time>2026-04-19T10:52:33.79Z</time></trkpt><trkpt lat="42.5619023" lon="13.3266074"><ele>1300.0</ele><time>2026-04-19T10:52:34.789Z</time></trkpt><trkpt lat="42.5620168" lon="13.3266215"><ele>1300.0</ele><time>2026-04-19T10:52:35.79Z</time></trkpt><trkpt lat="42.562125" lon="13.3266536"><ele>1300.0</ele><time>2026-04-19T10:52:36.79Z</time></trkpt><trkpt lat="42.5622212" lon="13.3267043"><ele>1299.5</ele><time>2026-04-19T10:52:37.79Z</time></trkpt><trkpt lat="42.5623102" lon="13.3267707"><ele>1299.0</ele><time>2026-04-19T10:52:38.789Z</time></trkpt><trkpt lat="42.5623811" lon="13.3268317"><ele>1298.5</ele><time>2026-04-19T10:52:39.797Z</time></trkpt><trkpt lat="42.5624388" lon="13.3268826"><ele>1298.0</ele><time>2026-04-19T10:52:40.796Z</time></trkpt><trkpt lat="42.5625066" lon="13.3269397"><ele>1297.5</ele><time>2026-04-19T10:52:42.796Z</time></trkpt><trkpt lat="42.56257" lon="13.3269235"><ele>1297.0</ele><time>2026-04-19T10:52:48.796Z</time></trkpt><trkpt lat="42.5626265" lon="13.3268344"><ele>1297.0</ele><time>2026-04-19T10:52:52.796Z</time></trkpt><trkpt lat="42.5626664" lon="13.3266924"><ele>1297.0</ele><time>2026-04-19T10:52:54.797Z</time></trkpt><trkpt lat="42.5626836" lon="13.3265572"><ele>1297.0</ele><time>2026-04-19T10:52:56.796Z</time></trkpt><trkpt lat="42.5626866" lon="13.3264334"><ele>1297.0</ele><time>2026-04-19T10:52:58.796Z</time></trkpt><trkpt lat="42.5626736" lon="13.3262879"><ele>1297.0</ele><time>2026-04-19T10:53:00.797Z</time></trkpt><trkpt lat="42.5626624" lon="13.3261722"><ele>1297.3999999999999</ele><time>2026-04-19T10:53:01.797Z</time></trkpt><trkpt lat="42.5626451" lon="13.3259919"><ele>1297.8</ele><time>2026-04-19T10:53:03.796Z</time></trkpt><trkpt lat="42.562671" lon="13.3258186"><ele>1298.2</ele><time>2026-04-19T10:53:05.796Z</time></trkpt><trkpt lat="42.5626984" lon="13.3257147"><ele>1298.6</ele><time>2026-04-19T10:53:06.797Z</time></trkpt><trkpt lat="42.5627147" lon="13.3256066"><ele>1299.0</ele><time>2026-04-19T10:53:07.796Z</time></trkpt><trkpt lat="42.5627325" lon="13.3254958"><ele>1299.1428571428573</ele><time>2026-04-19T10:53:08.797Z</time></trkpt><trkpt lat="42.5627443" lon="13.3253777"><ele>1299.2857142857142</ele><time>2026-04-19T10:53:09.797Z</time></trkpt><trkpt lat="42.5627441" lon="13.3252674"><ele>1299.4285714285716</ele><time>2026-04-19T10:53:10.796Z</time></trkpt><trkpt lat="42.5627309" lon="13.3251669"><ele>1299.5714285714287</ele><time>2026-04-19T10:53:11.796Z</time></trkpt><trkpt lat="42.5627257" lon="13.3250783"><ele>1299.7142857142858</ele><time>2026-04-19T10:53:12.796Z</time></trkpt><trkpt lat="42.5627227" lon="13.3249926"><ele>1299.857142857143</ele><time>2026-04-19T10:53:13.796Z</time></trkpt><trkpt lat="42.562719" lon="13.3248986"><ele>1300.0</ele><time>2026-04-19T10:53:14.797Z</time></trkpt><trkpt lat="42.562728" lon="13.3248085"><ele>1300.5</ele><time>2026-04-19T10:53:15.796Z</time></trkpt><trkpt lat="42.5627437" lon="13.3247217"><ele>1301.0</ele><time>2026-04-19T10:53:16.796Z</time></trkpt><trkpt lat="42.5627583" lon="13.3245706"><ele>1301.5</ele><time>2026-04-19T10:53:18.797Z</time></trkpt><trkpt lat="42.5627897" lon="13.3244233"><ele>1302.0</ele><time>2026-04-19T10:53:20.796Z</time></trkpt><trkpt lat="42.5628288" lon="13.3243499"><ele>1302.5</ele><time>2026-04-19T10:53:21.796Z</time></trkpt><trkpt lat="42.5628707" lon="13.3242843"><ele>1303.0</ele><time>2026-04-19T10:53:22.796Z</time></trkpt><trkpt lat="42.5629127" lon="13.3242189"><ele>1303.0</ele><time>2026-04-19T10:53:23.797Z</time></trkpt><trkpt lat="42.5629371" lon="13.3240882"><ele>1303.0</ele><time>2026-04-19T10:53:25.797Z</time></trkpt><trkpt lat="42.562879" lon="13.323975"><ele>1303.0</ele><time>2026-04-19T10:53:27.796Z</time></trkpt><trkpt lat="42.5628293" lon="13.3239212"><ele>1303.0</ele><time>2026-04-19T10:53:28.797Z</time></trkpt><trkpt lat="42.562769" lon="13.323846"><ele>1303.0</ele><time>2026-04-19T10:53:29.796Z</time></trkpt><trkpt lat="42.5627066" lon="13.3237583"><ele>1303.0</ele><time>2026-04-19T10:53:30.797Z</time></trkpt><trkpt lat="42.5626452" lon="13.3236628"><ele>1304.2</ele><time>2026-04-19T10:53:31.797Z</time></trkpt><trkpt lat="42.5625887" lon="13.3235769"><ele>1305.4</ele><time>2026-04-19T10:53:32.797Z</time></trkpt><trkpt lat="42.5625178" lon="13.3234573"><ele>1306.6000000000001</ele><time>2026-04-19T10:53:33.796Z</time></trkpt><trkpt lat="42.5624478" lon="13.3233415"><ele>1307.8000000000002</ele><time>2026-04-19T10:53:34.797Z</time></trkpt><trkpt lat="42.5623872" lon="13.3232176"><ele>1309.0</ele><time>2026-04-19T10:53:35.797Z</time></trkpt><trkpt lat="42.5623388" lon="13.3230819"><ele>1309.0</ele><time>2026-04-19T10:53:36.796Z</time></trkpt><trkpt lat="42.5623031" lon="13.3229285"><ele>1309.0</ele><time>2026-04-19T10:53:37.797Z</time></trkpt><trkpt lat="42.5622786" lon="13.322757"><ele>1309.0</ele><time>2026-04-19T10:53:38.796Z</time></trkpt><trkpt lat="42.5622621" lon="13.322583"><ele>1309.0</ele><time>2026-04-19T10:53:39.797Z</time></trkpt><trkpt lat="42.5622453" lon="13.3223997"><ele>1309.0</ele><time>2026-04-19T10:53:40.796Z</time></trkpt><trkpt lat="42.5622113" lon="13.3222354"><ele>1309.0</ele><time>2026-04-19T10:53:41.797Z</time></trkpt><trkpt lat="42.5621632" lon="13.3220617"><ele>1309.0</ele><time>2026-04-19T10:53:42.797Z</time></trkpt><trkpt lat="42.5621012" lon="13.3218817"><ele>1309.0</ele><time>2026-04-19T10:53:43.797Z</time></trkpt><trkpt lat="42.5620331" lon="13.3216987"><ele>1312.0</ele><time>2026-04-19T10:53:44.797Z</time></trkpt><trkpt lat="42.5619618" lon="13.3215196"><ele>1315.0</ele><time>2026-04-19T10:53:45.796Z</time></trkpt><trkpt lat="42.5618928" lon="13.3213438"><ele>1318.0</ele><time>2026-04-19T10:53:46.796Z</time></trkpt><trkpt lat="42.5618132" lon="13.3211544"><ele>1318.0</ele><time>2026-04-19T10:53:47.797Z</time></trkpt><trkpt lat="42.5617265" lon="13.321"><ele>1318.0</ele><time>2026-04-19T10:53:48.796Z</time></trkpt><trkpt lat="42.5616252" lon="13.3208529"><ele>1318.0</ele><time>2026-04-19T10:53:49.796Z</time></trkpt><trkpt lat="42.5615204" lon="13.3207204"><ele>1318.0</ele><time>2026-04-19T10:53:50.796Z</time></trkpt><trkpt lat="42.5614216" lon="13.3206025"><ele>1319.8333333333333</ele><time>2026-04-19T10:53:51.797Z</time></trkpt><trkpt lat="42.5613361" lon="13.3204988"><ele>1321.6666666666665</ele><time>2026-04-19T10:53:52.797Z</time></trkpt><trkpt lat="42.5612548" lon="13.3203975"><ele>1323.5</ele><time>2026-04-19T10:53:53.796Z</time></trkpt><trkpt lat="42.561182" lon="13.3203323"><ele>1325.3333333333333</ele><time>2026-04-19T10:53:54.796Z</time></trkpt><trkpt lat="42.5611199" lon="13.3202973"><ele>1327.1666666666667</ele><time>2026-04-19T10:53:55.796Z</time></trkpt><trkpt lat="42.5610548" lon="13.3202807"><ele>1329.0</ele><time>2026-04-19T10:53:56.797Z</time></trkpt><trkpt lat="42.56099" lon="13.3202803"><ele>1329.0</ele><time>2026-04-19T10:53:57.796Z</time></trkpt><trkpt lat="42.5609269" lon="13.3203"><ele>1329.0</ele><time>2026-04-19T10:53:58.796Z</time></trkpt><trkpt lat="42.5608679" lon="13.3203347"><ele>1329.0</ele><time>2026-04-19T10:53:59.796Z</time></trkpt><trkpt lat="42.560801" lon="13.3204589"><ele>1329.0</ele><time>2026-04-19T10:54:01.796Z</time></trkpt><trkpt lat="42.5608408" lon="13.3206034"><ele>1329.0</ele><time>2026-04-19T10:54:03.796Z</time></trkpt><trkpt lat="42.5608899" lon="13.3206828"><ele>1329.0</ele><time>2026-04-19T10:54:04.796Z</time></trkpt><trkpt lat="42.5609571" lon="13.3207592"><ele>1329.6</ele><time>2026-04-19T10:54:05.797Z</time></trkpt><trkpt lat="42.5610215" lon="13.3208445"><ele>1330.2</ele><time>2026-04-19T10:54:06.796Z</time></trkpt><trkpt lat="42.5610771" lon="13.320954"><ele>1330.8</ele><time>2026-04-19T10:54:07.797Z</time></trkpt><trkpt lat="42.5611182" lon="13.3210871"><ele>1331.3999999999999</ele><time>2026-04-19T10:54:08.796Z</time></trkpt><trkpt lat="42.561156" lon="13.3212337"><ele>1332.0</ele><time>2026-04-19T10:54:09.796Z</time></trkpt><trkpt lat="42.5611983" lon="13.3213949"><ele>1327.6666666666667</ele><time>2026-04-19T10:54:10.796Z</time></trkpt><trkpt lat="42.5612415" lon="13.3215745"><ele>1323.3333333333335</ele><time>2026-04-19T10:54:11.796Z</time></trkpt><trkpt lat="42.5613082" lon="13.3217704"><ele>1319.0</ele><time>2026-04-19T10:54:12.797Z</time></trkpt><trkpt lat="42.5613602" lon="13.3219811"><ele>1319.0</ele><time>2026-04-19T10:54:13.796Z</time></trkpt><trkpt lat="42.5614108" lon="13.322204"><ele>1319.0</ele><time>2026-04-19T10:54:14.797Z</time></trkpt><trkpt lat="42.5614605" lon="13.3223942"><ele>1319.0</ele><time>2026-04-19T10:54:15.796Z</time></trkpt><trkpt lat="42.5615053" lon="13.3225741"><ele>1320.4</ele><time>2026-04-19T10:54:16.796Z</time></trkpt><trkpt lat="42.5615298" lon="13.3227444"><ele>1321.8000000000002</ele><time>2026-04-19T10:54:17.797Z</time></trkpt><trkpt lat="42.5615369" lon="13.3229035"><ele>1323.1999999999998</ele><time>2026-04-19T10:54:18.796Z</time></trkpt><trkpt lat="42.5615346" lon="13.3230396"><ele>1324.6</ele><time>2026-04-19T10:54:19.796Z</time></trkpt><trkpt lat="42.5615126" lon="13.3231714"><ele>1326.0</ele><time>2026-04-19T10:54:20.796Z</time></trkpt><trkpt lat="42.5614609" lon="13.3233139"><ele>1325.25</ele><time>2026-04-19T10:54:21.797Z</time></trkpt><trkpt lat="42.5613828" lon="13.3234642"><ele>1324.5</ele><time>2026-04-19T10:54:22.797Z</time></trkpt><trkpt lat="42.5613082" lon="13.3236139"><ele>1323.75</ele><time>2026-04-19T10:54:23.796Z</time></trkpt><trkpt lat="42.5612484" lon="13.3237451"><ele>1323.0</ele><time>2026-04-19T10:54:24.796Z</time></trkpt><trkpt lat="42.5612126" lon="13.3239025"><ele>1328.4</ele><time>2026-04-19T10:54:25.797Z</time></trkpt><trkpt lat="42.5611805" lon="13.3240531"><ele>1333.8000000000002</ele><time>2026-04-19T10:54:26.796Z</time></trkpt><trkpt lat="42.5611204" lon="13.3241694"><ele>1339.2</ele><time>2026-04-19T10:54:27.797Z</time></trkpt><trkpt lat="42.5610547" lon="13.3242736"><ele>1344.6</ele><time>2026-04-19T10:54:28.797Z</time></trkpt><trkpt lat="42.5609793" lon="13.324346"><ele>1350.0</ele><time>2026-04-19T10:54:29.796Z</time></trkpt><trkpt lat="42.560889" lon="13.3243962"><ele>1350.0</ele><time>2026-04-19T10:54:30.796Z</time></trkpt><trkpt lat="42.5608024" lon="13.3244006"><ele>1350.0</ele><time>2026-04-19T10:54:31.796Z</time></trkpt><trkpt lat="42.5607223" lon="13.3243788"><ele>1350.0</ele><time>2026-04-19T10:54:32.797Z</time></trkpt><trkpt lat="42.5606502" lon="13.3243365"><ele>1350.0</ele><time>2026-04-19T10:54:33.796Z</time></trkpt><trkpt lat="42.5605712" lon="13.324249"><ele>1350.0</ele><time>2026-04-19T10:54:34.797Z</time></trkpt><trkpt lat="42.5605042" lon="13.3241269"><ele>1350.0</ele><time>2026-04-19T10:54:35.797Z</time></trkpt><trkpt lat="42.5604361" lon="13.3239895"><ele>1350.0</ele><time>2026-04-19T10:54:36.797Z</time></trkpt><trkpt lat="42.560369" lon="13.3238369"><ele>1350.0</ele><time>2026-04-19T10:54:37.796Z</time></trkpt><trkpt lat="42.5603022" lon="13.323687"><ele>1350.0</ele><time>2026-04-19T10:54:38.796Z</time></trkpt><trkpt lat="42.5602209" lon="13.3235497"><ele>1352.25</ele><time>2026-04-19T10:54:39.796Z</time></trkpt><trkpt lat="42.5601307" lon="13.3234262"><ele>1354.5</ele><time>2026-04-19T10:54:40.796Z</time></trkpt><trkpt lat="42.5600237" lon="13.3233327"><ele>1356.75</ele><time>2026-04-19T10:54:41.796Z</time></trkpt><trkpt lat="42.559901" lon="13.3232715"><ele>1359.0</ele><time>2026-04-19T10:54:42.796Z</time></trkpt><trkpt lat="42.5597655" lon="13.3232374"><ele>1359.0</ele><time>2026-04-19T10:54:43.796Z</time></trkpt><trkpt lat="42.5596291" lon="13.3232213"><ele>1359.0</ele><time>2026-04-19T10:54:44.796Z</time></trkpt><trkpt lat="42.5594958" lon="13.3231874"><ele>1359.0</ele><time>2026-04-19T10:54:45.796Z</time></trkpt><trkpt lat="42.5593706" lon="13.3231306"><ele>1359.0</ele><time>2026-04-19T10:54:46.797Z</time></trkpt><trkpt lat="42.5592513" lon="13.3230327"><ele>1362.75</ele><time>2026-04-19T10:54:47.796Z</time></trkpt><trkpt lat="42.559139" lon="13.322906"><ele>1366.5</ele><time>2026-04-19T10:54:48.797Z</time></trkpt><trkpt lat="42.5590278" lon="13.3227775"><ele>1370.25</ele><time>2026-04-19T10:54:49.796Z</time></trkpt><trkpt lat="42.5589082" lon="13.3226633"><ele>1374.0</ele><time>2026-04-19T10:54:50.797Z</time></trkpt><trkpt lat="42.558776" lon="13.3225869"><ele>1371.5</ele><time>2026-04-19T10:54:51.796Z</time></trkpt><trkpt lat="42.5586375" lon="13.3225449"><ele>1369.0</ele><time>2026-04-19T10:54:52.796Z</time></trkpt><trkpt lat="42.5584997" lon="13.322494"><ele>1366.5</ele><time>2026-04-19T10:54:53.796Z</time></trkpt><trkpt lat="42.5583677" lon="13.3224285"><ele>1364.0</ele><time>2026-04-19T10:54:54.796Z</time></trkpt><trkpt lat="42.5582248" lon="13.3223306"><ele>1371.0</ele><time>2026-04-19T10:54:55.797Z</time></trkpt><trkpt lat="42.5580691" lon="13.3222103"><ele>1378.0</ele><time>2026-04-19T10:54:56.796Z</time></trkpt><trkpt lat="42.5579002" lon="13.3220969"><ele>1385.0</ele><time>2026-04-19T10:54:57.796Z</time></trkpt><trkpt lat="42.5576769" lon="13.3220023"><ele>1385.0</ele><time>2026-04-19T10:54:58.796Z</time></trkpt><trkpt lat="42.5574758" lon="13.3219133"><ele>1385.0</ele><time>2026-04-19T10:54:59.796Z</time></trkpt><trkpt lat="42.5572926" lon="13.3218278"><ele>1385.0</ele><time>2026-04-19T10:55:00.796Z</time></trkpt><trkpt lat="42.5571319" lon="13.3217609"><ele>1386.5</ele><time>2026-04-19T10:55:01.796Z</time></trkpt><trkpt lat="42.5569874" lon="13.321695"><ele>1388.0</ele><time>2026-04-19T10:55:02.797Z</time></trkpt><trkpt lat="42.5568553" lon="13.3216175"><ele>1389.5</ele><time>2026-04-19T10:55:03.797Z</time></trkpt><trkpt lat="42.5567317" lon="13.3215056"><ele>1391.0</ele><time>2026-04-19T10:55:04.796Z</time></trkpt><trkpt lat="42.5566111" lon="13.3213678"><ele>1391.0</ele><time>2026-04-19T10:55:05.796Z</time></trkpt><trkpt lat="42.556486" lon="13.3212155"><ele>1391.0</ele><time>2026-04-19T10:55:06.796Z</time></trkpt><trkpt lat="42.5563486" lon="13.3210497"><ele>1391.0</ele><time>2026-04-19T10:55:07.796Z</time></trkpt><trkpt lat="42.5562184" lon="13.3208965"><ele>1393.0</ele><time>2026-04-19T10:55:08.797Z</time></trkpt><trkpt lat="42.5561047" lon="13.3207598"><ele>1395.0</ele><time>2026-04-19T10:55:09.797Z</time></trkpt><trkpt lat="42.5559999" lon="13.3206493"><ele>1397.0</ele><time>2026-04-19T10:55:10.797Z</time></trkpt><trkpt lat="42.5558989" lon="13.3205803"><ele>1399.0</ele><time>2026-04-19T10:55:11.797Z</time></trkpt><trkpt lat="42.555778" lon="13.3205557"><ele>1394.25</ele><time>2026-04-19T10:55:12.797Z</time></trkpt><trkpt lat="42.5556454" lon="13.3205663"><ele>1389.5</ele><time>2026-04-19T10:55:13.796Z</time></trkpt><trkpt lat="42.5554948" lon="13.3205953"><ele>1384.75</ele><time>2026-04-19T10:55:14.796Z</time></trkpt><trkpt lat="42.5553409" lon="13.3206276"><ele>1380.0</ele><time>2026-04-19T10:55:15.796Z</time></trkpt><trkpt lat="42.5552008" lon="13.3206397"><ele>1380.0</ele><time>2026-04-19T10:55:16.797Z</time></trkpt><trkpt lat="42.555066" lon="13.3206398"><ele>1380.0</ele><time>2026-04-19T10:55:17.797Z</time></trkpt><trkpt lat="42.5549465" lon="13.3206204"><ele>1380.0</ele><time>2026-04-19T10:55:18.796Z</time></trkpt><trkpt lat="42.5548416" lon="13.3205909"><ele>1380.0</ele><time>2026-04-19T10:55:19.796Z</time></trkpt><trkpt lat="42.5547496" lon="13.320568"><ele>1380.0</ele><time>2026-04-19T10:55:20.797Z</time></trkpt><trkpt lat="42.5546703" lon="13.32057"><ele>1380.0</ele><time>2026-04-19T10:55:21.797Z</time></trkpt><trkpt lat="42.5546005" lon="13.3206124"><ele>1380.0</ele><time>2026-04-19T10:55:22.797Z</time></trkpt><trkpt lat="42.5545484" lon="13.3206855"><ele>1380.0</ele><time>2026-04-19T10:55:23.796Z</time></trkpt><trkpt lat="42.5545123" lon="13.3207846"><ele>1380.0</ele><time>2026-04-19T10:55:24.797Z</time></trkpt><trkpt lat="42.5544827" lon="13.3209177"><ele>1380.0</ele><time>2026-04-19T10:55:25.797Z</time></trkpt><trkpt lat="42.5544601" lon="13.3210638"><ele>1381.8</ele><time>2026-04-19T10:55:26.796Z</time></trkpt><trkpt lat="42.5544614" lon="13.3212037"><ele>1383.6</ele><time>2026-04-19T10:55:27.796Z</time></trkpt><trkpt lat="42.5544909" lon="13.3213383"><ele>1385.4</ele><time>2026-04-19T10:55:28.797Z</time></trkpt><trkpt lat="42.5545482" lon="13.3214709"><ele>1387.2</ele><time>2026-04-19T10:55:29.797Z</time></trkpt><trkpt lat="42.5546188" lon="13.3215901"><ele>1389.0</ele><time>2026-04-19T10:55:30.796Z</time></trkpt><trkpt lat="42.554681" lon="13.3217076"><ele>1389.0</ele><time>2026-04-19T10:55:31.797Z</time></trkpt><trkpt lat="42.5547259" lon="13.3218185"><ele>1389.0</ele><time>2026-04-19T10:55:32.796Z</time></trkpt><trkpt lat="42.5547522" lon="13.3219241"><ele>1389.0</ele><time>2026-04-19T10:55:33.797Z</time></trkpt><trkpt lat="42.5547981" lon="13.3220124"><ele>1389.0</ele><time>2026-04-19T10:55:34.796Z</time></trkpt><trkpt lat="42.5548739" lon="13.3220727"><ele>1389.0</ele><time>2026-04-19T10:55:35.796Z</time></trkpt><trkpt lat="42.5549709" lon="13.3220801"><ele>1389.0</ele><time>2026-04-19T10:55:36.797Z</time></trkpt><trkpt lat="42.555087" lon="13.322059"><ele>1389.0</ele><time>2026-04-19T10:55:37.797Z</time></trkpt><trkpt lat="42.555211" lon="13.3220495"><ele>1389.0</ele><time>2026-04-19T10:55:38.797Z</time></trkpt><trkpt lat="42.5553295" lon="13.3220561"><ele>1389.0</ele><time>2026-04-19T10:55:39.797Z</time></trkpt><trkpt lat="42.5554343" lon="13.3220974"><ele>1389.0</ele><time>2026-04-19T10:55:40.797Z</time></trkpt><trkpt lat="42.5555355" lon="13.3221777"><ele>1393.5</ele><time>2026-04-19T10:55:41.797Z</time></trkpt><trkpt lat="42.55563" lon="13.3222982"><ele>1398.0</ele><time>2026-04-19T10:55:42.796Z</time></trkpt><trkpt lat="42.5557202" lon="13.322448"><ele>1402.5</ele><time>2026-04-19T10:55:43.796Z</time></trkpt><trkpt lat="42.5557971" lon="13.3226197"><ele>1407.0</ele><time>2026-04-19T10:55:44.797Z</time></trkpt><trkpt lat="42.5558511" lon="13.3228237"><ele>1407.0</ele><time>2026-04-19T10:55:45.797Z</time></trkpt><trkpt lat="42.5559096" lon="13.3230488"><ele>1407.0</ele><time>2026-04-19T10:55:46.797Z</time></trkpt><trkpt lat="42.5559676" lon="13.323286"><ele>1407.0</ele><time>2026-04-19T10:55:47.796Z</time></trkpt><trkpt lat="42.5560253" lon="13.3235114"><ele>1413.5</ele><time>2026-04-19T10:55:48.797Z</time></trkpt><trkpt lat="42.5560794" lon="13.3237043"><ele>1420.0</ele><time>2026-04-19T10:55:49.796Z</time></trkpt><trkpt lat="42.5561289" lon="13.3238714"><ele>1426.5</ele><time>2026-04-19T10:55:50.796Z</time></trkpt><trkpt lat="42.5561646" lon="13.3240209"><ele>1433.0</ele><time>2026-04-19T10:55:51.796Z</time></trkpt><trkpt lat="42.5561358" lon="13.3241528"><ele>1433.6000000000001</ele><time>2026-04-19T10:55:52.796Z</time></trkpt><trkpt lat="42.5560929" lon="13.3242698"><ele>1434.2</ele><time>2026-04-19T10:55:53.797Z</time></trkpt><trkpt lat="42.5560207" lon="13.3243716"><ele>1434.8</ele><time>2026-04-19T10:55:54.796Z</time></trkpt><trkpt lat="42.5559229" lon="13.3244578"><ele>1435.4</ele><time>2026-04-19T10:55:55.796Z</time></trkpt><trkpt lat="42.5558213" lon="13.324518"><ele>1436.0</ele><time>2026-04-19T10:55:56.796Z</time></trkpt><trkpt lat="42.5556997" lon="13.3245577"><ele>1436.0</ele><time>2026-04-19T10:55:57.797Z</time></trkpt><trkpt lat="42.5555603" lon="13.3245578"><ele>1436.0</ele><time>2026-04-19T10:55:58.797Z</time></trkpt><trkpt lat="42.5554081" lon="13.3245416"><ele>1436.0</ele><time>2026-04-19T10:55:59.796Z</time></trkpt><trkpt lat="42.5552559" lon="13.3245108"><ele>1436.0</ele><time>2026-04-19T10:56:00.796Z</time></trkpt><trkpt lat="42.5551042" lon="13.3244554"><ele>1435.6666666666667</ele><time>2026-04-19T10:56:01.796Z</time></trkpt><trkpt lat="42.5549547" lon="13.3243785"><ele>1435.3333333333333</ele><time>2026-04-19T10:56:02.796Z</time></trkpt><trkpt lat="42.5548075" lon="13.3242969"><ele>1435.0</ele><time>2026-04-19T10:56:03.796Z</time></trkpt><trkpt lat="42.5546742" lon="13.3242098"><ele>1435.0</ele><time>2026-04-19T10:56:04.796Z</time></trkpt><trkpt lat="42.5545655" lon="13.3241196"><ele>1435.0</ele><time>2026-04-19T10:56:05.797Z</time></trkpt><trkpt lat="42.5544559" lon="13.3240382"><ele>1435.0</ele><time>2026-04-19T10:56:06.796Z</time></trkpt><trkpt lat="42.5543447" lon="13.323991"><ele>1435.0</ele><time>2026-04-19T10:56:07.797Z</time></trkpt><trkpt lat="42.5542257" lon="13.3239913"><ele>1435.0</ele><time>2026-04-19T10:56:08.796Z</time></trkpt><trkpt lat="42.5540957" lon="13.3240233"><ele>1435.0</ele><time>2026-04-19T10:56:09.797Z</time></trkpt><trkpt lat="42.5539819" lon="13.3240773"><ele>1435.0</ele><time>2026-04-19T10:56:10.797Z</time></trkpt><trkpt lat="42.5538764" lon="13.3241567"><ele>1435.0</ele><time>2026-04-19T10:56:11.796Z</time></trkpt><trkpt lat="42.5537842" lon="13.3242641"><ele>1435.0</ele><time>2026-04-19T10:56:12.797Z</time></trkpt><trkpt lat="42.5537194" lon="13.3243915"><ele>1435.0</ele><time>2026-04-19T10:56:13.796Z</time></trkpt><trkpt lat="42.5536766" lon="13.3245533"><ele>1435.0</ele><time>2026-04-19T10:56:14.796Z</time></trkpt><trkpt lat="42.5536469" lon="13.3247285"><ele>1435.0</ele><time>2026-04-19T10:56:15.797Z</time></trkpt><trkpt lat="42.5536182" lon="13.3248873"><ele>1435.2</ele><time>2026-04-19T10:56:16.797Z</time></trkpt><trkpt lat="42.5535875" lon="13.3250136"><ele>1435.4</ele><time>2026-04-19T10:56:17.796Z</time></trkpt><trkpt lat="42.5535407" lon="13.325119"><ele>1435.6</ele><time>2026-04-19T10:56:18.797Z</time></trkpt><trkpt lat="42.5534736" lon="13.3251882"><ele>1435.8</ele><time>2026-04-19T10:56:19.796Z</time></trkpt><trkpt lat="42.5533885" lon="13.3252122"><ele>1436.0</ele><time>2026-04-19T10:56:20.797Z</time></trkpt><trkpt lat="42.5532956" lon="13.3251897"><ele>1436.0</ele><time>2026-04-19T10:56:21.796Z</time></trkpt><trkpt lat="42.5531942" lon="13.3251234"><ele>1436.0</ele><time>2026-04-19T10:56:22.796Z</time></trkpt><trkpt lat="42.5530793" lon="13.3250324"><ele>1436.0</ele><time>2026-04-19T10:56:23.796Z</time></trkpt><trkpt lat="42.5529562" lon="13.3249303"><ele>1436.0</ele><time>2026-04-19T10:56:24.796Z</time></trkpt><trkpt lat="42.5528313" lon="13.3248251"><ele>1435.25</ele><time>2026-04-19T10:56:25.796Z</time></trkpt><trkpt lat="42.5527147" lon="13.3247155"><ele>1434.5</ele><time>2026-04-19T10:56:26.796Z</time></trkpt><trkpt lat="42.5526263" lon="13.324585"><ele>1433.75</ele><time>2026-04-19T10:56:27.797Z</time></trkpt><trkpt lat="42.55255" lon="13.3244269"><ele>1433.0</ele><time>2026-04-19T10:56:28.796Z</time></trkpt><trkpt lat="42.5524875" lon="13.3242415"><ele>1433.0</ele><time>2026-04-19T10:56:29.796Z</time></trkpt><trkpt lat="42.552424" lon="13.324048"><ele>1433.0</ele><time>2026-04-19T10:56:30.797Z</time></trkpt><trkpt lat="42.5523565" lon="13.3238347"><ele>1433.0</ele><time>2026-04-19T10:56:31.796Z</time></trkpt><trkpt lat="42.5522836" lon="13.3236397"><ele>1436.0</ele><time>2026-04-19T10:56:32.796Z</time></trkpt><trkpt lat="42.5522296" lon="13.3234736"><ele>1439.0</ele><time>2026-04-19T10:56:33.796Z</time></trkpt><trkpt lat="42.5522146" lon="13.3233337"><ele>1442.0</ele><time>2026-04-19T10:56:34.797Z</time></trkpt><trkpt lat="42.5522035" lon="13.3231809"><ele>1445.0</ele><time>2026-04-19T10:56:35.797Z</time></trkpt><trkpt lat="42.5521885" lon="13.3230337"><ele>1444.3333333333335</ele><time>2026-04-19T10:56:36.796Z</time></trkpt><trkpt lat="42.5521678" lon="13.3229224"><ele>1443.6666666666667</ele><time>2026-04-19T10:56:37.797Z</time></trkpt><trkpt lat="42.5521327" lon="13.3228356"><ele>1443.0</ele><time>2026-04-19T10:56:38.797Z</time></trkpt><trkpt lat="42.5520827" lon="13.3227453"><ele>1442.3333333333333</ele><time>2026-04-19T10:56:39.796Z</time></trkpt><trkpt lat="42.5520242" lon="13.3226908"><ele>1441.6666666666665</ele><time>2026-04-19T10:56:40.796Z</time></trkpt><trkpt lat="42.5519367" lon="13.3226431"><ele>1441.0</ele><time>2026-04-19T10:56:41.796Z</time></trkpt><trkpt lat="42.5518635" lon="13.3225983"><ele>1441.0</ele><time>2026-04-19T10:56:42.796Z</time></trkpt><trkpt lat="42.5517832" lon="13.3225365"><ele>1441.0</ele><time>2026-04-19T10:56:43.797Z</time></trkpt><trkpt lat="42.5517098" lon="13.3224624"><ele>1441.0</ele><time>2026-04-19T10:56:44.797Z</time></trkpt><trkpt lat="42.5516445" lon="13.3223482"><ele>1441.0</ele><time>2026-04-19T10:56:45.796Z</time></trkpt><trkpt lat="42.5515921" lon="13.3222159"><ele>1441.0</ele><time>2026-04-19T10:56:46.796Z</time></trkpt><trkpt lat="42.5515556" lon="13.3220873"><ele>1443.5</ele><time>2026-04-19T10:56:47.797Z</time></trkpt><trkpt lat="42.5515121" lon="13.3219812"><ele>1446.0</ele><time>2026-04-19T10:56:48.796Z</time></trkpt><trkpt lat="42.5514483" lon="13.3219171"><ele>1448.5</ele><time>2026-04-19T10:56:49.796Z</time></trkpt><trkpt lat="42.5513633" lon="13.3218912"><ele>1451.0</ele><time>2026-04-19T10:56:50.796Z</time></trkpt><trkpt lat="42.5512715" lon="13.3219065"><ele>1453.5</ele><time>2026-04-19T10:56:51.796Z</time></trkpt><trkpt lat="42.5511747" lon="13.3219373"><ele>1456.0</ele><time>2026-04-19T10:56:52.796Z</time></trkpt><trkpt lat="42.5510771" lon="13.3219366"><ele>1456.0</ele><time>2026-04-19T10:56:53.796Z</time></trkpt><trkpt lat="42.5509837" lon="13.3219037"><ele>1456.0</ele><time>2026-04-19T10:56:54.796Z</time></trkpt><trkpt lat="42.5508838" lon="13.3218423"><ele>1456.0</ele><time>2026-04-19T10:56:55.797Z</time></trkpt><trkpt lat="42.5507698" lon="13.3217634"><ele>1456.0</ele><time>2026-04-19T10:56:56.796Z</time></trkpt><trkpt lat="42.5506672" lon="13.321677"><ele>1456.0</ele><time>2026-04-19T10:56:57.797Z</time></trkpt><trkpt lat="42.5505819" lon="13.3215639"><ele>1456.0</ele><time>2026-04-19T10:56:58.797Z</time></trkpt><trkpt lat="42.5505198" lon="13.3214243"><ele>1456.0</ele><time>2026-04-19T10:56:59.797Z</time></trkpt><trkpt lat="42.5504774" lon="13.3212722"><ele>1456.0</ele><time>2026-04-19T10:57:00.796Z</time></trkpt><trkpt lat="42.550431" lon="13.3211452"><ele>1458.8</ele><time>2026-04-19T10:57:01.797Z</time></trkpt><trkpt lat="42.5503733" lon="13.3210481"><ele>1461.6</ele><time>2026-04-19T10:57:02.797Z</time></trkpt><trkpt lat="42.5502951" lon="13.3209877"><ele>1464.4</ele><time>2026-04-19T10:57:03.797Z</time></trkpt><trkpt lat="42.550211" lon="13.3209695"><ele>1467.2</ele><time>2026-04-19T10:57:04.796Z</time></trkpt><trkpt lat="42.5501106" lon="13.3210095"><ele>1470.0</ele><time>2026-04-19T10:57:05.796Z</time></trkpt><trkpt lat="42.5500034" lon="13.3211021"><ele>1470.0</ele><time>2026-04-19T10:57:06.797Z</time></trkpt><trkpt lat="42.5499113" lon="13.3212231"><ele>1470.0</ele><time>2026-04-19T10:57:07.797Z</time></trkpt><trkpt lat="42.5498285" lon="13.3213906"><ele>1470.0</ele><time>2026-04-19T10:57:08.796Z</time></trkpt><trkpt lat="42.5497501" lon="13.3215924"><ele>1470.0</ele><time>2026-04-19T10:57:09.796Z</time></trkpt><trkpt lat="42.5496622" lon="13.3217983"><ele>1469.5</ele><time>2026-04-19T10:57:10.795Z</time></trkpt><trkpt lat="42.5495858" lon="13.3219835"><ele>1469.0</ele><time>2026-04-19T10:57:11.795Z</time></trkpt><trkpt lat="42.5495164" lon="13.3221427"><ele>1468.5</ele><time>2026-04-19T10:57:12.795Z</time></trkpt><trkpt lat="42.5494499" lon="13.3222568"><ele>1468.0</ele><time>2026-04-19T10:57:13.796Z</time></trkpt><trkpt lat="42.5493774" lon="13.3223269"><ele>1468.0</ele><time>2026-04-19T10:57:14.796Z</time></trkpt><trkpt lat="42.5492963" lon="13.3223349"><ele>1468.0</ele><time>2026-04-19T10:57:15.795Z</time></trkpt><trkpt lat="42.5492111" lon="13.3222822"><ele>1468.0</ele><time>2026-04-19T10:57:16.795Z</time></trkpt><trkpt lat="42.5491386" lon="13.3221961"><ele>1468.0</ele><time>2026-04-19T10:57:17.796Z</time></trkpt><trkpt lat="42.5490598" lon="13.3220838"><ele>1468.0</ele><time>2026-04-19T10:57:18.796Z</time></trkpt><trkpt lat="42.5489772" lon="13.3219956"><ele>1468.0</ele><time>2026-04-19T10:57:19.795Z</time></trkpt><trkpt lat="42.5488856" lon="13.3219273"><ele>1468.0</ele><time>2026-04-19T10:57:20.795Z</time></trkpt><trkpt lat="42.548779" lon="13.3218968"><ele>1468.0</ele><time>2026-04-19T10:57:21.796Z</time></trkpt><trkpt lat="42.5486739" lon="13.3218835"><ele>1468.0</ele><time>2026-04-19T10:57:22.795Z</time></trkpt><trkpt lat="42.5485843" lon="13.3218951"><ele>1468.0</ele><time>2026-04-19T10:57:23.795Z</time></trkpt><trkpt lat="42.5485019" lon="13.3219149"><ele>1467.2</ele><time>2026-04-19T10:57:24.796Z</time></trkpt><trkpt lat="42.5484295" lon="13.3219336"><ele>1466.4</ele><time>2026-04-19T10:57:25.796Z</time></trkpt><trkpt lat="42.5483562" lon="13.3219889"><ele>1465.6000000000001</ele><time>2026-04-19T10:57:26.796Z</time></trkpt><trkpt lat="42.5482665" lon="13.3220886"><ele>1464.8000000000002</ele><time>2026-04-19T10:57:27.796Z</time></trkpt><trkpt lat="42.5482049" lon="13.3222004"><ele>1464.0</ele><time>2026-04-19T10:57:28.796Z</time></trkpt><trkpt lat="42.5481454" lon="13.3223102"><ele>1464.0</ele><time>2026-04-19T10:57:29.796Z</time></trkpt><trkpt lat="42.5480655" lon="13.3224165"><ele>1464.0</ele><time>2026-04-19T10:57:30.795Z</time></trkpt><trkpt lat="42.5479798" lon="13.3224966"><ele>1464.0</ele><time>2026-04-19T10:57:31.795Z</time></trkpt><trkpt lat="42.5478891" lon="13.3225621"><ele>1464.0</ele><time>2026-04-19T10:57:32.796Z</time></trkpt><trkpt lat="42.5478219" lon="13.3226487"><ele>1464.0</ele><time>2026-04-19T10:57:33.796Z</time></trkpt><trkpt lat="42.5477846" lon="13.3227445"><ele>1462.3333333333333</ele><time>2026-04-19T10:57:34.795Z</time></trkpt><trkpt lat="42.5477812" lon="13.3228483"><ele>1460.6666666666667</ele><time>2026-04-19T10:57:35.796Z</time></trkpt><trkpt lat="42.5478011" lon="13.3229531"><ele>1459.0</ele><time>2026-04-19T10:57:36.796Z</time></trkpt><trkpt lat="42.547834" lon="13.3230534"><ele>1457.3333333333335</ele><time>2026-04-19T10:57:37.795Z</time></trkpt><trkpt lat="42.5478687" lon="13.3231649"><ele>1455.6666666666667</ele><time>2026-04-19T10:57:38.796Z</time></trkpt><trkpt lat="42.5479088" lon="13.3233073"><ele>1454.0</ele><time>2026-04-19T10:57:39.795Z</time></trkpt><trkpt lat="42.547935" lon="13.3234661"><ele>1454.0</ele><time>2026-04-19T10:57:40.795Z</time></trkpt><trkpt lat="42.5479646" lon="13.3236455"><ele>1454.0</ele><time>2026-04-19T10:57:41.796Z</time></trkpt><trkpt lat="42.548001" lon="13.3239571"><ele>1454.0</ele><time>2026-04-19T10:57:42.795Z</time></trkpt><trkpt lat="42.5480194" lon="13.324168"><ele>1454.75</ele><time>2026-04-19T10:57:43.795Z</time></trkpt><trkpt lat="42.5480399" lon="13.324377"><ele>1455.5</ele><time>2026-04-19T10:57:44.796Z</time></trkpt><trkpt lat="42.5480502" lon="13.3245648"><ele>1456.25</ele><time>2026-04-19T10:57:45.795Z</time></trkpt><trkpt lat="42.5480486" lon="13.3247426"><ele>1457.0</ele><time>2026-04-19T10:57:46.795Z</time></trkpt><trkpt lat="42.5480198" lon="13.3248939"><ele>1457.8</ele><time>2026-04-19T10:57:47.796Z</time></trkpt><trkpt lat="42.5479626" lon="13.3250109"><ele>1458.6</ele><time>2026-04-19T10:57:48.796Z</time></trkpt><trkpt lat="42.5478807" lon="13.3251152"><ele>1459.3999999999999</ele><time>2026-04-19T10:57:49.795Z</time></trkpt><trkpt lat="42.5477981" lon="13.3251901"><ele>1460.1999999999998</ele><time>2026-04-19T10:57:50.795Z</time></trkpt><trkpt lat="42.5477358" lon="13.3252714"><ele>1461.0</ele><time>2026-04-19T10:57:51.795Z</time></trkpt><trkpt lat="42.5477047" lon="13.325396"><ele>1468.5</ele><time>2026-04-19T10:57:52.795Z</time></trkpt><trkpt lat="42.5477033" lon="13.3255547"><ele>1476.0</ele><time>2026-04-19T10:57:53.796Z</time></trkpt><trkpt lat="42.5477329" lon="13.3257454"><ele>1483.5</ele><time>2026-04-19T10:57:54.796Z</time></trkpt><trkpt lat="42.5477843" lon="13.3259598"><ele>1491.0</ele><time>2026-04-19T10:57:55.796Z</time></trkpt><trkpt lat="42.547854" lon="13.3261974"><ele>1479.6666666666667</ele><time>2026-04-19T10:57:56.796Z</time></trkpt><trkpt lat="42.5479422" lon="13.3264324"><ele>1468.3333333333335</ele><time>2026-04-19T10:57:57.795Z</time></trkpt><trkpt lat="42.5480278" lon="13.3266496"><ele>1457.0</ele><time>2026-04-19T10:57:58.795Z</time></trkpt><trkpt lat="42.5481045" lon="13.3268183"><ele>1457.0</ele><time>2026-04-19T10:57:59.796Z</time></trkpt><trkpt lat="42.5481668" lon="13.3269574"><ele>1457.0</ele><time>2026-04-19T10:58:00.795Z</time></trkpt><trkpt lat="42.5482121" lon="13.3270882"><ele>1457.0</ele><time>2026-04-19T10:58:01.795Z</time></trkpt><trkpt lat="42.5482369" lon="13.3272021"><ele>1457.0</ele><time>2026-04-19T10:58:02.796Z</time></trkpt><trkpt lat="42.5482331" lon="13.3273278"><ele>1457.0</ele><time>2026-04-19T10:58:03.795Z</time></trkpt><trkpt lat="42.5482036" lon="13.3274219"><ele>1460.0</ele><time>2026-04-19T10:58:04.796Z</time></trkpt><trkpt lat="42.5481444" lon="13.3274939"><ele>1463.0</ele><time>2026-04-19T10:58:05.796Z</time></trkpt><trkpt lat="42.5480499" lon="13.3275547"><ele>1466.0</ele><time>2026-04-19T10:58:06.796Z</time></trkpt><trkpt lat="42.5479382" lon="13.3275707"><ele>1469.0</ele><time>2026-04-19T10:58:07.795Z</time></trkpt><trkpt lat="42.5478159" lon="13.3275522"><ele>1472.0</ele><time>2026-04-19T10:58:08.795Z</time></trkpt><trkpt lat="42.5476933" lon="13.3275114"><ele>1475.75</ele><time>2026-04-19T10:58:09.795Z</time></trkpt><trkpt lat="42.5475722" lon="13.3274291"><ele>1479.5</ele><time>2026-04-19T10:58:10.796Z</time></trkpt><trkpt lat="42.5474433" lon="13.3273466"><ele>1483.25</ele><time>2026-04-19T10:58:11.795Z</time></trkpt><trkpt lat="42.5473227" lon="13.3272704"><ele>1487.0</ele><time>2026-04-19T10:58:12.795Z</time></trkpt><trkpt lat="42.5472026" lon="13.3272322"><ele>1488.5</ele><time>2026-04-19T10:58:13.795Z</time></trkpt><trkpt lat="42.5470805" lon="13.3272214"><ele>1490.0</ele><time>2026-04-19T10:58:14.795Z</time></trkpt><trkpt lat="42.5469629" lon="13.327234"><ele>1491.5</ele><time>2026-04-19T10:58:15.796Z</time></trkpt><trkpt lat="42.5468526" lon="13.3272643"><ele>1493.0</ele><time>2026-04-19T10:58:16.795Z</time></trkpt><trkpt lat="42.5467473" lon="13.3272886"><ele>1493.0</ele><time>2026-04-19T10:58:17.795Z</time></trkpt><trkpt lat="42.5466604" lon="13.3272827"><ele>1493.0</ele><time>2026-04-19T10:58:18.796Z</time></trkpt><trkpt lat="42.5465669" lon="13.3272286"><ele>1493.0</ele><time>2026-04-19T10:58:19.796Z</time></trkpt><trkpt lat="42.5464491" lon="13.3271526"><ele>1493.0</ele><time>2026-04-19T10:58:20.795Z</time></trkpt><trkpt lat="42.546324" lon="13.3270578"><ele>1499.75</ele><time>2026-04-19T10:58:21.795Z</time></trkpt><trkpt lat="42.5461932" lon="13.3269874"><ele>1506.5</ele><time>2026-04-19T10:58:22.796Z</time></trkpt><trkpt lat="42.5460545" lon="13.3269549"><ele>1513.25</ele><time>2026-04-19T10:58:23.795Z</time></trkpt><trkpt lat="42.54591" lon="13.3269312"><ele>1520.0</ele><time>2026-04-19T10:58:24.795Z</time></trkpt><trkpt lat="42.5457825" lon="13.3269199"><ele>1520.0</ele><time>2026-04-19T10:58:25.795Z</time></trkpt><trkpt lat="42.5456634" lon="13.3269231"><ele>1520.0</ele><time>2026-04-19T10:58:26.795Z</time></trkpt><trkpt lat="42.5455593" lon="13.3269452"><ele>1520.0</ele><time>2026-04-19T10:58:27.796Z</time></trkpt><trkpt lat="42.5454588" lon="13.3269866"><ele>1520.0</ele><time>2026-04-19T10:58:28.795Z</time></trkpt><trkpt lat="42.5453625" lon="13.3270624"><ele>1520.0</ele><time>2026-04-19T10:58:29.796Z</time></trkpt><trkpt lat="42.5452837" lon="13.3271647"><ele>1518.0</ele><time>2026-04-19T10:58:30.795Z</time></trkpt><trkpt lat="42.5452225" lon="13.3272939"><ele>1516.0</ele><time>2026-04-19T10:58:31.795Z</time></trkpt><trkpt lat="42.545188" lon="13.327445"><ele>1514.0</ele><time>2026-04-19T10:58:32.795Z</time></trkpt><trkpt lat="42.545175" lon="13.3276104"><ele>1512.0</ele><time>2026-04-19T10:58:33.795Z</time></trkpt><trkpt lat="42.5451779" lon="13.3277865"><ele>1512.0</ele><time>2026-04-19T10:58:34.796Z</time></trkpt><trkpt lat="42.5451652" lon="13.3279301"><ele>1512.0</ele><time>2026-04-19T10:58:35.796Z</time></trkpt><trkpt lat="42.54513" lon="13.3280487"><ele>1512.0</ele><time>2026-04-19T10:58:36.795Z</time></trkpt><trkpt lat="42.5450671" lon="13.3281325"><ele>1512.0</ele><time>2026-04-19T10:58:37.796Z</time></trkpt><trkpt lat="42.54498" lon="13.3281748"><ele>1512.0</ele><time>2026-04-19T10:58:38.795Z</time></trkpt><trkpt lat="42.5448678" lon="13.3282178"><ele>1511.25</ele><time>2026-04-19T10:58:39.795Z</time></trkpt><trkpt lat="42.5447346" lon="13.3282486"><ele>1510.5</ele><time>2026-04-19T10:58:40.795Z</time></trkpt><trkpt lat="42.5445977" lon="13.3282853"><ele>1509.75</ele><time>2026-04-19T10:58:41.796Z</time></trkpt><trkpt lat="42.5444776" lon="13.3283414"><ele>1509.0</ele><time>2026-04-19T10:58:42.795Z</time></trkpt><trkpt lat="42.5443624" lon="13.3284385"><ele>1509.75</ele><time>2026-04-19T10:58:43.796Z</time></trkpt><trkpt lat="42.5442644" lon="13.3285526"><ele>1510.5</ele><time>2026-04-19T10:58:44.796Z</time></trkpt><trkpt lat="42.5441909" lon="13.3286889"><ele>1511.25</ele><time>2026-04-19T10:58:45.795Z</time></trkpt><trkpt lat="42.5441412" lon="13.3288768"><ele>1512.0</ele><time>2026-04-19T10:58:46.796Z</time></trkpt><trkpt lat="42.5441054" lon="13.3290588"><ele>1512.0</ele><time>2026-04-19T10:58:47.795Z</time></trkpt><trkpt lat="42.5440827" lon="13.3292503"><ele>1512.0</ele><time>2026-04-19T10:58:48.796Z</time></trkpt><trkpt lat="42.5440532" lon="13.329432"><ele>1512.0</ele><time>2026-04-19T10:58:49.796Z</time></trkpt><trkpt lat="42.5440138" lon="13.3296103"><ele>1512.0</ele><time>2026-04-19T10:58:50.796Z</time></trkpt><trkpt lat="42.5439518" lon="13.3297842"><ele>1513.3333333333333</ele><time>2026-04-19T10:58:51.795Z</time></trkpt><trkpt lat="42.5438638" lon="13.3299589"><ele>1514.6666666666665</ele><time>2026-04-19T10:58:52.796Z</time></trkpt><trkpt lat="42.5437547" lon="13.3301493"><ele>1516.0</ele><time>2026-04-19T10:58:53.795Z</time></trkpt><trkpt lat="42.5436366" lon="13.3303466"><ele>1514.3333333333333</ele><time>2026-04-19T10:58:54.795Z</time></trkpt><trkpt lat="42.5435053" lon="13.3305768"><ele>1512.6666666666667</ele><time>2026-04-19T10:58:55.796Z</time></trkpt><trkpt lat="42.5433736" lon="13.3308174"><ele>1511.0</ele><time>2026-04-19T10:58:56.795Z</time></trkpt><trkpt lat="42.5432439" lon="13.33105"><ele>1511.0</ele><time>2026-04-19T10:58:57.795Z</time></trkpt><trkpt lat="42.5431078" lon="13.3312838"><ele>1511.0</ele><time>2026-04-19T10:58:58.795Z</time></trkpt><trkpt lat="42.5429819" lon="13.3315038"><ele>1511.0</ele><time>2026-04-19T10:58:59.795Z</time></trkpt><trkpt lat="42.542867" lon="13.331712"><ele>1510.6666666666667</ele><time>2026-04-19T10:59:00.795Z</time></trkpt><trkpt lat="42.5427563" lon="13.3319176"><ele>1510.3333333333333</ele><time>2026-04-19T10:59:01.795Z</time></trkpt><trkpt lat="42.5426518" lon="13.3320965"><ele>1510.0</ele><time>2026-04-19T10:59:02.795Z</time></trkpt><trkpt lat="42.542546" lon="13.3322479"><ele>1511.0</ele><time>2026-04-19T10:59:03.795Z</time></trkpt><trkpt lat="42.5424331" lon="13.3323831"><ele>1512.0</ele><time>2026-04-19T10:59:04.795Z</time></trkpt><trkpt lat="42.5423051" lon="13.3324952"><ele>1513.0</ele><time>2026-04-19T10:59:05.796Z</time></trkpt><trkpt lat="42.5421548" lon="13.3326054"><ele>1509.6666666666665</ele><time>2026-04-19T10:59:06.795Z</time></trkpt><trkpt lat="42.5419783" lon="13.3327154"><ele>1506.3333333333333</ele><time>2026-04-19T10:59:07.795Z</time></trkpt><trkpt lat="42.5417964" lon="13.3328084"><ele>1503.0</ele><time>2026-04-19T10:59:08.795Z</time></trkpt><trkpt lat="42.5416241" lon="13.3329005"><ele>1503.0</ele><time>2026-04-19T10:59:09.796Z</time></trkpt><trkpt lat="42.5414662" lon="13.3329837"><ele>1503.0</ele><time>2026-04-19T10:59:10.795Z</time></trkpt><trkpt lat="42.5413192" lon="13.333055"><ele>1503.0</ele><time>2026-04-19T10:59:11.796Z</time></trkpt><trkpt lat="42.5411796" lon="13.3331248"><ele>1502.75</ele><time>2026-04-19T10:59:12.795Z</time></trkpt><trkpt lat="42.5410553" lon="13.3332066"><ele>1502.5</ele><time>2026-04-19T10:59:13.796Z</time></trkpt><trkpt lat="42.5409516" lon="13.3333028"><ele>1502.25</ele><time>2026-04-19T10:59:14.796Z</time></trkpt><trkpt lat="42.5408677" lon="13.3334191"><ele>1502.0</ele><time>2026-04-19T10:59:15.796Z</time></trkpt><trkpt lat="42.5408066" lon="13.3335593"><ele>1502.0</ele><time>2026-04-19T10:59:16.795Z</time></trkpt><trkpt lat="42.5407506" lon="13.3337147"><ele>1502.0</ele><time>2026-04-19T10:59:17.795Z</time></trkpt><trkpt lat="42.5406839" lon="13.333873"><ele>1502.0</ele><time>2026-04-19T10:59:18.796Z</time></trkpt><trkpt lat="42.5406042" lon="13.3340245"><ele>1502.0</ele><time>2026-04-19T10:59:19.805Z</time></trkpt><trkpt lat="42.5405143" lon="13.3341684"><ele>1504.25</ele><time>2026-04-19T10:59:20.805Z</time></trkpt><trkpt lat="42.5404156" lon="13.3343041"><ele>1506.5</ele><time>2026-04-19T10:59:21.805Z</time></trkpt><trkpt lat="42.5403091" lon="13.3344205"><ele>1508.75</ele><time>2026-04-19T10:59:22.804Z</time></trkpt><trkpt lat="42.5401914" lon="13.3345258"><ele>1511.0</ele><time>2026-04-19T10:59:23.804Z</time></trkpt><trkpt lat="42.5400599" lon="13.3346092"><ele>1511.6666666666667</ele><time>2026-04-19T10:59:24.804Z</time></trkpt><trkpt lat="42.5399203" lon="13.334684"><ele>1512.3333333333333</ele><time>2026-04-19T10:59:25.804Z</time></trkpt><trkpt lat="42.5397736" lon="13.3347363"><ele>1513.0</ele><time>2026-04-19T10:59:26.804Z</time></trkpt><trkpt lat="42.5396243" lon="13.3347863"><ele>1510.3333333333333</ele><time>2026-04-19T10:59:27.804Z</time></trkpt><trkpt lat="42.5394741" lon="13.3348361"><ele>1507.6666666666667</ele><time>2026-04-19T10:59:28.805Z</time></trkpt><trkpt lat="42.5393226" lon="13.3348773"><ele>1505.0</ele><time>2026-04-19T10:59:29.804Z</time></trkpt><trkpt lat="42.5391728" lon="13.3349056"><ele>1505.0</ele><time>2026-04-19T10:59:30.805Z</time></trkpt><trkpt lat="42.5390245" lon="13.3349216"><ele>1505.0</ele><time>2026-04-19T10:59:31.804Z</time></trkpt><trkpt lat="42.5388828" lon="13.3349323"><ele>1505.0</ele><time>2026-04-19T10:59:32.805Z</time></trkpt><trkpt lat="42.5387496" lon="13.3349454"><ele>1505.0</ele><time>2026-04-19T10:59:33.805Z</time></trkpt><trkpt lat="42.53863" lon="13.3349698"><ele>1503.25</ele><time>2026-04-19T10:59:34.805Z</time></trkpt><trkpt lat="42.5385173" lon="13.3350127"><ele>1501.5</ele><time>2026-04-19T10:59:35.804Z</time></trkpt><trkpt lat="42.5384064" lon="13.3350713"><ele>1499.75</ele><time>2026-04-19T10:59:36.805Z</time></trkpt><trkpt lat="42.5383066" lon="13.3351425"><ele>1498.0</ele><time>2026-04-19T10:59:37.805Z</time></trkpt><trkpt lat="42.5382245" lon="13.3352377"><ele>1498.0</ele><time>2026-04-19T10:59:38.804Z</time></trkpt><trkpt lat="42.5381679" lon="13.3353621"><ele>1498.0</ele><time>2026-04-19T10:59:39.804Z</time></trkpt><trkpt lat="42.5381275" lon="13.3355024"><ele>1498.0</ele><time>2026-04-19T10:59:40.804Z</time></trkpt><trkpt lat="42.5381143" lon="13.3356477"><ele>1498.0</ele><time>2026-04-19T10:59:41.804Z</time></trkpt><trkpt lat="42.5381294" lon="13.3357859"><ele>1498.0</ele><time>2026-04-19T10:59:42.805Z</time></trkpt><trkpt lat="42.5381749" lon="13.3358992"><ele>1499.25</ele><time>2026-04-19T10:59:43.804Z</time></trkpt><trkpt lat="42.5382466" lon="13.335985"><ele>1500.5</ele><time>2026-04-19T10:59:44.804Z</time></trkpt><trkpt lat="42.5383432" lon="13.3360524"><ele>1501.75</ele><time>2026-04-19T10:59:45.805Z</time></trkpt><trkpt lat="42.5384598" lon="13.3361151"><ele>1503.0</ele><time>2026-04-19T10:59:46.805Z</time></trkpt><trkpt lat="42.5385819" lon="13.3361845"><ele>1503.0</ele><time>2026-04-19T10:59:47.805Z</time></trkpt><trkpt lat="42.5386957" lon="13.3362751"><ele>1503.0</ele><time>2026-04-19T10:59:48.804Z</time></trkpt><trkpt lat="42.5388051" lon="13.3363894"><ele>1503.0</ele><time>2026-04-19T10:59:49.804Z</time></trkpt><trkpt lat="42.5389074" lon="13.336518"><ele>1503.0</ele><time>2026-04-19T10:59:50.804Z</time></trkpt><trkpt lat="42.5390015" lon="13.3366522"><ele>1503.0</ele><time>2026-04-19T10:59:51.804Z</time></trkpt><trkpt lat="42.5390846" lon="13.3367879"><ele>1503.0</ele><time>2026-04-19T10:59:52.804Z</time></trkpt><trkpt lat="42.5391669" lon="13.336914"><ele>1503.0</ele><time>2026-04-19T10:59:53.804Z</time></trkpt><trkpt lat="42.539251" lon="13.3370118"><ele>1503.0</ele><time>2026-04-19T10:59:54.805Z</time></trkpt><trkpt lat="42.5393324" lon="13.337095"><ele>1503.0</ele><time>2026-04-19T10:59:55.805Z</time></trkpt><trkpt lat="42.5393936" lon="13.3371643"><ele>1503.0</ele><time>2026-04-19T10:59:56.804Z</time></trkpt><trkpt lat="42.5394472" lon="13.3372256"><ele>1503.0</ele><time>2026-04-19T10:59:57.804Z</time></trkpt><trkpt lat="42.5394821" lon="13.3372976"><ele>1503.0</ele><time>2026-04-19T10:59:58.805Z</time></trkpt><trkpt lat="42.5394622" lon="13.3374307"><ele>1503.0</ele><time>2026-04-19T11:00:00.805Z</time></trkpt><trkpt lat="42.5394092" lon="13.3375038"><ele>1503.0</ele><time>2026-04-19T11:00:01.804Z</time></trkpt><trkpt lat="42.5393407" lon="13.3375774"><ele>1504.2</ele><time>2026-04-19T11:00:02.804Z</time></trkpt><trkpt lat="42.5392528" lon="13.3376706"><ele>1505.4</ele><time>2026-04-19T11:00:03.804Z</time></trkpt><trkpt lat="42.539176" lon="13.3377794"><ele>1506.6000000000001</ele><time>2026-04-19T11:00:04.804Z</time></trkpt><trkpt lat="42.5391021" lon="13.337884"><ele>1507.8000000000002</ele><time>2026-04-19T11:00:05.804Z</time></trkpt><trkpt lat="42.5390232" lon="13.3379957"><ele>1509.0</ele><time>2026-04-19T11:00:06.804Z</time></trkpt><trkpt lat="42.5389377" lon="13.3380995"><ele>1509.0</ele><time>2026-04-19T11:00:07.805Z</time></trkpt><trkpt lat="42.5388421" lon="13.3381945"><ele>1509.0</ele><time>2026-04-19T11:00:08.805Z</time></trkpt><trkpt lat="42.5387346" lon="13.3382809"><ele>1509.0</ele><time>2026-04-19T11:00:09.804Z</time></trkpt><trkpt lat="42.5386274" lon="13.3383574"><ele>1509.0</ele><time>2026-04-19T11:00:10.805Z</time></trkpt><trkpt lat="42.5385304" lon="13.3384565"><ele>1506.5</ele><time>2026-04-19T11:00:11.804Z</time></trkpt><trkpt lat="42.5384365" lon="13.3385702"><ele>1504.0</ele><time>2026-04-19T11:00:12.804Z</time></trkpt><trkpt lat="42.53835" lon="13.3387138"><ele>1501.5</ele><time>2026-04-19T11:00:13.805Z</time></trkpt><trkpt lat="42.538277" lon="13.3388753"><ele>1499.0</ele><time>2026-04-19T11:00:14.804Z</time></trkpt><trkpt lat="42.5382041" lon="13.3390649"><ele>1499.0</ele><time>2026-04-19T11:00:15.805Z</time></trkpt><trkpt lat="42.5381437" lon="13.3392651"><ele>1499.0</ele><time>2026-04-19T11:00:16.805Z</time></trkpt><trkpt lat="42.5380873" lon="13.3394665"><ele>1499.0</ele><time>2026-04-19T11:00:17.804Z</time></trkpt><trkpt lat="42.538031" lon="13.3396525"><ele>1500.0</ele><time>2026-04-19T11:00:18.805Z</time></trkpt><trkpt lat="42.5379834" lon="13.3398381"><ele>1501.0</ele><time>2026-04-19T11:00:19.804Z</time></trkpt><trkpt lat="42.5379441" lon="13.3400483"><ele>1502.0</ele><time>2026-04-19T11:00:20.804Z</time></trkpt><trkpt lat="42.5379114" lon="13.3402668"><ele>1494.0</ele><time>2026-04-19T11:00:21.804Z</time></trkpt><trkpt lat="42.5378798" lon="13.3404598"><ele>1486.0</ele><time>2026-04-19T11:00:22.804Z</time></trkpt><trkpt lat="42.5378489" lon="13.340636"><ele>1478.0</ele><time>2026-04-19T11:00:23.805Z</time></trkpt><trkpt lat="42.5378277" lon="13.3407939"><ele>1470.0</ele><time>2026-04-19T11:00:24.805Z</time></trkpt><trkpt lat="42.5378139" lon="13.3409482"><ele>1469.4</ele><time>2026-04-19T11:00:25.805Z</time></trkpt><trkpt lat="42.5378197" lon="13.3411011"><ele>1468.8</ele><time>2026-04-19T11:00:26.804Z</time></trkpt><trkpt lat="42.5378415" lon="13.3412541"><ele>1468.1999999999998</ele><time>2026-04-19T11:00:27.805Z</time></trkpt><trkpt lat="42.5378737" lon="13.3414018"><ele>1467.6</ele><time>2026-04-19T11:00:28.805Z</time></trkpt><trkpt lat="42.5379011" lon="13.3415297"><ele>1467.0</ele><time>2026-04-19T11:00:29.805Z</time></trkpt><trkpt lat="42.5379115" lon="13.3416452"><ele>1468.6</ele><time>2026-04-19T11:00:30.804Z</time></trkpt><trkpt lat="42.5378942" lon="13.3417455"><ele>1470.1999999999998</ele><time>2026-04-19T11:00:31.804Z</time></trkpt><trkpt lat="42.5378456" lon="13.3418271"><ele>1471.8</ele><time>2026-04-19T11:00:32.804Z</time></trkpt><trkpt lat="42.53777" lon="13.3418885"><ele>1473.4</ele><time>2026-04-19T11:00:33.805Z</time></trkpt><trkpt lat="42.5376692" lon="13.3419265"><ele>1475.0</ele><time>2026-04-19T11:00:34.804Z</time></trkpt><trkpt lat="42.5375439" lon="13.3419382"><ele>1475.0</ele><time>2026-04-19T11:00:35.804Z</time></trkpt><trkpt lat="42.5374156" lon="13.3419178"><ele>1475.0</ele><time>2026-04-19T11:00:36.805Z</time></trkpt><trkpt lat="42.5372901" lon="13.3419069"><ele>1475.0</ele><time>2026-04-19T11:00:37.804Z</time></trkpt><trkpt lat="42.5371669" lon="13.3419385"><ele>1475.0</ele><time>2026-04-19T11:00:38.804Z</time></trkpt><trkpt lat="42.5370414" lon="13.3420083"><ele>1478.5</ele><time>2026-04-19T11:00:39.805Z</time></trkpt><trkpt lat="42.5369221" lon="13.3420939"><ele>1482.0</ele><time>2026-04-19T11:00:40.804Z</time></trkpt><trkpt lat="42.5367895" lon="13.3421815"><ele>1485.5</ele><time>2026-04-19T11:00:41.805Z</time></trkpt><trkpt lat="42.5366512" lon="13.3422475"><ele>1489.0</ele><time>2026-04-19T11:00:42.805Z</time></trkpt><trkpt lat="42.5365029" lon="13.3422811"><ele>1489.0</ele><time>2026-04-19T11:00:43.804Z</time></trkpt><trkpt lat="42.5363526" lon="13.3423009"><ele>1489.0</ele><time>2026-04-19T11:00:44.804Z</time></trkpt><trkpt lat="42.5361851" lon="13.3423185"><ele>1489.0</ele><time>2026-04-19T11:00:45.804Z</time></trkpt><trkpt lat="42.5360144" lon="13.3423312"><ele>1480.0</ele><time>2026-04-19T11:00:46.804Z</time></trkpt><trkpt lat="42.5358509" lon="13.3423259"><ele>1471.0</ele><time>2026-04-19T11:00:47.805Z</time></trkpt><trkpt lat="42.5356994" lon="13.3423023"><ele>1462.0</ele><time>2026-04-19T11:00:48.804Z</time></trkpt><trkpt lat="42.5355479" lon="13.3422812"><ele>1462.0</ele><time>2026-04-19T11:00:49.804Z</time></trkpt><trkpt lat="42.5354053" lon="13.3422657"><ele>1462.0</ele><time>2026-04-19T11:00:50.804Z</time></trkpt><trkpt lat="42.535265" lon="13.3422615"><ele>1462.0</ele><time>2026-04-19T11:00:51.804Z</time></trkpt><trkpt lat="42.5351234" lon="13.3422607"><ele>1462.0</ele><time>2026-04-19T11:00:52.804Z</time></trkpt><trkpt lat="42.5349837" lon="13.342268"><ele>1460.25</ele><time>2026-04-19T11:00:53.804Z</time></trkpt><trkpt lat="42.5348408" lon="13.3422868"><ele>1458.5</ele><time>2026-04-19T11:00:54.804Z</time></trkpt><trkpt lat="42.534708" lon="13.342306"><ele>1456.75</ele><time>2026-04-19T11:00:55.804Z</time></trkpt><trkpt lat="42.5345755" lon="13.3423395"><ele>1455.0</ele><time>2026-04-19T11:00:56.804Z</time></trkpt><trkpt lat="42.5344481" lon="13.3423772"><ele>1453.4</ele><time>2026-04-19T11:00:57.804Z</time></trkpt><trkpt lat="42.534337" lon="13.3424191"><ele>1451.8</ele><time>2026-04-19T11:00:58.805Z</time></trkpt><trkpt lat="42.534241" lon="13.3424783"><ele>1450.1999999999998</ele><time>2026-04-19T11:00:59.804Z</time></trkpt><trkpt lat="42.5341649" lon="13.3425545"><ele>1448.6</ele><time>2026-04-19T11:01:00.804Z</time></trkpt><trkpt lat="42.534116" lon="13.3426457"><ele>1447.0</ele><time>2026-04-19T11:01:01.804Z</time></trkpt><trkpt lat="42.5340899" lon="13.3427534"><ele>1447.0</ele><time>2026-04-19T11:01:02.804Z</time></trkpt><trkpt lat="42.5340925" lon="13.3428766"><ele>1447.0</ele><time>2026-04-19T11:01:03.804Z</time></trkpt><trkpt lat="42.5341248" lon="13.3430051"><ele>1447.0</ele><time>2026-04-19T11:01:04.805Z</time></trkpt><trkpt lat="42.5341876" lon="13.3431191"><ele>1447.0</ele><time>2026-04-19T11:01:05.805Z</time></trkpt><trkpt lat="42.5342749" lon="13.3432123"><ele>1447.0</ele><time>2026-04-19T11:01:06.804Z</time></trkpt><trkpt lat="42.534382" lon="13.3432788"><ele>1447.75</ele><time>2026-04-19T11:01:07.804Z</time></trkpt><trkpt lat="42.5345002" lon="13.3433196"><ele>1448.5</ele><time>2026-04-19T11:01:08.805Z</time></trkpt><trkpt lat="42.5346209" lon="13.3433546"><ele>1449.25</ele><time>2026-04-19T11:01:09.804Z</time></trkpt><trkpt lat="42.5347397" lon="13.3433904"><ele>1450.0</ele><time>2026-04-19T11:01:10.804Z</time></trkpt><trkpt lat="42.5348611" lon="13.3434508"><ele>1450.0</ele><time>2026-04-19T11:01:11.805Z</time></trkpt><trkpt lat="42.5349583" lon="13.3435127"><ele>1450.0</ele><time>2026-04-19T11:01:12.804Z</time></trkpt><trkpt lat="42.5350296" lon="13.3435569"><ele>1450.0</ele><time>2026-04-19T11:01:13.804Z</time></trkpt><trkpt lat="42.5350957" lon="13.3436523"><ele>1450.0</ele><time>2026-04-19T11:01:15.805Z</time></trkpt><trkpt lat="42.5350673" lon="13.3437907"><ele>1450.0</ele><time>2026-04-19T11:01:17.804Z</time></trkpt><trkpt lat="42.5349998" lon="13.3438689"><ele>1451.5</ele><time>2026-04-19T11:01:18.805Z</time></trkpt><trkpt lat="42.534934" lon="13.3439375"><ele>1453.0</ele><time>2026-04-19T11:01:19.804Z</time></trkpt><trkpt lat="42.5348457" lon="13.3440179"><ele>1454.5</ele><time>2026-04-19T11:01:20.804Z</time></trkpt><trkpt lat="42.5347405" lon="13.3441067"><ele>1456.0</ele><time>2026-04-19T11:01:21.804Z</time></trkpt><trkpt lat="42.5346195" lon="13.3442122"><ele>1448.0</ele><time>2026-04-19T11:01:22.804Z</time></trkpt><trkpt lat="42.5344806" lon="13.34432"><ele>1440.0</ele><time>2026-04-19T11:01:23.804Z</time></trkpt><trkpt lat="42.5343361" lon="13.3444346"><ele>1432.0</ele><time>2026-04-19T11:01:24.805Z</time></trkpt><trkpt lat="42.5341906" lon="13.3445431"><ele>1432.0</ele><time>2026-04-19T11:01:25.804Z</time></trkpt><trkpt lat="42.5340463" lon="13.3446513"><ele>1432.0</ele><time>2026-04-19T11:01:26.804Z</time></trkpt><trkpt lat="42.5338976" lon="13.3447533"><ele>1432.0</ele><time>2026-04-19T11:01:27.804Z</time></trkpt><trkpt lat="42.5337505" lon="13.34485"><ele>1429.0</ele><time>2026-04-19T11:01:28.804Z</time></trkpt><trkpt lat="42.5336014" lon="13.3449404"><ele>1426.0</ele><time>2026-04-19T11:01:29.804Z</time></trkpt><trkpt lat="42.5334563" lon="13.3450326"><ele>1423.0</ele><time>2026-04-19T11:01:30.804Z</time></trkpt><trkpt lat="42.5333123" lon="13.3451226"><ele>1423.0</ele><time>2026-04-19T11:01:31.804Z</time></trkpt><trkpt lat="42.5331814" lon="13.3452061"><ele>1423.0</ele><time>2026-04-19T11:01:32.805Z</time></trkpt><trkpt lat="42.5330619" lon="13.3452901"><ele>1423.0</ele><time>2026-04-19T11:01:33.805Z</time></trkpt><trkpt lat="42.5329585" lon="13.3453893"><ele>1423.0</ele><time>2026-04-19T11:01:34.804Z</time></trkpt><trkpt lat="42.5328733" lon="13.3455064"><ele>1421.2</ele><time>2026-04-19T11:01:35.804Z</time></trkpt><trkpt lat="42.5328076" lon="13.3456351"><ele>1419.4</ele><time>2026-04-19T11:01:36.804Z</time></trkpt><trkpt lat="42.5327679" lon="13.3457676"><ele>1417.6000000000001</ele><time>2026-04-19T11:01:37.804Z</time></trkpt><trkpt lat="42.5327515" lon="13.3458992"><ele>1415.8000000000002</ele><time>2026-04-19T11:01:38.804Z</time></trkpt><trkpt lat="42.5327635" lon="13.3460184"><ele>1414.0</ele><time>2026-04-19T11:01:39.804Z</time></trkpt><trkpt lat="42.5327849" lon="13.3461266"><ele>1414.0</ele><time>2026-04-19T11:01:40.805Z</time></trkpt><trkpt lat="42.5328418" lon="13.3462144"><ele>1414.0</ele><time>2026-04-19T11:01:41.805Z</time></trkpt><trkpt lat="42.532923" lon="13.3462835"><ele>1414.0</ele><time>2026-04-19T11:01:42.804Z</time></trkpt><trkpt lat="42.5330195" lon="13.3463441"><ele>1414.0</ele><time>2026-04-19T11:01:43.804Z</time></trkpt><trkpt lat="42.5330974" lon="13.3464127"><ele>1414.0</ele><time>2026-04-19T11:01:44.804Z</time></trkpt><trkpt lat="42.5331676" lon="13.3465098"><ele>1416.6</ele><time>2026-04-19T11:01:45.805Z</time></trkpt><trkpt lat="42.5332017" lon="13.3466162"><ele>1419.2</ele><time>2026-04-19T11:01:46.804Z</time></trkpt><trkpt lat="42.5332108" lon="13.3467407"><ele>1421.8</ele><time>2026-04-19T11:01:47.804Z</time></trkpt><trkpt lat="42.5331944" lon="13.3468633"><ele>1424.3999999999999</ele><time>2026-04-19T11:01:48.804Z</time></trkpt><trkpt lat="42.5331694" lon="13.3469858"><ele>1427.0</ele><time>2026-04-19T11:01:49.804Z</time></trkpt><trkpt lat="42.5331412" lon="13.3471033"><ele>1427.1999999999998</ele><time>2026-04-19T11:01:50.805Z</time></trkpt><trkpt lat="42.5330953" lon="13.3472224"><ele>1427.4</ele><time>2026-04-19T11:01:51.804Z</time></trkpt><trkpt lat="42.5330355" lon="13.3473352"><ele>1427.6</ele><time>2026-04-19T11:01:52.805Z</time></trkpt><trkpt lat="42.5329704" lon="13.3474401"><ele>1427.8000000000002</ele><time>2026-04-19T11:01:53.805Z</time></trkpt><trkpt lat="42.5328925" lon="13.3475341"><ele>1428.0</ele><time>2026-04-19T11:01:54.804Z</time></trkpt><trkpt lat="42.5327967" lon="13.3476216"><ele>1421.0</ele><time>2026-04-19T11:01:55.804Z</time></trkpt><trkpt lat="42.5326897" lon="13.3477041"><ele>1414.0</ele><time>2026-04-19T11:01:56.804Z</time></trkpt><trkpt lat="42.5325842" lon="13.3477849"><ele>1407.0</ele><time>2026-04-19T11:01:57.804Z</time></trkpt><trkpt lat="42.5324783" lon="13.347878"><ele>1400.0</ele><time>2026-04-19T11:01:58.804Z</time></trkpt><trkpt lat="42.5323797" lon="13.3479798"><ele>1403.25</ele><time>2026-04-19T11:01:59.804Z</time></trkpt><trkpt lat="42.5322816" lon="13.3480927"><ele>1406.5</ele><time>2026-04-19T11:02:00.804Z</time></trkpt><trkpt lat="42.5322027" lon="13.3482246"><ele>1409.75</ele><time>2026-04-19T11:02:01.804Z</time></trkpt><trkpt lat="42.5321393" lon="13.3483556"><ele>1413.0</ele><time>2026-04-19T11:02:02.805Z</time></trkpt><trkpt lat="42.5320733" lon="13.3484837"><ele>1409.2</ele><time>2026-04-19T11:02:03.805Z</time></trkpt><trkpt lat="42.5320164" lon="13.3486144"><ele>1405.4</ele><time>2026-04-19T11:02:04.804Z</time></trkpt><trkpt lat="42.5319712" lon="13.3487417"><ele>1401.6000000000001</ele><time>2026-04-19T11:02:05.804Z</time></trkpt><trkpt lat="42.5319393" lon="13.3488685"><ele>1397.8000000000002</ele><time>2026-04-19T11:02:06.804Z</time></trkpt><trkpt lat="42.5319196" lon="13.3489985"><ele>1394.0</ele><time>2026-04-19T11:02:07.805Z</time></trkpt><trkpt lat="42.5319046" lon="13.349113"><ele>1394.0</ele><time>2026-04-19T11:02:08.804Z</time></trkpt><trkpt lat="42.5318876" lon="13.3492132"><ele>1394.0</ele><time>2026-04-19T11:02:09.805Z</time></trkpt><trkpt lat="42.5318579" lon="13.3493001"><ele>1394.0</ele><time>2026-04-19T11:02:10.804Z</time></trkpt><trkpt lat="42.5318218" lon="13.349372"><ele>1394.0</ele><time>2026-04-19T11:02:11.805Z</time></trkpt><trkpt lat="42.5317402" lon="13.3494288"><ele>1394.0</ele><time>2026-04-19T11:02:13.805Z</time></trkpt><trkpt lat="42.5316537" lon="13.3493715"><ele>1394.0</ele><time>2026-04-19T11:02:15.805Z</time></trkpt><trkpt lat="42.5316012" lon="13.3492606"><ele>1394.0</ele><time>2026-04-19T11:02:17.804Z</time></trkpt><trkpt lat="42.5315964" lon="13.3491599"><ele>1394.0</ele><time>2026-04-19T11:02:19.805Z</time></trkpt><trkpt lat="42.5315997" lon="13.3489998"><ele>1394.0</ele><time>2026-04-19T11:02:21.804Z</time></trkpt><trkpt lat="42.5316045" lon="13.3489036"><ele>1394.0</ele><time>2026-04-19T11:02:22.804Z</time></trkpt><trkpt lat="42.5316191" lon="13.348801"><ele>1394.0</ele><time>2026-04-19T11:02:23.804Z</time></trkpt><trkpt lat="42.5316372" lon="13.3486925"><ele>1394.0</ele><time>2026-04-19T11:02:24.804Z</time></trkpt><trkpt lat="42.5316626" lon="13.3485787"><ele>1393.2</ele><time>2026-04-19T11:02:25.804Z</time></trkpt><trkpt lat="42.5316935" lon="13.3484571"><ele>1392.4</ele><time>2026-04-19T11:02:26.804Z</time></trkpt><trkpt lat="42.5317386" lon="13.348325"><ele>1391.6</ele><time>2026-04-19T11:02:27.804Z</time></trkpt><trkpt lat="42.5317997" lon="13.3481945"><ele>1390.8</ele><time>2026-04-19T11:02:28.804Z</time></trkpt><trkpt lat="42.5318608" lon="13.3480727"><ele>1390.0</ele><time>2026-04-19T11:02:29.804Z</time></trkpt><trkpt lat="42.5319222" lon="13.3479568"><ele>1388.5</ele><time>2026-04-19T11:02:30.805Z</time></trkpt><trkpt lat="42.5319798" lon="13.3478469"><ele>1387.0</ele><time>2026-04-19T11:02:31.804Z</time></trkpt><trkpt lat="42.5320409" lon="13.3477438"><ele>1385.5</ele><time>2026-04-19T11:02:32.804Z</time></trkpt><trkpt lat="42.5320915" lon="13.3476336"><ele>1384.0</ele><time>2026-04-19T11:02:33.804Z</time></trkpt><trkpt lat="42.5321412" lon="13.3475433"><ele>1382.5</ele><time>2026-04-19T11:02:34.805Z</time></trkpt><trkpt lat="42.5321772" lon="13.3474595"><ele>1381.0</ele><time>2026-04-19T11:02:35.804Z</time></trkpt><trkpt lat="42.5321978" lon="13.3473549"><ele>1383.1666666666665</ele><time>2026-04-19T11:02:36.804Z</time></trkpt><trkpt lat="42.5321965" lon="13.3472688"><ele>1385.3333333333333</ele><time>2026-04-19T11:02:37.804Z</time></trkpt><trkpt lat="42.5321676" lon="13.3471858"><ele>1387.5</ele><time>2026-04-19T11:02:38.805Z</time></trkpt><trkpt lat="42.5321154" lon="13.3471125"><ele>1389.6666666666667</ele><time>2026-04-19T11:02:39.804Z</time></trkpt><trkpt lat="42.5320588" lon="13.3470435"><ele>1391.8333333333335</ele><time>2026-04-19T11:02:40.804Z</time></trkpt><trkpt lat="42.5319785" lon="13.3469803"><ele>1394.0</ele><time>2026-04-19T11:02:41.804Z</time></trkpt><trkpt lat="42.5319077" lon="13.346939"><ele>1394.0</ele><time>2026-04-19T11:02:42.805Z</time></trkpt><trkpt lat="42.5318274" lon="13.3469029"><ele>1394.0</ele><time>2026-04-19T11:02:43.804Z</time></trkpt><trkpt lat="42.5317492" lon="13.3468774"><ele>1394.0</ele><time>2026-04-19T11:02:44.805Z</time></trkpt><trkpt lat="42.5316733" lon="13.3468542"><ele>1394.0</ele><time>2026-04-19T11:02:45.804Z</time></trkpt><trkpt lat="42.5315921" lon="13.3468425"><ele>1394.0</ele><time>2026-04-19T11:02:46.804Z</time></trkpt><trkpt lat="42.5315071" lon="13.3468498"><ele>1394.0</ele><time>2026-04-19T11:02:47.804Z</time></trkpt><trkpt lat="42.5314198" lon="13.3468717"><ele>1394.0</ele><time>2026-04-19T11:02:48.805Z</time></trkpt><trkpt lat="42.5313291" lon="13.3469054"><ele>1394.0</ele><time>2026-04-19T11:02:49.805Z</time></trkpt><trkpt lat="42.531238" lon="13.3469543"><ele>1394.0</ele><time>2026-04-19T11:02:50.804Z</time></trkpt><trkpt lat="42.5311522" lon="13.347011"><ele>1394.0</ele><time>2026-04-19T11:02:51.804Z</time></trkpt><trkpt lat="42.5310781" lon="13.3470862"><ele>1394.0</ele><time>2026-04-19T11:02:52.804Z</time></trkpt><trkpt lat="42.5310064" lon="13.347163"><ele>1391.2</ele><time>2026-04-19T11:02:53.804Z</time></trkpt><trkpt lat="42.5309202" lon="13.3472227"><ele>1388.4</ele><time>2026-04-19T11:02:54.804Z</time></trkpt><trkpt lat="42.5308309" lon="13.3472792"><ele>1385.6</ele><time>2026-04-19T11:02:55.805Z</time></trkpt><trkpt lat="42.5307245" lon="13.3473234"><ele>1382.8</ele><time>2026-04-19T11:02:56.804Z</time></trkpt><trkpt lat="42.5305987" lon="13.347376"><ele>1380.0</ele><time>2026-04-19T11:02:57.805Z</time></trkpt><trkpt lat="42.5304588" lon="13.3474457"><ele>1383.3333333333333</ele><time>2026-04-19T11:02:58.804Z</time></trkpt><trkpt lat="42.5303123" lon="13.3475004"><ele>1386.6666666666665</ele><time>2026-04-19T11:02:59.804Z</time></trkpt><trkpt lat="42.5301635" lon="13.3475503"><ele>1390.0</ele><time>2026-04-19T11:03:00.804Z</time></trkpt><trkpt lat="42.5300122" lon="13.3475885"><ele>1390.0</ele><time>2026-04-19T11:03:01.805Z</time></trkpt><trkpt lat="42.5298686" lon="13.3476526"><ele>1390.0</ele><time>2026-04-19T11:03:02.804Z</time></trkpt><trkpt lat="42.5297374" lon="13.3477397"><ele>1390.0</ele><time>2026-04-19T11:03:03.805Z</time></trkpt><trkpt lat="42.5296028" lon="13.3478337"><ele>1390.0</ele><time>2026-04-19T11:03:04.804Z</time></trkpt><trkpt lat="42.5295" lon="13.3479743"><ele>1387.5</ele><time>2026-04-19T11:03:05.804Z</time></trkpt><trkpt lat="42.5294378" lon="13.3481743"><ele>1385.0</ele><time>2026-04-19T11:03:06.804Z</time></trkpt><trkpt lat="42.5293543" lon="13.3483174"><ele>1382.5</ele><time>2026-04-19T11:03:07.804Z</time></trkpt><trkpt lat="42.5292949" lon="13.3484896"><ele>1380.0</ele><time>2026-04-19T11:03:08.804Z</time></trkpt><trkpt lat="42.5292289" lon="13.3486399"><ele>1380.0</ele><time>2026-04-19T11:03:09.804Z</time></trkpt><trkpt lat="42.5291633" lon="13.3487934"><ele>1380.0</ele><time>2026-04-19T11:03:10.805Z</time></trkpt><trkpt lat="42.529092" lon="13.348913"><ele>1380.0</ele><time>2026-04-19T11:03:11.804Z</time></trkpt><trkpt lat="42.5290096" lon="13.3490026"><ele>1380.0</ele><time>2026-04-19T11:03:12.804Z</time></trkpt><trkpt lat="42.5289161" lon="13.3490809"><ele>1376.75</ele><time>2026-04-19T11:03:13.804Z</time></trkpt><trkpt lat="42.5288157" lon="13.3491556"><ele>1373.5</ele><time>2026-04-19T11:03:14.804Z</time></trkpt><trkpt lat="42.5287017" lon="13.3492264"><ele>1370.25</ele><time>2026-04-19T11:03:15.804Z</time></trkpt><trkpt lat="42.5285866" lon="13.3493015"><ele>1367.0</ele><time>2026-04-19T11:03:16.805Z</time></trkpt><trkpt lat="42.5284906" lon="13.3493765"><ele>1367.0</ele><time>2026-04-19T11:03:17.804Z</time></trkpt><trkpt lat="42.5284039" lon="13.3494304"><ele>1367.0</ele><time>2026-04-19T11:03:18.805Z</time></trkpt><trkpt lat="42.5283223" lon="13.3494623"><ele>1367.0</ele><time>2026-04-19T11:03:19.804Z</time></trkpt><trkpt lat="42.5282507" lon="13.3494618"><ele>1367.0</ele><time>2026-04-19T11:03:20.804Z</time></trkpt><trkpt lat="42.5281811" lon="13.3494317"><ele>1367.0</ele><time>2026-04-19T11:03:21.804Z</time></trkpt><trkpt lat="42.5281009" lon="13.3493641"><ele>1367.0</ele><time>2026-04-19T11:03:22.804Z</time></trkpt><trkpt lat="42.5280116" lon="13.3492695"><ele>1367.0</ele><time>2026-04-19T11:03:23.805Z</time></trkpt><trkpt lat="42.52793" lon="13.3491553"><ele>1367.0</ele><time>2026-04-19T11:03:24.804Z</time></trkpt><trkpt lat="42.5278657" lon="13.3490304"><ele>1367.0</ele><time>2026-04-19T11:03:25.805Z</time></trkpt><trkpt lat="42.5278049" lon="13.348882"><ele>1367.0</ele><time>2026-04-19T11:03:26.805Z</time></trkpt><trkpt lat="42.5277604" lon="13.3487279"><ele>1363.25</ele><time>2026-04-19T11:03:27.804Z</time></trkpt><trkpt lat="42.5277278" lon="13.34854"><ele>1359.5</ele><time>2026-04-19T11:03:28.805Z</time></trkpt><trkpt lat="42.527734" lon="13.3483795"><ele>1355.75</ele><time>2026-04-19T11:03:29.804Z</time></trkpt><trkpt lat="42.5277465" lon="13.3481917"><ele>1352.0</ele><time>2026-04-19T11:03:30.805Z</time></trkpt><trkpt lat="42.5277646" lon="13.3480271"><ele>1351.25</ele><time>2026-04-19T11:03:31.805Z</time></trkpt><trkpt lat="42.5277912" lon="13.3478563"><ele>1350.5</ele><time>2026-04-19T11:03:32.805Z</time></trkpt><trkpt lat="42.5278159" lon="13.3477056"><ele>1349.75</ele><time>2026-04-19T11:03:33.805Z</time></trkpt><trkpt lat="42.5278475" lon="13.3475625"><ele>1349.0</ele><time>2026-04-19T11:03:34.804Z</time></trkpt><trkpt lat="42.5278932" lon="13.3474436"><ele>1350.3333333333335</ele><time>2026-04-19T11:03:35.805Z</time></trkpt><trkpt lat="42.5279392" lon="13.3473257"><ele>1351.6666666666667</ele><time>2026-04-19T11:03:36.804Z</time></trkpt><trkpt lat="42.527981" lon="13.3472184"><ele>1353.0</ele><time>2026-04-19T11:03:37.804Z</time></trkpt><trkpt lat="42.5280196" lon="13.3471291"><ele>1354.3333333333333</ele><time>2026-04-19T11:03:38.804Z</time></trkpt><trkpt lat="42.5280514" lon="13.3470374"><ele>1355.6666666666665</ele><time>2026-04-19T11:03:39.804Z</time></trkpt><trkpt lat="42.5280686" lon="13.3468894"><ele>1357.0</ele><time>2026-04-19T11:03:41.804Z</time></trkpt><trkpt lat="42.5280395" lon="13.3468099"><ele>1357.0</ele><time>2026-04-19T11:03:45.804Z</time></trkpt><trkpt lat="42.5280558" lon="13.3467059"><ele>1357.0</ele><time>2026-04-19T11:04:14.804Z</time></trkpt><trkpt lat="42.5281069" lon="13.3466422"><ele>1357.0</ele><time>2026-04-19T11:04:34.803Z</time></trkpt><trkpt lat="42.5281752" lon="13.3466617"><ele>1357.0</ele><time>2026-04-19T11:05:25.804Z</time></trkpt><trkpt lat="42.5282147" lon="13.3465675"><ele>1357.0</ele><time>2026-04-19T11:05:56.803Z</time></trkpt><trkpt lat="42.5282938" lon="13.3464784"><ele>1357.0</ele><time>2026-04-19T11:05:59.813Z</time></trkpt><trkpt lat="42.5283563" lon="13.346453"><ele>1357.0</ele><time>2026-04-19T11:06:01.812Z</time></trkpt><trkpt lat="42.52839" lon="13.3463722"><ele>1357.0</ele><time>2026-04-19T11:06:04.812Z</time></trkpt><trkpt lat="42.5283396" lon="13.3463209"><ele>1357.0</ele><time>2026-04-19T11:06:07.812Z</time></trkpt><trkpt lat="42.5282765" lon="13.3463623"><ele>1357.0</ele><time>2026-04-19T11:06:09.812Z</time></trkpt><trkpt lat="42.5281958" lon="13.3464887"><ele>1357.0</ele><time>2026-04-19T11:06:11.812Z</time></trkpt><trkpt lat="42.5281599" lon="13.3465592"><ele>1357.0</ele><time>2026-04-19T11:06:12.813Z</time></trkpt><trkpt lat="42.5281212" lon="13.3466393"><ele>1357.0</ele><time>2026-04-19T11:06:13.812Z</time></trkpt><trkpt lat="42.5280307" lon="13.3467522"><ele>1357.0</ele><time>2026-04-19T11:06:15.812Z</time></trkpt><trkpt lat="42.5279771" lon="13.3467995"><ele>1357.0</ele><time>2026-04-19T11:06:16.812Z</time></trkpt><trkpt lat="42.5279177" lon="13.3468398"><ele>1357.0</ele><time>2026-04-19T11:06:17.813Z</time></trkpt><trkpt lat="42.527856" lon="13.3468769"><ele>1357.0</ele><time>2026-04-19T11:06:18.813Z</time></trkpt><trkpt lat="42.5277956" lon="13.3469336"><ele>1357.0</ele><time>2026-04-19T11:06:19.812Z</time></trkpt><trkpt lat="42.527744" lon="13.3470126"><ele>1355.0</ele><time>2026-04-19T11:06:20.813Z</time></trkpt><trkpt lat="42.5276887" lon="13.3471228"><ele>1353.0</ele><time>2026-04-19T11:06:21.812Z</time></trkpt><trkpt lat="42.5276304" lon="13.3472646"><ele>1351.0</ele><time>2026-04-19T11:06:22.812Z</time></trkpt><trkpt lat="42.5275725" lon="13.3474096"><ele>1349.0</ele><time>2026-04-19T11:06:23.812Z</time></trkpt><trkpt lat="42.5275158" lon="13.3475524"><ele>1349.0</ele><time>2026-04-19T11:06:24.812Z</time></trkpt><trkpt lat="42.5274467" lon="13.3477107"><ele>1349.0</ele><time>2026-04-19T11:06:25.812Z</time></trkpt><trkpt lat="42.5273905" lon="13.3478537"><ele>1349.0</ele><time>2026-04-19T11:06:26.812Z</time></trkpt><trkpt lat="42.5273265" lon="13.348023"><ele>1349.0</ele><time>2026-04-19T11:06:27.813Z</time></trkpt><trkpt lat="42.5272716" lon="13.3482002"><ele>1349.75</ele><time>2026-04-19T11:06:28.813Z</time></trkpt><trkpt lat="42.5272336" lon="13.3483849"><ele>1350.5</ele><time>2026-04-19T11:06:29.813Z</time></trkpt><trkpt lat="42.5271913" lon="13.3485704"><ele>1351.25</ele><time>2026-04-19T11:06:30.812Z</time></trkpt><trkpt lat="42.5271508" lon="13.3487634"><ele>1352.0</ele><time>2026-04-19T11:06:31.812Z</time></trkpt><trkpt lat="42.527118" lon="13.3489536"><ele>1352.0</ele><time>2026-04-19T11:06:32.812Z</time></trkpt><trkpt lat="42.527087" lon="13.3491399"><ele>1352.0</ele><time>2026-04-19T11:06:33.813Z</time></trkpt><trkpt lat="42.5270569" lon="13.3493208"><ele>1352.0</ele><time>2026-04-19T11:06:34.812Z</time></trkpt><trkpt lat="42.5270289" lon="13.3494959"><ele>1352.0</ele><time>2026-04-19T11:06:35.812Z</time></trkpt><trkpt lat="42.5270044" lon="13.3496701"><ele>1346.0</ele><time>2026-04-19T11:06:36.813Z</time></trkpt><trkpt lat="42.5269903" lon="13.3498471"><ele>1340.0</ele><time>2026-04-19T11:06:37.812Z</time></trkpt><trkpt lat="42.5269865" lon="13.350018"><ele>1334.0</ele><time>2026-04-19T11:06:38.813Z</time></trkpt><trkpt lat="42.5269945" lon="13.3501811"><ele>1328.0</ele><time>2026-04-19T11:06:39.812Z</time></trkpt><trkpt lat="42.5270114" lon="13.3503243"><ele>1328.0</ele><time>2026-04-19T11:06:40.813Z</time></trkpt><trkpt lat="42.5270276" lon="13.3504387"><ele>1328.0</ele><time>2026-04-19T11:06:41.812Z</time></trkpt><trkpt lat="42.5270462" lon="13.3505336"><ele>1328.0</ele><time>2026-04-19T11:06:42.812Z</time></trkpt><trkpt lat="42.5270764" lon="13.3506242"><ele>1328.0</ele><time>2026-04-19T11:06:43.812Z</time></trkpt><trkpt lat="42.5271242" lon="13.3507076"><ele>1328.0</ele><time>2026-04-19T11:06:44.813Z</time></trkpt><trkpt lat="42.5271869" lon="13.350797"><ele>1328.0</ele><time>2026-04-19T11:06:45.812Z</time></trkpt><trkpt lat="42.527255" lon="13.350873"><ele>1330.0</ele><time>2026-04-19T11:06:46.812Z</time></trkpt><trkpt lat="42.5273257" lon="13.3509402"><ele>1332.0</ele><time>2026-04-19T11:06:47.812Z</time></trkpt><trkpt lat="42.5274061" lon="13.3510126"><ele>1334.0</ele><time>2026-04-19T11:06:48.812Z</time></trkpt><trkpt lat="42.5274974" lon="13.3510646"><ele>1336.0</ele><time>2026-04-19T11:06:49.813Z</time></trkpt><trkpt lat="42.5275928" lon="13.351093"><ele>1338.0</ele><time>2026-04-19T11:06:50.813Z</time></trkpt><trkpt lat="42.5276931" lon="13.3510975"><ele>1338.0</ele><time>2026-04-19T11:06:51.812Z</time></trkpt><trkpt lat="42.5278011" lon="13.3510803"><ele>1338.0</ele><time>2026-04-19T11:06:52.812Z</time></trkpt><trkpt lat="42.5279154" lon="13.3510303"><ele>1338.0</ele><time>2026-04-19T11:06:53.812Z</time></trkpt><trkpt lat="42.5280281" lon="13.3509636"><ele>1338.0</ele><time>2026-04-19T11:06:54.812Z</time></trkpt><trkpt lat="42.5281326" lon="13.3508887"><ele>1337.6666666666667</ele><time>2026-04-19T11:06:55.812Z</time></trkpt><trkpt lat="42.5282211" lon="13.3507991"><ele>1337.3333333333333</ele><time>2026-04-19T11:06:56.813Z</time></trkpt><trkpt lat="42.5283004" lon="13.3507165"><ele>1337.0</ele><time>2026-04-19T11:06:57.812Z</time></trkpt><trkpt lat="42.5283679" lon="13.3506644"><ele>1336.6666666666665</ele><time>2026-04-19T11:06:58.813Z</time></trkpt><trkpt lat="42.528431" lon="13.3506547"><ele>1336.3333333333333</ele><time>2026-04-19T11:06:59.813Z</time></trkpt><trkpt lat="42.528499" lon="13.3506783"><ele>1336.0</ele><time>2026-04-19T11:07:00.812Z</time></trkpt><trkpt lat="42.5285664" lon="13.3507292"><ele>1336.0</ele><time>2026-04-19T11:07:01.813Z</time></trkpt><trkpt lat="42.5286212" lon="13.3508038"><ele>1336.0</ele><time>2026-04-19T11:07:02.813Z</time></trkpt><trkpt lat="42.5286705" lon="13.3508959"><ele>1336.0</ele><time>2026-04-19T11:07:03.812Z</time></trkpt><trkpt lat="42.5287158" lon="13.3509992"><ele>1336.0</ele><time>2026-04-19T11:07:04.813Z</time></trkpt><trkpt lat="42.5287597" lon="13.3511032"><ele>1336.0</ele><time>2026-04-19T11:07:05.813Z</time></trkpt><trkpt lat="42.5287948" lon="13.351212"><ele>1336.0</ele><time>2026-04-19T11:07:06.812Z</time></trkpt><trkpt lat="42.5288252" lon="13.3513228"><ele>1336.1999999999998</ele><time>2026-04-19T11:07:07.812Z</time></trkpt><trkpt lat="42.5288541" lon="13.3514373"><ele>1336.3999999999999</ele><time>2026-04-19T11:07:08.812Z</time></trkpt><trkpt lat="42.5288824" lon="13.351553"><ele>1336.6</ele><time>2026-04-19T11:07:09.812Z</time></trkpt><trkpt lat="42.5289085" lon="13.3516727"><ele>1336.8</ele><time>2026-04-19T11:07:10.812Z</time></trkpt><trkpt lat="42.5289357" lon="13.351797"><ele>1337.0</ele><time>2026-04-19T11:07:11.812Z</time></trkpt><trkpt lat="42.5289634" lon="13.3519285"><ele>1337.0</ele><time>2026-04-19T11:07:12.812Z</time></trkpt><trkpt lat="42.5289881" lon="13.3520723"><ele>1337.0</ele><time>2026-04-19T11:07:13.812Z</time></trkpt><trkpt lat="42.5290089" lon="13.3522324"><ele>1337.0</ele><time>2026-04-19T11:07:14.813Z</time></trkpt><trkpt lat="42.529036" lon="13.3523783"><ele>1337.0</ele><time>2026-04-19T11:07:15.812Z</time></trkpt><trkpt lat="42.529074" lon="13.3525046"><ele>1337.0</ele><time>2026-04-19T11:07:16.813Z</time></trkpt><trkpt lat="42.5291063" lon="13.3526152"><ele>1336.6</ele><time>2026-04-19T11:07:17.813Z</time></trkpt><trkpt lat="42.5291367" lon="13.3527274"><ele>1336.1999999999998</ele><time>2026-04-19T11:07:18.813Z</time></trkpt><trkpt lat="42.5291406" lon="13.3528444"><ele>1335.8</ele><time>2026-04-19T11:07:19.813Z</time></trkpt><trkpt lat="42.5291172" lon="13.3529398"><ele>1335.4</ele><time>2026-04-19T11:07:20.812Z</time></trkpt><trkpt lat="42.5290838" lon="13.353068"><ele>1335.0</ele><time>2026-04-19T11:07:21.812Z</time></trkpt><trkpt lat="42.5290305" lon="13.3532027"><ele>1335.0</ele><time>2026-04-19T11:07:22.813Z</time></trkpt><trkpt lat="42.5289637" lon="13.3533438"><ele>1335.0</ele><time>2026-04-19T11:07:23.812Z</time></trkpt><trkpt lat="42.5288972" lon="13.353491"><ele>1335.0</ele><time>2026-04-19T11:07:24.812Z</time></trkpt><trkpt lat="42.5288448" lon="13.3536394"><ele>1335.0</ele><time>2026-04-19T11:07:25.812Z</time></trkpt><trkpt lat="42.5287888" lon="13.3537849"><ele>1336.0</ele><time>2026-04-19T11:07:26.813Z</time></trkpt><trkpt lat="42.5287479" lon="13.3539188"><ele>1337.0</ele><time>2026-04-19T11:07:27.812Z</time></trkpt><trkpt lat="42.5287154" lon="13.3540477"><ele>1338.0</ele><time>2026-04-19T11:07:28.812Z</time></trkpt><trkpt lat="42.528689" lon="13.3541646"><ele>1339.0</ele><time>2026-04-19T11:07:29.812Z</time></trkpt><trkpt lat="42.528657" lon="13.3542758"><ele>1340.0</ele><time>2026-04-19T11:07:30.813Z</time></trkpt><trkpt lat="42.5286161" lon="13.3544099"><ele>1337.5</ele><time>2026-04-19T11:07:31.812Z</time></trkpt><trkpt lat="42.5285711" lon="13.3545521"><ele>1335.0</ele><time>2026-04-19T11:07:32.812Z</time></trkpt><trkpt lat="42.5285244" lon="13.3546992"><ele>1332.5</ele><time>2026-04-19T11:07:33.812Z</time></trkpt><trkpt lat="42.5284805" lon="13.3548465"><ele>1330.0</ele><time>2026-04-19T11:07:34.812Z</time></trkpt><trkpt lat="42.528441" lon="13.3549914"><ele>1330.0</ele><time>2026-04-19T11:07:35.813Z</time></trkpt><trkpt lat="42.5284142" lon="13.3551395"><ele>1330.0</ele><time>2026-04-19T11:07:36.812Z</time></trkpt><trkpt lat="42.5284079" lon="13.3552917"><ele>1330.0</ele><time>2026-04-19T11:07:37.812Z</time></trkpt><trkpt lat="42.5284199" lon="13.3554565"><ele>1330.0</ele><time>2026-04-19T11:07:38.812Z</time></trkpt><trkpt lat="42.5284495" lon="13.3556159"><ele>1330.25</ele><time>2026-04-19T11:07:39.812Z</time></trkpt><trkpt lat="42.5284917" lon="13.3557751"><ele>1330.5</ele><time>2026-04-19T11:07:40.813Z</time></trkpt><trkpt lat="42.5285335" lon="13.3559378"><ele>1330.75</ele><time>2026-04-19T11:07:41.813Z</time></trkpt><trkpt lat="42.5285744" lon="13.3561002"><ele>1331.0</ele><time>2026-04-19T11:07:42.812Z</time></trkpt><trkpt lat="42.5286134" lon="13.3562517"><ele>1330.6</ele><time>2026-04-19T11:07:43.812Z</time></trkpt><trkpt lat="42.5286486" lon="13.3563993"><ele>1330.1999999999998</ele><time>2026-04-19T11:07:44.812Z</time></trkpt><trkpt lat="42.5286842" lon="13.3565401"><ele>1329.8000000000002</ele><time>2026-04-19T11:07:45.812Z</time></trkpt><trkpt lat="42.5287186" lon="13.3566708"><ele>1329.4</ele><time>2026-04-19T11:07:46.812Z</time></trkpt><trkpt lat="42.5287489" lon="13.3567963"><ele>1329.0</ele><time>2026-04-19T11:07:47.812Z</time></trkpt><trkpt lat="42.528768" lon="13.3569168"><ele>1329.8333333333333</ele><time>2026-04-19T11:07:48.812Z</time></trkpt><trkpt lat="42.5287701" lon="13.3570323"><ele>1330.6666666666667</ele><time>2026-04-19T11:07:49.812Z</time></trkpt><trkpt lat="42.5287632" lon="13.3571369"><ele>1331.5</ele><time>2026-04-19T11:07:50.812Z</time></trkpt><trkpt lat="42.5287382" lon="13.3572327"><ele>1332.3333333333335</ele><time>2026-04-19T11:07:51.812Z</time></trkpt><trkpt lat="42.5286948" lon="13.3573133"><ele>1333.1666666666667</ele><time>2026-04-19T11:07:52.812Z</time></trkpt><trkpt lat="42.5286168" lon="13.3573888"><ele>1334.0</ele><time>2026-04-19T11:07:53.812Z</time></trkpt><trkpt lat="42.5285329" lon="13.3574526"><ele>1334.0</ele><time>2026-04-19T11:07:54.812Z</time></trkpt><trkpt lat="42.5284324" lon="13.3574942"><ele>1334.0</ele><time>2026-04-19T11:07:55.812Z</time></trkpt><trkpt lat="42.5283403" lon="13.3575106"><ele>1334.0</ele><time>2026-04-19T11:07:56.813Z</time></trkpt><trkpt lat="42.5282395" lon="13.3574973"><ele>1334.0</ele><time>2026-04-19T11:07:57.812Z</time></trkpt><trkpt lat="42.5281353" lon="13.3574763"><ele>1334.0</ele><time>2026-04-19T11:07:58.812Z</time></trkpt><trkpt lat="42.5280251" lon="13.3574622"><ele>1334.0</ele><time>2026-04-19T11:07:59.813Z</time></trkpt><trkpt lat="42.5279183" lon="13.3574551"><ele>1334.0</ele><time>2026-04-19T11:08:00.812Z</time></trkpt><trkpt lat="42.5278074" lon="13.3574618"><ele>1334.0</ele><time>2026-04-19T11:08:01.812Z</time></trkpt><trkpt lat="42.5276849" lon="13.3574933"><ele>1334.0</ele><time>2026-04-19T11:08:02.812Z</time></trkpt><trkpt lat="42.527553" lon="13.3575399"><ele>1333.0</ele><time>2026-04-19T11:08:03.812Z</time></trkpt><trkpt lat="42.5274033" lon="13.3575965"><ele>1332.0</ele><time>2026-04-19T11:08:04.812Z</time></trkpt><trkpt lat="42.5272505" lon="13.3576438"><ele>1331.0</ele><time>2026-04-19T11:08:05.812Z</time></trkpt><trkpt lat="42.527101" lon="13.3576922"><ele>1329.25</ele><time>2026-04-19T11:08:06.812Z</time></trkpt><trkpt lat="42.526956" lon="13.357729"><ele>1327.5</ele><time>2026-04-19T11:08:07.813Z</time></trkpt><trkpt lat="42.5268201" lon="13.3577653"><ele>1325.75</ele><time>2026-04-19T11:08:08.812Z</time></trkpt><trkpt lat="42.5267029" lon="13.3578156"><ele>1324.0</ele><time>2026-04-19T11:08:09.812Z</time></trkpt><trkpt lat="42.5266043" lon="13.3579053"><ele>1324.0</ele><time>2026-04-19T11:08:10.812Z</time></trkpt><trkpt lat="42.5265184" lon="13.3580145"><ele>1324.0</ele><time>2026-04-19T11:08:11.812Z</time></trkpt><trkpt lat="42.5264274" lon="13.3581532"><ele>1324.0</ele><time>2026-04-19T11:08:12.812Z</time></trkpt><trkpt lat="42.5263201" lon="13.3583105"><ele>1324.0</ele><time>2026-04-19T11:08:13.812Z</time></trkpt><trkpt lat="42.5262009" lon="13.3584606"><ele>1324.0</ele><time>2026-04-19T11:08:14.813Z</time></trkpt><trkpt lat="42.5260909" lon="13.358608"><ele>1324.0</ele><time>2026-04-19T11:08:15.813Z</time></trkpt><trkpt lat="42.5259832" lon="13.3587473"><ele>1324.0</ele><time>2026-04-19T11:08:16.813Z</time></trkpt><trkpt lat="42.525887" lon="13.3588841"><ele>1324.0</ele><time>2026-04-19T11:08:17.812Z</time></trkpt><trkpt lat="42.5258077" lon="13.3590255"><ele>1326.25</ele><time>2026-04-19T11:08:18.813Z</time></trkpt><trkpt lat="42.5257426" lon="13.3591818"><ele>1328.5</ele><time>2026-04-19T11:08:19.812Z</time></trkpt><trkpt lat="42.525693" lon="13.3593566"><ele>1330.75</ele><time>2026-04-19T11:08:20.812Z</time></trkpt><trkpt lat="42.5256497" lon="13.3595462"><ele>1333.0</ele><time>2026-04-19T11:08:21.812Z</time></trkpt><trkpt lat="42.5256081" lon="13.3597404"><ele>1334.6666666666665</ele><time>2026-04-19T11:08:22.812Z</time></trkpt><trkpt lat="42.5255658" lon="13.3599404"><ele>1336.3333333333333</ele><time>2026-04-19T11:08:23.812Z</time></trkpt><trkpt lat="42.5255222" lon="13.3601403"><ele>1338.0</ele><time>2026-04-19T11:08:24.813Z</time></trkpt><trkpt lat="42.5254808" lon="13.360328"><ele>1338.0</ele><time>2026-04-19T11:08:25.813Z</time></trkpt><trkpt lat="42.5254434" lon="13.3605091"><ele>1338.0</ele><time>2026-04-19T11:08:26.812Z</time></trkpt><trkpt lat="42.5254127" lon="13.3606863"><ele>1338.0</ele><time>2026-04-19T11:08:27.812Z</time></trkpt><trkpt lat="42.525398" lon="13.3608739"><ele>1338.0</ele><time>2026-04-19T11:08:28.813Z</time></trkpt><trkpt lat="42.525399" lon="13.3610577"><ele>1338.5</ele><time>2026-04-19T11:08:29.812Z</time></trkpt><trkpt lat="42.5254092" lon="13.3612356"><ele>1339.0</ele><time>2026-04-19T11:08:30.813Z</time></trkpt><trkpt lat="42.5254284" lon="13.3614127"><ele>1339.5</ele><time>2026-04-19T11:08:31.812Z</time></trkpt><trkpt lat="42.5254472" lon="13.3615655"><ele>1340.0</ele><time>2026-04-19T11:08:32.812Z</time></trkpt><trkpt lat="42.5254752" lon="13.3617084"><ele>1338.8</ele><time>2026-04-19T11:08:33.812Z</time></trkpt><trkpt lat="42.5255213" lon="13.3618298"><ele>1337.6</ele><time>2026-04-19T11:08:34.812Z</time></trkpt><trkpt lat="42.5255782" lon="13.3619274"><ele>1336.4</ele><time>2026-04-19T11:08:35.812Z</time></trkpt><trkpt lat="42.5256457" lon="13.3619956"><ele>1335.2</ele><time>2026-04-19T11:08:36.812Z</time></trkpt><trkpt lat="42.5257273" lon="13.3620271"><ele>1334.0</ele><time>2026-04-19T11:08:37.813Z</time></trkpt><trkpt lat="42.5258252" lon="13.3620223"><ele>1334.0</ele><time>2026-04-19T11:08:38.813Z</time></trkpt><trkpt lat="42.5259256" lon="13.3619824"><ele>1334.0</ele><time>2026-04-19T11:08:39.812Z</time></trkpt><trkpt lat="42.5260271" lon="13.3619259"><ele>1334.0</ele><time>2026-04-19T11:08:40.813Z</time></trkpt><trkpt lat="42.5261296" lon="13.3618712"><ele>1334.0</ele><time>2026-04-19T11:08:41.812Z</time></trkpt><trkpt lat="42.5262295" lon="13.3618324"><ele>1334.0</ele><time>2026-04-19T11:08:42.812Z</time></trkpt><trkpt lat="42.5263285" lon="13.3618088"><ele>1333.5</ele><time>2026-04-19T11:08:43.812Z</time></trkpt><trkpt lat="42.5264233" lon="13.3618106"><ele>1333.0</ele><time>2026-04-19T11:08:44.812Z</time></trkpt><trkpt lat="42.5265025" lon="13.3618374"><ele>1332.5</ele><time>2026-04-19T11:08:45.813Z</time></trkpt><trkpt lat="42.5265663" lon="13.3619013"><ele>1332.0</ele><time>2026-04-19T11:08:46.812Z</time></trkpt><trkpt lat="42.5266088" lon="13.3619948"><ele>1331.5</ele><time>2026-04-19T11:08:47.813Z</time></trkpt><trkpt lat="42.5266366" lon="13.3621135"><ele>1331.0</ele><time>2026-04-19T11:08:48.812Z</time></trkpt><trkpt lat="42.5266502" lon="13.3622462"><ele>1331.0</ele><time>2026-04-19T11:08:49.812Z</time></trkpt><trkpt lat="42.5266617" lon="13.3623832"><ele>1331.0</ele><time>2026-04-19T11:08:50.813Z</time></trkpt><trkpt lat="42.5266689" lon="13.362519"><ele>1331.0</ele><time>2026-04-19T11:08:51.812Z</time></trkpt><trkpt lat="42.526675" lon="13.3626558"><ele>1331.0</ele><time>2026-04-19T11:08:52.813Z</time></trkpt><trkpt lat="42.5266877" lon="13.3627917"><ele>1331.0</ele><time>2026-04-19T11:08:53.813Z</time></trkpt><trkpt lat="42.5267047" lon="13.3629247"><ele>1330.1999999999998</ele><time>2026-04-19T11:08:54.813Z</time></trkpt><trkpt lat="42.5267342" lon="13.3630646"><ele>1329.3999999999999</ele><time>2026-04-19T11:08:55.812Z</time></trkpt><trkpt lat="42.5267846" lon="13.3632128"><ele>1328.6</ele><time>2026-04-19T11:08:56.812Z</time></trkpt><trkpt lat="42.5268423" lon="13.3633406"><ele>1327.8</ele><time>2026-04-19T11:08:57.812Z</time></trkpt><trkpt lat="42.5268887" lon="13.3634521"><ele>1327.0</ele><time>2026-04-19T11:08:58.813Z</time></trkpt><trkpt lat="42.5269148" lon="13.3635514"><ele>1327.0</ele><time>2026-04-19T11:08:59.813Z</time></trkpt><trkpt lat="42.5269211" lon="13.3636556"><ele>1327.0</ele><time>2026-04-19T11:09:00.813Z</time></trkpt><trkpt lat="42.5268952" lon="13.363774"><ele>1327.0</ele><time>2026-04-19T11:09:01.812Z</time></trkpt><trkpt lat="42.5268519" lon="13.3639012"><ele>1327.0</ele><time>2026-04-19T11:09:02.812Z</time></trkpt><trkpt lat="42.5268036" lon="13.3640356"><ele>1327.0</ele><time>2026-04-19T11:09:03.812Z</time></trkpt><trkpt lat="42.5267637" lon="13.36418"><ele>1327.0</ele><time>2026-04-19T11:09:04.812Z</time></trkpt><trkpt lat="42.5267419" lon="13.3643337"><ele>1327.0</ele><time>2026-04-19T11:09:05.812Z</time></trkpt><trkpt lat="42.5267365" lon="13.3644978"><ele>1327.0</ele><time>2026-04-19T11:09:06.812Z</time></trkpt><trkpt lat="42.5267546" lon="13.3646735"><ele>1327.0</ele><time>2026-04-19T11:09:07.812Z</time></trkpt><trkpt lat="42.5267782" lon="13.3648524"><ele>1327.25</ele><time>2026-04-19T11:09:08.812Z</time></trkpt><trkpt lat="42.526795" lon="13.3650228"><ele>1327.5</ele><time>2026-04-19T11:09:09.813Z</time></trkpt><trkpt lat="42.5267985" lon="13.3651775"><ele>1327.75</ele><time>2026-04-19T11:09:10.812Z</time></trkpt><trkpt lat="42.5267926" lon="13.3653416"><ele>1328.0</ele><time>2026-04-19T11:09:11.813Z</time></trkpt><trkpt lat="42.5267581" lon="13.3654909"><ele>1328.75</ele><time>2026-04-19T11:09:12.813Z</time></trkpt><trkpt lat="42.526715" lon="13.3656592"><ele>1329.5</ele><time>2026-04-19T11:09:13.812Z</time></trkpt><trkpt lat="42.5266697" lon="13.3658372"><ele>1330.25</ele><time>2026-04-19T11:09:14.812Z</time></trkpt><trkpt lat="42.526631" lon="13.3660213"><ele>1331.0</ele><time>2026-04-19T11:09:15.812Z</time></trkpt><trkpt lat="42.5266027" lon="13.3661923"><ele>1331.0</ele><time>2026-04-19T11:09:16.812Z</time></trkpt><trkpt lat="42.5265846" lon="13.36635"><ele>1331.0</ele><time>2026-04-19T11:09:17.813Z</time></trkpt><trkpt lat="42.5265717" lon="13.3665235"><ele>1331.0</ele><time>2026-04-19T11:09:18.812Z</time></trkpt><trkpt lat="42.5265668" lon="13.3666958"><ele>1331.0</ele><time>2026-04-19T11:09:19.812Z</time></trkpt><trkpt lat="42.526576" lon="13.3668709"><ele>1330.5</ele><time>2026-04-19T11:09:20.812Z</time></trkpt><trkpt lat="42.5266041" lon="13.3670377"><ele>1330.0</ele><time>2026-04-19T11:09:21.812Z</time></trkpt><trkpt lat="42.5266545" lon="13.3671966"><ele>1329.5</ele><time>2026-04-19T11:09:22.813Z</time></trkpt><trkpt lat="42.5267227" lon="13.3673528"><ele>1329.0</ele><time>2026-04-19T11:09:23.812Z</time></trkpt><trkpt lat="42.5268018" lon="13.3675055"><ele>1329.0</ele><time>2026-04-19T11:09:24.812Z</time></trkpt><trkpt lat="42.5268857" lon="13.3676567"><ele>1329.0</ele><time>2026-04-19T11:09:25.813Z</time></trkpt><trkpt lat="42.52696" lon="13.3677883"><ele>1329.0</ele><time>2026-04-19T11:09:26.812Z</time></trkpt><trkpt lat="42.5270288" lon="13.3679002"><ele>1329.0</ele><time>2026-04-19T11:09:27.812Z</time></trkpt><trkpt lat="42.5270786" lon="13.3680012"><ele>1329.857142857143</ele><time>2026-04-19T11:09:28.812Z</time></trkpt><trkpt lat="42.5271168" lon="13.3680808"><ele>1330.7142857142858</ele><time>2026-04-19T11:09:29.813Z</time></trkpt><trkpt lat="42.5271457" lon="13.3681822"><ele>1331.5714285714284</ele><time>2026-04-19T11:09:30.813Z</time></trkpt><trkpt lat="42.5271635" lon="13.3682672"><ele>1332.4285714285716</ele><time>2026-04-19T11:09:31.812Z</time></trkpt><trkpt lat="42.5272007" lon="13.368342"><ele>1333.2857142857144</ele><time>2026-04-19T11:09:32.812Z</time></trkpt><trkpt lat="42.5272372" lon="13.3684343"><ele>1334.142857142857</ele><time>2026-04-19T11:09:33.812Z</time></trkpt><trkpt lat="42.5272779" lon="13.3685161"><ele>1335.0</ele><time>2026-04-19T11:09:34.813Z</time></trkpt><trkpt lat="42.5273182" lon="13.368629"><ele>1335.0</ele><time>2026-04-19T11:09:36.812Z</time></trkpt><trkpt lat="42.5272622" lon="13.3686867"><ele>1335.0</ele><time>2026-04-19T11:09:40.812Z</time></trkpt><trkpt lat="42.5272024" lon="13.3687499"><ele>1335.0</ele><time>2026-04-19T11:09:42.812Z</time></trkpt><trkpt lat="42.5271136" lon="13.368821"><ele>1335.0</ele><time>2026-04-19T11:09:44.812Z</time></trkpt><trkpt lat="42.5270047" lon="13.3689125"><ele>1335.0</ele><time>2026-04-19T11:09:46.812Z</time></trkpt><trkpt lat="42.5269443" lon="13.3689555"><ele>1335.0</ele><time>2026-04-19T11:09:47.813Z</time></trkpt><trkpt lat="42.526889" lon="13.3689978"><ele>1329.25</ele><time>2026-04-19T11:09:48.812Z</time></trkpt><trkpt lat="42.5267986" lon="13.3691035"><ele>1323.5</ele><time>2026-04-19T11:09:50.812Z</time></trkpt><trkpt lat="42.5267039" lon="13.3691881"><ele>1317.75</ele><time>2026-04-19T11:09:52.812Z</time></trkpt><trkpt lat="42.5266116" lon="13.3692752"><ele>1312.0</ele><time>2026-04-19T11:09:54.812Z</time></trkpt><trkpt lat="42.5265028" lon="13.369349"><ele>1311.9999999999998</ele><time>2026-04-19T11:09:56.813Z</time></trkpt><trkpt lat="42.5264441" lon="13.3693916"><ele>1312.0</ele><time>2026-04-19T11:09:57.812Z</time></trkpt><trkpt lat="42.5263873" lon="13.3694392"><ele>1312.0</ele><time>2026-04-19T11:09:58.812Z</time></trkpt><trkpt lat="42.5263291" lon="13.3695207"><ele>1312.0</ele><time>2026-04-19T11:09:59.812Z</time></trkpt><trkpt lat="42.5262749" lon="13.3695918"><ele>1312.0</ele><time>2026-04-19T11:10:00.813Z</time></trkpt><trkpt lat="42.5262198" lon="13.3696594"><ele>1311.9999999999998</ele><time>2026-04-19T11:10:01.812Z</time></trkpt><trkpt lat="42.5261516" lon="13.3697159"><ele>1312.0</ele><time>2026-04-19T11:10:02.812Z</time></trkpt><trkpt lat="42.5260853" lon="13.3697813"><ele>1311.8333333333333</ele><time>2026-04-19T11:10:03.813Z</time></trkpt><trkpt lat="42.5260189" lon="13.3698417"><ele>1311.6666666666665</ele><time>2026-04-19T11:10:04.812Z</time></trkpt><trkpt lat="42.5259534" lon="13.3699021"><ele>1311.5</ele><time>2026-04-19T11:10:05.812Z</time></trkpt><trkpt lat="42.5258929" lon="13.3699605"><ele>1311.3333333333333</ele><time>2026-04-19T11:10:06.812Z</time></trkpt><trkpt lat="42.525838" lon="13.370024"><ele>1311.1666666666667</ele><time>2026-04-19T11:10:07.812Z</time></trkpt><trkpt lat="42.5257524" lon="13.3701403"><ele>1311.0</ele><time>2026-04-19T11:10:09.812Z</time></trkpt><trkpt lat="42.5256871" lon="13.3701893"><ele>1311.0</ele><time>2026-04-19T11:10:10.813Z</time></trkpt><trkpt lat="42.5256209" lon="13.3702223"><ele>1311.0</ele><time>2026-04-19T11:10:11.813Z</time></trkpt><trkpt lat="42.5255518" lon="13.3702522"><ele>1311.0</ele><time>2026-04-19T11:10:12.813Z</time></trkpt><trkpt lat="42.5254844" lon="13.3702856"><ele>1311.0</ele><time>2026-04-19T11:10:13.813Z</time></trkpt><trkpt lat="42.5254132" lon="13.3703276"><ele>1311.0</ele><time>2026-04-19T11:10:14.813Z</time></trkpt><trkpt lat="42.5253462" lon="13.3703673"><ele>1311.0</ele><time>2026-04-19T11:10:15.813Z</time></trkpt><trkpt lat="42.5252774" lon="13.3704177"><ele>1311.0</ele><time>2026-04-19T11:10:16.812Z</time></trkpt><trkpt lat="42.5252236" lon="13.3704747"><ele>1311.0</ele><time>2026-04-19T11:10:17.813Z</time></trkpt><trkpt lat="42.5251726" lon="13.37053"><ele>1311.0</ele><time>2026-04-19T11:10:18.812Z</time></trkpt><trkpt lat="42.5250894" lon="13.3706414"><ele>1311.0</ele><time>2026-04-19T11:10:20.812Z</time></trkpt><trkpt lat="42.5250328" lon="13.3706896"><ele>1311.0</ele><time>2026-04-19T11:10:21.813Z</time></trkpt><trkpt lat="42.5249803" lon="13.3707369"><ele>1311.0</ele><time>2026-04-19T11:10:22.813Z</time></trkpt><trkpt lat="42.524928" lon="13.370797"><ele>1311.0</ele><time>2026-04-19T11:10:23.813Z</time></trkpt><trkpt lat="42.5248661" lon="13.3708692"><ele>1311.0</ele><time>2026-04-19T11:10:24.812Z</time></trkpt><trkpt lat="42.5248021" lon="13.3709451"><ele>1311.0</ele><time>2026-04-19T11:10:25.813Z</time></trkpt><trkpt lat="42.5247368" lon="13.371016"><ele>1311.0</ele><time>2026-04-19T11:10:26.813Z</time></trkpt><trkpt lat="42.5246646" lon="13.3710821"><ele>1311.0</ele><time>2026-04-19T11:10:27.813Z</time></trkpt><trkpt lat="42.5245855" lon="13.3711533"><ele>1311.0</ele><time>2026-04-19T11:10:28.812Z</time></trkpt><trkpt lat="42.5245066" lon="13.3712238"><ele>1311.0</ele><time>2026-04-19T11:10:29.812Z</time></trkpt><trkpt lat="42.5244249" lon="13.3712942"><ele>1311.0</ele><time>2026-04-19T11:10:30.812Z</time></trkpt><trkpt lat="42.5243425" lon="13.3713636"><ele>1311.0</ele><time>2026-04-19T11:10:31.812Z</time></trkpt><trkpt lat="42.5242635" lon="13.371434"><ele>1311.0</ele><time>2026-04-19T11:10:32.813Z</time></trkpt><trkpt lat="42.5241884" lon="13.3714977"><ele>1311.0</ele><time>2026-04-19T11:10:33.812Z</time></trkpt><trkpt lat="42.5241073" lon="13.3715607"><ele>1311.0</ele><time>2026-04-19T11:10:34.812Z</time></trkpt><trkpt lat="42.5240335" lon="13.3716351"><ele>1311.0</ele><time>2026-04-19T11:10:35.812Z</time></trkpt><trkpt lat="42.5239588" lon="13.3717009"><ele>1311.0</ele><time>2026-04-19T11:10:36.812Z</time></trkpt><trkpt lat="42.5238893" lon="13.3717695"><ele>1311.0</ele><time>2026-04-19T11:10:37.813Z</time></trkpt><trkpt lat="42.5238226" lon="13.3718381"><ele>1311.0</ele><time>2026-04-19T11:10:38.813Z</time></trkpt><trkpt lat="42.5237444" lon="13.371916"><ele>1311.0</ele><time>2026-04-19T11:10:39.813Z</time></trkpt><trkpt lat="42.5236785" lon="13.3719836"><ele>1311.0</ele><time>2026-04-19T11:10:40.812Z</time></trkpt><trkpt lat="42.5236161" lon="13.3720479"><ele>1313.0</ele><time>2026-04-19T11:10:41.812Z</time></trkpt><trkpt lat="42.5235573" lon="13.372106"><ele>1315.0</ele><time>2026-04-19T11:10:42.812Z</time></trkpt><trkpt lat="42.5235012" lon="13.3721592"><ele>1317.0</ele><time>2026-04-19T11:10:43.812Z</time></trkpt><trkpt lat="42.5234052" lon="13.3722048"><ele>1319.0</ele><time>2026-04-19T11:10:45.812Z</time></trkpt><trkpt lat="42.5233282" lon="13.3721684"><ele>1321.0</ele><time>2026-04-19T11:10:47.813Z</time></trkpt><trkpt lat="42.5232575" lon="13.3720313"><ele>1323.0</ele><time>2026-04-19T11:10:49.812Z</time></trkpt><trkpt lat="42.5232205" lon="13.3719267"><ele>1323.0</ele><time>2026-04-19T11:10:50.812Z</time></trkpt><trkpt lat="42.523162" lon="13.3717982"><ele>1323.0</ele><time>2026-04-19T11:10:51.813Z</time></trkpt><trkpt lat="42.5230824" lon="13.371639"><ele>1323.0</ele><time>2026-04-19T11:10:52.812Z</time></trkpt><trkpt lat="42.5230025" lon="13.3714881"><ele>1323.0</ele><time>2026-04-19T11:10:53.812Z</time></trkpt><trkpt lat="42.5229143" lon="13.3713558"><ele>1322.5</ele><time>2026-04-19T11:10:54.812Z</time></trkpt><trkpt lat="42.522818" lon="13.3712487"><ele>1322.0</ele><time>2026-04-19T11:10:55.812Z</time></trkpt><trkpt lat="42.5227227" lon="13.3711714"><ele>1321.5</ele><time>2026-04-19T11:10:56.812Z</time></trkpt><trkpt lat="42.5226084" lon="13.371128"><ele>1321.0</ele><time>2026-04-19T11:10:57.813Z</time></trkpt><trkpt lat="42.5224964" lon="13.3711344"><ele>1321.0</ele><time>2026-04-19T11:10:58.812Z</time></trkpt><trkpt lat="42.5223929" lon="13.3711939"><ele>1321.0</ele><time>2026-04-19T11:10:59.813Z</time></trkpt><trkpt lat="42.5223036" lon="13.3713062"><ele>1321.0</ele><time>2026-04-19T11:11:00.812Z</time></trkpt><trkpt lat="42.5222109" lon="13.371462"><ele>1321.0</ele><time>2026-04-19T11:11:01.813Z</time></trkpt><trkpt lat="42.5221023" lon="13.3716384"><ele>1322.0</ele><time>2026-04-19T11:11:02.812Z</time></trkpt><trkpt lat="42.521984" lon="13.3718079"><ele>1323.0</ele><time>2026-04-19T11:11:03.812Z</time></trkpt><trkpt lat="42.5218547" lon="13.3719399"><ele>1324.0</ele><time>2026-04-19T11:11:04.812Z</time></trkpt><trkpt lat="42.521698" lon="13.3720273"><ele>1324.0</ele><time>2026-04-19T11:11:05.812Z</time></trkpt><trkpt lat="42.5215351" lon="13.3721011"><ele>1324.0</ele><time>2026-04-19T11:11:06.813Z</time></trkpt><trkpt lat="42.5213762" lon="13.372173"><ele>1324.0</ele><time>2026-04-19T11:11:07.812Z</time></trkpt><trkpt lat="42.5212362" lon="13.3722627"><ele>1326.25</ele><time>2026-04-19T11:11:08.813Z</time></trkpt><trkpt lat="42.5211208" lon="13.3723788"><ele>1328.5</ele><time>2026-04-19T11:11:09.812Z</time></trkpt><trkpt lat="42.5210259" lon="13.3725138"><ele>1330.75</ele><time>2026-04-19T11:11:10.813Z</time></trkpt><trkpt lat="42.520942" lon="13.372641"><ele>1333.0</ele><time>2026-04-19T11:11:11.812Z</time></trkpt><trkpt lat="42.520858" lon="13.3727482"><ele>1333.0</ele><time>2026-04-19T11:11:12.812Z</time></trkpt><trkpt lat="42.5207774" lon="13.3728278"><ele>1333.0</ele><time>2026-04-19T11:11:13.812Z</time></trkpt><trkpt lat="42.5206951" lon="13.3728664"><ele>1333.0</ele><time>2026-04-19T11:11:14.813Z</time></trkpt><trkpt lat="42.5206149" lon="13.3728762"><ele>1333.0</ele><time>2026-04-19T11:11:15.813Z</time></trkpt><trkpt lat="42.5205209" lon="13.3727919"><ele>1333.0</ele><time>2026-04-19T11:11:17.812Z</time></trkpt><trkpt lat="42.5203933" lon="13.3725958"><ele>1331.5</ele><time>2026-04-19T11:11:18.813Z</time></trkpt><trkpt lat="42.5203643" lon="13.3724146"><ele>1330.0</ele><time>2026-04-19T11:11:19.812Z</time></trkpt><trkpt lat="42.5203783" lon="13.3722346"><ele>1328.5</ele><time>2026-04-19T11:11:20.813Z</time></trkpt><trkpt lat="42.5204287" lon="13.3720617"><ele>1327.0</ele><time>2026-04-19T11:11:21.813Z</time></trkpt><trkpt lat="42.5205018" lon="13.3718875"><ele>1327.0</ele><time>2026-04-19T11:11:22.812Z</time></trkpt><trkpt lat="42.52059" lon="13.3717343"><ele>1327.0</ele><time>2026-04-19T11:11:23.813Z</time></trkpt><trkpt lat="42.520683" lon="13.3715799"><ele>1327.0</ele><time>2026-04-19T11:11:24.813Z</time></trkpt><trkpt lat="42.5207576" lon="13.3714313"><ele>1327.0</ele><time>2026-04-19T11:11:25.813Z</time></trkpt><trkpt lat="42.5208075" lon="13.3712752"><ele>1327.0</ele><time>2026-04-19T11:11:26.812Z</time></trkpt><trkpt lat="42.5208231" lon="13.3711206"><ele>1327.0</ele><time>2026-04-19T11:11:27.812Z</time></trkpt><trkpt lat="42.5207914" lon="13.3709829"><ele>1327.0</ele><time>2026-04-19T11:11:28.812Z</time></trkpt><trkpt lat="42.5207234" lon="13.3708588"><ele>1327.0</ele><time>2026-04-19T11:11:29.812Z</time></trkpt><trkpt lat="42.5206173" lon="13.3707742"><ele>1327.0</ele><time>2026-04-19T11:11:30.813Z</time></trkpt><trkpt lat="42.5204847" lon="13.3707343"><ele>1327.0</ele><time>2026-04-19T11:11:31.812Z</time></trkpt><trkpt lat="42.5202789" lon="13.370699"><ele>1327.0</ele><time>2026-04-19T11:11:32.813Z</time></trkpt><trkpt lat="42.5201375" lon="13.3706758"><ele>1328.0</ele><time>2026-04-19T11:11:33.812Z</time></trkpt><trkpt lat="42.5199845" lon="13.3705622"><ele>1329.0</ele><time>2026-04-19T11:11:34.812Z</time></trkpt><trkpt lat="42.5198498" lon="13.3703744"><ele>1330.0</ele><time>2026-04-19T11:11:35.813Z</time></trkpt><trkpt lat="42.5197237" lon="13.3702018"><ele>1330.0</ele><time>2026-04-19T11:11:36.812Z</time></trkpt><trkpt lat="42.5196035" lon="13.3700585"><ele>1330.0</ele><time>2026-04-19T11:11:37.812Z</time></trkpt><trkpt lat="42.5195122" lon="13.3699313"><ele>1330.0</ele><time>2026-04-19T11:11:38.813Z</time></trkpt><trkpt lat="42.5194603" lon="13.3698031"><ele>1330.0</ele><time>2026-04-19T11:11:39.812Z</time></trkpt><trkpt lat="42.5194344" lon="13.3696242"><ele>1332.25</ele><time>2026-04-19T11:11:40.812Z</time></trkpt><trkpt lat="42.5194527" lon="13.3694619"><ele>1334.5</ele><time>2026-04-19T11:11:41.812Z</time></trkpt><trkpt lat="42.5194791" lon="13.3692779"><ele>1336.75</ele><time>2026-04-19T11:11:42.812Z</time></trkpt><trkpt lat="42.5194976" lon="13.3690846"><ele>1339.0</ele><time>2026-04-19T11:11:43.812Z</time></trkpt><trkpt lat="42.5194726" lon="13.3688968"><ele>1336.0</ele><time>2026-04-19T11:11:44.812Z</time></trkpt><trkpt lat="42.519398" lon="13.3687349"><ele>1333.0</ele><time>2026-04-19T11:11:45.813Z</time></trkpt><trkpt lat="42.5192798" lon="13.3685822"><ele>1330.0</ele><time>2026-04-19T11:11:46.813Z</time></trkpt><trkpt lat="42.5191557" lon="13.3684472"><ele>1330.0</ele><time>2026-04-19T11:11:47.812Z</time></trkpt><trkpt lat="42.5190237" lon="13.3683527"><ele>1330.0</ele><time>2026-04-19T11:11:48.812Z</time></trkpt><trkpt lat="42.5188863" lon="13.3682982"><ele>1330.0</ele><time>2026-04-19T11:11:49.813Z</time></trkpt><trkpt lat="42.5187346" lon="13.3683062"><ele>1330.0</ele><time>2026-04-19T11:11:50.812Z</time></trkpt><trkpt lat="42.5185821" lon="13.3683555"><ele>1329.3333333333333</ele><time>2026-04-19T11:11:51.813Z</time></trkpt><trkpt lat="42.5184361" lon="13.3684218"><ele>1328.6666666666667</ele><time>2026-04-19T11:11:52.812Z</time></trkpt><trkpt lat="42.5183165" lon="13.3685269"><ele>1328.0</ele><time>2026-04-19T11:11:53.812Z</time></trkpt><trkpt lat="42.518211" lon="13.3686783"><ele>1328.0</ele><time>2026-04-19T11:11:54.812Z</time></trkpt><trkpt lat="42.5181248" lon="13.3688194"><ele>1328.0</ele><time>2026-04-19T11:11:55.812Z</time></trkpt><trkpt lat="42.5180072" lon="13.3689338"><ele>1328.0</ele><time>2026-04-19T11:11:56.813Z</time></trkpt><trkpt lat="42.5178614" lon="13.369006"><ele>1328.0</ele><time>2026-04-19T11:11:57.813Z</time></trkpt><trkpt lat="42.5177013" lon="13.3690325"><ele>1331.3333333333335</ele><time>2026-04-19T11:11:58.813Z</time></trkpt><trkpt lat="42.5175155" lon="13.3690472"><ele>1334.6666666666667</ele><time>2026-04-19T11:11:59.812Z</time></trkpt><trkpt lat="42.5173165" lon="13.3690482"><ele>1338.0</ele><time>2026-04-19T11:12:00.812Z</time></trkpt><trkpt lat="42.5171086" lon="13.3690951"><ele>1335.3333333333333</ele><time>2026-04-19T11:12:01.812Z</time></trkpt><trkpt lat="42.5169031" lon="13.3691479"><ele>1332.6666666666665</ele><time>2026-04-19T11:12:02.812Z</time></trkpt><trkpt lat="42.516711" lon="13.369218"><ele>1330.0</ele><time>2026-04-19T11:12:03.813Z</time></trkpt><trkpt lat="42.5165343" lon="13.3692874"><ele>1330.0</ele><time>2026-04-19T11:12:04.813Z</time></trkpt><trkpt lat="42.5163698" lon="13.369378"><ele>1330.0</ele><time>2026-04-19T11:12:05.812Z</time></trkpt><trkpt lat="42.5162203" lon="13.3695043"><ele>1330.0</ele><time>2026-04-19T11:12:06.813Z</time></trkpt><trkpt lat="42.5160783" lon="13.3696515"><ele>1330.3333333333333</ele><time>2026-04-19T11:12:07.812Z</time></trkpt><trkpt lat="42.515954" lon="13.3698191"><ele>1330.6666666666667</ele><time>2026-04-19T11:12:08.812Z</time></trkpt><trkpt lat="42.5158315" lon="13.3699805"><ele>1331.0</ele><time>2026-04-19T11:12:09.813Z</time></trkpt><trkpt lat="42.5157035" lon="13.3701374"><ele>1331.0</ele><time>2026-04-19T11:12:10.812Z</time></trkpt><trkpt lat="42.5155585" lon="13.3702715"><ele>1331.0</ele><time>2026-04-19T11:12:11.812Z</time></trkpt><trkpt lat="42.5154111" lon="13.3703842"><ele>1331.0</ele><time>2026-04-19T11:12:12.812Z</time></trkpt><trkpt lat="42.5152694" lon="13.3704954"><ele>1329.25</ele><time>2026-04-19T11:12:13.813Z</time></trkpt><trkpt lat="42.51514" lon="13.3705751"><ele>1327.5</ele><time>2026-04-19T11:12:14.812Z</time></trkpt><trkpt lat="42.5150064" lon="13.370626"><ele>1325.75</ele><time>2026-04-19T11:12:15.812Z</time></trkpt><trkpt lat="42.5148678" lon="13.3706306"><ele>1324.0</ele><time>2026-04-19T11:12:16.813Z</time></trkpt><trkpt lat="42.5147198" lon="13.370601"><ele>1320.6666666666665</ele><time>2026-04-19T11:12:17.812Z</time></trkpt><trkpt lat="42.5145649" lon="13.370514"><ele>1317.3333333333333</ele><time>2026-04-19T11:12:18.812Z</time></trkpt><trkpt lat="42.5144018" lon="13.3703934"><ele>1314.0</ele><time>2026-04-19T11:12:19.813Z</time></trkpt><trkpt lat="42.5142295" lon="13.3702491"><ele>1314.0</ele><time>2026-04-19T11:12:20.812Z</time></trkpt><trkpt lat="42.5140538" lon="13.3701013"><ele>1314.0</ele><time>2026-04-19T11:12:21.813Z</time></trkpt><trkpt lat="42.5138913" lon="13.369963"><ele>1314.0</ele><time>2026-04-19T11:12:22.812Z</time></trkpt><trkpt lat="42.5137386" lon="13.369828"><ele>1312.6666666666667</ele><time>2026-04-19T11:12:23.812Z</time></trkpt><trkpt lat="42.5136106" lon="13.3696774"><ele>1311.3333333333335</ele><time>2026-04-19T11:12:24.812Z</time></trkpt><trkpt lat="42.5135035" lon="13.3695053"><ele>1310.0</ele><time>2026-04-19T11:12:25.813Z</time></trkpt><trkpt lat="42.5134212" lon="13.3693233"><ele>1310.0</ele><time>2026-04-19T11:12:26.812Z</time></trkpt><trkpt lat="42.5133605" lon="13.3691131"><ele>1310.0</ele><time>2026-04-19T11:12:27.812Z</time></trkpt><trkpt lat="42.5133221" lon="13.3688683"><ele>1310.0</ele><time>2026-04-19T11:12:28.812Z</time></trkpt><trkpt lat="42.5132868" lon="13.3686274"><ele>1309.3333333333335</ele><time>2026-04-19T11:12:29.813Z</time></trkpt><trkpt lat="42.5132435" lon="13.3683766"><ele>1308.6666666666667</ele><time>2026-04-19T11:12:30.813Z</time></trkpt><trkpt lat="42.5132008" lon="13.3681295"><ele>1308.0</ele><time>2026-04-19T11:12:31.813Z</time></trkpt><trkpt lat="42.5131562" lon="13.3678948"><ele>1308.0</ele><time>2026-04-19T11:12:32.812Z</time></trkpt><trkpt lat="42.5130934" lon="13.3676753"><ele>1308.0</ele><time>2026-04-19T11:12:33.813Z</time></trkpt><trkpt lat="42.5130132" lon="13.3674842"><ele>1308.0</ele><time>2026-04-19T11:12:34.812Z</time></trkpt><trkpt lat="42.512923" lon="13.3672934"><ele>1305.5</ele><time>2026-04-19T11:12:35.812Z</time></trkpt><trkpt lat="42.512838" lon="13.3671145"><ele>1303.0</ele><time>2026-04-19T11:12:36.812Z</time></trkpt><trkpt lat="42.5127598" lon="13.3669434"><ele>1300.5</ele><time>2026-04-19T11:12:37.812Z</time></trkpt><trkpt lat="42.512692" lon="13.3667748"><ele>1298.0</ele><time>2026-04-19T11:12:38.812Z</time></trkpt><trkpt lat="42.5126309" lon="13.3666007"><ele>1298.0</ele><time>2026-04-19T11:12:39.812Z</time></trkpt><trkpt lat="42.5125728" lon="13.3664295"><ele>1298.0</ele><time>2026-04-19T11:12:40.818Z</time></trkpt><trkpt lat="42.5125195" lon="13.3662557"><ele>1298.0</ele><time>2026-04-19T11:12:41.818Z</time></trkpt><trkpt lat="42.5124629" lon="13.3660713"><ele>1298.0</ele><time>2026-04-19T11:12:42.817Z</time></trkpt><trkpt lat="42.5123957" lon="13.3658776"><ele>1299.6666666666667</ele><time>2026-04-19T11:12:43.817Z</time></trkpt><trkpt lat="42.5123213" lon="13.3656809"><ele>1301.3333333333333</ele><time>2026-04-19T11:12:44.818Z</time></trkpt><trkpt lat="42.5122449" lon="13.3654717"><ele>1303.0</ele><time>2026-04-19T11:12:45.818Z</time></trkpt><trkpt lat="42.5121715" lon="13.3652543"><ele>1304.0</ele><time>2026-04-19T11:12:46.817Z</time></trkpt><trkpt lat="42.5121108" lon="13.3650247"><ele>1305.0</ele><time>2026-04-19T11:12:47.817Z</time></trkpt><trkpt lat="42.5120659" lon="13.3647776"><ele>1306.0</ele><time>2026-04-19T11:12:48.817Z</time></trkpt><trkpt lat="42.5120266" lon="13.3644927"><ele>1300.0</ele><time>2026-04-19T11:12:49.818Z</time></trkpt><trkpt lat="42.5119913" lon="13.3642148"><ele>1294.0</ele><time>2026-04-19T11:12:50.817Z</time></trkpt><trkpt lat="42.5119638" lon="13.3639529"><ele>1288.0</ele><time>2026-04-19T11:12:51.817Z</time></trkpt><trkpt lat="42.5119284" lon="13.363705"><ele>1288.0</ele><time>2026-04-19T11:12:52.818Z</time></trkpt><trkpt lat="42.5118776" lon="13.3634774"><ele>1288.0</ele><time>2026-04-19T11:12:53.818Z</time></trkpt><trkpt lat="42.5118358" lon="13.3632686"><ele>1288.0</ele><time>2026-04-19T11:12:54.817Z</time></trkpt><trkpt lat="42.5117975" lon="13.3630753"><ele>1290.5</ele><time>2026-04-19T11:12:55.817Z</time></trkpt><trkpt lat="42.511754" lon="13.3629059"><ele>1293.0</ele><time>2026-04-19T11:12:56.818Z</time></trkpt><trkpt lat="42.5116925" lon="13.3627787"><ele>1295.5</ele><time>2026-04-19T11:12:57.817Z</time></trkpt><trkpt lat="42.5116081" lon="13.3626878"><ele>1298.0</ele><time>2026-04-19T11:12:58.818Z</time></trkpt><trkpt lat="42.5115098" lon="13.3626172"><ele>1298.0</ele><time>2026-04-19T11:12:59.818Z</time></trkpt><trkpt lat="42.5113858" lon="13.3625958"><ele>1298.0</ele><time>2026-04-19T11:13:00.818Z</time></trkpt><trkpt lat="42.5112562" lon="13.3626062"><ele>1298.0</ele><time>2026-04-19T11:13:01.818Z</time></trkpt><trkpt lat="42.5111353" lon="13.3625828"><ele>1298.0</ele><time>2026-04-19T11:13:02.818Z</time></trkpt><trkpt lat="42.5110188" lon="13.3625019"><ele>1295.5</ele><time>2026-04-19T11:13:03.817Z</time></trkpt><trkpt lat="42.510934" lon="13.3623762"><ele>1293.0</ele><time>2026-04-19T11:13:04.818Z</time></trkpt><trkpt lat="42.5108585" lon="13.3622026"><ele>1290.5</ele><time>2026-04-19T11:13:05.818Z</time></trkpt><trkpt lat="42.5107947" lon="13.3620145"><ele>1288.0</ele><time>2026-04-19T11:13:06.818Z</time></trkpt><trkpt lat="42.5107252" lon="13.3618022"><ele>1288.0</ele><time>2026-04-19T11:13:07.817Z</time></trkpt><trkpt lat="42.5106568" lon="13.3615872"><ele>1288.0</ele><time>2026-04-19T11:13:08.818Z</time></trkpt><trkpt lat="42.5106097" lon="13.3613837"><ele>1288.0</ele><time>2026-04-19T11:13:09.817Z</time></trkpt><trkpt lat="42.5105906" lon="13.3611911"><ele>1288.25</ele><time>2026-04-19T11:13:10.818Z</time></trkpt><trkpt lat="42.510592" lon="13.3610195"><ele>1288.5</ele><time>2026-04-19T11:13:11.817Z</time></trkpt><trkpt lat="42.5105923" lon="13.3608653"><ele>1288.75</ele><time>2026-04-19T11:13:12.817Z</time></trkpt><trkpt lat="42.5105492" lon="13.360727"><ele>1289.0</ele><time>2026-04-19T11:13:13.817Z</time></trkpt><trkpt lat="42.5104687" lon="13.360604"><ele>1288.5</ele><time>2026-04-19T11:13:14.817Z</time></trkpt><trkpt lat="42.510362" lon="13.3605136"><ele>1288.0</ele><time>2026-04-19T11:13:15.817Z</time></trkpt><trkpt lat="42.510221" lon="13.3604766"><ele>1287.5</ele><time>2026-04-19T11:13:16.817Z</time></trkpt><trkpt lat="42.5100812" lon="13.3604918"><ele>1287.0</ele><time>2026-04-19T11:13:17.818Z</time></trkpt><trkpt lat="42.509944" lon="13.3605292"><ele>1284.0</ele><time>2026-04-19T11:13:18.817Z</time></trkpt><trkpt lat="42.509819" lon="13.3605708"><ele>1281.0</ele><time>2026-04-19T11:13:19.817Z</time></trkpt><trkpt lat="42.5097081" lon="13.3605961"><ele>1278.0</ele><time>2026-04-19T11:13:20.817Z</time></trkpt><trkpt lat="42.5096046" lon="13.3605763"><ele>1275.0</ele><time>2026-04-19T11:13:21.817Z</time></trkpt><trkpt lat="42.5094949" lon="13.3605277"><ele>1275.0</ele><time>2026-04-19T11:13:22.817Z</time></trkpt><trkpt lat="42.5093883" lon="13.3604416"><ele>1275.0</ele><time>2026-04-19T11:13:23.817Z</time></trkpt><trkpt lat="42.5092819" lon="13.3603376"><ele>1275.0</ele><time>2026-04-19T11:13:24.817Z</time></trkpt><trkpt lat="42.5091658" lon="13.3602772"><ele>1275.0</ele><time>2026-04-19T11:13:25.818Z</time></trkpt><trkpt lat="42.5090488" lon="13.3602578"><ele>1275.0</ele><time>2026-04-19T11:13:26.817Z</time></trkpt><trkpt lat="42.508927" lon="13.3602919"><ele>1275.0</ele><time>2026-04-19T11:13:27.818Z</time></trkpt><trkpt lat="42.5087874" lon="13.3603751"><ele>1275.0</ele><time>2026-04-19T11:13:28.817Z</time></trkpt><trkpt lat="42.5086419" lon="13.3604904"><ele>1275.0</ele><time>2026-04-19T11:13:29.818Z</time></trkpt><trkpt lat="42.5084945" lon="13.3606007"><ele>1272.0</ele><time>2026-04-19T11:13:30.817Z</time></trkpt><trkpt lat="42.5083435" lon="13.3607066"><ele>1269.0</ele><time>2026-04-19T11:13:31.817Z</time></trkpt><trkpt lat="42.5082041" lon="13.3608068"><ele>1266.0</ele><time>2026-04-19T11:13:32.817Z</time></trkpt><trkpt lat="42.5080795" lon="13.3609105"><ele>1266.0</ele><time>2026-04-19T11:13:33.817Z</time></trkpt><trkpt lat="42.5079673" lon="13.3609949"><ele>1266.0</ele><time>2026-04-19T11:13:34.817Z</time></trkpt><trkpt lat="42.5078686" lon="13.3610277"><ele>1266.0</ele><time>2026-04-19T11:13:35.817Z</time></trkpt><trkpt lat="42.5077561" lon="13.3610118"><ele>1266.0</ele><time>2026-04-19T11:13:36.818Z</time></trkpt><trkpt lat="42.5076449" lon="13.3609471"><ele>1267.0</ele><time>2026-04-19T11:13:37.818Z</time></trkpt><trkpt lat="42.5075472" lon="13.3608277"><ele>1268.0</ele><time>2026-04-19T11:13:38.817Z</time></trkpt><trkpt lat="42.5074689" lon="13.3606586"><ele>1269.0</ele><time>2026-04-19T11:13:39.817Z</time></trkpt><trkpt lat="42.507394" lon="13.3604476"><ele>1269.0</ele><time>2026-04-19T11:13:40.818Z</time></trkpt><trkpt lat="42.5073121" lon="13.3602153"><ele>1269.0</ele><time>2026-04-19T11:13:41.817Z</time></trkpt><trkpt lat="42.5072312" lon="13.3599754"><ele>1269.0</ele><time>2026-04-19T11:13:42.817Z</time></trkpt><trkpt lat="42.5071559" lon="13.3597369"><ele>1272.6666666666667</ele><time>2026-04-19T11:13:43.817Z</time></trkpt><trkpt lat="42.507108" lon="13.3595079"><ele>1276.3333333333335</ele><time>2026-04-19T11:13:44.817Z</time></trkpt><trkpt lat="42.507066" lon="13.3592805"><ele>1280.0</ele><time>2026-04-19T11:13:45.818Z</time></trkpt><trkpt lat="42.5070059" lon="13.3590799"><ele>1275.0</ele><time>2026-04-19T11:13:46.818Z</time></trkpt><trkpt lat="42.5069132" lon="13.3588984"><ele>1270.0</ele><time>2026-04-19T11:13:47.817Z</time></trkpt><trkpt lat="42.5068078" lon="13.358735"><ele>1265.0</ele><time>2026-04-19T11:13:48.817Z</time></trkpt><trkpt lat="42.506696" lon="13.3585832"><ele>1265.0</ele><time>2026-04-19T11:13:49.818Z</time></trkpt><trkpt lat="42.5065985" lon="13.3584313"><ele>1265.0</ele><time>2026-04-19T11:13:50.818Z</time></trkpt><trkpt lat="42.5065118" lon="13.3583003"><ele>1265.0</ele><time>2026-04-19T11:13:51.817Z</time></trkpt><trkpt lat="42.5064211" lon="13.3581854"><ele>1265.0</ele><time>2026-04-19T11:13:52.818Z</time></trkpt><trkpt lat="42.5063126" lon="13.3581022"><ele>1263.5</ele><time>2026-04-19T11:13:53.817Z</time></trkpt><trkpt lat="42.5061936" lon="13.3580389"><ele>1262.0</ele><time>2026-04-19T11:13:54.818Z</time></trkpt><trkpt lat="42.506078" lon="13.3580001"><ele>1260.5</ele><time>2026-04-19T11:13:55.817Z</time></trkpt><trkpt lat="42.5059591" lon="13.3579583"><ele>1259.0</ele><time>2026-04-19T11:13:56.817Z</time></trkpt><trkpt lat="42.5058427" lon="13.3579015"><ele>1259.0</ele><time>2026-04-19T11:13:57.817Z</time></trkpt><trkpt lat="42.5057188" lon="13.3578357"><ele>1259.0</ele><time>2026-04-19T11:13:58.818Z</time></trkpt><trkpt lat="42.5056004" lon="13.3577368"><ele>1259.0</ele><time>2026-04-19T11:13:59.817Z</time></trkpt><trkpt lat="42.5055027" lon="13.3576152"><ele>1259.0</ele><time>2026-04-19T11:14:00.817Z</time></trkpt><trkpt lat="42.5054115" lon="13.3574777"><ele>1257.75</ele><time>2026-04-19T11:14:01.817Z</time></trkpt><trkpt lat="42.5053317" lon="13.3573362"><ele>1256.5</ele><time>2026-04-19T11:14:02.817Z</time></trkpt><trkpt lat="42.5052512" lon="13.3572083"><ele>1255.25</ele><time>2026-04-19T11:14:03.817Z</time></trkpt><trkpt lat="42.505163" lon="13.3570967"><ele>1254.0</ele><time>2026-04-19T11:14:04.818Z</time></trkpt><trkpt lat="42.5050532" lon="13.3570103"><ele>1254.0</ele><time>2026-04-19T11:14:05.817Z</time></trkpt><trkpt lat="42.5049293" lon="13.3569385"><ele>1254.0</ele><time>2026-04-19T11:14:06.817Z</time></trkpt><trkpt lat="42.5048038" lon="13.3568629"><ele>1254.0</ele><time>2026-04-19T11:14:07.817Z</time></trkpt><trkpt lat="42.5047003" lon="13.3567552"><ele>1254.0</ele><time>2026-04-19T11:14:08.817Z</time></trkpt><trkpt lat="42.5046172" lon="13.3566148"><ele>1253.25</ele><time>2026-04-19T11:14:09.818Z</time></trkpt><trkpt lat="42.5045448" lon="13.3564482"><ele>1252.5</ele><time>2026-04-19T11:14:10.818Z</time></trkpt><trkpt lat="42.504482" lon="13.3562848"><ele>1251.75</ele><time>2026-04-19T11:14:11.817Z</time></trkpt><trkpt lat="42.5043919" lon="13.3561325"><ele>1251.0</ele><time>2026-04-19T11:14:12.817Z</time></trkpt><trkpt lat="42.5042848" lon="13.3560163"><ele>1251.0</ele><time>2026-04-19T11:14:13.817Z</time></trkpt><trkpt lat="42.5041754" lon="13.3559188"><ele>1251.0</ele><time>2026-04-19T11:14:14.818Z</time></trkpt><trkpt lat="42.5040718" lon="13.3558481"><ele>1251.0</ele><time>2026-04-19T11:14:15.818Z</time></trkpt><trkpt lat="42.5039587" lon="13.3557799"><ele>1251.0</ele><time>2026-04-19T11:14:16.817Z</time></trkpt><trkpt lat="42.5038455" lon="13.3557377"><ele>1247.5</ele><time>2026-04-19T11:14:17.818Z</time></trkpt><trkpt lat="42.5037321" lon="13.355714"><ele>1244.0</ele><time>2026-04-19T11:14:18.817Z</time></trkpt><trkpt lat="42.5036226" lon="13.3556904"><ele>1240.5</ele><time>2026-04-19T11:14:19.818Z</time></trkpt><trkpt lat="42.5035115" lon="13.3556728"><ele>1237.0</ele><time>2026-04-19T11:14:20.817Z</time></trkpt><trkpt lat="42.5034014" lon="13.355642"><ele>1237.0</ele><time>2026-04-19T11:14:21.818Z</time></trkpt><trkpt lat="42.5032926" lon="13.3556056"><ele>1237.0</ele><time>2026-04-19T11:14:22.817Z</time></trkpt><trkpt lat="42.5032064" lon="13.3555503"><ele>1237.0</ele><time>2026-04-19T11:14:23.818Z</time></trkpt><trkpt lat="42.5031383" lon="13.3554596"><ele>1237.0</ele><time>2026-04-19T11:14:24.818Z</time></trkpt><trkpt lat="42.5031059" lon="13.3553409"><ele>1237.0</ele><time>2026-04-19T11:14:25.817Z</time></trkpt><trkpt lat="42.5030971" lon="13.3552003"><ele>1238.75</ele><time>2026-04-19T11:14:26.817Z</time></trkpt><trkpt lat="42.5031091" lon="13.3550447"><ele>1240.5</ele><time>2026-04-19T11:14:27.817Z</time></trkpt><trkpt lat="42.5031139" lon="13.3548804"><ele>1242.25</ele><time>2026-04-19T11:14:28.817Z</time></trkpt><trkpt lat="42.5030905" lon="13.354721"><ele>1244.0</ele><time>2026-04-19T11:14:29.817Z</time></trkpt><trkpt lat="42.5030407" lon="13.3545977"><ele>1245.25</ele><time>2026-04-19T11:14:30.817Z</time></trkpt><trkpt lat="42.5029647" lon="13.3544842"><ele>1246.5</ele><time>2026-04-19T11:14:31.818Z</time></trkpt><trkpt lat="42.5028577" lon="13.3544"><ele>1247.75</ele><time>2026-04-19T11:14:32.817Z</time></trkpt><trkpt lat="42.5027294" lon="13.3543407"><ele>1249.0</ele><time>2026-04-19T11:14:33.817Z</time></trkpt><trkpt lat="42.5025909" lon="13.3543188"><ele>1246.25</ele><time>2026-04-19T11:14:34.818Z</time></trkpt><trkpt lat="42.5024526" lon="13.3542938"><ele>1243.5</ele><time>2026-04-19T11:14:35.818Z</time></trkpt><trkpt lat="42.5023169" lon="13.3542692"><ele>1240.75</ele><time>2026-04-19T11:14:36.817Z</time></trkpt><trkpt lat="42.5021906" lon="13.3542269"><ele>1238.0</ele><time>2026-04-19T11:14:37.817Z</time></trkpt><trkpt lat="42.5020775" lon="13.3541659"><ele>1237.25</ele><time>2026-04-19T11:14:38.817Z</time></trkpt><trkpt lat="42.5019709" lon="13.3541028"><ele>1236.5</ele><time>2026-04-19T11:14:39.817Z</time></trkpt><trkpt lat="42.501876" lon="13.354023"><ele>1235.75</ele><time>2026-04-19T11:14:40.818Z</time></trkpt><trkpt lat="42.5017886" lon="13.3539224"><ele>1235.0</ele><time>2026-04-19T11:14:41.818Z</time></trkpt><trkpt lat="42.5017166" lon="13.3538105"><ele>1235.0</ele><time>2026-04-19T11:14:42.817Z</time></trkpt><trkpt lat="42.5016712" lon="13.3536735"><ele>1235.0</ele><time>2026-04-19T11:14:43.817Z</time></trkpt><trkpt lat="42.5016458" lon="13.3535278"><ele>1235.0</ele><time>2026-04-19T11:14:44.818Z</time></trkpt><trkpt lat="42.5016301" lon="13.3533708"><ele>1235.0</ele><time>2026-04-19T11:14:45.818Z</time></trkpt><trkpt lat="42.5016163" lon="13.353222"><ele>1235.0</ele><time>2026-04-19T11:14:46.817Z</time></trkpt><trkpt lat="42.5015894" lon="13.3530853"><ele>1235.4</ele><time>2026-04-19T11:14:47.818Z</time></trkpt><trkpt lat="42.5015495" lon="13.3529608"><ele>1235.8</ele><time>2026-04-19T11:14:48.818Z</time></trkpt><trkpt lat="42.5014889" lon="13.3528426"><ele>1236.2</ele><time>2026-04-19T11:14:49.817Z</time></trkpt><trkpt lat="42.5014082" lon="13.352747"><ele>1236.6</ele><time>2026-04-19T11:14:50.817Z</time></trkpt><trkpt lat="42.5012922" lon="13.3526573"><ele>1237.0</ele><time>2026-04-19T11:14:51.818Z</time></trkpt><trkpt lat="42.5011463" lon="13.3525798"><ele>1232.6666666666665</ele><time>2026-04-19T11:14:52.817Z</time></trkpt><trkpt lat="42.5009864" lon="13.3525008"><ele>1228.3333333333333</ele><time>2026-04-19T11:14:53.817Z</time></trkpt><trkpt lat="42.5008214" lon="13.3524289"><ele>1224.0</ele><time>2026-04-19T11:14:54.818Z</time></trkpt><trkpt lat="42.5006622" lon="13.3523586"><ele>1224.0</ele><time>2026-04-19T11:14:55.818Z</time></trkpt><trkpt lat="42.5005076" lon="13.352301"><ele>1224.0</ele><time>2026-04-19T11:14:56.817Z</time></trkpt><trkpt lat="42.5003599" lon="13.3522459"><ele>1224.0</ele><time>2026-04-19T11:14:57.817Z</time></trkpt><trkpt lat="42.5002234" lon="13.3522153"><ele>1224.25</ele><time>2026-04-19T11:14:58.817Z</time></trkpt><trkpt lat="42.5000983" lon="13.3522077"><ele>1224.5</ele><time>2026-04-19T11:14:59.817Z</time></trkpt><trkpt lat="42.4999789" lon="13.3521981"><ele>1224.75</ele><time>2026-04-19T11:15:00.817Z</time></trkpt><trkpt lat="42.4998745" lon="13.3521677"><ele>1225.0</ele><time>2026-04-19T11:15:01.817Z</time></trkpt><trkpt lat="42.4997834" lon="13.3520884"><ele>1225.0</ele><time>2026-04-19T11:15:02.818Z</time></trkpt><trkpt lat="42.4997107" lon="13.3519825"><ele>1225.0</ele><time>2026-04-19T11:15:03.817Z</time></trkpt><trkpt lat="42.4996578" lon="13.3518527"><ele>1225.0</ele><time>2026-04-19T11:15:04.818Z</time></trkpt><trkpt lat="42.4996238" lon="13.3517069"><ele>1225.0</ele><time>2026-04-19T11:15:05.817Z</time></trkpt><trkpt lat="42.4995967" lon="13.351576"><ele>1225.0</ele><time>2026-04-19T11:15:06.817Z</time></trkpt><trkpt lat="42.4995603" lon="13.3514528"><ele>1225.4</ele><time>2026-04-19T11:15:07.817Z</time></trkpt><trkpt lat="42.4994935" lon="13.3513605"><ele>1225.8</ele><time>2026-04-19T11:15:08.817Z</time></trkpt><trkpt lat="42.4993941" lon="13.3512865"><ele>1226.2</ele><time>2026-04-19T11:15:09.818Z</time></trkpt><trkpt lat="42.4992881" lon="13.3512585"><ele>1226.6</ele><time>2026-04-19T11:15:10.817Z</time></trkpt><trkpt lat="42.4991904" lon="13.3512451"><ele>1227.0</ele><time>2026-04-19T11:15:11.817Z</time></trkpt><trkpt lat="42.4991017" lon="13.351257"><ele>1227.0</ele><time>2026-04-19T11:15:12.817Z</time></trkpt><trkpt lat="42.4990225" lon="13.3513145"><ele>1227.0</ele><time>2026-04-19T11:15:13.817Z</time></trkpt><trkpt lat="42.4989551" lon="13.3514142"><ele>1227.0</ele><time>2026-04-19T11:15:14.818Z</time></trkpt><trkpt lat="42.4989148" lon="13.3515366"><ele>1227.0</ele><time>2026-04-19T11:15:15.818Z</time></trkpt><trkpt lat="42.4988808" lon="13.3517156"><ele>1227.0</ele><time>2026-04-19T11:15:16.817Z</time></trkpt><trkpt lat="42.4988382" lon="13.3519315"><ele>1225.3333333333333</ele><time>2026-04-19T11:15:17.817Z</time></trkpt><trkpt lat="42.4988004" lon="13.3521792"><ele>1223.6666666666665</ele><time>2026-04-19T11:15:18.817Z</time></trkpt><trkpt lat="42.4987502" lon="13.3524211"><ele>1222.0</ele><time>2026-04-19T11:15:19.817Z</time></trkpt><trkpt lat="42.4986806" lon="13.3526359"><ele>1222.5</ele><time>2026-04-19T11:15:20.818Z</time></trkpt><trkpt lat="42.4985898" lon="13.3528183"><ele>1223.0</ele><time>2026-04-19T11:15:21.817Z</time></trkpt><trkpt lat="42.4984974" lon="13.3529614"><ele>1223.5</ele><time>2026-04-19T11:15:22.818Z</time></trkpt><trkpt lat="42.4984173" lon="13.3531178"><ele>1224.0</ele><time>2026-04-19T11:15:23.817Z</time></trkpt><trkpt lat="42.4983767" lon="13.3532743"><ele>1224.0</ele><time>2026-04-19T11:15:24.817Z</time></trkpt><trkpt lat="42.4983926" lon="13.3534582"><ele>1224.0</ele><time>2026-04-19T11:15:25.817Z</time></trkpt><trkpt lat="42.4984298" lon="13.3536242"><ele>1224.0</ele><time>2026-04-19T11:15:26.818Z</time></trkpt><trkpt lat="42.4984583" lon="13.3537842"><ele>1224.0</ele><time>2026-04-19T11:15:27.817Z</time></trkpt><trkpt lat="42.4984378" lon="13.353945"><ele>1222.0</ele><time>2026-04-19T11:15:28.817Z</time></trkpt><trkpt lat="42.4983684" lon="13.3540776"><ele>1220.0</ele><time>2026-04-19T11:15:29.817Z</time></trkpt><trkpt lat="42.4982684" lon="13.3541324"><ele>1218.0</ele><time>2026-04-19T11:15:30.818Z</time></trkpt><trkpt lat="42.4981522" lon="13.3541436"><ele>1216.0</ele><time>2026-04-19T11:15:31.817Z</time></trkpt><trkpt lat="42.4980088" lon="13.3541495"><ele>1218.3333333333333</ele><time>2026-04-19T11:15:32.817Z</time></trkpt><trkpt lat="42.4978638" lon="13.3541602"><ele>1220.6666666666667</ele><time>2026-04-19T11:15:33.817Z</time></trkpt><trkpt lat="42.4977111" lon="13.3542311"><ele>1223.0</ele><time>2026-04-19T11:15:34.817Z</time></trkpt><trkpt lat="42.49756" lon="13.3543485"><ele>1223.0</ele><time>2026-04-19T11:15:35.817Z</time></trkpt><trkpt lat="42.4973913" lon="13.3545121"><ele>1223.0</ele><time>2026-04-19T11:15:36.817Z</time></trkpt><trkpt lat="42.4972192" lon="13.3546944"><ele>1223.0</ele><time>2026-04-19T11:15:37.817Z</time></trkpt><trkpt lat="42.4970386" lon="13.3548877"><ele>1223.0</ele><time>2026-04-19T11:15:38.817Z</time></trkpt><trkpt lat="42.4968581" lon="13.3550655"><ele>1223.0</ele><time>2026-04-19T11:15:39.818Z</time></trkpt><trkpt lat="42.4966929" lon="13.3552229"><ele>1223.0</ele><time>2026-04-19T11:15:40.817Z</time></trkpt><trkpt lat="42.4965529" lon="13.355357"><ele>1223.0</ele><time>2026-04-19T11:15:41.817Z</time></trkpt><trkpt lat="42.4964381" lon="13.3554801"><ele>1223.0</ele><time>2026-04-19T11:15:42.817Z</time></trkpt><trkpt lat="42.4963475" lon="13.3555955"><ele>1223.0</ele><time>2026-04-19T11:15:43.818Z</time></trkpt><trkpt lat="42.4962802" lon="13.3557368"><ele>1223.0</ele><time>2026-04-19T11:15:44.817Z</time></trkpt><trkpt lat="42.4962371" lon="13.3558891"><ele>1225.0</ele><time>2026-04-19T11:15:45.818Z</time></trkpt><trkpt lat="42.4962227" lon="13.3560395"><ele>1227.0</ele><time>2026-04-19T11:15:46.818Z</time></trkpt><trkpt lat="42.4962443" lon="13.3561883"><ele>1229.0</ele><time>2026-04-19T11:15:47.818Z</time></trkpt><trkpt lat="42.4963081" lon="13.3563306"><ele>1231.0</ele><time>2026-04-19T11:15:48.817Z</time></trkpt><trkpt lat="42.4964134" lon="13.3564454"><ele>1227.0</ele><time>2026-04-19T11:15:49.817Z</time></trkpt><trkpt lat="42.4965408" lon="13.3565659"><ele>1223.0</ele><time>2026-04-19T11:15:50.817Z</time></trkpt><trkpt lat="42.4966641" lon="13.3566867"><ele>1219.0</ele><time>2026-04-19T11:15:51.818Z</time></trkpt><trkpt lat="42.496755" lon="13.3568122"><ele>1215.0</ele><time>2026-04-19T11:15:52.818Z</time></trkpt><trkpt lat="42.4968023" lon="13.3569556"><ele>1215.0</ele><time>2026-04-19T11:15:53.817Z</time></trkpt><trkpt lat="42.4968182" lon="13.3571106"><ele>1215.0</ele><time>2026-04-19T11:15:54.817Z</time></trkpt><trkpt lat="42.496796" lon="13.3572778"><ele>1215.0</ele><time>2026-04-19T11:15:55.817Z</time></trkpt><trkpt lat="42.4967369" lon="13.3574499"><ele>1215.0</ele><time>2026-04-19T11:15:56.817Z</time></trkpt><trkpt lat="42.4966689" lon="13.3575894"><ele>1215.0</ele><time>2026-04-19T11:15:57.817Z</time></trkpt><trkpt lat="42.4965856" lon="13.3577002"><ele>1215.0</ele><time>2026-04-19T11:15:58.818Z</time></trkpt><trkpt lat="42.4964882" lon="13.3577529"><ele>1215.0</ele><time>2026-04-19T11:15:59.817Z</time></trkpt><trkpt lat="42.4963686" lon="13.3577702"><ele>1215.0</ele><time>2026-04-19T11:16:00.818Z</time></trkpt><trkpt lat="42.4962263" lon="13.3577629"><ele>1217.5</ele><time>2026-04-19T11:16:01.817Z</time></trkpt><trkpt lat="42.4960912" lon="13.3577522"><ele>1220.0</ele><time>2026-04-19T11:16:02.818Z</time></trkpt><trkpt lat="42.4959553" lon="13.3577583"><ele>1222.5</ele><time>2026-04-19T11:16:03.817Z</time></trkpt><trkpt lat="42.4958282" lon="13.3577955"><ele>1225.0</ele><time>2026-04-19T11:16:04.817Z</time></trkpt><trkpt lat="42.495703" lon="13.3578789"><ele>1225.0</ele><time>2026-04-19T11:16:05.817Z</time></trkpt><trkpt lat="42.4955914" lon="13.3580072"><ele>1225.0</ele><time>2026-04-19T11:16:06.817Z</time></trkpt><trkpt lat="42.4955123" lon="13.3581559"><ele>1225.0</ele><time>2026-04-19T11:16:07.818Z</time></trkpt><trkpt lat="42.4954553" lon="13.3583135"><ele>1225.0</ele><time>2026-04-19T11:16:08.818Z</time></trkpt><trkpt lat="42.4954236" lon="13.3584993"><ele>1227.6666666666665</ele><time>2026-04-19T11:16:09.817Z</time></trkpt><trkpt lat="42.4954169" lon="13.3586921"><ele>1230.3333333333333</ele><time>2026-04-19T11:16:10.818Z</time></trkpt><trkpt lat="42.4954361" lon="13.3588923"><ele>1233.0</ele><time>2026-04-19T11:16:11.817Z</time></trkpt><trkpt lat="42.495478" lon="13.3591043"><ele>1224.6666666666667</ele><time>2026-04-19T11:16:12.817Z</time></trkpt><trkpt lat="42.4955385" lon="13.359311"><ele>1216.3333333333335</ele><time>2026-04-19T11:16:13.817Z</time></trkpt><trkpt lat="42.4956026" lon="13.3595288"><ele>1208.0</ele><time>2026-04-19T11:16:14.817Z</time></trkpt><trkpt lat="42.4956426" lon="13.3597726"><ele>1208.0</ele><time>2026-04-19T11:16:15.817Z</time></trkpt><trkpt lat="42.4956522" lon="13.3600171"><ele>1208.0</ele><time>2026-04-19T11:16:16.817Z</time></trkpt><trkpt lat="42.4956598" lon="13.3602298"><ele>1208.0</ele><time>2026-04-19T11:16:17.817Z</time></trkpt><trkpt lat="42.4956669" lon="13.3604263"><ele>1207.8333333333335</ele><time>2026-04-19T11:16:18.817Z</time></trkpt><trkpt lat="42.4956691" lon="13.3605929"><ele>1207.6666666666667</ele><time>2026-04-19T11:16:19.817Z</time></trkpt><trkpt lat="42.4956597" lon="13.3607029"><ele>1207.5</ele><time>2026-04-19T11:16:20.817Z</time></trkpt><trkpt lat="42.4956138" lon="13.3607807"><ele>1207.3333333333333</ele><time>2026-04-19T11:16:21.817Z</time></trkpt><trkpt lat="42.4955435" lon="13.3608247"><ele>1207.1666666666665</ele><time>2026-04-19T11:16:22.817Z</time></trkpt><trkpt lat="42.4954605" lon="13.3608276"><ele>1207.0</ele><time>2026-04-19T11:16:23.817Z</time></trkpt><trkpt lat="42.4953745" lon="13.3607731"><ele>1207.0</ele><time>2026-04-19T11:16:24.818Z</time></trkpt><trkpt lat="42.4952825" lon="13.3606744"><ele>1207.0</ele><time>2026-04-19T11:16:25.817Z</time></trkpt><trkpt lat="42.4951854" lon="13.3605563"><ele>1207.0</ele><time>2026-04-19T11:16:26.817Z</time></trkpt><trkpt lat="42.49509" lon="13.3604345"><ele>1207.0</ele><time>2026-04-19T11:16:27.818Z</time></trkpt><trkpt lat="42.4949977" lon="13.3603241"><ele>1206.6</ele><time>2026-04-19T11:16:28.817Z</time></trkpt><trkpt lat="42.4949068" lon="13.360219"><ele>1206.2</ele><time>2026-04-19T11:16:29.817Z</time></trkpt><trkpt lat="42.494818" lon="13.360121"><ele>1205.8</ele><time>2026-04-19T11:16:30.817Z</time></trkpt><trkpt lat="42.49473" lon="13.360036"><ele>1205.4</ele><time>2026-04-19T11:16:31.817Z</time></trkpt><trkpt lat="42.4946327" lon="13.3599746"><ele>1205.0</ele><time>2026-04-19T11:16:32.818Z</time></trkpt><trkpt lat="42.4945276" lon="13.3599446"><ele>1205.0</ele><time>2026-04-19T11:16:33.818Z</time></trkpt><trkpt lat="42.4944124" lon="13.3599509"><ele>1205.0</ele><time>2026-04-19T11:16:34.818Z</time></trkpt><trkpt lat="42.4942984" lon="13.3599913"><ele>1205.0</ele><time>2026-04-19T11:16:35.818Z</time></trkpt><trkpt lat="42.4941762" lon="13.3600021"><ele>1205.0</ele><time>2026-04-19T11:16:36.817Z</time></trkpt><trkpt lat="42.4940413" lon="13.3599085"><ele>1205.0</ele><time>2026-04-19T11:16:37.818Z</time></trkpt><trkpt lat="42.4939142" lon="13.3598041"><ele>1205.0</ele><time>2026-04-19T11:16:38.817Z</time></trkpt><trkpt lat="42.4937977" lon="13.3596938"><ele>1205.0</ele><time>2026-04-19T11:16:39.817Z</time></trkpt><trkpt lat="42.4936812" lon="13.3595915"><ele>1205.0</ele><time>2026-04-19T11:16:40.817Z</time></trkpt><trkpt lat="42.4935491" lon="13.3594827"><ele>1205.0</ele><time>2026-04-19T11:16:41.817Z</time></trkpt><trkpt lat="42.4934002" lon="13.3593991"><ele>1205.0</ele><time>2026-04-19T11:16:42.818Z</time></trkpt><trkpt lat="42.493245" lon="13.3593502"><ele>1205.0</ele><time>2026-04-19T11:16:43.818Z</time></trkpt><trkpt lat="42.4930718" lon="13.3593407"><ele>1202.3333333333335</ele><time>2026-04-19T11:16:44.817Z</time></trkpt><trkpt lat="42.4928974" lon="13.3593587"><ele>1199.6666666666667</ele><time>2026-04-19T11:16:45.817Z</time></trkpt><trkpt lat="42.4927271" lon="13.3593908"><ele>1197.0</ele><time>2026-04-19T11:16:46.818Z</time></trkpt><trkpt lat="42.4925748" lon="13.3594343"><ele>1197.0</ele><time>2026-04-19T11:16:47.818Z</time></trkpt><trkpt lat="42.4924346" lon="13.3594456"><ele>1197.0</ele><time>2026-04-19T11:16:48.817Z</time></trkpt><trkpt lat="42.4923057" lon="13.3594113"><ele>1197.0</ele><time>2026-04-19T11:16:49.818Z</time></trkpt><trkpt lat="42.4921864" lon="13.3593225"><ele>1197.0</ele><time>2026-04-19T11:16:50.818Z</time></trkpt><trkpt lat="42.4920818" lon="13.3592034"><ele>1195.5</ele><time>2026-04-19T11:16:51.817Z</time></trkpt><trkpt lat="42.4920099" lon="13.3590556"><ele>1194.0</ele><time>2026-04-19T11:16:52.817Z</time></trkpt><trkpt lat="42.4919764" lon="13.3588957"><ele>1192.5</ele><time>2026-04-19T11:16:53.817Z</time></trkpt><trkpt lat="42.4919678" lon="13.3587212"><ele>1191.0</ele><time>2026-04-19T11:16:54.818Z</time></trkpt><trkpt lat="42.4919982" lon="13.3585425"><ele>1191.0</ele><time>2026-04-19T11:16:55.817Z</time></trkpt><trkpt lat="42.4920401" lon="13.3583772"><ele>1191.0</ele><time>2026-04-19T11:16:56.817Z</time></trkpt><trkpt lat="42.4920594" lon="13.358221"><ele>1191.0</ele><time>2026-04-19T11:16:57.817Z</time></trkpt><trkpt lat="42.4920439" lon="13.3580795"><ele>1191.0</ele><time>2026-04-19T11:16:58.817Z</time></trkpt><trkpt lat="42.4919914" lon="13.3579591"><ele>1192.5</ele><time>2026-04-19T11:16:59.817Z</time></trkpt><trkpt lat="42.4918987" lon="13.3578735"><ele>1194.0</ele><time>2026-04-19T11:17:00.817Z</time></trkpt><trkpt lat="42.4917835" lon="13.357829"><ele>1195.5</ele><time>2026-04-19T11:17:01.818Z</time></trkpt><trkpt lat="42.4916599" lon="13.3577922"><ele>1197.0</ele><time>2026-04-19T11:17:02.818Z</time></trkpt><trkpt lat="42.4915389" lon="13.357817"><ele>1197.0</ele><time>2026-04-19T11:17:03.817Z</time></trkpt><trkpt lat="42.4914107" lon="13.3578887"><ele>1197.0</ele><time>2026-04-19T11:17:04.817Z</time></trkpt><trkpt lat="42.4912858" lon="13.3580082"><ele>1197.0</ele><time>2026-04-19T11:17:05.817Z</time></trkpt><trkpt lat="42.491164" lon="13.3581305"><ele>1197.0</ele><time>2026-04-19T11:17:06.818Z</time></trkpt><trkpt lat="42.4910445" lon="13.358247"><ele>1195.5</ele><time>2026-04-19T11:17:07.818Z</time></trkpt><trkpt lat="42.4909226" lon="13.3583249"><ele>1194.0</ele><time>2026-04-19T11:17:08.818Z</time></trkpt><trkpt lat="42.4907838" lon="13.3583521"><ele>1192.5</ele><time>2026-04-19T11:17:09.818Z</time></trkpt><trkpt lat="42.4906596" lon="13.3583288"><ele>1191.0</ele><time>2026-04-19T11:17:10.817Z</time></trkpt><trkpt lat="42.4905506" lon="13.3582427"><ele>1191.0</ele><time>2026-04-19T11:17:11.817Z</time></trkpt><trkpt lat="42.4904597" lon="13.3581196"><ele>1191.0</ele><time>2026-04-19T11:17:12.818Z</time></trkpt><trkpt lat="42.4903596" lon="13.357972"><ele>1191.0</ele><time>2026-04-19T11:17:13.818Z</time></trkpt><trkpt lat="42.4902603" lon="13.35783"><ele>1191.0</ele><time>2026-04-19T11:17:14.817Z</time></trkpt><trkpt lat="42.4901322" lon="13.3577175"><ele>1190.0</ele><time>2026-04-19T11:17:15.818Z</time></trkpt><trkpt lat="42.4899835" lon="13.3576157"><ele>1189.0</ele><time>2026-04-19T11:17:16.817Z</time></trkpt><trkpt lat="42.4898326" lon="13.3575511"><ele>1188.0</ele><time>2026-04-19T11:17:17.817Z</time></trkpt><trkpt lat="42.4896956" lon="13.3575022"><ele>1188.8</ele><time>2026-04-19T11:17:18.817Z</time></trkpt><trkpt lat="42.4895865" lon="13.35747"><ele>1189.6</ele><time>2026-04-19T11:17:19.817Z</time></trkpt><trkpt lat="42.4894962" lon="13.3574497"><ele>1190.4</ele><time>2026-04-19T11:17:20.817Z</time></trkpt><trkpt lat="42.4893968" lon="13.3574761"><ele>1191.2</ele><time>2026-04-19T11:17:21.817Z</time></trkpt><trkpt lat="42.4893219" lon="13.3575566"><ele>1192.0</ele><time>2026-04-19T11:17:22.817Z</time></trkpt><trkpt lat="42.4892602" lon="13.3576885"><ele>1192.0</ele><time>2026-04-19T11:17:23.817Z</time></trkpt><trkpt lat="42.4892369" lon="13.3578803"><ele>1192.0</ele><time>2026-04-19T11:17:24.818Z</time></trkpt><trkpt lat="42.4892054" lon="13.3580936"><ele>1192.0</ele><time>2026-04-19T11:17:25.817Z</time></trkpt><trkpt lat="42.4891729" lon="13.3583197"><ele>1190.25</ele><time>2026-04-19T11:17:26.818Z</time></trkpt><trkpt lat="42.4891406" lon="13.3585145"><ele>1188.5</ele><time>2026-04-19T11:17:27.817Z</time></trkpt><trkpt lat="42.4891107" lon="13.3587021"><ele>1186.75</ele><time>2026-04-19T11:17:28.818Z</time></trkpt><trkpt lat="42.4890559" lon="13.3588605"><ele>1185.0</ele><time>2026-04-19T11:17:29.817Z</time></trkpt><trkpt lat="42.4889747" lon="13.3589991"><ele>1183.6666666666667</ele><time>2026-04-19T11:17:30.817Z</time></trkpt><trkpt lat="42.4888623" lon="13.3591349"><ele>1182.3333333333335</ele><time>2026-04-19T11:17:31.817Z</time></trkpt><trkpt lat="42.4887168" lon="13.3592892"><ele>1181.0</ele><time>2026-04-19T11:17:32.818Z</time></trkpt><trkpt lat="42.4885712" lon="13.3594488"><ele>1181.0</ele><time>2026-04-19T11:17:33.818Z</time></trkpt><trkpt lat="42.4884387" lon="13.359605"><ele>1181.0</ele><time>2026-04-19T11:17:34.817Z</time></trkpt><trkpt lat="42.4883114" lon="13.3597288"><ele>1181.0</ele><time>2026-04-19T11:17:35.817Z</time></trkpt><trkpt lat="42.4881999" lon="13.3598271"><ele>1181.0</ele><time>2026-04-19T11:17:36.818Z</time></trkpt><trkpt lat="42.4880848" lon="13.359862"><ele>1181.0</ele><time>2026-04-19T11:17:37.817Z</time></trkpt><trkpt lat="42.4879625" lon="13.3598417"><ele>1181.0</ele><time>2026-04-19T11:17:38.817Z</time></trkpt><trkpt lat="42.4878311" lon="13.3597644"><ele>1181.0</ele><time>2026-04-19T11:17:39.817Z</time></trkpt><trkpt lat="42.4877181" lon="13.3596426"><ele>1181.0</ele><time>2026-04-19T11:17:40.818Z</time></trkpt><trkpt lat="42.4876213" lon="13.3595125"><ele>1181.0</ele><time>2026-04-19T11:17:41.817Z</time></trkpt><trkpt lat="42.4875089" lon="13.3593913"><ele>1181.0</ele><time>2026-04-19T11:17:42.817Z</time></trkpt><trkpt lat="42.4873897" lon="13.3593247"><ele>1181.0</ele><time>2026-04-19T11:17:43.817Z</time></trkpt><trkpt lat="42.4872617" lon="13.359307"><ele>1181.0</ele><time>2026-04-19T11:17:44.817Z</time></trkpt><trkpt lat="42.4871203" lon="13.3593293"><ele>1181.0</ele><time>2026-04-19T11:17:45.817Z</time></trkpt><trkpt lat="42.4869959" lon="13.3593898"><ele>1181.0</ele><time>2026-04-19T11:17:46.817Z</time></trkpt><trkpt lat="42.4869015" lon="13.3594797"><ele>1181.0</ele><time>2026-04-19T11:17:47.817Z</time></trkpt><trkpt lat="42.4868281" lon="13.3596083"><ele>1180.3333333333335</ele><time>2026-04-19T11:17:48.817Z</time></trkpt><trkpt lat="42.4867778" lon="13.3597633"><ele>1179.6666666666667</ele><time>2026-04-19T11:17:49.816Z</time></trkpt><trkpt lat="42.4867698" lon="13.3599682"><ele>1179.0</ele><time>2026-04-19T11:17:50.817Z</time></trkpt><trkpt lat="42.4867795" lon="13.3602118"><ele>1179.0</ele><time>2026-04-19T11:17:51.817Z</time></trkpt><trkpt lat="42.4867947" lon="13.360493"><ele>1179.0</ele><time>2026-04-19T11:17:52.816Z</time></trkpt><trkpt lat="42.4868079" lon="13.360792"><ele>1179.0</ele><time>2026-04-19T11:17:53.817Z</time></trkpt><trkpt lat="42.4868159" lon="13.3611169"><ele>1177.0</ele><time>2026-04-19T11:17:54.816Z</time></trkpt><trkpt lat="42.4868269" lon="13.3614581"><ele>1175.0</ele><time>2026-04-19T11:17:55.816Z</time></trkpt><trkpt lat="42.4868447" lon="13.3617944"><ele>1175.0</ele><time>2026-04-19T11:17:56.816Z</time></trkpt><trkpt lat="42.4868582" lon="13.362091"><ele>1175.0</ele><time>2026-04-19T11:17:57.816Z</time></trkpt><trkpt lat="42.4868697" lon="13.3623414"><ele>1175.0</ele><time>2026-04-19T11:17:58.817Z</time></trkpt><trkpt lat="42.4868676" lon="13.3625624"><ele>1174.3333333333335</ele><time>2026-04-19T11:17:59.816Z</time></trkpt><trkpt lat="42.4868538" lon="13.3627867"><ele>1173.6666666666667</ele><time>2026-04-19T11:18:00.817Z</time></trkpt><trkpt lat="42.4868209" lon="13.3629862"><ele>1173.0</ele><time>2026-04-19T11:18:01.817Z</time></trkpt><trkpt lat="42.4867627" lon="13.3631806"><ele>1171.75</ele><time>2026-04-19T11:18:02.817Z</time></trkpt><trkpt lat="42.4867041" lon="13.3633667"><ele>1170.5</ele><time>2026-04-19T11:18:03.816Z</time></trkpt><trkpt lat="42.4866475" lon="13.363544"><ele>1169.25</ele><time>2026-04-19T11:18:04.816Z</time></trkpt><trkpt lat="42.4865877" lon="13.3637042"><ele>1168.0</ele><time>2026-04-19T11:18:05.816Z</time></trkpt><trkpt lat="42.4865291" lon="13.3638417"><ele>1168.6</ele><time>2026-04-19T11:18:06.816Z</time></trkpt><trkpt lat="42.4864853" lon="13.3639364"><ele>1169.1999999999998</ele><time>2026-04-19T11:18:07.817Z</time></trkpt><trkpt lat="42.486419" lon="13.3640502"><ele>1169.8</ele><time>2026-04-19T11:18:09.816Z</time></trkpt><trkpt lat="42.4862973" lon="13.3641585"><ele>1170.3999999999999</ele><time>2026-04-19T11:18:11.816Z</time></trkpt><trkpt lat="42.4861914" lon="13.3641969"><ele>1171.0</ele><time>2026-04-19T11:18:12.816Z</time></trkpt><trkpt lat="42.4860639" lon="13.3642429"><ele>1171.0</ele><time>2026-04-19T11:18:13.817Z</time></trkpt><trkpt lat="42.4859155" lon="13.3642868"><ele>1171.0</ele><time>2026-04-19T11:18:14.817Z</time></trkpt><trkpt lat="42.4857491" lon="13.364351"><ele>1171.0</ele><time>2026-04-19T11:18:15.816Z</time></trkpt><trkpt lat="42.485555" lon="13.3644188"><ele>1172.6666666666665</ele><time>2026-04-19T11:18:16.816Z</time></trkpt><trkpt lat="42.4853502" lon="13.3644734"><ele>1174.3333333333333</ele><time>2026-04-19T11:18:17.816Z</time></trkpt><trkpt lat="42.4851511" lon="13.3645261"><ele>1176.0</ele><time>2026-04-19T11:18:18.816Z</time></trkpt><trkpt lat="42.4849483" lon="13.364566"><ele>1176.0</ele><time>2026-04-19T11:18:19.816Z</time></trkpt><trkpt lat="42.4847494" lon="13.3645681"><ele>1176.0</ele><time>2026-04-19T11:18:20.816Z</time></trkpt><trkpt lat="42.4845311" lon="13.364524"><ele>1176.0</ele><time>2026-04-19T11:18:21.817Z</time></trkpt><trkpt lat="42.4843022" lon="13.3644566"><ele>1180.5</ele><time>2026-04-19T11:18:22.816Z</time></trkpt><trkpt lat="42.4840716" lon="13.3643522"><ele>1185.0</ele><time>2026-04-19T11:18:23.816Z</time></trkpt><trkpt lat="42.483858" lon="13.3642249"><ele>1183.6666666666667</ele><time>2026-04-19T11:18:24.816Z</time></trkpt><trkpt lat="42.4836649" lon="13.3640858"><ele>1182.3333333333335</ele><time>2026-04-19T11:18:25.817Z</time></trkpt><trkpt lat="42.483509" lon="13.3639158"><ele>1181.0</ele><time>2026-04-19T11:18:26.816Z</time></trkpt><trkpt lat="42.483364" lon="13.3637194"><ele>1184.3333333333335</ele><time>2026-04-19T11:18:27.816Z</time></trkpt><trkpt lat="42.4832403" lon="13.3635065"><ele>1187.6666666666667</ele><time>2026-04-19T11:18:28.817Z</time></trkpt><trkpt lat="42.4831407" lon="13.3632795"><ele>1191.0</ele><time>2026-04-19T11:18:29.817Z</time></trkpt><trkpt lat="42.4830617" lon="13.3630174"><ele>1193.6666666666667</ele><time>2026-04-19T11:18:30.816Z</time></trkpt><trkpt lat="42.4830035" lon="13.3627334"><ele>1196.3333333333335</ele><time>2026-04-19T11:18:31.817Z</time></trkpt><trkpt lat="42.4829524" lon="13.3624471"><ele>1199.0</ele><time>2026-04-19T11:18:32.817Z</time></trkpt><trkpt lat="42.4829008" lon="13.3621761"><ele>1199.0</ele><time>2026-04-19T11:18:33.816Z</time></trkpt><trkpt lat="42.4828572" lon="13.3619268"><ele>1199.0</ele><time>2026-04-19T11:18:34.817Z</time></trkpt><trkpt lat="42.4828143" lon="13.361698"><ele>1199.0</ele><time>2026-04-19T11:18:35.816Z</time></trkpt><trkpt lat="42.4827742" lon="13.3614846"><ele>1201.25</ele><time>2026-04-19T11:18:36.817Z</time></trkpt><trkpt lat="42.4827334" lon="13.3612877"><ele>1203.5</ele><time>2026-04-19T11:18:37.816Z</time></trkpt><trkpt lat="42.4826883" lon="13.3611226"><ele>1205.75</ele><time>2026-04-19T11:18:38.816Z</time></trkpt><trkpt lat="42.4826262" lon="13.3609821"><ele>1208.0</ele><time>2026-04-19T11:18:39.817Z</time></trkpt><trkpt lat="42.48255" lon="13.3608648"><ele>1208.0</ele><time>2026-04-19T11:18:40.816Z</time></trkpt><trkpt lat="42.4824536" lon="13.3607889"><ele>1208.0</ele><time>2026-04-19T11:18:41.816Z</time></trkpt><trkpt lat="42.4823513" lon="13.3607533"><ele>1208.0</ele><time>2026-04-19T11:18:42.816Z</time></trkpt><trkpt lat="42.4822562" lon="13.3607818"><ele>1208.0</ele><time>2026-04-19T11:18:43.816Z</time></trkpt><trkpt lat="42.482168" lon="13.3608541"><ele>1208.0</ele><time>2026-04-19T11:18:44.816Z</time></trkpt><trkpt lat="42.4821108" lon="13.3609546"><ele>1210.75</ele><time>2026-04-19T11:18:45.816Z</time></trkpt><trkpt lat="42.4820711" lon="13.3610849"><ele>1213.5</ele><time>2026-04-19T11:18:46.816Z</time></trkpt><trkpt lat="42.4820625" lon="13.3612601"><ele>1216.25</ele><time>2026-04-19T11:18:47.816Z</time></trkpt><trkpt lat="42.4820673" lon="13.3614816"><ele>1219.0</ele><time>2026-04-19T11:18:48.816Z</time></trkpt><trkpt lat="42.4820584" lon="13.3617355"><ele>1219.3333333333333</ele><time>2026-04-19T11:18:49.816Z</time></trkpt><trkpt lat="42.4820233" lon="13.3620047"><ele>1219.6666666666667</ele><time>2026-04-19T11:18:50.816Z</time></trkpt><trkpt lat="42.4819613" lon="13.3622848"><ele>1220.0</ele><time>2026-04-19T11:18:51.816Z</time></trkpt><trkpt lat="42.4818691" lon="13.3625647"><ele>1218.5</ele><time>2026-04-19T11:18:52.816Z</time></trkpt><trkpt lat="42.4817536" lon="13.3628451"><ele>1217.0</ele><time>2026-04-19T11:18:53.816Z</time></trkpt><trkpt lat="42.4816484" lon="13.3631068"><ele>1214.6666666666667</ele><time>2026-04-19T11:18:54.816Z</time></trkpt><trkpt lat="42.4815499" lon="13.3633339"><ele>1212.3333333333333</ele><time>2026-04-19T11:18:55.816Z</time></trkpt><trkpt lat="42.4814606" lon="13.3635365"><ele>1210.0</ele><time>2026-04-19T11:18:56.816Z</time></trkpt><trkpt lat="42.4813841" lon="13.3637169"><ele>1210.0</ele><time>2026-04-19T11:18:57.817Z</time></trkpt><trkpt lat="42.4812964" lon="13.3638436"><ele>1210.0</ele><time>2026-04-19T11:18:58.816Z</time></trkpt><trkpt lat="42.4811953" lon="13.3639348"><ele>1210.0</ele><time>2026-04-19T11:18:59.816Z</time></trkpt><trkpt lat="42.4810868" lon="13.3639648"><ele>1210.0</ele><time>2026-04-19T11:19:00.816Z</time></trkpt><trkpt lat="42.4809585" lon="13.3639534"><ele>1210.3333333333333</ele><time>2026-04-19T11:19:01.817Z</time></trkpt><trkpt lat="42.4808256" lon="13.3638853"><ele>1210.6666666666667</ele><time>2026-04-19T11:19:02.816Z</time></trkpt><trkpt lat="42.4806918" lon="13.3637679"><ele>1211.0</ele><time>2026-04-19T11:19:03.817Z</time></trkpt><trkpt lat="42.4805325" lon="13.3636303"><ele>1214.5</ele><time>2026-04-19T11:19:04.817Z</time></trkpt><trkpt lat="42.4803502" lon="13.3634763"><ele>1218.0</ele><time>2026-04-19T11:19:05.816Z</time></trkpt><trkpt lat="42.4801615" lon="13.3632811"><ele>1218.0</ele><time>2026-04-19T11:19:06.816Z</time></trkpt><trkpt lat="42.479979" lon="13.3630559"><ele>1218.0</ele><time>2026-04-19T11:19:07.816Z</time></trkpt><trkpt lat="42.4798017" lon="13.3628294"><ele>1221.5</ele><time>2026-04-19T11:19:08.817Z</time></trkpt><trkpt lat="42.4796122" lon="13.3626164"><ele>1225.0</ele><time>2026-04-19T11:19:09.816Z</time></trkpt><trkpt lat="42.4794256" lon="13.3624278"><ele>1225.0</ele><time>2026-04-19T11:19:10.817Z</time></trkpt><trkpt lat="42.4792277" lon="13.3622919"><ele>1225.0</ele><time>2026-04-19T11:19:11.816Z</time></trkpt><trkpt lat="42.47902" lon="13.3621735"><ele>1225.0</ele><time>2026-04-19T11:19:12.816Z</time></trkpt><trkpt lat="42.4788063" lon="13.3620635"><ele>1228.5</ele><time>2026-04-19T11:19:13.817Z</time></trkpt><trkpt lat="42.4785932" lon="13.3619179"><ele>1232.0</ele><time>2026-04-19T11:19:14.817Z</time></trkpt><trkpt lat="42.478376" lon="13.3617203"><ele>1232.0</ele><time>2026-04-19T11:19:15.817Z</time></trkpt><trkpt lat="42.4781505" lon="13.3614893"><ele>1232.0</ele><time>2026-04-19T11:19:16.817Z</time></trkpt><trkpt lat="42.4779144" lon="13.3612536"><ele>1234.5</ele><time>2026-04-19T11:19:17.816Z</time></trkpt><trkpt lat="42.4776657" lon="13.3610018"><ele>1237.0</ele><time>2026-04-19T11:19:18.817Z</time></trkpt><trkpt lat="42.4774134" lon="13.3607438"><ele>1241.5</ele><time>2026-04-19T11:19:19.817Z</time></trkpt><trkpt lat="42.4771635" lon="13.3604821"><ele>1246.0</ele><time>2026-04-19T11:19:20.817Z</time></trkpt><trkpt lat="42.4769093" lon="13.360216"><ele>1246.0</ele><time>2026-04-19T11:19:21.825Z</time></trkpt><trkpt lat="42.4766597" lon="13.3599528"><ele>1246.0</ele><time>2026-04-19T11:19:22.825Z</time></trkpt><trkpt lat="42.4764192" lon="13.3597073"><ele>1249.5</ele><time>2026-04-19T11:19:23.825Z</time></trkpt><trkpt lat="42.4762016" lon="13.359479"><ele>1253.0</ele><time>2026-04-19T11:19:24.825Z</time></trkpt><trkpt lat="42.4759891" lon="13.3592607"><ele>1253.0</ele><time>2026-04-19T11:19:25.825Z</time></trkpt><trkpt lat="42.4757842" lon="13.3590473"><ele>1253.0</ele><time>2026-04-19T11:19:26.824Z</time></trkpt><trkpt lat="42.4755863" lon="13.3588392"><ele>1257.5</ele><time>2026-04-19T11:19:27.824Z</time></trkpt><trkpt lat="42.4753931" lon="13.3586452"><ele>1262.0</ele><time>2026-04-19T11:19:28.824Z</time></trkpt><trkpt lat="42.4752092" lon="13.3584584"><ele>1262.0</ele><time>2026-04-19T11:19:29.824Z</time></trkpt><trkpt lat="42.4750404" lon="13.3582648"><ele>1262.0</ele><time>2026-04-19T11:19:30.824Z</time></trkpt><trkpt lat="42.4748882" lon="13.3580564"><ele>1262.0</ele><time>2026-04-19T11:19:31.824Z</time></trkpt><trkpt lat="42.4747647" lon="13.3578347"><ele>1261.3333333333335</ele><time>2026-04-19T11:19:32.824Z</time></trkpt><trkpt lat="42.4746578" lon="13.3576182"><ele>1260.6666666666667</ele><time>2026-04-19T11:19:33.824Z</time></trkpt><trkpt lat="42.4745394" lon="13.3574318"><ele>1260.0</ele><time>2026-04-19T11:19:34.825Z</time></trkpt><trkpt lat="42.4744079" lon="13.3572619"><ele>1264.0</ele><time>2026-04-19T11:19:35.824Z</time></trkpt><trkpt lat="42.4742489" lon="13.3571217"><ele>1268.0</ele><time>2026-04-19T11:19:36.825Z</time></trkpt><trkpt lat="42.4740678" lon="13.3570239"><ele>1272.0</ele><time>2026-04-19T11:19:37.824Z</time></trkpt><trkpt lat="42.4738665" lon="13.3569442"><ele>1271.6666666666667</ele><time>2026-04-19T11:19:38.825Z</time></trkpt><trkpt lat="42.473652" lon="13.3568652"><ele>1271.3333333333335</ele><time>2026-04-19T11:19:39.824Z</time></trkpt><trkpt lat="42.4734392" lon="13.3567671"><ele>1271.0</ele><time>2026-04-19T11:19:40.825Z</time></trkpt><trkpt lat="42.4732255" lon="13.3566412"><ele>1271.0</ele><time>2026-04-19T11:19:41.824Z</time></trkpt><trkpt lat="42.4730124" lon="13.3564719"><ele>1271.0</ele><time>2026-04-19T11:19:42.825Z</time></trkpt><trkpt lat="42.4728022" lon="13.356251"><ele>1274.5</ele><time>2026-04-19T11:19:43.825Z</time></trkpt><trkpt lat="42.4725798" lon="13.3559963"><ele>1278.0</ele><time>2026-04-19T11:19:44.824Z</time></trkpt><trkpt lat="42.4723451" lon="13.3557386"><ele>1278.5</ele><time>2026-04-19T11:19:45.825Z</time></trkpt><trkpt lat="42.4721014" lon="13.3554716"><ele>1279.0</ele><time>2026-04-19T11:19:46.825Z</time></trkpt><trkpt lat="42.4718584" lon="13.3552149"><ele>1279.0</ele><time>2026-04-19T11:19:47.824Z</time></trkpt><trkpt lat="42.47163" lon="13.3549763"><ele>1279.0</ele><time>2026-04-19T11:19:48.824Z</time></trkpt><trkpt lat="42.4714178" lon="13.3547471"><ele>1280.5</ele><time>2026-04-19T11:19:49.824Z</time></trkpt><trkpt lat="42.471221" lon="13.3545246"><ele>1282.0</ele><time>2026-04-19T11:19:50.824Z</time></trkpt><trkpt lat="42.4710326" lon="13.354322"><ele>1282.0</ele><time>2026-04-19T11:19:51.824Z</time></trkpt><trkpt lat="42.470856" lon="13.3541154"><ele>1282.0</ele><time>2026-04-19T11:19:52.825Z</time></trkpt><trkpt lat="42.4706723" lon="13.3539211"><ele>1280.6666666666665</ele><time>2026-04-19T11:19:53.825Z</time></trkpt><trkpt lat="42.4704911" lon="13.3537554"><ele>1279.3333333333333</ele><time>2026-04-19T11:19:54.824Z</time></trkpt><trkpt lat="42.4703049" lon="13.3536381"><ele>1278.0</ele><time>2026-04-19T11:19:55.825Z</time></trkpt><trkpt lat="42.4701138" lon="13.3535482"><ele>1278.0</ele><time>2026-04-19T11:19:56.824Z</time></trkpt><trkpt lat="42.4699114" lon="13.353504"><ele>1278.0</ele><time>2026-04-19T11:19:57.824Z</time></trkpt><trkpt lat="42.4697006" lon="13.3534989"><ele>1278.0</ele><time>2026-04-19T11:19:58.824Z</time></trkpt><trkpt lat="42.4694999" lon="13.3535125"><ele>1280.0</ele><time>2026-04-19T11:19:59.824Z</time></trkpt><trkpt lat="42.4692923" lon="13.3535467"><ele>1282.0</ele><time>2026-04-19T11:20:00.824Z</time></trkpt><trkpt lat="42.4690978" lon="13.3536001"><ele>1284.0</ele><time>2026-04-19T11:20:01.825Z</time></trkpt><trkpt lat="42.4689165" lon="13.3536516"><ele>1284.6666666666667</ele><time>2026-04-19T11:20:02.825Z</time></trkpt><trkpt lat="42.4687631" lon="13.3537139"><ele>1285.3333333333335</ele><time>2026-04-19T11:20:03.824Z</time></trkpt><trkpt lat="42.4686129" lon="13.3538178"><ele>1286.0</ele><time>2026-04-19T11:20:04.824Z</time></trkpt><trkpt lat="42.4684708" lon="13.35399"><ele>1286.0</ele><time>2026-04-19T11:20:05.825Z</time></trkpt><trkpt lat="42.4683456" lon="13.3542029"><ele>1286.0</ele><time>2026-04-19T11:20:06.825Z</time></trkpt><trkpt lat="42.4682231" lon="13.3544131"><ele>1286.0</ele><time>2026-04-19T11:20:07.824Z</time></trkpt><trkpt lat="42.4681025" lon="13.3545912"><ele>1287.5</ele><time>2026-04-19T11:20:08.825Z</time></trkpt><trkpt lat="42.4679925" lon="13.3547438"><ele>1289.0</ele><time>2026-04-19T11:20:09.824Z</time></trkpt><trkpt lat="42.4678838" lon="13.354859"><ele>1290.5</ele><time>2026-04-19T11:20:10.824Z</time></trkpt><trkpt lat="42.4677807" lon="13.3549383"><ele>1292.0</ele><time>2026-04-19T11:20:11.824Z</time></trkpt><trkpt lat="42.4676607" lon="13.3549672"><ele>1292.0</ele><time>2026-04-19T11:20:12.824Z</time></trkpt><trkpt lat="42.4675407" lon="13.3549441"><ele>1292.0</ele><time>2026-04-19T11:20:13.825Z</time></trkpt><trkpt lat="42.4673995" lon="13.3548809"><ele>1292.0</ele><time>2026-04-19T11:20:14.825Z</time></trkpt><trkpt lat="42.46724" lon="13.3548178"><ele>1292.0</ele><time>2026-04-19T11:20:15.824Z</time></trkpt><trkpt lat="42.4670472" lon="13.3547657"><ele>1292.0</ele><time>2026-04-19T11:20:16.825Z</time></trkpt><trkpt lat="42.4668397" lon="13.3547439"><ele>1292.0</ele><time>2026-04-19T11:20:17.825Z</time></trkpt><trkpt lat="42.466645" lon="13.3547425"><ele>1292.0</ele><time>2026-04-19T11:20:18.825Z</time></trkpt><trkpt lat="42.4664547" lon="13.3547828"><ele>1288.3333333333335</ele><time>2026-04-19T11:20:19.825Z</time></trkpt><trkpt lat="42.4662488" lon="13.3548706"><ele>1284.6666666666667</ele><time>2026-04-19T11:20:20.825Z</time></trkpt><trkpt lat="42.4660426" lon="13.3550106"><ele>1281.0</ele><time>2026-04-19T11:20:21.824Z</time></trkpt><trkpt lat="42.4658291" lon="13.3551714"><ele>1281.0</ele><time>2026-04-19T11:20:22.824Z</time></trkpt><trkpt lat="42.4656096" lon="13.3553495"><ele>1281.0</ele><time>2026-04-19T11:20:23.825Z</time></trkpt><trkpt lat="42.4654094" lon="13.3555216"><ele>1285.6666666666667</ele><time>2026-04-19T11:20:24.824Z</time></trkpt><trkpt lat="42.465227" lon="13.3556915"><ele>1290.3333333333335</ele><time>2026-04-19T11:20:25.824Z</time></trkpt><trkpt lat="42.4650666" lon="13.3558305"><ele>1295.0</ele><time>2026-04-19T11:20:26.824Z</time></trkpt><trkpt lat="42.4649226" lon="13.3559383"><ele>1295.0</ele><time>2026-04-19T11:20:27.824Z</time></trkpt><trkpt lat="42.4647597" lon="13.3559993"><ele>1295.0</ele><time>2026-04-19T11:20:28.825Z</time></trkpt><trkpt lat="42.464583" lon="13.3560221"><ele>1295.0</ele><time>2026-04-19T11:20:29.824Z</time></trkpt><trkpt lat="42.4644068" lon="13.3559877"><ele>1292.3333333333335</ele><time>2026-04-19T11:20:30.824Z</time></trkpt><trkpt lat="42.4642436" lon="13.3559308"><ele>1289.6666666666667</ele><time>2026-04-19T11:20:31.824Z</time></trkpt><trkpt lat="42.4640733" lon="13.3559175"><ele>1287.0</ele><time>2026-04-19T11:20:32.824Z</time></trkpt><trkpt lat="42.4638975" lon="13.3559595"><ele>1283.6666666666667</ele><time>2026-04-19T11:20:33.824Z</time></trkpt><trkpt lat="42.463712" lon="13.3560486"><ele>1280.3333333333335</ele><time>2026-04-19T11:20:34.824Z</time></trkpt><trkpt lat="42.4635274" lon="13.3561649"><ele>1277.0</ele><time>2026-04-19T11:20:35.824Z</time></trkpt><trkpt lat="42.4633458" lon="13.3562801"><ele>1277.6666666666667</ele><time>2026-04-19T11:20:36.825Z</time></trkpt><trkpt lat="42.4631732" lon="13.3563937"><ele>1278.3333333333333</ele><time>2026-04-19T11:20:37.825Z</time></trkpt><trkpt lat="42.4630164" lon="13.3565096"><ele>1279.0</ele><time>2026-04-19T11:20:38.824Z</time></trkpt><trkpt lat="42.462882" lon="13.3566549"><ele>1279.0</ele><time>2026-04-19T11:20:39.825Z</time></trkpt><trkpt lat="42.4627527" lon="13.3568453"><ele>1279.0</ele><time>2026-04-19T11:20:40.824Z</time></trkpt><trkpt lat="42.4626583" lon="13.3570492"><ele>1279.0</ele><time>2026-04-19T11:20:41.825Z</time></trkpt><trkpt lat="42.4625842" lon="13.357242"><ele>1283.75</ele><time>2026-04-19T11:20:42.824Z</time></trkpt><trkpt lat="42.4625149" lon="13.3574233"><ele>1288.5</ele><time>2026-04-19T11:20:43.824Z</time></trkpt><trkpt lat="42.4624496" lon="13.357588"><ele>1293.25</ele><time>2026-04-19T11:20:44.824Z</time></trkpt><trkpt lat="42.462364" lon="13.357713"><ele>1298.0</ele><time>2026-04-19T11:20:45.825Z</time></trkpt><trkpt lat="42.4622713" lon="13.3577877"><ele>1298.0</ele><time>2026-04-19T11:20:46.825Z</time></trkpt><trkpt lat="42.4621571" lon="13.3578058"><ele>1298.0</ele><time>2026-04-19T11:20:47.825Z</time></trkpt><trkpt lat="42.4620575" lon="13.3577286"><ele>1298.0</ele><time>2026-04-19T11:20:48.825Z</time></trkpt><trkpt lat="42.4619678" lon="13.3576198"><ele>1298.0</ele><time>2026-04-19T11:20:49.825Z</time></trkpt><trkpt lat="42.4618946" lon="13.3574634"><ele>1298.25</ele><time>2026-04-19T11:20:50.824Z</time></trkpt><trkpt lat="42.4618139" lon="13.357311"><ele>1298.5</ele><time>2026-04-19T11:20:51.825Z</time></trkpt><trkpt lat="42.4617221" lon="13.357202"><ele>1298.75</ele><time>2026-04-19T11:20:52.824Z</time></trkpt><trkpt lat="42.4616174" lon="13.3571498"><ele>1299.0</ele><time>2026-04-19T11:20:53.824Z</time></trkpt><trkpt lat="42.4614967" lon="13.3571571"><ele>1299.0</ele><time>2026-04-19T11:20:54.825Z</time></trkpt><trkpt lat="42.4613799" lon="13.3572458"><ele>1299.0</ele><time>2026-04-19T11:20:55.825Z</time></trkpt><trkpt lat="42.4612597" lon="13.3573796"><ele>1299.0</ele><time>2026-04-19T11:20:56.825Z</time></trkpt><trkpt lat="42.461117" lon="13.3575259"><ele>1299.6666666666667</ele><time>2026-04-19T11:20:57.824Z</time></trkpt><trkpt lat="42.460973" lon="13.357659"><ele>1300.3333333333335</ele><time>2026-04-19T11:20:58.825Z</time></trkpt><trkpt lat="42.4608412" lon="13.357771"><ele>1301.0</ele><time>2026-04-19T11:20:59.825Z</time></trkpt><trkpt lat="42.4607136" lon="13.3578704"><ele>1301.0</ele><time>2026-04-19T11:21:00.825Z</time></trkpt><trkpt lat="42.4605869" lon="13.3579366"><ele>1301.0</ele><time>2026-04-19T11:21:01.825Z</time></trkpt><trkpt lat="42.4604655" lon="13.3579694"><ele>1301.0</ele><time>2026-04-19T11:21:02.825Z</time></trkpt><trkpt lat="42.4603582" lon="13.3579462"><ele>1301.0</ele><time>2026-04-19T11:21:03.825Z</time></trkpt><trkpt lat="42.460269" lon="13.3578699"><ele>1306.0</ele><time>2026-04-19T11:21:04.825Z</time></trkpt><trkpt lat="42.4602263" lon="13.357751"><ele>1311.0</ele><time>2026-04-19T11:21:05.824Z</time></trkpt><trkpt lat="42.4602234" lon="13.3576137"><ele>1316.0</ele><time>2026-04-19T11:21:06.824Z</time></trkpt><trkpt lat="42.4602592" lon="13.3574571"><ele>1321.0</ele><time>2026-04-19T11:21:07.825Z</time></trkpt><trkpt lat="42.4603382" lon="13.3572997"><ele>1322.6666666666665</ele><time>2026-04-19T11:21:08.824Z</time></trkpt><trkpt lat="42.4604283" lon="13.3571286"><ele>1324.3333333333333</ele><time>2026-04-19T11:21:09.825Z</time></trkpt><trkpt lat="42.4605358" lon="13.3569456"><ele>1326.0</ele><time>2026-04-19T11:21:10.825Z</time></trkpt><trkpt lat="42.4606366" lon="13.3567467"><ele>1318.0</ele><time>2026-04-19T11:21:11.825Z</time></trkpt><trkpt lat="42.4607348" lon="13.3565419"><ele>1310.0</ele><time>2026-04-19T11:21:12.825Z</time></trkpt><trkpt lat="42.4608117" lon="13.3563365"><ele>1302.0</ele><time>2026-04-19T11:21:13.825Z</time></trkpt><trkpt lat="42.4608462" lon="13.3560992"><ele>1302.0</ele><time>2026-04-19T11:21:14.824Z</time></trkpt><trkpt lat="42.4608582" lon="13.3558656"><ele>1302.0</ele><time>2026-04-19T11:21:15.825Z</time></trkpt><trkpt lat="42.4608341" lon="13.3556296"><ele>1302.0</ele><time>2026-04-19T11:21:16.825Z</time></trkpt><trkpt lat="42.4608052" lon="13.3553946"><ele>1301.0</ele><time>2026-04-19T11:21:17.825Z</time></trkpt><trkpt lat="42.4607705" lon="13.355153"><ele>1300.0</ele><time>2026-04-19T11:21:18.824Z</time></trkpt><trkpt lat="42.4607413" lon="13.3549247"><ele>1299.0</ele><time>2026-04-19T11:21:19.824Z</time></trkpt><trkpt lat="42.4607011" lon="13.3546945"><ele>1297.3333333333333</ele><time>2026-04-19T11:21:20.825Z</time></trkpt><trkpt lat="42.4606575" lon="13.3544705"><ele>1295.6666666666665</ele><time>2026-04-19T11:21:21.825Z</time></trkpt><trkpt lat="42.460613" lon="13.3542402"><ele>1294.0</ele><time>2026-04-19T11:21:22.824Z</time></trkpt><trkpt lat="42.4605648" lon="13.3540092"><ele>1291.0</ele><time>2026-04-19T11:21:23.824Z</time></trkpt><trkpt lat="42.4605002" lon="13.353784"><ele>1288.0</ele><time>2026-04-19T11:21:24.824Z</time></trkpt><trkpt lat="42.4604045" lon="13.3535659"><ele>1285.0</ele><time>2026-04-19T11:21:25.824Z</time></trkpt><trkpt lat="42.4602742" lon="13.3533383"><ele>1294.0</ele><time>2026-04-19T11:21:26.825Z</time></trkpt><trkpt lat="42.4601324" lon="13.3530985"><ele>1303.0</ele><time>2026-04-19T11:21:27.825Z</time></trkpt><trkpt lat="42.4599818" lon="13.3528372"><ele>1303.5</ele><time>2026-04-19T11:21:28.824Z</time></trkpt><trkpt lat="42.4598409" lon="13.3525676"><ele>1304.0</ele><time>2026-04-19T11:21:29.824Z</time></trkpt><trkpt lat="42.4597117" lon="13.3523024"><ele>1301.5</ele><time>2026-04-19T11:21:30.825Z</time></trkpt><trkpt lat="42.4595876" lon="13.3520299"><ele>1299.0</ele><time>2026-04-19T11:21:31.824Z</time></trkpt><trkpt lat="42.4594697" lon="13.351728"><ele>1299.0</ele><time>2026-04-19T11:21:32.824Z</time></trkpt><trkpt lat="42.4593537" lon="13.3513992"><ele>1299.0</ele><time>2026-04-19T11:21:33.825Z</time></trkpt><trkpt lat="42.4592444" lon="13.3510565"><ele>1299.5</ele><time>2026-04-19T11:21:34.825Z</time></trkpt><trkpt lat="42.4591468" lon="13.3507057"><ele>1300.0</ele><time>2026-04-19T11:21:35.824Z</time></trkpt><trkpt lat="42.4590613" lon="13.3503709"><ele>1300.0</ele><time>2026-04-19T11:21:36.825Z</time></trkpt><trkpt lat="42.4589763" lon="13.3500541"><ele>1300.0</ele><time>2026-04-19T11:21:37.824Z</time></trkpt><trkpt lat="42.4588931" lon="13.3497537"><ele>1301.3333333333333</ele><time>2026-04-19T11:21:38.824Z</time></trkpt><trkpt lat="42.458796" lon="13.34948"><ele>1302.6666666666667</ele><time>2026-04-19T11:21:39.825Z</time></trkpt><trkpt lat="42.4586763" lon="13.3492476"><ele>1304.0</ele><time>2026-04-19T11:21:40.824Z</time></trkpt><trkpt lat="42.4585149" lon="13.3490462"><ele>1301.3333333333335</ele><time>2026-04-19T11:21:41.824Z</time></trkpt><trkpt lat="42.4583394" lon="13.3488504"><ele>1298.6666666666667</ele><time>2026-04-19T11:21:42.824Z</time></trkpt><trkpt lat="42.4581785" lon="13.3486515"><ele>1296.0</ele><time>2026-04-19T11:21:43.825Z</time></trkpt><trkpt lat="42.4580349" lon="13.3484061"><ele>1292.3333333333333</ele><time>2026-04-19T11:21:44.825Z</time></trkpt><trkpt lat="42.4579224" lon="13.3481442"><ele>1288.6666666666665</ele><time>2026-04-19T11:21:45.825Z</time></trkpt><trkpt lat="42.457831" lon="13.3478646"><ele>1285.0</ele><time>2026-04-19T11:21:46.824Z</time></trkpt><trkpt lat="42.4577311" lon="13.3476035"><ele>1285.0</ele><time>2026-04-19T11:21:47.824Z</time></trkpt><trkpt lat="42.4576079" lon="13.3473996"><ele>1285.0</ele><time>2026-04-19T11:21:48.824Z</time></trkpt><trkpt lat="42.4574536" lon="13.3472051"><ele>1285.0</ele><time>2026-04-19T11:21:49.825Z</time></trkpt><trkpt lat="42.4572558" lon="13.3470566"><ele>1285.5</ele><time>2026-04-19T11:21:50.825Z</time></trkpt><trkpt lat="42.4570372" lon="13.3469233"><ele>1286.0</ele><time>2026-04-19T11:21:51.824Z</time></trkpt><trkpt lat="42.4568174" lon="13.3467985"><ele>1286.0</ele><time>2026-04-19T11:21:52.825Z</time></trkpt><trkpt lat="42.4566075" lon="13.3466836"><ele>1286.0</ele><time>2026-04-19T11:21:53.824Z</time></trkpt><trkpt lat="42.4564166" lon="13.3465531"><ele>1286.0</ele><time>2026-04-19T11:21:54.824Z</time></trkpt><trkpt lat="42.4562458" lon="13.346406"><ele>1283.6666666666667</ele><time>2026-04-19T11:21:55.824Z</time></trkpt><trkpt lat="42.4561091" lon="13.3462536"><ele>1281.3333333333333</ele><time>2026-04-19T11:21:56.824Z</time></trkpt><trkpt lat="42.4560133" lon="13.3460794"><ele>1279.0</ele><time>2026-04-19T11:21:57.824Z</time></trkpt><trkpt lat="42.455962" lon="13.3458721"><ele>1279.0</ele><time>2026-04-19T11:21:58.824Z</time></trkpt><trkpt lat="42.4559377" lon="13.3456094"><ele>1279.0</ele><time>2026-04-19T11:21:59.825Z</time></trkpt><trkpt lat="42.4559344" lon="13.345333"><ele>1279.0</ele><time>2026-04-19T11:22:00.824Z</time></trkpt><trkpt lat="42.4559298" lon="13.3450424"><ele>1277.6666666666665</ele><time>2026-04-19T11:22:01.824Z</time></trkpt><trkpt lat="42.4559177" lon="13.3447612"><ele>1276.3333333333333</ele><time>2026-04-19T11:22:02.825Z</time></trkpt><trkpt lat="42.4559127" lon="13.3444984"><ele>1275.0</ele><time>2026-04-19T11:22:03.824Z</time></trkpt><trkpt lat="42.4558922" lon="13.3442437"><ele>1276.3333333333333</ele><time>2026-04-19T11:22:04.824Z</time></trkpt><trkpt lat="42.4558543" lon="13.3440004"><ele>1277.6666666666665</ele><time>2026-04-19T11:22:05.825Z</time></trkpt><trkpt lat="42.4557879" lon="13.3437713"><ele>1279.0</ele><time>2026-04-19T11:22:06.824Z</time></trkpt><trkpt lat="42.4556858" lon="13.3435639"><ele>1279.0</ele><time>2026-04-19T11:22:07.824Z</time></trkpt><trkpt lat="42.4555406" lon="13.3433831"><ele>1279.0</ele><time>2026-04-19T11:22:08.824Z</time></trkpt><trkpt lat="42.4553572" lon="13.3432188"><ele>1279.0</ele><time>2026-04-19T11:22:09.824Z</time></trkpt><trkpt lat="42.4551533" lon="13.3430769"><ele>1282.5</ele><time>2026-04-19T11:22:10.825Z</time></trkpt><trkpt lat="42.4549268" lon="13.3429589"><ele>1286.0</ele><time>2026-04-19T11:22:11.825Z</time></trkpt><trkpt lat="42.4546924" lon="13.3428614"><ele>1279.5</ele><time>2026-04-19T11:22:12.825Z</time></trkpt><trkpt lat="42.4544462" lon="13.3427723"><ele>1273.0</ele><time>2026-04-19T11:22:13.825Z</time></trkpt><trkpt lat="42.4542206" lon="13.3426872"><ele>1273.0</ele><time>2026-04-19T11:22:14.825Z</time></trkpt><trkpt lat="42.454007" lon="13.3426108"><ele>1273.0</ele><time>2026-04-19T11:22:15.825Z</time></trkpt><trkpt lat="42.4537992" lon="13.342534"><ele>1273.0</ele><time>2026-04-19T11:22:16.824Z</time></trkpt><trkpt lat="42.4536088" lon="13.3424569"><ele>1269.3333333333333</ele><time>2026-04-19T11:22:17.824Z</time></trkpt><trkpt lat="42.4534189" lon="13.3423915"><ele>1265.6666666666667</ele><time>2026-04-19T11:22:18.825Z</time></trkpt><trkpt lat="42.4532383" lon="13.3423329"><ele>1262.0</ele><time>2026-04-19T11:22:19.824Z</time></trkpt><trkpt lat="42.4530654" lon="13.3422772"><ele>1262.3333333333335</ele><time>2026-04-19T11:22:20.825Z</time></trkpt><trkpt lat="42.4529032" lon="13.3422193"><ele>1262.6666666666667</ele><time>2026-04-19T11:22:21.825Z</time></trkpt><trkpt lat="42.452746" lon="13.3421615"><ele>1263.0</ele><time>2026-04-19T11:22:22.824Z</time></trkpt><trkpt lat="42.4526008" lon="13.3421107"><ele>1263.5</ele><time>2026-04-19T11:22:23.824Z</time></trkpt><trkpt lat="42.4524563" lon="13.3420624"><ele>1264.0</ele><time>2026-04-19T11:22:24.825Z</time></trkpt><trkpt lat="42.4523268" lon="13.3420128"><ele>1264.5</ele><time>2026-04-19T11:22:25.824Z</time></trkpt><trkpt lat="42.452199" lon="13.34197"><ele>1265.0</ele><time>2026-04-19T11:22:26.824Z</time></trkpt><trkpt lat="42.4520718" lon="13.3419288"><ele>1262.25</ele><time>2026-04-19T11:22:27.824Z</time></trkpt><trkpt lat="42.4519449" lon="13.3418962"><ele>1259.5</ele><time>2026-04-19T11:22:28.824Z</time></trkpt><trkpt lat="42.4518149" lon="13.3418691"><ele>1256.75</ele><time>2026-04-19T11:22:29.825Z</time></trkpt><trkpt lat="42.4516751" lon="13.3418488"><ele>1254.0</ele><time>2026-04-19T11:22:30.824Z</time></trkpt><trkpt lat="42.4515235" lon="13.3418431"><ele>1254.0</ele><time>2026-04-19T11:22:31.825Z</time></trkpt><trkpt lat="42.4513709" lon="13.341869"><ele>1254.0</ele><time>2026-04-19T11:22:32.824Z</time></trkpt><trkpt lat="42.4512255" lon="13.3419163"><ele>1254.0</ele><time>2026-04-19T11:22:33.824Z</time></trkpt><trkpt lat="42.4510863" lon="13.34198"><ele>1255.75</ele><time>2026-04-19T11:22:34.824Z</time></trkpt><trkpt lat="42.4509599" lon="13.3420596"><ele>1257.5</ele><time>2026-04-19T11:22:35.824Z</time></trkpt><trkpt lat="42.4508403" lon="13.3421724"><ele>1259.25</ele><time>2026-04-19T11:22:36.824Z</time></trkpt><trkpt lat="42.4507155" lon="13.3422986"><ele>1261.0</ele><time>2026-04-19T11:22:37.825Z</time></trkpt><trkpt lat="42.4505798" lon="13.3424287"><ele>1254.3333333333333</ele><time>2026-04-19T11:22:38.825Z</time></trkpt><trkpt lat="42.4504208" lon="13.3425447"><ele>1247.6666666666667</ele><time>2026-04-19T11:22:39.824Z</time></trkpt><trkpt lat="42.4502457" lon="13.342635"><ele>1241.0</ele><time>2026-04-19T11:22:40.824Z</time></trkpt><trkpt lat="42.4500586" lon="13.3427113"><ele>1241.0</ele><time>2026-04-19T11:22:41.824Z</time></trkpt><trkpt lat="42.4498835" lon="13.3427885"><ele>1241.0</ele><time>2026-04-19T11:22:42.824Z</time></trkpt><trkpt lat="42.4497067" lon="13.3428677"><ele>1241.0</ele><time>2026-04-19T11:22:43.824Z</time></trkpt><trkpt lat="42.4495275" lon="13.3429388"><ele>1236.6666666666667</ele><time>2026-04-19T11:22:44.825Z</time></trkpt><trkpt lat="42.4493387" lon="13.3429714"><ele>1232.3333333333333</ele><time>2026-04-19T11:22:45.824Z</time></trkpt><trkpt lat="42.4491427" lon="13.3429843"><ele>1228.0</ele><time>2026-04-19T11:22:46.825Z</time></trkpt><trkpt lat="42.448948" lon="13.3429799"><ele>1226.6666666666665</ele><time>2026-04-19T11:22:47.824Z</time></trkpt><trkpt lat="42.4487438" lon="13.3429501"><ele>1225.3333333333333</ele><time>2026-04-19T11:22:48.824Z</time></trkpt><trkpt lat="42.4485353" lon="13.3429075"><ele>1224.0</ele><time>2026-04-19T11:22:49.825Z</time></trkpt><trkpt lat="42.4483376" lon="13.3428961"><ele>1224.0</ele><time>2026-04-19T11:22:50.824Z</time></trkpt><trkpt lat="42.4481434" lon="13.3428877"><ele>1224.0</ele><time>2026-04-19T11:22:51.825Z</time></trkpt><trkpt lat="42.4479538" lon="13.3428768"><ele>1224.0</ele><time>2026-04-19T11:22:52.824Z</time></trkpt><trkpt lat="42.4477468" lon="13.3428333"><ele>1225.6666666666667</ele><time>2026-04-19T11:22:53.824Z</time></trkpt><trkpt lat="42.4475351" lon="13.3427447"><ele>1227.3333333333335</ele><time>2026-04-19T11:22:54.824Z</time></trkpt><trkpt lat="42.4473313" lon="13.3426301"><ele>1229.0</ele><time>2026-04-19T11:22:55.824Z</time></trkpt><trkpt lat="42.4471418" lon="13.3425022"><ele>1231.6666666666667</ele><time>2026-04-19T11:22:56.824Z</time></trkpt><trkpt lat="42.4469669" lon="13.3423891"><ele>1234.3333333333333</ele><time>2026-04-19T11:22:57.824Z</time></trkpt><trkpt lat="42.4468113" lon="13.3422656"><ele>1237.0</ele><time>2026-04-19T11:22:58.824Z</time></trkpt><trkpt lat="42.446674" lon="13.3421603"><ele>1231.25</ele><time>2026-04-19T11:22:59.825Z</time></trkpt><trkpt lat="42.4465405" lon="13.3420663"><ele>1225.5</ele><time>2026-04-19T11:23:00.824Z</time></trkpt><trkpt lat="42.4464111" lon="13.3420099"><ele>1219.75</ele><time>2026-04-19T11:23:01.825Z</time></trkpt><trkpt lat="42.4462748" lon="13.3419984"><ele>1214.0</ele><time>2026-04-19T11:23:02.825Z</time></trkpt><trkpt lat="42.446147" lon="13.3420488"><ele>1216.6666666666667</ele><time>2026-04-19T11:23:03.824Z</time></trkpt><trkpt lat="42.4460131" lon="13.3421629"><ele>1219.3333333333333</ele><time>2026-04-19T11:23:04.825Z</time></trkpt><trkpt lat="42.4458836" lon="13.3423073"><ele>1222.0</ele><time>2026-04-19T11:23:05.824Z</time></trkpt><trkpt lat="42.4457528" lon="13.3424462"><ele>1222.0</ele><time>2026-04-19T11:23:06.824Z</time></trkpt><trkpt lat="42.44563" lon="13.3425894"><ele>1222.0</ele><time>2026-04-19T11:23:07.825Z</time></trkpt><trkpt lat="42.4455401" lon="13.3427463"><ele>1222.0</ele><time>2026-04-19T11:23:08.825Z</time></trkpt><trkpt lat="42.4454657" lon="13.3429695"><ele>1211.6666666666665</ele><time>2026-04-19T11:23:09.825Z</time></trkpt><trkpt lat="42.4454114" lon="13.3432335"><ele>1201.3333333333333</ele><time>2026-04-19T11:23:10.824Z</time></trkpt><trkpt lat="42.4453651" lon="13.3435335"><ele>1191.0</ele><time>2026-04-19T11:23:11.825Z</time></trkpt><trkpt lat="42.4453108" lon="13.3438215"><ele>1193.6666666666667</ele><time>2026-04-19T11:23:12.825Z</time></trkpt><trkpt lat="42.44526" lon="13.34409"><ele>1196.3333333333335</ele><time>2026-04-19T11:23:13.824Z</time></trkpt><trkpt lat="42.4452228" lon="13.3443436"><ele>1199.0</ele><time>2026-04-19T11:23:14.824Z</time></trkpt><trkpt lat="42.4451921" lon="13.3445814"><ele>1200.0</ele><time>2026-04-19T11:23:15.824Z</time></trkpt><trkpt lat="42.4451699" lon="13.3448033"><ele>1201.0</ele><time>2026-04-19T11:23:16.824Z</time></trkpt><trkpt lat="42.4451612" lon="13.3450168"><ele>1202.0</ele><time>2026-04-19T11:23:17.824Z</time></trkpt><trkpt lat="42.4451548" lon="13.3452002"><ele>1202.0</ele><time>2026-04-19T11:23:18.825Z</time></trkpt><trkpt lat="42.4451431" lon="13.3453631"><ele>1202.0</ele><time>2026-04-19T11:23:19.824Z</time></trkpt><trkpt lat="42.4451135" lon="13.3455118"><ele>1202.0</ele><time>2026-04-19T11:23:20.824Z</time></trkpt><trkpt lat="42.4450567" lon="13.3456351"><ele>1202.0</ele><time>2026-04-19T11:23:21.824Z</time></trkpt><trkpt lat="42.4449689" lon="13.3457211"><ele>1202.25</ele><time>2026-04-19T11:23:22.824Z</time></trkpt><trkpt lat="42.4448502" lon="13.345773"><ele>1202.5</ele><time>2026-04-19T11:23:23.824Z</time></trkpt><trkpt lat="42.4447069" lon="13.345804"><ele>1202.75</ele><time>2026-04-19T11:23:24.825Z</time></trkpt><trkpt lat="42.4445466" lon="13.3458175"><ele>1203.0</ele><time>2026-04-19T11:23:25.824Z</time></trkpt><trkpt lat="42.4443655" lon="13.3458017"><ele>1203.0</ele><time>2026-04-19T11:23:26.825Z</time></trkpt><trkpt lat="42.4441713" lon="13.3457614"><ele>1203.0</ele><time>2026-04-19T11:23:27.824Z</time></trkpt><trkpt lat="42.4439758" lon="13.3456775"><ele>1203.0</ele><time>2026-04-19T11:23:28.824Z</time></trkpt><trkpt lat="42.443795" lon="13.3455748"><ele>1195.0</ele><time>2026-04-19T11:23:29.825Z</time></trkpt><trkpt lat="42.4436274" lon="13.3454797"><ele>1187.0</ele><time>2026-04-19T11:23:30.824Z</time></trkpt><trkpt lat="42.4434633" lon="13.3454118"><ele>1179.0</ele><time>2026-04-19T11:23:31.824Z</time></trkpt><trkpt lat="42.4432912" lon="13.3453836"><ele>1179.0</ele><time>2026-04-19T11:23:32.824Z</time></trkpt><trkpt lat="42.4431256" lon="13.3453954"><ele>1179.0</ele><time>2026-04-19T11:23:33.825Z</time></trkpt><trkpt lat="42.4429742" lon="13.3454256"><ele>1179.0</ele><time>2026-04-19T11:23:34.824Z</time></trkpt><trkpt lat="42.4428473" lon="13.345455"><ele>1179.0</ele><time>2026-04-19T11:23:35.824Z</time></trkpt><trkpt lat="42.4427293" lon="13.3454558"><ele>1183.0</ele><time>2026-04-19T11:23:36.824Z</time></trkpt><trkpt lat="42.4426351" lon="13.3454148"><ele>1187.0</ele><time>2026-04-19T11:23:37.824Z</time></trkpt><trkpt lat="42.4425468" lon="13.3453156"><ele>1191.0</ele><time>2026-04-19T11:23:38.825Z</time></trkpt><trkpt lat="42.4424921" lon="13.3451683"><ele>1195.0</ele><time>2026-04-19T11:23:39.824Z</time></trkpt><trkpt lat="42.4424579" lon="13.3449741"><ele>1195.0</ele><time>2026-04-19T11:23:40.824Z</time></trkpt><trkpt lat="42.4424298" lon="13.3447494"><ele>1195.0</ele><time>2026-04-19T11:23:41.825Z</time></trkpt><trkpt lat="42.4424055" lon="13.3445085"><ele>1195.0</ele><time>2026-04-19T11:23:42.825Z</time></trkpt><trkpt lat="42.4423912" lon="13.3442607"><ele>1192.3333333333333</ele><time>2026-04-19T11:23:43.824Z</time></trkpt><trkpt lat="42.4423937" lon="13.3440224"><ele>1189.6666666666667</ele><time>2026-04-19T11:23:44.825Z</time></trkpt><trkpt lat="42.4424026" lon="13.3438038"><ele>1187.0</ele><time>2026-04-19T11:23:45.824Z</time></trkpt><trkpt lat="42.4423844" lon="13.3435795"><ele>1190.6666666666667</ele><time>2026-04-19T11:23:46.825Z</time></trkpt><trkpt lat="42.4423224" lon="13.3433652"><ele>1194.3333333333333</ele><time>2026-04-19T11:23:47.824Z</time></trkpt><trkpt lat="42.4422286" lon="13.3431906"><ele>1198.0</ele><time>2026-04-19T11:23:48.824Z</time></trkpt><trkpt lat="42.4420998" lon="13.3430419"><ele>1198.0</ele><time>2026-04-19T11:23:49.825Z</time></trkpt><trkpt lat="42.4419811" lon="13.342903"><ele>1198.0</ele><time>2026-04-19T11:23:50.824Z</time></trkpt><trkpt lat="42.4418978" lon="13.3427201"><ele>1198.0</ele><time>2026-04-19T11:23:51.825Z</time></trkpt><trkpt lat="42.4418439" lon="13.3424866"><ele>1198.0</ele><time>2026-04-19T11:23:52.824Z</time></trkpt><trkpt lat="42.4418035" lon="13.3422507"><ele>1198.0</ele><time>2026-04-19T11:23:53.824Z</time></trkpt><trkpt lat="42.4417593" lon="13.3420279"><ele>1198.0</ele><time>2026-04-19T11:23:54.824Z</time></trkpt><trkpt lat="42.4417086" lon="13.3418108"><ele>1191.75</ele><time>2026-04-19T11:23:55.824Z</time></trkpt><trkpt lat="42.4416641" lon="13.3416236"><ele>1185.5</ele><time>2026-04-19T11:23:56.824Z</time></trkpt><trkpt lat="42.4415987" lon="13.341464"><ele>1179.25</ele><time>2026-04-19T11:23:57.824Z</time></trkpt><trkpt lat="42.4414931" lon="13.3413449"><ele>1173.0</ele><time>2026-04-19T11:23:58.825Z</time></trkpt><trkpt lat="42.4413389" lon="13.3412644"><ele>1170.6666666666667</ele><time>2026-04-19T11:23:59.824Z</time></trkpt><trkpt lat="42.4411767" lon="13.3412349"><ele>1168.3333333333335</ele><time>2026-04-19T11:24:00.825Z</time></trkpt><trkpt lat="42.4410182" lon="13.3411889"><ele>1166.0</ele><time>2026-04-19T11:24:01.824Z</time></trkpt><trkpt lat="42.4408742" lon="13.3410879"><ele>1166.0</ele><time>2026-04-19T11:24:02.824Z</time></trkpt><trkpt lat="42.4407398" lon="13.3409343"><ele>1166.0</ele><time>2026-04-19T11:24:03.824Z</time></trkpt><trkpt lat="42.4406057" lon="13.3407379"><ele>1166.0</ele><time>2026-04-19T11:24:04.824Z</time></trkpt><trkpt lat="42.4404857" lon="13.3405119"><ele>1166.0</ele><time>2026-04-19T11:24:05.825Z</time></trkpt><trkpt lat="42.4403705" lon="13.3402887"><ele>1166.0</ele><time>2026-04-19T11:24:06.825Z</time></trkpt><trkpt lat="42.440271" lon="13.3400828"><ele>1166.0</ele><time>2026-04-19T11:24:07.824Z</time></trkpt><trkpt lat="42.4401689" lon="13.3398972"><ele>1166.0</ele><time>2026-04-19T11:24:08.824Z</time></trkpt><trkpt lat="42.4400609" lon="13.3397399"><ele>1166.0</ele><time>2026-04-19T11:24:09.825Z</time></trkpt><trkpt lat="42.4399433" lon="13.3396127"><ele>1166.0</ele><time>2026-04-19T11:24:10.825Z</time></trkpt><trkpt lat="42.4397979" lon="13.3395132"><ele>1161.0</ele><time>2026-04-19T11:24:11.824Z</time></trkpt><trkpt lat="42.4396626" lon="13.3394603"><ele>1156.0</ele><time>2026-04-19T11:24:12.824Z</time></trkpt><trkpt lat="42.4395406" lon="13.3394566"><ele>1151.0</ele><time>2026-04-19T11:24:13.824Z</time></trkpt><trkpt lat="42.4394339" lon="13.3395009"><ele>1146.0</ele><time>2026-04-19T11:24:14.825Z</time></trkpt><trkpt lat="42.4393508" lon="13.3396043"><ele>1147.0</ele><time>2026-04-19T11:24:15.825Z</time></trkpt><trkpt lat="42.4392946" lon="13.3397597"><ele>1148.0</ele><time>2026-04-19T11:24:16.824Z</time></trkpt><trkpt lat="42.4392773" lon="13.3399463"><ele>1149.0</ele><time>2026-04-19T11:24:17.825Z</time></trkpt><trkpt lat="42.4392928" lon="13.3401441"><ele>1150.0</ele><time>2026-04-19T11:24:18.824Z</time></trkpt><trkpt lat="42.439318" lon="13.3403296"><ele>1150.0</ele><time>2026-04-19T11:24:19.825Z</time></trkpt><trkpt lat="42.4393251" lon="13.3404882"><ele>1150.0</ele><time>2026-04-19T11:24:20.825Z</time></trkpt><trkpt lat="42.4393095" lon="13.3406103"><ele>1150.0</ele><time>2026-04-19T11:24:21.825Z</time></trkpt><trkpt lat="42.439264" lon="13.340698"><ele>1150.0</ele><time>2026-04-19T11:24:22.824Z</time></trkpt><trkpt lat="42.4391951" lon="13.3407315"><ele>1150.0</ele><time>2026-04-19T11:24:23.825Z</time></trkpt><trkpt lat="42.439101" lon="13.3407135"><ele>1147.5</ele><time>2026-04-19T11:24:24.825Z</time></trkpt><trkpt lat="42.4389814" lon="13.3406533"><ele>1145.0</ele><time>2026-04-19T11:24:25.825Z</time></trkpt><trkpt lat="42.4388509" lon="13.3405762"><ele>1142.5</ele><time>2026-04-19T11:24:26.824Z</time></trkpt><trkpt lat="42.4386956" lon="13.3404859"><ele>1140.0</ele><time>2026-04-19T11:24:27.825Z</time></trkpt><trkpt lat="42.438541" lon="13.3404026"><ele>1140.0</ele><time>2026-04-19T11:24:28.825Z</time></trkpt><trkpt lat="42.4384091" lon="13.3403097"><ele>1140.0</ele><time>2026-04-19T11:24:29.825Z</time></trkpt><trkpt lat="42.4382923" lon="13.3401809"><ele>1140.0</ele><time>2026-04-19T11:24:30.824Z</time></trkpt><trkpt lat="42.4381828" lon="13.3400588"><ele>1140.0</ele><time>2026-04-19T11:24:31.824Z</time></trkpt><trkpt lat="42.4380855" lon="13.3399365"><ele>1140.0</ele><time>2026-04-19T11:24:32.824Z</time></trkpt><trkpt lat="42.437985" lon="13.339866"><ele>1140.0</ele><time>2026-04-19T11:24:33.824Z</time></trkpt><trkpt lat="42.4378775" lon="13.3398168"><ele>1140.0</ele><time>2026-04-19T11:24:34.824Z</time></trkpt><trkpt lat="42.4377667" lon="13.3398481"><ele>1140.0</ele><time>2026-04-19T11:24:35.825Z</time></trkpt><trkpt lat="42.4376649" lon="13.3399387"><ele>1138.75</ele><time>2026-04-19T11:24:36.824Z</time></trkpt><trkpt lat="42.4375877" lon="13.3400704"><ele>1137.5</ele><time>2026-04-19T11:24:37.824Z</time></trkpt><trkpt lat="42.4375447" lon="13.3402283"><ele>1136.25</ele><time>2026-04-19T11:24:38.824Z</time></trkpt><trkpt lat="42.4375471" lon="13.3403902"><ele>1135.0</ele><time>2026-04-19T11:24:39.825Z</time></trkpt><trkpt lat="42.4375904" lon="13.340556"><ele>1133.5</ele><time>2026-04-19T11:24:40.824Z</time></trkpt><trkpt lat="42.4376563" lon="13.3407083"><ele>1132.0</ele><time>2026-04-19T11:24:41.825Z</time></trkpt><trkpt lat="42.4377452" lon="13.3408614"><ele>1130.5</ele><time>2026-04-19T11:24:42.824Z</time></trkpt><trkpt lat="42.4378368" lon="13.3410365"><ele>1129.0</ele><time>2026-04-19T11:24:43.825Z</time></trkpt><trkpt lat="42.4379155" lon="13.3412134"><ele>1134.75</ele><time>2026-04-19T11:24:44.825Z</time></trkpt><trkpt lat="42.4379967" lon="13.3413776"><ele>1140.5</ele><time>2026-04-19T11:24:45.824Z</time></trkpt><trkpt lat="42.43806" lon="13.3415627"><ele>1146.25</ele><time>2026-04-19T11:24:46.824Z</time></trkpt><trkpt lat="42.4380998" lon="13.3417479"><ele>1152.0</ele><time>2026-04-19T11:24:47.824Z</time></trkpt><trkpt lat="42.4381214" lon="13.3419162"><ele>1153.2</ele><time>2026-04-19T11:24:48.824Z</time></trkpt><trkpt lat="42.4381083" lon="13.3420689"><ele>1154.4</ele><time>2026-04-19T11:24:49.825Z</time></trkpt><trkpt lat="42.4380689" lon="13.3421953"><ele>1155.6</ele><time>2026-04-19T11:24:50.824Z</time></trkpt><trkpt lat="42.4379899" lon="13.3423068"><ele>1156.8</ele><time>2026-04-19T11:24:51.824Z</time></trkpt><trkpt lat="42.43789" lon="13.342386"><ele>1158.0</ele><time>2026-04-19T11:24:52.824Z</time></trkpt><trkpt lat="42.4377904" lon="13.3424449"><ele>1149.8</ele><time>2026-04-19T11:24:53.824Z</time></trkpt><trkpt lat="42.437696" lon="13.3425191"><ele>1141.6</ele><time>2026-04-19T11:24:54.825Z</time></trkpt><trkpt lat="42.4376401" lon="13.3426406"><ele>1133.4</ele><time>2026-04-19T11:24:55.824Z</time></trkpt><trkpt lat="42.437616" lon="13.3427767"><ele>1125.2</ele><time>2026-04-19T11:24:56.825Z</time></trkpt><trkpt lat="42.4376204" lon="13.3429484"><ele>1117.0</ele><time>2026-04-19T11:24:57.825Z</time></trkpt><trkpt lat="42.4376426" lon="13.3431248"><ele>1117.0</ele><time>2026-04-19T11:24:58.825Z</time></trkpt><trkpt lat="42.4376518" lon="13.3433556"><ele>1117.0</ele><time>2026-04-19T11:24:59.824Z</time></trkpt><trkpt lat="42.43765" lon="13.3435669"><ele>1117.0</ele><time>2026-04-19T11:25:00.824Z</time></trkpt><trkpt lat="42.4376097" lon="13.3437811"><ele>1116.6666666666665</ele><time>2026-04-19T11:25:01.824Z</time></trkpt><trkpt lat="42.437591" lon="13.3439759"><ele>1116.3333333333333</ele><time>2026-04-19T11:25:02.825Z</time></trkpt><trkpt lat="42.4375763" lon="13.3442185"><ele>1116.0</ele><time>2026-04-19T11:25:03.824Z</time></trkpt><trkpt lat="42.4376228" lon="13.3444219"><ele>1116.0</ele><time>2026-04-19T11:25:04.824Z</time></trkpt><trkpt lat="42.4376757" lon="13.344646"><ele>1116.0</ele><time>2026-04-19T11:25:05.825Z</time></trkpt><trkpt lat="42.4377081" lon="13.3448971"><ele>1116.0</ele><time>2026-04-19T11:25:06.824Z</time></trkpt><trkpt lat="42.4377648" lon="13.3451305"><ele>1114.0</ele><time>2026-04-19T11:25:07.825Z</time></trkpt><trkpt lat="42.4378315" lon="13.3453635"><ele>1112.0</ele><time>2026-04-19T11:25:08.824Z</time></trkpt><trkpt lat="42.4378953" lon="13.3455642"><ele>1110.0</ele><time>2026-04-19T11:25:09.824Z</time></trkpt><trkpt lat="42.4379501" lon="13.3457212"><ele>1108.0</ele><time>2026-04-19T11:25:10.824Z</time></trkpt><trkpt lat="42.4380018" lon="13.3458495"><ele>1106.0</ele><time>2026-04-19T11:25:11.825Z</time></trkpt><trkpt lat="42.4380402" lon="13.3459769"><ele>1104.0</ele><time>2026-04-19T11:25:12.825Z</time></trkpt><trkpt lat="42.4380536" lon="13.3461021"><ele>1102.0</ele><time>2026-04-19T11:25:13.825Z</time></trkpt><trkpt lat="42.438023" lon="13.3462303"><ele>1100.0</ele><time>2026-04-19T11:25:14.824Z</time></trkpt><trkpt lat="42.4379239" lon="13.3463312"><ele>1107.25</ele><time>2026-04-19T11:25:15.825Z</time></trkpt><trkpt lat="42.4378066" lon="13.3464228"><ele>1114.5</ele><time>2026-04-19T11:25:16.824Z</time></trkpt><trkpt lat="42.4376913" lon="13.3464947"><ele>1121.75</ele><time>2026-04-19T11:25:17.824Z</time></trkpt><trkpt lat="42.4375677" lon="13.3465367"><ele>1129.0</ele><time>2026-04-19T11:25:18.824Z</time></trkpt><trkpt lat="42.4374093" lon="13.3465209"><ele>1129.0</ele><time>2026-04-19T11:25:19.824Z</time></trkpt><trkpt lat="42.4372477" lon="13.3464719"><ele>1129.0</ele><time>2026-04-19T11:25:20.824Z</time></trkpt><trkpt lat="42.437096" lon="13.3464167"><ele>1129.0</ele><time>2026-04-19T11:25:21.824Z</time></trkpt><trkpt lat="42.4369452" lon="13.3463612"><ele>1124.3333333333333</ele><time>2026-04-19T11:25:22.824Z</time></trkpt><trkpt lat="42.436791" lon="13.3463574"><ele>1119.6666666666667</ele><time>2026-04-19T11:25:23.824Z</time></trkpt><trkpt lat="42.4366423" lon="13.3464198"><ele>1115.0</ele><time>2026-04-19T11:25:24.825Z</time></trkpt><trkpt lat="42.4364947" lon="13.3465155"><ele>1115.0</ele><time>2026-04-19T11:25:25.825Z</time></trkpt><trkpt lat="42.4363279" lon="13.3466714"><ele>1115.0</ele><time>2026-04-19T11:25:26.825Z</time></trkpt><trkpt lat="42.4361449" lon="13.3468035"><ele>1115.0</ele><time>2026-04-19T11:25:27.824Z</time></trkpt><trkpt lat="42.4359638" lon="13.3469185"><ele>1118.3333333333335</ele><time>2026-04-19T11:25:28.824Z</time></trkpt><trkpt lat="42.4357973" lon="13.347021"><ele>1121.6666666666667</ele><time>2026-04-19T11:25:29.824Z</time></trkpt><trkpt lat="42.4356614" lon="13.3471269"><ele>1125.0</ele><time>2026-04-19T11:25:30.825Z</time></trkpt><trkpt lat="42.43554" lon="13.3472129"><ele>1126.4</ele><time>2026-04-19T11:25:31.825Z</time></trkpt><trkpt lat="42.4354331" lon="13.3472498"><ele>1127.8</ele><time>2026-04-19T11:25:32.825Z</time></trkpt><trkpt lat="42.4353331" lon="13.347251"><ele>1129.2</ele><time>2026-04-19T11:25:33.824Z</time></trkpt><trkpt lat="42.4352477" lon="13.347188"><ele>1130.6</ele><time>2026-04-19T11:25:34.824Z</time></trkpt><trkpt lat="42.4351702" lon="13.3470924"><ele>1132.0</ele><time>2026-04-19T11:25:35.824Z</time></trkpt><trkpt lat="42.4351167" lon="13.3469518"><ele>1126.6666666666665</ele><time>2026-04-19T11:25:36.825Z</time></trkpt><trkpt lat="42.4350925" lon="13.3467722"><ele>1121.3333333333333</ele><time>2026-04-19T11:25:37.824Z</time></trkpt><trkpt lat="42.4351013" lon="13.3465382"><ele>1116.0</ele><time>2026-04-19T11:25:38.824Z</time></trkpt><trkpt lat="42.4351058" lon="13.3462394"><ele>1113.3333333333333</ele><time>2026-04-19T11:25:39.825Z</time></trkpt><trkpt lat="42.4351081" lon="13.3459313"><ele>1110.6666666666665</ele><time>2026-04-19T11:25:40.824Z</time></trkpt><trkpt lat="42.4351173" lon="13.3456568"><ele>1108.0</ele><time>2026-04-19T11:25:41.824Z</time></trkpt><trkpt lat="42.4351184" lon="13.3454083"><ele>1104.3333333333333</ele><time>2026-04-19T11:25:42.825Z</time></trkpt><trkpt lat="42.4351041" lon="13.3451662"><ele>1100.6666666666667</ele><time>2026-04-19T11:25:43.824Z</time></trkpt><trkpt lat="42.4350789" lon="13.3449388"><ele>1097.0</ele><time>2026-04-19T11:25:44.824Z</time></trkpt><trkpt lat="42.4350204" lon="13.3447356"><ele>1098.3333333333335</ele><time>2026-04-19T11:25:45.825Z</time></trkpt><trkpt lat="42.4349156" lon="13.3445533"><ele>1099.6666666666667</ele><time>2026-04-19T11:25:46.825Z</time></trkpt><trkpt lat="42.4347759" lon="13.3443747"><ele>1101.0</ele><time>2026-04-19T11:25:47.825Z</time></trkpt><trkpt lat="42.4345996" lon="13.3442064"><ele>1101.0</ele><time>2026-04-19T11:25:48.824Z</time></trkpt><trkpt lat="42.4343975" lon="13.3440195"><ele>1101.0</ele><time>2026-04-19T11:25:49.824Z</time></trkpt><trkpt lat="42.434158" lon="13.3437857"><ele>1095.5</ele><time>2026-04-19T11:25:50.824Z</time></trkpt><trkpt lat="42.4338881" lon="13.3435151"><ele>1090.0</ele><time>2026-04-19T11:25:51.824Z</time></trkpt><trkpt lat="42.433598" lon="13.3432351"><ele>1079.0</ele><time>2026-04-19T11:25:52.824Z</time></trkpt><trkpt lat="42.4333312" lon="13.3429624"><ele>1068.0</ele><time>2026-04-19T11:25:53.824Z</time></trkpt><trkpt lat="42.4330777" lon="13.3427301"><ele>1076.0</ele><time>2026-04-19T11:25:54.825Z</time></trkpt><trkpt lat="42.4328386" lon="13.3425187"><ele>1084.0</ele><time>2026-04-19T11:25:55.824Z</time></trkpt><trkpt lat="42.4326157" lon="13.3423286"><ele>1073.0</ele><time>2026-04-19T11:25:56.824Z</time></trkpt><trkpt lat="42.4324074" lon="13.3421623"><ele>1062.0</ele><time>2026-04-19T11:25:57.825Z</time></trkpt><trkpt lat="42.4322239" lon="13.3420057"><ele>1064.6666666666667</ele><time>2026-04-19T11:25:58.824Z</time></trkpt><trkpt lat="42.4320536" lon="13.3418672"><ele>1067.3333333333335</ele><time>2026-04-19T11:25:59.825Z</time></trkpt><trkpt lat="42.4318908" lon="13.3417738"><ele>1070.0</ele><time>2026-04-19T11:26:00.824Z</time></trkpt><trkpt lat="42.4317141" lon="13.3417167"><ele>1070.0</ele><time>2026-04-19T11:26:01.832Z</time></trkpt><trkpt lat="42.4315295" lon="13.3417018"><ele>1070.0</ele><time>2026-04-19T11:26:02.833Z</time></trkpt><trkpt lat="42.4313242" lon="13.3417107"><ele>1070.0</ele><time>2026-04-19T11:26:03.832Z</time></trkpt><trkpt lat="42.4311077" lon="13.3416952"><ele>1071.0</ele><time>2026-04-19T11:26:04.833Z</time></trkpt><trkpt lat="42.4309028" lon="13.3416381"><ele>1072.0</ele><time>2026-04-19T11:26:05.832Z</time></trkpt><trkpt lat="42.4307115" lon="13.3415818"><ele>1073.0</ele><time>2026-04-19T11:26:06.832Z</time></trkpt><trkpt lat="42.4305271" lon="13.3415118"><ele>1076.0</ele><time>2026-04-19T11:26:07.832Z</time></trkpt><trkpt lat="42.4303553" lon="13.3414017"><ele>1079.0</ele><time>2026-04-19T11:26:08.833Z</time></trkpt><trkpt lat="42.4301807" lon="13.3412501"><ele>1082.0</ele><time>2026-04-19T11:26:09.833Z</time></trkpt><trkpt lat="42.4300048" lon="13.3411292"><ele>1071.3333333333335</ele><time>2026-04-19T11:26:10.832Z</time></trkpt><trkpt lat="42.4298276" lon="13.341044"><ele>1060.6666666666667</ele><time>2026-04-19T11:26:11.832Z</time></trkpt><trkpt lat="42.4296673" lon="13.3409675"><ele>1050.0</ele><time>2026-04-19T11:26:12.833Z</time></trkpt><trkpt lat="42.4295223" lon="13.3409296"><ele>1047.0</ele><time>2026-04-19T11:26:13.832Z</time></trkpt><trkpt lat="42.4293797" lon="13.3409402"><ele>1044.0</ele><time>2026-04-19T11:26:14.832Z</time></trkpt><trkpt lat="42.4292374" lon="13.3410102"><ele>1041.0</ele><time>2026-04-19T11:26:15.832Z</time></trkpt><trkpt lat="42.4290974" lon="13.3411048"><ele>1041.0</ele><time>2026-04-19T11:26:16.832Z</time></trkpt><trkpt lat="42.4289517" lon="13.3411527"><ele>1041.0</ele><time>2026-04-19T11:26:17.833Z</time></trkpt><trkpt lat="42.4288165" lon="13.3411791"><ele>1041.0</ele><time>2026-04-19T11:26:18.832Z</time></trkpt><trkpt lat="42.4287061" lon="13.3412587"><ele>1041.0</ele><time>2026-04-19T11:26:19.833Z</time></trkpt><trkpt lat="42.4286205" lon="13.3413791"><ele>1037.25</ele><time>2026-04-19T11:26:20.833Z</time></trkpt><trkpt lat="42.4285999" lon="13.3415271"><ele>1033.5</ele><time>2026-04-19T11:26:21.832Z</time></trkpt><trkpt lat="42.428612" lon="13.3416986"><ele>1029.75</ele><time>2026-04-19T11:26:22.833Z</time></trkpt><trkpt lat="42.4285808" lon="13.3418748"><ele>1026.0</ele><time>2026-04-19T11:26:23.832Z</time></trkpt><trkpt lat="42.4285575" lon="13.3420461"><ele>1025.25</ele><time>2026-04-19T11:26:24.832Z</time></trkpt><trkpt lat="42.4285554" lon="13.3422187"><ele>1024.5</ele><time>2026-04-19T11:26:25.832Z</time></trkpt><trkpt lat="42.4285899" lon="13.3423894"><ele>1023.75</ele><time>2026-04-19T11:26:26.833Z</time></trkpt><trkpt lat="42.4286273" lon="13.3425827"><ele>1023.0</ele><time>2026-04-19T11:26:27.832Z</time></trkpt><trkpt lat="42.4286469" lon="13.3427967"><ele>1023.0</ele><time>2026-04-19T11:26:28.832Z</time></trkpt><trkpt lat="42.4286553" lon="13.3430046"><ele>1023.0</ele><time>2026-04-19T11:26:29.833Z</time></trkpt><trkpt lat="42.4286519" lon="13.3432243"><ele>1023.0</ele><time>2026-04-19T11:26:30.833Z</time></trkpt><trkpt lat="42.4286152" lon="13.3434588"><ele>1023.3333333333333</ele><time>2026-04-19T11:26:31.832Z</time></trkpt><trkpt lat="42.4285977" lon="13.3437112"><ele>1023.6666666666666</ele><time>2026-04-19T11:26:32.832Z</time></trkpt><trkpt lat="42.4286118" lon="13.3439702"><ele>1024.0</ele><time>2026-04-19T11:26:33.832Z</time></trkpt><trkpt lat="42.4286517" lon="13.3442397"><ele>1024.0</ele><time>2026-04-19T11:26:34.833Z</time></trkpt><trkpt lat="42.4286805" lon="13.3445213"><ele>1024.0</ele><time>2026-04-19T11:26:35.833Z</time></trkpt><trkpt lat="42.4286977" lon="13.3447978"><ele>1024.0</ele><time>2026-04-19T11:26:36.832Z</time></trkpt><trkpt lat="42.4287266" lon="13.3450539"><ele>1024.75</ele><time>2026-04-19T11:26:37.833Z</time></trkpt><trkpt lat="42.4287626" lon="13.345267"><ele>1025.5</ele><time>2026-04-19T11:26:38.832Z</time></trkpt><trkpt lat="42.4287769" lon="13.3454413"><ele>1026.25</ele><time>2026-04-19T11:26:39.833Z</time></trkpt><trkpt lat="42.4287716" lon="13.3456041"><ele>1027.0</ele><time>2026-04-19T11:26:40.832Z</time></trkpt><trkpt lat="42.4287254" lon="13.3457534"><ele>1027.0</ele><time>2026-04-19T11:26:41.833Z</time></trkpt><trkpt lat="42.4286283" lon="13.3458696"><ele>1027.0</ele><time>2026-04-19T11:26:42.832Z</time></trkpt><trkpt lat="42.4285147" lon="13.345926"><ele>1027.0</ele><time>2026-04-19T11:26:43.832Z</time></trkpt><trkpt lat="42.4283668" lon="13.3459519"><ele>1027.0</ele><time>2026-04-19T11:26:44.832Z</time></trkpt><trkpt lat="42.4282081" lon="13.3459553"><ele>1027.0</ele><time>2026-04-19T11:26:45.833Z</time></trkpt><trkpt lat="42.4280669" lon="13.3459535"><ele>1027.0</ele><time>2026-04-19T11:26:46.832Z</time></trkpt><trkpt lat="42.4279335" lon="13.3459718"><ele>1027.0</ele><time>2026-04-19T11:26:47.832Z</time></trkpt><trkpt lat="42.427823" lon="13.3460627"><ele>1027.0</ele><time>2026-04-19T11:26:48.833Z</time></trkpt><trkpt lat="42.4277523" lon="13.3462162"><ele>1025.25</ele><time>2026-04-19T11:26:49.832Z</time></trkpt><trkpt lat="42.4277049" lon="13.3463978"><ele>1023.5</ele><time>2026-04-19T11:26:50.833Z</time></trkpt><trkpt lat="42.4276398" lon="13.3465875"><ele>1021.75</ele><time>2026-04-19T11:26:51.833Z</time></trkpt><trkpt lat="42.4276006" lon="13.3467678"><ele>1020.0</ele><time>2026-04-19T11:26:52.832Z</time></trkpt><trkpt lat="42.427594" lon="13.346928"><ele>1020.0</ele><time>2026-04-19T11:26:53.833Z</time></trkpt><trkpt lat="42.4276243" lon="13.347076"><ele>1020.0</ele><time>2026-04-19T11:26:54.832Z</time></trkpt><trkpt lat="42.4276773" lon="13.3471937"><ele>1020.0</ele><time>2026-04-19T11:26:55.832Z</time></trkpt><trkpt lat="42.4277068" lon="13.3473118"><ele>1020.0</ele><time>2026-04-19T11:26:56.833Z</time></trkpt><trkpt lat="42.4276699" lon="13.3474105"><ele>1020.0</ele><time>2026-04-19T11:26:57.833Z</time></trkpt><trkpt lat="42.4275819" lon="13.3475189"><ele>1021.5</ele><time>2026-04-19T11:26:58.833Z</time></trkpt><trkpt lat="42.4274965" lon="13.3476317"><ele>1023.0</ele><time>2026-04-19T11:26:59.833Z</time></trkpt><trkpt lat="42.4274099" lon="13.3477161"><ele>1024.5</ele><time>2026-04-19T11:27:00.833Z</time></trkpt><trkpt lat="42.427293" lon="13.3477318"><ele>1026.0</ele><time>2026-04-19T11:27:01.832Z</time></trkpt><trkpt lat="42.4271734" lon="13.3476955"><ele>1032.3333333333333</ele><time>2026-04-19T11:27:02.832Z</time></trkpt><trkpt lat="42.4270507" lon="13.3475776"><ele>1038.6666666666665</ele><time>2026-04-19T11:27:03.832Z</time></trkpt><trkpt lat="42.4269447" lon="13.3474223"><ele>1045.0</ele><time>2026-04-19T11:27:04.832Z</time></trkpt><trkpt lat="42.426853" lon="13.3472349"><ele>1038.6666666666665</ele><time>2026-04-19T11:27:05.833Z</time></trkpt><trkpt lat="42.4267713" lon="13.3470236"><ele>1032.3333333333333</ele><time>2026-04-19T11:27:06.832Z</time></trkpt><trkpt lat="42.4267072" lon="13.3468119"><ele>1026.0</ele><time>2026-04-19T11:27:07.832Z</time></trkpt><trkpt lat="42.4266522" lon="13.3465898"><ele>1021.3333333333333</ele><time>2026-04-19T11:27:08.832Z</time></trkpt><trkpt lat="42.4266057" lon="13.3463733"><ele>1016.6666666666666</ele><time>2026-04-19T11:27:09.833Z</time></trkpt><trkpt lat="42.426549" lon="13.3461752"><ele>1012.0</ele><time>2026-04-19T11:27:10.833Z</time></trkpt><trkpt lat="42.4264965" lon="13.3459874"><ele>1012.0</ele><time>2026-04-19T11:27:11.832Z</time></trkpt><trkpt lat="42.4264276" lon="13.3458062"><ele>1012.0</ele><time>2026-04-19T11:27:12.833Z</time></trkpt><trkpt lat="42.4263718" lon="13.3456419"><ele>1012.0</ele><time>2026-04-19T11:27:13.833Z</time></trkpt><trkpt lat="42.4263018" lon="13.3454926"><ele>1012.0</ele><time>2026-04-19T11:27:14.833Z</time></trkpt><trkpt lat="42.4262201" lon="13.3453712"><ele>1013.25</ele><time>2026-04-19T11:27:15.832Z</time></trkpt><trkpt lat="42.4261174" lon="13.3452747"><ele>1014.5</ele><time>2026-04-19T11:27:16.832Z</time></trkpt><trkpt lat="42.4260091" lon="13.3451767"><ele>1015.75</ele><time>2026-04-19T11:27:17.832Z</time></trkpt><trkpt lat="42.4258924" lon="13.3451138"><ele>1017.0</ele><time>2026-04-19T11:27:18.833Z</time></trkpt><trkpt lat="42.4257815" lon="13.3450229"><ele>1017.0</ele><time>2026-04-19T11:27:19.832Z</time></trkpt><trkpt lat="42.4256913" lon="13.344887"><ele>1017.0</ele><time>2026-04-19T11:27:20.833Z</time></trkpt><trkpt lat="42.4256149" lon="13.3447341"><ele>1017.0</ele><time>2026-04-19T11:27:21.832Z</time></trkpt><trkpt lat="42.425538" lon="13.3445926"><ele>1017.0</ele><time>2026-04-19T11:27:22.833Z</time></trkpt><trkpt lat="42.4254427" lon="13.3444754"><ele>1013.75</ele><time>2026-04-19T11:27:23.832Z</time></trkpt><trkpt lat="42.4253357" lon="13.3443823"><ele>1010.5</ele><time>2026-04-19T11:27:24.833Z</time></trkpt><trkpt lat="42.4252234" lon="13.3443136"><ele>1007.25</ele><time>2026-04-19T11:27:25.832Z</time></trkpt><trkpt lat="42.4251054" lon="13.3442757"><ele>1004.0</ele><time>2026-04-19T11:27:26.833Z</time></trkpt><trkpt lat="42.4249811" lon="13.3442494"><ele>1004.0</ele><time>2026-04-19T11:27:27.833Z</time></trkpt><trkpt lat="42.424853" lon="13.3442495"><ele>1004.0</ele><time>2026-04-19T11:27:28.833Z</time></trkpt><trkpt lat="42.4247155" lon="13.3442738"><ele>1004.0</ele><time>2026-04-19T11:27:29.833Z</time></trkpt><trkpt lat="42.4245781" lon="13.3442957"><ele>1004.0</ele><time>2026-04-19T11:27:30.833Z</time></trkpt><trkpt lat="42.424455" lon="13.3443439"><ele>1004.75</ele><time>2026-04-19T11:27:31.832Z</time></trkpt><trkpt lat="42.4243447" lon="13.3444141"><ele>1005.5</ele><time>2026-04-19T11:27:32.833Z</time></trkpt><trkpt lat="42.4242368" lon="13.3445099"><ele>1006.25</ele><time>2026-04-19T11:27:33.832Z</time></trkpt><trkpt lat="42.4241463" lon="13.3446244"><ele>1007.0</ele><time>2026-04-19T11:27:34.832Z</time></trkpt><trkpt lat="42.4240812" lon="13.3447651"><ele>1007.0</ele><time>2026-04-19T11:27:35.832Z</time></trkpt><trkpt lat="42.4240472" lon="13.344907"><ele>1007.0</ele><time>2026-04-19T11:27:36.833Z</time></trkpt><trkpt lat="42.4239962" lon="13.3450454"><ele>1007.0</ele><time>2026-04-19T11:27:37.833Z</time></trkpt><trkpt lat="42.4239228" lon="13.3451554"><ele>1007.0</ele><time>2026-04-19T11:27:38.832Z</time></trkpt><trkpt lat="42.4238193" lon="13.3452222"><ele>1007.0</ele><time>2026-04-19T11:27:39.832Z</time></trkpt><trkpt lat="42.423693" lon="13.3452559"><ele>999.75</ele><time>2026-04-19T11:27:40.832Z</time></trkpt><trkpt lat="42.4235634" lon="13.345244"><ele>992.5</ele><time>2026-04-19T11:27:41.832Z</time></trkpt><trkpt lat="42.4234401" lon="13.345243"><ele>985.25</ele><time>2026-04-19T11:27:42.832Z</time></trkpt><trkpt lat="42.4233416" lon="13.3453056"><ele>978.0</ele><time>2026-04-19T11:27:43.832Z</time></trkpt><trkpt lat="42.4232628" lon="13.3454193"><ele>982.5</ele><time>2026-04-19T11:27:44.833Z</time></trkpt><trkpt lat="42.4232204" lon="13.3455589"><ele>987.0</ele><time>2026-04-19T11:27:45.832Z</time></trkpt><trkpt lat="42.423202" lon="13.3457583"><ele>991.5</ele><time>2026-04-19T11:27:46.832Z</time></trkpt><trkpt lat="42.4231915" lon="13.345943"><ele>996.0</ele><time>2026-04-19T11:27:47.832Z</time></trkpt><trkpt lat="42.4231681" lon="13.3461226"><ele>996.0</ele><time>2026-04-19T11:27:48.833Z</time></trkpt><trkpt lat="42.4231407" lon="13.3462831"><ele>995.9999999999999</ele><time>2026-04-19T11:27:49.832Z</time></trkpt><trkpt lat="42.4231229" lon="13.3464355"><ele>995.9999999999999</ele><time>2026-04-19T11:27:50.832Z</time></trkpt><trkpt lat="42.4231176" lon="13.3465741"><ele>996.0</ele><time>2026-04-19T11:27:51.833Z</time></trkpt><trkpt lat="42.423142" lon="13.3467098"><ele>996.0</ele><time>2026-04-19T11:27:52.832Z</time></trkpt><trkpt lat="42.4232165" lon="13.3468495"><ele>995.5</ele><time>2026-04-19T11:27:53.832Z</time></trkpt><trkpt lat="42.4233256" lon="13.346952"><ele>995.0</ele><time>2026-04-19T11:27:54.833Z</time></trkpt><trkpt lat="42.4234453" lon="13.3470636"><ele>994.5</ele><time>2026-04-19T11:27:55.832Z</time></trkpt><trkpt lat="42.4235486" lon="13.3471835"><ele>994.0</ele><time>2026-04-19T11:27:56.833Z</time></trkpt><trkpt lat="42.4236509" lon="13.3473155"><ele>997.3333333333333</ele><time>2026-04-19T11:27:57.833Z</time></trkpt><trkpt lat="42.4237597" lon="13.3474579"><ele>1000.6666666666667</ele><time>2026-04-19T11:27:58.832Z</time></trkpt><trkpt lat="42.4238733" lon="13.347617"><ele>1004.0</ele><time>2026-04-19T11:27:59.832Z</time></trkpt><trkpt lat="42.4239674" lon="13.3478169"><ele>997.6666666666667</ele><time>2026-04-19T11:28:00.833Z</time></trkpt><trkpt lat="42.4240415" lon="13.3480598"><ele>991.3333333333333</ele><time>2026-04-19T11:28:01.832Z</time></trkpt><trkpt lat="42.4240926" lon="13.3482891"><ele>985.0</ele><time>2026-04-19T11:28:02.833Z</time></trkpt><trkpt lat="42.4241662" lon="13.3484925"><ele>985.0</ele><time>2026-04-19T11:28:03.833Z</time></trkpt><trkpt lat="42.4242508" lon="13.3486742"><ele>985.0</ele><time>2026-04-19T11:28:04.832Z</time></trkpt><trkpt lat="42.4243295" lon="13.3488316"><ele>985.0</ele><time>2026-04-19T11:28:05.832Z</time></trkpt><trkpt lat="42.4243839" lon="13.3489809"><ele>985.0</ele><time>2026-04-19T11:28:06.832Z</time></trkpt><trkpt lat="42.424415" lon="13.3491031"><ele>984.2</ele><time>2026-04-19T11:28:07.833Z</time></trkpt><trkpt lat="42.4244014" lon="13.3492295"><ele>983.4</ele><time>2026-04-19T11:28:08.833Z</time></trkpt><trkpt lat="42.4243568" lon="13.3493337"><ele>982.5999999999999</ele><time>2026-04-19T11:28:09.832Z</time></trkpt><trkpt lat="42.4242691" lon="13.3494085"><ele>981.8</ele><time>2026-04-19T11:28:10.833Z</time></trkpt><trkpt lat="42.4241615" lon="13.3494197"><ele>981.0</ele><time>2026-04-19T11:28:11.833Z</time></trkpt><trkpt lat="42.424023" lon="13.3493846"><ele>981.0</ele><time>2026-04-19T11:28:12.832Z</time></trkpt><trkpt lat="42.4238693" lon="13.3493068"><ele>981.0</ele><time>2026-04-19T11:28:13.832Z</time></trkpt><trkpt lat="42.4236926" lon="13.3492435"><ele>981.0</ele><time>2026-04-19T11:28:14.833Z</time></trkpt><trkpt lat="42.423525" lon="13.3491825"><ele>979.25</ele><time>2026-04-19T11:28:15.832Z</time></trkpt><trkpt lat="42.4233654" lon="13.3491131"><ele>977.5</ele><time>2026-04-19T11:28:16.833Z</time></trkpt><trkpt lat="42.4232237" lon="13.349057"><ele>975.75</ele><time>2026-04-19T11:28:17.833Z</time></trkpt><trkpt lat="42.4230987" lon="13.3490518"><ele>974.0</ele><time>2026-04-19T11:28:18.833Z</time></trkpt><trkpt lat="42.4229713" lon="13.3491015"><ele>974.0</ele><time>2026-04-19T11:28:19.832Z</time></trkpt><trkpt lat="42.4228662" lon="13.3491829"><ele>974.0000000000001</ele><time>2026-04-19T11:28:20.833Z</time></trkpt><trkpt lat="42.4227687" lon="13.3492662"><ele>974.0000000000001</ele><time>2026-04-19T11:28:21.832Z</time></trkpt><trkpt lat="42.4226781" lon="13.3493015"><ele>974.0</ele><time>2026-04-19T11:28:22.833Z</time></trkpt><trkpt lat="42.42259" lon="13.3492873"><ele>974.0</ele><time>2026-04-19T11:28:23.832Z</time></trkpt><trkpt lat="42.4225053" lon="13.3492109"><ele>974.0</ele><time>2026-04-19T11:28:24.832Z</time></trkpt><trkpt lat="42.4224036" lon="13.3490693"><ele>974.0</ele><time>2026-04-19T11:28:25.833Z</time></trkpt><trkpt lat="42.4222768" lon="13.3488686"><ele>974.0</ele><time>2026-04-19T11:28:26.832Z</time></trkpt><trkpt lat="42.4221275" lon="13.3486559"><ele>970.0</ele><time>2026-04-19T11:28:27.833Z</time></trkpt><trkpt lat="42.4219663" lon="13.348461"><ele>966.0</ele><time>2026-04-19T11:28:28.833Z</time></trkpt><trkpt lat="42.4217969" lon="13.3482908"><ele>962.0</ele><time>2026-04-19T11:28:29.833Z</time></trkpt><trkpt lat="42.421633" lon="13.348155"><ele>962.0</ele><time>2026-04-19T11:28:30.832Z</time></trkpt><trkpt lat="42.4214685" lon="13.3480536"><ele>962.0</ele><time>2026-04-19T11:28:31.833Z</time></trkpt><trkpt lat="42.4213085" lon="13.3479844"><ele>962.0</ele><time>2026-04-19T11:28:32.832Z</time></trkpt><trkpt lat="42.4211547" lon="13.3479341"><ele>961.0</ele><time>2026-04-19T11:28:33.833Z</time></trkpt><trkpt lat="42.4210001" lon="13.3479273"><ele>960.0</ele><time>2026-04-19T11:28:34.832Z</time></trkpt><trkpt lat="42.4208547" lon="13.3479685"><ele>959.0</ele><time>2026-04-19T11:28:35.832Z</time></trkpt><trkpt lat="42.4207231" lon="13.3480572"><ele>959.0</ele><time>2026-04-19T11:28:36.833Z</time></trkpt><trkpt lat="42.4206038" lon="13.3482265"><ele>959.0</ele><time>2026-04-19T11:28:37.832Z</time></trkpt><trkpt lat="42.420472" lon="13.3484412"><ele>959.0</ele><time>2026-04-19T11:28:38.832Z</time></trkpt><trkpt lat="42.4203368" lon="13.3486542"><ele>957.3333333333334</ele><time>2026-04-19T11:28:39.832Z</time></trkpt><trkpt lat="42.4201774" lon="13.3488345"><ele>955.6666666666667</ele><time>2026-04-19T11:28:40.832Z</time></trkpt><trkpt lat="42.4199944" lon="13.3489873"><ele>954.0</ele><time>2026-04-19T11:28:41.832Z</time></trkpt><trkpt lat="42.4198195" lon="13.3491151"><ele>954.0</ele><time>2026-04-19T11:28:42.832Z</time></trkpt><trkpt lat="42.4196601" lon="13.3492561"><ele>954.0</ele><time>2026-04-19T11:28:43.833Z</time></trkpt><trkpt lat="42.4195036" lon="13.3494285"><ele>954.0</ele><time>2026-04-19T11:28:44.832Z</time></trkpt><trkpt lat="42.4193464" lon="13.3496595"><ele>948.0</ele><time>2026-04-19T11:28:45.833Z</time></trkpt><trkpt lat="42.4191813" lon="13.3499552"><ele>942.0</ele><time>2026-04-19T11:28:46.832Z</time></trkpt><trkpt lat="42.4190258" lon="13.3502489"><ele>942.0</ele><time>2026-04-19T11:28:47.832Z</time></trkpt><trkpt lat="42.4188872" lon="13.3505284"><ele>942.0</ele><time>2026-04-19T11:28:48.832Z</time></trkpt><trkpt lat="42.418756" lon="13.3507816"><ele>936.3333333333333</ele><time>2026-04-19T11:28:49.833Z</time></trkpt><trkpt lat="42.4186284" lon="13.3509947"><ele>930.6666666666666</ele><time>2026-04-19T11:28:50.832Z</time></trkpt><trkpt lat="42.4184962" lon="13.351173"><ele>925.0</ele><time>2026-04-19T11:28:51.833Z</time></trkpt><trkpt lat="42.4183522" lon="13.3513169"><ele>927.5</ele><time>2026-04-19T11:28:52.832Z</time></trkpt><trkpt lat="42.4182338" lon="13.3514487"><ele>930.0</ele><time>2026-04-19T11:28:53.832Z</time></trkpt><trkpt lat="42.4181499" lon="13.351598"><ele>932.5</ele><time>2026-04-19T11:28:54.833Z</time></trkpt><trkpt lat="42.4181116" lon="13.3517729"><ele>935.0</ele><time>2026-04-19T11:28:55.832Z</time></trkpt><trkpt lat="42.4181179" lon="13.3519909"><ele>935.6666666666667</ele><time>2026-04-19T11:28:56.833Z</time></trkpt><trkpt lat="42.4181541" lon="13.3522309"><ele>936.3333333333333</ele><time>2026-04-19T11:28:57.832Z</time></trkpt><trkpt lat="42.4182022" lon="13.3524805"><ele>937.0</ele><time>2026-04-19T11:28:58.833Z</time></trkpt><trkpt lat="42.4182214" lon="13.3527083"><ele>937.0</ele><time>2026-04-19T11:28:59.833Z</time></trkpt><trkpt lat="42.4182198" lon="13.3529258"><ele>937.0</ele><time>2026-04-19T11:29:00.833Z</time></trkpt><trkpt lat="42.4182095" lon="13.353128"><ele>937.0</ele><time>2026-04-19T11:29:01.832Z</time></trkpt><trkpt lat="42.4182214" lon="13.3533073"><ele>937.0</ele><time>2026-04-19T11:29:02.833Z</time></trkpt><trkpt lat="42.4182753" lon="13.3534448"><ele>933.6666666666666</ele><time>2026-04-19T11:29:03.833Z</time></trkpt><trkpt lat="42.418382" lon="13.353558"><ele>930.3333333333333</ele><time>2026-04-19T11:29:04.832Z</time></trkpt><trkpt lat="42.4185287" lon="13.3536283"><ele>927.0</ele><time>2026-04-19T11:29:05.832Z</time></trkpt><trkpt lat="42.4186829" lon="13.353704"><ele>928.6666666666667</ele><time>2026-04-19T11:29:06.833Z</time></trkpt><trkpt lat="42.4188259" lon="13.3538619"><ele>930.3333333333334</ele><time>2026-04-19T11:29:07.832Z</time></trkpt><trkpt lat="42.4189684" lon="13.3540731"><ele>932.0</ele><time>2026-04-19T11:29:08.833Z</time></trkpt><trkpt lat="42.4191028" lon="13.3542896"><ele>932.0</ele><time>2026-04-19T11:29:09.832Z</time></trkpt><trkpt lat="42.4192312" lon="13.3545352"><ele>932.0</ele><time>2026-04-19T11:29:10.832Z</time></trkpt><trkpt lat="42.4193565" lon="13.3548315"><ele>922.5</ele><time>2026-04-19T11:29:11.833Z</time></trkpt><trkpt lat="42.4194965" lon="13.3551653"><ele>913.0</ele><time>2026-04-19T11:29:12.833Z</time></trkpt><trkpt lat="42.4196371" lon="13.3554997"><ele>919.0</ele><time>2026-04-19T11:29:13.833Z</time></trkpt><trkpt lat="42.4197612" lon="13.3558174"><ele>925.0</ele><time>2026-04-19T11:29:14.833Z</time></trkpt><trkpt lat="42.4198865" lon="13.3561093"><ele>917.5</ele><time>2026-04-19T11:29:15.832Z</time></trkpt><trkpt lat="42.4200093" lon="13.3563936"><ele>910.0</ele><time>2026-04-19T11:29:16.833Z</time></trkpt><trkpt lat="42.4201256" lon="13.3566549"><ele>910.0</ele><time>2026-04-19T11:29:17.832Z</time></trkpt><trkpt lat="42.4202504" lon="13.356893"><ele>910.0</ele><time>2026-04-19T11:29:18.832Z</time></trkpt><trkpt lat="42.4203843" lon="13.3571107"><ele>910.0</ele><time>2026-04-19T11:29:19.832Z</time></trkpt><trkpt lat="42.4205135" lon="13.3573025"><ele>911.6666666666666</ele><time>2026-04-19T11:29:20.832Z</time></trkpt><trkpt lat="42.4206291" lon="13.3574807"><ele>913.3333333333333</ele><time>2026-04-19T11:29:21.832Z</time></trkpt><trkpt lat="42.4207245" lon="13.3576601"><ele>915.0</ele><time>2026-04-19T11:29:22.833Z</time></trkpt><trkpt lat="42.4207879" lon="13.3578269"><ele>915.0</ele><time>2026-04-19T11:29:23.832Z</time></trkpt><trkpt lat="42.4207985" lon="13.3579829"><ele>915.0</ele><time>2026-04-19T11:29:24.833Z</time></trkpt><trkpt lat="42.4207644" lon="13.3581339"><ele>915.0</ele><time>2026-04-19T11:29:25.832Z</time></trkpt><trkpt lat="42.4206874" lon="13.3582574"><ele>915.0</ele><time>2026-04-19T11:29:26.832Z</time></trkpt><trkpt lat="42.4205787" lon="13.3583141"><ele>910.25</ele><time>2026-04-19T11:29:27.833Z</time></trkpt><trkpt lat="42.4204598" lon="13.3582894"><ele>905.5</ele><time>2026-04-19T11:29:28.833Z</time></trkpt><trkpt lat="42.4203301" lon="13.3581925"><ele>900.75</ele><time>2026-04-19T11:29:29.833Z</time></trkpt><trkpt lat="42.4202243" lon="13.3580454"><ele>896.0</ele><time>2026-04-19T11:29:30.833Z</time></trkpt><trkpt lat="42.4201105" lon="13.3578266"><ele>896.0</ele><time>2026-04-19T11:29:31.832Z</time></trkpt><trkpt lat="42.4199629" lon="13.3575761"><ele>896.0</ele><time>2026-04-19T11:29:32.832Z</time></trkpt><trkpt lat="42.419785" lon="13.3573074"><ele>892.0</ele><time>2026-04-19T11:29:33.832Z</time></trkpt><trkpt lat="42.4195733" lon="13.3569814"><ele>888.0</ele><time>2026-04-19T11:29:34.833Z</time></trkpt><trkpt lat="42.41933" lon="13.3566181"><ele>892.5</ele><time>2026-04-19T11:29:35.833Z</time></trkpt><trkpt lat="42.419089" lon="13.3562415"><ele>897.0</ele><time>2026-04-19T11:29:36.833Z</time></trkpt><trkpt lat="42.4188661" lon="13.3558863"><ele>892.5</ele><time>2026-04-19T11:29:37.832Z</time></trkpt><trkpt lat="42.418672" lon="13.3555656"><ele>888.0</ele><time>2026-04-19T11:29:38.833Z</time></trkpt><trkpt lat="42.4184936" lon="13.355264"><ele>888.0</ele><time>2026-04-19T11:29:39.832Z</time></trkpt><trkpt lat="42.4183172" lon="13.3549746"><ele>888.0</ele><time>2026-04-19T11:29:40.833Z</time></trkpt><trkpt lat="42.4181463" lon="13.3547163"><ele>883.0</ele><time>2026-04-19T11:29:41.833Z</time></trkpt><trkpt lat="42.4179673" lon="13.3544999"><ele>878.0</ele><time>2026-04-19T11:29:42.832Z</time></trkpt><trkpt lat="42.4177856" lon="13.3543334"><ele>878.0</ele><time>2026-04-19T11:29:43.833Z</time></trkpt><trkpt lat="42.4176133" lon="13.3541646"><ele>878.0</ele><time>2026-04-19T11:29:44.833Z</time></trkpt><trkpt lat="42.4174466" lon="13.3539981"><ele>878.0</ele><time>2026-04-19T11:29:45.833Z</time></trkpt><trkpt lat="42.4172984" lon="13.3538044"><ele>874.6666666666667</ele><time>2026-04-19T11:29:46.832Z</time></trkpt><trkpt lat="42.4171658" lon="13.3535829"><ele>871.3333333333333</ele><time>2026-04-19T11:29:47.832Z</time></trkpt><trkpt lat="42.4170519" lon="13.3533184"><ele>868.0</ele><time>2026-04-19T11:29:48.833Z</time></trkpt><trkpt lat="42.4169605" lon="13.353039"><ele>868.0</ele><time>2026-04-19T11:29:49.833Z</time></trkpt><trkpt lat="42.4168787" lon="13.3527407"><ele>868.0</ele><time>2026-04-19T11:29:50.832Z</time></trkpt><trkpt lat="42.4168198" lon="13.3524368"><ele>868.3333333333333</ele><time>2026-04-19T11:29:51.832Z</time></trkpt><trkpt lat="42.4167758" lon="13.3521607"><ele>868.6666666666667</ele><time>2026-04-19T11:29:52.833Z</time></trkpt><trkpt lat="42.4167343" lon="13.3519099"><ele>869.0</ele><time>2026-04-19T11:29:53.832Z</time></trkpt><trkpt lat="42.4166915" lon="13.351673"><ele>869.0</ele><time>2026-04-19T11:29:54.833Z</time></trkpt><trkpt lat="42.4166616" lon="13.3514297"><ele>869.0</ele><time>2026-04-19T11:29:55.833Z</time></trkpt><trkpt lat="42.4166658" lon="13.3511521"><ele>869.0</ele><time>2026-04-19T11:29:56.832Z</time></trkpt><trkpt lat="42.4167053" lon="13.3508636"><ele>866.0</ele><time>2026-04-19T11:29:57.833Z</time></trkpt><trkpt lat="42.4167765" lon="13.3505432"><ele>863.0</ele><time>2026-04-19T11:29:58.833Z</time></trkpt><trkpt lat="42.4168535" lon="13.3502459"><ele>858.3333333333334</ele><time>2026-04-19T11:29:59.833Z</time></trkpt><trkpt lat="42.4169267" lon="13.3499758"><ele>853.6666666666667</ele><time>2026-04-19T11:30:00.832Z</time></trkpt><trkpt lat="42.4170062" lon="13.3497231"><ele>849.0</ele><time>2026-04-19T11:30:01.832Z</time></trkpt><trkpt lat="42.4170753" lon="13.3495217"><ele>847.0</ele><time>2026-04-19T11:30:02.833Z</time></trkpt><trkpt lat="42.4171239" lon="13.3493368"><ele>845.0</ele><time>2026-04-19T11:30:03.832Z</time></trkpt><trkpt lat="42.4171385" lon="13.3491345"><ele>843.0</ele><time>2026-04-19T11:30:04.833Z</time></trkpt><trkpt lat="42.4170877" lon="13.3489303"><ele>843.6666666666667</ele><time>2026-04-19T11:30:05.832Z</time></trkpt><trkpt lat="42.4169829" lon="13.3487208"><ele>844.3333333333334</ele><time>2026-04-19T11:30:06.833Z</time></trkpt><trkpt lat="42.4168653" lon="13.3485023"><ele>845.0</ele><time>2026-04-19T11:30:07.832Z</time></trkpt><trkpt lat="42.4167799" lon="13.3482686"><ele>845.0</ele><time>2026-04-19T11:30:08.832Z</time></trkpt><trkpt lat="42.4167169" lon="13.3480562"><ele>845.0</ele><time>2026-04-19T11:30:09.831Z</time></trkpt><trkpt lat="42.4166833" lon="13.3478343"><ele>845.0</ele><time>2026-04-19T11:30:10.831Z</time></trkpt><trkpt lat="42.4166907" lon="13.3475926"><ele>845.0</ele><time>2026-04-19T11:30:11.831Z</time></trkpt><trkpt lat="42.4167323" lon="13.3473538"><ele>845.0</ele><time>2026-04-19T11:30:12.832Z</time></trkpt><trkpt lat="42.4168083" lon="13.3471269"><ele>845.0</ele><time>2026-04-19T11:30:13.831Z</time></trkpt><trkpt lat="42.4169036" lon="13.3469228"><ele>842.5</ele><time>2026-04-19T11:30:14.832Z</time></trkpt><trkpt lat="42.4169848" lon="13.3467377"><ele>840.0</ele><time>2026-04-19T11:30:15.831Z</time></trkpt><trkpt lat="42.4170259" lon="13.3465644"><ele>837.5</ele><time>2026-04-19T11:30:16.832Z</time></trkpt><trkpt lat="42.4170203" lon="13.3463864"><ele>835.0</ele><time>2026-04-19T11:30:17.831Z</time></trkpt><trkpt lat="42.4169609" lon="13.3461988"><ele>835.0</ele><time>2026-04-19T11:30:18.831Z</time></trkpt><trkpt lat="42.4168871" lon="13.3460126"><ele>835.0</ele><time>2026-04-19T11:30:19.832Z</time></trkpt><trkpt lat="42.4168374" lon="13.3458418"><ele>835.0</ele><time>2026-04-19T11:30:20.831Z</time></trkpt><trkpt lat="42.4168059" lon="13.3456384"><ele>835.0</ele><time>2026-04-19T11:30:21.831Z</time></trkpt><trkpt lat="42.4168272" lon="13.3454352"><ele>834.0</ele><time>2026-04-19T11:30:22.832Z</time></trkpt><trkpt lat="42.4168983" lon="13.3452341"><ele>833.0</ele><time>2026-04-19T11:30:23.832Z</time></trkpt><trkpt lat="42.4169929" lon="13.3450419"><ele>832.0</ele><time>2026-04-19T11:30:24.831Z</time></trkpt><trkpt lat="42.4170759" lon="13.3448709"><ele>831.75</ele><time>2026-04-19T11:30:25.832Z</time></trkpt><trkpt lat="42.4171344" lon="13.3447056"><ele>831.5</ele><time>2026-04-19T11:30:26.831Z</time></trkpt><trkpt lat="42.4171716" lon="13.3445483"><ele>831.25</ele><time>2026-04-19T11:30:27.831Z</time></trkpt><trkpt lat="42.4171605" lon="13.3443848"><ele>831.0</ele><time>2026-04-19T11:30:28.831Z</time></trkpt><trkpt lat="42.4170998" lon="13.3442151"><ele>831.0</ele><time>2026-04-19T11:30:29.831Z</time></trkpt><trkpt lat="42.4170226" lon="13.3440569"><ele>831.0</ele><time>2026-04-19T11:30:30.831Z</time></trkpt><trkpt lat="42.4169422" lon="13.3438923"><ele>831.0</ele><time>2026-04-19T11:30:31.831Z</time></trkpt><trkpt lat="42.416879" lon="13.3437133"><ele>831.0</ele><time>2026-04-19T11:30:32.831Z</time></trkpt><trkpt lat="42.4168408" lon="13.3435157"><ele>831.3333333333333</ele><time>2026-04-19T11:30:33.831Z</time></trkpt><trkpt lat="42.4168178" lon="13.343305"><ele>831.6666666666666</ele><time>2026-04-19T11:30:34.831Z</time></trkpt><trkpt lat="42.4168141" lon="13.3430818"><ele>832.0</ele><time>2026-04-19T11:30:35.832Z</time></trkpt><trkpt lat="42.4168369" lon="13.3428585"><ele>831.0</ele><time>2026-04-19T11:30:36.831Z</time></trkpt><trkpt lat="42.4168727" lon="13.342661"><ele>830.0</ele><time>2026-04-19T11:30:37.832Z</time></trkpt><trkpt lat="42.416916" lon="13.3424752"><ele>829.0</ele><time>2026-04-19T11:30:38.831Z</time></trkpt><trkpt lat="42.416946" lon="13.3422969"><ele>828.0</ele><time>2026-04-19T11:30:39.831Z</time></trkpt><trkpt lat="42.4169722" lon="13.342125"><ele>828.0</ele><time>2026-04-19T11:30:40.832Z</time></trkpt><trkpt lat="42.4169903" lon="13.3419607"><ele>828.0</ele><time>2026-04-19T11:30:41.831Z</time></trkpt><trkpt lat="42.416995" lon="13.3418111"><ele>828.0</ele><time>2026-04-19T11:30:42.832Z</time></trkpt><trkpt lat="42.4169557" lon="13.3416637"><ele>828.0</ele><time>2026-04-19T11:30:43.831Z</time></trkpt><trkpt lat="42.4168872" lon="13.3415288"><ele>828.0</ele><time>2026-04-19T11:30:44.831Z</time></trkpt><trkpt lat="42.4168016" lon="13.3414008"><ele>828.0</ele><time>2026-04-19T11:30:45.831Z</time></trkpt><trkpt lat="42.4167049" lon="13.341285"><ele>828.0</ele><time>2026-04-19T11:30:46.831Z</time></trkpt><trkpt lat="42.4166084" lon="13.3411881"><ele>828.0</ele><time>2026-04-19T11:30:47.831Z</time></trkpt><trkpt lat="42.4165056" lon="13.341105"><ele>826.75</ele><time>2026-04-19T11:30:48.831Z</time></trkpt><trkpt lat="42.4163959" lon="13.3410277"><ele>825.5</ele><time>2026-04-19T11:30:49.831Z</time></trkpt><trkpt lat="42.4162861" lon="13.3409538"><ele>824.25</ele><time>2026-04-19T11:30:50.832Z</time></trkpt><trkpt lat="42.4161644" lon="13.3408719"><ele>823.0</ele><time>2026-04-19T11:30:51.831Z</time></trkpt><trkpt lat="42.416028" lon="13.3407755"><ele>823.0</ele><time>2026-04-19T11:30:52.831Z</time></trkpt><trkpt lat="42.4158785" lon="13.3406562"><ele>823.0</ele><time>2026-04-19T11:30:53.832Z</time></trkpt><trkpt lat="42.4157264" lon="13.3405172"><ele>823.0</ele><time>2026-04-19T11:30:54.832Z</time></trkpt><trkpt lat="42.4155764" lon="13.3403647"><ele>821.0</ele><time>2026-04-19T11:30:55.831Z</time></trkpt><trkpt lat="42.4154363" lon="13.3402309"><ele>819.0</ele><time>2026-04-19T11:30:56.831Z</time></trkpt><trkpt lat="42.4153054" lon="13.3401034"><ele>817.0</ele><time>2026-04-19T11:30:57.832Z</time></trkpt><trkpt lat="42.4151773" lon="13.3400027"><ele>817.0</ele><time>2026-04-19T11:30:58.831Z</time></trkpt><trkpt lat="42.4150405" lon="13.3399128"><ele>817.0</ele><time>2026-04-19T11:30:59.832Z</time></trkpt><trkpt lat="42.4148584" lon="13.3398169"><ele>817.0</ele><time>2026-04-19T11:31:00.832Z</time></trkpt><trkpt lat="42.4146494" lon="13.3397255"><ele>817.3333333333333</ele><time>2026-04-19T11:31:01.831Z</time></trkpt><trkpt lat="42.4144687" lon="13.3396409"><ele>817.6666666666667</ele><time>2026-04-19T11:31:02.832Z</time></trkpt><trkpt lat="42.4143045" lon="13.3395537"><ele>818.0</ele><time>2026-04-19T11:31:03.832Z</time></trkpt><trkpt lat="42.4141692" lon="13.3394467"><ele>818.0</ele><time>2026-04-19T11:31:04.832Z</time></trkpt><trkpt lat="42.4140366" lon="13.3392995"><ele>818.0</ele><time>2026-04-19T11:31:05.832Z</time></trkpt><trkpt lat="42.4139206" lon="13.3391205"><ele>818.0</ele><time>2026-04-19T11:31:06.831Z</time></trkpt><trkpt lat="42.4138252" lon="13.338892"><ele>811.6666666666667</ele><time>2026-04-19T11:31:07.832Z</time></trkpt><trkpt lat="42.4137421" lon="13.3386371"><ele>805.3333333333333</ele><time>2026-04-19T11:31:08.831Z</time></trkpt><trkpt lat="42.413662" lon="13.3383789"><ele>799.0</ele><time>2026-04-19T11:31:09.831Z</time></trkpt><trkpt lat="42.4135818" lon="13.3381284"><ele>800.3333333333333</ele><time>2026-04-19T11:31:10.831Z</time></trkpt><trkpt lat="42.4135076" lon="13.3378975"><ele>801.6666666666667</ele><time>2026-04-19T11:31:11.831Z</time></trkpt><trkpt lat="42.4134376" lon="13.3376598"><ele>803.0</ele><time>2026-04-19T11:31:12.831Z</time></trkpt><trkpt lat="42.4133686" lon="13.3374368"><ele>803.0</ele><time>2026-04-19T11:31:13.831Z</time></trkpt><trkpt lat="42.4132753" lon="13.3372363"><ele>803.0</ele><time>2026-04-19T11:31:14.832Z</time></trkpt><trkpt lat="42.4131613" lon="13.3370616"><ele>803.0</ele><time>2026-04-19T11:31:15.831Z</time></trkpt><trkpt lat="42.4130146" lon="13.3369208"><ele>800.3333333333334</ele><time>2026-04-19T11:31:16.831Z</time></trkpt><trkpt lat="42.412856" lon="13.336806"><ele>797.6666666666667</ele><time>2026-04-19T11:31:17.831Z</time></trkpt><trkpt lat="42.4127056" lon="13.3367068"><ele>795.0</ele><time>2026-04-19T11:31:18.832Z</time></trkpt><trkpt lat="42.4125727" lon="13.336613"><ele>795.0</ele><time>2026-04-19T11:31:19.832Z</time></trkpt><trkpt lat="42.4124741" lon="13.3364945"><ele>795.0</ele><time>2026-04-19T11:31:20.831Z</time></trkpt><trkpt lat="42.4124241" lon="13.3363379"><ele>795.0</ele><time>2026-04-19T11:31:21.832Z</time></trkpt><trkpt lat="42.4124223" lon="13.3361322"><ele>795.0</ele><time>2026-04-19T11:31:22.831Z</time></trkpt><trkpt lat="42.4124456" lon="13.3359011"><ele>796.0</ele><time>2026-04-19T11:31:23.831Z</time></trkpt><trkpt lat="42.4124611" lon="13.335647"><ele>797.0</ele><time>2026-04-19T11:31:24.831Z</time></trkpt><trkpt lat="42.4124572" lon="13.3353979"><ele>798.0</ele><time>2026-04-19T11:31:25.832Z</time></trkpt><trkpt lat="42.4124254" lon="13.3351412"><ele>798.0</ele><time>2026-04-19T11:31:26.832Z</time></trkpt><trkpt lat="42.4123952" lon="13.3348874"><ele>798.0</ele><time>2026-04-19T11:31:27.832Z</time></trkpt><trkpt lat="42.4123547" lon="13.3346413"><ele>798.0</ele><time>2026-04-19T11:31:28.832Z</time></trkpt><trkpt lat="42.4123195" lon="13.3344103"><ele>798.0</ele><time>2026-04-19T11:31:29.832Z</time></trkpt><trkpt lat="42.4122965" lon="13.3341776"><ele>798.0</ele><time>2026-04-19T11:31:30.831Z</time></trkpt><trkpt lat="42.4122884" lon="13.3339438"><ele>798.0</ele><time>2026-04-19T11:31:31.831Z</time></trkpt><trkpt lat="42.4123275" lon="13.3337062"><ele>794.0</ele><time>2026-04-19T11:31:32.831Z</time></trkpt><trkpt lat="42.4124116" lon="13.3334803"><ele>790.0</ele><time>2026-04-19T11:31:33.832Z</time></trkpt><trkpt lat="42.4125173" lon="13.3332744"><ele>786.0</ele><time>2026-04-19T11:31:34.832Z</time></trkpt><trkpt lat="42.4126422" lon="13.3330748"><ele>780.0</ele><time>2026-04-19T11:31:35.832Z</time></trkpt><trkpt lat="42.4127546" lon="13.3328833"><ele>774.0</ele><time>2026-04-19T11:31:36.832Z</time></trkpt><trkpt lat="42.4128569" lon="13.332697"><ele>768.0</ele><time>2026-04-19T11:31:37.831Z</time></trkpt><trkpt lat="42.4129539" lon="13.3325131"><ele>770.3333333333333</ele><time>2026-04-19T11:31:38.832Z</time></trkpt><trkpt lat="42.4130669" lon="13.3323323"><ele>772.6666666666666</ele><time>2026-04-19T11:31:39.832Z</time></trkpt><trkpt lat="42.4131998" lon="13.3321611"><ele>775.0</ele><time>2026-04-19T11:31:40.831Z</time></trkpt><trkpt lat="42.4133512" lon="13.3319928"><ele>775.0</ele><time>2026-04-19T11:31:41.832Z</time></trkpt><trkpt lat="42.4135108" lon="13.3318312"><ele>775.0</ele><time>2026-04-19T11:31:42.831Z</time></trkpt><trkpt lat="42.4136518" lon="13.3316656"><ele>775.0</ele><time>2026-04-19T11:31:43.831Z</time></trkpt><trkpt lat="42.4137684" lon="13.3314734"><ele>776.3333333333333</ele><time>2026-04-19T11:31:44.831Z</time></trkpt><trkpt lat="42.4138774" lon="13.3312623"><ele>777.6666666666667</ele><time>2026-04-19T11:31:45.831Z</time></trkpt><trkpt lat="42.4139852" lon="13.3310262"><ele>779.0</ele><time>2026-04-19T11:31:46.832Z</time></trkpt><trkpt lat="42.4140944" lon="13.3307846"><ele>774.0</ele><time>2026-04-19T11:31:47.831Z</time></trkpt><trkpt lat="42.414204" lon="13.3305568"><ele>769.0</ele><time>2026-04-19T11:31:48.832Z</time></trkpt><trkpt lat="42.4143174" lon="13.3303302"><ele>764.0</ele><time>2026-04-19T11:31:49.832Z</time></trkpt><trkpt lat="42.4144246" lon="13.3301087"><ele>764.0</ele><time>2026-04-19T11:31:50.831Z</time></trkpt><trkpt lat="42.4145168" lon="13.3299018"><ele>764.0</ele><time>2026-04-19T11:31:51.832Z</time></trkpt><trkpt lat="42.4145904" lon="13.3296821"><ele>764.0</ele><time>2026-04-19T11:31:52.831Z</time></trkpt><trkpt lat="42.4146482" lon="13.3294549"><ele>765.6666666666666</ele><time>2026-04-19T11:31:53.831Z</time></trkpt><trkpt lat="42.4147025" lon="13.3292203"><ele>767.3333333333333</ele><time>2026-04-19T11:31:54.832Z</time></trkpt><trkpt lat="42.4147519" lon="13.3289898"><ele>769.0</ele><time>2026-04-19T11:31:55.831Z</time></trkpt><trkpt lat="42.4148002" lon="13.3287597"><ele>769.0</ele><time>2026-04-19T11:31:56.831Z</time></trkpt><trkpt lat="42.4148458" lon="13.3285392"><ele>769.0</ele><time>2026-04-19T11:31:57.831Z</time></trkpt><trkpt lat="42.4148929" lon="13.3283292"><ele>769.0</ele><time>2026-04-19T11:31:58.832Z</time></trkpt><trkpt lat="42.4149273" lon="13.3281036"><ele>766.3333333333333</ele><time>2026-04-19T11:31:59.831Z</time></trkpt><trkpt lat="42.4149447" lon="13.3278854"><ele>763.6666666666666</ele><time>2026-04-19T11:32:00.831Z</time></trkpt><trkpt lat="42.4149269" lon="13.327644"><ele>761.0</ele><time>2026-04-19T11:32:01.832Z</time></trkpt><trkpt lat="42.4148958" lon="13.3274155"><ele>763.0</ele><time>2026-04-19T11:32:02.831Z</time></trkpt><trkpt lat="42.4148451" lon="13.3271761"><ele>765.0</ele><time>2026-04-19T11:32:03.831Z</time></trkpt><trkpt lat="42.4147932" lon="13.3269455"><ele>767.0</ele><time>2026-04-19T11:32:04.831Z</time></trkpt><trkpt lat="42.4147271" lon="13.3267183"><ele>765.0</ele><time>2026-04-19T11:32:05.831Z</time></trkpt><trkpt lat="42.4146365" lon="13.3264993"><ele>763.0</ele><time>2026-04-19T11:32:06.831Z</time></trkpt><trkpt lat="42.4145202" lon="13.3263011"><ele>761.0</ele><time>2026-04-19T11:32:07.831Z</time></trkpt><trkpt lat="42.414374" lon="13.3261322"><ele>761.0</ele><time>2026-04-19T11:32:08.831Z</time></trkpt><trkpt lat="42.4142006" lon="13.3259842"><ele>761.0</ele><time>2026-04-19T11:32:09.832Z</time></trkpt><trkpt lat="42.4140098" lon="13.3258443"><ele>761.0</ele><time>2026-04-19T11:32:10.831Z</time></trkpt><trkpt lat="42.413824" lon="13.3257447"><ele>760.0</ele><time>2026-04-19T11:32:11.832Z</time></trkpt><trkpt lat="42.4136566" lon="13.3256404"><ele>759.0</ele><time>2026-04-19T11:32:12.831Z</time></trkpt><trkpt lat="42.413502" lon="13.3255304"><ele>758.0</ele><time>2026-04-19T11:32:13.831Z</time></trkpt><trkpt lat="42.4133587" lon="13.3254126"><ele>758.0</ele><time>2026-04-19T11:32:14.831Z</time></trkpt><trkpt lat="42.4132376" lon="13.3252627"><ele>758.0</ele><time>2026-04-19T11:32:15.831Z</time></trkpt><trkpt lat="42.4131366" lon="13.3250721"><ele>758.0</ele><time>2026-04-19T11:32:16.831Z</time></trkpt><trkpt lat="42.4130686" lon="13.324852"><ele>759.6666666666666</ele><time>2026-04-19T11:32:17.831Z</time></trkpt><trkpt lat="42.413031" lon="13.3245972"><ele>761.3333333333334</ele><time>2026-04-19T11:32:18.832Z</time></trkpt><trkpt lat="42.4130111" lon="13.32434"><ele>763.0</ele><time>2026-04-19T11:32:19.831Z</time></trkpt><trkpt lat="42.4129947" lon="13.3240783"><ele>753.0</ele><time>2026-04-19T11:32:20.832Z</time></trkpt><trkpt lat="42.4129816" lon="13.3238288"><ele>743.0</ele><time>2026-04-19T11:32:21.832Z</time></trkpt><trkpt lat="42.4129601" lon="13.3235782"><ele>733.0</ele><time>2026-04-19T11:32:22.832Z</time></trkpt><trkpt lat="42.4129408" lon="13.3233394"><ele>733.0</ele><time>2026-04-19T11:32:23.831Z</time></trkpt><trkpt lat="42.4129126" lon="13.3231091"><ele>733.0</ele><time>2026-04-19T11:32:24.831Z</time></trkpt><trkpt lat="42.4128626" lon="13.3228831"><ele>733.0</ele><time>2026-04-19T11:32:25.831Z</time></trkpt><trkpt lat="42.4127991" lon="13.3226661"><ele>733.3333333333334</ele><time>2026-04-19T11:32:26.831Z</time></trkpt><trkpt lat="42.4127427" lon="13.3224329"><ele>733.6666666666666</ele><time>2026-04-19T11:32:27.831Z</time></trkpt><trkpt lat="42.4127082" lon="13.3221726"><ele>734.0</ele><time>2026-04-19T11:32:28.832Z</time></trkpt><trkpt lat="42.4126969" lon="13.321897"><ele>732.6666666666666</ele><time>2026-04-19T11:32:29.831Z</time></trkpt><trkpt lat="42.4127175" lon="13.3216191"><ele>731.3333333333334</ele><time>2026-04-19T11:32:30.831Z</time></trkpt><trkpt lat="42.4127206" lon="13.3213358"><ele>730.0</ele><time>2026-04-19T11:32:31.831Z</time></trkpt><trkpt lat="42.4126987" lon="13.3210519"><ele>729.6666666666667</ele><time>2026-04-19T11:32:32.831Z</time></trkpt><trkpt lat="42.4126616" lon="13.3207701"><ele>729.3333333333334</ele><time>2026-04-19T11:32:33.831Z</time></trkpt><trkpt lat="42.4126265" lon="13.3205245"><ele>729.0</ele><time>2026-04-19T11:32:34.832Z</time></trkpt><trkpt lat="42.4125966" lon="13.3202754"><ele>728.3333333333334</ele><time>2026-04-19T11:32:35.832Z</time></trkpt><trkpt lat="42.4125661" lon="13.3200428"><ele>727.6666666666667</ele><time>2026-04-19T11:32:36.831Z</time></trkpt><trkpt lat="42.4125559" lon="13.3197931"><ele>727.0</ele><time>2026-04-19T11:32:37.831Z</time></trkpt><trkpt lat="42.4125771" lon="13.3195321"><ele>726.3333333333334</ele><time>2026-04-19T11:32:38.832Z</time></trkpt><trkpt lat="42.4126115" lon="13.319277"><ele>725.6666666666666</ele><time>2026-04-19T11:32:39.832Z</time></trkpt><trkpt lat="42.4126315" lon="13.3190176"><ele>725.0</ele><time>2026-04-19T11:32:40.831Z</time></trkpt><trkpt lat="42.4126206" lon="13.3187664"><ele>723.0</ele><time>2026-04-19T11:32:41.831Z</time></trkpt><trkpt lat="42.4126007" lon="13.3185173"><ele>721.0</ele><time>2026-04-19T11:32:42.838Z</time></trkpt><trkpt lat="42.4126007" lon="13.3182753"><ele>719.0</ele><time>2026-04-19T11:32:43.839Z</time></trkpt><trkpt lat="42.4126305" lon="13.3180303"><ele>717.6666666666666</ele><time>2026-04-19T11:32:44.838Z</time></trkpt><trkpt lat="42.412663" lon="13.3178006"><ele>716.3333333333334</ele><time>2026-04-19T11:32:45.838Z</time></trkpt><trkpt lat="42.4126906" lon="13.3175869"><ele>715.0</ele><time>2026-04-19T11:32:46.838Z</time></trkpt><trkpt lat="42.4127229" lon="13.3173872"><ele>714.5</ele><time>2026-04-19T11:32:47.839Z</time></trkpt><trkpt lat="42.4127585" lon="13.3172088"><ele>714.0</ele><time>2026-04-19T11:32:48.838Z</time></trkpt><trkpt lat="42.4127923" lon="13.3170526"><ele>713.5</ele><time>2026-04-19T11:32:49.838Z</time></trkpt><trkpt lat="42.4128336" lon="13.3169259"><ele>713.0</ele><time>2026-04-19T11:32:50.838Z</time></trkpt><trkpt lat="42.4128799" lon="13.3168114"><ele>713.0</ele><time>2026-04-19T11:32:51.839Z</time></trkpt><trkpt lat="42.4129463" lon="13.3167305"><ele>713.0</ele><time>2026-04-19T11:32:52.838Z</time></trkpt><trkpt lat="42.4130081" lon="13.3166708"><ele>713.0</ele><time>2026-04-19T11:32:53.838Z</time></trkpt><trkpt lat="42.4130496" lon="13.3166001"><ele>713.0</ele><time>2026-04-19T11:32:54.838Z</time></trkpt><trkpt lat="42.4130544" lon="13.3164789"><ele>713.0</ele><time>2026-04-19T11:32:55.838Z</time></trkpt><trkpt lat="42.4130321" lon="13.3163445"><ele>713.0</ele><time>2026-04-19T11:32:56.839Z</time></trkpt><trkpt lat="42.4130099" lon="13.3161582"><ele>711.3333333333333</ele><time>2026-04-19T11:32:57.838Z</time></trkpt><trkpt lat="42.4130056" lon="13.3159461"><ele>709.6666666666666</ele><time>2026-04-19T11:32:58.839Z</time></trkpt><trkpt lat="42.4129923" lon="13.3156978"><ele>708.0</ele><time>2026-04-19T11:32:59.838Z</time></trkpt><trkpt lat="42.4129601" lon="13.3154252"><ele>708.0</ele><time>2026-04-19T11:33:00.839Z</time></trkpt><trkpt lat="42.41291" lon="13.3151539"><ele>708.0</ele><time>2026-04-19T11:33:01.838Z</time></trkpt><trkpt lat="42.4128465" lon="13.3148803"><ele>708.0</ele><time>2026-04-19T11:33:02.838Z</time></trkpt><trkpt lat="42.4127802" lon="13.3146251"><ele>708.0</ele><time>2026-04-19T11:33:03.838Z</time></trkpt><trkpt lat="42.4127052" lon="13.3143811"><ele>708.0</ele><time>2026-04-19T11:33:04.838Z</time></trkpt><trkpt lat="42.4126338" lon="13.3141411"><ele>708.0</ele><time>2026-04-19T11:33:05.839Z</time></trkpt><trkpt lat="42.4125921" lon="13.3138821"><ele>708.0</ele><time>2026-04-19T11:33:06.838Z</time></trkpt><trkpt lat="42.4125696" lon="13.313607"><ele>708.0</ele><time>2026-04-19T11:33:07.838Z</time></trkpt><trkpt lat="42.4125568" lon="13.3133336"><ele>708.0</ele><time>2026-04-19T11:33:08.838Z</time></trkpt><trkpt lat="42.412538" lon="13.3130698"><ele>708.0</ele><time>2026-04-19T11:33:09.838Z</time></trkpt><trkpt lat="42.4124914" lon="13.3128154"><ele>708.0</ele><time>2026-04-19T11:33:10.838Z</time></trkpt><trkpt lat="42.4124358" lon="13.3125751"><ele>708.0</ele><time>2026-04-19T11:33:11.839Z</time></trkpt><trkpt lat="42.412365" lon="13.3123411"><ele>710.3333333333334</ele><time>2026-04-19T11:33:12.839Z</time></trkpt><trkpt lat="42.4122832" lon="13.31211"><ele>712.6666666666667</ele><time>2026-04-19T11:33:13.838Z</time></trkpt><trkpt lat="42.412184" lon="13.3118819"><ele>715.0</ele><time>2026-04-19T11:33:14.838Z</time></trkpt><trkpt lat="42.4120677" lon="13.3116666"><ele>711.6666666666667</ele><time>2026-04-19T11:33:15.838Z</time></trkpt><trkpt lat="42.41193" lon="13.3114521"><ele>708.3333333333334</ele><time>2026-04-19T11:33:16.839Z</time></trkpt><trkpt lat="42.4117938" lon="13.3112422"><ele>705.0</ele><time>2026-04-19T11:33:17.838Z</time></trkpt><trkpt lat="42.411659" lon="13.3110361"><ele>705.0</ele><time>2026-04-19T11:33:18.838Z</time></trkpt><trkpt lat="42.4115246" lon="13.3108256"><ele>705.0</ele><time>2026-04-19T11:33:19.838Z</time></trkpt><trkpt lat="42.4113917" lon="13.3106219"><ele>705.0</ele><time>2026-04-19T11:33:20.838Z</time></trkpt><trkpt lat="42.4112656" lon="13.310416"><ele>701.6666666666666</ele><time>2026-04-19T11:33:21.838Z</time></trkpt><trkpt lat="42.4111553" lon="13.3102067"><ele>698.3333333333333</ele><time>2026-04-19T11:33:22.838Z</time></trkpt><trkpt lat="42.4110536" lon="13.3099951"><ele>695.0</ele><time>2026-04-19T11:33:23.838Z</time></trkpt><trkpt lat="42.4109496" lon="13.3097874"><ele>696.6666666666666</ele><time>2026-04-19T11:33:24.839Z</time></trkpt><trkpt lat="42.4108501" lon="13.3095892"><ele>698.3333333333334</ele><time>2026-04-19T11:33:25.839Z</time></trkpt><trkpt lat="42.4107474" lon="13.3093926"><ele>700.0</ele><time>2026-04-19T11:33:26.838Z</time></trkpt><trkpt lat="42.4106401" lon="13.3092057"><ele>700.0</ele><time>2026-04-19T11:33:27.838Z</time></trkpt><trkpt lat="42.4105302" lon="13.3090296"><ele>700.0</ele><time>2026-04-19T11:33:28.839Z</time></trkpt><trkpt lat="42.4104153" lon="13.3088477"><ele>700.0</ele><time>2026-04-19T11:33:29.838Z</time></trkpt><trkpt lat="42.4103021" lon="13.308675"><ele>697.0</ele><time>2026-04-19T11:33:30.838Z</time></trkpt><trkpt lat="42.4101956" lon="13.3085031"><ele>694.0</ele><time>2026-04-19T11:33:31.839Z</time></trkpt><trkpt lat="42.4100879" lon="13.3083356"><ele>691.0</ele><time>2026-04-19T11:33:32.838Z</time></trkpt><trkpt lat="42.409982" lon="13.3081706"><ele>691.75</ele><time>2026-04-19T11:33:33.839Z</time></trkpt><trkpt lat="42.4098817" lon="13.3080096"><ele>692.5</ele><time>2026-04-19T11:33:34.838Z</time></trkpt><trkpt lat="42.4097866" lon="13.3078666"><ele>693.25</ele><time>2026-04-19T11:33:35.838Z</time></trkpt><trkpt lat="42.4096867" lon="13.3077225"><ele>694.0</ele><time>2026-04-19T11:33:36.838Z</time></trkpt><trkpt lat="42.4095952" lon="13.3075804"><ele>692.25</ele><time>2026-04-19T11:33:37.838Z</time></trkpt><trkpt lat="42.4095027" lon="13.3074441"><ele>690.5</ele><time>2026-04-19T11:33:38.838Z</time></trkpt><trkpt lat="42.4094164" lon="13.3073068"><ele>688.75</ele><time>2026-04-19T11:33:39.839Z</time></trkpt><trkpt lat="42.4093336" lon="13.3071749"><ele>687.0</ele><time>2026-04-19T11:33:40.838Z</time></trkpt><trkpt lat="42.4092515" lon="13.3070557"><ele>687.0</ele><time>2026-04-19T11:33:41.838Z</time></trkpt><trkpt lat="42.4091775" lon="13.3069506"><ele>687.0</ele><time>2026-04-19T11:33:42.839Z</time></trkpt><trkpt lat="42.4091058" lon="13.3068623"><ele>687.0</ele><time>2026-04-19T11:33:43.839Z</time></trkpt><trkpt lat="42.4090456" lon="13.3067763"><ele>687.0</ele><time>2026-04-19T11:33:44.838Z</time></trkpt><trkpt lat="42.409004" lon="13.3066836"><ele>687.0</ele><time>2026-04-19T11:33:45.838Z</time></trkpt><trkpt lat="42.4089851" lon="13.3065994"><ele>687.0</ele><time>2026-04-19T11:33:46.838Z</time></trkpt><trkpt lat="42.4089625" lon="13.3065193"><ele>687.0</ele><time>2026-04-19T11:33:47.838Z</time></trkpt><trkpt lat="42.4089104" lon="13.3064681"><ele>687.0</ele><time>2026-04-19T11:33:48.838Z</time></trkpt><trkpt lat="42.4088268" lon="13.3064532"><ele>687.0</ele><time>2026-04-19T11:33:49.839Z</time></trkpt><trkpt lat="42.4087446" lon="13.3064522"><ele>687.0</ele><time>2026-04-19T11:33:50.838Z</time></trkpt><trkpt lat="42.4086289" lon="13.3064448"><ele>687.0</ele><time>2026-04-19T11:33:51.839Z</time></trkpt><trkpt lat="42.4084868" lon="13.3063952"><ele>683.6666666666666</ele><time>2026-04-19T11:33:52.839Z</time></trkpt><trkpt lat="42.4083185" lon="13.3063485"><ele>680.3333333333333</ele><time>2026-04-19T11:33:53.838Z</time></trkpt><trkpt lat="42.4081578" lon="13.3062963"><ele>677.0</ele><time>2026-04-19T11:33:54.838Z</time></trkpt><trkpt lat="42.408007" lon="13.3062624"><ele>677.25</ele><time>2026-04-19T11:33:55.838Z</time></trkpt><trkpt lat="42.4078752" lon="13.3062467"><ele>677.5</ele><time>2026-04-19T11:33:56.838Z</time></trkpt><trkpt lat="42.4077459" lon="13.3062257"><ele>677.75</ele><time>2026-04-19T11:33:57.838Z</time></trkpt><trkpt lat="42.4076262" lon="13.3062041"><ele>678.0</ele><time>2026-04-19T11:33:58.839Z</time></trkpt><trkpt lat="42.4075087" lon="13.3061836"><ele>678.0</ele><time>2026-04-19T11:33:59.838Z</time></trkpt><trkpt lat="42.4073928" lon="13.3061666"><ele>678.0</ele><time>2026-04-19T11:34:00.838Z</time></trkpt><trkpt lat="42.4072831" lon="13.3061499"><ele>678.0</ele><time>2026-04-19T11:34:01.838Z</time></trkpt><trkpt lat="42.4071825" lon="13.3061311"><ele>678.0</ele><time>2026-04-19T11:34:02.838Z</time></trkpt><trkpt lat="42.4070787" lon="13.3061127"><ele>678.0</ele><time>2026-04-19T11:34:03.838Z</time></trkpt><trkpt lat="42.4069819" lon="13.306096"><ele>678.0</ele><time>2026-04-19T11:34:04.838Z</time></trkpt><trkpt lat="42.4068833" lon="13.3060725"><ele>678.0</ele><time>2026-04-19T11:34:05.838Z</time></trkpt><trkpt lat="42.4067795" lon="13.306054"><ele>678.0</ele><time>2026-04-19T11:34:06.839Z</time></trkpt><trkpt lat="42.4066655" lon="13.3060375"><ele>678.0</ele><time>2026-04-19T11:34:07.839Z</time></trkpt><trkpt lat="42.4065511" lon="13.3060189"><ele>678.0</ele><time>2026-04-19T11:34:08.838Z</time></trkpt><trkpt lat="42.4064335" lon="13.3060058"><ele>678.0</ele><time>2026-04-19T11:34:09.838Z</time></trkpt><trkpt lat="42.4063279" lon="13.3059954"><ele>678.0</ele><time>2026-04-19T11:34:10.838Z</time></trkpt><trkpt lat="42.4062265" lon="13.3059942"><ele>678.0</ele><time>2026-04-19T11:34:11.838Z</time></trkpt><trkpt lat="42.4061411" lon="13.3059956"><ele>678.0</ele><time>2026-04-19T11:34:12.838Z</time></trkpt><trkpt lat="42.4060599" lon="13.3060008"><ele>678.0</ele><time>2026-04-19T11:34:13.839Z</time></trkpt><trkpt lat="42.4059808" lon="13.3060127"><ele>678.0</ele><time>2026-04-19T11:34:14.839Z</time></trkpt><trkpt lat="42.4059044" lon="13.3060155"><ele>678.0</ele><time>2026-04-19T11:34:15.839Z</time></trkpt><trkpt lat="42.4058316" lon="13.3060141"><ele>678.0</ele><time>2026-04-19T11:34:16.838Z</time></trkpt><trkpt lat="42.4057648" lon="13.306016"><ele>678.0</ele><time>2026-04-19T11:34:17.838Z</time></trkpt><trkpt lat="42.4057038" lon="13.3060646"><ele>678.0</ele><time>2026-04-19T11:34:18.839Z</time></trkpt><trkpt lat="42.4056531" lon="13.306142"><ele>678.0</ele><time>2026-04-19T11:34:19.839Z</time></trkpt><trkpt lat="42.4056185" lon="13.3062507"><ele>678.0</ele><time>2026-04-19T11:34:20.838Z</time></trkpt><trkpt lat="42.4055773" lon="13.3063704"><ele>678.0</ele><time>2026-04-19T11:34:21.838Z</time></trkpt><trkpt lat="42.4054908" lon="13.3065025"><ele>678.0</ele><time>2026-04-19T11:34:22.839Z</time></trkpt><trkpt lat="42.4053708" lon="13.3066233"><ele>678.0</ele><time>2026-04-19T11:34:23.838Z</time></trkpt><trkpt lat="42.4052238" lon="13.3067491"><ele>677.3333333333334</ele><time>2026-04-19T11:34:24.839Z</time></trkpt><trkpt lat="42.4050635" lon="13.3068877"><ele>676.6666666666667</ele><time>2026-04-19T11:34:25.838Z</time></trkpt><trkpt lat="42.4048914" lon="13.3070435"><ele>676.0</ele><time>2026-04-19T11:34:26.838Z</time></trkpt><trkpt lat="42.40472" lon="13.3071908"><ele>675.3333333333334</ele><time>2026-04-19T11:34:27.838Z</time></trkpt><trkpt lat="42.4045501" lon="13.3073467"><ele>674.6666666666666</ele><time>2026-04-19T11:34:28.838Z</time></trkpt><trkpt lat="42.4043777" lon="13.3074963"><ele>674.0</ele><time>2026-04-19T11:34:29.839Z</time></trkpt><trkpt lat="42.4042093" lon="13.3076483"><ele>674.0</ele><time>2026-04-19T11:34:30.838Z</time></trkpt><trkpt lat="42.4040315" lon="13.3077991"><ele>674.0</ele><time>2026-04-19T11:34:31.838Z</time></trkpt><trkpt lat="42.4038546" lon="13.3079469"><ele>674.0</ele><time>2026-04-19T11:34:32.838Z</time></trkpt><trkpt lat="42.403671" lon="13.3081135"><ele>674.5</ele><time>2026-04-19T11:34:33.838Z</time></trkpt><trkpt lat="42.403476" lon="13.3082937"><ele>675.0</ele><time>2026-04-19T11:34:34.838Z</time></trkpt><trkpt lat="42.4032806" lon="13.3084738"><ele>675.0</ele><time>2026-04-19T11:34:35.839Z</time></trkpt><trkpt lat="42.4030815" lon="13.3086578"><ele>675.0</ele><time>2026-04-19T11:34:36.839Z</time></trkpt><trkpt lat="42.4028821" lon="13.3088404"><ele>673.5</ele><time>2026-04-19T11:34:37.839Z</time></trkpt><trkpt lat="42.4026824" lon="13.3090145"><ele>672.0</ele><time>2026-04-19T11:34:38.839Z</time></trkpt><trkpt lat="42.4024948" lon="13.3091766"><ele>672.0</ele><time>2026-04-19T11:34:39.838Z</time></trkpt><trkpt lat="42.4023203" lon="13.3093331"><ele>672.0</ele><time>2026-04-19T11:34:40.838Z</time></trkpt><trkpt lat="42.4021515" lon="13.3094843"><ele>672.0</ele><time>2026-04-19T11:34:41.838Z</time></trkpt><trkpt lat="42.4019945" lon="13.3096256"><ele>671.3333333333334</ele><time>2026-04-19T11:34:42.838Z</time></trkpt><trkpt lat="42.4018458" lon="13.3097686"><ele>670.6666666666667</ele><time>2026-04-19T11:34:43.838Z</time></trkpt><trkpt lat="42.4016913" lon="13.3098993"><ele>670.0</ele><time>2026-04-19T11:34:44.838Z</time></trkpt><trkpt lat="42.4015422" lon="13.3100359"><ele>670.0</ele><time>2026-04-19T11:34:45.838Z</time></trkpt><trkpt lat="42.4013972" lon="13.3101714"><ele>670.0</ele><time>2026-04-19T11:34:46.838Z</time></trkpt><trkpt lat="42.4012532" lon="13.3102987"><ele>670.0</ele><time>2026-04-19T11:34:47.838Z</time></trkpt><trkpt lat="42.4011203" lon="13.3104254"><ele>669.75</ele><time>2026-04-19T11:34:48.839Z</time></trkpt><trkpt lat="42.4010001" lon="13.3105425"><ele>669.5</ele><time>2026-04-19T11:34:49.839Z</time></trkpt><trkpt lat="42.400881" lon="13.3106603"><ele>669.25</ele><time>2026-04-19T11:34:50.839Z</time></trkpt><trkpt lat="42.4007625" lon="13.3107618"><ele>669.0</ele><time>2026-04-19T11:34:51.838Z</time></trkpt><trkpt lat="42.4006539" lon="13.3108486"><ele>668.8000000000001</ele><time>2026-04-19T11:34:52.838Z</time></trkpt><trkpt lat="42.4005496" lon="13.3109022"><ele>668.6</ele><time>2026-04-19T11:34:53.838Z</time></trkpt><trkpt lat="42.4004562" lon="13.3109381"><ele>668.4</ele><time>2026-04-19T11:34:54.838Z</time></trkpt><trkpt lat="42.4003721" lon="13.3109973"><ele>668.2</ele><time>2026-04-19T11:34:55.838Z</time></trkpt><trkpt lat="42.4003184" lon="13.3110874"><ele>668.0</ele><time>2026-04-19T11:34:56.838Z</time></trkpt><trkpt lat="42.4002715" lon="13.3112001"><ele>668.25</ele><time>2026-04-19T11:34:57.839Z</time></trkpt><trkpt lat="42.400204" lon="13.3112995"><ele>668.5</ele><time>2026-04-19T11:34:58.839Z</time></trkpt><trkpt lat="42.4000745" lon="13.3113746"><ele>668.75</ele><time>2026-04-19T11:34:59.838Z</time></trkpt><trkpt lat="42.399904" lon="13.3114422"><ele>669.0</ele><time>2026-04-19T11:35:00.838Z</time></trkpt><trkpt lat="42.399701" lon="13.3115308"><ele>669.0</ele><time>2026-04-19T11:35:01.839Z</time></trkpt><trkpt lat="42.3994775" lon="13.3116552"><ele>669.0</ele><time>2026-04-19T11:35:02.838Z</time></trkpt><trkpt lat="42.3992253" lon="13.3117919"><ele>669.0</ele><time>2026-04-19T11:35:03.839Z</time></trkpt><trkpt lat="42.3989758" lon="13.3119188"><ele>669.0</ele><time>2026-04-19T11:35:04.839Z</time></trkpt><trkpt lat="42.3987358" lon="13.3120336"><ele>669.3333333333334</ele><time>2026-04-19T11:35:05.838Z</time></trkpt><trkpt lat="42.3985141" lon="13.3121516"><ele>669.6666666666667</ele><time>2026-04-19T11:35:06.838Z</time></trkpt><trkpt lat="42.3983183" lon="13.3122506"><ele>670.0</ele><time>2026-04-19T11:35:07.838Z</time></trkpt><trkpt lat="42.3981427" lon="13.3123393"><ele>670.5</ele><time>2026-04-19T11:35:08.838Z</time></trkpt><trkpt lat="42.3979882" lon="13.3124057"><ele>671.0</ele><time>2026-04-19T11:35:09.839Z</time></trkpt><trkpt lat="42.3978517" lon="13.3124636"><ele>671.5</ele><time>2026-04-19T11:35:10.838Z</time></trkpt><trkpt lat="42.3977467" lon="13.3124857"><ele>672.0</ele><time>2026-04-19T11:35:11.839Z</time></trkpt><trkpt lat="42.3976726" lon="13.312496"><ele>672.0</ele><time>2026-04-19T11:35:12.838Z</time></trkpt><trkpt lat="42.3975947" lon="13.3124999"><ele>672.0</ele><time>2026-04-19T11:35:14.838Z</time></trkpt><trkpt lat="42.3974711" lon="13.3124843"><ele>672.0</ele><time>2026-04-19T11:35:17.839Z</time></trkpt><trkpt lat="42.3973821" lon="13.3124507"><ele>672.0</ele><time>2026-04-19T11:35:18.838Z</time></trkpt><trkpt lat="42.3972759" lon="13.3124036"><ele>672.0</ele><time>2026-04-19T11:35:19.839Z</time></trkpt><trkpt lat="42.3971573" lon="13.3123182"><ele>670.6666666666666</ele><time>2026-04-19T11:35:20.838Z</time></trkpt><trkpt lat="42.3970276" lon="13.3122231"><ele>669.3333333333333</ele><time>2026-04-19T11:35:21.838Z</time></trkpt><trkpt lat="42.396891" lon="13.3121278"><ele>668.0</ele><time>2026-04-19T11:35:22.838Z</time></trkpt><trkpt lat="42.3967517" lon="13.3120467"><ele>668.0</ele><time>2026-04-19T11:35:23.838Z</time></trkpt><trkpt lat="42.3966134" lon="13.3119702"><ele>668.0</ele><time>2026-04-19T11:35:24.839Z</time></trkpt><trkpt lat="42.3964746" lon="13.3119101"><ele>668.0</ele><time>2026-04-19T11:35:25.838Z</time></trkpt><trkpt lat="42.3963288" lon="13.3118714"><ele>668.0</ele><time>2026-04-19T11:35:26.838Z</time></trkpt><trkpt lat="42.3961826" lon="13.3118462"><ele>667.5</ele><time>2026-04-19T11:35:27.838Z</time></trkpt><trkpt lat="42.3960388" lon="13.3118508"><ele>667.0</ele><time>2026-04-19T11:35:28.838Z</time></trkpt><trkpt lat="42.3958983" lon="13.3118769"><ele>666.5</ele><time>2026-04-19T11:35:29.838Z</time></trkpt><trkpt lat="42.3957452" lon="13.3119501"><ele>666.0</ele><time>2026-04-19T11:35:30.839Z</time></trkpt><trkpt lat="42.3955912" lon="13.3120546"><ele>665.5</ele><time>2026-04-19T11:35:31.838Z</time></trkpt><trkpt lat="42.3954575" lon="13.3121687"><ele>665.0</ele><time>2026-04-19T11:35:32.838Z</time></trkpt><trkpt lat="42.3953388" lon="13.312278"><ele>664.5</ele><time>2026-04-19T11:35:33.838Z</time></trkpt><trkpt lat="42.3952348" lon="13.3123925"><ele>664.0</ele><time>2026-04-19T11:35:34.839Z</time></trkpt><trkpt lat="42.3951371" lon="13.3125059"><ele>665.0</ele><time>2026-04-19T11:35:35.838Z</time></trkpt><trkpt lat="42.3950492" lon="13.3126233"><ele>666.0</ele><time>2026-04-19T11:35:36.839Z</time></trkpt><trkpt lat="42.394974" lon="13.3127451"><ele>667.0</ele><time>2026-04-19T11:35:37.839Z</time></trkpt><trkpt lat="42.3948974" lon="13.3128704"><ele>668.0</ele><time>2026-04-19T11:35:38.839Z</time></trkpt><trkpt lat="42.3948332" lon="13.3130108"><ele>668.75</ele><time>2026-04-19T11:35:39.838Z</time></trkpt><trkpt lat="42.3947887" lon="13.3131739"><ele>669.5</ele><time>2026-04-19T11:35:40.838Z</time></trkpt><trkpt lat="42.3947687" lon="13.313369"><ele>670.25</ele><time>2026-04-19T11:35:41.839Z</time></trkpt><trkpt lat="42.3947559" lon="13.3135884"><ele>671.0</ele><time>2026-04-19T11:35:42.839Z</time></trkpt><trkpt lat="42.3947454" lon="13.313842"><ele>671.3333333333333</ele><time>2026-04-19T11:35:43.838Z</time></trkpt><trkpt lat="42.394729" lon="13.3141127"><ele>671.6666666666666</ele><time>2026-04-19T11:35:44.839Z</time></trkpt><trkpt lat="42.3947066" lon="13.3144214"><ele>672.0</ele><time>2026-04-19T11:35:45.839Z</time></trkpt><trkpt lat="42.3946685" lon="13.3147653"><ele>666.5</ele><time>2026-04-19T11:35:46.839Z</time></trkpt><trkpt lat="42.3946214" lon="13.3151457"><ele>661.0</ele><time>2026-04-19T11:35:47.838Z</time></trkpt><trkpt lat="42.3945652" lon="13.3155481"><ele>661.5</ele><time>2026-04-19T11:35:48.838Z</time></trkpt><trkpt lat="42.3945172" lon="13.3159441"><ele>662.0</ele><time>2026-04-19T11:35:49.839Z</time></trkpt><trkpt lat="42.3944713" lon="13.3163461"><ele>661.5</ele><time>2026-04-19T11:35:50.839Z</time></trkpt><trkpt lat="42.3944236" lon="13.3167579"><ele>661.0</ele><time>2026-04-19T11:35:51.839Z</time></trkpt><trkpt lat="42.394374" lon="13.3171722"><ele>662.0</ele><time>2026-04-19T11:35:52.838Z</time></trkpt><trkpt lat="42.3943244" lon="13.3175801"><ele>663.0</ele><time>2026-04-19T11:35:53.838Z</time></trkpt><trkpt lat="42.3942759" lon="13.3179833"><ele>663.0</ele><time>2026-04-19T11:35:54.838Z</time></trkpt><trkpt lat="42.3942282" lon="13.3183882"><ele>663.0</ele><time>2026-04-19T11:35:55.839Z</time></trkpt><trkpt lat="42.3941852" lon="13.3187785"><ele>662.0</ele><time>2026-04-19T11:35:56.839Z</time></trkpt><trkpt lat="42.3941426" lon="13.3191641"><ele>661.0</ele><time>2026-04-19T11:35:57.839Z</time></trkpt><trkpt lat="42.3941008" lon="13.3195327"><ele>662.5</ele><time>2026-04-19T11:35:58.838Z</time></trkpt><trkpt lat="42.3940591" lon="13.3198892"><ele>664.0</ele><time>2026-04-19T11:35:59.839Z</time></trkpt><trkpt lat="42.3940161" lon="13.3202511"><ele>667.0</ele><time>2026-04-19T11:36:00.838Z</time></trkpt><trkpt lat="42.3939785" lon="13.3206058"><ele>670.0</ele><time>2026-04-19T11:36:01.838Z</time></trkpt><trkpt lat="42.3939323" lon="13.3209618"><ele>670.0</ele><time>2026-04-19T11:36:02.839Z</time></trkpt><trkpt lat="42.3938915" lon="13.3213092"><ele>670.0</ele><time>2026-04-19T11:36:03.838Z</time></trkpt><trkpt lat="42.3938506" lon="13.3216493"><ele>666.5</ele><time>2026-04-19T11:36:04.838Z</time></trkpt><trkpt lat="42.3938064" lon="13.3219867"><ele>663.0</ele><time>2026-04-19T11:36:05.838Z</time></trkpt><trkpt lat="42.3937485" lon="13.3223443"><ele>663.0</ele><time>2026-04-19T11:36:06.839Z</time></trkpt><trkpt lat="42.3936814" lon="13.3227233"><ele>663.0</ele><time>2026-04-19T11:36:07.838Z</time></trkpt><trkpt lat="42.3936128" lon="13.3231273"><ele>663.5</ele><time>2026-04-19T11:36:08.838Z</time></trkpt><trkpt lat="42.3935418" lon="13.3235305"><ele>664.0</ele><time>2026-04-19T11:36:09.838Z</time></trkpt><trkpt lat="42.3934731" lon="13.3239257"><ele>664.0</ele><time>2026-04-19T11:36:10.838Z</time></trkpt><trkpt lat="42.3934081" lon="13.3242948"><ele>664.0</ele><time>2026-04-19T11:36:11.839Z</time></trkpt><trkpt lat="42.3933487" lon="13.3246447"><ele>665.5</ele><time>2026-04-19T11:36:12.838Z</time></trkpt><trkpt lat="42.3932946" lon="13.3249796"><ele>667.0</ele><time>2026-04-19T11:36:13.838Z</time></trkpt><trkpt lat="42.3932391" lon="13.3252959"><ele>668.5</ele><time>2026-04-19T11:36:14.838Z</time></trkpt><trkpt lat="42.3931771" lon="13.3256129"><ele>670.0</ele><time>2026-04-19T11:36:15.838Z</time></trkpt><trkpt lat="42.3931212" lon="13.3259169"><ele>670.0</ele><time>2026-04-19T11:36:16.838Z</time></trkpt><trkpt lat="42.393068" lon="13.3262065"><ele>670.0</ele><time>2026-04-19T11:36:17.838Z</time></trkpt><trkpt lat="42.3930081" lon="13.3264806"><ele>670.0</ele><time>2026-04-19T11:36:18.838Z</time></trkpt><trkpt lat="42.3929308" lon="13.3267434"><ele>667.3333333333334</ele><time>2026-04-19T11:36:19.839Z</time></trkpt><trkpt lat="42.3928302" lon="13.3270182"><ele>664.6666666666666</ele><time>2026-04-19T11:36:20.838Z</time></trkpt><trkpt lat="42.3927297" lon="13.327278"><ele>662.0</ele><time>2026-04-19T11:36:21.839Z</time></trkpt><trkpt lat="42.3926201" lon="13.3275394"><ele>662.0</ele><time>2026-04-19T11:36:22.838Z</time></trkpt><trkpt lat="42.3925158" lon="13.3277901"><ele>662.0</ele><time>2026-04-19T11:36:23.839Z</time></trkpt><trkpt lat="42.3924117" lon="13.3280334"><ele>662.0</ele><time>2026-04-19T11:36:24.839Z</time></trkpt><trkpt lat="42.3923072" lon="13.3282682"><ele>662.3333333333333</ele><time>2026-04-19T11:36:25.838Z</time></trkpt><trkpt lat="42.3921938" lon="13.3284897"><ele>662.6666666666666</ele><time>2026-04-19T11:36:26.839Z</time></trkpt><trkpt lat="42.3920634" lon="13.3287007"><ele>663.0</ele><time>2026-04-19T11:36:27.838Z</time></trkpt><trkpt lat="42.3919243" lon="13.3289021"><ele>662.0</ele><time>2026-04-19T11:36:28.838Z</time></trkpt><trkpt lat="42.3917766" lon="13.3290988"><ele>661.0</ele><time>2026-04-19T11:36:29.839Z</time></trkpt><trkpt lat="42.3916148" lon="13.3292924"><ele>660.0</ele><time>2026-04-19T11:36:30.838Z</time></trkpt><trkpt lat="42.3914502" lon="13.3294761"><ele>660.0</ele><time>2026-04-19T11:36:31.839Z</time></trkpt><trkpt lat="42.3912744" lon="13.3296562"><ele>660.0</ele><time>2026-04-19T11:36:32.838Z</time></trkpt><trkpt lat="42.3910981" lon="13.3298351"><ele>660.0</ele><time>2026-04-19T11:36:33.838Z</time></trkpt><trkpt lat="42.390929" lon="13.330009"><ele>660.0</ele><time>2026-04-19T11:36:34.839Z</time></trkpt><trkpt lat="42.3907744" lon="13.330173"><ele>660.0</ele><time>2026-04-19T11:36:35.838Z</time></trkpt><trkpt lat="42.3906179" lon="13.3303363"><ele>660.0</ele><time>2026-04-19T11:36:36.838Z</time></trkpt><trkpt lat="42.3904566" lon="13.3305053"><ele>659.6666666666666</ele><time>2026-04-19T11:36:37.838Z</time></trkpt><trkpt lat="42.3902973" lon="13.3306719"><ele>659.3333333333333</ele><time>2026-04-19T11:36:38.838Z</time></trkpt><trkpt lat="42.3901393" lon="13.3308298"><ele>659.0</ele><time>2026-04-19T11:36:39.838Z</time></trkpt><trkpt lat="42.3899711" lon="13.3310032"><ele>659.0</ele><time>2026-04-19T11:36:40.838Z</time></trkpt><trkpt lat="42.3897985" lon="13.3311865"><ele>659.0</ele><time>2026-04-19T11:36:41.839Z</time></trkpt><trkpt lat="42.3896036" lon="13.3314022"><ele>657.5</ele><time>2026-04-19T11:36:42.838Z</time></trkpt><trkpt lat="42.3893915" lon="13.331626"><ele>656.0</ele><time>2026-04-19T11:36:43.839Z</time></trkpt><trkpt lat="42.3891807" lon="13.3318298"><ele>656.0</ele><time>2026-04-19T11:36:44.838Z</time></trkpt><trkpt lat="42.3889706" lon="13.3320425"><ele>656.0</ele><time>2026-04-19T11:36:45.839Z</time></trkpt><trkpt lat="42.3887636" lon="13.3322668"><ele>656.5</ele><time>2026-04-19T11:36:46.838Z</time></trkpt><trkpt lat="42.3885471" lon="13.3325089"><ele>657.0</ele><time>2026-04-19T11:36:47.838Z</time></trkpt><trkpt lat="42.3883145" lon="13.3327712"><ele>657.0</ele><time>2026-04-19T11:36:48.838Z</time></trkpt><trkpt lat="42.3880779" lon="13.3330093"><ele>657.0</ele><time>2026-04-19T11:36:49.838Z</time></trkpt><trkpt lat="42.3878552" lon="13.3332509"><ele>655.5</ele><time>2026-04-19T11:36:50.838Z</time></trkpt><trkpt lat="42.3876434" lon="13.3334898"><ele>654.0</ele><time>2026-04-19T11:36:51.839Z</time></trkpt><trkpt lat="42.3874495" lon="13.3337289"><ele>654.0</ele><time>2026-04-19T11:36:52.838Z</time></trkpt><trkpt lat="42.3872668" lon="13.3339561"><ele>654.0</ele><time>2026-04-19T11:36:53.839Z</time></trkpt><trkpt lat="42.3870912" lon="13.3341865"><ele>652.0</ele><time>2026-04-19T11:36:54.839Z</time></trkpt><trkpt lat="42.3869316" lon="13.3344087"><ele>650.0</ele><time>2026-04-19T11:36:55.838Z</time></trkpt><trkpt lat="42.3867709" lon="13.3346316"><ele>650.0</ele><time>2026-04-19T11:36:56.838Z</time></trkpt><trkpt lat="42.3866116" lon="13.3348496"><ele>650.0</ele><time>2026-04-19T11:36:57.839Z</time></trkpt><trkpt lat="42.3864698" lon="13.3350758"><ele>650.0</ele><time>2026-04-19T11:36:58.838Z</time></trkpt><trkpt lat="42.3863441" lon="13.3353003"><ele>650.0</ele><time>2026-04-19T11:36:59.839Z</time></trkpt><trkpt lat="42.3862229" lon="13.3355184"><ele>650.0</ele><time>2026-04-19T11:37:00.839Z</time></trkpt><trkpt lat="42.3861058" lon="13.3357351"><ele>650.0</ele><time>2026-04-19T11:37:01.838Z</time></trkpt><trkpt lat="42.3859886" lon="13.3359596"><ele>650.3333333333333</ele><time>2026-04-19T11:37:02.839Z</time></trkpt><trkpt lat="42.385877" lon="13.3361918"><ele>650.6666666666666</ele><time>2026-04-19T11:37:03.839Z</time></trkpt><trkpt lat="42.3857686" lon="13.3364173"><ele>651.0</ele><time>2026-04-19T11:37:04.838Z</time></trkpt><trkpt lat="42.3856629" lon="13.3366289"><ele>651.3333333333334</ele><time>2026-04-19T11:37:05.838Z</time></trkpt><trkpt lat="42.3855612" lon="13.3368397"><ele>651.6666666666667</ele><time>2026-04-19T11:37:06.839Z</time></trkpt><trkpt lat="42.3854679" lon="13.337033"><ele>652.0</ele><time>2026-04-19T11:37:07.838Z</time></trkpt><trkpt lat="42.3853804" lon="13.3372262"><ele>651.3333333333334</ele><time>2026-04-19T11:37:08.838Z</time></trkpt><trkpt lat="42.3852952" lon="13.3374101"><ele>650.6666666666666</ele><time>2026-04-19T11:37:09.838Z</time></trkpt><trkpt lat="42.3852122" lon="13.3375885"><ele>650.0</ele><time>2026-04-19T11:37:10.838Z</time></trkpt><trkpt lat="42.385134" lon="13.3377597"><ele>650.0</ele><time>2026-04-19T11:37:11.839Z</time></trkpt><trkpt lat="42.3850609" lon="13.3379214"><ele>650.0</ele><time>2026-04-19T11:37:12.839Z</time></trkpt><trkpt lat="42.3849914" lon="13.3380718"><ele>650.0</ele><time>2026-04-19T11:37:13.839Z</time></trkpt><trkpt lat="42.3849212" lon="13.3382198"><ele>650.0</ele><time>2026-04-19T11:37:14.839Z</time></trkpt><trkpt lat="42.3848506" lon="13.3383623"><ele>650.5</ele><time>2026-04-19T11:37:15.838Z</time></trkpt><trkpt lat="42.384788" lon="13.3384996"><ele>651.0</ele><time>2026-04-19T11:37:16.838Z</time></trkpt><trkpt lat="42.3847151" lon="13.3386353"><ele>651.5</ele><time>2026-04-19T11:37:17.839Z</time></trkpt><trkpt lat="42.384649" lon="13.3387832"><ele>652.0</ele><time>2026-04-19T11:37:18.838Z</time></trkpt><trkpt lat="42.3845816" lon="13.3389351"><ele>651.0</ele><time>2026-04-19T11:37:19.838Z</time></trkpt><trkpt lat="42.3845133" lon="13.3390756"><ele>650.0</ele><time>2026-04-19T11:37:20.839Z</time></trkpt><trkpt lat="42.3844464" lon="13.3392203"><ele>649.0</ele><time>2026-04-19T11:37:21.838Z</time></trkpt><trkpt lat="42.3843802" lon="13.3393704"><ele>648.0</ele><time>2026-04-19T11:37:22.838Z</time></trkpt><trkpt lat="42.3843107" lon="13.339523"><ele>648.0</ele><time>2026-04-19T11:37:23.838Z</time></trkpt><trkpt lat="42.3842369" lon="13.3396748"><ele>648.0</ele><time>2026-04-19T11:37:24.839Z</time></trkpt><trkpt lat="42.3841672" lon="13.3398284"><ele>648.0</ele><time>2026-04-19T11:37:25.838Z</time></trkpt><trkpt lat="42.384097" lon="13.3399816"><ele>648.0</ele><time>2026-04-19T11:37:26.839Z</time></trkpt><trkpt lat="42.384025" lon="13.3401388"><ele>648.25</ele><time>2026-04-19T11:37:27.838Z</time></trkpt><trkpt lat="42.3839469" lon="13.3403016"><ele>648.5</ele><time>2026-04-19T11:37:28.838Z</time></trkpt><trkpt lat="42.3838713" lon="13.340463"><ele>648.75</ele><time>2026-04-19T11:37:29.838Z</time></trkpt><trkpt lat="42.3837954" lon="13.3406218"><ele>649.0</ele><time>2026-04-19T11:37:30.838Z</time></trkpt><trkpt lat="42.3837216" lon="13.3407747"><ele>648.25</ele><time>2026-04-19T11:37:31.838Z</time></trkpt><trkpt lat="42.3836502" lon="13.3409184"><ele>647.5</ele><time>2026-04-19T11:37:32.839Z</time></trkpt><trkpt lat="42.383585" lon="13.341061"><ele>646.75</ele><time>2026-04-19T11:37:33.838Z</time></trkpt><trkpt lat="42.3835248" lon="13.341182"><ele>646.0</ele><time>2026-04-19T11:37:34.838Z</time></trkpt><trkpt lat="42.3834704" lon="13.3412921"><ele>645.8</ele><time>2026-04-19T11:37:35.838Z</time></trkpt><trkpt lat="42.3834071" lon="13.341391"><ele>645.5999999999999</ele><time>2026-04-19T11:37:36.839Z</time></trkpt><trkpt lat="42.3833274" lon="13.3414805"><ele>645.4</ele><time>2026-04-19T11:37:37.839Z</time></trkpt><trkpt lat="42.3832298" lon="13.3415615"><ele>645.2</ele><time>2026-04-19T11:37:38.839Z</time></trkpt><trkpt lat="42.3831171" lon="13.3416527"><ele>645.0</ele><time>2026-04-19T11:37:39.839Z</time></trkpt><trkpt lat="42.3829954" lon="13.3417454"><ele>645.0</ele><time>2026-04-19T11:37:40.839Z</time></trkpt><trkpt lat="42.3828746" lon="13.3418437"><ele>645.0</ele><time>2026-04-19T11:37:41.839Z</time></trkpt><trkpt lat="42.3827584" lon="13.341959"><ele>645.0</ele><time>2026-04-19T11:37:42.839Z</time></trkpt><trkpt lat="42.3826341" lon="13.3420718"><ele>645.0</ele><time>2026-04-19T11:37:43.839Z</time></trkpt><trkpt lat="42.3825136" lon="13.3421878"><ele>644.75</ele><time>2026-04-19T11:37:44.838Z</time></trkpt><trkpt lat="42.3823979" lon="13.3423085"><ele>644.5</ele><time>2026-04-19T11:37:45.838Z</time></trkpt><trkpt lat="42.3822942" lon="13.3424351"><ele>644.25</ele><time>2026-04-19T11:37:46.838Z</time></trkpt><trkpt lat="42.3822091" lon="13.3425634"><ele>644.0</ele><time>2026-04-19T11:37:47.839Z</time></trkpt><trkpt lat="42.3821334" lon="13.3426909"><ele>644.0</ele><time>2026-04-19T11:37:48.838Z</time></trkpt><trkpt lat="42.3820564" lon="13.342821"><ele>644.0</ele><time>2026-04-19T11:37:49.838Z</time></trkpt><trkpt lat="42.3819736" lon="13.3429572"><ele>644.0</ele><time>2026-04-19T11:37:50.838Z</time></trkpt><trkpt lat="42.3818915" lon="13.3430968"><ele>644.0</ele><time>2026-04-19T11:37:51.839Z</time></trkpt><trkpt lat="42.3818146" lon="13.3432335"><ele>645.0</ele><time>2026-04-19T11:37:52.839Z</time></trkpt><trkpt lat="42.3817333" lon="13.3433681"><ele>646.0</ele><time>2026-04-19T11:37:53.838Z</time></trkpt><trkpt lat="42.3816442" lon="13.3434988"><ele>647.0</ele><time>2026-04-19T11:37:54.838Z</time></trkpt><trkpt lat="42.3815282" lon="13.3436173"><ele>648.0</ele><time>2026-04-19T11:37:55.838Z</time></trkpt><trkpt lat="42.3814076" lon="13.343729"><ele>648.25</ele><time>2026-04-19T11:37:56.838Z</time></trkpt><trkpt lat="42.3812858" lon="13.3438319"><ele>648.5</ele><time>2026-04-19T11:37:57.838Z</time></trkpt><trkpt lat="42.3811669" lon="13.3439273"><ele>648.75</ele><time>2026-04-19T11:37:58.838Z</time></trkpt><trkpt lat="42.3810508" lon="13.3440245"><ele>649.0</ele><time>2026-04-19T11:37:59.838Z</time></trkpt><trkpt lat="42.3809396" lon="13.3441333"><ele>649.0</ele><time>2026-04-19T11:38:00.838Z</time></trkpt><trkpt lat="42.3808244" lon="13.3442498"><ele>649.0</ele><time>2026-04-19T11:38:01.838Z</time></trkpt><trkpt lat="42.3807093" lon="13.344375"><ele>649.0</ele><time>2026-04-19T11:38:02.838Z</time></trkpt><trkpt lat="42.3805877" lon="13.3445054"><ele>649.0</ele><time>2026-04-19T11:38:03.839Z</time></trkpt><trkpt lat="42.3804653" lon="13.3446387"><ele>647.6666666666667</ele><time>2026-04-19T11:38:04.839Z</time></trkpt><trkpt lat="42.380336" lon="13.3447778"><ele>646.3333333333334</ele><time>2026-04-19T11:38:05.839Z</time></trkpt><trkpt lat="42.3802185" lon="13.3449058"><ele>645.0</ele><time>2026-04-19T11:38:06.839Z</time></trkpt><trkpt lat="42.3801064" lon="13.3450272"><ele>645.0</ele><time>2026-04-19T11:38:07.838Z</time></trkpt><trkpt lat="42.3800004" lon="13.345147"><ele>645.0</ele><time>2026-04-19T11:38:08.838Z</time></trkpt><trkpt lat="42.3798902" lon="13.3452719"><ele>645.0</ele><time>2026-04-19T11:38:09.839Z</time></trkpt><trkpt lat="42.3797676" lon="13.3454112"><ele>645.0</ele><time>2026-04-19T11:38:10.838Z</time></trkpt><trkpt lat="42.3796339" lon="13.3455563"><ele>645.6666666666666</ele><time>2026-04-19T11:38:11.838Z</time></trkpt><trkpt lat="42.3795019" lon="13.3457079"><ele>646.3333333333333</ele><time>2026-04-19T11:38:12.838Z</time></trkpt><trkpt lat="42.3793666" lon="13.3458505"><ele>647.0</ele><time>2026-04-19T11:38:13.839Z</time></trkpt><trkpt lat="42.3792269" lon="13.3459765"><ele>647.0</ele><time>2026-04-19T11:38:14.839Z</time></trkpt><trkpt lat="42.3790743" lon="13.3460822"><ele>647.0</ele><time>2026-04-19T11:38:15.839Z</time></trkpt><trkpt lat="42.3789114" lon="13.3461585"><ele>647.0</ele><time>2026-04-19T11:38:16.838Z</time></trkpt><trkpt lat="42.3787369" lon="13.346218"><ele>646.0</ele><time>2026-04-19T11:38:17.838Z</time></trkpt><trkpt lat="42.3785603" lon="13.346256"><ele>645.0</ele><time>2026-04-19T11:38:18.838Z</time></trkpt><trkpt lat="42.3783966" lon="13.3462745"><ele>644.0</ele><time>2026-04-19T11:38:19.838Z</time></trkpt><trkpt lat="42.3782357" lon="13.3462857"><ele>644.0</ele><time>2026-04-19T11:38:20.838Z</time></trkpt><trkpt lat="42.3780813" lon="13.3462909"><ele>644.0</ele><time>2026-04-19T11:38:21.839Z</time></trkpt><trkpt lat="42.3779218" lon="13.3463015"><ele>644.0</ele><time>2026-04-19T11:38:22.839Z</time></trkpt><trkpt lat="42.3777626" lon="13.3463312"><ele>645.0</ele><time>2026-04-19T11:38:23.838Z</time></trkpt><trkpt lat="42.37761" lon="13.3463872"><ele>646.0</ele><time>2026-04-19T11:38:24.839Z</time></trkpt><trkpt lat="42.3774524" lon="13.3464494"><ele>647.0</ele><time>2026-04-19T11:38:25.839Z</time></trkpt><trkpt lat="42.3772994" lon="13.3465438"><ele>645.6666666666666</ele><time>2026-04-19T11:38:26.838Z</time></trkpt><trkpt lat="42.3771494" lon="13.3466444"><ele>644.3333333333334</ele><time>2026-04-19T11:38:27.838Z</time></trkpt><trkpt lat="42.3770017" lon="13.3467543"><ele>643.0</ele><time>2026-04-19T11:38:28.839Z</time></trkpt><trkpt lat="42.3768571" lon="13.3468517"><ele>643.0</ele><time>2026-04-19T11:38:29.839Z</time></trkpt><trkpt lat="42.3767179" lon="13.3469524"><ele>643.0</ele><time>2026-04-19T11:38:30.838Z</time></trkpt><trkpt lat="42.3765805" lon="13.3470494"><ele>643.0</ele><time>2026-04-19T11:38:31.838Z</time></trkpt><trkpt lat="42.3764431" lon="13.3471484"><ele>643.3333333333334</ele><time>2026-04-19T11:38:32.839Z</time></trkpt><trkpt lat="42.3763064" lon="13.3472526"><ele>643.6666666666666</ele><time>2026-04-19T11:38:33.838Z</time></trkpt><trkpt lat="42.3761651" lon="13.3473553"><ele>644.0</ele><time>2026-04-19T11:38:34.838Z</time></trkpt><trkpt lat="42.3760215" lon="13.3474621"><ele>644.0</ele><time>2026-04-19T11:38:35.838Z</time></trkpt><trkpt lat="42.3758748" lon="13.3475701"><ele>644.0</ele><time>2026-04-19T11:38:36.838Z</time></trkpt><trkpt lat="42.3757231" lon="13.3476846"><ele>644.0</ele><time>2026-04-19T11:38:37.838Z</time></trkpt><trkpt lat="42.3755678" lon="13.3477976"><ele>643.6666666666666</ele><time>2026-04-19T11:38:38.838Z</time></trkpt><trkpt lat="42.3754115" lon="13.3479224"><ele>643.3333333333334</ele><time>2026-04-19T11:38:39.838Z</time></trkpt><trkpt lat="42.3752522" lon="13.3480448"><ele>643.0</ele><time>2026-04-19T11:38:40.838Z</time></trkpt><trkpt lat="42.3750997" lon="13.348171"><ele>643.0</ele><time>2026-04-19T11:38:41.839Z</time></trkpt><trkpt lat="42.3749611" lon="13.3482992"><ele>643.0</ele><time>2026-04-19T11:38:42.838Z</time></trkpt><trkpt lat="42.374839" lon="13.3484199"><ele>643.0</ele><time>2026-04-19T11:38:43.838Z</time></trkpt><trkpt lat="42.374722" lon="13.3485417"><ele>642.5</ele><time>2026-04-19T11:38:44.838Z</time></trkpt><trkpt lat="42.3746143" lon="13.3486541"><ele>642.0</ele><time>2026-04-19T11:38:45.838Z</time></trkpt><trkpt lat="42.3745122" lon="13.3487548"><ele>641.5</ele><time>2026-04-19T11:38:46.839Z</time></trkpt><trkpt lat="42.3744105" lon="13.3488477"><ele>641.0</ele><time>2026-04-19T11:38:47.839Z</time></trkpt><trkpt lat="42.3743132" lon="13.348951"><ele>641.8</ele><time>2026-04-19T11:38:48.839Z</time></trkpt><trkpt lat="42.3742214" lon="13.3490529"><ele>642.5999999999999</ele><time>2026-04-19T11:38:49.839Z</time></trkpt><trkpt lat="42.3741374" lon="13.3491486"><ele>643.4</ele><time>2026-04-19T11:38:50.839Z</time></trkpt><trkpt lat="42.3740556" lon="13.3492465"><ele>644.2</ele><time>2026-04-19T11:38:51.838Z</time></trkpt><trkpt lat="42.3739753" lon="13.3493455"><ele>645.0</ele><time>2026-04-19T11:38:52.839Z</time></trkpt><trkpt lat="42.3738981" lon="13.3494431"><ele>645.1666666666666</ele><time>2026-04-19T11:38:53.838Z</time></trkpt><trkpt lat="42.3738263" lon="13.3495372"><ele>645.3333333333334</ele><time>2026-04-19T11:38:54.839Z</time></trkpt><trkpt lat="42.3737522" lon="13.3496234"><ele>645.5</ele><time>2026-04-19T11:38:55.839Z</time></trkpt><trkpt lat="42.3736901" lon="13.3496976"><ele>645.6666666666667</ele><time>2026-04-19T11:38:56.839Z</time></trkpt><trkpt lat="42.3736228" lon="13.3497677"><ele>645.8333333333334</ele><time>2026-04-19T11:38:57.839Z</time></trkpt><trkpt lat="42.3735632" lon="13.3498349"><ele>646.0</ele><time>2026-04-19T11:38:58.839Z</time></trkpt><trkpt lat="42.373509" lon="13.3498882"><ele>646.0</ele><time>2026-04-19T11:38:59.839Z</time></trkpt><trkpt lat="42.3734342" lon="13.3499689"><ele>646.0</ele><time>2026-04-19T11:39:01.838Z</time></trkpt><trkpt lat="42.373358" lon="13.3500024"><ele>646.0</ele><time>2026-04-19T11:39:04.839Z</time></trkpt><trkpt lat="42.3732377" lon="13.3500706"><ele>646.0</ele><time>2026-04-19T11:39:06.838Z</time></trkpt><trkpt lat="42.3731812" lon="13.3501374"><ele>646.0</ele><time>2026-04-19T11:39:07.838Z</time></trkpt><trkpt lat="42.3731378" lon="13.3502383"><ele>646.0</ele><time>2026-04-19T11:39:08.838Z</time></trkpt><trkpt lat="42.3730909" lon="13.3503546"><ele>646.0</ele><time>2026-04-19T11:39:09.838Z</time></trkpt><trkpt lat="42.3730426" lon="13.3504731"><ele>646.0</ele><time>2026-04-19T11:39:10.839Z</time></trkpt><trkpt lat="42.3729807" lon="13.3506145"><ele>646.0</ele><time>2026-04-19T11:39:11.838Z</time></trkpt><trkpt lat="42.3729076" lon="13.3507427"><ele>646.0</ele><time>2026-04-19T11:39:12.838Z</time></trkpt><trkpt lat="42.3728178" lon="13.3508884"><ele>646.6666666666667</ele><time>2026-04-19T11:39:13.838Z</time></trkpt><trkpt lat="42.3727294" lon="13.3510622"><ele>647.3333333333334</ele><time>2026-04-19T11:39:14.838Z</time></trkpt><trkpt lat="42.372637" lon="13.3512409"><ele>648.0</ele><time>2026-04-19T11:39:15.838Z</time></trkpt><trkpt lat="42.3725555" lon="13.3514179"><ele>648.0</ele><time>2026-04-19T11:39:16.838Z</time></trkpt><trkpt lat="42.3724836" lon="13.3515783"><ele>648.0</ele><time>2026-04-19T11:39:17.839Z</time></trkpt><trkpt lat="42.372414" lon="13.3517318"><ele>648.0</ele><time>2026-04-19T11:39:18.838Z</time></trkpt><trkpt lat="42.3723433" lon="13.3518823"><ele>648.0</ele><time>2026-04-19T11:39:19.838Z</time></trkpt><trkpt lat="42.3722663" lon="13.3520398"><ele>648.0</ele><time>2026-04-19T11:39:20.838Z</time></trkpt><trkpt lat="42.3721906" lon="13.3521929"><ele>648.0</ele><time>2026-04-19T11:39:21.839Z</time></trkpt><trkpt lat="42.3721169" lon="13.35235"><ele>648.0</ele><time>2026-04-19T11:39:22.846Z</time></trkpt><trkpt lat="42.3720442" lon="13.352512"><ele>648.0</ele><time>2026-04-19T11:39:23.846Z</time></trkpt><trkpt lat="42.3719662" lon="13.3526769"><ele>648.0</ele><time>2026-04-19T11:39:24.847Z</time></trkpt><trkpt lat="42.3718879" lon="13.35284"><ele>648.0</ele><time>2026-04-19T11:39:25.847Z</time></trkpt><trkpt lat="42.3718055" lon="13.3530092"><ele>648.0</ele><time>2026-04-19T11:39:26.846Z</time></trkpt><trkpt lat="42.371725" lon="13.3531789"><ele>648.0</ele><time>2026-04-19T11:39:27.846Z</time></trkpt><trkpt lat="42.3716455" lon="13.3533441"><ele>648.25</ele><time>2026-04-19T11:39:28.846Z</time></trkpt><trkpt lat="42.3715679" lon="13.3535078"><ele>648.5</ele><time>2026-04-19T11:39:29.846Z</time></trkpt><trkpt lat="42.3714915" lon="13.3536712"><ele>648.75</ele><time>2026-04-19T11:39:30.847Z</time></trkpt><trkpt lat="42.3714202" lon="13.3538301"><ele>649.0</ele><time>2026-04-19T11:39:31.846Z</time></trkpt><trkpt lat="42.3713516" lon="13.353975"><ele>649.25</ele><time>2026-04-19T11:39:32.847Z</time></trkpt><trkpt lat="42.3712874" lon="13.3541194"><ele>649.5</ele><time>2026-04-19T11:39:33.846Z</time></trkpt><trkpt lat="42.371222" lon="13.3542447"><ele>649.75</ele><time>2026-04-19T11:39:34.846Z</time></trkpt><trkpt lat="42.3711515" lon="13.3543777"><ele>650.0</ele><time>2026-04-19T11:39:35.846Z</time></trkpt><trkpt lat="42.3710825" lon="13.354514"><ele>650.0</ele><time>2026-04-19T11:39:36.846Z</time></trkpt><trkpt lat="42.3710127" lon="13.3546583"><ele>650.0</ele><time>2026-04-19T11:39:37.846Z</time></trkpt><trkpt lat="42.3709384" lon="13.3548021"><ele>650.0</ele><time>2026-04-19T11:39:38.846Z</time></trkpt><trkpt lat="42.3708632" lon="13.3549411"><ele>650.0</ele><time>2026-04-19T11:39:39.846Z</time></trkpt><trkpt lat="42.370788" lon="13.3550749"><ele>650.0</ele><time>2026-04-19T11:39:40.846Z</time></trkpt><trkpt lat="42.3707094" lon="13.3552085"><ele>650.0</ele><time>2026-04-19T11:39:41.847Z</time></trkpt><trkpt lat="42.3706365" lon="13.3553294"><ele>650.0</ele><time>2026-04-19T11:39:42.846Z</time></trkpt><trkpt lat="42.3705644" lon="13.3554513"><ele>650.0</ele><time>2026-04-19T11:39:43.846Z</time></trkpt><trkpt lat="42.3704914" lon="13.355586"><ele>649.75</ele><time>2026-04-19T11:39:44.846Z</time></trkpt><trkpt lat="42.3704183" lon="13.3557195"><ele>649.5</ele><time>2026-04-19T11:39:45.846Z</time></trkpt><trkpt lat="42.370345" lon="13.3558533"><ele>649.25</ele><time>2026-04-19T11:39:46.846Z</time></trkpt><trkpt lat="42.3702722" lon="13.3559847"><ele>649.0</ele><time>2026-04-19T11:39:47.846Z</time></trkpt><trkpt lat="42.3702012" lon="13.3561056"><ele>649.0</ele><time>2026-04-19T11:39:48.846Z</time></trkpt><trkpt lat="42.3701249" lon="13.3562269"><ele>649.0</ele><time>2026-04-19T11:39:49.846Z</time></trkpt><trkpt lat="42.3700532" lon="13.3563532"><ele>649.0</ele><time>2026-04-19T11:39:50.847Z</time></trkpt><trkpt lat="42.3699822" lon="13.3564677"><ele>649.0</ele><time>2026-04-19T11:39:51.847Z</time></trkpt><trkpt lat="42.3699151" lon="13.3565959"><ele>649.0</ele><time>2026-04-19T11:39:52.846Z</time></trkpt><trkpt lat="42.3698424" lon="13.3567275"><ele>649.0</ele><time>2026-04-19T11:39:53.846Z</time></trkpt><trkpt lat="42.3697762" lon="13.3568577"><ele>649.0</ele><time>2026-04-19T11:39:54.846Z</time></trkpt><trkpt lat="42.3697025" lon="13.3569909"><ele>649.0</ele><time>2026-04-19T11:39:55.847Z</time></trkpt><trkpt lat="42.3696301" lon="13.3571147"><ele>649.3333333333334</ele><time>2026-04-19T11:39:56.846Z</time></trkpt><trkpt lat="42.3695639" lon="13.3572354"><ele>649.6666666666667</ele><time>2026-04-19T11:39:57.846Z</time></trkpt><trkpt lat="42.3695005" lon="13.3573396"><ele>650.0</ele><time>2026-04-19T11:39:58.847Z</time></trkpt><trkpt lat="42.3694355" lon="13.3574226"><ele>650.3333333333334</ele><time>2026-04-19T11:39:59.846Z</time></trkpt><trkpt lat="42.369378" lon="13.3574907"><ele>650.6666666666666</ele><time>2026-04-19T11:40:00.846Z</time></trkpt><trkpt lat="42.3693227" lon="13.3575374"><ele>651.0</ele><time>2026-04-19T11:40:01.847Z</time></trkpt><trkpt lat="42.3692138" lon="13.3575807"><ele>651.0</ele><time>2026-04-19T11:40:03.847Z</time></trkpt><trkpt lat="42.3690859" lon="13.3576069"><ele>651.0</ele><time>2026-04-19T11:40:05.847Z</time></trkpt><trkpt lat="42.3690114" lon="13.357629"><ele>651.0</ele><time>2026-04-19T11:40:06.847Z</time></trkpt><trkpt lat="42.3689475" lon="13.3576829"><ele>651.0</ele><time>2026-04-19T11:40:07.847Z</time></trkpt><trkpt lat="42.3688783" lon="13.3578216"><ele>651.0</ele><time>2026-04-19T11:40:09.846Z</time></trkpt><trkpt lat="42.3688822" lon="13.357912"><ele>651.0</ele><time>2026-04-19T11:40:10.846Z</time></trkpt><trkpt lat="42.3688967" lon="13.3580132"><ele>651.0</ele><time>2026-04-19T11:40:11.847Z</time></trkpt><trkpt lat="42.3689175" lon="13.3581092"><ele>651.0</ele><time>2026-04-19T11:40:12.846Z</time></trkpt><trkpt lat="42.3689261" lon="13.3581995"><ele>651.0</ele><time>2026-04-19T11:40:13.846Z</time></trkpt><trkpt lat="42.3689236" lon="13.3582908"><ele>651.0</ele><time>2026-04-19T11:40:14.847Z</time></trkpt><trkpt lat="42.368893" lon="13.3584024"><ele>651.0</ele><time>2026-04-19T11:40:15.846Z</time></trkpt><trkpt lat="42.3688407" lon="13.3585307"><ele>650.75</ele><time>2026-04-19T11:40:16.846Z</time></trkpt><trkpt lat="42.368783" lon="13.3586665"><ele>650.5</ele><time>2026-04-19T11:40:17.847Z</time></trkpt><trkpt lat="42.3687026" lon="13.3588011"><ele>650.25</ele><time>2026-04-19T11:40:18.846Z</time></trkpt><trkpt lat="42.3686093" lon="13.3589474"><ele>650.0</ele><time>2026-04-19T11:40:19.846Z</time></trkpt><trkpt lat="42.368521" lon="13.3591043"><ele>650.0</ele><time>2026-04-19T11:40:20.846Z</time></trkpt><trkpt lat="42.368426" lon="13.3592691"><ele>650.0</ele><time>2026-04-19T11:40:21.847Z</time></trkpt><trkpt lat="42.3683414" lon="13.3594134"><ele>650.0</ele><time>2026-04-19T11:40:22.847Z</time></trkpt><trkpt lat="42.36827" lon="13.3595467"><ele>650.0</ele><time>2026-04-19T11:40:23.846Z</time></trkpt><trkpt lat="42.3682002" lon="13.3596777"><ele>649.75</ele><time>2026-04-19T11:40:24.847Z</time></trkpt><trkpt lat="42.3681211" lon="13.359819"><ele>649.5</ele><time>2026-04-19T11:40:25.847Z</time></trkpt><trkpt lat="42.3680474" lon="13.3599606"><ele>649.25</ele><time>2026-04-19T11:40:26.847Z</time></trkpt><trkpt lat="42.3679703" lon="13.3600935"><ele>649.0</ele><time>2026-04-19T11:40:27.847Z</time></trkpt><trkpt lat="42.3678961" lon="13.3602149"><ele>649.0</ele><time>2026-04-19T11:40:28.846Z</time></trkpt><trkpt lat="42.3678295" lon="13.3603294"><ele>649.0</ele><time>2026-04-19T11:40:29.846Z</time></trkpt><trkpt lat="42.3677604" lon="13.3604524"><ele>649.0</ele><time>2026-04-19T11:40:30.846Z</time></trkpt><trkpt lat="42.3676849" lon="13.3605861"><ele>649.0</ele><time>2026-04-19T11:40:31.846Z</time></trkpt><trkpt lat="42.3676181" lon="13.3607042"><ele>649.4000000000001</ele><time>2026-04-19T11:40:32.847Z</time></trkpt><trkpt lat="42.3675475" lon="13.360819"><ele>649.8</ele><time>2026-04-19T11:40:33.847Z</time></trkpt><trkpt lat="42.3674854" lon="13.3609262"><ele>650.2</ele><time>2026-04-19T11:40:34.846Z</time></trkpt><trkpt lat="42.36743" lon="13.3610301"><ele>650.5999999999999</ele><time>2026-04-19T11:40:35.846Z</time></trkpt><trkpt lat="42.367375" lon="13.3611303"><ele>651.0</ele><time>2026-04-19T11:40:36.846Z</time></trkpt><trkpt lat="42.3673197" lon="13.3612205"><ele>651.0</ele><time>2026-04-19T11:40:37.847Z</time></trkpt><trkpt lat="42.3672651" lon="13.3613219"><ele>651.0</ele><time>2026-04-19T11:40:38.846Z</time></trkpt><trkpt lat="42.3672011" lon="13.361438"><ele>651.0</ele><time>2026-04-19T11:40:39.846Z</time></trkpt><trkpt lat="42.3671347" lon="13.3615535"><ele>651.0</ele><time>2026-04-19T11:40:40.847Z</time></trkpt><trkpt lat="42.3670735" lon="13.3616637"><ele>651.0</ele><time>2026-04-19T11:40:41.847Z</time></trkpt><trkpt lat="42.3670135" lon="13.3617723"><ele>651.4</ele><time>2026-04-19T11:40:42.846Z</time></trkpt><trkpt lat="42.3669564" lon="13.3618807"><ele>651.8</ele><time>2026-04-19T11:40:43.846Z</time></trkpt><trkpt lat="42.3668977" lon="13.3619847"><ele>652.1999999999999</ele><time>2026-04-19T11:40:44.846Z</time></trkpt><trkpt lat="42.3668423" lon="13.3620797"><ele>652.5999999999999</ele><time>2026-04-19T11:40:45.846Z</time></trkpt><trkpt lat="42.3667835" lon="13.3621829"><ele>653.0</ele><time>2026-04-19T11:40:46.846Z</time></trkpt><trkpt lat="42.3667239" lon="13.3622976"><ele>653.0</ele><time>2026-04-19T11:40:47.847Z</time></trkpt><trkpt lat="42.3666551" lon="13.3624206"><ele>653.0</ele><time>2026-04-19T11:40:48.847Z</time></trkpt><trkpt lat="42.366588" lon="13.3625371"><ele>653.0</ele><time>2026-04-19T11:40:49.847Z</time></trkpt><trkpt lat="42.3665215" lon="13.3626563"><ele>653.0</ele><time>2026-04-19T11:40:50.846Z</time></trkpt><trkpt lat="42.3664509" lon="13.3627765"><ele>653.0</ele><time>2026-04-19T11:40:51.847Z</time></trkpt><trkpt lat="42.3663856" lon="13.3628963"><ele>652.0</ele><time>2026-04-19T11:40:52.846Z</time></trkpt><trkpt lat="42.3663142" lon="13.363025"><ele>651.0</ele><time>2026-04-19T11:40:53.847Z</time></trkpt><trkpt lat="42.3662424" lon="13.3631572"><ele>650.0</ele><time>2026-04-19T11:40:54.846Z</time></trkpt><trkpt lat="42.3661673" lon="13.3632834"><ele>649.0</ele><time>2026-04-19T11:40:55.847Z</time></trkpt><trkpt lat="42.3660975" lon="13.3634045"><ele>649.0</ele><time>2026-04-19T11:40:56.847Z</time></trkpt><trkpt lat="42.3660308" lon="13.3635201"><ele>649.0</ele><time>2026-04-19T11:40:57.847Z</time></trkpt><trkpt lat="42.3659665" lon="13.3636363"><ele>649.0</ele><time>2026-04-19T11:40:58.847Z</time></trkpt><trkpt lat="42.3658995" lon="13.3637534"><ele>649.0</ele><time>2026-04-19T11:40:59.847Z</time></trkpt><trkpt lat="42.3658353" lon="13.3638658"><ele>649.0</ele><time>2026-04-19T11:41:00.847Z</time></trkpt><trkpt lat="42.3657739" lon="13.3639697"><ele>649.6</ele><time>2026-04-19T11:41:01.846Z</time></trkpt><trkpt lat="42.3657153" lon="13.3640714"><ele>650.2</ele><time>2026-04-19T11:41:02.846Z</time></trkpt><trkpt lat="42.3656549" lon="13.36417"><ele>650.8000000000001</ele><time>2026-04-19T11:41:03.847Z</time></trkpt><trkpt lat="42.3655891" lon="13.3642806"><ele>651.4000000000001</ele><time>2026-04-19T11:41:04.846Z</time></trkpt><trkpt lat="42.3655246" lon="13.364392"><ele>652.0</ele><time>2026-04-19T11:41:05.846Z</time></trkpt><trkpt lat="42.3654672" lon="13.3644911"><ele>651.5</ele><time>2026-04-19T11:41:06.846Z</time></trkpt><trkpt lat="42.3654066" lon="13.3645874"><ele>651.0</ele><time>2026-04-19T11:41:07.846Z</time></trkpt><trkpt lat="42.36535" lon="13.3646819"><ele>650.5</ele><time>2026-04-19T11:41:08.847Z</time></trkpt><trkpt lat="42.3652936" lon="13.364771"><ele>650.0</ele><time>2026-04-19T11:41:09.846Z</time></trkpt><trkpt lat="42.3652341" lon="13.3648635"><ele>649.5</ele><time>2026-04-19T11:41:10.846Z</time></trkpt><trkpt lat="42.3651823" lon="13.3649529"><ele>649.0</ele><time>2026-04-19T11:41:11.846Z</time></trkpt><trkpt lat="42.3651236" lon="13.3650445"><ele>649.0</ele><time>2026-04-19T11:41:12.846Z</time></trkpt><trkpt lat="42.3650728" lon="13.3651332"><ele>649.0</ele><time>2026-04-19T11:41:13.847Z</time></trkpt><trkpt lat="42.3650186" lon="13.3652181"><ele>649.0</ele><time>2026-04-19T11:41:14.846Z</time></trkpt><trkpt lat="42.364962" lon="13.3652959"><ele>649.0</ele><time>2026-04-19T11:41:15.847Z</time></trkpt><trkpt lat="42.3648971" lon="13.365358"><ele>649.0</ele><time>2026-04-19T11:41:16.847Z</time></trkpt><trkpt lat="42.3648363" lon="13.3654205"><ele>649.0</ele><time>2026-04-19T11:41:17.846Z</time></trkpt><trkpt lat="42.3647956" lon="13.3654985"><ele>649.0</ele><time>2026-04-19T11:41:18.847Z</time></trkpt><trkpt lat="42.3647765" lon="13.3656097"><ele>649.0</ele><time>2026-04-19T11:41:19.846Z</time></trkpt><trkpt lat="42.3647616" lon="13.3657393"><ele>649.0</ele><time>2026-04-19T11:41:20.847Z</time></trkpt><trkpt lat="42.3647313" lon="13.3658687"><ele>649.0</ele><time>2026-04-19T11:41:21.847Z</time></trkpt><trkpt lat="42.3646944" lon="13.366007"><ele>649.0</ele><time>2026-04-19T11:41:22.846Z</time></trkpt><trkpt lat="42.3646512" lon="13.3661442"><ele>648.4000000000001</ele><time>2026-04-19T11:41:23.846Z</time></trkpt><trkpt lat="42.3646079" lon="13.366285"><ele>647.8</ele><time>2026-04-19T11:41:24.847Z</time></trkpt><trkpt lat="42.3645671" lon="13.366423"><ele>647.2</ele><time>2026-04-19T11:41:25.846Z</time></trkpt><trkpt lat="42.3645312" lon="13.3665536"><ele>646.5999999999999</ele><time>2026-04-19T11:41:26.846Z</time></trkpt><trkpt lat="42.3644897" lon="13.3666786"><ele>646.0</ele><time>2026-04-19T11:41:27.846Z</time></trkpt><trkpt lat="42.3644442" lon="13.3668047"><ele>645.8</ele><time>2026-04-19T11:41:28.846Z</time></trkpt><trkpt lat="42.3644014" lon="13.3669455"><ele>645.5999999999999</ele><time>2026-04-19T11:41:29.847Z</time></trkpt><trkpt lat="42.364354" lon="13.3670723"><ele>645.4</ele><time>2026-04-19T11:41:30.846Z</time></trkpt><trkpt lat="42.3643054" lon="13.3672008"><ele>645.2</ele><time>2026-04-19T11:41:31.847Z</time></trkpt><trkpt lat="42.3642591" lon="13.3673421"><ele>645.0</ele><time>2026-04-19T11:41:32.847Z</time></trkpt><trkpt lat="42.364211" lon="13.3674928"><ele>645.0</ele><time>2026-04-19T11:41:33.847Z</time></trkpt><trkpt lat="42.364159" lon="13.3676337"><ele>645.0</ele><time>2026-04-19T11:41:34.847Z</time></trkpt><trkpt lat="42.364108" lon="13.36777"><ele>645.0</ele><time>2026-04-19T11:41:35.847Z</time></trkpt><trkpt lat="42.364061" lon="13.3678999"><ele>645.0</ele><time>2026-04-19T11:41:36.846Z</time></trkpt><trkpt lat="42.3640142" lon="13.3680313"><ele>645.0</ele><time>2026-04-19T11:41:37.847Z</time></trkpt><trkpt lat="42.363966" lon="13.36816"><ele>645.0</ele><time>2026-04-19T11:41:38.847Z</time></trkpt><trkpt lat="42.363923" lon="13.3682966"><ele>645.0</ele><time>2026-04-19T11:41:39.847Z</time></trkpt><trkpt lat="42.3638744" lon="13.3684312"><ele>645.0</ele><time>2026-04-19T11:41:40.846Z</time></trkpt><trkpt lat="42.3638327" lon="13.3685535"><ele>645.0</ele><time>2026-04-19T11:41:41.846Z</time></trkpt><trkpt lat="42.3637914" lon="13.3686707"><ele>645.0</ele><time>2026-04-19T11:41:42.846Z</time></trkpt><trkpt lat="42.3637587" lon="13.3687713"><ele>644.4285714285714</ele><time>2026-04-19T11:41:43.846Z</time></trkpt><trkpt lat="42.363726" lon="13.3688544"><ele>643.8571428571428</ele><time>2026-04-19T11:41:44.847Z</time></trkpt><trkpt lat="42.3636985" lon="13.3689394"><ele>643.2857142857142</ele><time>2026-04-19T11:41:45.847Z</time></trkpt><trkpt lat="42.3636715" lon="13.369029"><ele>642.7142857142858</ele><time>2026-04-19T11:41:46.846Z</time></trkpt><trkpt lat="42.3636408" lon="13.3691118"><ele>642.1428571428571</ele><time>2026-04-19T11:41:47.846Z</time></trkpt><trkpt lat="42.3636121" lon="13.36919"><ele>641.5714285714286</ele><time>2026-04-19T11:41:48.847Z</time></trkpt><trkpt lat="42.3635825" lon="13.3692758"><ele>641.0</ele><time>2026-04-19T11:41:49.847Z</time></trkpt><trkpt lat="42.3635536" lon="13.3693644"><ele>641.0</ele><time>2026-04-19T11:41:50.847Z</time></trkpt><trkpt lat="42.3635268" lon="13.3694516"><ele>641.0</ele><time>2026-04-19T11:41:51.847Z</time></trkpt><trkpt lat="42.3634973" lon="13.3695355"><ele>641.0</ele><time>2026-04-19T11:41:52.846Z</time></trkpt><trkpt lat="42.3634684" lon="13.3696225"><ele>641.0</ele><time>2026-04-19T11:41:53.846Z</time></trkpt><trkpt lat="42.3634393" lon="13.3697157"><ele>641.0</ele><time>2026-04-19T11:41:54.847Z</time></trkpt><trkpt lat="42.3634027" lon="13.3698114"><ele>641.0</ele><time>2026-04-19T11:41:55.847Z</time></trkpt><trkpt lat="42.363366" lon="13.3699062"><ele>641.0</ele><time>2026-04-19T11:41:56.846Z</time></trkpt><trkpt lat="42.3633279" lon="13.3700033"><ele>641.1666666666666</ele><time>2026-04-19T11:41:57.847Z</time></trkpt><trkpt lat="42.3632904" lon="13.3701064"><ele>641.3333333333333</ele><time>2026-04-19T11:41:58.847Z</time></trkpt><trkpt lat="42.3632576" lon="13.3702131"><ele>641.5</ele><time>2026-04-19T11:41:59.846Z</time></trkpt><trkpt lat="42.36322" lon="13.370322"><ele>641.6666666666666</ele><time>2026-04-19T11:42:00.846Z</time></trkpt><trkpt lat="42.3631822" lon="13.3704247"><ele>641.8333333333334</ele><time>2026-04-19T11:42:01.846Z</time></trkpt><trkpt lat="42.363142" lon="13.3705422"><ele>642.0</ele><time>2026-04-19T11:42:02.847Z</time></trkpt><trkpt lat="42.3631016" lon="13.3706602"><ele>642.2</ele><time>2026-04-19T11:42:03.846Z</time></trkpt><trkpt lat="42.3630613" lon="13.3707792"><ele>642.4000000000001</ele><time>2026-04-19T11:42:04.846Z</time></trkpt><trkpt lat="42.3630121" lon="13.3709084"><ele>642.5999999999999</ele><time>2026-04-19T11:42:05.847Z</time></trkpt><trkpt lat="42.3629645" lon="13.371041"><ele>642.8</ele><time>2026-04-19T11:42:06.846Z</time></trkpt><trkpt lat="42.3629208" lon="13.3711745"><ele>643.0</ele><time>2026-04-19T11:42:07.847Z</time></trkpt><trkpt lat="42.3628785" lon="13.3712992"><ele>643.4</ele><time>2026-04-19T11:42:08.846Z</time></trkpt><trkpt lat="42.3628356" lon="13.3714233"><ele>643.8</ele><time>2026-04-19T11:42:09.846Z</time></trkpt><trkpt lat="42.3627899" lon="13.3715521"><ele>644.2</ele><time>2026-04-19T11:42:10.846Z</time></trkpt><trkpt lat="42.3627455" lon="13.3716775"><ele>644.6</ele><time>2026-04-19T11:42:11.847Z</time></trkpt><trkpt lat="42.3627028" lon="13.3718034"><ele>645.0</ele><time>2026-04-19T11:42:12.847Z</time></trkpt><trkpt lat="42.3626519" lon="13.3719256"><ele>645.0</ele><time>2026-04-19T11:42:13.847Z</time></trkpt><trkpt lat="42.3625995" lon="13.3720269"><ele>645.0</ele><time>2026-04-19T11:42:14.846Z</time></trkpt><trkpt lat="42.3625472" lon="13.3721184"><ele>645.0</ele><time>2026-04-19T11:42:15.847Z</time></trkpt><trkpt lat="42.3624903" lon="13.3721986"><ele>645.0</ele><time>2026-04-19T11:42:16.847Z</time></trkpt><trkpt lat="42.3624286" lon="13.3722579"><ele>645.0</ele><time>2026-04-19T11:42:17.846Z</time></trkpt><trkpt lat="42.3623679" lon="13.372308"><ele>645.0</ele><time>2026-04-19T11:42:18.847Z</time></trkpt><trkpt lat="42.3622983" lon="13.3723486"><ele>644.6666666666666</ele><time>2026-04-19T11:42:19.846Z</time></trkpt><trkpt lat="42.3622312" lon="13.3723763"><ele>644.3333333333334</ele><time>2026-04-19T11:42:20.847Z</time></trkpt><trkpt lat="42.3621567" lon="13.3723858"><ele>644.0</ele><time>2026-04-19T11:42:21.846Z</time></trkpt><trkpt lat="42.3620778" lon="13.3723831"><ele>643.6666666666667</ele><time>2026-04-19T11:42:22.846Z</time></trkpt><trkpt lat="42.3619981" lon="13.3723718"><ele>643.3333333333334</ele><time>2026-04-19T11:42:23.847Z</time></trkpt><trkpt lat="42.3619187" lon="13.3723581"><ele>643.0</ele><time>2026-04-19T11:42:24.846Z</time></trkpt><trkpt lat="42.3618406" lon="13.3723431"><ele>643.0</ele><time>2026-04-19T11:42:25.847Z</time></trkpt><trkpt lat="42.3617627" lon="13.3723237"><ele>643.0</ele><time>2026-04-19T11:42:26.846Z</time></trkpt><trkpt lat="42.3616854" lon="13.3723051"><ele>643.0</ele><time>2026-04-19T11:42:27.846Z</time></trkpt><trkpt lat="42.3616032" lon="13.3722889"><ele>643.0</ele><time>2026-04-19T11:42:28.846Z</time></trkpt><trkpt lat="42.3615154" lon="13.3722775"><ele>643.0</ele><time>2026-04-19T11:42:29.847Z</time></trkpt><trkpt lat="42.3614219" lon="13.3722642"><ele>643.0</ele><time>2026-04-19T11:42:30.846Z</time></trkpt><trkpt lat="42.3613186" lon="13.3722615"><ele>643.0</ele><time>2026-04-19T11:42:31.846Z</time></trkpt><trkpt lat="42.3612129" lon="13.3722677"><ele>643.0</ele><time>2026-04-19T11:42:32.847Z</time></trkpt><trkpt lat="42.3611069" lon="13.3722739"><ele>643.0</ele><time>2026-04-19T11:42:33.846Z</time></trkpt><trkpt lat="42.3609978" lon="13.3722905"><ele>643.0</ele><time>2026-04-19T11:42:34.847Z</time></trkpt><trkpt lat="42.3608893" lon="13.3723105"><ele>643.0</ele><time>2026-04-19T11:42:35.846Z</time></trkpt><trkpt lat="42.3607774" lon="13.37234"><ele>643.0</ele><time>2026-04-19T11:42:36.846Z</time></trkpt><trkpt lat="42.3606703" lon="13.3723793"><ele>643.0</ele><time>2026-04-19T11:42:37.846Z</time></trkpt><trkpt lat="42.3605661" lon="13.3724251"><ele>643.0</ele><time>2026-04-19T11:42:38.846Z</time></trkpt><trkpt lat="42.3604601" lon="13.3724778"><ele>643.0</ele><time>2026-04-19T11:42:39.846Z</time></trkpt><trkpt lat="42.3603613" lon="13.3725348"><ele>643.0</ele><time>2026-04-19T11:42:40.846Z</time></trkpt><trkpt lat="42.3602623" lon="13.3725946"><ele>642.6666666666667</ele><time>2026-04-19T11:42:41.846Z</time></trkpt><trkpt lat="42.3601653" lon="13.3726536"><ele>642.3333333333334</ele><time>2026-04-19T11:42:42.846Z</time></trkpt><trkpt lat="42.3600789" lon="13.3727005"><ele>642.0</ele><time>2026-04-19T11:42:43.846Z</time></trkpt><trkpt lat="42.3600064" lon="13.3727593"><ele>641.6666666666666</ele><time>2026-04-19T11:42:44.846Z</time></trkpt><trkpt lat="42.3599504" lon="13.3728171"><ele>641.3333333333333</ele><time>2026-04-19T11:42:45.847Z</time></trkpt><trkpt lat="42.3599119" lon="13.372897"><ele>641.0</ele><time>2026-04-19T11:42:46.847Z</time></trkpt><trkpt lat="42.3598836" lon="13.3729925"><ele>641.5</ele><time>2026-04-19T11:42:47.846Z</time></trkpt><trkpt lat="42.3598735" lon="13.3731029"><ele>642.0</ele><time>2026-04-19T11:42:48.846Z</time></trkpt><trkpt lat="42.359882" lon="13.3732196"><ele>642.5</ele><time>2026-04-19T11:42:49.846Z</time></trkpt><trkpt lat="42.3599006" lon="13.3733457"><ele>643.0</ele><time>2026-04-19T11:42:50.847Z</time></trkpt><trkpt lat="42.3599155" lon="13.373475"><ele>643.5</ele><time>2026-04-19T11:42:51.846Z</time></trkpt><trkpt lat="42.3599331" lon="13.373592"><ele>644.0</ele><time>2026-04-19T11:42:52.846Z</time></trkpt><trkpt lat="42.3599478" lon="13.3737014"><ele>644.0</ele><time>2026-04-19T11:42:53.846Z</time></trkpt><trkpt lat="42.3599644" lon="13.3738152"><ele>644.0</ele><time>2026-04-19T11:42:54.846Z</time></trkpt><trkpt lat="42.359982" lon="13.3739378"><ele>644.0</ele><time>2026-04-19T11:42:55.846Z</time></trkpt><trkpt lat="42.3600001" lon="13.3740635"><ele>644.0</ele><time>2026-04-19T11:42:56.847Z</time></trkpt><trkpt lat="42.360017" lon="13.3741987"><ele>644.0</ele><time>2026-04-19T11:42:57.847Z</time></trkpt><trkpt lat="42.3600359" lon="13.3743375"><ele>644.2</ele><time>2026-04-19T11:42:58.847Z</time></trkpt><trkpt lat="42.3600521" lon="13.374483"><ele>644.4000000000001</ele><time>2026-04-19T11:42:59.847Z</time></trkpt><trkpt lat="42.3600712" lon="13.3746291"><ele>644.6</ele><time>2026-04-19T11:43:00.846Z</time></trkpt><trkpt lat="42.3600871" lon="13.3747664"><ele>644.8</ele><time>2026-04-19T11:43:01.846Z</time></trkpt><trkpt lat="42.3601046" lon="13.3748924"><ele>645.0</ele><time>2026-04-19T11:43:02.847Z</time></trkpt><trkpt lat="42.3601181" lon="13.3750233"><ele>645.25</ele><time>2026-04-19T11:43:03.846Z</time></trkpt><trkpt lat="42.360139" lon="13.3751785"><ele>645.5</ele><time>2026-04-19T11:43:04.846Z</time></trkpt><trkpt lat="42.3601562" lon="13.3753523"><ele>645.75</ele><time>2026-04-19T11:43:05.847Z</time></trkpt><trkpt lat="42.3601803" lon="13.3755307"><ele>646.0</ele><time>2026-04-19T11:43:06.846Z</time></trkpt><trkpt lat="42.3602008" lon="13.3756983"><ele>646.3333333333334</ele><time>2026-04-19T11:43:07.846Z</time></trkpt><trkpt lat="42.3602198" lon="13.3758283"><ele>646.6666666666667</ele><time>2026-04-19T11:43:08.846Z</time></trkpt><trkpt lat="42.3602355" lon="13.3759485"><ele>647.0</ele><time>2026-04-19T11:43:09.846Z</time></trkpt><trkpt lat="42.360253" lon="13.3760621"><ele>647.3333333333334</ele><time>2026-04-19T11:43:10.846Z</time></trkpt><trkpt lat="42.3602748" lon="13.3761798"><ele>647.6666666666666</ele><time>2026-04-19T11:43:11.847Z</time></trkpt><trkpt lat="42.3602887" lon="13.376289"><ele>648.0</ele><time>2026-04-19T11:43:12.846Z</time></trkpt><trkpt lat="42.3603032" lon="13.376394"><ele>648.3333333333334</ele><time>2026-04-19T11:43:13.846Z</time></trkpt><trkpt lat="42.3603157" lon="13.376495"><ele>648.6666666666666</ele><time>2026-04-19T11:43:14.847Z</time></trkpt><trkpt lat="42.3603307" lon="13.3766125"><ele>649.0</ele><time>2026-04-19T11:43:15.846Z</time></trkpt><trkpt lat="42.3603523" lon="13.3767387"><ele>649.3333333333333</ele><time>2026-04-19T11:43:16.847Z</time></trkpt><trkpt lat="42.3603692" lon="13.3768612"><ele>649.6666666666666</ele><time>2026-04-19T11:43:17.846Z</time></trkpt><trkpt lat="42.360378" lon="13.3769629"><ele>650.0</ele><time>2026-04-19T11:43:18.846Z</time></trkpt><trkpt lat="42.3603884" lon="13.3770582"><ele>650.0</ele><time>2026-04-19T11:43:19.846Z</time></trkpt><trkpt lat="42.3603942" lon="13.3771504"><ele>650.0</ele><time>2026-04-19T11:43:20.846Z</time></trkpt><trkpt lat="42.3604006" lon="13.3772354"><ele>650.0</ele><time>2026-04-19T11:43:21.846Z</time></trkpt><trkpt lat="42.3604023" lon="13.3773846"><ele>650.0</ele><time>2026-04-19T11:43:23.846Z</time></trkpt><trkpt lat="42.3604032" lon="13.3775647"><ele>650.0</ele><time>2026-04-19T11:43:25.846Z</time></trkpt><trkpt lat="42.3603991" lon="13.3776793"><ele>650.0</ele><time>2026-04-19T11:43:26.846Z</time></trkpt><trkpt lat="42.3603967" lon="13.3777824"><ele>650.0</ele><time>2026-04-19T11:43:27.846Z</time></trkpt><trkpt lat="42.3603898" lon="13.3778792"><ele>650.0</ele><time>2026-04-19T11:43:28.846Z</time></trkpt><trkpt lat="42.3603871" lon="13.3779783"><ele>650.0</ele><time>2026-04-19T11:43:29.846Z</time></trkpt><trkpt lat="42.3603839" lon="13.3780682"><ele>650.0</ele><time>2026-04-19T11:43:30.846Z</time></trkpt><trkpt lat="42.3603791" lon="13.3781641"><ele>650.0</ele><time>2026-04-19T11:43:31.846Z</time></trkpt><trkpt lat="42.3603646" lon="13.3782661"><ele>650.0</ele><time>2026-04-19T11:43:32.846Z</time></trkpt><trkpt lat="42.3603468" lon="13.378387"><ele>650.2</ele><time>2026-04-19T11:43:33.846Z</time></trkpt><trkpt lat="42.3603239" lon="13.3785176"><ele>650.4</ele><time>2026-04-19T11:43:34.847Z</time></trkpt><trkpt lat="42.3603008" lon="13.3786515"><ele>650.5999999999999</ele><time>2026-04-19T11:43:35.847Z</time></trkpt><trkpt lat="42.3602694" lon="13.3787901"><ele>650.8</ele><time>2026-04-19T11:43:36.847Z</time></trkpt><trkpt lat="42.3602414" lon="13.3789162"><ele>651.0</ele><time>2026-04-19T11:43:37.846Z</time></trkpt><trkpt lat="42.360205" lon="13.3790415"><ele>651.1666666666666</ele><time>2026-04-19T11:43:38.847Z</time></trkpt><trkpt lat="42.3601686" lon="13.3791484"><ele>651.3333333333334</ele><time>2026-04-19T11:43:39.846Z</time></trkpt><trkpt lat="42.3601357" lon="13.3792459"><ele>651.5</ele><time>2026-04-19T11:43:40.847Z</time></trkpt><trkpt lat="42.3601036" lon="13.3793341"><ele>651.6666666666667</ele><time>2026-04-19T11:43:41.847Z</time></trkpt><trkpt lat="42.3600552" lon="13.379425"><ele>651.8333333333334</ele><time>2026-04-19T11:43:43.846Z</time></trkpt><trkpt lat="42.3600001" lon="13.3795268"><ele>652.0</ele><time>2026-04-19T11:43:46.846Z</time></trkpt><trkpt lat="42.3599341" lon="13.3796167"><ele>651.8333333333334</ele><time>2026-04-19T11:43:48.846Z</time></trkpt><trkpt lat="42.3598821" lon="13.37971"><ele>651.6666666666667</ele><time>2026-04-19T11:43:50.847Z</time></trkpt><trkpt lat="42.3598686" lon="13.3797983"><ele>651.5</ele><time>2026-04-19T11:43:51.847Z</time></trkpt><trkpt lat="42.3598652" lon="13.3799087"><ele>651.3333333333334</ele><time>2026-04-19T11:43:52.846Z</time></trkpt><trkpt lat="42.3598608" lon="13.3800194"><ele>651.1666666666666</ele><time>2026-04-19T11:43:53.847Z</time></trkpt><trkpt lat="42.3598461" lon="13.3801223"><ele>651.0</ele><time>2026-04-19T11:43:54.847Z</time></trkpt><trkpt lat="42.3598228" lon="13.3802257"><ele>651.0</ele><time>2026-04-19T11:43:55.846Z</time></trkpt><trkpt lat="42.359789" lon="13.3803342"><ele>651.0</ele><time>2026-04-19T11:43:56.847Z</time></trkpt><trkpt lat="42.3597324" lon="13.3804527"><ele>651.0</ele><time>2026-04-19T11:43:57.846Z</time></trkpt><trkpt lat="42.3596745" lon="13.3805765"><ele>651.0</ele><time>2026-04-19T11:43:58.846Z</time></trkpt><trkpt lat="42.3596149" lon="13.3807101"><ele>651.0</ele><time>2026-04-19T11:43:59.846Z</time></trkpt><trkpt lat="42.359551" lon="13.3808629"><ele>650.75</ele><time>2026-04-19T11:44:00.846Z</time></trkpt><trkpt lat="42.3594871" lon="13.3810092"><ele>650.5</ele><time>2026-04-19T11:44:01.846Z</time></trkpt><trkpt lat="42.3594207" lon="13.3811495"><ele>650.25</ele><time>2026-04-19T11:44:02.847Z</time></trkpt><trkpt lat="42.3593615" lon="13.3812804"><ele>650.0</ele><time>2026-04-19T11:44:03.847Z</time></trkpt><trkpt lat="42.359306" lon="13.3814072"><ele>649.8</ele><time>2026-04-19T11:44:04.846Z</time></trkpt><trkpt lat="42.3592565" lon="13.38152"><ele>649.6</ele><time>2026-04-19T11:44:05.846Z</time></trkpt><trkpt lat="42.3592038" lon="13.3816433"><ele>649.4000000000001</ele><time>2026-04-19T11:44:06.846Z</time></trkpt><trkpt lat="42.3591501" lon="13.3817668"><ele>649.2</ele><time>2026-04-19T11:44:07.847Z</time></trkpt><trkpt lat="42.3590871" lon="13.381904"><ele>649.0</ele><time>2026-04-19T11:44:08.846Z</time></trkpt><trkpt lat="42.3590255" lon="13.3820352"><ele>649.0</ele><time>2026-04-19T11:44:09.846Z</time></trkpt><trkpt lat="42.3589618" lon="13.3821715"><ele>649.0</ele><time>2026-04-19T11:44:10.847Z</time></trkpt><trkpt lat="42.3588984" lon="13.3823081"><ele>649.0</ele><time>2026-04-19T11:44:11.846Z</time></trkpt><trkpt lat="42.3588367" lon="13.3824483"><ele>649.0</ele><time>2026-04-19T11:44:12.846Z</time></trkpt><trkpt lat="42.3587775" lon="13.3825891"><ele>649.0</ele><time>2026-04-19T11:44:13.846Z</time></trkpt><trkpt lat="42.3587187" lon="13.3827265"><ele>649.0</ele><time>2026-04-19T11:44:14.847Z</time></trkpt><trkpt lat="42.3586543" lon="13.382869"><ele>649.0</ele><time>2026-04-19T11:44:15.846Z</time></trkpt><trkpt lat="42.3585848" lon="13.3830223"><ele>649.0</ele><time>2026-04-19T11:44:16.846Z</time></trkpt><trkpt lat="42.3585194" lon="13.3831741"><ele>649.0</ele><time>2026-04-19T11:44:17.847Z</time></trkpt><trkpt lat="42.35845" lon="13.3833196"><ele>649.0</ele><time>2026-04-19T11:44:18.847Z</time></trkpt><trkpt lat="42.3583801" lon="13.383472"><ele>649.0</ele><time>2026-04-19T11:44:19.847Z</time></trkpt><trkpt lat="42.3583133" lon="13.3836253"><ele>649.0</ele><time>2026-04-19T11:44:20.847Z</time></trkpt><trkpt lat="42.3582478" lon="13.3837673"><ele>649.25</ele><time>2026-04-19T11:44:21.846Z</time></trkpt><trkpt lat="42.3581883" lon="13.3839037"><ele>649.5</ele><time>2026-04-19T11:44:22.846Z</time></trkpt><trkpt lat="42.3581248" lon="13.3840391"><ele>649.75</ele><time>2026-04-19T11:44:23.847Z</time></trkpt><trkpt lat="42.3580688" lon="13.3841686"><ele>650.0</ele><time>2026-04-19T11:44:24.846Z</time></trkpt><trkpt lat="42.3580113" lon="13.3842926"><ele>649.8</ele><time>2026-04-19T11:44:25.847Z</time></trkpt><trkpt lat="42.3579569" lon="13.3844176"><ele>649.6</ele><time>2026-04-19T11:44:26.846Z</time></trkpt><trkpt lat="42.3579146" lon="13.384538"><ele>649.4000000000001</ele><time>2026-04-19T11:44:27.847Z</time></trkpt><trkpt lat="42.3578786" lon="13.384665"><ele>649.2</ele><time>2026-04-19T11:44:28.847Z</time></trkpt><trkpt lat="42.3578481" lon="13.384794"><ele>649.0</ele><time>2026-04-19T11:44:29.846Z</time></trkpt><trkpt lat="42.3578194" lon="13.3849149"><ele>649.0</ele><time>2026-04-19T11:44:30.846Z</time></trkpt><trkpt lat="42.3577859" lon="13.3850208"><ele>649.0</ele><time>2026-04-19T11:44:31.847Z</time></trkpt><trkpt lat="42.3577499" lon="13.3851183"><ele>649.0</ele><time>2026-04-19T11:44:32.847Z</time></trkpt><trkpt lat="42.3577068" lon="13.3852064"><ele>649.0</ele><time>2026-04-19T11:44:33.846Z</time></trkpt><trkpt lat="42.3576488" lon="13.3852904"><ele>649.0</ele><time>2026-04-19T11:44:34.846Z</time></trkpt><trkpt lat="42.3575889" lon="13.3853723"><ele>649.0</ele><time>2026-04-19T11:44:35.846Z</time></trkpt><trkpt lat="42.3575313" lon="13.3854589"><ele>649.0</ele><time>2026-04-19T11:44:36.846Z</time></trkpt><trkpt lat="42.3574741" lon="13.3855599"><ele>649.0</ele><time>2026-04-19T11:44:37.846Z</time></trkpt><trkpt lat="42.3574153" lon="13.3856692"><ele>649.0</ele><time>2026-04-19T11:44:38.846Z</time></trkpt><trkpt lat="42.3573456" lon="13.3857738"><ele>649.0</ele><time>2026-04-19T11:44:39.846Z</time></trkpt><trkpt lat="42.3572667" lon="13.3858821"><ele>649.0</ele><time>2026-04-19T11:44:40.846Z</time></trkpt><trkpt lat="42.3571742" lon="13.3859999"><ele>648.75</ele><time>2026-04-19T11:44:41.847Z</time></trkpt><trkpt lat="42.3570754" lon="13.3861144"><ele>648.5</ele><time>2026-04-19T11:44:42.847Z</time></trkpt><trkpt lat="42.356978" lon="13.386235"><ele>648.25</ele><time>2026-04-19T11:44:43.846Z</time></trkpt><trkpt lat="42.3568854" lon="13.3863731"><ele>648.0</ele><time>2026-04-19T11:44:44.846Z</time></trkpt><trkpt lat="42.3567976" lon="13.3865205"><ele>648.0</ele><time>2026-04-19T11:44:45.847Z</time></trkpt><trkpt lat="42.3567134" lon="13.3866742"><ele>648.0</ele><time>2026-04-19T11:44:46.846Z</time></trkpt><trkpt lat="42.3566264" lon="13.3868226"><ele>648.0</ele><time>2026-04-19T11:44:47.846Z</time></trkpt><trkpt lat="42.3565409" lon="13.3869666"><ele>648.0</ele><time>2026-04-19T11:44:48.846Z</time></trkpt><trkpt lat="42.3564552" lon="13.3871124"><ele>647.5</ele><time>2026-04-19T11:44:49.846Z</time></trkpt><trkpt lat="42.3563719" lon="13.3872577"><ele>647.0</ele><time>2026-04-19T11:44:50.847Z</time></trkpt><trkpt lat="42.356289" lon="13.3873987"><ele>646.5</ele><time>2026-04-19T11:44:51.847Z</time></trkpt><trkpt lat="42.3562117" lon="13.3875374"><ele>646.0</ele><time>2026-04-19T11:44:52.846Z</time></trkpt><trkpt lat="42.3561278" lon="13.3876832"><ele>646.0</ele><time>2026-04-19T11:44:53.846Z</time></trkpt><trkpt lat="42.3560495" lon="13.3878179"><ele>646.0</ele><time>2026-04-19T11:44:54.847Z</time></trkpt><trkpt lat="42.3559763" lon="13.3879351"><ele>646.0</ele><time>2026-04-19T11:44:55.846Z</time></trkpt><trkpt lat="42.3559105" lon="13.3880411"><ele>646.0</ele><time>2026-04-19T11:44:56.846Z</time></trkpt><trkpt lat="42.3558408" lon="13.3881145"><ele>646.0</ele><time>2026-04-19T11:44:57.846Z</time></trkpt><trkpt lat="42.3557688" lon="13.3881676"><ele>646.8333333333334</ele><time>2026-04-19T11:44:58.846Z</time></trkpt><trkpt lat="42.3557015" lon="13.3882145"><ele>647.6666666666667</ele><time>2026-04-19T11:44:59.847Z</time></trkpt><trkpt lat="42.3556322" lon="13.3882356"><ele>648.5</ele><time>2026-04-19T11:45:00.846Z</time></trkpt><trkpt lat="42.3555686" lon="13.388259"><ele>649.3333333333334</ele><time>2026-04-19T11:45:01.846Z</time></trkpt><trkpt lat="42.3554906" lon="13.3883466"><ele>650.1666666666666</ele><time>2026-04-19T11:45:03.846Z</time></trkpt><trkpt lat="42.3554673" lon="13.3884311"><ele>651.0</ele><time>2026-04-19T11:45:04.847Z</time></trkpt><trkpt lat="42.3554534" lon="13.3885278"><ele>651.0</ele><time>2026-04-19T11:45:05.846Z</time></trkpt><trkpt lat="42.3554434" lon="13.3886237"><ele>651.0</ele><time>2026-04-19T11:45:06.847Z</time></trkpt><trkpt lat="42.3554286" lon="13.3887209"><ele>651.0</ele><time>2026-04-19T11:45:07.846Z</time></trkpt><trkpt lat="42.3554106" lon="13.3888203"><ele>651.0</ele><time>2026-04-19T11:45:08.846Z</time></trkpt><trkpt lat="42.3553878" lon="13.3889049"><ele>651.0</ele><time>2026-04-19T11:45:09.847Z</time></trkpt><trkpt lat="42.3553358" lon="13.3890484"><ele>651.0</ele><time>2026-04-19T11:45:11.846Z</time></trkpt><trkpt lat="42.3552689" lon="13.3891687"><ele>652.1999999999999</ele><time>2026-04-19T11:45:13.847Z</time></trkpt><trkpt lat="42.3551974" lon="13.389266"><ele>653.4</ele><time>2026-04-19T11:45:15.847Z</time></trkpt><trkpt lat="42.355147" lon="13.3893251"><ele>654.6</ele><time>2026-04-19T11:45:16.847Z</time></trkpt><trkpt lat="42.3550775" lon="13.3893948"><ele>655.8</ele><time>2026-04-19T11:45:17.847Z</time></trkpt><trkpt lat="42.3549935" lon="13.3894692"><ele>657.0</ele><time>2026-04-19T11:45:18.846Z</time></trkpt><trkpt lat="42.3548921" lon="13.38954"><ele>657.0</ele><time>2026-04-19T11:45:19.846Z</time></trkpt><trkpt lat="42.3547725" lon="13.3896041"><ele>657.0</ele><time>2026-04-19T11:45:20.847Z</time></trkpt><trkpt lat="42.3546358" lon="13.3896666"><ele>657.0</ele><time>2026-04-19T11:45:21.847Z</time></trkpt><trkpt lat="42.3544863" lon="13.3897199"><ele>657.0</ele><time>2026-04-19T11:45:22.847Z</time></trkpt><trkpt lat="42.3543312" lon="13.3897781"><ele>659.0</ele><time>2026-04-19T11:45:23.846Z</time></trkpt><trkpt lat="42.3541796" lon="13.389843"><ele>661.0</ele><time>2026-04-19T11:45:24.847Z</time></trkpt><trkpt lat="42.3540295" lon="13.389879"><ele>663.0</ele><time>2026-04-19T11:45:25.846Z</time></trkpt><trkpt lat="42.3538851" lon="13.3899285"><ele>662.3333333333334</ele><time>2026-04-19T11:45:26.847Z</time></trkpt><trkpt lat="42.3537444" lon="13.3899876"><ele>661.6666666666667</ele><time>2026-04-19T11:45:27.846Z</time></trkpt><trkpt lat="42.3535959" lon="13.3900522"><ele>661.0</ele><time>2026-04-19T11:45:28.847Z</time></trkpt><trkpt lat="42.3534395" lon="13.3901219"><ele>661.0</ele><time>2026-04-19T11:45:29.846Z</time></trkpt><trkpt lat="42.3532842" lon="13.3901863"><ele>661.0</ele><time>2026-04-19T11:45:30.846Z</time></trkpt><trkpt lat="42.3531324" lon="13.3902534"><ele>661.0</ele><time>2026-04-19T11:45:31.846Z</time></trkpt><trkpt lat="42.3529736" lon="13.3903105"><ele>660.3333333333334</ele><time>2026-04-19T11:45:32.846Z</time></trkpt><trkpt lat="42.3528058" lon="13.390372"><ele>659.6666666666666</ele><time>2026-04-19T11:45:33.846Z</time></trkpt><trkpt lat="42.3526334" lon="13.3904404"><ele>659.0</ele><time>2026-04-19T11:45:34.846Z</time></trkpt><trkpt lat="42.3524643" lon="13.3905098"><ele>662.0</ele><time>2026-04-19T11:45:35.846Z</time></trkpt><trkpt lat="42.352292" lon="13.3905725"><ele>665.0</ele><time>2026-04-19T11:45:36.847Z</time></trkpt><trkpt lat="42.3521214" lon="13.3906407"><ele>668.0</ele><time>2026-04-19T11:45:37.846Z</time></trkpt><trkpt lat="42.3519553" lon="13.3907063"><ele>669.6666666666666</ele><time>2026-04-19T11:45:38.847Z</time></trkpt><trkpt lat="42.3517863" lon="13.3907708"><ele>671.3333333333334</ele><time>2026-04-19T11:45:39.846Z</time></trkpt><trkpt lat="42.351619" lon="13.3908288"><ele>673.0</ele><time>2026-04-19T11:45:40.846Z</time></trkpt><trkpt lat="42.3514517" lon="13.3908931"><ele>672.0</ele><time>2026-04-19T11:45:41.847Z</time></trkpt><trkpt lat="42.3512966" lon="13.390951"><ele>671.0</ele><time>2026-04-19T11:45:42.846Z</time></trkpt><trkpt lat="42.3511574" lon="13.3910026"><ele>670.0</ele><time>2026-04-19T11:45:43.847Z</time></trkpt><trkpt lat="42.3510264" lon="13.3910526"><ele>669.0</ele><time>2026-04-19T11:45:44.847Z</time></trkpt><trkpt lat="42.3509" lon="13.3911205"><ele>669.0</ele><time>2026-04-19T11:45:45.846Z</time></trkpt><trkpt lat="42.350777" lon="13.3912129"><ele>669.0</ele><time>2026-04-19T11:45:46.846Z</time></trkpt><trkpt lat="42.3506695" lon="13.3913241"><ele>669.0</ele><time>2026-04-19T11:45:47.846Z</time></trkpt><trkpt lat="42.3505849" lon="13.3914515"><ele>669.0</ele><time>2026-04-19T11:45:48.847Z</time></trkpt><trkpt lat="42.3505214" lon="13.391593"><ele>669.0</ele><time>2026-04-19T11:45:49.846Z</time></trkpt><trkpt lat="42.3504615" lon="13.3917463"><ele>669.0</ele><time>2026-04-19T11:45:50.846Z</time></trkpt><trkpt lat="42.3504052" lon="13.3919032"><ele>669.0</ele><time>2026-04-19T11:45:51.847Z</time></trkpt><trkpt lat="42.3503512" lon="13.3920564"><ele>669.0</ele><time>2026-04-19T11:45:52.846Z</time></trkpt><trkpt lat="42.3502961" lon="13.3921935"><ele>672.6</ele><time>2026-04-19T11:45:53.847Z</time></trkpt><trkpt lat="42.3502388" lon="13.3923068"><ele>676.2</ele><time>2026-04-19T11:45:54.846Z</time></trkpt><trkpt lat="42.3501805" lon="13.3923941"><ele>679.8000000000001</ele><time>2026-04-19T11:45:55.846Z</time></trkpt><trkpt lat="42.3500784" lon="13.3924673"><ele>683.4000000000001</ele><time>2026-04-19T11:45:57.847Z</time></trkpt><trkpt lat="42.3499749" lon="13.3924912"><ele>687.0</ele><time>2026-04-19T11:45:59.847Z</time></trkpt><trkpt lat="42.3498497" lon="13.3924673"><ele>687.0</ele><time>2026-04-19T11:46:01.847Z</time></trkpt><trkpt lat="42.3497936" lon="13.3924214"><ele>687.0</ele><time>2026-04-19T11:46:02.846Z</time></trkpt><trkpt lat="42.3497374" lon="13.392345"><ele>687.0</ele><time>2026-04-19T11:46:03.852Z</time></trkpt><trkpt lat="42.3496751" lon="13.3922595"><ele>687.0</ele><time>2026-04-19T11:46:04.852Z</time></trkpt><trkpt lat="42.3496083" lon="13.392165"><ele>687.0</ele><time>2026-04-19T11:46:05.852Z</time></trkpt><trkpt lat="42.3495364" lon="13.3920719"><ele>687.0</ele><time>2026-04-19T11:46:06.852Z</time></trkpt><trkpt lat="42.3494674" lon="13.3919799"><ele>685.2</ele><time>2026-04-19T11:46:07.853Z</time></trkpt><trkpt lat="42.3493909" lon="13.391897"><ele>683.4000000000001</ele><time>2026-04-19T11:46:08.853Z</time></trkpt><trkpt lat="42.3493056" lon="13.391846"><ele>681.5999999999999</ele><time>2026-04-19T11:46:09.853Z</time></trkpt><trkpt lat="42.349203" lon="13.3918105"><ele>679.8</ele><time>2026-04-19T11:46:10.852Z</time></trkpt><trkpt lat="42.3490966" lon="13.3918133"><ele>678.0</ele><time>2026-04-19T11:46:11.851Z</time></trkpt><trkpt lat="42.3489807" lon="13.391847"><ele>678.5</ele><time>2026-04-19T11:46:12.852Z</time></trkpt><trkpt lat="42.3488558" lon="13.3918997"><ele>679.0</ele><time>2026-04-19T11:46:13.851Z</time></trkpt><trkpt lat="42.3487362" lon="13.3919526"><ele>679.5</ele><time>2026-04-19T11:46:14.851Z</time></trkpt><trkpt lat="42.3486213" lon="13.3920043"><ele>680.0</ele><time>2026-04-19T11:46:15.851Z</time></trkpt><trkpt lat="42.3485224" lon="13.3920494"><ele>680.0</ele><time>2026-04-19T11:46:16.851Z</time></trkpt><trkpt lat="42.3484362" lon="13.392083"><ele>680.0</ele><time>2026-04-19T11:46:17.852Z</time></trkpt><trkpt lat="42.3483539" lon="13.3921128"><ele>680.0</ele><time>2026-04-19T11:46:18.851Z</time></trkpt><trkpt lat="42.3482828" lon="13.3921441"><ele>680.0</ele><time>2026-04-19T11:46:19.852Z</time></trkpt><trkpt lat="42.3482124" lon="13.3921723"><ele>680.0</ele><time>2026-04-19T11:46:20.851Z</time></trkpt><trkpt lat="42.3481445" lon="13.3922136"><ele>680.0</ele><time>2026-04-19T11:46:21.851Z</time></trkpt><trkpt lat="42.3480769" lon="13.3922603"><ele>681.5</ele><time>2026-04-19T11:46:22.852Z</time></trkpt><trkpt lat="42.348005" lon="13.3923287"><ele>683.0</ele><time>2026-04-19T11:46:23.851Z</time></trkpt><trkpt lat="42.3479461" lon="13.39241"><ele>684.5</ele><time>2026-04-19T11:46:24.851Z</time></trkpt><trkpt lat="42.347893" lon="13.3925061"><ele>686.0</ele><time>2026-04-19T11:46:25.851Z</time></trkpt><trkpt lat="42.3478501" lon="13.392599"><ele>687.5</ele><time>2026-04-19T11:46:26.852Z</time></trkpt><trkpt lat="42.3478077" lon="13.3926909"><ele>689.0</ele><time>2026-04-19T11:46:27.851Z</time></trkpt><trkpt lat="42.3477674" lon="13.3927757"><ele>689.0</ele><time>2026-04-19T11:46:28.852Z</time></trkpt><trkpt lat="42.3477267" lon="13.3928654"><ele>689.0</ele><time>2026-04-19T11:46:29.852Z</time></trkpt><trkpt lat="42.3476917" lon="13.3929597"><ele>689.0</ele><time>2026-04-19T11:46:30.851Z</time></trkpt><trkpt lat="42.347655" lon="13.3930668"><ele>689.0</ele><time>2026-04-19T11:46:31.852Z</time></trkpt><trkpt lat="42.3476082" lon="13.3931726"><ele>689.0</ele><time>2026-04-19T11:46:32.852Z</time></trkpt><trkpt lat="42.3475651" lon="13.3932816"><ele>689.0</ele><time>2026-04-19T11:46:33.852Z</time></trkpt><trkpt lat="42.3475219" lon="13.3933917"><ele>690.4000000000001</ele><time>2026-04-19T11:46:34.851Z</time></trkpt><trkpt lat="42.3474772" lon="13.3935049"><ele>691.8</ele><time>2026-04-19T11:46:35.852Z</time></trkpt><trkpt lat="42.3474303" lon="13.3936144"><ele>693.2</ele><time>2026-04-19T11:46:36.851Z</time></trkpt><trkpt lat="42.3473798" lon="13.3937312"><ele>694.5999999999999</ele><time>2026-04-19T11:46:37.851Z</time></trkpt><trkpt lat="42.3473267" lon="13.3938572"><ele>696.0</ele><time>2026-04-19T11:46:38.851Z</time></trkpt><trkpt lat="42.3472772" lon="13.3939788"><ele>696.1999999999999</ele><time>2026-04-19T11:46:39.852Z</time></trkpt><trkpt lat="42.3472284" lon="13.3941036"><ele>696.4</ele><time>2026-04-19T11:46:40.851Z</time></trkpt><trkpt lat="42.3471786" lon="13.3942161"><ele>696.6</ele><time>2026-04-19T11:46:41.851Z</time></trkpt><trkpt lat="42.3471343" lon="13.3943285"><ele>696.8</ele><time>2026-04-19T11:46:42.852Z</time></trkpt><trkpt lat="42.3470871" lon="13.394434"><ele>697.0</ele><time>2026-04-19T11:46:43.852Z</time></trkpt><trkpt lat="42.3470352" lon="13.3945456"><ele>697.4000000000001</ele><time>2026-04-19T11:46:44.851Z</time></trkpt><trkpt lat="42.3469897" lon="13.3946484"><ele>697.8000000000001</ele><time>2026-04-19T11:46:45.851Z</time></trkpt><trkpt lat="42.3469439" lon="13.3947693"><ele>698.2</ele><time>2026-04-19T11:46:46.852Z</time></trkpt><trkpt lat="42.3468961" lon="13.3948916"><ele>698.6</ele><time>2026-04-19T11:46:47.851Z</time></trkpt><trkpt lat="42.3468452" lon="13.3950107"><ele>699.0</ele><time>2026-04-19T11:46:48.852Z</time></trkpt><trkpt lat="42.3467966" lon="13.3951232"><ele>700.4000000000001</ele><time>2026-04-19T11:46:49.852Z</time></trkpt><trkpt lat="42.3467536" lon="13.395227"><ele>701.8</ele><time>2026-04-19T11:46:50.852Z</time></trkpt><trkpt lat="42.346707" lon="13.3953386"><ele>703.2</ele><time>2026-04-19T11:46:51.851Z</time></trkpt><trkpt lat="42.3466567" lon="13.3954557"><ele>704.5999999999999</ele><time>2026-04-19T11:46:52.852Z</time></trkpt><trkpt lat="42.346609" lon="13.3955592"><ele>706.0</ele><time>2026-04-19T11:46:53.852Z</time></trkpt><trkpt lat="42.3465552" lon="13.3956677"><ele>706.5999999999999</ele><time>2026-04-19T11:46:54.851Z</time></trkpt><trkpt lat="42.346506" lon="13.3957737"><ele>707.2</ele><time>2026-04-19T11:46:55.852Z</time></trkpt><trkpt lat="42.3464663" lon="13.3959007"><ele>707.8</ele><time>2026-04-19T11:46:56.852Z</time></trkpt><trkpt lat="42.3464191" lon="13.3960196"><ele>708.4000000000001</ele><time>2026-04-19T11:46:57.852Z</time></trkpt><trkpt lat="42.3463728" lon="13.3961382"><ele>709.0</ele><time>2026-04-19T11:46:58.851Z</time></trkpt><trkpt lat="42.3463293" lon="13.396261"><ele>708.1666666666667</ele><time>2026-04-19T11:46:59.851Z</time></trkpt><trkpt lat="42.3462841" lon="13.3963645"><ele>707.3333333333334</ele><time>2026-04-19T11:47:00.852Z</time></trkpt><trkpt lat="42.3462458" lon="13.3964713"><ele>706.5</ele><time>2026-04-19T11:47:01.852Z</time></trkpt><trkpt lat="42.3462083" lon="13.3965728"><ele>705.6666666666666</ele><time>2026-04-19T11:47:02.852Z</time></trkpt><trkpt lat="42.3461705" lon="13.3966699"><ele>704.8333333333333</ele><time>2026-04-19T11:47:03.852Z</time></trkpt><trkpt lat="42.3461438" lon="13.3967564"><ele>704.0</ele><time>2026-04-19T11:47:04.852Z</time></trkpt><trkpt lat="42.346117" lon="13.396898"><ele>704.0</ele><time>2026-04-19T11:47:06.851Z</time></trkpt><trkpt lat="42.3461427" lon="13.3970052"><ele>704.0</ele><time>2026-04-19T11:47:09.852Z</time></trkpt><trkpt lat="42.34624" lon="13.3970411"><ele>704.0</ele><time>2026-04-19T11:47:12.851Z</time></trkpt><trkpt lat="42.3463419" lon="13.3970615"><ele>704.0</ele><time>2026-04-19T11:47:14.851Z</time></trkpt><trkpt lat="42.3464413" lon="13.3971022"><ele>704.0</ele><time>2026-04-19T11:47:16.851Z</time></trkpt><trkpt lat="42.3465531" lon="13.397165"><ele>706.4000000000001</ele><time>2026-04-19T11:47:18.851Z</time></trkpt><trkpt lat="42.3466677" lon="13.3972481"><ele>708.8</ele><time>2026-04-19T11:47:20.851Z</time></trkpt><trkpt lat="42.3467324" lon="13.3972969"><ele>711.2</ele><time>2026-04-19T11:47:21.851Z</time></trkpt><trkpt lat="42.3467875" lon="13.3973402"><ele>713.5999999999999</ele><time>2026-04-19T11:47:22.851Z</time></trkpt><trkpt lat="42.3468859" lon="13.3974061"><ele>716.0</ele><time>2026-04-19T11:47:24.851Z</time></trkpt><trkpt lat="42.3469743" lon="13.3974619"><ele>716.0</ele><time>2026-04-19T11:47:26.851Z</time></trkpt><trkpt lat="42.3470564" lon="13.3975355"><ele>716.0</ele><time>2026-04-19T11:47:28.852Z</time></trkpt><trkpt lat="42.3471358" lon="13.397589"><ele>716.0</ele><time>2026-04-19T11:47:30.851Z</time></trkpt><trkpt lat="42.3472297" lon="13.3976319"><ele>716.0</ele><time>2026-04-19T11:47:32.851Z</time></trkpt><trkpt lat="42.3473208" lon="13.3976594"><ele>716.0</ele><time>2026-04-19T11:47:34.852Z</time></trkpt><trkpt lat="42.3474755" lon="13.3976743"><ele>716.8333333333333</ele><time>2026-04-19T11:47:40.851Z</time></trkpt><trkpt lat="42.3475427" lon="13.3976554"><ele>717.6666666666666</ele><time>2026-04-19T11:48:01.851Z</time></trkpt><trkpt lat="42.3476125" lon="13.3977121"><ele>718.5</ele><time>2026-04-19T11:48:03.851Z</time></trkpt><trkpt lat="42.3476992" lon="13.3977889"><ele>719.3333333333334</ele><time>2026-04-19T11:48:05.852Z</time></trkpt><trkpt lat="42.3477672" lon="13.397851"><ele>720.1666666666667</ele><time>2026-04-19T11:48:07.851Z</time></trkpt><trkpt lat="42.3478531" lon="13.3979041"><ele>721.0</ele><time>2026-04-19T11:48:09.851Z</time></trkpt><trkpt lat="42.3479333" lon="13.39797"><ele>721.1666666666667</ele><time>2026-04-19T11:48:11.851Z</time></trkpt><trkpt lat="42.3479862" lon="13.3980286"><ele>721.3333333333334</ele><time>2026-04-19T11:48:13.851Z</time></trkpt><trkpt lat="42.3480564" lon="13.3979987"><ele>721.5</ele><time>2026-04-19T11:48:26.852Z</time></trkpt><trkpt lat="42.3480967" lon="13.3979176"><ele>721.6666666666666</ele><time>2026-04-19T11:48:28.852Z</time></trkpt><trkpt lat="42.3481315" lon="13.3978417"><ele>721.8333333333333</ele><time>2026-04-19T11:48:30.851Z</time></trkpt><trkpt lat="42.3482093" lon="13.3977382"><ele>722.0</ele><time>2026-04-19T11:48:33.851Z</time></trkpt><trkpt lat="42.3482449" lon="13.3976308"><ele>722.0</ele><time>2026-04-19T11:48:35.851Z</time></trkpt><trkpt lat="42.3482973" lon="13.3975218"><ele>722.0</ele><time>2026-04-19T11:48:37.852Z</time></trkpt><trkpt lat="42.3483442" lon="13.3974245"><ele>722.0</ele><time>2026-04-19T11:48:41.852Z</time></trkpt><trkpt lat="42.348362" lon="13.3973336"><ele>722.0</ele><time>2026-04-19T11:48:44.852Z</time></trkpt><trkpt lat="42.3483779" lon="13.3972459"><ele>722.0</ele><time>2026-04-19T11:48:46.852Z</time></trkpt><trkpt lat="42.3483925" lon="13.3971491"><ele>722.0</ele><time>2026-04-19T11:48:49.851Z</time></trkpt><trkpt lat="42.3483526" lon="13.3970639"><ele>721.3333333333333</ele><time>2026-04-19T11:48:58.852Z</time></trkpt><trkpt lat="42.3482651" lon="13.3970376"><ele>720.6666666666666</ele><time>2026-04-19T11:49:01.851Z</time></trkpt><trkpt lat="42.3482042" lon="13.3969963"><ele>720.0</ele><time>2026-04-19T11:49:07.851Z</time></trkpt><trkpt lat="42.3482158" lon="13.3969107"><ele>719.3333333333334</ele><time>2026-04-19T11:49:14.851Z</time></trkpt><trkpt lat="42.3482318" lon="13.3968142"><ele>718.6666666666667</ele><time>2026-04-19T11:49:16.851Z</time></trkpt><trkpt lat="42.3482648" lon="13.3966542"><ele>718.0</ele><time>2026-04-19T11:49:18.851Z</time></trkpt><trkpt lat="42.3482891" lon="13.3965094"><ele>718.0</ele><time>2026-04-19T11:49:20.852Z</time></trkpt><trkpt lat="42.3483173" lon="13.396357"><ele>718.0</ele><time>2026-04-19T11:49:22.851Z</time></trkpt><trkpt lat="42.3483369" lon="13.3962275"><ele>718.0</ele><time>2026-04-19T11:49:24.851Z</time></trkpt><trkpt lat="42.3483478" lon="13.3961177"><ele>718.0</ele><time>2026-04-19T11:49:26.852Z</time></trkpt><trkpt lat="42.3483613" lon="13.3960112"><ele>718.0</ele><time>2026-04-19T11:49:28.851Z</time></trkpt><trkpt lat="42.3483848" lon="13.3958856"><ele>716.8333333333334</ele><time>2026-04-19T11:49:30.852Z</time></trkpt><trkpt lat="42.3484035" lon="13.3957763"><ele>715.6666666666667</ele><time>2026-04-19T11:49:32.851Z</time></trkpt><trkpt lat="42.348421" lon="13.3956801"><ele>714.5</ele><time>2026-04-19T11:49:34.851Z</time></trkpt><trkpt lat="42.3483993" lon="13.3955948"><ele>713.3333333333334</ele><time>2026-04-19T11:49:39.851Z</time></trkpt><trkpt lat="42.3483247" lon="13.3955505"><ele>712.1666666666666</ele><time>2026-04-19T11:49:44.851Z</time></trkpt><trkpt lat="42.348252" lon="13.3955424"><ele>711.0</ele><time>2026-04-19T11:49:46.851Z</time></trkpt><trkpt lat="42.3481659" lon="13.3955281"><ele>710.3333333333334</ele><time>2026-04-19T11:49:48.851Z</time></trkpt><trkpt lat="42.3480809" lon="13.3954966"><ele>709.6666666666666</ele><time>2026-04-19T11:49:51.851Z</time></trkpt><trkpt lat="42.3480172" lon="13.3954515"><ele>709.0</ele><time>2026-04-19T11:49:59.852Z</time></trkpt><trkpt lat="42.3479829" lon="13.3953481"><ele>708.3333333333333</ele><time>2026-04-19T11:50:02.851Z</time></trkpt><trkpt lat="42.3479623" lon="13.3952378"><ele>707.6666666666666</ele><time>2026-04-19T11:50:04.852Z</time></trkpt><trkpt lat="42.3479396" lon="13.395134"><ele>707.0</ele><time>2026-04-19T11:50:06.852Z</time></trkpt><trkpt lat="42.3479184" lon="13.3950143"><ele>706.2</ele><time>2026-04-19T11:50:08.852Z</time></trkpt><trkpt lat="42.3478854" lon="13.3948804"><ele>705.4000000000001</ele><time>2026-04-19T11:50:10.852Z</time></trkpt><trkpt lat="42.3478604" lon="13.3947416"><ele>704.5999999999999</ele><time>2026-04-19T11:50:12.851Z</time></trkpt><trkpt lat="42.3478406" lon="13.3946056"><ele>703.8</ele><time>2026-04-19T11:50:14.851Z</time></trkpt><trkpt lat="42.3478226" lon="13.3944847"><ele>703.0</ele><time>2026-04-19T11:50:16.851Z</time></trkpt><trkpt lat="42.347804" lon="13.3943964"><ele>701.8</ele><time>2026-04-19T11:50:18.851Z</time></trkpt><trkpt lat="42.3477962" lon="13.3942529"><ele>700.5999999999999</ele><time>2026-04-19T11:50:20.851Z</time></trkpt><trkpt lat="42.347785" lon="13.3941678"><ele>699.4000000000001</ele><time>2026-04-19T11:50:21.852Z</time></trkpt><trkpt lat="42.3477456" lon="13.3940173"><ele>698.2</ele><time>2026-04-19T11:50:23.852Z</time></trkpt><trkpt lat="42.3477242" lon="13.3939349"><ele>697.0</ele><time>2026-04-19T11:50:24.851Z</time></trkpt><trkpt lat="42.3476827" lon="13.393787"><ele>696.8333333333334</ele><time>2026-04-19T11:50:26.851Z</time></trkpt><trkpt lat="42.347655" lon="13.3936636"><ele>696.6666666666667</ele><time>2026-04-19T11:50:28.851Z</time></trkpt><trkpt lat="42.3476434" lon="13.3935236"><ele>696.5</ele><time>2026-04-19T11:50:30.851Z</time></trkpt><trkpt lat="42.3476241" lon="13.3934246"><ele>696.3333333333334</ele><time>2026-04-19T11:50:32.851Z</time></trkpt><trkpt lat="42.3475643" lon="13.3933666"><ele>696.1666666666666</ele><time>2026-04-19T11:50:45.851Z</time></trkpt><trkpt lat="42.3474939" lon="13.393433"><ele>696.0</ele><time>2026-04-19T11:50:47.851Z</time></trkpt><trkpt lat="42.347464" lon="13.3935134"><ele>696.0</ele><time>2026-04-19T11:50:48.852Z</time></trkpt><trkpt lat="42.3474295" lon="13.3936176"><ele>696.0</ele><time>2026-04-19T11:50:49.851Z</time></trkpt><trkpt lat="42.3473816" lon="13.3937521"><ele>696.0</ele><time>2026-04-19T11:50:50.851Z</time></trkpt><trkpt lat="42.3473265" lon="13.3938866"><ele>696.0</ele><time>2026-04-19T11:50:51.851Z</time></trkpt><trkpt lat="42.3472812" lon="13.3940184"><ele>696.0</ele><time>2026-04-19T11:50:52.851Z</time></trkpt><trkpt lat="42.3472312" lon="13.3941506"><ele>696.5</ele><time>2026-04-19T11:50:53.852Z</time></trkpt><trkpt lat="42.3471768" lon="13.3942724"><ele>697.0</ele><time>2026-04-19T11:50:54.851Z</time></trkpt><trkpt lat="42.3471303" lon="13.3943772"><ele>697.5</ele><time>2026-04-19T11:50:55.852Z</time></trkpt><trkpt lat="42.34709" lon="13.394481"><ele>698.0</ele><time>2026-04-19T11:50:56.851Z</time></trkpt><trkpt lat="42.3470485" lon="13.3945672"><ele>698.5</ele><time>2026-04-19T11:50:57.852Z</time></trkpt><trkpt lat="42.3470094" lon="13.3946561"><ele>699.0</ele><time>2026-04-19T11:50:58.852Z</time></trkpt><trkpt lat="42.3469669" lon="13.3947496"><ele>700.4000000000001</ele><time>2026-04-19T11:50:59.852Z</time></trkpt><trkpt lat="42.3469239" lon="13.3948475"><ele>701.8</ele><time>2026-04-19T11:51:00.851Z</time></trkpt><trkpt lat="42.3468746" lon="13.3949599"><ele>703.2</ele><time>2026-04-19T11:51:01.851Z</time></trkpt><trkpt lat="42.3468298" lon="13.3950713"><ele>704.5999999999999</ele><time>2026-04-19T11:51:02.851Z</time></trkpt><trkpt lat="42.3467803" lon="13.395176"><ele>706.0</ele><time>2026-04-19T11:51:03.852Z</time></trkpt><trkpt lat="42.3467283" lon="13.3952948"><ele>706.0</ele><time>2026-04-19T11:51:04.852Z</time></trkpt><trkpt lat="42.3466818" lon="13.3954086"><ele>706.0</ele><time>2026-04-19T11:51:05.852Z</time></trkpt><trkpt lat="42.346636" lon="13.3955359"><ele>706.0</ele><time>2026-04-19T11:51:06.851Z</time></trkpt><trkpt lat="42.3465858" lon="13.3956532"><ele>706.0</ele><time>2026-04-19T11:51:07.851Z</time></trkpt><trkpt lat="42.3465418" lon="13.3957732"><ele>706.0</ele><time>2026-04-19T11:51:08.851Z</time></trkpt><trkpt lat="42.346504" lon="13.3958775"><ele>705.5999999999999</ele><time>2026-04-19T11:51:09.852Z</time></trkpt><trkpt lat="42.3464631" lon="13.3959718"><ele>705.2</ele><time>2026-04-19T11:51:10.851Z</time></trkpt><trkpt lat="42.346416" lon="13.396084"><ele>704.8</ele><time>2026-04-19T11:51:11.851Z</time></trkpt><trkpt lat="42.3463656" lon="13.3961975"><ele>704.4000000000001</ele><time>2026-04-19T11:51:12.852Z</time></trkpt><trkpt lat="42.3463156" lon="13.3963164"><ele>704.0</ele><time>2026-04-19T11:51:13.851Z</time></trkpt><trkpt lat="42.3462658" lon="13.39644"><ele>704.0</ele><time>2026-04-19T11:51:14.852Z</time></trkpt><trkpt lat="42.3462182" lon="13.3965428"><ele>704.0</ele><time>2026-04-19T11:51:15.851Z</time></trkpt><trkpt lat="42.3461785" lon="13.3966376"><ele>704.0</ele><time>2026-04-19T11:51:16.851Z</time></trkpt><trkpt lat="42.3461499" lon="13.3967264"><ele>704.0</ele><time>2026-04-19T11:51:17.851Z</time></trkpt><trkpt lat="42.3460996" lon="13.3968878"><ele>704.0</ele><time>2026-04-19T11:51:19.851Z</time></trkpt><trkpt lat="42.3460572" lon="13.3969635"><ele>704.0</ele><time>2026-04-19T11:51:20.852Z</time></trkpt><trkpt lat="42.3460017" lon="13.3970905"><ele>705.3333333333333</ele><time>2026-04-19T11:51:22.852Z</time></trkpt><trkpt lat="42.3459682" lon="13.3971841"><ele>706.6666666666666</ele><time>2026-04-19T11:51:24.851Z</time></trkpt><trkpt lat="42.3459479" lon="13.397273"><ele>708.0</ele><time>2026-04-19T11:51:31.851Z</time></trkpt><trkpt lat="42.345916" lon="13.3973899"><ele>709.3333333333334</ele><time>2026-04-19T11:51:34.851Z</time></trkpt><trkpt lat="42.3458981" lon="13.3974856"><ele>710.6666666666667</ele><time>2026-04-19T11:51:36.852Z</time></trkpt><trkpt lat="42.3458885" lon="13.3975956"><ele>712.0</ele><time>2026-04-19T11:51:38.851Z</time></trkpt><trkpt lat="42.3458512" lon="13.3977111"><ele>712.0</ele><time>2026-04-19T11:51:40.851Z</time></trkpt><trkpt lat="42.3458289" lon="13.3978437"><ele>712.0</ele><time>2026-04-19T11:51:42.851Z</time></trkpt><trkpt lat="42.3458093" lon="13.3979401"><ele>712.0</ele><time>2026-04-19T11:51:44.852Z</time></trkpt><trkpt lat="42.3457736" lon="13.3980509"><ele>712.0</ele><time>2026-04-19T11:51:46.851Z</time></trkpt><trkpt lat="42.3457387" lon="13.398154"><ele>712.0</ele><time>2026-04-19T11:51:48.851Z</time></trkpt><trkpt lat="42.3457109" lon="13.3982577"><ele>712.0</ele><time>2026-04-19T11:51:50.851Z</time></trkpt><trkpt lat="42.3456808" lon="13.3983343"><ele>712.0</ele><time>2026-04-19T11:51:52.851Z</time></trkpt><trkpt lat="42.3456466" lon="13.3984126"><ele>712.0</ele><time>2026-04-19T11:51:54.851Z</time></trkpt><trkpt lat="42.3456226" lon="13.3985113"><ele>712.0</ele><time>2026-04-19T11:51:56.851Z</time></trkpt><trkpt lat="42.3455909" lon="13.3985966"><ele>712.0</ele><time>2026-04-19T11:51:59.851Z</time></trkpt><trkpt lat="42.3455566" lon="13.3987126"><ele>712.0</ele><time>2026-04-19T11:52:02.851Z</time></trkpt><trkpt lat="42.3455274" lon="13.3988111"><ele>712.0</ele><time>2026-04-19T11:52:04.851Z</time></trkpt><trkpt lat="42.3455031" lon="13.3989038"><ele>710.6666666666667</ele><time>2026-04-19T11:52:06.852Z</time></trkpt><trkpt lat="42.3454743" lon="13.3990085"><ele>709.3333333333334</ele><time>2026-04-19T11:52:08.852Z</time></trkpt><trkpt lat="42.3454398" lon="13.3991183"><ele>708.0</ele><time>2026-04-19T11:52:10.852Z</time></trkpt><trkpt lat="42.3454036" lon="13.3992369"><ele>706.6666666666666</ele><time>2026-04-19T11:52:12.852Z</time></trkpt><trkpt lat="42.3453724" lon="13.3993441"><ele>705.3333333333333</ele><time>2026-04-19T11:52:14.851Z</time></trkpt><trkpt lat="42.3453774" lon="13.3994546"><ele>704.0</ele><time>2026-04-19T11:52:17.851Z</time></trkpt><trkpt lat="42.3454705" lon="13.399512"><ele>704.0</ele><time>2026-04-19T11:52:20.851Z</time></trkpt><trkpt lat="42.3455321" lon="13.3995402"><ele>704.0</ele><time>2026-04-19T11:52:21.851Z</time></trkpt><trkpt lat="42.3455938" lon="13.3995599"><ele>704.0</ele><time>2026-04-19T11:52:22.851Z</time></trkpt><trkpt lat="42.3456742" lon="13.3995942"><ele>704.0</ele><time>2026-04-19T11:52:24.851Z</time></trkpt><trkpt lat="42.3457501" lon="13.3995752"><ele>704.0</ele><time>2026-04-19T11:52:27.852Z</time></trkpt><trkpt lat="42.3457976" lon="13.3994485"><ele>704.0</ele><time>2026-04-19T11:52:29.852Z</time></trkpt><trkpt lat="42.3458344" lon="13.3993441"><ele>705.6</ele><time>2026-04-19T11:52:30.851Z</time></trkpt><trkpt lat="42.3458706" lon="13.3992305"><ele>707.2</ele><time>2026-04-19T11:52:31.852Z</time></trkpt><trkpt lat="42.3459228" lon="13.3991046"><ele>708.8000000000001</ele><time>2026-04-19T11:52:32.852Z</time></trkpt><trkpt lat="42.3459587" lon="13.3989807"><ele>710.4000000000001</ele><time>2026-04-19T11:52:33.851Z</time></trkpt><trkpt lat="42.3459962" lon="13.3988785"><ele>712.0</ele><time>2026-04-19T11:52:34.851Z</time></trkpt><trkpt lat="42.3460305" lon="13.3987822"><ele>711.9999999999999</ele><time>2026-04-19T11:52:35.851Z</time></trkpt><trkpt lat="42.3460619" lon="13.3986942"><ele>712.0</ele><time>2026-04-19T11:52:36.852Z</time></trkpt><trkpt lat="42.3460867" lon="13.3986124"><ele>712.0</ele><time>2026-04-19T11:52:37.851Z</time></trkpt><trkpt lat="42.3461109" lon="13.3985259"><ele>712.0</ele><time>2026-04-19T11:52:38.852Z</time></trkpt><trkpt lat="42.3461389" lon="13.3984418"><ele>712.0</ele><time>2026-04-19T11:52:39.852Z</time></trkpt><trkpt lat="42.3461676" lon="13.3983531"><ele>711.9999999999999</ele><time>2026-04-19T11:52:40.852Z</time></trkpt><trkpt lat="42.3461937" lon="13.3982663"><ele>712.0</ele><time>2026-04-19T11:52:41.852Z</time></trkpt><trkpt lat="42.3462246" lon="13.3981787"><ele>712.0</ele><time>2026-04-19T11:52:42.851Z</time></trkpt><trkpt lat="42.3462522" lon="13.3980986"><ele>712.0</ele><time>2026-04-19T11:52:43.858Z</time></trkpt><trkpt lat="42.346297" lon="13.3979545"><ele>712.0</ele><time>2026-04-19T11:52:45.858Z</time></trkpt><trkpt lat="42.3463259" lon="13.397858"><ele>712.0</ele><time>2026-04-19T11:52:47.859Z</time></trkpt><trkpt lat="42.3463317" lon="13.3977407"><ele>712.0</ele><time>2026-04-19T11:52:57.859Z</time></trkpt><trkpt lat="42.3462783" lon="13.3976918"><ele>712.0</ele><time>2026-04-19T11:53:01.858Z</time></trkpt><trkpt lat="42.3462039" lon="13.3976808"><ele>712.0</ele><time>2026-04-19T11:53:03.858Z</time></trkpt><trkpt lat="42.3461359" lon="13.3976406"><ele>712.0</ele><time>2026-04-19T11:53:05.859Z</time></trkpt><trkpt lat="42.3460812" lon="13.3975892"><ele>712.0</ele><time>2026-04-19T11:53:07.858Z</time></trkpt><trkpt lat="42.3460234" lon="13.3975094"><ele>712.0</ele><time>2026-04-19T11:53:10.858Z</time></trkpt><trkpt lat="42.3459778" lon="13.397431"><ele>712.0</ele><time>2026-04-19T11:53:25.858Z</time></trkpt><trkpt lat="42.3460381" lon="13.3973796"><ele>712.0</ele><time>2026-04-19T11:53:35.859Z</time></trkpt></trkseg></trk></gpx>